<?xml version="1.0" encoding="UTF-8" standalone="no" ?>
<gpx xmlns="http://www.topografix.com/GPX/1/1" xmlns:xsi="http://www.w3.org/2001/XMLSchema-instance" xsi:schemaLocation="http://www.topografix.com/GPX/1/1 http://www.topografix.com/GPX/1/1/gpx.xsd" version="1.1" creator="VisuGPX - https://www.visugpx.com">
  <metadata>
    <name>du pont de l'Esteron au mouton d'Anou</name>
    <desc><![CDATA[Départ du pont de l'Esteron, montée par la route au Broc puis direction Bouyon, à gauche bouche rouge pompier prendre départ goudronné raide, puis encore à gauche piste goudronnée au début. après 1km dans virage prendre piste à gauche, passer le portail puis après qq centaines de mètres le départ du chemin sur la droite.
En haut du chemin, piste à droite puis à l'embranchement à gauche et redescendre à gauche vers la piste du gaz qu'on coupe pour prendre en face chemin vers St Jeannet, après 1km départ du single à droite belle descente (dite de l'avion) jusqu'à la balise. prendre à droite le chemin qui longe la Cagne, jusqu'à la piste qui remonte à Bésaudin.
Au bout on retombe sur la route, prendre la route à droute vers bouyon,puis dans le village les escaliers pour récupérer le chemin plein nord. Courte descente qui retombe sur la route, suivre 50m puis prendre à gauche piste raide qui continue par single redescend sur Bouyon.
Traverser le village puis chemin à gauche versant nord qui par une très belle descente retourne sur la clave puis final par la route 1km retour au point de départ;
]]></desc>
  </metadata>
  <trk>
    <name><![CDATA[Le Broc Cyclisme]]></name>
    <trkseg>
      <trkpt lat="43.8364" lon="7.17285">
        <ele>130.80000305176</ele>
        <time>2020-01-11T08:27:06.000Z</time>
      </trkpt>
      <trkpt lat="43.83641" lon="7.17283">
        <ele>130.80000305176</ele>
        <time>2020-01-11T08:27:09.000Z</time>
      </trkpt>
      <trkpt lat="43.83644" lon="7.1728">
        <ele>130.80000305176</ele>
        <time>2020-01-11T08:27:11.000Z</time>
      </trkpt>
      <trkpt lat="43.83649" lon="7.17266">
        <ele>130.80000305176</ele>
        <time>2020-01-11T08:27:16.000Z</time>
      </trkpt>
      <trkpt lat="43.83647" lon="7.17248">
        <ele>131</ele>
        <time>2020-01-11T08:27:22.000Z</time>
      </trkpt>
      <trkpt lat="43.83641" lon="7.17237">
        <ele>131.39999389648</ele>
        <time>2020-01-11T08:27:27.000Z</time>
      </trkpt>
      <trkpt lat="43.83637" lon="7.17229">
        <ele>131.80000305176</ele>
        <time>2020-01-11T08:27:30.000Z</time>
      </trkpt>
      <trkpt lat="43.83635" lon="7.17224">
        <ele>132.19999694824</ele>
        <time>2020-01-11T08:27:32.000Z</time>
      </trkpt>
      <trkpt lat="43.83627" lon="7.1721">
        <ele>133</ele>
        <time>2020-01-11T08:27:38.000Z</time>
      </trkpt>
      <trkpt lat="43.83623" lon="7.17206">
        <ele>133.39999389648</ele>
        <time>2020-01-11T08:27:40.000Z</time>
      </trkpt>
      <trkpt lat="43.83613" lon="7.172">
        <ele>134</ele>
        <time>2020-01-11T08:27:45.000Z</time>
      </trkpt>
      <trkpt lat="43.83608" lon="7.17199">
        <ele>134.19999694824</ele>
        <time>2020-01-11T08:27:47.000Z</time>
      </trkpt>
      <trkpt lat="43.83596" lon="7.17195">
        <ele>135.19999694824</ele>
        <time>2020-01-11T08:27:52.000Z</time>
      </trkpt>
      <trkpt lat="43.83591" lon="7.17193">
        <ele>135.60000610352</ele>
        <time>2020-01-11T08:27:54.000Z</time>
      </trkpt>
      <trkpt lat="43.83578" lon="7.17189">
        <ele>136.19999694824</ele>
        <time>2020-01-11T08:27:59.000Z</time>
      </trkpt>
      <trkpt lat="43.8357" lon="7.17187">
        <ele>136.80000305176</ele>
        <time>2020-01-11T08:28:02.000Z</time>
      </trkpt>
      <trkpt lat="43.8356" lon="7.17185">
        <ele>137.39999389648</ele>
        <time>2020-01-11T08:28:06.000Z</time>
      </trkpt>
      <trkpt lat="43.83549" lon="7.17184">
        <ele>138</ele>
        <time>2020-01-11T08:28:10.000Z</time>
      </trkpt>
      <trkpt lat="43.83541" lon="7.17184">
        <ele>138.39999389648</ele>
        <time>2020-01-11T08:28:13.000Z</time>
      </trkpt>
      <trkpt lat="43.83524" lon="7.17183">
        <ele>139.39999389648</ele>
        <time>2020-01-11T08:28:19.000Z</time>
      </trkpt>
      <trkpt lat="43.83521" lon="7.17183">
        <ele>139.39999389648</ele>
        <time>2020-01-11T08:28:20.000Z</time>
      </trkpt>
      <trkpt lat="43.83503" lon="7.17183">
        <ele>140.39999389648</ele>
        <time>2020-01-11T08:28:26.000Z</time>
      </trkpt>
      <trkpt lat="43.83501" lon="7.17183">
        <ele>140.60000610352</ele>
        <time>2020-01-11T08:28:27.000Z</time>
      </trkpt>
      <trkpt lat="43.8348" lon="7.17183">
        <ele>141.60000610352</ele>
        <time>2020-01-11T08:28:34.000Z</time>
      </trkpt>
      <trkpt lat="43.83467" lon="7.17183">
        <ele>142.60000610352</ele>
        <time>2020-01-11T08:28:40.000Z</time>
      </trkpt>
      <trkpt lat="43.83464" lon="7.17183">
        <ele>142.60000610352</ele>
        <time>2020-01-11T08:28:41.000Z</time>
      </trkpt>
      <trkpt lat="43.83452" lon="7.17182">
        <ele>143.19999694824</ele>
        <time>2020-01-11T08:28:45.000Z</time>
      </trkpt>
      <trkpt lat="43.83443" lon="7.17183">
        <ele>143.80000305176</ele>
        <time>2020-01-11T08:28:48.000Z</time>
      </trkpt>
      <trkpt lat="43.83434" lon="7.17183">
        <ele>144</ele>
        <time>2020-01-11T08:28:51.000Z</time>
      </trkpt>
      <trkpt lat="43.83418" lon="7.17185">
        <ele>144.80000305176</ele>
        <time>2020-01-11T08:28:56.000Z</time>
      </trkpt>
      <trkpt lat="43.83409" lon="7.17187">
        <ele>145.39999389648</ele>
        <time>2020-01-11T08:28:59.000Z</time>
      </trkpt>
      <trkpt lat="43.83397" lon="7.17193">
        <ele>146</ele>
        <time>2020-01-11T08:29:03.000Z</time>
      </trkpt>
      <trkpt lat="43.83391" lon="7.17196">
        <ele>146.39999389648</ele>
        <time>2020-01-11T08:29:05.000Z</time>
      </trkpt>
      <trkpt lat="43.83378" lon="7.17208">
        <ele>147.19999694824</ele>
        <time>2020-01-11T08:29:10.000Z</time>
      </trkpt>
      <trkpt lat="43.83373" lon="7.17215">
        <ele>147.60000610352</ele>
        <time>2020-01-11T08:29:12.000Z</time>
      </trkpt>
      <trkpt lat="43.83366" lon="7.17231">
        <ele>148.19999694824</ele>
        <time>2020-01-11T08:29:16.000Z</time>
      </trkpt>
      <trkpt lat="43.8336" lon="7.1724">
        <ele>148.60000610352</ele>
        <time>2020-01-11T08:29:19.000Z</time>
      </trkpt>
      <trkpt lat="43.83353" lon="7.17248">
        <ele>149.19999694824</ele>
        <time>2020-01-11T08:29:22.000Z</time>
      </trkpt>
      <trkpt lat="43.83344" lon="7.17252">
        <ele>149.60000610352</ele>
        <time>2020-01-11T08:29:25.000Z</time>
      </trkpt>
      <trkpt lat="43.83332" lon="7.1725">
        <ele>150.39999389648</ele>
        <time>2020-01-11T08:29:29.000Z</time>
      </trkpt>
      <trkpt lat="43.83329" lon="7.1725">
        <ele>150.39999389648</ele>
        <time>2020-01-11T08:29:30.000Z</time>
      </trkpt>
      <trkpt lat="43.83314" lon="7.17246">
        <ele>151.39999389648</ele>
        <time>2020-01-11T08:29:35.000Z</time>
      </trkpt>
      <trkpt lat="43.83308" lon="7.17244">
        <ele>151.80000305176</ele>
        <time>2020-01-11T08:29:37.000Z</time>
      </trkpt>
      <trkpt lat="43.83295" lon="7.17241">
        <ele>152.39999389648</ele>
        <time>2020-01-11T08:29:42.000Z</time>
      </trkpt>
      <trkpt lat="43.83289" lon="7.17244">
        <ele>152.80000305176</ele>
        <time>2020-01-11T08:29:44.000Z</time>
      </trkpt>
      <trkpt lat="43.8328" lon="7.17261">
        <ele>153.60000610352</ele>
        <time>2020-01-11T08:29:49.000Z</time>
      </trkpt>
      <trkpt lat="43.83274" lon="7.1728">
        <ele>154.19999694824</ele>
        <time>2020-01-11T08:29:54.000Z</time>
      </trkpt>
      <trkpt lat="43.83273" lon="7.17287">
        <ele>154.60000610352</ele>
        <time>2020-01-11T08:29:56.000Z</time>
      </trkpt>
      <trkpt lat="43.83269" lon="7.17311">
        <ele>155.60000610352</ele>
        <time>2020-01-11T08:30:03.000Z</time>
      </trkpt>
      <trkpt lat="43.83262" lon="7.17331">
        <ele>156.19999694824</ele>
        <time>2020-01-11T08:30:09.000Z</time>
      </trkpt>
      <trkpt lat="43.83255" lon="7.17343">
        <ele>156.80000305176</ele>
        <time>2020-01-11T08:30:13.000Z</time>
      </trkpt>
      <trkpt lat="43.83251" lon="7.17351">
        <ele>157.39999389648</ele>
        <time>2020-01-11T08:30:16.000Z</time>
      </trkpt>
      <trkpt lat="43.83245" lon="7.17365">
        <ele>158</ele>
        <time>2020-01-11T08:30:20.000Z</time>
      </trkpt>
      <trkpt lat="43.83245" lon="7.17368">
        <ele>158</ele>
        <time>2020-01-11T08:30:21.000Z</time>
      </trkpt>
      <trkpt lat="43.83239" lon="7.17386">
        <ele>159</ele>
        <time>2020-01-11T08:30:26.000Z</time>
      </trkpt>
      <trkpt lat="43.83238" lon="7.17394">
        <ele>159.19999694824</ele>
        <time>2020-01-11T08:30:28.000Z</time>
      </trkpt>
      <trkpt lat="43.83235" lon="7.17414">
        <ele>159.80000305176</ele>
        <time>2020-01-11T08:30:33.000Z</time>
      </trkpt>
      <trkpt lat="43.83235" lon="7.17418">
        <ele>160</ele>
        <time>2020-01-11T08:30:34.000Z</time>
      </trkpt>
      <trkpt lat="43.83231" lon="7.17444">
        <ele>161</ele>
        <time>2020-01-11T08:30:40.000Z</time>
      </trkpt>
      <trkpt lat="43.8323" lon="7.17448">
        <ele>161.19999694824</ele>
        <time>2020-01-11T08:30:41.000Z</time>
      </trkpt>
      <trkpt lat="43.83229" lon="7.17469">
        <ele>162</ele>
        <time>2020-01-11T08:30:46.000Z</time>
      </trkpt>
      <trkpt lat="43.83229" lon="7.17476">
        <ele>162.39999389648</ele>
        <time>2020-01-11T08:30:48.000Z</time>
      </trkpt>
      <trkpt lat="43.83228" lon="7.17493">
        <ele>163.19999694824</ele>
        <time>2020-01-11T08:30:52.000Z</time>
      </trkpt>
      <trkpt lat="43.83228" lon="7.17498">
        <ele>163.39999389648</ele>
        <time>2020-01-11T08:30:53.000Z</time>
      </trkpt>
      <trkpt lat="43.83219" lon="7.17519">
        <ele>164.60000610352</ele>
        <time>2020-01-11T08:30:59.000Z</time>
      </trkpt>
      <trkpt lat="43.83202" lon="7.17525">
        <ele>165.39999389648</ele>
        <time>2020-01-11T08:31:05.000Z</time>
      </trkpt>
      <trkpt lat="43.832" lon="7.17526">
        <ele>165.60000610352</ele>
        <time>2020-01-11T08:31:06.000Z</time>
      </trkpt>
      <trkpt lat="43.83183" lon="7.17529">
        <ele>166.60000610352</ele>
        <time>2020-01-11T08:31:12.000Z</time>
      </trkpt>
      <trkpt lat="43.83174" lon="7.1753">
        <ele>167.19999694824</ele>
        <time>2020-01-11T08:31:15.000Z</time>
      </trkpt>
      <trkpt lat="43.83166" lon="7.17531">
        <ele>167.80000305176</ele>
        <time>2020-01-11T08:31:18.000Z</time>
      </trkpt>
      <trkpt lat="43.83157" lon="7.1753">
        <ele>168.19999694824</ele>
        <time>2020-01-11T08:31:21.000Z</time>
      </trkpt>
      <trkpt lat="43.83146" lon="7.17528">
        <ele>168.80000305176</ele>
        <time>2020-01-11T08:31:25.000Z</time>
      </trkpt>
      <trkpt lat="43.83132" lon="7.17523">
        <ele>169.60000610352</ele>
        <time>2020-01-11T08:31:30.000Z</time>
      </trkpt>
      <trkpt lat="43.83127" lon="7.17521">
        <ele>169.80000305176</ele>
        <time>2020-01-11T08:31:32.000Z</time>
      </trkpt>
      <trkpt lat="43.83107" lon="7.17517">
        <ele>170.80000305176</ele>
        <time>2020-01-11T08:31:39.000Z</time>
      </trkpt>
      <trkpt lat="43.83085" lon="7.17509">
        <ele>172</ele>
        <time>2020-01-11T08:31:47.000Z</time>
      </trkpt>
      <trkpt lat="43.83063" lon="7.17503">
        <ele>173</ele>
        <time>2020-01-11T08:31:55.000Z</time>
      </trkpt>
      <trkpt lat="43.8306" lon="7.17503">
        <ele>173</ele>
        <time>2020-01-11T08:31:56.000Z</time>
      </trkpt>
      <trkpt lat="43.83039" lon="7.17497">
        <ele>174</ele>
        <time>2020-01-11T08:32:04.000Z</time>
      </trkpt>
      <trkpt lat="43.83036" lon="7.17496">
        <ele>174.19999694824</ele>
        <time>2020-01-11T08:32:05.000Z</time>
      </trkpt>
      <trkpt lat="43.83023" lon="7.17484">
        <ele>175.19999694824</ele>
        <time>2020-01-11T08:32:11.000Z</time>
      </trkpt>
      <trkpt lat="43.83008" lon="7.17472">
        <ele>176.19999694824</ele>
        <time>2020-01-11T08:32:17.000Z</time>
      </trkpt>
      <trkpt lat="43.82989" lon="7.17468">
        <ele>177</ele>
        <time>2020-01-11T08:32:24.000Z</time>
      </trkpt>
      <trkpt lat="43.82983" lon="7.17466">
        <ele>177.39999389648</ele>
        <time>2020-01-11T08:32:26.000Z</time>
      </trkpt>
      <trkpt lat="43.82968" lon="7.17456">
        <ele>178.39999389648</ele>
        <time>2020-01-11T08:32:32.000Z</time>
      </trkpt>
      <trkpt lat="43.8295" lon="7.17446">
        <ele>179.60000610352</ele>
        <time>2020-01-11T08:32:39.000Z</time>
      </trkpt>
      <trkpt lat="43.82947" lon="7.17443">
        <ele>179.80000305176</ele>
        <time>2020-01-11T08:32:40.000Z</time>
      </trkpt>
      <trkpt lat="43.82935" lon="7.17435">
        <ele>180.60000610352</ele>
        <time>2020-01-11T08:32:45.000Z</time>
      </trkpt>
      <trkpt lat="43.82924" lon="7.17431">
        <ele>181.19999694824</ele>
        <time>2020-01-11T08:32:49.000Z</time>
      </trkpt>
      <trkpt lat="43.82915" lon="7.17432">
        <ele>181.60000610352</ele>
        <time>2020-01-11T08:32:52.000Z</time>
      </trkpt>
      <trkpt lat="43.829" lon="7.17434">
        <ele>182.39999389648</ele>
        <time>2020-01-11T08:32:57.000Z</time>
      </trkpt>
      <trkpt lat="43.82894" lon="7.17435">
        <ele>182.80000305176</ele>
        <time>2020-01-11T08:32:59.000Z</time>
      </trkpt>
      <trkpt lat="43.82872" lon="7.17433">
        <ele>183.60000610352</ele>
        <time>2020-01-11T08:33:06.000Z</time>
      </trkpt>
      <trkpt lat="43.82866" lon="7.17424">
        <ele>183.80000305176</ele>
        <time>2020-01-11T08:33:09.000Z</time>
      </trkpt>
      <trkpt lat="43.82858" lon="7.17415">
        <ele>184.19999694824</ele>
        <time>2020-01-11T08:33:12.000Z</time>
      </trkpt>
      <trkpt lat="43.82847" lon="7.17409">
        <ele>185</ele>
        <time>2020-01-11T08:33:16.000Z</time>
      </trkpt>
      <trkpt lat="43.82841" lon="7.17407">
        <ele>185.19999694824</ele>
        <time>2020-01-11T08:33:18.000Z</time>
      </trkpt>
      <trkpt lat="43.82827" lon="7.174">
        <ele>186.19999694824</ele>
        <time>2020-01-11T08:33:23.000Z</time>
      </trkpt>
      <trkpt lat="43.82819" lon="7.17396">
        <ele>186.60000610352</ele>
        <time>2020-01-11T08:33:26.000Z</time>
      </trkpt>
      <trkpt lat="43.82811" lon="7.1739">
        <ele>187.19999694824</ele>
        <time>2020-01-11T08:33:29.000Z</time>
      </trkpt>
      <trkpt lat="43.82806" lon="7.1738">
        <ele>187.80000305176</ele>
        <time>2020-01-11T08:33:32.000Z</time>
      </trkpt>
      <trkpt lat="43.82806" lon="7.17373">
        <ele>188.19999694824</ele>
        <time>2020-01-11T08:33:34.000Z</time>
      </trkpt>
      <trkpt lat="43.82805" lon="7.17361">
        <ele>188.80000305176</ele>
        <time>2020-01-11T08:33:37.000Z</time>
      </trkpt>
      <trkpt lat="43.82803" lon="7.17346">
        <ele>189.39999389648</ele>
        <time>2020-01-11T08:33:41.000Z</time>
      </trkpt>
      <trkpt lat="43.828" lon="7.17334">
        <ele>190</ele>
        <time>2020-01-11T08:33:44.000Z</time>
      </trkpt>
      <trkpt lat="43.82798" lon="7.17329">
        <ele>190.60000610352</ele>
        <time>2020-01-11T08:33:46.000Z</time>
      </trkpt>
      <trkpt lat="43.8279" lon="7.17322">
        <ele>191.80000305176</ele>
        <time>2020-01-11T08:33:49.000Z</time>
      </trkpt>
      <trkpt lat="43.82781" lon="7.1732">
        <ele>191.39999389648</ele>
        <time>2020-01-11T08:33:52.000Z</time>
      </trkpt>
      <trkpt lat="43.82778" lon="7.17322">
        <ele>191.19999694824</ele>
        <time>2020-01-11T08:33:53.000Z</time>
      </trkpt>
      <trkpt lat="43.82766" lon="7.1733">
        <ele>191.80000305176</ele>
        <time>2020-01-11T08:33:58.000Z</time>
      </trkpt>
      <trkpt lat="43.82765" lon="7.17334">
        <ele>192.19999694824</ele>
        <time>2020-01-11T08:33:59.000Z</time>
      </trkpt>
      <trkpt lat="43.8276" lon="7.17345">
        <ele>192.80000305176</ele>
        <time>2020-01-11T08:34:02.000Z</time>
      </trkpt>
      <trkpt lat="43.8275" lon="7.17361">
        <ele>193.80000305176</ele>
        <time>2020-01-11T08:34:07.000Z</time>
      </trkpt>
      <trkpt lat="43.82748" lon="7.17365">
        <ele>193.80000305176</ele>
        <time>2020-01-11T08:34:08.000Z</time>
      </trkpt>
      <trkpt lat="43.82735" lon="7.17375">
        <ele>194.80000305176</ele>
        <time>2020-01-11T08:34:13.000Z</time>
      </trkpt>
      <trkpt lat="43.82732" lon="7.17376">
        <ele>195</ele>
        <time>2020-01-11T08:34:14.000Z</time>
      </trkpt>
      <trkpt lat="43.82709" lon="7.17385">
        <ele>196</ele>
        <time>2020-01-11T08:34:21.000Z</time>
      </trkpt>
      <trkpt lat="43.82696" lon="7.17381">
        <ele>197</ele>
        <time>2020-01-11T08:34:25.000Z</time>
      </trkpt>
      <trkpt lat="43.82693" lon="7.17379">
        <ele>197.19999694824</ele>
        <time>2020-01-11T08:34:26.000Z</time>
      </trkpt>
      <trkpt lat="43.82683" lon="7.1736">
        <ele>197.60000610352</ele>
        <time>2020-01-11T08:34:31.000Z</time>
      </trkpt>
      <trkpt lat="43.82677" lon="7.17343">
        <ele>198.19999694824</ele>
        <time>2020-01-11T08:34:35.000Z</time>
      </trkpt>
      <trkpt lat="43.82667" lon="7.17319">
        <ele>199.19999694824</ele>
        <time>2020-01-11T08:34:41.000Z</time>
      </trkpt>
      <trkpt lat="43.82665" lon="7.17316">
        <ele>199.39999389648</ele>
        <time>2020-01-11T08:34:42.000Z</time>
      </trkpt>
      <trkpt lat="43.82657" lon="7.17294">
        <ele>200.39999389648</ele>
        <time>2020-01-11T08:34:47.000Z</time>
      </trkpt>
      <trkpt lat="43.82651" lon="7.17278">
        <ele>200.80000305176</ele>
        <time>2020-01-11T08:34:51.000Z</time>
      </trkpt>
      <trkpt lat="43.82643" lon="7.17264">
        <ele>201.39999389648</ele>
        <time>2020-01-11T08:34:55.000Z</time>
      </trkpt>
      <trkpt lat="43.82636" lon="7.17255">
        <ele>201.80000305176</ele>
        <time>2020-01-11T08:34:58.000Z</time>
      </trkpt>
      <trkpt lat="43.82629" lon="7.17246">
        <ele>202.39999389648</ele>
        <time>2020-01-11T08:35:01.000Z</time>
      </trkpt>
      <trkpt lat="43.82617" lon="7.17232">
        <ele>203.60000610352</ele>
        <time>2020-01-11T08:35:06.000Z</time>
      </trkpt>
      <trkpt lat="43.82615" lon="7.17229">
        <ele>203.80000305176</ele>
        <time>2020-01-11T08:35:07.000Z</time>
      </trkpt>
      <trkpt lat="43.82607" lon="7.17215">
        <ele>204.80000305176</ele>
        <time>2020-01-11T08:35:11.000Z</time>
      </trkpt>
      <trkpt lat="43.826" lon="7.17202">
        <ele>205</ele>
        <time>2020-01-11T08:35:15.000Z</time>
      </trkpt>
      <trkpt lat="43.82589" lon="7.17185">
        <ele>205.80000305176</ele>
        <time>2020-01-11T08:35:20.000Z</time>
      </trkpt>
      <trkpt lat="43.82584" lon="7.1718">
        <ele>206</ele>
        <time>2020-01-11T08:35:22.000Z</time>
      </trkpt>
      <trkpt lat="43.8257" lon="7.17178">
        <ele>206.60000610352</ele>
        <time>2020-01-11T08:35:27.000Z</time>
      </trkpt>
      <trkpt lat="43.82566" lon="7.17184">
        <ele>206.80000305176</ele>
        <time>2020-01-11T08:35:29.000Z</time>
      </trkpt>
      <trkpt lat="43.82562" lon="7.17191">
        <ele>207.19999694824</ele>
        <time>2020-01-11T08:35:31.000Z</time>
      </trkpt>
      <trkpt lat="43.82557" lon="7.17207">
        <ele>208</ele>
        <time>2020-01-11T08:35:35.000Z</time>
      </trkpt>
      <trkpt lat="43.82556" lon="7.17215">
        <ele>208.19999694824</ele>
        <time>2020-01-11T08:35:37.000Z</time>
      </trkpt>
      <trkpt lat="43.82547" lon="7.17243">
        <ele>208.80000305176</ele>
        <time>2020-01-11T08:35:44.000Z</time>
      </trkpt>
      <trkpt lat="43.82546" lon="7.17247">
        <ele>209</ele>
        <time>2020-01-11T08:35:45.000Z</time>
      </trkpt>
      <trkpt lat="43.82541" lon="7.17273">
        <ele>209.39999389648</ele>
        <time>2020-01-11T08:35:51.000Z</time>
      </trkpt>
      <trkpt lat="43.82535" lon="7.17292">
        <ele>210</ele>
        <time>2020-01-11T08:35:56.000Z</time>
      </trkpt>
      <trkpt lat="43.82533" lon="7.17296">
        <ele>210</ele>
        <time>2020-01-11T08:35:57.000Z</time>
      </trkpt>
      <trkpt lat="43.82522" lon="7.17308">
        <ele>210.60000610352</ele>
        <time>2020-01-11T08:36:02.000Z</time>
      </trkpt>
      <trkpt lat="43.82519" lon="7.17313">
        <ele>211</ele>
        <time>2020-01-11T08:36:04.000Z</time>
      </trkpt>
      <trkpt lat="43.82512" lon="7.1732">
        <ele>211.60000610352</ele>
        <time>2020-01-11T08:36:07.000Z</time>
      </trkpt>
      <trkpt lat="43.82506" lon="7.17335">
        <ele>212</ele>
        <time>2020-01-11T08:36:11.000Z</time>
      </trkpt>
      <trkpt lat="43.82502" lon="7.17342">
        <ele>212.19999694824</ele>
        <time>2020-01-11T08:36:13.000Z</time>
      </trkpt>
      <trkpt lat="43.82494" lon="7.17355">
        <ele>213.19999694824</ele>
        <time>2020-01-11T08:36:17.000Z</time>
      </trkpt>
      <trkpt lat="43.82492" lon="7.17357">
        <ele>213.39999389648</ele>
        <time>2020-01-11T08:36:18.000Z</time>
      </trkpt>
      <trkpt lat="43.8248" lon="7.17369">
        <ele>214.19999694824</ele>
        <time>2020-01-11T08:36:23.000Z</time>
      </trkpt>
      <trkpt lat="43.82478" lon="7.17372">
        <ele>214.19999694824</ele>
        <time>2020-01-11T08:36:24.000Z</time>
      </trkpt>
      <trkpt lat="43.82468" lon="7.17396">
        <ele>215</ele>
        <time>2020-01-11T08:36:30.000Z</time>
      </trkpt>
      <trkpt lat="43.82464" lon="7.17411">
        <ele>215.19999694824</ele>
        <time>2020-01-11T08:36:34.000Z</time>
      </trkpt>
      <trkpt lat="43.82462" lon="7.17425">
        <ele>216</ele>
        <time>2020-01-11T08:36:37.000Z</time>
      </trkpt>
      <trkpt lat="43.82461" lon="7.17439">
        <ele>216.39999389648</ele>
        <time>2020-01-11T08:36:40.000Z</time>
      </trkpt>
      <trkpt lat="43.82455" lon="7.17466">
        <ele>217</ele>
        <time>2020-01-11T08:36:46.000Z</time>
      </trkpt>
      <trkpt lat="43.82452" lon="7.1748">
        <ele>217.39999389648</ele>
        <time>2020-01-11T08:36:49.000Z</time>
      </trkpt>
      <trkpt lat="43.82451" lon="7.17501">
        <ele>217.80000305176</ele>
        <time>2020-01-11T08:36:54.000Z</time>
      </trkpt>
      <trkpt lat="43.82453" lon="7.17519">
        <ele>218.39999389648</ele>
        <time>2020-01-11T08:36:58.000Z</time>
      </trkpt>
      <trkpt lat="43.82455" lon="7.17537">
        <ele>219.19999694824</ele>
        <time>2020-01-11T08:37:02.000Z</time>
      </trkpt>
      <trkpt lat="43.82454" lon="7.17546">
        <ele>219.39999389648</ele>
        <time>2020-01-11T08:37:04.000Z</time>
      </trkpt>
      <trkpt lat="43.82451" lon="7.17565">
        <ele>220</ele>
        <time>2020-01-11T08:37:08.000Z</time>
      </trkpt>
      <trkpt lat="43.82447" lon="7.17583">
        <ele>220.60000610352</ele>
        <time>2020-01-11T08:37:12.000Z</time>
      </trkpt>
      <trkpt lat="43.8244" lon="7.17593">
        <ele>221</ele>
        <time>2020-01-11T08:37:15.000Z</time>
      </trkpt>
      <trkpt lat="43.82432" lon="7.17602">
        <ele>221.60000610352</ele>
        <time>2020-01-11T08:37:18.000Z</time>
      </trkpt>
      <trkpt lat="43.82422" lon="7.17612">
        <ele>222.19999694824</ele>
        <time>2020-01-11T08:37:22.000Z</time>
      </trkpt>
      <trkpt lat="43.82412" lon="7.17615">
        <ele>222.60000610352</ele>
        <time>2020-01-11T08:37:25.000Z</time>
      </trkpt>
      <trkpt lat="43.82405" lon="7.17615">
        <ele>222.80000305176</ele>
        <time>2020-01-11T08:37:27.000Z</time>
      </trkpt>
      <trkpt lat="43.82388" lon="7.17606">
        <ele>223.80000305176</ele>
        <time>2020-01-11T08:37:32.000Z</time>
      </trkpt>
      <trkpt lat="43.82385" lon="7.17604">
        <ele>224</ele>
        <time>2020-01-11T08:37:33.000Z</time>
      </trkpt>
      <trkpt lat="43.82371" lon="7.17591">
        <ele>224.80000305176</ele>
        <time>2020-01-11T08:37:38.000Z</time>
      </trkpt>
      <trkpt lat="43.8236" lon="7.17581">
        <ele>225.39999389648</ele>
        <time>2020-01-11T08:37:42.000Z</time>
      </trkpt>
      <trkpt lat="43.82349" lon="7.1757">
        <ele>226</ele>
        <time>2020-01-11T08:37:46.000Z</time>
      </trkpt>
      <trkpt lat="43.82338" lon="7.1756">
        <ele>226.60000610352</ele>
        <time>2020-01-11T08:37:50.000Z</time>
      </trkpt>
      <trkpt lat="43.82324" lon="7.17548">
        <ele>227</ele>
        <time>2020-01-11T08:37:55.000Z</time>
      </trkpt>
      <trkpt lat="43.82317" lon="7.17539">
        <ele>227.39999389648</ele>
        <time>2020-01-11T08:37:58.000Z</time>
      </trkpt>
      <trkpt lat="43.8231" lon="7.17523">
        <ele>228</ele>
        <time>2020-01-11T08:38:02.000Z</time>
      </trkpt>
      <trkpt lat="43.82308" lon="7.17515">
        <ele>228.19999694824</ele>
        <time>2020-01-11T08:38:04.000Z</time>
      </trkpt>
      <trkpt lat="43.82301" lon="7.17489">
        <ele>229</ele>
        <time>2020-01-11T08:38:10.000Z</time>
      </trkpt>
      <trkpt lat="43.82298" lon="7.1748">
        <ele>229.39999389648</ele>
        <time>2020-01-11T08:38:12.000Z</time>
      </trkpt>
      <trkpt lat="43.82289" lon="7.17451">
        <ele>230.19999694824</ele>
        <time>2020-01-11T08:38:19.000Z</time>
      </trkpt>
      <trkpt lat="43.82287" lon="7.17447">
        <ele>230.19999694824</ele>
        <time>2020-01-11T08:38:20.000Z</time>
      </trkpt>
      <trkpt lat="43.82276" lon="7.17419">
        <ele>231.19999694824</ele>
        <time>2020-01-11T08:38:27.000Z</time>
      </trkpt>
      <trkpt lat="43.8227" lon="7.17408">
        <ele>231.60000610352</ele>
        <time>2020-01-11T08:38:30.000Z</time>
      </trkpt>
      <trkpt lat="43.82261" lon="7.17396">
        <ele>232.19999694824</ele>
        <time>2020-01-11T08:38:34.000Z</time>
      </trkpt>
      <trkpt lat="43.82249" lon="7.17379">
        <ele>232.80000305176</ele>
        <time>2020-01-11T08:38:39.000Z</time>
      </trkpt>
      <trkpt lat="43.82236" lon="7.17362">
        <ele>233.39999389648</ele>
        <time>2020-01-11T08:38:44.000Z</time>
      </trkpt>
      <trkpt lat="43.82221" lon="7.17343">
        <ele>234.19999694824</ele>
        <time>2020-01-11T08:38:50.000Z</time>
      </trkpt>
      <trkpt lat="43.82219" lon="7.1734">
        <ele>234.39999389648</ele>
        <time>2020-01-11T08:38:51.000Z</time>
      </trkpt>
      <trkpt lat="43.822" lon="7.17321">
        <ele>235.60000610352</ele>
        <time>2020-01-11T08:38:58.000Z</time>
      </trkpt>
      <trkpt lat="43.82191" lon="7.17313">
        <ele>236</ele>
        <time>2020-01-11T08:39:01.000Z</time>
      </trkpt>
      <trkpt lat="43.82175" lon="7.17297">
        <ele>236.60000610352</ele>
        <time>2020-01-11T08:39:07.000Z</time>
      </trkpt>
      <trkpt lat="43.82167" lon="7.17289">
        <ele>237</ele>
        <time>2020-01-11T08:39:10.000Z</time>
      </trkpt>
      <trkpt lat="43.82153" lon="7.17274">
        <ele>237.80000305176</ele>
        <time>2020-01-11T08:39:15.000Z</time>
      </trkpt>
      <trkpt lat="43.82138" lon="7.17257">
        <ele>238.60000610352</ele>
        <time>2020-01-11T08:39:21.000Z</time>
      </trkpt>
      <trkpt lat="43.82132" lon="7.17251">
        <ele>238.80000305176</ele>
        <time>2020-01-11T08:39:23.000Z</time>
      </trkpt>
      <trkpt lat="43.82112" lon="7.17228">
        <ele>240</ele>
        <time>2020-01-11T08:39:31.000Z</time>
      </trkpt>
      <trkpt lat="43.82109" lon="7.17225">
        <ele>240.19999694824</ele>
        <time>2020-01-11T08:39:32.000Z</time>
      </trkpt>
      <trkpt lat="43.82093" lon="7.17203">
        <ele>241.19999694824</ele>
        <time>2020-01-11T08:39:39.000Z</time>
      </trkpt>
      <trkpt lat="43.82085" lon="7.17195">
        <ele>241.39999389648</ele>
        <time>2020-01-11T08:39:42.000Z</time>
      </trkpt>
      <trkpt lat="43.82073" lon="7.17182">
        <ele>242.19999694824</ele>
        <time>2020-01-11T08:39:47.000Z</time>
      </trkpt>
      <trkpt lat="43.82064" lon="7.17169">
        <ele>242.60000610352</ele>
        <time>2020-01-11T08:39:51.000Z</time>
      </trkpt>
      <trkpt lat="43.82056" lon="7.17154">
        <ele>243.19999694824</ele>
        <time>2020-01-11T08:39:55.000Z</time>
      </trkpt>
      <trkpt lat="43.82048" lon="7.17135">
        <ele>244</ele>
        <time>2020-01-11T08:40:00.000Z</time>
      </trkpt>
      <trkpt lat="43.82041" lon="7.17127">
        <ele>244.39999389648</ele>
        <time>2020-01-11T08:40:03.000Z</time>
      </trkpt>
      <trkpt lat="43.82038" lon="7.17126">
        <ele>244.39999389648</ele>
        <time>2020-01-11T08:40:04.000Z</time>
      </trkpt>
      <trkpt lat="43.82025" lon="7.17128">
        <ele>245</ele>
        <time>2020-01-11T08:40:08.000Z</time>
      </trkpt>
      <trkpt lat="43.82017" lon="7.17134">
        <ele>245.39999389648</ele>
        <time>2020-01-11T08:40:11.000Z</time>
      </trkpt>
      <trkpt lat="43.82003" lon="7.17143">
        <ele>246.19999694824</ele>
        <time>2020-01-11T08:40:16.000Z</time>
      </trkpt>
      <trkpt lat="43.81992" lon="7.17153">
        <ele>246.39999389648</ele>
        <time>2020-01-11T08:40:20.000Z</time>
      </trkpt>
      <trkpt lat="43.81985" lon="7.17163">
        <ele>246.80000305176</ele>
        <time>2020-01-11T08:40:23.000Z</time>
      </trkpt>
      <trkpt lat="43.81969" lon="7.17174">
        <ele>247.39999389648</ele>
        <time>2020-01-11T08:40:29.000Z</time>
      </trkpt>
      <trkpt lat="43.8195" lon="7.1718">
        <ele>248.39999389648</ele>
        <time>2020-01-11T08:40:35.000Z</time>
      </trkpt>
      <trkpt lat="43.81944" lon="7.17184">
        <ele>248.80000305176</ele>
        <time>2020-01-11T08:40:37.000Z</time>
      </trkpt>
      <trkpt lat="43.81934" lon="7.17199">
        <ele>249.39999389648</ele>
        <time>2020-01-11T08:40:42.000Z</time>
      </trkpt>
      <trkpt lat="43.81932" lon="7.17203">
        <ele>249.60000610352</ele>
        <time>2020-01-11T08:40:43.000Z</time>
      </trkpt>
      <trkpt lat="43.81926" lon="7.17219">
        <ele>250</ele>
        <time>2020-01-11T08:40:47.000Z</time>
      </trkpt>
      <trkpt lat="43.81912" lon="7.17239">
        <ele>250.60000610352</ele>
        <time>2020-01-11T08:40:53.000Z</time>
      </trkpt>
      <trkpt lat="43.81899" lon="7.17253">
        <ele>251.19999694824</ele>
        <time>2020-01-11T08:40:58.000Z</time>
      </trkpt>
      <trkpt lat="43.81888" lon="7.17258">
        <ele>251.80000305176</ele>
        <time>2020-01-11T08:41:02.000Z</time>
      </trkpt>
      <trkpt lat="43.81884" lon="7.1726">
        <ele>252</ele>
        <time>2020-01-11T08:41:03.000Z</time>
      </trkpt>
      <trkpt lat="43.81866" lon="7.17268">
        <ele>252.80000305176</ele>
        <time>2020-01-11T08:41:09.000Z</time>
      </trkpt>
      <trkpt lat="43.81862" lon="7.1727">
        <ele>253</ele>
        <time>2020-01-11T08:41:10.000Z</time>
      </trkpt>
      <trkpt lat="43.81839" lon="7.17277">
        <ele>253.80000305176</ele>
        <time>2020-01-11T08:41:17.000Z</time>
      </trkpt>
      <trkpt lat="43.81833" lon="7.17278">
        <ele>254.19999694824</ele>
        <time>2020-01-11T08:41:19.000Z</time>
      </trkpt>
      <trkpt lat="43.81818" lon="7.17289">
        <ele>254.80000305176</ele>
        <time>2020-01-11T08:41:24.000Z</time>
      </trkpt>
      <trkpt lat="43.81815" lon="7.17291">
        <ele>255</ele>
        <time>2020-01-11T08:41:25.000Z</time>
      </trkpt>
      <trkpt lat="43.818" lon="7.17305">
        <ele>255.80000305176</ele>
        <time>2020-01-11T08:41:31.000Z</time>
      </trkpt>
      <trkpt lat="43.81794" lon="7.17308">
        <ele>256</ele>
        <time>2020-01-11T08:41:33.000Z</time>
      </trkpt>
      <trkpt lat="43.81783" lon="7.17317">
        <ele>256.79998779297</ele>
        <time>2020-01-11T08:41:37.000Z</time>
      </trkpt>
      <trkpt lat="43.81775" lon="7.17322">
        <ele>257.20001220703</ele>
        <time>2020-01-11T08:41:40.000Z</time>
      </trkpt>
      <trkpt lat="43.81765" lon="7.17323">
        <ele>257.60000610352</ele>
        <time>2020-01-11T08:41:43.000Z</time>
      </trkpt>
      <trkpt lat="43.8175" lon="7.17317">
        <ele>258.20001220703</ele>
        <time>2020-01-11T08:41:48.000Z</time>
      </trkpt>
      <trkpt lat="43.81744" lon="7.17313">
        <ele>258.60000610352</ele>
        <time>2020-01-11T08:41:50.000Z</time>
      </trkpt>
      <trkpt lat="43.81724" lon="7.17311">
        <ele>259</ele>
        <time>2020-01-11T08:41:56.000Z</time>
      </trkpt>
      <trkpt lat="43.81718" lon="7.17313">
        <ele>259.20001220703</ele>
        <time>2020-01-11T08:41:58.000Z</time>
      </trkpt>
      <trkpt lat="43.81703" lon="7.17321">
        <ele>260</ele>
        <time>2020-01-11T08:42:03.000Z</time>
      </trkpt>
      <trkpt lat="43.81697" lon="7.17323">
        <ele>260.39999389648</ele>
        <time>2020-01-11T08:42:05.000Z</time>
      </trkpt>
      <trkpt lat="43.81685" lon="7.17322">
        <ele>261.20001220703</ele>
        <time>2020-01-11T08:42:09.000Z</time>
      </trkpt>
      <trkpt lat="43.81678" lon="7.1732">
        <ele>261.39999389648</ele>
        <time>2020-01-11T08:42:11.000Z</time>
      </trkpt>
      <trkpt lat="43.81662" lon="7.1732">
        <ele>262</ele>
        <time>2020-01-11T08:42:16.000Z</time>
      </trkpt>
      <trkpt lat="43.8165" lon="7.17326">
        <ele>262.60000610352</ele>
        <time>2020-01-11T08:42:20.000Z</time>
      </trkpt>
      <trkpt lat="43.81644" lon="7.17329">
        <ele>263</ele>
        <time>2020-01-11T08:42:22.000Z</time>
      </trkpt>
      <trkpt lat="43.81625" lon="7.17336">
        <ele>263.79998779297</ele>
        <time>2020-01-11T08:42:28.000Z</time>
      </trkpt>
      <trkpt lat="43.81614" lon="7.17338">
        <ele>264.39999389648</ele>
        <time>2020-01-11T08:42:31.000Z</time>
      </trkpt>
      <trkpt lat="43.81601" lon="7.17338">
        <ele>264.79998779297</ele>
        <time>2020-01-11T08:42:35.000Z</time>
      </trkpt>
      <trkpt lat="43.8159" lon="7.17333">
        <ele>265.39999389648</ele>
        <time>2020-01-11T08:42:39.000Z</time>
      </trkpt>
      <trkpt lat="43.81581" lon="7.17327">
        <ele>265.79998779297</ele>
        <time>2020-01-11T08:42:42.000Z</time>
      </trkpt>
      <trkpt lat="43.81573" lon="7.17318">
        <ele>266.39999389648</ele>
        <time>2020-01-11T08:42:45.000Z</time>
      </trkpt>
      <trkpt lat="43.81567" lon="7.17308">
        <ele>267</ele>
        <time>2020-01-11T08:42:48.000Z</time>
      </trkpt>
      <trkpt lat="43.81561" lon="7.17292">
        <ele>267.60000610352</ele>
        <time>2020-01-11T08:42:52.000Z</time>
      </trkpt>
      <trkpt lat="43.81555" lon="7.17274">
        <ele>268</ele>
        <time>2020-01-11T08:42:56.000Z</time>
      </trkpt>
      <trkpt lat="43.81551" lon="7.17263">
        <ele>268.60000610352</ele>
        <time>2020-01-11T08:42:59.000Z</time>
      </trkpt>
      <trkpt lat="43.81547" lon="7.1725">
        <ele>269.20001220703</ele>
        <time>2020-01-11T08:43:02.000Z</time>
      </trkpt>
      <trkpt lat="43.8154" lon="7.17229">
        <ele>269.79998779297</ele>
        <time>2020-01-11T08:43:07.000Z</time>
      </trkpt>
      <trkpt lat="43.81535" lon="7.17217">
        <ele>270.20001220703</ele>
        <time>2020-01-11T08:43:10.000Z</time>
      </trkpt>
      <trkpt lat="43.81526" lon="7.17198">
        <ele>270.79998779297</ele>
        <time>2020-01-11T08:43:15.000Z</time>
      </trkpt>
      <trkpt lat="43.81518" lon="7.17177">
        <ele>271.39999389648</ele>
        <time>2020-01-11T08:43:20.000Z</time>
      </trkpt>
      <trkpt lat="43.81508" lon="7.17157">
        <ele>272.39999389648</ele>
        <time>2020-01-11T08:43:25.000Z</time>
      </trkpt>
      <trkpt lat="43.81505" lon="7.17154">
        <ele>272.39999389648</ele>
        <time>2020-01-11T08:43:26.000Z</time>
      </trkpt>
      <trkpt lat="43.81492" lon="7.1715">
        <ele>273</ele>
        <time>2020-01-11T08:43:30.000Z</time>
      </trkpt>
      <trkpt lat="43.81482" lon="7.17155">
        <ele>273.60000610352</ele>
        <time>2020-01-11T08:43:34.000Z</time>
      </trkpt>
      <trkpt lat="43.81479" lon="7.17157">
        <ele>273.79998779297</ele>
        <time>2020-01-11T08:43:35.000Z</time>
      </trkpt>
      <trkpt lat="43.81468" lon="7.17166">
        <ele>274.60000610352</ele>
        <time>2020-01-11T08:43:39.000Z</time>
      </trkpt>
      <trkpt lat="43.81465" lon="7.17169">
        <ele>274.79998779297</ele>
        <time>2020-01-11T08:43:40.000Z</time>
      </trkpt>
      <trkpt lat="43.81453" lon="7.17188">
        <ele>275.79998779297</ele>
        <time>2020-01-11T08:43:46.000Z</time>
      </trkpt>
      <trkpt lat="43.81438" lon="7.17207">
        <ele>276.60000610352</ele>
        <time>2020-01-11T08:43:52.000Z</time>
      </trkpt>
      <trkpt lat="43.81435" lon="7.17209">
        <ele>276.79998779297</ele>
        <time>2020-01-11T08:43:53.000Z</time>
      </trkpt>
      <trkpt lat="43.81416" lon="7.17228">
        <ele>277.60000610352</ele>
        <time>2020-01-11T08:44:00.000Z</time>
      </trkpt>
      <trkpt lat="43.8141" lon="7.17233">
        <ele>278</ele>
        <time>2020-01-11T08:44:02.000Z</time>
      </trkpt>
      <trkpt lat="43.81391" lon="7.17246">
        <ele>278.79998779297</ele>
        <time>2020-01-11T08:44:08.000Z</time>
      </trkpt>
      <trkpt lat="43.81385" lon="7.17248">
        <ele>279</ele>
        <time>2020-01-11T08:44:10.000Z</time>
      </trkpt>
      <trkpt lat="43.81368" lon="7.17249">
        <ele>280</ele>
        <time>2020-01-11T08:44:15.000Z</time>
      </trkpt>
      <trkpt lat="43.81365" lon="7.17248">
        <ele>280.20001220703</ele>
        <time>2020-01-11T08:44:16.000Z</time>
      </trkpt>
      <trkpt lat="43.81344" lon="7.17247">
        <ele>281.20001220703</ele>
        <time>2020-01-11T08:44:22.000Z</time>
      </trkpt>
      <trkpt lat="43.81323" lon="7.17243">
        <ele>282.20001220703</ele>
        <time>2020-01-11T08:44:28.000Z</time>
      </trkpt>
      <trkpt lat="43.81316" lon="7.17242">
        <ele>282.39999389648</ele>
        <time>2020-01-11T08:44:30.000Z</time>
      </trkpt>
      <trkpt lat="43.81299" lon="7.17244">
        <ele>282.79998779297</ele>
        <time>2020-01-11T08:44:35.000Z</time>
      </trkpt>
      <trkpt lat="43.81284" lon="7.17257">
        <ele>283.60000610352</ele>
        <time>2020-01-11T08:44:40.000Z</time>
      </trkpt>
      <trkpt lat="43.81278" lon="7.17263">
        <ele>283.79998779297</ele>
        <time>2020-01-11T08:44:42.000Z</time>
      </trkpt>
      <trkpt lat="43.81265" lon="7.17272">
        <ele>284.60000610352</ele>
        <time>2020-01-11T08:44:46.000Z</time>
      </trkpt>
      <trkpt lat="43.81261" lon="7.17274">
        <ele>284.79998779297</ele>
        <time>2020-01-11T08:44:47.000Z</time>
      </trkpt>
      <trkpt lat="43.81238" lon="7.17277">
        <ele>285.79998779297</ele>
        <time>2020-01-11T08:44:53.000Z</time>
      </trkpt>
      <trkpt lat="43.81213" lon="7.17276">
        <ele>286.60000610352</ele>
        <time>2020-01-11T08:44:59.000Z</time>
      </trkpt>
      <trkpt lat="43.81208" lon="7.17274">
        <ele>286.79998779297</ele>
        <time>2020-01-11T08:45:00.000Z</time>
      </trkpt>
      <trkpt lat="43.81195" lon="7.17265">
        <ele>287.39999389648</ele>
        <time>2020-01-11T08:45:03.000Z</time>
      </trkpt>
      <trkpt lat="43.81182" lon="7.17254">
        <ele>287.79998779297</ele>
        <time>2020-01-11T08:45:06.000Z</time>
      </trkpt>
      <trkpt lat="43.81178" lon="7.17251">
        <ele>288</ele>
        <time>2020-01-11T08:45:07.000Z</time>
      </trkpt>
      <trkpt lat="43.81163" lon="7.17251">
        <ele>288.79998779297</ele>
        <time>2020-01-11T08:45:10.000Z</time>
      </trkpt>
      <trkpt lat="43.81154" lon="7.17257">
        <ele>289.20001220703</ele>
        <time>2020-01-11T08:45:12.000Z</time>
      </trkpt>
      <trkpt lat="43.81148" lon="7.17266">
        <ele>289.60000610352</ele>
        <time>2020-01-11T08:45:14.000Z</time>
      </trkpt>
      <trkpt lat="43.81144" lon="7.17272">
        <ele>289.79998779297</ele>
        <time>2020-01-11T08:45:15.000Z</time>
      </trkpt>
      <trkpt lat="43.81136" lon="7.17282">
        <ele>290.39999389648</ele>
        <time>2020-01-11T08:45:17.000Z</time>
      </trkpt>
      <trkpt lat="43.81121" lon="7.17305">
        <ele>291.39999389648</ele>
        <time>2020-01-11T08:45:21.000Z</time>
      </trkpt>
      <trkpt lat="43.81118" lon="7.1731">
        <ele>291.60000610352</ele>
        <time>2020-01-11T08:45:22.000Z</time>
      </trkpt>
      <trkpt lat="43.81106" lon="7.17331">
        <ele>292.60000610352</ele>
        <time>2020-01-11T08:45:26.000Z</time>
      </trkpt>
      <trkpt lat="43.811" lon="7.17341">
        <ele>293</ele>
        <time>2020-01-11T08:45:28.000Z</time>
      </trkpt>
      <trkpt lat="43.81094" lon="7.17351">
        <ele>293.60000610352</ele>
        <time>2020-01-11T08:45:30.000Z</time>
      </trkpt>
      <trkpt lat="43.8109" lon="7.17355">
        <ele>293.79998779297</ele>
        <time>2020-01-11T08:45:31.000Z</time>
      </trkpt>
      <trkpt lat="43.81079" lon="7.17364">
        <ele>294.39999389648</ele>
        <time>2020-01-11T08:45:34.000Z</time>
      </trkpt>
      <trkpt lat="43.81075" lon="7.17367">
        <ele>294.60000610352</ele>
        <time>2020-01-11T08:45:35.000Z</time>
      </trkpt>
      <trkpt lat="43.8107" lon="7.1737">
        <ele>294.79998779297</ele>
        <time>2020-01-11T08:45:36.000Z</time>
      </trkpt>
      <trkpt lat="43.81053" lon="7.17379">
        <ele>295.79998779297</ele>
        <time>2020-01-11T08:45:40.000Z</time>
      </trkpt>
      <trkpt lat="43.81044" lon="7.17383">
        <ele>296.39999389648</ele>
        <time>2020-01-11T08:45:42.000Z</time>
      </trkpt>
      <trkpt lat="43.81036" lon="7.17389">
        <ele>296.60000610352</ele>
        <time>2020-01-11T08:45:44.000Z</time>
      </trkpt>
      <trkpt lat="43.81032" lon="7.17392">
        <ele>296.79998779297</ele>
        <time>2020-01-11T08:45:45.000Z</time>
      </trkpt>
      <trkpt lat="43.81019" lon="7.17402">
        <ele>297.39999389648</ele>
        <time>2020-01-11T08:45:48.000Z</time>
      </trkpt>
      <trkpt lat="43.81007" lon="7.1741">
        <ele>298</ele>
        <time>2020-01-11T08:45:51.000Z</time>
      </trkpt>
      <trkpt lat="43.80996" lon="7.17416">
        <ele>298.60000610352</ele>
        <time>2020-01-11T08:45:54.000Z</time>
      </trkpt>
      <trkpt lat="43.80991" lon="7.17419">
        <ele>298.79998779297</ele>
        <time>2020-01-11T08:45:55.000Z</time>
      </trkpt>
      <trkpt lat="43.80987" lon="7.17423">
        <ele>299</ele>
        <time>2020-01-11T08:45:56.000Z</time>
      </trkpt>
      <trkpt lat="43.80984" lon="7.17427">
        <ele>299.20001220703</ele>
        <time>2020-01-11T08:45:57.000Z</time>
      </trkpt>
      <trkpt lat="43.80976" lon="7.17441">
        <ele>299.79998779297</ele>
        <time>2020-01-11T08:46:00.000Z</time>
      </trkpt>
      <trkpt lat="43.80973" lon="7.17446">
        <ele>300.20001220703</ele>
        <time>2020-01-11T08:46:01.000Z</time>
      </trkpt>
      <trkpt lat="43.80971" lon="7.17451">
        <ele>300.20001220703</ele>
        <time>2020-01-11T08:46:02.000Z</time>
      </trkpt>
      <trkpt lat="43.8096" lon="7.17476">
        <ele>301.39999389648</ele>
        <time>2020-01-11T08:46:07.000Z</time>
      </trkpt>
      <trkpt lat="43.80956" lon="7.17491">
        <ele>301.79998779297</ele>
        <time>2020-01-11T08:46:10.000Z</time>
      </trkpt>
      <trkpt lat="43.80952" lon="7.1751">
        <ele>302.60000610352</ele>
        <time>2020-01-11T08:46:13.000Z</time>
      </trkpt>
      <trkpt lat="43.80948" lon="7.1754">
        <ele>303.79998779297</ele>
        <time>2020-01-11T08:46:18.000Z</time>
      </trkpt>
      <trkpt lat="43.80946" lon="7.17558">
        <ele>304.39999389648</ele>
        <time>2020-01-11T08:46:21.000Z</time>
      </trkpt>
      <trkpt lat="43.80944" lon="7.17575">
        <ele>305</ele>
        <time>2020-01-11T08:46:24.000Z</time>
      </trkpt>
      <trkpt lat="43.80936" lon="7.17609">
        <ele>306</ele>
        <time>2020-01-11T08:46:30.000Z</time>
      </trkpt>
      <trkpt lat="43.80935" lon="7.17614">
        <ele>306.20001220703</ele>
        <time>2020-01-11T08:46:31.000Z</time>
      </trkpt>
      <trkpt lat="43.80928" lon="7.17648">
        <ele>307.20001220703</ele>
        <time>2020-01-11T08:46:37.000Z</time>
      </trkpt>
      <trkpt lat="43.80924" lon="7.17664">
        <ele>307.60000610352</ele>
        <time>2020-01-11T08:46:40.000Z</time>
      </trkpt>
      <trkpt lat="43.80916" lon="7.17686">
        <ele>308.20001220703</ele>
        <time>2020-01-11T08:46:45.000Z</time>
      </trkpt>
      <trkpt lat="43.80908" lon="7.17686">
        <ele>308.60000610352</ele>
        <time>2020-01-11T08:46:48.000Z</time>
      </trkpt>
      <trkpt lat="43.80907" lon="7.17683">
        <ele>308.79998779297</ele>
        <time>2020-01-11T08:46:49.000Z</time>
      </trkpt>
      <trkpt lat="43.80912" lon="7.17672">
        <ele>309</ele>
        <time>2020-01-11T08:46:52.000Z</time>
      </trkpt>
      <trkpt lat="43.8092" lon="7.17656">
        <ele>309.39999389648</ele>
        <time>2020-01-11T08:46:56.000Z</time>
      </trkpt>
      <trkpt lat="43.80921" lon="7.17653">
        <ele>309.39999389648</ele>
        <time>2020-01-11T08:46:57.000Z</time>
      </trkpt>
      <trkpt lat="43.80924" lon="7.17637">
        <ele>310.60000610352</ele>
        <time>2020-01-11T08:47:01.000Z</time>
      </trkpt>
      <trkpt lat="43.80926" lon="7.17626">
        <ele>311.60000610352</ele>
        <time>2020-01-11T08:47:04.000Z</time>
      </trkpt>
      <trkpt lat="43.80929" lon="7.17609">
        <ele>312.79998779297</ele>
        <time>2020-01-11T08:47:08.000Z</time>
      </trkpt>
      <trkpt lat="43.80932" lon="7.17589">
        <ele>314</ele>
        <time>2020-01-11T08:47:13.000Z</time>
      </trkpt>
      <trkpt lat="43.80933" lon="7.17585">
        <ele>314.20001220703</ele>
        <time>2020-01-11T08:47:14.000Z</time>
      </trkpt>
      <trkpt lat="43.80935" lon="7.17568">
        <ele>315.20001220703</ele>
        <time>2020-01-11T08:47:18.000Z</time>
      </trkpt>
      <trkpt lat="43.80937" lon="7.17548">
        <ele>316.39999389648</ele>
        <time>2020-01-11T08:47:23.000Z</time>
      </trkpt>
      <trkpt lat="43.80936" lon="7.17532">
        <ele>317.60000610352</ele>
        <time>2020-01-11T08:47:27.000Z</time>
      </trkpt>
      <trkpt lat="43.80937" lon="7.17516">
        <ele>318.60000610352</ele>
        <time>2020-01-11T08:47:31.000Z</time>
      </trkpt>
      <trkpt lat="43.80939" lon="7.17497">
        <ele>319.79998779297</ele>
        <time>2020-01-11T08:47:36.000Z</time>
      </trkpt>
      <trkpt lat="43.8094" lon="7.17489">
        <ele>320.20001220703</ele>
        <time>2020-01-11T08:47:38.000Z</time>
      </trkpt>
      <trkpt lat="43.8094" lon="7.17481">
        <ele>320.79998779297</ele>
        <time>2020-01-11T08:47:40.000Z</time>
      </trkpt>
      <trkpt lat="43.80942" lon="7.17461">
        <ele>322</ele>
        <time>2020-01-11T08:47:45.000Z</time>
      </trkpt>
      <trkpt lat="43.80943" lon="7.17453">
        <ele>322.39999389648</ele>
        <time>2020-01-11T08:47:47.000Z</time>
      </trkpt>
      <trkpt lat="43.80944" lon="7.1744">
        <ele>323.20001220703</ele>
        <time>2020-01-11T08:47:50.000Z</time>
      </trkpt>
      <trkpt lat="43.80948" lon="7.17421">
        <ele>324.20001220703</ele>
        <time>2020-01-11T08:47:55.000Z</time>
      </trkpt>
      <trkpt lat="43.80953" lon="7.17403">
        <ele>325.20001220703</ele>
        <time>2020-01-11T08:48:00.000Z</time>
      </trkpt>
      <trkpt lat="43.80956" lon="7.17396">
        <ele>325.79998779297</ele>
        <time>2020-01-11T08:48:02.000Z</time>
      </trkpt>
      <trkpt lat="43.80962" lon="7.17387">
        <ele>326.39999389648</ele>
        <time>2020-01-11T08:48:05.000Z</time>
      </trkpt>
      <trkpt lat="43.8097" lon="7.17378">
        <ele>327.60000610352</ele>
        <time>2020-01-11T08:48:09.000Z</time>
      </trkpt>
      <trkpt lat="43.80972" lon="7.17375">
        <ele>327.79998779297</ele>
        <time>2020-01-11T08:48:10.000Z</time>
      </trkpt>
      <trkpt lat="43.80982" lon="7.17368">
        <ele>328.60000610352</ele>
        <time>2020-01-11T08:48:14.000Z</time>
      </trkpt>
      <trkpt lat="43.80994" lon="7.17358">
        <ele>329.79998779297</ele>
        <time>2020-01-11T08:48:19.000Z</time>
      </trkpt>
      <trkpt lat="43.81007" lon="7.17343">
        <ele>330.79998779297</ele>
        <time>2020-01-11T08:48:25.000Z</time>
      </trkpt>
      <trkpt lat="43.81009" lon="7.17341">
        <ele>331.20001220703</ele>
        <time>2020-01-11T08:48:26.000Z</time>
      </trkpt>
      <trkpt lat="43.81017" lon="7.17329">
        <ele>332</ele>
        <time>2020-01-11T08:48:30.000Z</time>
      </trkpt>
      <trkpt lat="43.81025" lon="7.1732">
        <ele>333</ele>
        <time>2020-01-11T08:48:34.000Z</time>
      </trkpt>
      <trkpt lat="43.81027" lon="7.17317">
        <ele>333.20001220703</ele>
        <time>2020-01-11T08:48:35.000Z</time>
      </trkpt>
      <trkpt lat="43.81039" lon="7.17304">
        <ele>334.20001220703</ele>
        <time>2020-01-11T08:48:40.000Z</time>
      </trkpt>
      <trkpt lat="43.81045" lon="7.17295">
        <ele>334.79998779297</ele>
        <time>2020-01-11T08:48:43.000Z</time>
      </trkpt>
      <trkpt lat="43.81048" lon="7.17289">
        <ele>335.20001220703</ele>
        <time>2020-01-11T08:48:45.000Z</time>
      </trkpt>
      <trkpt lat="43.81056" lon="7.17273">
        <ele>336.60000610352</ele>
        <time>2020-01-11T08:48:50.000Z</time>
      </trkpt>
      <trkpt lat="43.81058" lon="7.1727">
        <ele>336.79998779297</ele>
        <time>2020-01-11T08:48:51.000Z</time>
      </trkpt>
      <trkpt lat="43.81063" lon="7.1726">
        <ele>337.60000610352</ele>
        <time>2020-01-11T08:48:54.000Z</time>
      </trkpt>
      <trkpt lat="43.81069" lon="7.17246">
        <ele>338.39999389648</ele>
        <time>2020-01-11T08:48:58.000Z</time>
      </trkpt>
      <trkpt lat="43.81071" lon="7.17244">
        <ele>338.60000610352</ele>
        <time>2020-01-11T08:48:59.000Z</time>
      </trkpt>
      <trkpt lat="43.8108" lon="7.17229">
        <ele>339.60000610352</ele>
        <time>2020-01-11T08:49:04.000Z</time>
      </trkpt>
      <trkpt lat="43.81087" lon="7.17221">
        <ele>340.20001220703</ele>
        <time>2020-01-11T08:49:07.000Z</time>
      </trkpt>
      <trkpt lat="43.81091" lon="7.17216">
        <ele>340.60000610352</ele>
        <time>2020-01-11T08:49:09.000Z</time>
      </trkpt>
      <trkpt lat="43.81102" lon="7.17203">
        <ele>341.79998779297</ele>
        <time>2020-01-11T08:49:14.000Z</time>
      </trkpt>
      <trkpt lat="43.81109" lon="7.17191">
        <ele>342.60000610352</ele>
        <time>2020-01-11T08:49:18.000Z</time>
      </trkpt>
      <trkpt lat="43.8111" lon="7.17188">
        <ele>342.79998779297</ele>
        <time>2020-01-11T08:49:19.000Z</time>
      </trkpt>
      <trkpt lat="43.81112" lon="7.17168">
        <ele>343.79998779297</ele>
        <time>2020-01-11T08:49:24.000Z</time>
      </trkpt>
      <trkpt lat="43.81111" lon="7.17164">
        <ele>344</ele>
        <time>2020-01-11T08:49:25.000Z</time>
      </trkpt>
      <trkpt lat="43.81109" lon="7.17146">
        <ele>345.20001220703</ele>
        <time>2020-01-11T08:49:30.000Z</time>
      </trkpt>
      <trkpt lat="43.81108" lon="7.17142">
        <ele>345.60000610352</ele>
        <time>2020-01-11T08:49:31.000Z</time>
      </trkpt>
      <trkpt lat="43.81106" lon="7.17126">
        <ele>346.39999389648</ele>
        <time>2020-01-11T08:49:35.000Z</time>
      </trkpt>
      <trkpt lat="43.81103" lon="7.17103">
        <ele>347.60000610352</ele>
        <time>2020-01-11T08:49:41.000Z</time>
      </trkpt>
      <trkpt lat="43.81104" lon="7.17079">
        <ele>348.79998779297</ele>
        <time>2020-01-11T08:49:47.000Z</time>
      </trkpt>
      <trkpt lat="43.81104" lon="7.17075">
        <ele>349</ele>
        <time>2020-01-11T08:49:48.000Z</time>
      </trkpt>
      <trkpt lat="43.81105" lon="7.1706">
        <ele>350</ele>
        <time>2020-01-11T08:49:52.000Z</time>
      </trkpt>
      <trkpt lat="43.81109" lon="7.1705">
        <ele>350.60000610352</ele>
        <time>2020-01-11T08:49:55.000Z</time>
      </trkpt>
      <trkpt lat="43.81112" lon="7.17044">
        <ele>351</ele>
        <time>2020-01-11T08:49:57.000Z</time>
      </trkpt>
      <trkpt lat="43.81122" lon="7.17026">
        <ele>352.39999389648</ele>
        <time>2020-01-11T08:50:03.000Z</time>
      </trkpt>
      <trkpt lat="43.81133" lon="7.17011">
        <ele>353.39999389648</ele>
        <time>2020-01-11T08:50:09.000Z</time>
      </trkpt>
      <trkpt lat="43.81138" lon="7.17007">
        <ele>353.79998779297</ele>
        <time>2020-01-11T08:50:11.000Z</time>
      </trkpt>
      <trkpt lat="43.81144" lon="7.16999">
        <ele>354.39999389648</ele>
        <time>2020-01-11T08:50:14.000Z</time>
      </trkpt>
      <trkpt lat="43.81157" lon="7.16991">
        <ele>355.60000610352</ele>
        <time>2020-01-11T08:50:19.000Z</time>
      </trkpt>
      <trkpt lat="43.81174" lon="7.16986">
        <ele>356.79998779297</ele>
        <time>2020-01-11T08:50:25.000Z</time>
      </trkpt>
      <trkpt lat="43.81182" lon="7.16983">
        <ele>357.79998779297</ele>
        <time>2020-01-11T08:50:28.000Z</time>
      </trkpt>
      <trkpt lat="43.81184" lon="7.16982">
        <ele>358</ele>
        <time>2020-01-11T08:50:29.000Z</time>
      </trkpt>
      <trkpt lat="43.81196" lon="7.16976">
        <ele>359</ele>
        <time>2020-01-11T08:50:33.000Z</time>
      </trkpt>
      <trkpt lat="43.81201" lon="7.16973">
        <ele>359.39999389648</ele>
        <time>2020-01-11T08:50:35.000Z</time>
      </trkpt>
      <trkpt lat="43.81211" lon="7.16967">
        <ele>360</ele>
        <time>2020-01-11T08:50:39.000Z</time>
      </trkpt>
      <trkpt lat="43.81223" lon="7.16961">
        <ele>361</ele>
        <time>2020-01-11T08:50:43.000Z</time>
      </trkpt>
      <trkpt lat="43.81224" lon="7.1696">
        <ele>361.39999389648</ele>
        <time>2020-01-11T08:50:44.000Z</time>
      </trkpt>
      <trkpt lat="43.81236" lon="7.16954">
        <ele>362.20001220703</ele>
        <time>2020-01-11T08:50:48.000Z</time>
      </trkpt>
      <trkpt lat="43.8125" lon="7.16946">
        <ele>363.20001220703</ele>
        <time>2020-01-11T08:50:53.000Z</time>
      </trkpt>
      <trkpt lat="43.81258" lon="7.1694">
        <ele>363.79998779297</ele>
        <time>2020-01-11T08:50:56.000Z</time>
      </trkpt>
      <trkpt lat="43.81265" lon="7.16935">
        <ele>364.39999389648</ele>
        <time>2020-01-11T08:50:59.000Z</time>
      </trkpt>
      <trkpt lat="43.81278" lon="7.16926">
        <ele>365.60000610352</ele>
        <time>2020-01-11T08:51:04.000Z</time>
      </trkpt>
      <trkpt lat="43.81281" lon="7.16924">
        <ele>365.79998779297</ele>
        <time>2020-01-11T08:51:05.000Z</time>
      </trkpt>
      <trkpt lat="43.81294" lon="7.16917">
        <ele>366.60000610352</ele>
        <time>2020-01-11T08:51:10.000Z</time>
      </trkpt>
      <trkpt lat="43.81303" lon="7.16915">
        <ele>367.39999389648</ele>
        <time>2020-01-11T08:51:13.000Z</time>
      </trkpt>
      <trkpt lat="43.81306" lon="7.16914">
        <ele>367.79998779297</ele>
        <time>2020-01-11T08:51:14.000Z</time>
      </trkpt>
      <trkpt lat="43.8132" lon="7.1691">
        <ele>368.79998779297</ele>
        <time>2020-01-11T08:51:19.000Z</time>
      </trkpt>
      <trkpt lat="43.81327" lon="7.16907">
        <ele>369.60000610352</ele>
        <time>2020-01-11T08:51:22.000Z</time>
      </trkpt>
      <trkpt lat="43.81332" lon="7.16904">
        <ele>370</ele>
        <time>2020-01-11T08:51:24.000Z</time>
      </trkpt>
      <trkpt lat="43.81344" lon="7.1689">
        <ele>370.79998779297</ele>
        <time>2020-01-11T08:51:29.000Z</time>
      </trkpt>
      <trkpt lat="43.81346" lon="7.16889">
        <ele>371</ele>
        <time>2020-01-11T08:51:30.000Z</time>
      </trkpt>
      <trkpt lat="43.81351" lon="7.16886">
        <ele>371.39999389648</ele>
        <time>2020-01-11T08:51:32.000Z</time>
      </trkpt>
      <trkpt lat="43.81358" lon="7.16879">
        <ele>372.20001220703</ele>
        <time>2020-01-11T08:51:35.000Z</time>
      </trkpt>
      <trkpt lat="43.81366" lon="7.1687">
        <ele>373.20001220703</ele>
        <time>2020-01-11T08:51:39.000Z</time>
      </trkpt>
      <trkpt lat="43.81374" lon="7.16856">
        <ele>374.39999389648</ele>
        <time>2020-01-11T08:51:44.000Z</time>
      </trkpt>
      <trkpt lat="43.81382" lon="7.16847">
        <ele>375.39999389648</ele>
        <time>2020-01-11T08:51:48.000Z</time>
      </trkpt>
      <trkpt lat="43.81385" lon="7.16845">
        <ele>375.60000610352</ele>
        <time>2020-01-11T08:51:49.000Z</time>
      </trkpt>
      <trkpt lat="43.81398" lon="7.16837">
        <ele>376.60000610352</ele>
        <time>2020-01-11T08:51:54.000Z</time>
      </trkpt>
      <trkpt lat="43.81416" lon="7.16829">
        <ele>377.79998779297</ele>
        <time>2020-01-11T08:52:01.000Z</time>
      </trkpt>
      <trkpt lat="43.81419" lon="7.16828">
        <ele>378</ele>
        <time>2020-01-11T08:52:02.000Z</time>
      </trkpt>
      <trkpt lat="43.81431" lon="7.16824">
        <ele>379</ele>
        <time>2020-01-11T08:52:06.000Z</time>
      </trkpt>
      <trkpt lat="43.81442" lon="7.16823">
        <ele>380</ele>
        <time>2020-01-11T08:52:10.000Z</time>
      </trkpt>
      <trkpt lat="43.81459" lon="7.16818">
        <ele>381</ele>
        <time>2020-01-11T08:52:17.000Z</time>
      </trkpt>
      <trkpt lat="43.8146" lon="7.16815">
        <ele>381</ele>
        <time>2020-01-11T08:52:18.000Z</time>
      </trkpt>
      <trkpt lat="43.81456" lon="7.16807">
        <ele>381.60000610352</ele>
        <time>2020-01-11T08:52:21.000Z</time>
      </trkpt>
      <trkpt lat="43.81451" lon="7.16807">
        <ele>382.20001220703</ele>
        <time>2020-01-11T08:52:23.000Z</time>
      </trkpt>
      <trkpt lat="43.81442" lon="7.16809">
        <ele>382.60000610352</ele>
        <time>2020-01-11T08:52:26.000Z</time>
      </trkpt>
      <trkpt lat="43.81431" lon="7.16811">
        <ele>383.20001220703</ele>
        <time>2020-01-11T08:52:30.000Z</time>
      </trkpt>
      <trkpt lat="43.81422" lon="7.16811">
        <ele>383.79998779297</ele>
        <time>2020-01-11T08:52:33.000Z</time>
      </trkpt>
      <trkpt lat="43.81414" lon="7.1681">
        <ele>384.39999389648</ele>
        <time>2020-01-11T08:52:36.000Z</time>
      </trkpt>
      <trkpt lat="43.81404" lon="7.16809">
        <ele>385.39999389648</ele>
        <time>2020-01-11T08:52:40.000Z</time>
      </trkpt>
      <trkpt lat="43.81402" lon="7.16809">
        <ele>385.60000610352</ele>
        <time>2020-01-11T08:52:41.000Z</time>
      </trkpt>
      <trkpt lat="43.8139" lon="7.16809">
        <ele>386.79998779297</ele>
        <time>2020-01-11T08:52:46.000Z</time>
      </trkpt>
      <trkpt lat="43.81376" lon="7.16812">
        <ele>387.60000610352</ele>
        <time>2020-01-11T08:52:51.000Z</time>
      </trkpt>
      <trkpt lat="43.8137" lon="7.16814">
        <ele>388</ele>
        <time>2020-01-11T08:52:53.000Z</time>
      </trkpt>
      <trkpt lat="43.81357" lon="7.16821">
        <ele>389.20001220703</ele>
        <time>2020-01-11T08:52:58.000Z</time>
      </trkpt>
      <trkpt lat="43.81344" lon="7.16826">
        <ele>390.39999389648</ele>
        <time>2020-01-11T08:53:03.000Z</time>
      </trkpt>
      <trkpt lat="43.81335" lon="7.16826">
        <ele>391</ele>
        <time>2020-01-11T08:53:06.000Z</time>
      </trkpt>
      <trkpt lat="43.8133" lon="7.16827">
        <ele>391.39999389648</ele>
        <time>2020-01-11T08:53:08.000Z</time>
      </trkpt>
      <trkpt lat="43.81316" lon="7.16828">
        <ele>392.60000610352</ele>
        <time>2020-01-11T08:53:13.000Z</time>
      </trkpt>
      <trkpt lat="43.81313" lon="7.16828">
        <ele>392.60000610352</ele>
        <time>2020-01-11T08:53:14.000Z</time>
      </trkpt>
      <trkpt lat="43.81301" lon="7.16829">
        <ele>393.60000610352</ele>
        <time>2020-01-11T08:53:19.000Z</time>
      </trkpt>
      <trkpt lat="43.81295" lon="7.16829">
        <ele>394.20001220703</ele>
        <time>2020-01-11T08:53:21.000Z</time>
      </trkpt>
      <trkpt lat="43.81287" lon="7.16828">
        <ele>394.79998779297</ele>
        <time>2020-01-11T08:53:24.000Z</time>
      </trkpt>
      <trkpt lat="43.81279" lon="7.16826">
        <ele>395.39999389648</ele>
        <time>2020-01-11T08:53:27.000Z</time>
      </trkpt>
      <trkpt lat="43.81273" lon="7.16824">
        <ele>396</ele>
        <time>2020-01-11T08:53:29.000Z</time>
      </trkpt>
      <trkpt lat="43.81256" lon="7.16817">
        <ele>397.20001220703</ele>
        <time>2020-01-11T08:53:35.000Z</time>
      </trkpt>
      <trkpt lat="43.81254" lon="7.16816">
        <ele>397.39999389648</ele>
        <time>2020-01-11T08:53:36.000Z</time>
      </trkpt>
      <trkpt lat="43.81246" lon="7.16814">
        <ele>398.20001220703</ele>
        <time>2020-01-11T08:53:39.000Z</time>
      </trkpt>
      <trkpt lat="43.81235" lon="7.16815">
        <ele>399</ele>
        <time>2020-01-11T08:53:43.000Z</time>
      </trkpt>
      <trkpt lat="43.81232" lon="7.16816">
        <ele>399.39999389648</ele>
        <time>2020-01-11T08:53:44.000Z</time>
      </trkpt>
      <trkpt lat="43.81215" lon="7.16821">
        <ele>400.39999389648</ele>
        <time>2020-01-11T08:53:50.000Z</time>
      </trkpt>
      <trkpt lat="43.812" lon="7.16828">
        <ele>401.60000610352</ele>
        <time>2020-01-11T08:53:56.000Z</time>
      </trkpt>
      <trkpt lat="43.81195" lon="7.16831">
        <ele>402</ele>
        <time>2020-01-11T08:53:58.000Z</time>
      </trkpt>
      <trkpt lat="43.8119" lon="7.16833">
        <ele>402.60000610352</ele>
        <time>2020-01-11T08:54:00.000Z</time>
      </trkpt>
      <trkpt lat="43.81181" lon="7.16837">
        <ele>403.79998779297</ele>
        <time>2020-01-11T08:54:04.000Z</time>
      </trkpt>
      <trkpt lat="43.81175" lon="7.1684">
        <ele>404.20001220703</ele>
        <time>2020-01-11T08:54:06.000Z</time>
      </trkpt>
      <trkpt lat="43.81166" lon="7.16844">
        <ele>404.79998779297</ele>
        <time>2020-01-11T08:54:10.000Z</time>
      </trkpt>
      <trkpt lat="43.81158" lon="7.16847">
        <ele>405.60000610352</ele>
        <time>2020-01-11T08:54:13.000Z</time>
      </trkpt>
      <trkpt lat="43.81154" lon="7.16849">
        <ele>406</ele>
        <time>2020-01-11T08:54:15.000Z</time>
      </trkpt>
      <trkpt lat="43.81142" lon="7.16853">
        <ele>407</ele>
        <time>2020-01-11T08:54:20.000Z</time>
      </trkpt>
      <trkpt lat="43.81129" lon="7.16858">
        <ele>408.20001220703</ele>
        <time>2020-01-11T08:54:25.000Z</time>
      </trkpt>
      <trkpt lat="43.81121" lon="7.16863">
        <ele>408.60000610352</ele>
        <time>2020-01-11T08:54:28.000Z</time>
      </trkpt>
      <trkpt lat="43.81112" lon="7.16868">
        <ele>409.39999389648</ele>
        <time>2020-01-11T08:54:32.000Z</time>
      </trkpt>
      <trkpt lat="43.81107" lon="7.16871">
        <ele>409.60000610352</ele>
        <time>2020-01-11T08:54:34.000Z</time>
      </trkpt>
      <trkpt lat="43.81098" lon="7.16879">
        <ele>410.39999389648</ele>
        <time>2020-01-11T08:54:38.000Z</time>
      </trkpt>
      <trkpt lat="43.81093" lon="7.16883">
        <ele>410.79998779297</ele>
        <time>2020-01-11T08:54:40.000Z</time>
      </trkpt>
      <trkpt lat="43.81086" lon="7.16889">
        <ele>411.60000610352</ele>
        <time>2020-01-11T08:54:43.000Z</time>
      </trkpt>
      <trkpt lat="43.81074" lon="7.169">
        <ele>412.60000610352</ele>
        <time>2020-01-11T08:54:48.000Z</time>
      </trkpt>
      <trkpt lat="43.81063" lon="7.1691">
        <ele>413.60000610352</ele>
        <time>2020-01-11T08:54:53.000Z</time>
      </trkpt>
      <trkpt lat="43.81055" lon="7.16916">
        <ele>414.20001220703</ele>
        <time>2020-01-11T08:54:56.000Z</time>
      </trkpt>
      <trkpt lat="43.81046" lon="7.16918">
        <ele>414.60000610352</ele>
        <time>2020-01-11T08:54:59.000Z</time>
      </trkpt>
      <trkpt lat="43.81044" lon="7.16913">
        <ele>414.60000610352</ele>
        <time>2020-01-11T08:55:00.000Z</time>
      </trkpt>
      <trkpt lat="43.81048" lon="7.16908">
        <ele>415.20001220703</ele>
        <time>2020-01-11T08:55:02.000Z</time>
      </trkpt>
      <trkpt lat="43.81052" lon="7.16905">
        <ele>416.20001220703</ele>
        <time>2020-01-11T08:55:04.000Z</time>
      </trkpt>
      <trkpt lat="43.81064" lon="7.16896">
        <ele>417.20001220703</ele>
        <time>2020-01-11T08:55:09.000Z</time>
      </trkpt>
      <trkpt lat="43.81067" lon="7.16894">
        <ele>417.20001220703</ele>
        <time>2020-01-11T08:55:10.000Z</time>
      </trkpt>
      <trkpt lat="43.81079" lon="7.16877">
        <ele>418</ele>
        <time>2020-01-11T08:55:16.000Z</time>
      </trkpt>
      <trkpt lat="43.81083" lon="7.16872">
        <ele>418.39999389648</ele>
        <time>2020-01-11T08:55:18.000Z</time>
      </trkpt>
      <trkpt lat="43.81089" lon="7.16864">
        <ele>419</ele>
        <time>2020-01-11T08:55:21.000Z</time>
      </trkpt>
      <trkpt lat="43.81091" lon="7.16861">
        <ele>419.39999389648</ele>
        <time>2020-01-11T08:55:22.000Z</time>
      </trkpt>
      <trkpt lat="43.81098" lon="7.16846">
        <ele>420.60000610352</ele>
        <time>2020-01-11T08:55:27.000Z</time>
      </trkpt>
      <trkpt lat="43.811" lon="7.16843">
        <ele>420.79998779297</ele>
        <time>2020-01-11T08:55:28.000Z</time>
      </trkpt>
      <trkpt lat="43.81104" lon="7.16834">
        <ele>421.60000610352</ele>
        <time>2020-01-11T08:55:31.000Z</time>
      </trkpt>
      <trkpt lat="43.8111" lon="7.16827">
        <ele>422.39999389648</ele>
        <time>2020-01-11T08:55:34.000Z</time>
      </trkpt>
      <trkpt lat="43.81112" lon="7.16825">
        <ele>422.60000610352</ele>
        <time>2020-01-11T08:55:35.000Z</time>
      </trkpt>
      <trkpt lat="43.81127" lon="7.16815">
        <ele>423.79998779297</ele>
        <time>2020-01-11T08:55:41.000Z</time>
      </trkpt>
      <trkpt lat="43.8113" lon="7.16814">
        <ele>424</ele>
        <time>2020-01-11T08:55:42.000Z</time>
      </trkpt>
      <trkpt lat="43.81141" lon="7.16805">
        <ele>424.79998779297</ele>
        <time>2020-01-11T08:55:47.000Z</time>
      </trkpt>
      <trkpt lat="43.81146" lon="7.16802">
        <ele>425.39999389648</ele>
        <time>2020-01-11T08:55:49.000Z</time>
      </trkpt>
      <trkpt lat="43.81151" lon="7.16794">
        <ele>426</ele>
        <time>2020-01-11T08:55:52.000Z</time>
      </trkpt>
      <trkpt lat="43.81158" lon="7.16781">
        <ele>427.20001220703</ele>
        <time>2020-01-11T08:55:56.000Z</time>
      </trkpt>
      <trkpt lat="43.81169" lon="7.16758">
        <ele>428.20001220703</ele>
        <time>2020-01-11T08:56:03.000Z</time>
      </trkpt>
      <trkpt lat="43.81171" lon="7.16756">
        <ele>428.39999389648</ele>
        <time>2020-01-11T08:56:04.000Z</time>
      </trkpt>
      <trkpt lat="43.81179" lon="7.16743">
        <ele>429.20001220703</ele>
        <time>2020-01-11T08:56:08.000Z</time>
      </trkpt>
      <trkpt lat="43.81188" lon="7.16733">
        <ele>429.60000610352</ele>
        <time>2020-01-11T08:56:12.000Z</time>
      </trkpt>
      <trkpt lat="43.81196" lon="7.16727">
        <ele>430.39999389648</ele>
        <time>2020-01-11T08:56:15.000Z</time>
      </trkpt>
      <trkpt lat="43.81204" lon="7.16721">
        <ele>431.60000610352</ele>
        <time>2020-01-11T08:56:18.000Z</time>
      </trkpt>
      <trkpt lat="43.81206" lon="7.16719">
        <ele>432</ele>
        <time>2020-01-11T08:56:19.000Z</time>
      </trkpt>
      <trkpt lat="43.81218" lon="7.16713">
        <ele>432.60000610352</ele>
        <time>2020-01-11T08:56:23.000Z</time>
      </trkpt>
      <trkpt lat="43.81227" lon="7.16706">
        <ele>433.20001220703</ele>
        <time>2020-01-11T08:56:27.000Z</time>
      </trkpt>
      <trkpt lat="43.8123" lon="7.16699">
        <ele>433.39999389648</ele>
        <time>2020-01-11T08:56:31.000Z</time>
      </trkpt>
      <trkpt lat="43.81229" lon="7.16697">
        <ele>433.60000610352</ele>
        <time>2020-01-11T08:56:32.000Z</time>
      </trkpt>
      <trkpt lat="43.81227" lon="7.16696">
        <ele>433.79998779297</ele>
        <time>2020-01-11T08:56:33.000Z</time>
      </trkpt>
      <trkpt lat="43.81222" lon="7.16695">
        <ele>434.20001220703</ele>
        <time>2020-01-11T08:56:35.000Z</time>
      </trkpt>
      <trkpt lat="43.81211" lon="7.16701">
        <ele>434.79998779297</ele>
        <time>2020-01-11T08:56:39.000Z</time>
      </trkpt>
      <trkpt lat="43.81208" lon="7.16703">
        <ele>434.79998779297</ele>
        <time>2020-01-11T08:56:40.000Z</time>
      </trkpt>
      <trkpt lat="43.81193" lon="7.16715">
        <ele>436</ele>
        <time>2020-01-11T08:56:46.000Z</time>
      </trkpt>
      <trkpt lat="43.81189" lon="7.16716">
        <ele>436.20001220703</ele>
        <time>2020-01-11T08:56:47.000Z</time>
      </trkpt>
      <trkpt lat="43.81171" lon="7.16727">
        <ele>437</ele>
        <time>2020-01-11T08:56:53.000Z</time>
      </trkpt>
      <trkpt lat="43.81168" lon="7.16728">
        <ele>437.20001220703</ele>
        <time>2020-01-11T08:56:54.000Z</time>
      </trkpt>
      <trkpt lat="43.81155" lon="7.16733">
        <ele>438.20001220703</ele>
        <time>2020-01-11T08:56:59.000Z</time>
      </trkpt>
      <trkpt lat="43.8115" lon="7.16735">
        <ele>439</ele>
        <time>2020-01-11T08:57:01.000Z</time>
      </trkpt>
      <trkpt lat="43.81148" lon="7.16735">
        <ele>439.39999389648</ele>
        <time>2020-01-11T08:57:02.000Z</time>
      </trkpt>
      <trkpt lat="43.81142" lon="7.16736">
        <ele>440.39999389648</ele>
        <time>2020-01-11T08:57:05.000Z</time>
      </trkpt>
      <trkpt lat="43.81137" lon="7.16739">
        <ele>441</ele>
        <time>2020-01-11T08:57:07.000Z</time>
      </trkpt>
      <trkpt lat="43.81133" lon="7.16741">
        <ele>441.79998779297</ele>
        <time>2020-01-11T08:57:09.000Z</time>
      </trkpt>
      <trkpt lat="43.81122" lon="7.16748">
        <ele>442.79998779297</ele>
        <time>2020-01-11T08:57:13.000Z</time>
      </trkpt>
      <trkpt lat="43.8112" lon="7.1675">
        <ele>443.20001220703</ele>
        <time>2020-01-11T08:57:14.000Z</time>
      </trkpt>
      <trkpt lat="43.81112" lon="7.16756">
        <ele>443.79998779297</ele>
        <time>2020-01-11T08:57:17.000Z</time>
      </trkpt>
      <trkpt lat="43.811" lon="7.16767">
        <ele>444.79998779297</ele>
        <time>2020-01-11T08:57:22.000Z</time>
      </trkpt>
      <trkpt lat="43.81098" lon="7.16768">
        <ele>445</ele>
        <time>2020-01-11T08:57:23.000Z</time>
      </trkpt>
      <trkpt lat="43.81086" lon="7.16778">
        <ele>446</ele>
        <time>2020-01-11T08:57:28.000Z</time>
      </trkpt>
      <trkpt lat="43.81081" lon="7.16782">
        <ele>446.39999389648</ele>
        <time>2020-01-11T08:57:30.000Z</time>
      </trkpt>
      <trkpt lat="43.81074" lon="7.16788">
        <ele>447.20001220703</ele>
        <time>2020-01-11T08:57:33.000Z</time>
      </trkpt>
      <trkpt lat="43.81065" lon="7.16796">
        <ele>448.20001220703</ele>
        <time>2020-01-11T08:57:37.000Z</time>
      </trkpt>
      <trkpt lat="43.81063" lon="7.16797">
        <ele>448.39999389648</ele>
        <time>2020-01-11T08:57:38.000Z</time>
      </trkpt>
      <trkpt lat="43.81051" lon="7.16809">
        <ele>449.39999389648</ele>
        <time>2020-01-11T08:57:44.000Z</time>
      </trkpt>
      <trkpt lat="43.8104" lon="7.16817">
        <ele>450.39999389648</ele>
        <time>2020-01-11T08:57:48.000Z</time>
      </trkpt>
      <trkpt lat="43.81033" lon="7.16822">
        <ele>451</ele>
        <time>2020-01-11T08:57:51.000Z</time>
      </trkpt>
      <trkpt lat="43.81025" lon="7.16827">
        <ele>451.60000610352</ele>
        <time>2020-01-11T08:57:54.000Z</time>
      </trkpt>
      <trkpt lat="43.81013" lon="7.16838">
        <ele>452.79998779297</ele>
        <time>2020-01-11T08:57:59.000Z</time>
      </trkpt>
      <trkpt lat="43.81011" lon="7.1684">
        <ele>453</ele>
        <time>2020-01-11T08:58:00.000Z</time>
      </trkpt>
      <trkpt lat="43.81003" lon="7.16851">
        <ele>453.79998779297</ele>
        <time>2020-01-11T08:58:04.000Z</time>
      </trkpt>
      <trkpt lat="43.80998" lon="7.16858">
        <ele>454.39999389648</ele>
        <time>2020-01-11T08:58:07.000Z</time>
      </trkpt>
      <trkpt lat="43.80995" lon="7.16862">
        <ele>455</ele>
        <time>2020-01-11T08:58:09.000Z</time>
      </trkpt>
      <trkpt lat="43.80986" lon="7.16869">
        <ele>456</ele>
        <time>2020-01-11T08:58:13.000Z</time>
      </trkpt>
      <trkpt lat="43.80984" lon="7.16871">
        <ele>456.20001220703</ele>
        <time>2020-01-11T08:58:14.000Z</time>
      </trkpt>
      <trkpt lat="43.80973" lon="7.16881">
        <ele>457.20001220703</ele>
        <time>2020-01-11T08:58:19.000Z</time>
      </trkpt>
      <trkpt lat="43.80969" lon="7.16886">
        <ele>457.39999389648</ele>
        <time>2020-01-11T08:58:21.000Z</time>
      </trkpt>
      <trkpt lat="43.80962" lon="7.16896">
        <ele>458.20001220703</ele>
        <time>2020-01-11T08:58:25.000Z</time>
      </trkpt>
      <trkpt lat="43.80955" lon="7.16903">
        <ele>459</ele>
        <time>2020-01-11T08:58:28.000Z</time>
      </trkpt>
      <trkpt lat="43.80954" lon="7.16905">
        <ele>459.39999389648</ele>
        <time>2020-01-11T08:58:29.000Z</time>
      </trkpt>
      <trkpt lat="43.80946" lon="7.16916">
        <ele>460.39999389648</ele>
        <time>2020-01-11T08:58:33.000Z</time>
      </trkpt>
      <trkpt lat="43.80941" lon="7.16923">
        <ele>461.20001220703</ele>
        <time>2020-01-11T08:58:36.000Z</time>
      </trkpt>
      <trkpt lat="43.80938" lon="7.1693">
        <ele>461.60000610352</ele>
        <time>2020-01-11T08:58:38.000Z</time>
      </trkpt>
      <trkpt lat="43.8093" lon="7.16946">
        <ele>462.60000610352</ele>
        <time>2020-01-11T08:58:43.000Z</time>
      </trkpt>
      <trkpt lat="43.80928" lon="7.1695">
        <ele>462.79998779297</ele>
        <time>2020-01-11T08:58:44.000Z</time>
      </trkpt>
      <trkpt lat="43.80924" lon="7.16964">
        <ele>464</ele>
        <time>2020-01-11T08:58:48.000Z</time>
      </trkpt>
      <trkpt lat="43.8092" lon="7.16977">
        <ele>465</ele>
        <time>2020-01-11T08:58:52.000Z</time>
      </trkpt>
      <trkpt lat="43.80918" lon="7.16991">
        <ele>466</ele>
        <time>2020-01-11T08:58:56.000Z</time>
      </trkpt>
      <trkpt lat="43.80915" lon="7.16995">
        <ele>466.39999389648</ele>
        <time>2020-01-11T08:58:58.000Z</time>
      </trkpt>
      <trkpt lat="43.80913" lon="7.16996">
        <ele>466.60000610352</ele>
        <time>2020-01-11T08:58:59.000Z</time>
      </trkpt>
      <trkpt lat="43.80908" lon="7.16997">
        <ele>467</ele>
        <time>2020-01-11T08:59:01.000Z</time>
      </trkpt>
      <trkpt lat="43.80903" lon="7.16999">
        <ele>467.60000610352</ele>
        <time>2020-01-11T08:59:03.000Z</time>
      </trkpt>
      <trkpt lat="43.80899" lon="7.16998">
        <ele>468</ele>
        <time>2020-01-11T08:59:05.000Z</time>
      </trkpt>
      <trkpt lat="43.80897" lon="7.16996">
        <ele>468.20001220703</ele>
        <time>2020-01-11T08:59:06.000Z</time>
      </trkpt>
      <trkpt lat="43.80896" lon="7.16989">
        <ele>468.60000610352</ele>
        <time>2020-01-11T08:59:09.000Z</time>
      </trkpt>
      <trkpt lat="43.80896" lon="7.16982">
        <ele>469.20001220703</ele>
        <time>2020-01-11T08:59:12.000Z</time>
      </trkpt>
      <trkpt lat="43.80896" lon="7.16978">
        <ele>469.60000610352</ele>
        <time>2020-01-11T08:59:14.000Z</time>
      </trkpt>
      <trkpt lat="43.80898" lon="7.16971">
        <ele>470.20001220703</ele>
        <time>2020-01-11T08:59:18.000Z</time>
      </trkpt>
      <trkpt lat="43.809" lon="7.16965">
        <ele>470.60000610352</ele>
        <time>2020-01-11T08:59:20.000Z</time>
      </trkpt>
      <trkpt lat="43.80899" lon="7.16962">
        <ele>470.60000610352</ele>
        <time>2020-01-11T08:59:21.000Z</time>
      </trkpt>
      <trkpt lat="43.80897" lon="7.16955">
        <ele>471</ele>
        <time>2020-01-11T08:59:24.000Z</time>
      </trkpt>
      <trkpt lat="43.80898" lon="7.16947">
        <ele>471.39999389648</ele>
        <time>2020-01-11T08:59:26.000Z</time>
      </trkpt>
      <trkpt lat="43.80899" lon="7.16938">
        <ele>472</ele>
        <time>2020-01-11T08:59:29.000Z</time>
      </trkpt>
      <trkpt lat="43.80898" lon="7.16935">
        <ele>472.20001220703</ele>
        <time>2020-01-11T08:59:30.000Z</time>
      </trkpt>
      <trkpt lat="43.80896" lon="7.16929">
        <ele>472.39999389648</ele>
        <time>2020-01-11T08:59:33.000Z</time>
      </trkpt>
      <trkpt lat="43.80897" lon="7.16929">
        <ele>472.39999389648</ele>
        <time>2020-01-11T08:59:35.000Z</time>
      </trkpt>
      <trkpt lat="43.80898" lon="7.16926">
        <ele>472.79998779297</ele>
        <time>2020-01-11T08:59:41.000Z</time>
      </trkpt>
      <trkpt lat="43.809" lon="7.16924">
        <ele>472.60000610352</ele>
        <time>2020-01-11T08:59:48.000Z</time>
      </trkpt>
      <trkpt lat="43.80901" lon="7.16923">
        <ele>472.79998779297</ele>
        <time>2020-01-11T08:59:55.000Z</time>
      </trkpt>
      <trkpt lat="43.80903" lon="7.16923">
        <ele>472.79998779297</ele>
        <time>2020-01-11T09:00:05.000Z</time>
      </trkpt>
      <trkpt lat="43.80904" lon="7.16921">
        <ele>472.20001220703</ele>
        <time>2020-01-11T09:00:14.000Z</time>
      </trkpt>
      <trkpt lat="43.80905" lon="7.16921">
        <ele>472.60000610352</ele>
        <time>2020-01-11T09:00:20.000Z</time>
      </trkpt>
      <trkpt lat="43.80905" lon="7.16919">
        <ele>473</ele>
        <time>2020-01-11T09:00:33.000Z</time>
      </trkpt>
      <trkpt lat="43.80904" lon="7.16917">
        <ele>472.39999389648</ele>
        <time>2020-01-11T09:00:45.000Z</time>
      </trkpt>
      <trkpt lat="43.80904" lon="7.16915">
        <ele>472.39999389648</ele>
        <time>2020-01-11T09:01:00.000Z</time>
      </trkpt>
      <trkpt lat="43.80904" lon="7.16916">
        <ele>472.60000610352</ele>
        <time>2020-01-11T09:01:17.000Z</time>
      </trkpt>
      <trkpt lat="43.80903" lon="7.16916">
        <ele>472.60000610352</ele>
        <time>2020-01-11T09:01:23.000Z</time>
      </trkpt>
      <trkpt lat="43.80903" lon="7.16916">
        <ele>472.60000610352</ele>
        <time>2020-01-11T09:01:37.000Z</time>
      </trkpt>
      <trkpt lat="43.80904" lon="7.16915">
        <ele>473</ele>
        <time>2020-01-11T09:01:51.000Z</time>
      </trkpt>
      <trkpt lat="43.80905" lon="7.16913">
        <ele>472.79998779297</ele>
        <time>2020-01-11T09:02:01.000Z</time>
      </trkpt>
      <trkpt lat="43.80906" lon="7.1691">
        <ele>472.79998779297</ele>
        <time>2020-01-11T09:02:13.000Z</time>
      </trkpt>
      <trkpt lat="43.80906" lon="7.16909">
        <ele>472.79998779297</ele>
        <time>2020-01-11T09:02:21.000Z</time>
      </trkpt>
      <trkpt lat="43.80905" lon="7.1691">
        <ele>472.39999389648</ele>
        <time>2020-01-11T09:02:31.000Z</time>
      </trkpt>
      <trkpt lat="43.80905" lon="7.1691">
        <ele>472.79998779297</ele>
        <time>2020-01-11T09:02:43.000Z</time>
      </trkpt>
      <trkpt lat="43.80906" lon="7.16909">
        <ele>472.79998779297</ele>
        <time>2020-01-11T09:02:55.000Z</time>
      </trkpt>
      <trkpt lat="43.80905" lon="7.16909">
        <ele>472.60000610352</ele>
        <time>2020-01-11T09:03:02.000Z</time>
      </trkpt>
      <trkpt lat="43.80906" lon="7.16909">
        <ele>472.20001220703</ele>
        <time>2020-01-11T09:03:10.000Z</time>
      </trkpt>
      <trkpt lat="43.80905" lon="7.1691">
        <ele>472.60000610352</ele>
        <time>2020-01-11T09:03:18.000Z</time>
      </trkpt>
      <trkpt lat="43.80906" lon="7.16909">
        <ele>472.39999389648</ele>
        <time>2020-01-11T09:03:29.000Z</time>
      </trkpt>
      <trkpt lat="43.80906" lon="7.16908">
        <ele>473</ele>
        <time>2020-01-11T09:03:40.000Z</time>
      </trkpt>
      <trkpt lat="43.80907" lon="7.16908">
        <ele>472.60000610352</ele>
        <time>2020-01-11T09:03:47.000Z</time>
      </trkpt>
      <trkpt lat="43.80907" lon="7.16908">
        <ele>473</ele>
        <time>2020-01-11T09:03:55.000Z</time>
      </trkpt>
      <trkpt lat="43.80906" lon="7.1691">
        <ele>472</ele>
        <time>2020-01-11T09:04:03.000Z</time>
      </trkpt>
      <trkpt lat="43.80906" lon="7.16908">
        <ele>472.39999389648</ele>
        <time>2020-01-11T09:04:09.000Z</time>
      </trkpt>
      <trkpt lat="43.80906" lon="7.16909">
        <ele>472.20001220703</ele>
        <time>2020-01-11T09:04:14.000Z</time>
      </trkpt>
      <trkpt lat="43.80906" lon="7.16909">
        <ele>472.60000610352</ele>
        <time>2020-01-11T09:04:21.000Z</time>
      </trkpt>
      <trkpt lat="43.80906" lon="7.1691">
        <ele>472.79998779297</ele>
        <time>2020-01-11T09:04:29.000Z</time>
      </trkpt>
      <trkpt lat="43.80906" lon="7.16911">
        <ele>472.60000610352</ele>
        <time>2020-01-11T09:04:38.000Z</time>
      </trkpt>
      <trkpt lat="43.80907" lon="7.16912">
        <ele>472.39999389648</ele>
        <time>2020-01-11T09:04:44.000Z</time>
      </trkpt>
      <trkpt lat="43.80907" lon="7.16913">
        <ele>472.79998779297</ele>
        <time>2020-01-11T09:04:54.000Z</time>
      </trkpt>
      <trkpt lat="43.80906" lon="7.16915">
        <ele>472.39999389648</ele>
        <time>2020-01-11T09:05:02.000Z</time>
      </trkpt>
      <trkpt lat="43.80905" lon="7.16917">
        <ele>472.20001220703</ele>
        <time>2020-01-11T09:05:11.000Z</time>
      </trkpt>
      <trkpt lat="43.80906" lon="7.16916">
        <ele>472.20001220703</ele>
        <time>2020-01-11T09:05:19.000Z</time>
      </trkpt>
      <trkpt lat="43.80907" lon="7.16915">
        <ele>472.79998779297</ele>
        <time>2020-01-11T09:05:28.000Z</time>
      </trkpt>
      <trkpt lat="43.80907" lon="7.16914">
        <ele>473</ele>
        <time>2020-01-11T09:05:42.000Z</time>
      </trkpt>
      <trkpt lat="43.80908" lon="7.16913">
        <ele>473</ele>
        <time>2020-01-11T09:05:49.000Z</time>
      </trkpt>
      <trkpt lat="43.80908" lon="7.16914">
        <ele>472.79998779297</ele>
        <time>2020-01-11T09:05:54.000Z</time>
      </trkpt>
      <trkpt lat="43.80908" lon="7.16914">
        <ele>472.79998779297</ele>
        <time>2020-01-11T09:06:09.000Z</time>
      </trkpt>
      <trkpt lat="43.80908" lon="7.16912">
        <ele>472.79998779297</ele>
        <time>2020-01-11T09:06:17.000Z</time>
      </trkpt>
      <trkpt lat="43.80907" lon="7.16912">
        <ele>472.79998779297</ele>
        <time>2020-01-11T09:06:28.000Z</time>
      </trkpt>
      <trkpt lat="43.80909" lon="7.16912">
        <ele>472.60000610352</ele>
        <time>2020-01-11T09:06:33.000Z</time>
      </trkpt>
      <trkpt lat="43.8091" lon="7.16911">
        <ele>472.60000610352</ele>
        <time>2020-01-11T09:06:41.000Z</time>
      </trkpt>
      <trkpt lat="43.80913" lon="7.16907">
        <ele>472.79998779297</ele>
        <time>2020-01-11T09:06:51.000Z</time>
      </trkpt>
      <trkpt lat="43.80914" lon="7.16903">
        <ele>472.79998779297</ele>
        <time>2020-01-11T09:06:52.000Z</time>
      </trkpt>
      <trkpt lat="43.80918" lon="7.16898">
        <ele>472.60000610352</ele>
        <time>2020-01-11T09:06:54.000Z</time>
      </trkpt>
      <trkpt lat="43.80925" lon="7.16893">
        <ele>472.20001220703</ele>
        <time>2020-01-11T09:06:59.000Z</time>
      </trkpt>
      <trkpt lat="43.80935" lon="7.16885">
        <ele>472.60000610352</ele>
        <time>2020-01-11T09:07:04.000Z</time>
      </trkpt>
      <trkpt lat="43.80944" lon="7.16875">
        <ele>473.60000610352</ele>
        <time>2020-01-11T09:07:09.000Z</time>
      </trkpt>
      <trkpt lat="43.80947" lon="7.16865">
        <ele>474.60000610352</ele>
        <time>2020-01-11T09:07:13.000Z</time>
      </trkpt>
      <trkpt lat="43.80948" lon="7.16862">
        <ele>474.79998779297</ele>
        <time>2020-01-11T09:07:14.000Z</time>
      </trkpt>
      <trkpt lat="43.8095" lon="7.16853">
        <ele>475.79998779297</ele>
        <time>2020-01-11T09:07:17.000Z</time>
      </trkpt>
      <trkpt lat="43.80951" lon="7.16851">
        <ele>476</ele>
        <time>2020-01-11T09:07:18.000Z</time>
      </trkpt>
      <trkpt lat="43.80953" lon="7.1685">
        <ele>476.60000610352</ele>
        <time>2020-01-11T09:07:20.000Z</time>
      </trkpt>
      <trkpt lat="43.80953" lon="7.16847">
        <ele>476.79998779297</ele>
        <time>2020-01-11T09:07:21.000Z</time>
      </trkpt>
      <trkpt lat="43.80954" lon="7.16841">
        <ele>477.20001220703</ele>
        <time>2020-01-11T09:07:23.000Z</time>
      </trkpt>
      <trkpt lat="43.80957" lon="7.16834">
        <ele>477.20001220703</ele>
        <time>2020-01-11T09:07:26.000Z</time>
      </trkpt>
      <trkpt lat="43.80961" lon="7.16828">
        <ele>477.39999389648</ele>
        <time>2020-01-11T09:07:29.000Z</time>
      </trkpt>
      <trkpt lat="43.80962" lon="7.16828">
        <ele>477.79998779297</ele>
        <time>2020-01-11T09:07:33.000Z</time>
      </trkpt>
      <trkpt lat="43.80961" lon="7.16827">
        <ele>477.79998779297</ele>
        <time>2020-01-11T09:07:40.000Z</time>
      </trkpt>
      <trkpt lat="43.80961" lon="7.16827">
        <ele>478</ele>
        <time>2020-01-11T09:07:57.000Z</time>
      </trkpt>
      <trkpt lat="43.80962" lon="7.16826">
        <ele>478</ele>
        <time>2020-01-11T09:08:13.000Z</time>
      </trkpt>
      <trkpt lat="43.80967" lon="7.16817">
        <ele>478.20001220703</ele>
        <time>2020-01-11T09:08:18.000Z</time>
      </trkpt>
      <trkpt lat="43.80981" lon="7.16797">
        <ele>478.79998779297</ele>
        <time>2020-01-11T09:08:27.000Z</time>
      </trkpt>
      <trkpt lat="43.80983" lon="7.16792">
        <ele>479</ele>
        <time>2020-01-11T09:08:29.000Z</time>
      </trkpt>
      <trkpt lat="43.80992" lon="7.16781">
        <ele>479.60000610352</ele>
        <time>2020-01-11T09:08:34.000Z</time>
      </trkpt>
      <trkpt lat="43.81002" lon="7.16771">
        <ele>480</ele>
        <time>2020-01-11T09:08:39.000Z</time>
      </trkpt>
      <trkpt lat="43.81003" lon="7.16768">
        <ele>480</ele>
        <time>2020-01-11T09:08:40.000Z</time>
      </trkpt>
      <trkpt lat="43.81018" lon="7.16749">
        <ele>481</ele>
        <time>2020-01-11T09:08:48.000Z</time>
      </trkpt>
      <trkpt lat="43.8102" lon="7.16747">
        <ele>481.20001220703</ele>
        <time>2020-01-11T09:08:49.000Z</time>
      </trkpt>
      <trkpt lat="43.81031" lon="7.16734">
        <ele>482.39999389648</ele>
        <time>2020-01-11T09:08:54.000Z</time>
      </trkpt>
      <trkpt lat="43.81032" lon="7.16731">
        <ele>482.39999389648</ele>
        <time>2020-01-11T09:08:55.000Z</time>
      </trkpt>
      <trkpt lat="43.81039" lon="7.16719">
        <ele>483.20001220703</ele>
        <time>2020-01-11T09:09:00.000Z</time>
      </trkpt>
      <trkpt lat="43.8104" lon="7.16716">
        <ele>483.20001220703</ele>
        <time>2020-01-11T09:09:01.000Z</time>
      </trkpt>
      <trkpt lat="43.81041" lon="7.16712">
        <ele>483.39999389648</ele>
        <time>2020-01-11T09:09:02.000Z</time>
      </trkpt>
      <trkpt lat="43.81043" lon="7.16706">
        <ele>484</ele>
        <time>2020-01-11T09:09:04.000Z</time>
      </trkpt>
      <trkpt lat="43.81046" lon="7.16695">
        <ele>484.60000610352</ele>
        <time>2020-01-11T09:09:07.000Z</time>
      </trkpt>
      <trkpt lat="43.81048" lon="7.16688">
        <ele>485</ele>
        <time>2020-01-11T09:09:09.000Z</time>
      </trkpt>
      <trkpt lat="43.81049" lon="7.16684">
        <ele>485.20001220703</ele>
        <time>2020-01-11T09:09:10.000Z</time>
      </trkpt>
      <trkpt lat="43.81052" lon="7.1667">
        <ele>485.79998779297</ele>
        <time>2020-01-11T09:09:14.000Z</time>
      </trkpt>
      <trkpt lat="43.81053" lon="7.16662">
        <ele>486</ele>
        <time>2020-01-11T09:09:16.000Z</time>
      </trkpt>
      <trkpt lat="43.8106" lon="7.16642">
        <ele>486.79998779297</ele>
        <time>2020-01-11T09:09:22.000Z</time>
      </trkpt>
      <trkpt lat="43.81072" lon="7.16626">
        <ele>487.79998779297</ele>
        <time>2020-01-11T09:09:28.000Z</time>
      </trkpt>
      <trkpt lat="43.81074" lon="7.16625">
        <ele>488</ele>
        <time>2020-01-11T09:09:29.000Z</time>
      </trkpt>
      <trkpt lat="43.8109" lon="7.16618">
        <ele>488.79998779297</ele>
        <time>2020-01-11T09:09:35.000Z</time>
      </trkpt>
      <trkpt lat="43.81093" lon="7.16616">
        <ele>489</ele>
        <time>2020-01-11T09:09:36.000Z</time>
      </trkpt>
      <trkpt lat="43.81112" lon="7.16609">
        <ele>489.20001220703</ele>
        <time>2020-01-11T09:09:41.000Z</time>
      </trkpt>
      <trkpt lat="43.81139" lon="7.16603">
        <ele>487.60000610352</ele>
        <time>2020-01-11T09:09:46.000Z</time>
      </trkpt>
      <trkpt lat="43.8116" lon="7.16598">
        <ele>486.60000610352</ele>
        <time>2020-01-11T09:09:50.000Z</time>
      </trkpt>
      <trkpt lat="43.81174" lon="7.16591">
        <ele>486.60000610352</ele>
        <time>2020-01-11T09:09:53.000Z</time>
      </trkpt>
      <trkpt lat="43.81196" lon="7.16577">
        <ele>487.39999389648</ele>
        <time>2020-01-11T09:09:59.000Z</time>
      </trkpt>
      <trkpt lat="43.81202" lon="7.16572">
        <ele>487.79998779297</ele>
        <time>2020-01-11T09:10:01.000Z</time>
      </trkpt>
      <trkpt lat="43.81213" lon="7.16565">
        <ele>488.79998779297</ele>
        <time>2020-01-11T09:10:05.000Z</time>
      </trkpt>
      <trkpt lat="43.81217" lon="7.16563">
        <ele>489</ele>
        <time>2020-01-11T09:10:06.000Z</time>
      </trkpt>
      <trkpt lat="43.8123" lon="7.16561">
        <ele>490</ele>
        <time>2020-01-11T09:10:10.000Z</time>
      </trkpt>
      <trkpt lat="43.81237" lon="7.16562">
        <ele>490.39999389648</ele>
        <time>2020-01-11T09:10:12.000Z</time>
      </trkpt>
      <trkpt lat="43.8125" lon="7.16567">
        <ele>491.20001220703</ele>
        <time>2020-01-11T09:10:16.000Z</time>
      </trkpt>
      <trkpt lat="43.8126" lon="7.1657">
        <ele>491.60000610352</ele>
        <time>2020-01-11T09:10:19.000Z</time>
      </trkpt>
      <trkpt lat="43.81272" lon="7.1657">
        <ele>492.60000610352</ele>
        <time>2020-01-11T09:10:23.000Z</time>
      </trkpt>
      <trkpt lat="43.81277" lon="7.16569">
        <ele>493.39999389648</ele>
        <time>2020-01-11T09:10:25.000Z</time>
      </trkpt>
      <trkpt lat="43.8128" lon="7.16568">
        <ele>494</ele>
        <time>2020-01-11T09:10:26.000Z</time>
      </trkpt>
      <trkpt lat="43.81288" lon="7.16566">
        <ele>495</ele>
        <time>2020-01-11T09:10:29.000Z</time>
      </trkpt>
      <trkpt lat="43.81296" lon="7.16562">
        <ele>496.20001220703</ele>
        <time>2020-01-11T09:10:32.000Z</time>
      </trkpt>
      <trkpt lat="43.81301" lon="7.16559">
        <ele>496.60000610352</ele>
        <time>2020-01-11T09:10:34.000Z</time>
      </trkpt>
      <trkpt lat="43.81306" lon="7.16556">
        <ele>497.20001220703</ele>
        <time>2020-01-11T09:10:36.000Z</time>
      </trkpt>
      <trkpt lat="43.81311" lon="7.16551">
        <ele>498.20001220703</ele>
        <time>2020-01-11T09:10:39.000Z</time>
      </trkpt>
      <trkpt lat="43.81316" lon="7.16548">
        <ele>499.39999389648</ele>
        <time>2020-01-11T09:10:41.000Z</time>
      </trkpt>
      <trkpt lat="43.81319" lon="7.16545">
        <ele>500.20001220703</ele>
        <time>2020-01-11T09:10:43.000Z</time>
      </trkpt>
      <trkpt lat="43.81322" lon="7.16544">
        <ele>500.60000610352</ele>
        <time>2020-01-11T09:10:44.000Z</time>
      </trkpt>
      <trkpt lat="43.81339" lon="7.16534">
        <ele>501.39999389648</ele>
        <time>2020-01-11T09:10:51.000Z</time>
      </trkpt>
      <trkpt lat="43.81342" lon="7.16533">
        <ele>501.60000610352</ele>
        <time>2020-01-11T09:10:53.000Z</time>
      </trkpt>
      <trkpt lat="43.81349" lon="7.16533">
        <ele>502.20001220703</ele>
        <time>2020-01-11T09:10:56.000Z</time>
      </trkpt>
      <trkpt lat="43.81356" lon="7.16535">
        <ele>502.79998779297</ele>
        <time>2020-01-11T09:10:59.000Z</time>
      </trkpt>
      <trkpt lat="43.81362" lon="7.16538">
        <ele>503.79998779297</ele>
        <time>2020-01-11T09:11:02.000Z</time>
      </trkpt>
      <trkpt lat="43.81376" lon="7.16537">
        <ele>504.79998779297</ele>
        <time>2020-01-11T09:11:08.000Z</time>
      </trkpt>
      <trkpt lat="43.81377" lon="7.16537">
        <ele>505</ele>
        <time>2020-01-11T09:11:09.000Z</time>
      </trkpt>
      <trkpt lat="43.81382" lon="7.1654">
        <ele>506.60000610352</ele>
        <time>2020-01-11T09:11:12.000Z</time>
      </trkpt>
      <trkpt lat="43.81382" lon="7.1654">
        <ele>507.20001220703</ele>
        <time>2020-01-11T09:11:13.000Z</time>
      </trkpt>
      <trkpt lat="43.81383" lon="7.1654">
        <ele>507.79998779297</ele>
        <time>2020-01-11T09:11:16.000Z</time>
      </trkpt>
      <trkpt lat="43.81383" lon="7.1654">
        <ele>508</ele>
        <time>2020-01-11T09:11:17.000Z</time>
      </trkpt>
      <trkpt lat="43.81383" lon="7.1654">
        <ele>508.79998779297</ele>
        <time>2020-01-11T09:11:22.000Z</time>
      </trkpt>
      <trkpt lat="43.81383" lon="7.16538">
        <ele>508.79998779297</ele>
        <time>2020-01-11T09:11:30.000Z</time>
      </trkpt>
      <trkpt lat="43.81389" lon="7.16535">
        <ele>508.79998779297</ele>
        <time>2020-01-11T09:11:35.000Z</time>
      </trkpt>
      <trkpt lat="43.81398" lon="7.1653">
        <ele>510.20001220703</ele>
        <time>2020-01-11T09:11:40.000Z</time>
      </trkpt>
      <trkpt lat="43.81402" lon="7.16529">
        <ele>511.39999389648</ele>
        <time>2020-01-11T09:11:42.000Z</time>
      </trkpt>
      <trkpt lat="43.81405" lon="7.16527">
        <ele>512.40002441406</ele>
        <time>2020-01-11T09:11:44.000Z</time>
      </trkpt>
      <trkpt lat="43.81412" lon="7.16525">
        <ele>513.79998779297</ele>
        <time>2020-01-11T09:11:47.000Z</time>
      </trkpt>
      <trkpt lat="43.81418" lon="7.16524">
        <ele>515</ele>
        <time>2020-01-11T09:11:50.000Z</time>
      </trkpt>
      <trkpt lat="43.81423" lon="7.16523">
        <ele>516.20001220703</ele>
        <time>2020-01-11T09:11:53.000Z</time>
      </trkpt>
      <trkpt lat="43.8143" lon="7.1652">
        <ele>517.40002441406</ele>
        <time>2020-01-11T09:11:57.000Z</time>
      </trkpt>
      <trkpt lat="43.81436" lon="7.16517">
        <ele>518.40002441406</ele>
        <time>2020-01-11T09:12:00.000Z</time>
      </trkpt>
      <trkpt lat="43.81443" lon="7.16513">
        <ele>519.40002441406</ele>
        <time>2020-01-11T09:12:04.000Z</time>
      </trkpt>
      <trkpt lat="43.81445" lon="7.16511">
        <ele>519.59997558594</ele>
        <time>2020-01-11T09:12:05.000Z</time>
      </trkpt>
      <trkpt lat="43.81455" lon="7.16504">
        <ele>520.59997558594</ele>
        <time>2020-01-11T09:12:10.000Z</time>
      </trkpt>
      <trkpt lat="43.81462" lon="7.16498">
        <ele>521.40002441406</ele>
        <time>2020-01-11T09:12:14.000Z</time>
      </trkpt>
      <trkpt lat="43.81464" lon="7.16496">
        <ele>521.79998779297</ele>
        <time>2020-01-11T09:12:15.000Z</time>
      </trkpt>
      <trkpt lat="43.81472" lon="7.16492">
        <ele>523</ele>
        <time>2020-01-11T09:12:19.000Z</time>
      </trkpt>
      <trkpt lat="43.81479" lon="7.16491">
        <ele>524.20001220703</ele>
        <time>2020-01-11T09:12:22.000Z</time>
      </trkpt>
      <trkpt lat="43.81486" lon="7.16491">
        <ele>525.40002441406</ele>
        <time>2020-01-11T09:12:25.000Z</time>
      </trkpt>
      <trkpt lat="43.81492" lon="7.16492">
        <ele>526.40002441406</ele>
        <time>2020-01-11T09:12:28.000Z</time>
      </trkpt>
      <trkpt lat="43.81501" lon="7.16491">
        <ele>527.79998779297</ele>
        <time>2020-01-11T09:12:32.000Z</time>
      </trkpt>
      <trkpt lat="43.81505" lon="7.16491">
        <ele>528.20001220703</ele>
        <time>2020-01-11T09:12:34.000Z</time>
      </trkpt>
      <trkpt lat="43.8151" lon="7.16491">
        <ele>528.79998779297</ele>
        <time>2020-01-11T09:12:36.000Z</time>
      </trkpt>
      <trkpt lat="43.81519" lon="7.1649">
        <ele>529.79998779297</ele>
        <time>2020-01-11T09:12:40.000Z</time>
      </trkpt>
      <trkpt lat="43.81521" lon="7.1649">
        <ele>530</ele>
        <time>2020-01-11T09:12:41.000Z</time>
      </trkpt>
      <trkpt lat="43.81529" lon="7.16488">
        <ele>531</ele>
        <time>2020-01-11T09:12:45.000Z</time>
      </trkpt>
      <trkpt lat="43.81531" lon="7.16488">
        <ele>531.20001220703</ele>
        <time>2020-01-11T09:12:46.000Z</time>
      </trkpt>
      <trkpt lat="43.81538" lon="7.16483">
        <ele>532.20001220703</ele>
        <time>2020-01-11T09:12:50.000Z</time>
      </trkpt>
      <trkpt lat="43.81543" lon="7.1648">
        <ele>532.59997558594</ele>
        <time>2020-01-11T09:12:52.000Z</time>
      </trkpt>
      <trkpt lat="43.81547" lon="7.16475">
        <ele>533.20001220703</ele>
        <time>2020-01-11T09:12:55.000Z</time>
      </trkpt>
      <trkpt lat="43.81549" lon="7.16473">
        <ele>533.59997558594</ele>
        <time>2020-01-11T09:12:56.000Z</time>
      </trkpt>
      <trkpt lat="43.8155" lon="7.16472">
        <ele>534.20001220703</ele>
        <time>2020-01-11T09:12:57.000Z</time>
      </trkpt>
      <trkpt lat="43.81552" lon="7.16472">
        <ele>534.79998779297</ele>
        <time>2020-01-11T09:12:58.000Z</time>
      </trkpt>
      <trkpt lat="43.81556" lon="7.16471">
        <ele>536</ele>
        <time>2020-01-11T09:13:00.000Z</time>
      </trkpt>
      <trkpt lat="43.81557" lon="7.16471">
        <ele>536.40002441406</ele>
        <time>2020-01-11T09:13:01.000Z</time>
      </trkpt>
      <trkpt lat="43.81561" lon="7.16468">
        <ele>537</ele>
        <time>2020-01-11T09:13:04.000Z</time>
      </trkpt>
      <trkpt lat="43.81567" lon="7.16464">
        <ele>537.40002441406</ele>
        <time>2020-01-11T09:13:07.000Z</time>
      </trkpt>
      <trkpt lat="43.81577" lon="7.16456">
        <ele>537.59997558594</ele>
        <time>2020-01-11T09:13:13.000Z</time>
      </trkpt>
      <trkpt lat="43.81595" lon="7.16442">
        <ele>537.79998779297</ele>
        <time>2020-01-11T09:13:22.000Z</time>
      </trkpt>
      <trkpt lat="43.81615" lon="7.16431">
        <ele>538</ele>
        <time>2020-01-11T09:13:31.000Z</time>
      </trkpt>
      <trkpt lat="43.81628" lon="7.16419">
        <ele>539.20001220703</ele>
        <time>2020-01-11T09:13:38.000Z</time>
      </trkpt>
      <trkpt lat="43.8163" lon="7.16418">
        <ele>539.40002441406</ele>
        <time>2020-01-11T09:13:39.000Z</time>
      </trkpt>
      <trkpt lat="43.81639" lon="7.16413">
        <ele>540.40002441406</ele>
        <time>2020-01-11T09:13:43.000Z</time>
      </trkpt>
      <trkpt lat="43.81645" lon="7.16411">
        <ele>541.59997558594</ele>
        <time>2020-01-11T09:13:46.000Z</time>
      </trkpt>
      <trkpt lat="43.81649" lon="7.16407">
        <ele>542.59997558594</ele>
        <time>2020-01-11T09:13:49.000Z</time>
      </trkpt>
      <trkpt lat="43.81649" lon="7.16405">
        <ele>542.79998779297</ele>
        <time>2020-01-11T09:13:50.000Z</time>
      </trkpt>
      <trkpt lat="43.81649" lon="7.16403">
        <ele>542.79998779297</ele>
        <time>2020-01-11T09:13:51.000Z</time>
      </trkpt>
      <trkpt lat="43.81649" lon="7.16395">
        <ele>544</ele>
        <time>2020-01-11T09:13:56.000Z</time>
      </trkpt>
      <trkpt lat="43.81649" lon="7.16392">
        <ele>544.59997558594</ele>
        <time>2020-01-11T09:13:58.000Z</time>
      </trkpt>
      <trkpt lat="43.8165" lon="7.16388">
        <ele>545.20001220703</ele>
        <time>2020-01-11T09:14:00.000Z</time>
      </trkpt>
      <trkpt lat="43.81651" lon="7.16384">
        <ele>546</ele>
        <time>2020-01-11T09:14:03.000Z</time>
      </trkpt>
      <trkpt lat="43.81651" lon="7.16382">
        <ele>546.20001220703</ele>
        <time>2020-01-11T09:14:04.000Z</time>
      </trkpt>
      <trkpt lat="43.81653" lon="7.16374">
        <ele>547.20001220703</ele>
        <time>2020-01-11T09:14:08.000Z</time>
      </trkpt>
      <trkpt lat="43.81654" lon="7.16366">
        <ele>547.79998779297</ele>
        <time>2020-01-11T09:14:12.000Z</time>
      </trkpt>
      <trkpt lat="43.81654" lon="7.16364">
        <ele>548.20001220703</ele>
        <time>2020-01-11T09:14:13.000Z</time>
      </trkpt>
      <trkpt lat="43.81653" lon="7.16359">
        <ele>549.20001220703</ele>
        <time>2020-01-11T09:14:16.000Z</time>
      </trkpt>
      <trkpt lat="43.81653" lon="7.16353">
        <ele>550.20001220703</ele>
        <time>2020-01-11T09:14:19.000Z</time>
      </trkpt>
      <trkpt lat="43.81652" lon="7.16351">
        <ele>550.59997558594</ele>
        <time>2020-01-11T09:14:20.000Z</time>
      </trkpt>
      <trkpt lat="43.81651" lon="7.16345">
        <ele>551.59997558594</ele>
        <time>2020-01-11T09:14:23.000Z</time>
      </trkpt>
      <trkpt lat="43.81651" lon="7.16342">
        <ele>552.20001220703</ele>
        <time>2020-01-11T09:14:25.000Z</time>
      </trkpt>
      <trkpt lat="43.81653" lon="7.16339">
        <ele>552.79998779297</ele>
        <time>2020-01-11T09:14:27.000Z</time>
      </trkpt>
      <trkpt lat="43.81657" lon="7.16328">
        <ele>553.20001220703</ele>
        <time>2020-01-11T09:14:31.000Z</time>
      </trkpt>
      <trkpt lat="43.81667" lon="7.16322">
        <ele>552.79998779297</ele>
        <time>2020-01-11T09:14:35.000Z</time>
      </trkpt>
      <trkpt lat="43.8167" lon="7.16322">
        <ele>552.79998779297</ele>
        <time>2020-01-11T09:14:36.000Z</time>
      </trkpt>
      <trkpt lat="43.81683" lon="7.16318">
        <ele>554</ele>
        <time>2020-01-11T09:14:42.000Z</time>
      </trkpt>
      <trkpt lat="43.81685" lon="7.16318">
        <ele>554.20001220703</ele>
        <time>2020-01-11T09:14:43.000Z</time>
      </trkpt>
      <trkpt lat="43.81692" lon="7.16312">
        <ele>555</ele>
        <time>2020-01-11T09:14:47.000Z</time>
      </trkpt>
      <trkpt lat="43.81696" lon="7.16306">
        <ele>555.20001220703</ele>
        <time>2020-01-11T09:14:50.000Z</time>
      </trkpt>
      <trkpt lat="43.81704" lon="7.16281">
        <ele>555.59997558594</ele>
        <time>2020-01-11T09:14:59.000Z</time>
      </trkpt>
      <trkpt lat="43.81704" lon="7.16274">
        <ele>556.20001220703</ele>
        <time>2020-01-11T09:15:02.000Z</time>
      </trkpt>
      <trkpt lat="43.81704" lon="7.16263">
        <ele>557.20001220703</ele>
        <time>2020-01-11T09:15:06.000Z</time>
      </trkpt>
      <trkpt lat="43.81704" lon="7.16256">
        <ele>558.40002441406</ele>
        <time>2020-01-11T09:15:09.000Z</time>
      </trkpt>
      <trkpt lat="43.81704" lon="7.16247">
        <ele>559.79998779297</ele>
        <time>2020-01-11T09:15:12.000Z</time>
      </trkpt>
      <trkpt lat="43.81704" lon="7.16242">
        <ele>560.79998779297</ele>
        <time>2020-01-11T09:15:14.000Z</time>
      </trkpt>
      <trkpt lat="43.81703" lon="7.16236">
        <ele>561.79998779297</ele>
        <time>2020-01-11T09:15:16.000Z</time>
      </trkpt>
      <trkpt lat="43.81703" lon="7.16231">
        <ele>563</ele>
        <time>2020-01-11T09:15:18.000Z</time>
      </trkpt>
      <trkpt lat="43.81706" lon="7.16223">
        <ele>564.40002441406</ele>
        <time>2020-01-11T09:15:21.000Z</time>
      </trkpt>
      <trkpt lat="43.81707" lon="7.16218">
        <ele>565</ele>
        <time>2020-01-11T09:15:23.000Z</time>
      </trkpt>
      <trkpt lat="43.81708" lon="7.16216">
        <ele>565.40002441406</ele>
        <time>2020-01-11T09:15:24.000Z</time>
      </trkpt>
      <trkpt lat="43.81711" lon="7.16208">
        <ele>566.59997558594</ele>
        <time>2020-01-11T09:15:28.000Z</time>
      </trkpt>
      <trkpt lat="43.81713" lon="7.16202">
        <ele>567.40002441406</ele>
        <time>2020-01-11T09:15:31.000Z</time>
      </trkpt>
      <trkpt lat="43.81714" lon="7.162">
        <ele>567.79998779297</ele>
        <time>2020-01-11T09:15:32.000Z</time>
      </trkpt>
      <trkpt lat="43.81715" lon="7.16193">
        <ele>568.79998779297</ele>
        <time>2020-01-11T09:15:35.000Z</time>
      </trkpt>
      <trkpt lat="43.81715" lon="7.16186">
        <ele>569.79998779297</ele>
        <time>2020-01-11T09:15:39.000Z</time>
      </trkpt>
      <trkpt lat="43.81715" lon="7.16183">
        <ele>570</ele>
        <time>2020-01-11T09:15:40.000Z</time>
      </trkpt>
      <trkpt lat="43.81712" lon="7.16168">
        <ele>571</ele>
        <time>2020-01-11T09:15:47.000Z</time>
      </trkpt>
      <trkpt lat="43.81711" lon="7.16166">
        <ele>571.20001220703</ele>
        <time>2020-01-11T09:15:48.000Z</time>
      </trkpt>
      <trkpt lat="43.8171" lon="7.16154">
        <ele>572.20001220703</ele>
        <time>2020-01-11T09:15:53.000Z</time>
      </trkpt>
      <trkpt lat="43.81709" lon="7.16147">
        <ele>573</ele>
        <time>2020-01-11T09:15:56.000Z</time>
      </trkpt>
      <trkpt lat="43.81708" lon="7.16143">
        <ele>573.40002441406</ele>
        <time>2020-01-11T09:15:58.000Z</time>
      </trkpt>
      <trkpt lat="43.81707" lon="7.16132">
        <ele>574.40002441406</ele>
        <time>2020-01-11T09:16:03.000Z</time>
      </trkpt>
      <trkpt lat="43.81707" lon="7.16126">
        <ele>575</ele>
        <time>2020-01-11T09:16:06.000Z</time>
      </trkpt>
      <trkpt lat="43.81707" lon="7.16122">
        <ele>575.59997558594</ele>
        <time>2020-01-11T09:16:08.000Z</time>
      </trkpt>
      <trkpt lat="43.81707" lon="7.16113">
        <ele>576.59997558594</ele>
        <time>2020-01-11T09:16:12.000Z</time>
      </trkpt>
      <trkpt lat="43.81706" lon="7.16107">
        <ele>577.20001220703</ele>
        <time>2020-01-11T09:16:15.000Z</time>
      </trkpt>
      <trkpt lat="43.81706" lon="7.16102">
        <ele>577.59997558594</ele>
        <time>2020-01-11T09:16:17.000Z</time>
      </trkpt>
      <trkpt lat="43.81702" lon="7.1609">
        <ele>578.59997558594</ele>
        <time>2020-01-11T09:16:23.000Z</time>
      </trkpt>
      <trkpt lat="43.817" lon="7.16084">
        <ele>579.20001220703</ele>
        <time>2020-01-11T09:16:26.000Z</time>
      </trkpt>
      <trkpt lat="43.81698" lon="7.16078">
        <ele>579.79998779297</ele>
        <time>2020-01-11T09:16:29.000Z</time>
      </trkpt>
      <trkpt lat="43.81694" lon="7.16069">
        <ele>580.79998779297</ele>
        <time>2020-01-11T09:16:33.000Z</time>
      </trkpt>
      <trkpt lat="43.81692" lon="7.16063">
        <ele>582</ele>
        <time>2020-01-11T09:16:36.000Z</time>
      </trkpt>
      <trkpt lat="43.81689" lon="7.16055">
        <ele>583.20001220703</ele>
        <time>2020-01-11T09:16:40.000Z</time>
      </trkpt>
      <trkpt lat="43.81689" lon="7.16051">
        <ele>583.79998779297</ele>
        <time>2020-01-11T09:16:42.000Z</time>
      </trkpt>
      <trkpt lat="43.81688" lon="7.16047">
        <ele>584.20001220703</ele>
        <time>2020-01-11T09:16:44.000Z</time>
      </trkpt>
      <trkpt lat="43.81684" lon="7.16042">
        <ele>585</ele>
        <time>2020-01-11T09:16:48.000Z</time>
      </trkpt>
      <trkpt lat="43.81683" lon="7.16043">
        <ele>585.40002441406</ele>
        <time>2020-01-11T09:16:49.000Z</time>
      </trkpt>
      <trkpt lat="43.81682" lon="7.16048">
        <ele>586.40002441406</ele>
        <time>2020-01-11T09:16:52.000Z</time>
      </trkpt>
      <trkpt lat="43.81682" lon="7.1605">
        <ele>586.59997558594</ele>
        <time>2020-01-11T09:16:53.000Z</time>
      </trkpt>
      <trkpt lat="43.81683" lon="7.16056">
        <ele>587</ele>
        <time>2020-01-11T09:16:56.000Z</time>
      </trkpt>
      <trkpt lat="43.81683" lon="7.16062">
        <ele>587.20001220703</ele>
        <time>2020-01-11T09:16:58.000Z</time>
      </trkpt>
      <trkpt lat="43.81681" lon="7.16066">
        <ele>587.40002441406</ele>
        <time>2020-01-11T09:17:00.000Z</time>
      </trkpt>
      <trkpt lat="43.81678" lon="7.16067">
        <ele>587.59997558594</ele>
        <time>2020-01-11T09:17:02.000Z</time>
      </trkpt>
      <trkpt lat="43.81674" lon="7.1606">
        <ele>588.40002441406</ele>
        <time>2020-01-11T09:17:05.000Z</time>
      </trkpt>
      <trkpt lat="43.81673" lon="7.16054">
        <ele>588.79998779297</ele>
        <time>2020-01-11T09:17:07.000Z</time>
      </trkpt>
      <trkpt lat="43.81673" lon="7.16052">
        <ele>589</ele>
        <time>2020-01-11T09:17:08.000Z</time>
      </trkpt>
      <trkpt lat="43.81671" lon="7.16044">
        <ele>589.79998779297</ele>
        <time>2020-01-11T09:17:11.000Z</time>
      </trkpt>
      <trkpt lat="43.81671" lon="7.16042">
        <ele>590.20001220703</ele>
        <time>2020-01-11T09:17:12.000Z</time>
      </trkpt>
      <trkpt lat="43.81669" lon="7.16034">
        <ele>591</ele>
        <time>2020-01-11T09:17:15.000Z</time>
      </trkpt>
      <trkpt lat="43.81668" lon="7.16024">
        <ele>592</ele>
        <time>2020-01-11T09:17:19.000Z</time>
      </trkpt>
      <trkpt lat="43.81665" lon="7.16011">
        <ele>592.79998779297</ele>
        <time>2020-01-11T09:17:24.000Z</time>
      </trkpt>
      <trkpt lat="43.81665" lon="7.16009">
        <ele>593</ele>
        <time>2020-01-11T09:17:25.000Z</time>
      </trkpt>
      <trkpt lat="43.81665" lon="7.15999">
        <ele>594</ele>
        <time>2020-01-11T09:17:29.000Z</time>
      </trkpt>
      <trkpt lat="43.81665" lon="7.15997">
        <ele>594.40002441406</ele>
        <time>2020-01-11T09:17:30.000Z</time>
      </trkpt>
      <trkpt lat="43.81664" lon="7.15992">
        <ele>595</ele>
        <time>2020-01-11T09:17:32.000Z</time>
      </trkpt>
      <trkpt lat="43.81662" lon="7.15983">
        <ele>596.20001220703</ele>
        <time>2020-01-11T09:17:36.000Z</time>
      </trkpt>
      <trkpt lat="43.81661" lon="7.15981">
        <ele>596.59997558594</ele>
        <time>2020-01-11T09:17:37.000Z</time>
      </trkpt>
      <trkpt lat="43.81658" lon="7.15974">
        <ele>597.40002441406</ele>
        <time>2020-01-11T09:17:40.000Z</time>
      </trkpt>
      <trkpt lat="43.81652" lon="7.15966">
        <ele>598.59997558594</ele>
        <time>2020-01-11T09:17:45.000Z</time>
      </trkpt>
      <trkpt lat="43.81647" lon="7.15959">
        <ele>599.59997558594</ele>
        <time>2020-01-11T09:17:49.000Z</time>
      </trkpt>
      <trkpt lat="43.81645" lon="7.15956">
        <ele>600.40002441406</ele>
        <time>2020-01-11T09:17:51.000Z</time>
      </trkpt>
      <trkpt lat="43.81642" lon="7.15952">
        <ele>600.79998779297</ele>
        <time>2020-01-11T09:17:53.000Z</time>
      </trkpt>
      <trkpt lat="43.81638" lon="7.15944">
        <ele>602.20001220703</ele>
        <time>2020-01-11T09:17:57.000Z</time>
      </trkpt>
      <trkpt lat="43.81633" lon="7.15937">
        <ele>603.20001220703</ele>
        <time>2020-01-11T09:18:01.000Z</time>
      </trkpt>
      <trkpt lat="43.81631" lon="7.15932">
        <ele>603.79998779297</ele>
        <time>2020-01-11T09:18:03.000Z</time>
      </trkpt>
      <trkpt lat="43.8163" lon="7.15927">
        <ele>604.40002441406</ele>
        <time>2020-01-11T09:18:05.000Z</time>
      </trkpt>
      <trkpt lat="43.81627" lon="7.1592">
        <ele>605.40002441406</ele>
        <time>2020-01-11T09:18:08.000Z</time>
      </trkpt>
      <trkpt lat="43.81624" lon="7.15913">
        <ele>606.40002441406</ele>
        <time>2020-01-11T09:18:11.000Z</time>
      </trkpt>
      <trkpt lat="43.81623" lon="7.15911">
        <ele>606.59997558594</ele>
        <time>2020-01-11T09:18:12.000Z</time>
      </trkpt>
      <trkpt lat="43.81618" lon="7.15897">
        <ele>607.40002441406</ele>
        <time>2020-01-11T09:18:18.000Z</time>
      </trkpt>
      <trkpt lat="43.81615" lon="7.15889">
        <ele>607.59997558594</ele>
        <time>2020-01-11T09:18:21.000Z</time>
      </trkpt>
      <trkpt lat="43.81611" lon="7.15878">
        <ele>608</ele>
        <time>2020-01-11T09:18:26.000Z</time>
      </trkpt>
      <trkpt lat="43.81607" lon="7.15867">
        <ele>608.59997558594</ele>
        <time>2020-01-11T09:18:30.000Z</time>
      </trkpt>
      <trkpt lat="43.81605" lon="7.15861">
        <ele>608.59997558594</ele>
        <time>2020-01-11T09:18:32.000Z</time>
      </trkpt>
      <trkpt lat="43.81598" lon="7.15845">
        <ele>608.79998779297</ele>
        <time>2020-01-11T09:18:38.000Z</time>
      </trkpt>
      <trkpt lat="43.8159" lon="7.15825">
        <ele>609</ele>
        <time>2020-01-11T09:18:45.000Z</time>
      </trkpt>
      <trkpt lat="43.81579" lon="7.15809">
        <ele>609.79998779297</ele>
        <time>2020-01-11T09:18:52.000Z</time>
      </trkpt>
      <trkpt lat="43.81578" lon="7.15807">
        <ele>609.79998779297</ele>
        <time>2020-01-11T09:18:53.000Z</time>
      </trkpt>
      <trkpt lat="43.8157" lon="7.15803">
        <ele>610.79998779297</ele>
        <time>2020-01-11T09:18:57.000Z</time>
      </trkpt>
      <trkpt lat="43.81566" lon="7.15801">
        <ele>611</ele>
        <time>2020-01-11T09:18:59.000Z</time>
      </trkpt>
      <trkpt lat="43.8155" lon="7.15792">
        <ele>612</ele>
        <time>2020-01-11T09:19:06.000Z</time>
      </trkpt>
      <trkpt lat="43.81548" lon="7.15791">
        <ele>612.20001220703</ele>
        <time>2020-01-11T09:19:07.000Z</time>
      </trkpt>
      <trkpt lat="43.81536" lon="7.15781">
        <ele>613</ele>
        <time>2020-01-11T09:19:13.000Z</time>
      </trkpt>
      <trkpt lat="43.81533" lon="7.15778">
        <ele>613.59997558594</ele>
        <time>2020-01-11T09:19:15.000Z</time>
      </trkpt>
      <trkpt lat="43.81529" lon="7.15774">
        <ele>614</ele>
        <time>2020-01-11T09:19:17.000Z</time>
      </trkpt>
      <trkpt lat="43.81523" lon="7.15766">
        <ele>615</ele>
        <time>2020-01-11T09:19:21.000Z</time>
      </trkpt>
      <trkpt lat="43.8152" lon="7.15762">
        <ele>615.59997558594</ele>
        <time>2020-01-11T09:19:23.000Z</time>
      </trkpt>
      <trkpt lat="43.81518" lon="7.15759">
        <ele>616.20001220703</ele>
        <time>2020-01-11T09:19:25.000Z</time>
      </trkpt>
      <trkpt lat="43.81515" lon="7.15753">
        <ele>617.59997558594</ele>
        <time>2020-01-11T09:19:28.000Z</time>
      </trkpt>
      <trkpt lat="43.81513" lon="7.15751">
        <ele>618.20001220703</ele>
        <time>2020-01-11T09:19:29.000Z</time>
      </trkpt>
      <trkpt lat="43.81511" lon="7.15746">
        <ele>618.79998779297</ele>
        <time>2020-01-11T09:19:31.000Z</time>
      </trkpt>
      <trkpt lat="43.81508" lon="7.1574">
        <ele>619.79998779297</ele>
        <time>2020-01-11T09:19:34.000Z</time>
      </trkpt>
      <trkpt lat="43.81506" lon="7.15736">
        <ele>620.59997558594</ele>
        <time>2020-01-11T09:19:36.000Z</time>
      </trkpt>
      <trkpt lat="43.81504" lon="7.15733">
        <ele>621.20001220703</ele>
        <time>2020-01-11T09:19:37.000Z</time>
      </trkpt>
      <trkpt lat="43.81501" lon="7.15724">
        <ele>622.20001220703</ele>
        <time>2020-01-11T09:19:41.000Z</time>
      </trkpt>
      <trkpt lat="43.81499" lon="7.15717">
        <ele>623.40002441406</ele>
        <time>2020-01-11T09:19:44.000Z</time>
      </trkpt>
      <trkpt lat="43.81498" lon="7.15715">
        <ele>623.79998779297</ele>
        <time>2020-01-11T09:19:45.000Z</time>
      </trkpt>
      <trkpt lat="43.81497" lon="7.15713">
        <ele>624.40002441406</ele>
        <time>2020-01-11T09:19:46.000Z</time>
      </trkpt>
      <trkpt lat="43.81494" lon="7.15706">
        <ele>625.59997558594</ele>
        <time>2020-01-11T09:19:49.000Z</time>
      </trkpt>
      <trkpt lat="43.81492" lon="7.15701">
        <ele>626.40002441406</ele>
        <time>2020-01-11T09:19:51.000Z</time>
      </trkpt>
      <trkpt lat="43.81491" lon="7.15699">
        <ele>626.79998779297</ele>
        <time>2020-01-11T09:19:52.000Z</time>
      </trkpt>
      <trkpt lat="43.81489" lon="7.15692">
        <ele>627.79998779297</ele>
        <time>2020-01-11T09:19:55.000Z</time>
      </trkpt>
      <trkpt lat="43.81486" lon="7.15684">
        <ele>628.40002441406</ele>
        <time>2020-01-11T09:19:58.000Z</time>
      </trkpt>
      <trkpt lat="43.81485" lon="7.1568">
        <ele>628.79998779297</ele>
        <time>2020-01-11T09:20:00.000Z</time>
      </trkpt>
      <trkpt lat="43.8148" lon="7.15669">
        <ele>630</ele>
        <time>2020-01-11T09:20:05.000Z</time>
      </trkpt>
      <trkpt lat="43.81478" lon="7.15665">
        <ele>630.79998779297</ele>
        <time>2020-01-11T09:20:07.000Z</time>
      </trkpt>
      <trkpt lat="43.81476" lon="7.15661">
        <ele>631.20001220703</ele>
        <time>2020-01-11T09:20:09.000Z</time>
      </trkpt>
      <trkpt lat="43.81469" lon="7.15649">
        <ele>632</ele>
        <time>2020-01-11T09:20:15.000Z</time>
      </trkpt>
      <trkpt lat="43.81464" lon="7.1564">
        <ele>632.40002441406</ele>
        <time>2020-01-11T09:20:19.000Z</time>
      </trkpt>
      <trkpt lat="43.81457" lon="7.15628">
        <ele>633.40002441406</ele>
        <time>2020-01-11T09:20:25.000Z</time>
      </trkpt>
      <trkpt lat="43.8145" lon="7.15618">
        <ele>634.40002441406</ele>
        <time>2020-01-11T09:20:30.000Z</time>
      </trkpt>
      <trkpt lat="43.81446" lon="7.15609">
        <ele>635</ele>
        <time>2020-01-11T09:20:34.000Z</time>
      </trkpt>
      <trkpt lat="43.81442" lon="7.156">
        <ele>635.59997558594</ele>
        <time>2020-01-11T09:20:38.000Z</time>
      </trkpt>
      <trkpt lat="43.81439" lon="7.15591">
        <ele>636.59997558594</ele>
        <time>2020-01-11T09:20:42.000Z</time>
      </trkpt>
      <trkpt lat="43.81438" lon="7.15588">
        <ele>636.79998779297</ele>
        <time>2020-01-11T09:20:43.000Z</time>
      </trkpt>
      <trkpt lat="43.81432" lon="7.15574">
        <ele>637.79998779297</ele>
        <time>2020-01-11T09:20:49.000Z</time>
      </trkpt>
      <trkpt lat="43.81431" lon="7.15571">
        <ele>638</ele>
        <time>2020-01-11T09:20:50.000Z</time>
      </trkpt>
      <trkpt lat="43.8142" lon="7.1556">
        <ele>638.40002441406</ele>
        <time>2020-01-11T09:20:57.000Z</time>
      </trkpt>
      <trkpt lat="43.81412" lon="7.15557">
        <ele>639</ele>
        <time>2020-01-11T09:21:01.000Z</time>
      </trkpt>
      <trkpt lat="43.81405" lon="7.15555">
        <ele>639.79998779297</ele>
        <time>2020-01-11T09:21:05.000Z</time>
      </trkpt>
      <trkpt lat="43.81403" lon="7.15555">
        <ele>640</ele>
        <time>2020-01-11T09:21:06.000Z</time>
      </trkpt>
      <trkpt lat="43.81393" lon="7.15555">
        <ele>641</ele>
        <time>2020-01-11T09:21:11.000Z</time>
      </trkpt>
      <trkpt lat="43.81391" lon="7.15555">
        <ele>641.40002441406</ele>
        <time>2020-01-11T09:21:12.000Z</time>
      </trkpt>
      <trkpt lat="43.81383" lon="7.15556">
        <ele>642.20001220703</ele>
        <time>2020-01-11T09:21:16.000Z</time>
      </trkpt>
      <trkpt lat="43.81378" lon="7.15557">
        <ele>643.20001220703</ele>
        <time>2020-01-11T09:21:19.000Z</time>
      </trkpt>
      <trkpt lat="43.81376" lon="7.15557">
        <ele>643.79998779297</ele>
        <time>2020-01-11T09:21:20.000Z</time>
      </trkpt>
      <trkpt lat="43.81372" lon="7.15558">
        <ele>645</ele>
        <time>2020-01-11T09:21:23.000Z</time>
      </trkpt>
      <trkpt lat="43.81367" lon="7.15558">
        <ele>646.20001220703</ele>
        <time>2020-01-11T09:21:26.000Z</time>
      </trkpt>
      <trkpt lat="43.81365" lon="7.15558">
        <ele>646.40002441406</ele>
        <time>2020-01-11T09:21:27.000Z</time>
      </trkpt>
      <trkpt lat="43.8136" lon="7.15554">
        <ele>647.40002441406</ele>
        <time>2020-01-11T09:21:31.000Z</time>
      </trkpt>
      <trkpt lat="43.81357" lon="7.15553">
        <ele>647.59997558594</ele>
        <time>2020-01-11T09:21:33.000Z</time>
      </trkpt>
      <trkpt lat="43.8135" lon="7.15553">
        <ele>648.40002441406</ele>
        <time>2020-01-11T09:21:38.000Z</time>
      </trkpt>
      <trkpt lat="43.81348" lon="7.15552">
        <ele>649</ele>
        <time>2020-01-11T09:21:40.000Z</time>
      </trkpt>
      <trkpt lat="43.81348" lon="7.15553">
        <ele>649.40002441406</ele>
        <time>2020-01-11T09:21:42.000Z</time>
      </trkpt>
      <trkpt lat="43.81349" lon="7.15555">
        <ele>649.59997558594</ele>
        <time>2020-01-11T09:21:44.000Z</time>
      </trkpt>
      <trkpt lat="43.81347" lon="7.15556">
        <ele>649.40002441406</ele>
        <time>2020-01-11T09:21:49.000Z</time>
      </trkpt>
      <trkpt lat="43.81347" lon="7.15557">
        <ele>649.20001220703</ele>
        <time>2020-01-11T09:21:59.000Z</time>
      </trkpt>
      <trkpt lat="43.81347" lon="7.15558">
        <ele>649.40002441406</ele>
        <time>2020-01-11T09:22:16.000Z</time>
      </trkpt>
      <trkpt lat="43.81346" lon="7.15557">
        <ele>649.59997558594</ele>
        <time>2020-01-11T09:22:28.000Z</time>
      </trkpt>
      <trkpt lat="43.81347" lon="7.15555">
        <ele>650</ele>
        <time>2020-01-11T09:22:35.000Z</time>
      </trkpt>
      <trkpt lat="43.81347" lon="7.15554">
        <ele>649.79998779297</ele>
        <time>2020-01-11T09:22:49.000Z</time>
      </trkpt>
      <trkpt lat="43.81347" lon="7.15556">
        <ele>649.79998779297</ele>
        <time>2020-01-11T09:22:55.000Z</time>
      </trkpt>
      <trkpt lat="43.81346" lon="7.15555">
        <ele>649.59997558594</ele>
        <time>2020-01-11T09:22:59.000Z</time>
      </trkpt>
      <trkpt lat="43.81347" lon="7.15554">
        <ele>649.20001220703</ele>
        <time>2020-01-11T09:23:10.000Z</time>
      </trkpt>
      <trkpt lat="43.81347" lon="7.15552">
        <ele>649.40002441406</ele>
        <time>2020-01-11T09:23:13.000Z</time>
      </trkpt>
      <trkpt lat="43.81347" lon="7.15553">
        <ele>649.59997558594</ele>
        <time>2020-01-11T09:23:14.000Z</time>
      </trkpt>
      <trkpt lat="43.81346" lon="7.15554">
        <ele>649.79998779297</ele>
        <time>2020-01-11T09:23:20.000Z</time>
      </trkpt>
      <trkpt lat="43.81344" lon="7.15556">
        <ele>649.79998779297</ele>
        <time>2020-01-11T09:23:25.000Z</time>
      </trkpt>
      <trkpt lat="43.81343" lon="7.15557">
        <ele>649.79998779297</ele>
        <time>2020-01-11T09:23:26.000Z</time>
      </trkpt>
      <trkpt lat="43.81337" lon="7.15558">
        <ele>649.79998779297</ele>
        <time>2020-01-11T09:23:29.000Z</time>
      </trkpt>
      <trkpt lat="43.81329" lon="7.15558">
        <ele>650.20001220703</ele>
        <time>2020-01-11T09:23:33.000Z</time>
      </trkpt>
      <trkpt lat="43.81322" lon="7.15558">
        <ele>650.59997558594</ele>
        <time>2020-01-11T09:23:36.000Z</time>
      </trkpt>
      <trkpt lat="43.81314" lon="7.15557">
        <ele>651.40002441406</ele>
        <time>2020-01-11T09:23:40.000Z</time>
      </trkpt>
      <trkpt lat="43.81311" lon="7.15557">
        <ele>651.79998779297</ele>
        <time>2020-01-11T09:23:41.000Z</time>
      </trkpt>
      <trkpt lat="43.81305" lon="7.15553">
        <ele>653.20001220703</ele>
        <time>2020-01-11T09:23:45.000Z</time>
      </trkpt>
      <trkpt lat="43.81303" lon="7.15553">
        <ele>653.40002441406</ele>
        <time>2020-01-11T09:23:46.000Z</time>
      </trkpt>
      <trkpt lat="43.81296" lon="7.15552">
        <ele>654.20001220703</ele>
        <time>2020-01-11T09:23:50.000Z</time>
      </trkpt>
      <trkpt lat="43.81294" lon="7.15551">
        <ele>655</ele>
        <time>2020-01-11T09:23:52.000Z</time>
      </trkpt>
      <trkpt lat="43.81292" lon="7.15551">
        <ele>655.40002441406</ele>
        <time>2020-01-11T09:23:53.000Z</time>
      </trkpt>
      <trkpt lat="43.81288" lon="7.1555">
        <ele>656.59997558594</ele>
        <time>2020-01-11T09:23:57.000Z</time>
      </trkpt>
      <trkpt lat="43.8128" lon="7.15551">
        <ele>657.79998779297</ele>
        <time>2020-01-11T09:24:02.000Z</time>
      </trkpt>
      <trkpt lat="43.81276" lon="7.15552">
        <ele>658.40002441406</ele>
        <time>2020-01-11T09:24:05.000Z</time>
      </trkpt>
      <trkpt lat="43.81271" lon="7.15553">
        <ele>659</ele>
        <time>2020-01-11T09:24:08.000Z</time>
      </trkpt>
      <trkpt lat="43.81267" lon="7.15553">
        <ele>659.40002441406</ele>
        <time>2020-01-11T09:24:11.000Z</time>
      </trkpt>
      <trkpt lat="43.81263" lon="7.15553">
        <ele>660.20001220703</ele>
        <time>2020-01-11T09:24:14.000Z</time>
      </trkpt>
      <trkpt lat="43.81254" lon="7.15554">
        <ele>661.20001220703</ele>
        <time>2020-01-11T09:24:18.000Z</time>
      </trkpt>
      <trkpt lat="43.81248" lon="7.15556">
        <ele>662.20001220703</ele>
        <time>2020-01-11T09:24:21.000Z</time>
      </trkpt>
      <trkpt lat="43.81243" lon="7.15557">
        <ele>663.20001220703</ele>
        <time>2020-01-11T09:24:24.000Z</time>
      </trkpt>
      <trkpt lat="43.81241" lon="7.15557">
        <ele>663.59997558594</ele>
        <time>2020-01-11T09:24:25.000Z</time>
      </trkpt>
      <trkpt lat="43.81235" lon="7.15556">
        <ele>664.59997558594</ele>
        <time>2020-01-11T09:24:29.000Z</time>
      </trkpt>
      <trkpt lat="43.81231" lon="7.15557">
        <ele>665</ele>
        <time>2020-01-11T09:24:31.000Z</time>
      </trkpt>
      <trkpt lat="43.81223" lon="7.15555">
        <ele>665.79998779297</ele>
        <time>2020-01-11T09:24:35.000Z</time>
      </trkpt>
      <trkpt lat="43.81219" lon="7.15553">
        <ele>667</ele>
        <time>2020-01-11T09:24:38.000Z</time>
      </trkpt>
      <trkpt lat="43.81214" lon="7.15553">
        <ele>668</ele>
        <time>2020-01-11T09:24:41.000Z</time>
      </trkpt>
      <trkpt lat="43.81212" lon="7.15553">
        <ele>669</ele>
        <time>2020-01-11T09:24:44.000Z</time>
      </trkpt>
      <trkpt lat="43.8121" lon="7.15551">
        <ele>670.20001220703</ele>
        <time>2020-01-11T09:24:48.000Z</time>
      </trkpt>
      <trkpt lat="43.81207" lon="7.15551">
        <ele>670.79998779297</ele>
        <time>2020-01-11T09:24:56.000Z</time>
      </trkpt>
      <trkpt lat="43.81207" lon="7.1555">
        <ele>671.20001220703</ele>
        <time>2020-01-11T09:25:00.000Z</time>
      </trkpt>
      <trkpt lat="43.81205" lon="7.15551">
        <ele>671.59997558594</ele>
        <time>2020-01-11T09:25:04.000Z</time>
      </trkpt>
      <trkpt lat="43.81204" lon="7.1555">
        <ele>672.20001220703</ele>
        <time>2020-01-11T09:25:09.000Z</time>
      </trkpt>
      <trkpt lat="43.81204" lon="7.1555">
        <ele>671.79998779297</ele>
        <time>2020-01-11T09:25:14.000Z</time>
      </trkpt>
      <trkpt lat="43.81203" lon="7.1555">
        <ele>672.40002441406</ele>
        <time>2020-01-11T09:25:20.000Z</time>
      </trkpt>
      <trkpt lat="43.812" lon="7.15549">
        <ele>672.59997558594</ele>
        <time>2020-01-11T09:25:23.000Z</time>
      </trkpt>
      <trkpt lat="43.81198" lon="7.15548">
        <ele>672.59997558594</ele>
        <time>2020-01-11T09:25:24.000Z</time>
      </trkpt>
      <trkpt lat="43.8119" lon="7.15545">
        <ele>673.40002441406</ele>
        <time>2020-01-11T09:25:29.000Z</time>
      </trkpt>
      <trkpt lat="43.81188" lon="7.15544">
        <ele>674.40002441406</ele>
        <time>2020-01-11T09:25:31.000Z</time>
      </trkpt>
      <trkpt lat="43.81186" lon="7.15544">
        <ele>675</ele>
        <time>2020-01-11T09:25:32.000Z</time>
      </trkpt>
      <trkpt lat="43.81184" lon="7.15544">
        <ele>676.20001220703</ele>
        <time>2020-01-11T09:25:34.000Z</time>
      </trkpt>
      <trkpt lat="43.81181" lon="7.15545">
        <ele>677.20001220703</ele>
        <time>2020-01-11T09:25:36.000Z</time>
      </trkpt>
      <trkpt lat="43.8118" lon="7.15546">
        <ele>677.59997558594</ele>
        <time>2020-01-11T09:25:37.000Z</time>
      </trkpt>
      <trkpt lat="43.81176" lon="7.15553">
        <ele>678.59997558594</ele>
        <time>2020-01-11T09:25:41.000Z</time>
      </trkpt>
      <trkpt lat="43.81175" lon="7.15555">
        <ele>678.79998779297</ele>
        <time>2020-01-11T09:25:42.000Z</time>
      </trkpt>
      <trkpt lat="43.81173" lon="7.15563">
        <ele>679.79998779297</ele>
        <time>2020-01-11T09:25:46.000Z</time>
      </trkpt>
      <trkpt lat="43.81171" lon="7.1557">
        <ele>680.59997558594</ele>
        <time>2020-01-11T09:25:49.000Z</time>
      </trkpt>
      <trkpt lat="43.81171" lon="7.15572">
        <ele>680.79998779297</ele>
        <time>2020-01-11T09:25:50.000Z</time>
      </trkpt>
      <trkpt lat="43.8117" lon="7.15583">
        <ele>681.79998779297</ele>
        <time>2020-01-11T09:25:55.000Z</time>
      </trkpt>
      <trkpt lat="43.8117" lon="7.15585">
        <ele>682.20001220703</ele>
        <time>2020-01-11T09:25:56.000Z</time>
      </trkpt>
      <trkpt lat="43.81171" lon="7.15591">
        <ele>683</ele>
        <time>2020-01-11T09:25:59.000Z</time>
      </trkpt>
      <trkpt lat="43.81174" lon="7.15599">
        <ele>684</ele>
        <time>2020-01-11T09:26:03.000Z</time>
      </trkpt>
      <trkpt lat="43.81179" lon="7.15606">
        <ele>685.20001220703</ele>
        <time>2020-01-11T09:26:07.000Z</time>
      </trkpt>
      <trkpt lat="43.8118" lon="7.15609">
        <ele>686</ele>
        <time>2020-01-11T09:26:09.000Z</time>
      </trkpt>
      <trkpt lat="43.81181" lon="7.15611">
        <ele>686.59997558594</ele>
        <time>2020-01-11T09:26:10.000Z</time>
      </trkpt>
      <trkpt lat="43.81181" lon="7.15616">
        <ele>687.79998779297</ele>
        <time>2020-01-11T09:26:13.000Z</time>
      </trkpt>
      <trkpt lat="43.81178" lon="7.15618">
        <ele>688.40002441406</ele>
        <time>2020-01-11T09:26:15.000Z</time>
      </trkpt>
      <trkpt lat="43.81177" lon="7.15619">
        <ele>688.59997558594</ele>
        <time>2020-01-11T09:26:16.000Z</time>
      </trkpt>
      <trkpt lat="43.81175" lon="7.1562">
        <ele>689</ele>
        <time>2020-01-11T09:26:18.000Z</time>
      </trkpt>
      <trkpt lat="43.81171" lon="7.1562">
        <ele>689.59997558594</ele>
        <time>2020-01-11T09:26:21.000Z</time>
      </trkpt>
      <trkpt lat="43.81168" lon="7.15619">
        <ele>690.20001220703</ele>
        <time>2020-01-11T09:26:23.000Z</time>
      </trkpt>
      <trkpt lat="43.81161" lon="7.1562">
        <ele>691.20001220703</ele>
        <time>2020-01-11T09:26:29.000Z</time>
      </trkpt>
      <trkpt lat="43.81156" lon="7.15622">
        <ele>692.20001220703</ele>
        <time>2020-01-11T09:26:33.000Z</time>
      </trkpt>
      <trkpt lat="43.81152" lon="7.15623">
        <ele>693</ele>
        <time>2020-01-11T09:26:36.000Z</time>
      </trkpt>
      <trkpt lat="43.8115" lon="7.15623">
        <ele>693.40002441406</ele>
        <time>2020-01-11T09:26:38.000Z</time>
      </trkpt>
      <trkpt lat="43.81142" lon="7.15626">
        <ele>694.59997558594</ele>
        <time>2020-01-11T09:26:43.000Z</time>
      </trkpt>
      <trkpt lat="43.81136" lon="7.15631">
        <ele>695.79998779297</ele>
        <time>2020-01-11T09:26:48.000Z</time>
      </trkpt>
      <trkpt lat="43.81133" lon="7.15632">
        <ele>697</ele>
        <time>2020-01-11T09:26:50.000Z</time>
      </trkpt>
      <trkpt lat="43.81132" lon="7.15633">
        <ele>697.40002441406</ele>
        <time>2020-01-11T09:26:51.000Z</time>
      </trkpt>
      <trkpt lat="43.8113" lon="7.15635">
        <ele>698.59997558594</ele>
        <time>2020-01-11T09:26:53.000Z</time>
      </trkpt>
      <trkpt lat="43.81126" lon="7.15636">
        <ele>699.79998779297</ele>
        <time>2020-01-11T09:26:56.000Z</time>
      </trkpt>
      <trkpt lat="43.81124" lon="7.15636">
        <ele>700.40002441406</ele>
        <time>2020-01-11T09:26:58.000Z</time>
      </trkpt>
      <trkpt lat="43.81123" lon="7.15637">
        <ele>700.59997558594</ele>
        <time>2020-01-11T09:26:59.000Z</time>
      </trkpt>
      <trkpt lat="43.81122" lon="7.15639">
        <ele>701</ele>
        <time>2020-01-11T09:27:00.000Z</time>
      </trkpt>
      <trkpt lat="43.81118" lon="7.15644">
        <ele>701.79998779297</ele>
        <time>2020-01-11T09:27:04.000Z</time>
      </trkpt>
      <trkpt lat="43.81116" lon="7.15646">
        <ele>702</ele>
        <time>2020-01-11T09:27:05.000Z</time>
      </trkpt>
      <trkpt lat="43.81113" lon="7.15652">
        <ele>703.20001220703</ele>
        <time>2020-01-11T09:27:09.000Z</time>
      </trkpt>
      <trkpt lat="43.81108" lon="7.1566">
        <ele>704.20001220703</ele>
        <time>2020-01-11T09:27:14.000Z</time>
      </trkpt>
      <trkpt lat="43.81107" lon="7.15662">
        <ele>704.40002441406</ele>
        <time>2020-01-11T09:27:15.000Z</time>
      </trkpt>
      <trkpt lat="43.811" lon="7.15675">
        <ele>705.40002441406</ele>
        <time>2020-01-11T09:27:22.000Z</time>
      </trkpt>
      <trkpt lat="43.81093" lon="7.15686">
        <ele>706.59997558594</ele>
        <time>2020-01-11T09:27:28.000Z</time>
      </trkpt>
      <trkpt lat="43.81092" lon="7.15688">
        <ele>706.59997558594</ele>
        <time>2020-01-11T09:27:29.000Z</time>
      </trkpt>
      <trkpt lat="43.81088" lon="7.15695">
        <ele>707.59997558594</ele>
        <time>2020-01-11T09:27:32.000Z</time>
      </trkpt>
      <trkpt lat="43.81085" lon="7.157">
        <ele>708.20001220703</ele>
        <time>2020-01-11T09:27:35.000Z</time>
      </trkpt>
      <trkpt lat="43.81083" lon="7.15704">
        <ele>708.59997558594</ele>
        <time>2020-01-11T09:27:37.000Z</time>
      </trkpt>
      <trkpt lat="43.81079" lon="7.15709">
        <ele>709</ele>
        <time>2020-01-11T09:27:41.000Z</time>
      </trkpt>
      <trkpt lat="43.81079" lon="7.15712">
        <ele>709</ele>
        <time>2020-01-11T09:27:42.000Z</time>
      </trkpt>
      <trkpt lat="43.81074" lon="7.15717">
        <ele>709.59997558594</ele>
        <time>2020-01-11T09:27:46.000Z</time>
      </trkpt>
      <trkpt lat="43.81073" lon="7.15718">
        <ele>709.59997558594</ele>
        <time>2020-01-11T09:27:47.000Z</time>
      </trkpt>
      <trkpt lat="43.81069" lon="7.15723">
        <ele>710.40002441406</ele>
        <time>2020-01-11T09:27:51.000Z</time>
      </trkpt>
      <trkpt lat="43.81068" lon="7.15724">
        <ele>710.59997558594</ele>
        <time>2020-01-11T09:27:52.000Z</time>
      </trkpt>
      <trkpt lat="43.81062" lon="7.15731">
        <ele>711.40002441406</ele>
        <time>2020-01-11T09:27:57.000Z</time>
      </trkpt>
      <trkpt lat="43.81058" lon="7.15738">
        <ele>711.79998779297</ele>
        <time>2020-01-11T09:28:01.000Z</time>
      </trkpt>
      <trkpt lat="43.81053" lon="7.15742">
        <ele>712.20001220703</ele>
        <time>2020-01-11T09:28:04.000Z</time>
      </trkpt>
      <trkpt lat="43.81042" lon="7.15754">
        <ele>712.79998779297</ele>
        <time>2020-01-11T09:28:12.000Z</time>
      </trkpt>
      <trkpt lat="43.81041" lon="7.15756">
        <ele>713</ele>
        <time>2020-01-11T09:28:13.000Z</time>
      </trkpt>
      <trkpt lat="43.81033" lon="7.15768">
        <ele>713.59997558594</ele>
        <time>2020-01-11T09:28:20.000Z</time>
      </trkpt>
      <trkpt lat="43.81026" lon="7.1578">
        <ele>713.59997558594</ele>
        <time>2020-01-11T09:28:26.000Z</time>
      </trkpt>
      <trkpt lat="43.81018" lon="7.15793">
        <ele>712.79998779297</ele>
        <time>2020-01-11T09:28:33.000Z</time>
      </trkpt>
      <trkpt lat="43.81017" lon="7.15793">
        <ele>712.79998779297</ele>
        <time>2020-01-11T09:28:43.000Z</time>
      </trkpt>
      <trkpt lat="43.81017" lon="7.15793">
        <ele>712.79998779297</ele>
        <time>2020-01-11T09:28:49.000Z</time>
      </trkpt>
      <trkpt lat="43.81016" lon="7.15795">
        <ele>712.40002441406</ele>
        <time>2020-01-11T09:28:53.000Z</time>
      </trkpt>
      <trkpt lat="43.81015" lon="7.15796">
        <ele>712.20001220703</ele>
        <time>2020-01-11T09:28:55.000Z</time>
      </trkpt>
      <trkpt lat="43.81015" lon="7.15794">
        <ele>712</ele>
        <time>2020-01-11T09:28:59.000Z</time>
      </trkpt>
      <trkpt lat="43.81015" lon="7.15794">
        <ele>712</ele>
        <time>2020-01-11T09:29:00.000Z</time>
      </trkpt>
      <trkpt lat="43.81017" lon="7.15792">
        <ele>712</ele>
        <time>2020-01-11T09:29:05.000Z</time>
      </trkpt>
      <trkpt lat="43.81016" lon="7.15792">
        <ele>712.20001220703</ele>
        <time>2020-01-11T09:29:11.000Z</time>
      </trkpt>
      <trkpt lat="43.81017" lon="7.15792">
        <ele>712.40002441406</ele>
        <time>2020-01-11T09:29:12.000Z</time>
      </trkpt>
      <trkpt lat="43.81017" lon="7.15792">
        <ele>712.79998779297</ele>
        <time>2020-01-11T09:29:15.000Z</time>
      </trkpt>
      <trkpt lat="43.81016" lon="7.15793">
        <ele>712</ele>
        <time>2020-01-11T09:29:22.000Z</time>
      </trkpt>
      <trkpt lat="43.81015" lon="7.15793">
        <ele>711.79998779297</ele>
        <time>2020-01-11T09:29:24.000Z</time>
      </trkpt>
      <trkpt lat="43.81012" lon="7.1579">
        <ele>712.20001220703</ele>
        <time>2020-01-11T09:29:28.000Z</time>
      </trkpt>
      <trkpt lat="43.81012" lon="7.15787">
        <ele>711</ele>
        <time>2020-01-11T09:29:33.000Z</time>
      </trkpt>
      <trkpt lat="43.81013" lon="7.15788">
        <ele>710.59997558594</ele>
        <time>2020-01-11T09:29:34.000Z</time>
      </trkpt>
      <trkpt lat="43.81012" lon="7.1579">
        <ele>710.40002441406</ele>
        <time>2020-01-11T09:29:37.000Z</time>
      </trkpt>
      <trkpt lat="43.81015" lon="7.15794">
        <ele>711.40002441406</ele>
        <time>2020-01-11T09:29:42.000Z</time>
      </trkpt>
      <trkpt lat="43.81013" lon="7.15795">
        <ele>711.79998779297</ele>
        <time>2020-01-11T09:29:44.000Z</time>
      </trkpt>
      <trkpt lat="43.81013" lon="7.15794">
        <ele>712</ele>
        <time>2020-01-11T09:29:45.000Z</time>
      </trkpt>
      <trkpt lat="43.81013" lon="7.15792">
        <ele>712</ele>
        <time>2020-01-11T09:29:50.000Z</time>
      </trkpt>
      <trkpt lat="43.81013" lon="7.15792">
        <ele>711.79998779297</ele>
        <time>2020-01-11T09:29:51.000Z</time>
      </trkpt>
      <trkpt lat="43.81011" lon="7.15787">
        <ele>711.59997558594</ele>
        <time>2020-01-11T09:29:54.000Z</time>
      </trkpt>
      <trkpt lat="43.81009" lon="7.15785">
        <ele>710.59997558594</ele>
        <time>2020-01-11T09:29:58.000Z</time>
      </trkpt>
      <trkpt lat="43.80999" lon="7.15778">
        <ele>710.79998779297</ele>
        <time>2020-01-11T09:30:03.000Z</time>
      </trkpt>
      <trkpt lat="43.80983" lon="7.15777">
        <ele>710.20001220703</ele>
        <time>2020-01-11T09:30:09.000Z</time>
      </trkpt>
      <trkpt lat="43.80974" lon="7.15771">
        <ele>711</ele>
        <time>2020-01-11T09:30:14.000Z</time>
      </trkpt>
      <trkpt lat="43.8097" lon="7.15771">
        <ele>712</ele>
        <time>2020-01-11T09:30:16.000Z</time>
      </trkpt>
      <trkpt lat="43.80967" lon="7.1577">
        <ele>713</ele>
        <time>2020-01-11T09:30:18.000Z</time>
      </trkpt>
      <trkpt lat="43.80963" lon="7.15769">
        <ele>713.59997558594</ele>
        <time>2020-01-11T09:30:20.000Z</time>
      </trkpt>
      <trkpt lat="43.80959" lon="7.15769">
        <ele>714</ele>
        <time>2020-01-11T09:30:22.000Z</time>
      </trkpt>
      <trkpt lat="43.80952" lon="7.15764">
        <ele>715</ele>
        <time>2020-01-11T09:30:26.000Z</time>
      </trkpt>
      <trkpt lat="43.8095" lon="7.15763">
        <ele>715.20001220703</ele>
        <time>2020-01-11T09:30:27.000Z</time>
      </trkpt>
      <trkpt lat="43.80945" lon="7.15756">
        <ele>716.40002441406</ele>
        <time>2020-01-11T09:30:31.000Z</time>
      </trkpt>
      <trkpt lat="43.80944" lon="7.15755">
        <ele>716.79998779297</ele>
        <time>2020-01-11T09:30:32.000Z</time>
      </trkpt>
      <trkpt lat="43.8094" lon="7.15751">
        <ele>717.40002441406</ele>
        <time>2020-01-11T09:30:35.000Z</time>
      </trkpt>
      <trkpt lat="43.80935" lon="7.15748">
        <ele>718.20001220703</ele>
        <time>2020-01-11T09:30:38.000Z</time>
      </trkpt>
      <trkpt lat="43.80932" lon="7.15746">
        <ele>718.59997558594</ele>
        <time>2020-01-11T09:30:40.000Z</time>
      </trkpt>
      <trkpt lat="43.80921" lon="7.15742">
        <ele>719.20001220703</ele>
        <time>2020-01-11T09:30:45.000Z</time>
      </trkpt>
      <trkpt lat="43.80914" lon="7.15732">
        <ele>719.20001220703</ele>
        <time>2020-01-11T09:30:50.000Z</time>
      </trkpt>
      <trkpt lat="43.80912" lon="7.15728">
        <ele>719.59997558594</ele>
        <time>2020-01-11T09:30:54.000Z</time>
      </trkpt>
      <trkpt lat="43.80911" lon="7.15726">
        <ele>720</ele>
        <time>2020-01-11T09:30:55.000Z</time>
      </trkpt>
      <trkpt lat="43.8091" lon="7.15723">
        <ele>720.79998779297</ele>
        <time>2020-01-11T09:30:58.000Z</time>
      </trkpt>
      <trkpt lat="43.80909" lon="7.15722">
        <ele>721</ele>
        <time>2020-01-11T09:30:59.000Z</time>
      </trkpt>
      <trkpt lat="43.80908" lon="7.15722">
        <ele>721</ele>
        <time>2020-01-11T09:31:00.000Z</time>
      </trkpt>
      <trkpt lat="43.80904" lon="7.15718">
        <ele>721.20001220703</ele>
        <time>2020-01-11T09:31:04.000Z</time>
      </trkpt>
      <trkpt lat="43.80903" lon="7.15715">
        <ele>721.59997558594</ele>
        <time>2020-01-11T09:31:06.000Z</time>
      </trkpt>
      <trkpt lat="43.80903" lon="7.15713">
        <ele>721.79998779297</ele>
        <time>2020-01-11T09:31:07.000Z</time>
      </trkpt>
      <trkpt lat="43.80902" lon="7.15712">
        <ele>722.20001220703</ele>
        <time>2020-01-11T09:31:08.000Z</time>
      </trkpt>
      <trkpt lat="43.80899" lon="7.15705">
        <ele>723</ele>
        <time>2020-01-11T09:31:12.000Z</time>
      </trkpt>
      <trkpt lat="43.80899" lon="7.15703">
        <ele>723.40002441406</ele>
        <time>2020-01-11T09:31:13.000Z</time>
      </trkpt>
      <trkpt lat="43.80899" lon="7.15702">
        <ele>723.59997558594</ele>
        <time>2020-01-11T09:31:14.000Z</time>
      </trkpt>
      <trkpt lat="43.80899" lon="7.15699">
        <ele>724.20001220703</ele>
        <time>2020-01-11T09:31:16.000Z</time>
      </trkpt>
      <trkpt lat="43.80899" lon="7.15698">
        <ele>724.40002441406</ele>
        <time>2020-01-11T09:31:17.000Z</time>
      </trkpt>
      <trkpt lat="43.80897" lon="7.15697">
        <ele>724.59997558594</ele>
        <time>2020-01-11T09:31:18.000Z</time>
      </trkpt>
      <trkpt lat="43.80893" lon="7.15696">
        <ele>725.20001220703</ele>
        <time>2020-01-11T09:31:22.000Z</time>
      </trkpt>
      <trkpt lat="43.80891" lon="7.15696">
        <ele>725.40002441406</ele>
        <time>2020-01-11T09:31:23.000Z</time>
      </trkpt>
      <trkpt lat="43.80883" lon="7.15692">
        <ele>726.40002441406</ele>
        <time>2020-01-11T09:31:27.000Z</time>
      </trkpt>
      <trkpt lat="43.80883" lon="7.1569">
        <ele>726.59997558594</ele>
        <time>2020-01-11T09:31:28.000Z</time>
      </trkpt>
      <trkpt lat="43.8088" lon="7.15686">
        <ele>727.40002441406</ele>
        <time>2020-01-11T09:31:31.000Z</time>
      </trkpt>
      <trkpt lat="43.80875" lon="7.15682">
        <ele>728.20001220703</ele>
        <time>2020-01-11T09:31:34.000Z</time>
      </trkpt>
      <trkpt lat="43.80874" lon="7.15681">
        <ele>728.79998779297</ele>
        <time>2020-01-11T09:31:35.000Z</time>
      </trkpt>
      <trkpt lat="43.80867" lon="7.15679">
        <ele>729.59997558594</ele>
        <time>2020-01-11T09:31:40.000Z</time>
      </trkpt>
      <trkpt lat="43.80868" lon="7.15679">
        <ele>729.79998779297</ele>
        <time>2020-01-11T09:31:41.000Z</time>
      </trkpt>
      <trkpt lat="43.80867" lon="7.15679">
        <ele>729.79998779297</ele>
        <time>2020-01-11T09:31:44.000Z</time>
      </trkpt>
      <trkpt lat="43.80867" lon="7.1568">
        <ele>730</ele>
        <time>2020-01-11T09:32:13.000Z</time>
      </trkpt>
      <trkpt lat="43.80866" lon="7.1568">
        <ele>729.79998779297</ele>
        <time>2020-01-11T09:32:30.000Z</time>
      </trkpt>
      <trkpt lat="43.80859" lon="7.15676">
        <ele>730</ele>
        <time>2020-01-11T09:32:35.000Z</time>
      </trkpt>
      <trkpt lat="43.80848" lon="7.15668">
        <ele>730</ele>
        <time>2020-01-11T09:32:40.000Z</time>
      </trkpt>
      <trkpt lat="43.80837" lon="7.15658">
        <ele>730.20001220703</ele>
        <time>2020-01-11T09:32:45.000Z</time>
      </trkpt>
      <trkpt lat="43.8083" lon="7.15641">
        <ele>730.40002441406</ele>
        <time>2020-01-11T09:32:51.000Z</time>
      </trkpt>
      <trkpt lat="43.80829" lon="7.15642">
        <ele>730.40002441406</ele>
        <time>2020-01-11T09:32:55.000Z</time>
      </trkpt>
      <trkpt lat="43.80829" lon="7.1564">
        <ele>730.20001220703</ele>
        <time>2020-01-11T09:33:13.000Z</time>
      </trkpt>
      <trkpt lat="43.80828" lon="7.1564">
        <ele>730.20001220703</ele>
        <time>2020-01-11T09:33:24.000Z</time>
      </trkpt>
      <trkpt lat="43.80825" lon="7.15635">
        <ele>730.40002441406</ele>
        <time>2020-01-11T09:33:31.000Z</time>
      </trkpt>
      <trkpt lat="43.80826" lon="7.15636">
        <ele>730.79998779297</ele>
        <time>2020-01-11T09:33:40.000Z</time>
      </trkpt>
      <trkpt lat="43.80827" lon="7.15636">
        <ele>730.79998779297</ele>
        <time>2020-01-11T09:33:41.000Z</time>
      </trkpt>
      <trkpt lat="43.8083" lon="7.15637">
        <ele>730.59997558594</ele>
        <time>2020-01-11T09:33:45.000Z</time>
      </trkpt>
      <trkpt lat="43.80831" lon="7.15639">
        <ele>730.20001220703</ele>
        <time>2020-01-11T09:33:47.000Z</time>
      </trkpt>
      <trkpt lat="43.80832" lon="7.15644">
        <ele>730.20001220703</ele>
        <time>2020-01-11T09:33:53.000Z</time>
      </trkpt>
      <trkpt lat="43.80832" lon="7.15645">
        <ele>730</ele>
        <time>2020-01-11T09:34:04.000Z</time>
      </trkpt>
      <trkpt lat="43.80831" lon="7.15644">
        <ele>730</ele>
        <time>2020-01-11T09:34:08.000Z</time>
      </trkpt>
      <trkpt lat="43.8083" lon="7.15643">
        <ele>730</ele>
        <time>2020-01-11T09:34:10.000Z</time>
      </trkpt>
      <trkpt lat="43.80829" lon="7.15642">
        <ele>730</ele>
        <time>2020-01-11T09:34:11.000Z</time>
      </trkpt>
      <trkpt lat="43.8083" lon="7.15641">
        <ele>730</ele>
        <time>2020-01-11T09:34:14.000Z</time>
      </trkpt>
      <trkpt lat="43.8083" lon="7.1564">
        <ele>730</ele>
        <time>2020-01-11T09:34:19.000Z</time>
      </trkpt>
      <trkpt lat="43.8083" lon="7.1564">
        <ele>730.59997558594</ele>
        <time>2020-01-11T09:34:26.000Z</time>
      </trkpt>
      <trkpt lat="43.80829" lon="7.1564">
        <ele>730.59997558594</ele>
        <time>2020-01-11T09:34:45.000Z</time>
      </trkpt>
      <trkpt lat="43.80829" lon="7.1564">
        <ele>730.59997558594</ele>
        <time>2020-01-11T09:34:56.000Z</time>
      </trkpt>
      <trkpt lat="43.80826" lon="7.15636">
        <ele>730.40002441406</ele>
        <time>2020-01-11T09:34:59.000Z</time>
      </trkpt>
      <trkpt lat="43.80824" lon="7.15632">
        <ele>730.59997558594</ele>
        <time>2020-01-11T09:35:02.000Z</time>
      </trkpt>
      <trkpt lat="43.80821" lon="7.15629">
        <ele>730.59997558594</ele>
        <time>2020-01-11T09:35:04.000Z</time>
      </trkpt>
      <trkpt lat="43.80819" lon="7.15628">
        <ele>730.79998779297</ele>
        <time>2020-01-11T09:35:05.000Z</time>
      </trkpt>
      <trkpt lat="43.80815" lon="7.15628">
        <ele>731.40002441406</ele>
        <time>2020-01-11T09:35:08.000Z</time>
      </trkpt>
      <trkpt lat="43.80813" lon="7.15628">
        <ele>731.79998779297</ele>
        <time>2020-01-11T09:35:09.000Z</time>
      </trkpt>
      <trkpt lat="43.8081" lon="7.15623">
        <ele>732.20001220703</ele>
        <time>2020-01-11T09:35:11.000Z</time>
      </trkpt>
      <trkpt lat="43.80811" lon="7.15618">
        <ele>733</ele>
        <time>2020-01-11T09:35:13.000Z</time>
      </trkpt>
      <trkpt lat="43.80809" lon="7.15609">
        <ele>733.59997558594</ele>
        <time>2020-01-11T09:35:16.000Z</time>
      </trkpt>
      <trkpt lat="43.80809" lon="7.15607">
        <ele>733.59997558594</ele>
        <time>2020-01-11T09:35:17.000Z</time>
      </trkpt>
      <trkpt lat="43.80805" lon="7.15596">
        <ele>734.20001220703</ele>
        <time>2020-01-11T09:35:22.000Z</time>
      </trkpt>
      <trkpt lat="43.80804" lon="7.15591">
        <ele>734.79998779297</ele>
        <time>2020-01-11T09:35:24.000Z</time>
      </trkpt>
      <trkpt lat="43.80804" lon="7.15587">
        <ele>735.20001220703</ele>
        <time>2020-01-11T09:35:26.000Z</time>
      </trkpt>
      <trkpt lat="43.80803" lon="7.15582">
        <ele>735.40002441406</ele>
        <time>2020-01-11T09:35:30.000Z</time>
      </trkpt>
      <trkpt lat="43.80802" lon="7.15573">
        <ele>736</ele>
        <time>2020-01-11T09:35:36.000Z</time>
      </trkpt>
      <trkpt lat="43.80802" lon="7.15565">
        <ele>736</ele>
        <time>2020-01-11T09:35:39.000Z</time>
      </trkpt>
      <trkpt lat="43.808" lon="7.1556">
        <ele>736</ele>
        <time>2020-01-11T09:35:41.000Z</time>
      </trkpt>
      <trkpt lat="43.80796" lon="7.15542">
        <ele>736</ele>
        <time>2020-01-11T09:35:47.000Z</time>
      </trkpt>
      <trkpt lat="43.80794" lon="7.15532">
        <ele>736.40002441406</ele>
        <time>2020-01-11T09:35:51.000Z</time>
      </trkpt>
      <trkpt lat="43.80793" lon="7.15529">
        <ele>736.59997558594</ele>
        <time>2020-01-11T09:35:52.000Z</time>
      </trkpt>
      <trkpt lat="43.80791" lon="7.15528">
        <ele>736.59997558594</ele>
        <time>2020-01-11T09:35:53.000Z</time>
      </trkpt>
      <trkpt lat="43.80786" lon="7.15515">
        <ele>737</ele>
        <time>2020-01-11T09:35:58.000Z</time>
      </trkpt>
      <trkpt lat="43.80786" lon="7.15513">
        <ele>737.59997558594</ele>
        <time>2020-01-11T09:35:59.000Z</time>
      </trkpt>
      <trkpt lat="43.80784" lon="7.15504">
        <ele>738.59997558594</ele>
        <time>2020-01-11T09:36:03.000Z</time>
      </trkpt>
      <trkpt lat="43.80783" lon="7.15502">
        <ele>738.79998779297</ele>
        <time>2020-01-11T09:36:04.000Z</time>
      </trkpt>
      <trkpt lat="43.80782" lon="7.15493">
        <ele>739.79998779297</ele>
        <time>2020-01-11T09:36:09.000Z</time>
      </trkpt>
      <trkpt lat="43.8078" lon="7.15478">
        <ele>740.20001220703</ele>
        <time>2020-01-11T09:36:15.000Z</time>
      </trkpt>
      <trkpt lat="43.8078" lon="7.15476">
        <ele>740.40002441406</ele>
        <time>2020-01-11T09:36:16.000Z</time>
      </trkpt>
      <trkpt lat="43.8078" lon="7.15472">
        <ele>740.79998779297</ele>
        <time>2020-01-11T09:36:18.000Z</time>
      </trkpt>
      <trkpt lat="43.80779" lon="7.1547">
        <ele>741</ele>
        <time>2020-01-11T09:36:19.000Z</time>
      </trkpt>
      <trkpt lat="43.80778" lon="7.15466">
        <ele>741.20001220703</ele>
        <time>2020-01-11T09:36:21.000Z</time>
      </trkpt>
      <trkpt lat="43.80775" lon="7.15457">
        <ele>742</ele>
        <time>2020-01-11T09:36:25.000Z</time>
      </trkpt>
      <trkpt lat="43.80774" lon="7.15456">
        <ele>742.20001220703</ele>
        <time>2020-01-11T09:36:26.000Z</time>
      </trkpt>
      <trkpt lat="43.80772" lon="7.1545">
        <ele>743</ele>
        <time>2020-01-11T09:36:29.000Z</time>
      </trkpt>
      <trkpt lat="43.80772" lon="7.15448">
        <ele>743.40002441406</ele>
        <time>2020-01-11T09:36:30.000Z</time>
      </trkpt>
      <trkpt lat="43.8077" lon="7.15447">
        <ele>744.20001220703</ele>
        <time>2020-01-11T09:36:33.000Z</time>
      </trkpt>
      <trkpt lat="43.8077" lon="7.15445">
        <ele>744.40002441406</ele>
        <time>2020-01-11T09:36:34.000Z</time>
      </trkpt>
      <trkpt lat="43.80767" lon="7.15437">
        <ele>745</ele>
        <time>2020-01-11T09:36:39.000Z</time>
      </trkpt>
      <trkpt lat="43.80767" lon="7.15434">
        <ele>745.20001220703</ele>
        <time>2020-01-11T09:36:40.000Z</time>
      </trkpt>
      <trkpt lat="43.80762" lon="7.1542">
        <ele>746.20001220703</ele>
        <time>2020-01-11T09:36:46.000Z</time>
      </trkpt>
      <trkpt lat="43.80761" lon="7.15417">
        <ele>746.40002441406</ele>
        <time>2020-01-11T09:36:47.000Z</time>
      </trkpt>
      <trkpt lat="43.80758" lon="7.15406">
        <ele>747.40002441406</ele>
        <time>2020-01-11T09:36:52.000Z</time>
      </trkpt>
      <trkpt lat="43.80757" lon="7.15404">
        <ele>747.40002441406</ele>
        <time>2020-01-11T09:36:53.000Z</time>
      </trkpt>
      <trkpt lat="43.80754" lon="7.15399">
        <ele>748.40002441406</ele>
        <time>2020-01-11T09:36:58.000Z</time>
      </trkpt>
      <trkpt lat="43.80753" lon="7.15398">
        <ele>748.59997558594</ele>
        <time>2020-01-11T09:37:01.000Z</time>
      </trkpt>
      <trkpt lat="43.80751" lon="7.15395">
        <ele>748.59997558594</ele>
        <time>2020-01-11T09:37:03.000Z</time>
      </trkpt>
      <trkpt lat="43.80743" lon="7.15384">
        <ele>749.20001220703</ele>
        <time>2020-01-11T09:37:09.000Z</time>
      </trkpt>
      <trkpt lat="43.80742" lon="7.15383">
        <ele>749.40002441406</ele>
        <time>2020-01-11T09:37:10.000Z</time>
      </trkpt>
      <trkpt lat="43.80736" lon="7.15372">
        <ele>750.40002441406</ele>
        <time>2020-01-11T09:37:16.000Z</time>
      </trkpt>
      <trkpt lat="43.80735" lon="7.15371">
        <ele>750.59997558594</ele>
        <time>2020-01-11T09:37:17.000Z</time>
      </trkpt>
      <trkpt lat="43.80729" lon="7.15363">
        <ele>751.40002441406</ele>
        <time>2020-01-11T09:37:22.000Z</time>
      </trkpt>
      <trkpt lat="43.80728" lon="7.15361">
        <ele>751.59997558594</ele>
        <time>2020-01-11T09:37:23.000Z</time>
      </trkpt>
      <trkpt lat="43.80724" lon="7.15356">
        <ele>752.20001220703</ele>
        <time>2020-01-11T09:37:27.000Z</time>
      </trkpt>
      <trkpt lat="43.80722" lon="7.15353">
        <ele>752.59997558594</ele>
        <time>2020-01-11T09:37:29.000Z</time>
      </trkpt>
      <trkpt lat="43.80718" lon="7.15347">
        <ele>753.20001220703</ele>
        <time>2020-01-11T09:37:32.000Z</time>
      </trkpt>
      <trkpt lat="43.80713" lon="7.1534">
        <ele>753.79998779297</ele>
        <time>2020-01-11T09:37:36.000Z</time>
      </trkpt>
      <trkpt lat="43.8071" lon="7.15334">
        <ele>754.20001220703</ele>
        <time>2020-01-11T09:37:39.000Z</time>
      </trkpt>
      <trkpt lat="43.80706" lon="7.15327">
        <ele>754.79998779297</ele>
        <time>2020-01-11T09:37:43.000Z</time>
      </trkpt>
      <trkpt lat="43.80703" lon="7.15322">
        <ele>755.40002441406</ele>
        <time>2020-01-11T09:37:46.000Z</time>
      </trkpt>
      <trkpt lat="43.80701" lon="7.15318">
        <ele>755.79998779297</ele>
        <time>2020-01-11T09:37:48.000Z</time>
      </trkpt>
      <trkpt lat="43.80697" lon="7.1531">
        <ele>756.79998779297</ele>
        <time>2020-01-11T09:37:52.000Z</time>
      </trkpt>
      <trkpt lat="43.80696" lon="7.15309">
        <ele>757</ele>
        <time>2020-01-11T09:37:53.000Z</time>
      </trkpt>
      <trkpt lat="43.80691" lon="7.15303">
        <ele>758</ele>
        <time>2020-01-11T09:37:58.000Z</time>
      </trkpt>
      <trkpt lat="43.8069" lon="7.15303">
        <ele>758</ele>
        <time>2020-01-11T09:37:59.000Z</time>
      </trkpt>
      <trkpt lat="43.80689" lon="7.15309">
        <ele>758.59997558594</ele>
        <time>2020-01-11T09:38:02.000Z</time>
      </trkpt>
      <trkpt lat="43.80688" lon="7.15313">
        <ele>759</ele>
        <time>2020-01-11T09:38:04.000Z</time>
      </trkpt>
      <trkpt lat="43.80687" lon="7.15321">
        <ele>760</ele>
        <time>2020-01-11T09:38:08.000Z</time>
      </trkpt>
      <trkpt lat="43.80686" lon="7.15323">
        <ele>760.40002441406</ele>
        <time>2020-01-11T09:38:09.000Z</time>
      </trkpt>
      <trkpt lat="43.80684" lon="7.15331">
        <ele>761.59997558594</ele>
        <time>2020-01-11T09:38:14.000Z</time>
      </trkpt>
      <trkpt lat="43.80684" lon="7.15333">
        <ele>762</ele>
        <time>2020-01-11T09:38:15.000Z</time>
      </trkpt>
      <trkpt lat="43.80683" lon="7.15335">
        <ele>762.20001220703</ele>
        <time>2020-01-11T09:38:16.000Z</time>
      </trkpt>
      <trkpt lat="43.8068" lon="7.15335">
        <ele>762.79998779297</ele>
        <time>2020-01-11T09:38:18.000Z</time>
      </trkpt>
      <trkpt lat="43.80677" lon="7.15328">
        <ele>764</ele>
        <time>2020-01-11T09:38:22.000Z</time>
      </trkpt>
      <trkpt lat="43.80677" lon="7.15327">
        <ele>764.40002441406</ele>
        <time>2020-01-11T09:38:23.000Z</time>
      </trkpt>
      <trkpt lat="43.80676" lon="7.15326">
        <ele>764.40002441406</ele>
        <time>2020-01-11T09:38:24.000Z</time>
      </trkpt>
      <trkpt lat="43.80673" lon="7.15321">
        <ele>765</ele>
        <time>2020-01-11T09:38:27.000Z</time>
      </trkpt>
      <trkpt lat="43.8067" lon="7.15314">
        <ele>765.79998779297</ele>
        <time>2020-01-11T09:38:31.000Z</time>
      </trkpt>
      <trkpt lat="43.80668" lon="7.15309">
        <ele>766</ele>
        <time>2020-01-11T09:38:34.000Z</time>
      </trkpt>
      <trkpt lat="43.80665" lon="7.15303">
        <ele>766.79998779297</ele>
        <time>2020-01-11T09:38:38.000Z</time>
      </trkpt>
      <trkpt lat="43.80663" lon="7.15299">
        <ele>767.20001220703</ele>
        <time>2020-01-11T09:38:40.000Z</time>
      </trkpt>
      <trkpt lat="43.80657" lon="7.15291">
        <ele>768</ele>
        <time>2020-01-11T09:38:45.000Z</time>
      </trkpt>
      <trkpt lat="43.80657" lon="7.1529">
        <ele>768.20001220703</ele>
        <time>2020-01-11T09:38:46.000Z</time>
      </trkpt>
      <trkpt lat="43.80653" lon="7.15284">
        <ele>769.20001220703</ele>
        <time>2020-01-11T09:38:51.000Z</time>
      </trkpt>
      <trkpt lat="43.80651" lon="7.15281">
        <ele>769.59997558594</ele>
        <time>2020-01-11T09:38:53.000Z</time>
      </trkpt>
      <trkpt lat="43.80647" lon="7.15276">
        <ele>770.40002441406</ele>
        <time>2020-01-11T09:38:58.000Z</time>
      </trkpt>
      <trkpt lat="43.80645" lon="7.15275">
        <ele>770.40002441406</ele>
        <time>2020-01-11T09:38:59.000Z</time>
      </trkpt>
      <trkpt lat="43.80639" lon="7.1527">
        <ele>771.40002441406</ele>
        <time>2020-01-11T09:39:04.000Z</time>
      </trkpt>
      <trkpt lat="43.80636" lon="7.15268">
        <ele>772</ele>
        <time>2020-01-11T09:39:07.000Z</time>
      </trkpt>
      <trkpt lat="43.80633" lon="7.15266">
        <ele>772.59997558594</ele>
        <time>2020-01-11T09:39:09.000Z</time>
      </trkpt>
      <trkpt lat="43.80629" lon="7.15264">
        <ele>773.59997558594</ele>
        <time>2020-01-11T09:39:14.000Z</time>
      </trkpt>
      <trkpt lat="43.80629" lon="7.15264">
        <ele>773.79998779297</ele>
        <time>2020-01-11T09:39:15.000Z</time>
      </trkpt>
      <trkpt lat="43.8063" lon="7.15264">
        <ele>773.79998779297</ele>
        <time>2020-01-11T09:39:22.000Z</time>
      </trkpt>
      <trkpt lat="43.80629" lon="7.15263">
        <ele>773.20001220703</ele>
        <time>2020-01-11T09:39:35.000Z</time>
      </trkpt>
      <trkpt lat="43.80629" lon="7.15261">
        <ele>773.40002441406</ele>
        <time>2020-01-11T09:39:47.000Z</time>
      </trkpt>
      <trkpt lat="43.80629" lon="7.15261">
        <ele>773.20001220703</ele>
        <time>2020-01-11T09:39:58.000Z</time>
      </trkpt>
      <trkpt lat="43.80629" lon="7.1526">
        <ele>773.79998779297</ele>
        <time>2020-01-11T09:40:03.000Z</time>
      </trkpt>
      <trkpt lat="43.80628" lon="7.15261">
        <ele>773.59997558594</ele>
        <time>2020-01-11T09:40:12.000Z</time>
      </trkpt>
      <trkpt lat="43.80627" lon="7.15261">
        <ele>773.59997558594</ele>
        <time>2020-01-11T09:40:15.000Z</time>
      </trkpt>
      <trkpt lat="43.80627" lon="7.1526">
        <ele>773.59997558594</ele>
        <time>2020-01-11T09:40:18.000Z</time>
      </trkpt>
      <trkpt lat="43.80627" lon="7.1526">
        <ele>774.40002441406</ele>
        <time>2020-01-11T09:40:27.000Z</time>
      </trkpt>
      <trkpt lat="43.80626" lon="7.15261">
        <ele>774.40002441406</ele>
        <time>2020-01-11T09:40:40.000Z</time>
      </trkpt>
      <trkpt lat="43.80626" lon="7.15261">
        <ele>774</ele>
        <time>2020-01-11T09:40:59.000Z</time>
      </trkpt>
      <trkpt lat="43.80626" lon="7.15261">
        <ele>774.59997558594</ele>
        <time>2020-01-11T09:41:06.000Z</time>
      </trkpt>
      <trkpt lat="43.80626" lon="7.15261">
        <ele>774.20001220703</ele>
        <time>2020-01-11T09:41:14.000Z</time>
      </trkpt>
      <trkpt lat="43.80625" lon="7.15259">
        <ele>774.40002441406</ele>
        <time>2020-01-11T09:41:29.000Z</time>
      </trkpt>
      <trkpt lat="43.80625" lon="7.15259">
        <ele>774</ele>
        <time>2020-01-11T09:41:40.000Z</time>
      </trkpt>
      <trkpt lat="43.80626" lon="7.15259">
        <ele>773.79998779297</ele>
        <time>2020-01-11T09:41:50.000Z</time>
      </trkpt>
      <trkpt lat="43.80627" lon="7.15259">
        <ele>773.79998779297</ele>
        <time>2020-01-11T09:42:06.000Z</time>
      </trkpt>
      <trkpt lat="43.80627" lon="7.15259">
        <ele>774.79998779297</ele>
        <time>2020-01-11T09:42:15.000Z</time>
      </trkpt>
      <trkpt lat="43.80627" lon="7.15259">
        <ele>774.59997558594</ele>
        <time>2020-01-11T09:42:23.000Z</time>
      </trkpt>
      <trkpt lat="43.80628" lon="7.1526">
        <ele>774.40002441406</ele>
        <time>2020-01-11T09:42:39.000Z</time>
      </trkpt>
      <trkpt lat="43.80628" lon="7.15259">
        <ele>774</ele>
        <time>2020-01-11T09:42:48.000Z</time>
      </trkpt>
      <trkpt lat="43.80628" lon="7.15257">
        <ele>773.79998779297</ele>
        <time>2020-01-11T09:43:00.000Z</time>
      </trkpt>
      <trkpt lat="43.80628" lon="7.15257">
        <ele>773.59997558594</ele>
        <time>2020-01-11T09:43:01.000Z</time>
      </trkpt>
      <trkpt lat="43.80629" lon="7.15256">
        <ele>773.79998779297</ele>
        <time>2020-01-11T09:43:17.000Z</time>
      </trkpt>
      <trkpt lat="43.80629" lon="7.15255">
        <ele>773.59997558594</ele>
        <time>2020-01-11T09:43:29.000Z</time>
      </trkpt>
      <trkpt lat="43.80629" lon="7.15255">
        <ele>773.59997558594</ele>
        <time>2020-01-11T09:43:43.000Z</time>
      </trkpt>
      <trkpt lat="43.8063" lon="7.15255">
        <ele>773.59997558594</ele>
        <time>2020-01-11T09:44:02.000Z</time>
      </trkpt>
      <trkpt lat="43.8063" lon="7.15254">
        <ele>773.79998779297</ele>
        <time>2020-01-11T09:44:12.000Z</time>
      </trkpt>
      <trkpt lat="43.80631" lon="7.15254">
        <ele>774.20001220703</ele>
        <time>2020-01-11T09:44:23.000Z</time>
      </trkpt>
      <trkpt lat="43.80631" lon="7.15254">
        <ele>774.20001220703</ele>
        <time>2020-01-11T09:44:26.000Z</time>
      </trkpt>
      <trkpt lat="43.80631" lon="7.15255">
        <ele>773.59997558594</ele>
        <time>2020-01-11T09:44:37.000Z</time>
      </trkpt>
      <trkpt lat="43.8063" lon="7.15256">
        <ele>773.79998779297</ele>
        <time>2020-01-11T09:44:45.000Z</time>
      </trkpt>
      <trkpt lat="43.8063" lon="7.15257">
        <ele>774</ele>
        <time>2020-01-11T09:44:53.000Z</time>
      </trkpt>
      <trkpt lat="43.80626" lon="7.15256">
        <ele>774.20001220703</ele>
        <time>2020-01-11T09:45:01.000Z</time>
      </trkpt>
      <trkpt lat="43.80623" lon="7.15253">
        <ele>774.79998779297</ele>
        <time>2020-01-11T09:45:04.000Z</time>
      </trkpt>
      <trkpt lat="43.80619" lon="7.1525">
        <ele>775.59997558594</ele>
        <time>2020-01-11T09:45:07.000Z</time>
      </trkpt>
      <trkpt lat="43.80618" lon="7.15248">
        <ele>776</ele>
        <time>2020-01-11T09:45:09.000Z</time>
      </trkpt>
      <trkpt lat="43.80612" lon="7.15243">
        <ele>777</ele>
        <time>2020-01-11T09:45:14.000Z</time>
      </trkpt>
      <trkpt lat="43.80612" lon="7.15242">
        <ele>777.20001220703</ele>
        <time>2020-01-11T09:45:15.000Z</time>
      </trkpt>
      <trkpt lat="43.80607" lon="7.15237">
        <ele>778.20001220703</ele>
        <time>2020-01-11T09:45:20.000Z</time>
      </trkpt>
      <trkpt lat="43.80606" lon="7.15236">
        <ele>778.40002441406</ele>
        <time>2020-01-11T09:45:21.000Z</time>
      </trkpt>
      <trkpt lat="43.80599" lon="7.15228">
        <ele>779.59997558594</ele>
        <time>2020-01-11T09:45:27.000Z</time>
      </trkpt>
      <trkpt lat="43.80594" lon="7.15222">
        <ele>780.59997558594</ele>
        <time>2020-01-11T09:45:32.000Z</time>
      </trkpt>
      <trkpt lat="43.80589" lon="7.15219">
        <ele>781.40002441406</ele>
        <time>2020-01-11T09:45:36.000Z</time>
      </trkpt>
      <trkpt lat="43.80587" lon="7.15216">
        <ele>781.79998779297</ele>
        <time>2020-01-11T09:45:38.000Z</time>
      </trkpt>
      <trkpt lat="43.80584" lon="7.15212">
        <ele>783</ele>
        <time>2020-01-11T09:45:41.000Z</time>
      </trkpt>
      <trkpt lat="43.80583" lon="7.15211">
        <ele>783.20001220703</ele>
        <time>2020-01-11T09:45:42.000Z</time>
      </trkpt>
      <trkpt lat="43.80577" lon="7.15204">
        <ele>784</ele>
        <time>2020-01-11T09:45:47.000Z</time>
      </trkpt>
      <trkpt lat="43.80574" lon="7.15202">
        <ele>784.20001220703</ele>
        <time>2020-01-11T09:45:49.000Z</time>
      </trkpt>
      <trkpt lat="43.8057" lon="7.152">
        <ele>785</ele>
        <time>2020-01-11T09:45:52.000Z</time>
      </trkpt>
      <trkpt lat="43.80568" lon="7.15201">
        <ele>785.40002441406</ele>
        <time>2020-01-11T09:45:54.000Z</time>
      </trkpt>
      <trkpt lat="43.80567" lon="7.15202">
        <ele>785.79998779297</ele>
        <time>2020-01-11T09:45:55.000Z</time>
      </trkpt>
      <trkpt lat="43.80567" lon="7.15202">
        <ele>786.20001220703</ele>
        <time>2020-01-11T09:45:57.000Z</time>
      </trkpt>
      <trkpt lat="43.80567" lon="7.15204">
        <ele>786.79998779297</ele>
        <time>2020-01-11T09:46:00.000Z</time>
      </trkpt>
      <trkpt lat="43.80568" lon="7.15206">
        <ele>787.20001220703</ele>
        <time>2020-01-11T09:46:06.000Z</time>
      </trkpt>
      <trkpt lat="43.80568" lon="7.15206">
        <ele>787.40002441406</ele>
        <time>2020-01-11T09:46:07.000Z</time>
      </trkpt>
      <trkpt lat="43.80568" lon="7.15207">
        <ele>787.40002441406</ele>
        <time>2020-01-11T09:46:09.000Z</time>
      </trkpt>
      <trkpt lat="43.80565" lon="7.1521">
        <ele>787.59997558594</ele>
        <time>2020-01-11T09:46:12.000Z</time>
      </trkpt>
      <trkpt lat="43.80558" lon="7.15206">
        <ele>788.59997558594</ele>
        <time>2020-01-11T09:46:17.000Z</time>
      </trkpt>
      <trkpt lat="43.80558" lon="7.15205">
        <ele>788.79998779297</ele>
        <time>2020-01-11T09:46:18.000Z</time>
      </trkpt>
      <trkpt lat="43.80557" lon="7.15205">
        <ele>789.59997558594</ele>
        <time>2020-01-11T09:46:21.000Z</time>
      </trkpt>
      <trkpt lat="43.80556" lon="7.15205">
        <ele>789.59997558594</ele>
        <time>2020-01-11T09:46:23.000Z</time>
      </trkpt>
      <trkpt lat="43.80556" lon="7.15204">
        <ele>789.59997558594</ele>
        <time>2020-01-11T09:46:24.000Z</time>
      </trkpt>
      <trkpt lat="43.8055" lon="7.15201">
        <ele>790.59997558594</ele>
        <time>2020-01-11T09:46:29.000Z</time>
      </trkpt>
      <trkpt lat="43.80542" lon="7.15198">
        <ele>791.79998779297</ele>
        <time>2020-01-11T09:46:35.000Z</time>
      </trkpt>
      <trkpt lat="43.80541" lon="7.15197">
        <ele>792</ele>
        <time>2020-01-11T09:46:36.000Z</time>
      </trkpt>
      <trkpt lat="43.80541" lon="7.15197">
        <ele>792.79998779297</ele>
        <time>2020-01-11T09:46:39.000Z</time>
      </trkpt>
      <trkpt lat="43.80539" lon="7.15196">
        <ele>793.59997558594</ele>
        <time>2020-01-11T09:46:44.000Z</time>
      </trkpt>
      <trkpt lat="43.80539" lon="7.15196">
        <ele>793.59997558594</ele>
        <time>2020-01-11T09:46:52.000Z</time>
      </trkpt>
      <trkpt lat="43.80538" lon="7.15195">
        <ele>794</ele>
        <time>2020-01-11T09:46:55.000Z</time>
      </trkpt>
      <trkpt lat="43.80535" lon="7.15193">
        <ele>794.20001220703</ele>
        <time>2020-01-11T09:46:59.000Z</time>
      </trkpt>
      <trkpt lat="43.8053" lon="7.1519">
        <ele>795</ele>
        <time>2020-01-11T09:47:03.000Z</time>
      </trkpt>
      <trkpt lat="43.80528" lon="7.15188">
        <ele>795.59997558594</ele>
        <time>2020-01-11T09:47:05.000Z</time>
      </trkpt>
      <trkpt lat="43.80526" lon="7.15188">
        <ele>796.20001220703</ele>
        <time>2020-01-11T09:47:07.000Z</time>
      </trkpt>
      <trkpt lat="43.80523" lon="7.15186">
        <ele>796.59997558594</ele>
        <time>2020-01-11T09:47:09.000Z</time>
      </trkpt>
      <trkpt lat="43.80523" lon="7.15184">
        <ele>796.79998779297</ele>
        <time>2020-01-11T09:47:10.000Z</time>
      </trkpt>
      <trkpt lat="43.80521" lon="7.15184">
        <ele>796.79998779297</ele>
        <time>2020-01-11T09:47:11.000Z</time>
      </trkpt>
      <trkpt lat="43.80519" lon="7.15181">
        <ele>797.20001220703</ele>
        <time>2020-01-11T09:47:13.000Z</time>
      </trkpt>
      <trkpt lat="43.80517" lon="7.15179">
        <ele>797.59997558594</ele>
        <time>2020-01-11T09:47:15.000Z</time>
      </trkpt>
      <trkpt lat="43.8051" lon="7.15174">
        <ele>798.40002441406</ele>
        <time>2020-01-11T09:47:20.000Z</time>
      </trkpt>
      <trkpt lat="43.80509" lon="7.15172">
        <ele>798.40002441406</ele>
        <time>2020-01-11T09:47:21.000Z</time>
      </trkpt>
      <trkpt lat="43.80507" lon="7.1517">
        <ele>798.59997558594</ele>
        <time>2020-01-11T09:47:23.000Z</time>
      </trkpt>
      <trkpt lat="43.80497" lon="7.1516">
        <ele>799.40002441406</ele>
        <time>2020-01-11T09:47:31.000Z</time>
      </trkpt>
      <trkpt lat="43.80491" lon="7.15153">
        <ele>800.20001220703</ele>
        <time>2020-01-11T09:47:37.000Z</time>
      </trkpt>
      <trkpt lat="43.8049" lon="7.15152">
        <ele>800.40002441406</ele>
        <time>2020-01-11T09:47:38.000Z</time>
      </trkpt>
      <trkpt lat="43.8049" lon="7.15151">
        <ele>800.40002441406</ele>
        <time>2020-01-11T09:47:39.000Z</time>
      </trkpt>
      <trkpt lat="43.80484" lon="7.15144">
        <ele>801.40002441406</ele>
        <time>2020-01-11T09:47:45.000Z</time>
      </trkpt>
      <trkpt lat="43.80482" lon="7.15143">
        <ele>801.59997558594</ele>
        <time>2020-01-11T09:47:46.000Z</time>
      </trkpt>
      <trkpt lat="43.80477" lon="7.15136">
        <ele>802.40002441406</ele>
        <time>2020-01-11T09:47:51.000Z</time>
      </trkpt>
      <trkpt lat="43.80475" lon="7.15133">
        <ele>802.59997558594</ele>
        <time>2020-01-11T09:47:53.000Z</time>
      </trkpt>
      <trkpt lat="43.80469" lon="7.15127">
        <ele>803</ele>
        <time>2020-01-11T09:47:58.000Z</time>
      </trkpt>
      <trkpt lat="43.80466" lon="7.15123">
        <ele>803.79998779297</ele>
        <time>2020-01-11T09:48:01.000Z</time>
      </trkpt>
      <trkpt lat="43.80465" lon="7.15121">
        <ele>804</ele>
        <time>2020-01-11T09:48:02.000Z</time>
      </trkpt>
      <trkpt lat="43.80462" lon="7.15115">
        <ele>804.79998779297</ele>
        <time>2020-01-11T09:48:06.000Z</time>
      </trkpt>
      <trkpt lat="43.8046" lon="7.15107">
        <ele>805.59997558594</ele>
        <time>2020-01-11T09:48:10.000Z</time>
      </trkpt>
      <trkpt lat="43.80459" lon="7.15106">
        <ele>806</ele>
        <time>2020-01-11T09:48:12.000Z</time>
      </trkpt>
      <trkpt lat="43.80455" lon="7.15104">
        <ele>806.79998779297</ele>
        <time>2020-01-11T09:48:15.000Z</time>
      </trkpt>
      <trkpt lat="43.80454" lon="7.15104">
        <ele>807</ele>
        <time>2020-01-11T09:48:16.000Z</time>
      </trkpt>
      <trkpt lat="43.80452" lon="7.15103">
        <ele>807.40002441406</ele>
        <time>2020-01-11T09:48:18.000Z</time>
      </trkpt>
      <trkpt lat="43.80449" lon="7.15102">
        <ele>808</ele>
        <time>2020-01-11T09:48:20.000Z</time>
      </trkpt>
      <trkpt lat="43.80447" lon="7.15099">
        <ele>808.59997558594</ele>
        <time>2020-01-11T09:48:22.000Z</time>
      </trkpt>
      <trkpt lat="43.80447" lon="7.151">
        <ele>809</ele>
        <time>2020-01-11T09:48:23.000Z</time>
      </trkpt>
      <trkpt lat="43.80446" lon="7.15099">
        <ele>809.79998779297</ele>
        <time>2020-01-11T09:48:25.000Z</time>
      </trkpt>
      <trkpt lat="43.80446" lon="7.15099">
        <ele>810.20001220703</ele>
        <time>2020-01-11T09:48:26.000Z</time>
      </trkpt>
      <trkpt lat="43.80444" lon="7.15098">
        <ele>810.59997558594</ele>
        <time>2020-01-11T09:48:32.000Z</time>
      </trkpt>
      <trkpt lat="43.80441" lon="7.15098">
        <ele>810.79998779297</ele>
        <time>2020-01-11T09:48:34.000Z</time>
      </trkpt>
      <trkpt lat="43.80438" lon="7.15095">
        <ele>811</ele>
        <time>2020-01-11T09:48:37.000Z</time>
      </trkpt>
      <trkpt lat="43.80434" lon="7.15092">
        <ele>811.40002441406</ele>
        <time>2020-01-11T09:48:40.000Z</time>
      </trkpt>
      <trkpt lat="43.80429" lon="7.15092">
        <ele>812</ele>
        <time>2020-01-11T09:48:43.000Z</time>
      </trkpt>
      <trkpt lat="43.80428" lon="7.15095">
        <ele>812.59997558594</ele>
        <time>2020-01-11T09:48:45.000Z</time>
      </trkpt>
      <trkpt lat="43.80427" lon="7.15101">
        <ele>813.40002441406</ele>
        <time>2020-01-11T09:48:48.000Z</time>
      </trkpt>
      <trkpt lat="43.80425" lon="7.15105">
        <ele>813.79998779297</ele>
        <time>2020-01-11T09:48:50.000Z</time>
      </trkpt>
      <trkpt lat="43.80421" lon="7.15107">
        <ele>814.59997558594</ele>
        <time>2020-01-11T09:48:53.000Z</time>
      </trkpt>
      <trkpt lat="43.8042" lon="7.15105">
        <ele>815</ele>
        <time>2020-01-11T09:48:54.000Z</time>
      </trkpt>
      <trkpt lat="43.80418" lon="7.15101">
        <ele>815.79998779297</ele>
        <time>2020-01-11T09:48:56.000Z</time>
      </trkpt>
      <trkpt lat="43.80418" lon="7.151">
        <ele>816.20001220703</ele>
        <time>2020-01-11T09:48:57.000Z</time>
      </trkpt>
      <trkpt lat="43.80416" lon="7.15096">
        <ele>816.59997558594</ele>
        <time>2020-01-11T09:48:59.000Z</time>
      </trkpt>
      <trkpt lat="43.80414" lon="7.15091">
        <ele>817.20001220703</ele>
        <time>2020-01-11T09:49:02.000Z</time>
      </trkpt>
      <trkpt lat="43.8041" lon="7.15082">
        <ele>818.40002441406</ele>
        <time>2020-01-11T09:49:07.000Z</time>
      </trkpt>
      <trkpt lat="43.80404" lon="7.15072">
        <ele>819.59997558594</ele>
        <time>2020-01-11T09:49:14.000Z</time>
      </trkpt>
      <trkpt lat="43.80403" lon="7.1507">
        <ele>819.59997558594</ele>
        <time>2020-01-11T09:49:15.000Z</time>
      </trkpt>
      <trkpt lat="43.804" lon="7.1506">
        <ele>820.59997558594</ele>
        <time>2020-01-11T09:49:21.000Z</time>
      </trkpt>
      <trkpt lat="43.80393" lon="7.15048">
        <ele>821.59997558594</ele>
        <time>2020-01-11T09:49:28.000Z</time>
      </trkpt>
      <trkpt lat="43.80392" lon="7.15046">
        <ele>821.79998779297</ele>
        <time>2020-01-11T09:49:29.000Z</time>
      </trkpt>
      <trkpt lat="43.80388" lon="7.15032">
        <ele>822.59997558594</ele>
        <time>2020-01-11T09:49:36.000Z</time>
      </trkpt>
      <trkpt lat="43.80387" lon="7.1503">
        <ele>822.79998779297</ele>
        <time>2020-01-11T09:49:37.000Z</time>
      </trkpt>
      <trkpt lat="43.80385" lon="7.15018">
        <ele>823.79998779297</ele>
        <time>2020-01-11T09:49:43.000Z</time>
      </trkpt>
      <trkpt lat="43.80384" lon="7.15008">
        <ele>825</ele>
        <time>2020-01-11T09:49:48.000Z</time>
      </trkpt>
      <trkpt lat="43.80385" lon="7.15002">
        <ele>825.59997558594</ele>
        <time>2020-01-11T09:49:51.000Z</time>
      </trkpt>
      <trkpt lat="43.80386" lon="7.14999">
        <ele>826</ele>
        <time>2020-01-11T09:49:53.000Z</time>
      </trkpt>
      <trkpt lat="43.80387" lon="7.14998">
        <ele>826.20001220703</ele>
        <time>2020-01-11T09:49:54.000Z</time>
      </trkpt>
      <trkpt lat="43.8039" lon="7.14996">
        <ele>826.59997558594</ele>
        <time>2020-01-11T09:49:57.000Z</time>
      </trkpt>
      <trkpt lat="43.8039" lon="7.14993">
        <ele>827</ele>
        <time>2020-01-11T09:49:59.000Z</time>
      </trkpt>
      <trkpt lat="43.80389" lon="7.14991">
        <ele>827.20001220703</ele>
        <time>2020-01-11T09:50:00.000Z</time>
      </trkpt>
      <trkpt lat="43.80388" lon="7.1499">
        <ele>827.79998779297</ele>
        <time>2020-01-11T09:50:02.000Z</time>
      </trkpt>
      <trkpt lat="43.80385" lon="7.14989">
        <ele>828.59997558594</ele>
        <time>2020-01-11T09:50:04.000Z</time>
      </trkpt>
      <trkpt lat="43.8038" lon="7.14985">
        <ele>829.40002441406</ele>
        <time>2020-01-11T09:50:07.000Z</time>
      </trkpt>
      <trkpt lat="43.80379" lon="7.14984">
        <ele>829.59997558594</ele>
        <time>2020-01-11T09:50:08.000Z</time>
      </trkpt>
      <trkpt lat="43.80378" lon="7.14982">
        <ele>830</ele>
        <time>2020-01-11T09:50:09.000Z</time>
      </trkpt>
      <trkpt lat="43.80379" lon="7.14978">
        <ele>830.79998779297</ele>
        <time>2020-01-11T09:50:11.000Z</time>
      </trkpt>
      <trkpt lat="43.80383" lon="7.14974">
        <ele>832</ele>
        <time>2020-01-11T09:50:15.000Z</time>
      </trkpt>
      <trkpt lat="43.80385" lon="7.14971">
        <ele>833.20001220703</ele>
        <time>2020-01-11T09:50:18.000Z</time>
      </trkpt>
      <trkpt lat="43.80386" lon="7.1497">
        <ele>833.40002441406</ele>
        <time>2020-01-11T09:50:19.000Z</time>
      </trkpt>
      <trkpt lat="43.80386" lon="7.14966">
        <ele>833.79998779297</ele>
        <time>2020-01-11T09:50:21.000Z</time>
      </trkpt>
      <trkpt lat="43.80386" lon="7.14961">
        <ele>834.40002441406</ele>
        <time>2020-01-11T09:50:24.000Z</time>
      </trkpt>
      <trkpt lat="43.80383" lon="7.14957">
        <ele>834.79998779297</ele>
        <time>2020-01-11T09:50:27.000Z</time>
      </trkpt>
      <trkpt lat="43.80379" lon="7.14955">
        <ele>835.40002441406</ele>
        <time>2020-01-11T09:50:30.000Z</time>
      </trkpt>
      <trkpt lat="43.80377" lon="7.14954">
        <ele>835.59997558594</ele>
        <time>2020-01-11T09:50:31.000Z</time>
      </trkpt>
      <trkpt lat="43.80375" lon="7.14952">
        <ele>836.20001220703</ele>
        <time>2020-01-11T09:50:33.000Z</time>
      </trkpt>
      <trkpt lat="43.80373" lon="7.14951">
        <ele>836.40002441406</ele>
        <time>2020-01-11T09:50:34.000Z</time>
      </trkpt>
      <trkpt lat="43.80365" lon="7.14946">
        <ele>837.20001220703</ele>
        <time>2020-01-11T09:50:39.000Z</time>
      </trkpt>
      <trkpt lat="43.80364" lon="7.14945">
        <ele>837.59997558594</ele>
        <time>2020-01-11T09:50:40.000Z</time>
      </trkpt>
      <trkpt lat="43.80354" lon="7.14931">
        <ele>838.59997558594</ele>
        <time>2020-01-11T09:50:47.000Z</time>
      </trkpt>
      <trkpt lat="43.80351" lon="7.14928">
        <ele>838.59997558594</ele>
        <time>2020-01-11T09:50:49.000Z</time>
      </trkpt>
      <trkpt lat="43.80347" lon="7.14923">
        <ele>839.20001220703</ele>
        <time>2020-01-11T09:50:52.000Z</time>
      </trkpt>
      <trkpt lat="43.80345" lon="7.1492">
        <ele>839.40002441406</ele>
        <time>2020-01-11T09:50:54.000Z</time>
      </trkpt>
      <trkpt lat="43.80344" lon="7.14919">
        <ele>839.40002441406</ele>
        <time>2020-01-11T09:50:57.000Z</time>
      </trkpt>
      <trkpt lat="43.8034" lon="7.14914">
        <ele>839.79998779297</ele>
        <time>2020-01-11T09:51:01.000Z</time>
      </trkpt>
      <trkpt lat="43.80338" lon="7.14913">
        <ele>840.20001220703</ele>
        <time>2020-01-11T09:51:02.000Z</time>
      </trkpt>
      <trkpt lat="43.80332" lon="7.14906">
        <ele>841</ele>
        <time>2020-01-11T09:51:06.000Z</time>
      </trkpt>
      <trkpt lat="43.80328" lon="7.14899">
        <ele>841.40002441406</ele>
        <time>2020-01-11T09:51:09.000Z</time>
      </trkpt>
      <trkpt lat="43.80323" lon="7.1489">
        <ele>842</ele>
        <time>2020-01-11T09:51:14.000Z</time>
      </trkpt>
      <trkpt lat="43.8032" lon="7.14884">
        <ele>843</ele>
        <time>2020-01-11T09:51:17.000Z</time>
      </trkpt>
      <trkpt lat="43.80317" lon="7.14874">
        <ele>844</ele>
        <time>2020-01-11T09:51:21.000Z</time>
      </trkpt>
      <trkpt lat="43.80316" lon="7.14872">
        <ele>844.40002441406</ele>
        <time>2020-01-11T09:51:22.000Z</time>
      </trkpt>
      <trkpt lat="43.80313" lon="7.1486">
        <ele>845.40002441406</ele>
        <time>2020-01-11T09:51:27.000Z</time>
      </trkpt>
      <trkpt lat="43.80311" lon="7.14855">
        <ele>845.40002441406</ele>
        <time>2020-01-11T09:51:29.000Z</time>
      </trkpt>
      <trkpt lat="43.80305" lon="7.14839">
        <ele>846.20001220703</ele>
        <time>2020-01-11T09:51:36.000Z</time>
      </trkpt>
      <trkpt lat="43.80303" lon="7.14836">
        <ele>846.40002441406</ele>
        <time>2020-01-11T09:51:38.000Z</time>
      </trkpt>
      <trkpt lat="43.80299" lon="7.14828">
        <ele>847.40002441406</ele>
        <time>2020-01-11T09:51:42.000Z</time>
      </trkpt>
      <trkpt lat="43.80298" lon="7.14827">
        <ele>847.79998779297</ele>
        <time>2020-01-11T09:51:43.000Z</time>
      </trkpt>
      <trkpt lat="43.80296" lon="7.14823">
        <ele>848.59997558594</ele>
        <time>2020-01-11T09:51:45.000Z</time>
      </trkpt>
      <trkpt lat="43.80292" lon="7.14816">
        <ele>849.59997558594</ele>
        <time>2020-01-11T09:51:49.000Z</time>
      </trkpt>
      <trkpt lat="43.80291" lon="7.14815">
        <ele>849.79998779297</ele>
        <time>2020-01-11T09:51:50.000Z</time>
      </trkpt>
      <trkpt lat="43.80288" lon="7.14807">
        <ele>851.20001220703</ele>
        <time>2020-01-11T09:51:54.000Z</time>
      </trkpt>
      <trkpt lat="43.80287" lon="7.14806">
        <ele>851.40002441406</ele>
        <time>2020-01-11T09:51:55.000Z</time>
      </trkpt>
      <trkpt lat="43.80285" lon="7.14801">
        <ele>852.20001220703</ele>
        <time>2020-01-11T09:51:58.000Z</time>
      </trkpt>
      <trkpt lat="43.80283" lon="7.14797">
        <ele>852.79998779297</ele>
        <time>2020-01-11T09:52:00.000Z</time>
      </trkpt>
      <trkpt lat="43.80282" lon="7.14794">
        <ele>853.40002441406</ele>
        <time>2020-01-11T09:52:02.000Z</time>
      </trkpt>
      <trkpt lat="43.80279" lon="7.14787">
        <ele>854.59997558594</ele>
        <time>2020-01-11T09:52:06.000Z</time>
      </trkpt>
      <trkpt lat="43.80277" lon="7.14784">
        <ele>854.79998779297</ele>
        <time>2020-01-11T09:52:08.000Z</time>
      </trkpt>
      <trkpt lat="43.80275" lon="7.14774">
        <ele>855.59997558594</ele>
        <time>2020-01-11T09:52:12.000Z</time>
      </trkpt>
      <trkpt lat="43.80274" lon="7.14769">
        <ele>856.79998779297</ele>
        <time>2020-01-11T09:52:15.000Z</time>
      </trkpt>
      <trkpt lat="43.80272" lon="7.14765">
        <ele>858</ele>
        <time>2020-01-11T09:52:18.000Z</time>
      </trkpt>
      <trkpt lat="43.8027" lon="7.14758">
        <ele>858.79998779297</ele>
        <time>2020-01-11T09:52:21.000Z</time>
      </trkpt>
      <trkpt lat="43.80269" lon="7.14755">
        <ele>859.20001220703</ele>
        <time>2020-01-11T09:52:23.000Z</time>
      </trkpt>
      <trkpt lat="43.80268" lon="7.14745">
        <ele>859.79998779297</ele>
        <time>2020-01-11T09:52:28.000Z</time>
      </trkpt>
      <trkpt lat="43.80267" lon="7.14737">
        <ele>860.20001220703</ele>
        <time>2020-01-11T09:52:32.000Z</time>
      </trkpt>
      <trkpt lat="43.80266" lon="7.14732">
        <ele>860.40002441406</ele>
        <time>2020-01-11T09:52:34.000Z</time>
      </trkpt>
      <trkpt lat="43.80264" lon="7.1473">
        <ele>860.79998779297</ele>
        <time>2020-01-11T09:52:36.000Z</time>
      </trkpt>
      <trkpt lat="43.80261" lon="7.1473">
        <ele>861.20001220703</ele>
        <time>2020-01-11T09:52:39.000Z</time>
      </trkpt>
      <trkpt lat="43.80261" lon="7.1473">
        <ele>861.59997558594</ele>
        <time>2020-01-11T09:52:40.000Z</time>
      </trkpt>
      <trkpt lat="43.80261" lon="7.1473">
        <ele>862.20001220703</ele>
        <time>2020-01-11T09:52:43.000Z</time>
      </trkpt>
      <trkpt lat="43.8026" lon="7.1473">
        <ele>862.40002441406</ele>
        <time>2020-01-11T09:52:51.000Z</time>
      </trkpt>
      <trkpt lat="43.80259" lon="7.14735">
        <ele>862.40002441406</ele>
        <time>2020-01-11T09:52:59.000Z</time>
      </trkpt>
      <trkpt lat="43.80257" lon="7.14738">
        <ele>862.59997558594</ele>
        <time>2020-01-11T09:53:01.000Z</time>
      </trkpt>
      <trkpt lat="43.80256" lon="7.14743">
        <ele>863.20001220703</ele>
        <time>2020-01-11T09:53:04.000Z</time>
      </trkpt>
      <trkpt lat="43.80254" lon="7.14746">
        <ele>863.79998779297</ele>
        <time>2020-01-11T09:53:06.000Z</time>
      </trkpt>
      <trkpt lat="43.80252" lon="7.14751">
        <ele>864.59997558594</ele>
        <time>2020-01-11T09:53:09.000Z</time>
      </trkpt>
      <trkpt lat="43.80251" lon="7.14753">
        <ele>865</ele>
        <time>2020-01-11T09:53:10.000Z</time>
      </trkpt>
      <trkpt lat="43.80248" lon="7.1476">
        <ele>866.20001220703</ele>
        <time>2020-01-11T09:53:14.000Z</time>
      </trkpt>
      <trkpt lat="43.80248" lon="7.14762">
        <ele>866.59997558594</ele>
        <time>2020-01-11T09:53:15.000Z</time>
      </trkpt>
      <trkpt lat="43.80246" lon="7.14767">
        <ele>867.40002441406</ele>
        <time>2020-01-11T09:53:18.000Z</time>
      </trkpt>
      <trkpt lat="43.80242" lon="7.14775">
        <ele>868.20001220703</ele>
        <time>2020-01-11T09:53:22.000Z</time>
      </trkpt>
      <trkpt lat="43.80241" lon="7.14777">
        <ele>868.40002441406</ele>
        <time>2020-01-11T09:53:23.000Z</time>
      </trkpt>
      <trkpt lat="43.80239" lon="7.14785">
        <ele>869.79998779297</ele>
        <time>2020-01-11T09:53:27.000Z</time>
      </trkpt>
      <trkpt lat="43.80239" lon="7.14787">
        <ele>869.79998779297</ele>
        <time>2020-01-11T09:53:28.000Z</time>
      </trkpt>
      <trkpt lat="43.80237" lon="7.14792">
        <ele>870.79998779297</ele>
        <time>2020-01-11T09:53:31.000Z</time>
      </trkpt>
      <trkpt lat="43.80236" lon="7.14794">
        <ele>871.20001220703</ele>
        <time>2020-01-11T09:53:32.000Z</time>
      </trkpt>
      <trkpt lat="43.80234" lon="7.148">
        <ele>872.20001220703</ele>
        <time>2020-01-11T09:53:35.000Z</time>
      </trkpt>
      <trkpt lat="43.80233" lon="7.14803">
        <ele>873.20001220703</ele>
        <time>2020-01-11T09:53:37.000Z</time>
      </trkpt>
      <trkpt lat="43.80232" lon="7.14806">
        <ele>874</ele>
        <time>2020-01-11T09:53:39.000Z</time>
      </trkpt>
      <trkpt lat="43.80232" lon="7.1481">
        <ele>874.40002441406</ele>
        <time>2020-01-11T09:53:41.000Z</time>
      </trkpt>
      <trkpt lat="43.80231" lon="7.14818">
        <ele>874.79998779297</ele>
        <time>2020-01-11T09:53:45.000Z</time>
      </trkpt>
      <trkpt lat="43.80229" lon="7.14827">
        <ele>875.59997558594</ele>
        <time>2020-01-11T09:53:49.000Z</time>
      </trkpt>
      <trkpt lat="43.80228" lon="7.14833">
        <ele>876.40002441406</ele>
        <time>2020-01-11T09:53:52.000Z</time>
      </trkpt>
      <trkpt lat="43.80228" lon="7.14835">
        <ele>876.79998779297</ele>
        <time>2020-01-11T09:53:53.000Z</time>
      </trkpt>
      <trkpt lat="43.80226" lon="7.14846">
        <ele>877.79998779297</ele>
        <time>2020-01-11T09:53:58.000Z</time>
      </trkpt>
      <trkpt lat="43.80225" lon="7.14851">
        <ele>878.40002441406</ele>
        <time>2020-01-11T09:54:00.000Z</time>
      </trkpt>
      <trkpt lat="43.80224" lon="7.14855">
        <ele>879</ele>
        <time>2020-01-11T09:54:02.000Z</time>
      </trkpt>
      <trkpt lat="43.80221" lon="7.14865">
        <ele>880.20001220703</ele>
        <time>2020-01-11T09:54:06.000Z</time>
      </trkpt>
      <trkpt lat="43.80218" lon="7.14872">
        <ele>881.59997558594</ele>
        <time>2020-01-11T09:54:10.000Z</time>
      </trkpt>
      <trkpt lat="43.80217" lon="7.14877">
        <ele>882.40002441406</ele>
        <time>2020-01-11T09:54:13.000Z</time>
      </trkpt>
      <trkpt lat="43.80216" lon="7.14879">
        <ele>882.59997558594</ele>
        <time>2020-01-11T09:54:14.000Z</time>
      </trkpt>
      <trkpt lat="43.80213" lon="7.14888">
        <ele>883.79998779297</ele>
        <time>2020-01-11T09:54:19.000Z</time>
      </trkpt>
      <trkpt lat="43.80213" lon="7.14889">
        <ele>884</ele>
        <time>2020-01-11T09:54:20.000Z</time>
      </trkpt>
      <trkpt lat="43.80213" lon="7.14891">
        <ele>884.20001220703</ele>
        <time>2020-01-11T09:54:21.000Z</time>
      </trkpt>
      <trkpt lat="43.80211" lon="7.14896">
        <ele>884.79998779297</ele>
        <time>2020-01-11T09:54:24.000Z</time>
      </trkpt>
      <trkpt lat="43.80207" lon="7.14908">
        <ele>886.20001220703</ele>
        <time>2020-01-11T09:54:31.000Z</time>
      </trkpt>
      <trkpt lat="43.80205" lon="7.14916">
        <ele>887.40002441406</ele>
        <time>2020-01-11T09:54:35.000Z</time>
      </trkpt>
      <trkpt lat="43.80204" lon="7.14921">
        <ele>887.79998779297</ele>
        <time>2020-01-11T09:54:37.000Z</time>
      </trkpt>
      <trkpt lat="43.80202" lon="7.14926">
        <ele>888.59997558594</ele>
        <time>2020-01-11T09:54:40.000Z</time>
      </trkpt>
      <trkpt lat="43.80201" lon="7.14931">
        <ele>889.59997558594</ele>
        <time>2020-01-11T09:54:43.000Z</time>
      </trkpt>
      <trkpt lat="43.80201" lon="7.14933">
        <ele>889.79998779297</ele>
        <time>2020-01-11T09:54:44.000Z</time>
      </trkpt>
      <trkpt lat="43.80199" lon="7.14942">
        <ele>890.79998779297</ele>
        <time>2020-01-11T09:54:49.000Z</time>
      </trkpt>
      <trkpt lat="43.80198" lon="7.14943">
        <ele>891</ele>
        <time>2020-01-11T09:54:50.000Z</time>
      </trkpt>
      <trkpt lat="43.80195" lon="7.1494">
        <ele>891.79998779297</ele>
        <time>2020-01-11T09:54:53.000Z</time>
      </trkpt>
      <trkpt lat="43.80195" lon="7.14939">
        <ele>892.20001220703</ele>
        <time>2020-01-11T09:54:54.000Z</time>
      </trkpt>
      <trkpt lat="43.80191" lon="7.14929">
        <ele>893</ele>
        <time>2020-01-11T09:55:00.000Z</time>
      </trkpt>
      <trkpt lat="43.80187" lon="7.14919">
        <ele>894.20001220703</ele>
        <time>2020-01-11T09:55:06.000Z</time>
      </trkpt>
      <trkpt lat="43.80186" lon="7.14914">
        <ele>895.20001220703</ele>
        <time>2020-01-11T09:55:09.000Z</time>
      </trkpt>
      <trkpt lat="43.80183" lon="7.14907">
        <ele>896</ele>
        <time>2020-01-11T09:55:13.000Z</time>
      </trkpt>
      <trkpt lat="43.80182" lon="7.14903">
        <ele>896.40002441406</ele>
        <time>2020-01-11T09:55:15.000Z</time>
      </trkpt>
      <trkpt lat="43.8018" lon="7.14896">
        <ele>897</ele>
        <time>2020-01-11T09:55:19.000Z</time>
      </trkpt>
      <trkpt lat="43.80178" lon="7.14891">
        <ele>897.40002441406</ele>
        <time>2020-01-11T09:55:22.000Z</time>
      </trkpt>
      <trkpt lat="43.80177" lon="7.14886">
        <ele>897.79998779297</ele>
        <time>2020-01-11T09:55:25.000Z</time>
      </trkpt>
      <trkpt lat="43.80176" lon="7.14878">
        <ele>898.59997558594</ele>
        <time>2020-01-11T09:55:29.000Z</time>
      </trkpt>
      <trkpt lat="43.80175" lon="7.14872">
        <ele>898.79998779297</ele>
        <time>2020-01-11T09:55:32.000Z</time>
      </trkpt>
      <trkpt lat="43.80171" lon="7.14855">
        <ele>899.40002441406</ele>
        <time>2020-01-11T09:55:40.000Z</time>
      </trkpt>
      <trkpt lat="43.8017" lon="7.14849">
        <ele>899.59997558594</ele>
        <time>2020-01-11T09:55:42.000Z</time>
      </trkpt>
      <trkpt lat="43.80168" lon="7.14843">
        <ele>900.59997558594</ele>
        <time>2020-01-11T09:55:45.000Z</time>
      </trkpt>
      <trkpt lat="43.80167" lon="7.14838">
        <ele>901.79998779297</ele>
        <time>2020-01-11T09:55:47.000Z</time>
      </trkpt>
      <trkpt lat="43.80166" lon="7.14836">
        <ele>902.20001220703</ele>
        <time>2020-01-11T09:55:48.000Z</time>
      </trkpt>
      <trkpt lat="43.80165" lon="7.14831">
        <ele>902.79998779297</ele>
        <time>2020-01-11T09:55:50.000Z</time>
      </trkpt>
      <trkpt lat="43.80164" lon="7.14823">
        <ele>904</ele>
        <time>2020-01-11T09:55:53.000Z</time>
      </trkpt>
      <trkpt lat="43.80162" lon="7.14815">
        <ele>905.20001220703</ele>
        <time>2020-01-11T09:55:57.000Z</time>
      </trkpt>
      <trkpt lat="43.80162" lon="7.14813">
        <ele>905.40002441406</ele>
        <time>2020-01-11T09:55:58.000Z</time>
      </trkpt>
      <trkpt lat="43.80161" lon="7.14809">
        <ele>906</ele>
        <time>2020-01-11T09:56:00.000Z</time>
      </trkpt>
      <trkpt lat="43.8016" lon="7.14807">
        <ele>906.20001220703</ele>
        <time>2020-01-11T09:56:01.000Z</time>
      </trkpt>
      <trkpt lat="43.80158" lon="7.14801">
        <ele>907.20001220703</ele>
        <time>2020-01-11T09:56:04.000Z</time>
      </trkpt>
      <trkpt lat="43.80158" lon="7.14795">
        <ele>908.40002441406</ele>
        <time>2020-01-11T09:56:07.000Z</time>
      </trkpt>
      <trkpt lat="43.80157" lon="7.14789">
        <ele>909</ele>
        <time>2020-01-11T09:56:10.000Z</time>
      </trkpt>
      <trkpt lat="43.80156" lon="7.14785">
        <ele>909.40002441406</ele>
        <time>2020-01-11T09:56:12.000Z</time>
      </trkpt>
      <trkpt lat="43.80153" lon="7.14775">
        <ele>910.79998779297</ele>
        <time>2020-01-11T09:56:17.000Z</time>
      </trkpt>
      <trkpt lat="43.80152" lon="7.14768">
        <ele>911.79998779297</ele>
        <time>2020-01-11T09:56:21.000Z</time>
      </trkpt>
      <trkpt lat="43.80151" lon="7.14763">
        <ele>912.40002441406</ele>
        <time>2020-01-11T09:56:24.000Z</time>
      </trkpt>
      <trkpt lat="43.8015" lon="7.14757">
        <ele>913.20001220703</ele>
        <time>2020-01-11T09:56:27.000Z</time>
      </trkpt>
      <trkpt lat="43.80148" lon="7.14751">
        <ele>914</ele>
        <time>2020-01-11T09:56:30.000Z</time>
      </trkpt>
      <trkpt lat="43.80148" lon="7.14747">
        <ele>914.40002441406</ele>
        <time>2020-01-11T09:56:32.000Z</time>
      </trkpt>
      <trkpt lat="43.80147" lon="7.14742">
        <ele>915</ele>
        <time>2020-01-11T09:56:35.000Z</time>
      </trkpt>
      <trkpt lat="43.80147" lon="7.14738">
        <ele>915.40002441406</ele>
        <time>2020-01-11T09:56:37.000Z</time>
      </trkpt>
      <trkpt lat="43.80147" lon="7.14728">
        <ele>916</ele>
        <time>2020-01-11T09:56:42.000Z</time>
      </trkpt>
      <trkpt lat="43.80146" lon="7.14725">
        <ele>916.59997558594</ele>
        <time>2020-01-11T09:56:44.000Z</time>
      </trkpt>
      <trkpt lat="43.80145" lon="7.14722">
        <ele>917.20001220703</ele>
        <time>2020-01-11T09:56:46.000Z</time>
      </trkpt>
      <trkpt lat="43.80144" lon="7.1472">
        <ele>917.79998779297</ele>
        <time>2020-01-11T09:56:47.000Z</time>
      </trkpt>
      <trkpt lat="43.80142" lon="7.14714">
        <ele>918.20001220703</ele>
        <time>2020-01-11T09:56:50.000Z</time>
      </trkpt>
      <trkpt lat="43.80142" lon="7.14712">
        <ele>918.40002441406</ele>
        <time>2020-01-11T09:56:51.000Z</time>
      </trkpt>
      <trkpt lat="43.80141" lon="7.14711">
        <ele>918.79998779297</ele>
        <time>2020-01-11T09:56:52.000Z</time>
      </trkpt>
      <trkpt lat="43.80141" lon="7.14703">
        <ele>920.20001220703</ele>
        <time>2020-01-11T09:56:56.000Z</time>
      </trkpt>
      <trkpt lat="43.80139" lon="7.14691">
        <ele>920.79998779297</ele>
        <time>2020-01-11T09:57:02.000Z</time>
      </trkpt>
      <trkpt lat="43.80139" lon="7.14687">
        <ele>921.20001220703</ele>
        <time>2020-01-11T09:57:04.000Z</time>
      </trkpt>
      <trkpt lat="43.80138" lon="7.14676">
        <ele>922.20001220703</ele>
        <time>2020-01-11T09:57:10.000Z</time>
      </trkpt>
      <trkpt lat="43.80138" lon="7.14673">
        <ele>922.40002441406</ele>
        <time>2020-01-11T09:57:11.000Z</time>
      </trkpt>
      <trkpt lat="43.80135" lon="7.14659">
        <ele>923.40002441406</ele>
        <time>2020-01-11T09:57:18.000Z</time>
      </trkpt>
      <trkpt lat="43.80133" lon="7.14649">
        <ele>924.40002441406</ele>
        <time>2020-01-11T09:57:23.000Z</time>
      </trkpt>
      <trkpt lat="43.80132" lon="7.14647">
        <ele>924.59997558594</ele>
        <time>2020-01-11T09:57:24.000Z</time>
      </trkpt>
      <trkpt lat="43.8013" lon="7.14639">
        <ele>925.59997558594</ele>
        <time>2020-01-11T09:57:28.000Z</time>
      </trkpt>
      <trkpt lat="43.8013" lon="7.14629">
        <ele>926.59997558594</ele>
        <time>2020-01-11T09:57:33.000Z</time>
      </trkpt>
      <trkpt lat="43.8013" lon="7.14627">
        <ele>926.59997558594</ele>
        <time>2020-01-11T09:57:34.000Z</time>
      </trkpt>
      <trkpt lat="43.80128" lon="7.14618">
        <ele>927.79998779297</ele>
        <time>2020-01-11T09:57:39.000Z</time>
      </trkpt>
      <trkpt lat="43.80126" lon="7.1461">
        <ele>928.59997558594</ele>
        <time>2020-01-11T09:57:42.000Z</time>
      </trkpt>
      <trkpt lat="43.80124" lon="7.14606">
        <ele>929</ele>
        <time>2020-01-11T09:57:44.000Z</time>
      </trkpt>
      <trkpt lat="43.80121" lon="7.14597">
        <ele>930.40002441406</ele>
        <time>2020-01-11T09:57:48.000Z</time>
      </trkpt>
      <trkpt lat="43.8012" lon="7.14591">
        <ele>931.59997558594</ele>
        <time>2020-01-11T09:57:51.000Z</time>
      </trkpt>
      <trkpt lat="43.80118" lon="7.14585">
        <ele>932.20001220703</ele>
        <time>2020-01-11T09:57:54.000Z</time>
      </trkpt>
      <trkpt lat="43.80117" lon="7.14583">
        <ele>932.40002441406</ele>
        <time>2020-01-11T09:57:55.000Z</time>
      </trkpt>
      <trkpt lat="43.80117" lon="7.14582">
        <ele>932.59997558594</ele>
        <time>2020-01-11T09:57:56.000Z</time>
      </trkpt>
      <trkpt lat="43.80114" lon="7.14576">
        <ele>933.20001220703</ele>
        <time>2020-01-11T09:57:59.000Z</time>
      </trkpt>
      <trkpt lat="43.8011" lon="7.14571">
        <ele>933.79998779297</ele>
        <time>2020-01-11T09:58:02.000Z</time>
      </trkpt>
      <trkpt lat="43.80109" lon="7.14568">
        <ele>934.20001220703</ele>
        <time>2020-01-11T09:58:04.000Z</time>
      </trkpt>
      <trkpt lat="43.80108" lon="7.14566">
        <ele>934.40002441406</ele>
        <time>2020-01-11T09:58:05.000Z</time>
      </trkpt>
      <trkpt lat="43.80107" lon="7.14564">
        <ele>935</ele>
        <time>2020-01-11T09:58:07.000Z</time>
      </trkpt>
      <trkpt lat="43.80107" lon="7.14564">
        <ele>935.40002441406</ele>
        <time>2020-01-11T09:58:08.000Z</time>
      </trkpt>
      <trkpt lat="43.80107" lon="7.14563">
        <ele>936</ele>
        <time>2020-01-11T09:58:14.000Z</time>
      </trkpt>
      <trkpt lat="43.80107" lon="7.14564">
        <ele>936</ele>
        <time>2020-01-11T09:58:16.000Z</time>
      </trkpt>
      <trkpt lat="43.80106" lon="7.14563">
        <ele>936</ele>
        <time>2020-01-11T09:58:23.000Z</time>
      </trkpt>
      <trkpt lat="43.80106" lon="7.14561">
        <ele>936.20001220703</ele>
        <time>2020-01-11T09:58:32.000Z</time>
      </trkpt>
      <trkpt lat="43.80104" lon="7.14558">
        <ele>936.40002441406</ele>
        <time>2020-01-11T09:58:36.000Z</time>
      </trkpt>
      <trkpt lat="43.80103" lon="7.14557">
        <ele>936.40002441406</ele>
        <time>2020-01-11T09:58:37.000Z</time>
      </trkpt>
      <trkpt lat="43.80099" lon="7.14553">
        <ele>937.40002441406</ele>
        <time>2020-01-11T09:58:41.000Z</time>
      </trkpt>
      <trkpt lat="43.80098" lon="7.14552">
        <ele>937.59997558594</ele>
        <time>2020-01-11T09:58:42.000Z</time>
      </trkpt>
      <trkpt lat="43.80097" lon="7.14551">
        <ele>937.79998779297</ele>
        <time>2020-01-11T09:58:43.000Z</time>
      </trkpt>
      <trkpt lat="43.80095" lon="7.14549">
        <ele>938.40002441406</ele>
        <time>2020-01-11T09:58:45.000Z</time>
      </trkpt>
      <trkpt lat="43.80092" lon="7.14546">
        <ele>939.59997558594</ele>
        <time>2020-01-11T09:58:49.000Z</time>
      </trkpt>
      <trkpt lat="43.80092" lon="7.14546">
        <ele>939.79998779297</ele>
        <time>2020-01-11T09:58:50.000Z</time>
      </trkpt>
      <trkpt lat="43.80092" lon="7.14545">
        <ele>940</ele>
        <time>2020-01-11T09:59:00.000Z</time>
      </trkpt>
      <trkpt lat="43.80089" lon="7.1454">
        <ele>940.40002441406</ele>
        <time>2020-01-11T09:59:06.000Z</time>
      </trkpt>
      <trkpt lat="43.80088" lon="7.14538">
        <ele>940.40002441406</ele>
        <time>2020-01-11T09:59:07.000Z</time>
      </trkpt>
      <trkpt lat="43.80088" lon="7.14537">
        <ele>940.59997558594</ele>
        <time>2020-01-11T09:59:08.000Z</time>
      </trkpt>
      <trkpt lat="43.80086" lon="7.14532">
        <ele>941.59997558594</ele>
        <time>2020-01-11T09:59:11.000Z</time>
      </trkpt>
      <trkpt lat="43.80085" lon="7.14531">
        <ele>941.79998779297</ele>
        <time>2020-01-11T09:59:12.000Z</time>
      </trkpt>
      <trkpt lat="43.80083" lon="7.14528">
        <ele>942.20001220703</ele>
        <time>2020-01-11T09:59:14.000Z</time>
      </trkpt>
      <trkpt lat="43.80081" lon="7.14525">
        <ele>942.79998779297</ele>
        <time>2020-01-11T09:59:17.000Z</time>
      </trkpt>
      <trkpt lat="43.8008" lon="7.14524">
        <ele>944</ele>
        <time>2020-01-11T09:59:21.000Z</time>
      </trkpt>
      <trkpt lat="43.8008" lon="7.14524">
        <ele>944.20001220703</ele>
        <time>2020-01-11T09:59:23.000Z</time>
      </trkpt>
      <trkpt lat="43.80081" lon="7.14524">
        <ele>944</ele>
        <time>2020-01-11T09:59:33.000Z</time>
      </trkpt>
      <trkpt lat="43.80079" lon="7.14522">
        <ele>943.79998779297</ele>
        <time>2020-01-11T09:59:43.000Z</time>
      </trkpt>
      <trkpt lat="43.80071" lon="7.14509">
        <ele>944.59997558594</ele>
        <time>2020-01-11T09:59:50.000Z</time>
      </trkpt>
      <trkpt lat="43.8007" lon="7.14503">
        <ele>944.79998779297</ele>
        <time>2020-01-11T09:59:53.000Z</time>
      </trkpt>
      <trkpt lat="43.8007" lon="7.14501">
        <ele>945</ele>
        <time>2020-01-11T09:59:54.000Z</time>
      </trkpt>
      <trkpt lat="43.80069" lon="7.14498">
        <ele>945.20001220703</ele>
        <time>2020-01-11T09:59:56.000Z</time>
      </trkpt>
      <trkpt lat="43.80067" lon="7.14495">
        <ele>945.40002441406</ele>
        <time>2020-01-11T09:59:58.000Z</time>
      </trkpt>
      <trkpt lat="43.80064" lon="7.1449">
        <ele>945.79998779297</ele>
        <time>2020-01-11T10:00:01.000Z</time>
      </trkpt>
      <trkpt lat="43.80062" lon="7.14488">
        <ele>946.20001220703</ele>
        <time>2020-01-11T10:00:03.000Z</time>
      </trkpt>
      <trkpt lat="43.80062" lon="7.14488">
        <ele>946.40002441406</ele>
        <time>2020-01-11T10:00:06.000Z</time>
      </trkpt>
      <trkpt lat="43.80063" lon="7.14488">
        <ele>946.40002441406</ele>
        <time>2020-01-11T10:00:14.000Z</time>
      </trkpt>
      <trkpt lat="43.80062" lon="7.14486">
        <ele>946.59997558594</ele>
        <time>2020-01-11T10:00:31.000Z</time>
      </trkpt>
      <trkpt lat="43.80055" lon="7.14472">
        <ele>946.79998779297</ele>
        <time>2020-01-11T10:00:39.000Z</time>
      </trkpt>
      <trkpt lat="43.80053" lon="7.14465">
        <ele>947.40002441406</ele>
        <time>2020-01-11T10:00:43.000Z</time>
      </trkpt>
      <trkpt lat="43.80053" lon="7.14462">
        <ele>947.59997558594</ele>
        <time>2020-01-11T10:00:45.000Z</time>
      </trkpt>
      <trkpt lat="43.80052" lon="7.1446">
        <ele>947.79998779297</ele>
        <time>2020-01-11T10:00:46.000Z</time>
      </trkpt>
      <trkpt lat="43.80049" lon="7.14456">
        <ele>948</ele>
        <time>2020-01-11T10:00:49.000Z</time>
      </trkpt>
      <trkpt lat="43.80045" lon="7.1445">
        <ele>948.40002441406</ele>
        <time>2020-01-11T10:00:53.000Z</time>
      </trkpt>
      <trkpt lat="43.80041" lon="7.14446">
        <ele>948.79998779297</ele>
        <time>2020-01-11T10:00:56.000Z</time>
      </trkpt>
      <trkpt lat="43.80034" lon="7.14435">
        <ele>949.40002441406</ele>
        <time>2020-01-11T10:01:03.000Z</time>
      </trkpt>
      <trkpt lat="43.80033" lon="7.14433">
        <ele>949.59997558594</ele>
        <time>2020-01-11T10:01:04.000Z</time>
      </trkpt>
      <trkpt lat="43.80028" lon="7.14426">
        <ele>950.20001220703</ele>
        <time>2020-01-11T10:01:10.000Z</time>
      </trkpt>
      <trkpt lat="43.80022" lon="7.14423">
        <ele>950.59997558594</ele>
        <time>2020-01-11T10:01:15.000Z</time>
      </trkpt>
      <trkpt lat="43.8002" lon="7.14423">
        <ele>950.59997558594</ele>
        <time>2020-01-11T10:01:17.000Z</time>
      </trkpt>
      <trkpt lat="43.80019" lon="7.14424">
        <ele>950.40002441406</ele>
        <time>2020-01-11T10:01:22.000Z</time>
      </trkpt>
      <trkpt lat="43.8002" lon="7.14423">
        <ele>950.79998779297</ele>
        <time>2020-01-11T10:01:30.000Z</time>
      </trkpt>
      <trkpt lat="43.8002" lon="7.14422">
        <ele>950.79998779297</ele>
        <time>2020-01-11T10:01:47.000Z</time>
      </trkpt>
      <trkpt lat="43.8002" lon="7.14422">
        <ele>950.79998779297</ele>
        <time>2020-01-11T10:01:55.000Z</time>
      </trkpt>
      <trkpt lat="43.8002" lon="7.14422">
        <ele>950.59997558594</ele>
        <time>2020-01-11T10:02:05.000Z</time>
      </trkpt>
      <trkpt lat="43.80021" lon="7.14422">
        <ele>951</ele>
        <time>2020-01-11T10:02:11.000Z</time>
      </trkpt>
      <trkpt lat="43.80021" lon="7.14422">
        <ele>950.20001220703</ele>
        <time>2020-01-11T10:02:17.000Z</time>
      </trkpt>
      <trkpt lat="43.80021" lon="7.14422">
        <ele>950.59997558594</ele>
        <time>2020-01-11T10:02:28.000Z</time>
      </trkpt>
      <trkpt lat="43.80021" lon="7.14422">
        <ele>950.40002441406</ele>
        <time>2020-01-11T10:02:36.000Z</time>
      </trkpt>
      <trkpt lat="43.80021" lon="7.14423">
        <ele>950.20001220703</ele>
        <time>2020-01-11T10:02:45.000Z</time>
      </trkpt>
      <trkpt lat="43.80021" lon="7.14422">
        <ele>950</ele>
        <time>2020-01-11T10:02:56.000Z</time>
      </trkpt>
      <trkpt lat="43.80021" lon="7.14422">
        <ele>949.79998779297</ele>
        <time>2020-01-11T10:03:03.000Z</time>
      </trkpt>
      <trkpt lat="43.80022" lon="7.14422">
        <ele>950.20001220703</ele>
        <time>2020-01-11T10:03:08.000Z</time>
      </trkpt>
      <trkpt lat="43.80023" lon="7.14421">
        <ele>950.59997558594</ele>
        <time>2020-01-11T10:03:19.000Z</time>
      </trkpt>
      <trkpt lat="43.80024" lon="7.14422">
        <ele>950.20001220703</ele>
        <time>2020-01-11T10:03:24.000Z</time>
      </trkpt>
      <trkpt lat="43.80023" lon="7.14421">
        <ele>950</ele>
        <time>2020-01-11T10:03:30.000Z</time>
      </trkpt>
      <trkpt lat="43.80022" lon="7.14422">
        <ele>950.40002441406</ele>
        <time>2020-01-11T10:03:35.000Z</time>
      </trkpt>
      <trkpt lat="43.80022" lon="7.14423">
        <ele>950.40002441406</ele>
        <time>2020-01-11T10:03:43.000Z</time>
      </trkpt>
      <trkpt lat="43.80021" lon="7.14424">
        <ele>950.20001220703</ele>
        <time>2020-01-11T10:03:49.000Z</time>
      </trkpt>
      <trkpt lat="43.80011" lon="7.14425">
        <ele>950</ele>
        <time>2020-01-11T10:03:54.000Z</time>
      </trkpt>
      <trkpt lat="43.80006" lon="7.14425">
        <ele>949.59997558594</ele>
        <time>2020-01-11T10:03:58.000Z</time>
      </trkpt>
      <trkpt lat="43.80008" lon="7.14426">
        <ele>949.40002441406</ele>
        <time>2020-01-11T10:04:00.000Z</time>
      </trkpt>
      <trkpt lat="43.80011" lon="7.14426">
        <ele>949.20001220703</ele>
        <time>2020-01-11T10:04:02.000Z</time>
      </trkpt>
      <trkpt lat="43.80016" lon="7.14425">
        <ele>949.59997558594</ele>
        <time>2020-01-11T10:04:07.000Z</time>
      </trkpt>
      <trkpt lat="43.80018" lon="7.14427">
        <ele>949.79998779297</ele>
        <time>2020-01-11T10:04:14.000Z</time>
      </trkpt>
      <trkpt lat="43.80021" lon="7.14424">
        <ele>950</ele>
        <time>2020-01-11T10:04:19.000Z</time>
      </trkpt>
      <trkpt lat="43.80021" lon="7.14423">
        <ele>950</ele>
        <time>2020-01-11T10:04:20.000Z</time>
      </trkpt>
      <trkpt lat="43.80022" lon="7.14423">
        <ele>950</ele>
        <time>2020-01-11T10:04:26.000Z</time>
      </trkpt>
      <trkpt lat="43.80022" lon="7.14423">
        <ele>950.20001220703</ele>
        <time>2020-01-11T10:04:38.000Z</time>
      </trkpt>
      <trkpt lat="43.80022" lon="7.14423">
        <ele>950</ele>
        <time>2020-01-11T10:04:44.000Z</time>
      </trkpt>
      <trkpt lat="43.80022" lon="7.14423">
        <ele>950</ele>
        <time>2020-01-11T10:04:56.000Z</time>
      </trkpt>
      <trkpt lat="43.80022" lon="7.14422">
        <ele>950.40002441406</ele>
        <time>2020-01-11T10:05:04.000Z</time>
      </trkpt>
      <trkpt lat="43.80022" lon="7.14422">
        <ele>950.59997558594</ele>
        <time>2020-01-11T10:05:06.000Z</time>
      </trkpt>
      <trkpt lat="43.80022" lon="7.14422">
        <ele>950</ele>
        <time>2020-01-11T10:05:14.000Z</time>
      </trkpt>
      <trkpt lat="43.80022" lon="7.14422">
        <ele>949.79998779297</ele>
        <time>2020-01-11T10:05:19.000Z</time>
      </trkpt>
      <trkpt lat="43.80022" lon="7.14422">
        <ele>950</ele>
        <time>2020-01-11T10:05:26.000Z</time>
      </trkpt>
      <trkpt lat="43.80022" lon="7.14422">
        <ele>949.59997558594</ele>
        <time>2020-01-11T10:05:37.000Z</time>
      </trkpt>
      <trkpt lat="43.80021" lon="7.14422">
        <ele>950.20001220703</ele>
        <time>2020-01-11T10:05:45.000Z</time>
      </trkpt>
      <trkpt lat="43.80021" lon="7.14422">
        <ele>950.20001220703</ele>
        <time>2020-01-11T10:05:53.000Z</time>
      </trkpt>
      <trkpt lat="43.80022" lon="7.14423">
        <ele>950</ele>
        <time>2020-01-11T10:06:03.000Z</time>
      </trkpt>
      <trkpt lat="43.80021" lon="7.14422">
        <ele>950</ele>
        <time>2020-01-11T10:06:16.000Z</time>
      </trkpt>
      <trkpt lat="43.80021" lon="7.14422">
        <ele>949.79998779297</ele>
        <time>2020-01-11T10:06:28.000Z</time>
      </trkpt>
      <trkpt lat="43.80021" lon="7.14423">
        <ele>949.59997558594</ele>
        <time>2020-01-11T10:06:38.000Z</time>
      </trkpt>
      <trkpt lat="43.80021" lon="7.14423">
        <ele>949.59997558594</ele>
        <time>2020-01-11T10:06:40.000Z</time>
      </trkpt>
      <trkpt lat="43.80021" lon="7.14423">
        <ele>949.59997558594</ele>
        <time>2020-01-11T10:06:46.000Z</time>
      </trkpt>
      <trkpt lat="43.80021" lon="7.14424">
        <ele>950.20001220703</ele>
        <time>2020-01-11T10:06:55.000Z</time>
      </trkpt>
      <trkpt lat="43.80021" lon="7.14425">
        <ele>950</ele>
        <time>2020-01-11T10:07:00.000Z</time>
      </trkpt>
      <trkpt lat="43.80021" lon="7.14424">
        <ele>950</ele>
        <time>2020-01-11T10:07:11.000Z</time>
      </trkpt>
      <trkpt lat="43.80021" lon="7.14424">
        <ele>949.79998779297</ele>
        <time>2020-01-11T10:07:21.000Z</time>
      </trkpt>
      <trkpt lat="43.80021" lon="7.14424">
        <ele>949.59997558594</ele>
        <time>2020-01-11T10:07:30.000Z</time>
      </trkpt>
      <trkpt lat="43.80022" lon="7.14424">
        <ele>949.59997558594</ele>
        <time>2020-01-11T10:07:39.000Z</time>
      </trkpt>
      <trkpt lat="43.80022" lon="7.14424">
        <ele>949.40002441406</ele>
        <time>2020-01-11T10:07:46.000Z</time>
      </trkpt>
      <trkpt lat="43.80022" lon="7.14424">
        <ele>949.79998779297</ele>
        <time>2020-01-11T10:07:50.000Z</time>
      </trkpt>
      <trkpt lat="43.80021" lon="7.14423">
        <ele>949.59997558594</ele>
        <time>2020-01-11T10:08:01.000Z</time>
      </trkpt>
      <trkpt lat="43.80021" lon="7.14424">
        <ele>949.40002441406</ele>
        <time>2020-01-11T10:08:05.000Z</time>
      </trkpt>
      <trkpt lat="43.80021" lon="7.14423">
        <ele>950</ele>
        <time>2020-01-11T10:08:18.000Z</time>
      </trkpt>
      <trkpt lat="43.8002" lon="7.14424">
        <ele>949.20001220703</ele>
        <time>2020-01-11T10:08:41.000Z</time>
      </trkpt>
      <trkpt lat="43.8002" lon="7.14424">
        <ele>949.79998779297</ele>
        <time>2020-01-11T10:08:51.000Z</time>
      </trkpt>
      <trkpt lat="43.8002" lon="7.14424">
        <ele>949.40002441406</ele>
        <time>2020-01-11T10:08:58.000Z</time>
      </trkpt>
      <trkpt lat="43.8002" lon="7.14424">
        <ele>949.79998779297</ele>
        <time>2020-01-11T10:09:05.000Z</time>
      </trkpt>
      <trkpt lat="43.80021" lon="7.14424">
        <ele>950</ele>
        <time>2020-01-11T10:09:14.000Z</time>
      </trkpt>
      <trkpt lat="43.8002" lon="7.14424">
        <ele>949.79998779297</ele>
        <time>2020-01-11T10:09:20.000Z</time>
      </trkpt>
      <trkpt lat="43.80021" lon="7.14424">
        <ele>949.59997558594</ele>
        <time>2020-01-11T10:09:27.000Z</time>
      </trkpt>
      <trkpt lat="43.8002" lon="7.14424">
        <ele>949.20001220703</ele>
        <time>2020-01-11T10:09:34.000Z</time>
      </trkpt>
      <trkpt lat="43.8002" lon="7.14424">
        <ele>949.40002441406</ele>
        <time>2020-01-11T10:09:42.000Z</time>
      </trkpt>
      <trkpt lat="43.8002" lon="7.14424">
        <ele>949</ele>
        <time>2020-01-11T10:09:52.000Z</time>
      </trkpt>
      <trkpt lat="43.80022" lon="7.14425">
        <ele>949</ele>
        <time>2020-01-11T10:10:13.000Z</time>
      </trkpt>
      <trkpt lat="43.8002" lon="7.14425">
        <ele>949.59997558594</ele>
        <time>2020-01-11T10:10:20.000Z</time>
      </trkpt>
      <trkpt lat="43.80019" lon="7.14425">
        <ele>949.20001220703</ele>
        <time>2020-01-11T10:10:24.000Z</time>
      </trkpt>
      <trkpt lat="43.80016" lon="7.14427">
        <ele>948.79998779297</ele>
        <time>2020-01-11T10:10:29.000Z</time>
      </trkpt>
      <trkpt lat="43.80014" lon="7.14427">
        <ele>949.20001220703</ele>
        <time>2020-01-11T10:10:35.000Z</time>
      </trkpt>
      <trkpt lat="43.80011" lon="7.14426">
        <ele>948.79998779297</ele>
        <time>2020-01-11T10:10:40.000Z</time>
      </trkpt>
      <trkpt lat="43.80009" lon="7.14426">
        <ele>949</ele>
        <time>2020-01-11T10:10:41.000Z</time>
      </trkpt>
      <trkpt lat="43.80005" lon="7.14426">
        <ele>949</ele>
        <time>2020-01-11T10:10:44.000Z</time>
      </trkpt>
      <trkpt lat="43.80004" lon="7.14426">
        <ele>948.79998779297</ele>
        <time>2020-01-11T10:10:45.000Z</time>
      </trkpt>
      <trkpt lat="43.8" lon="7.14426">
        <ele>948.79998779297</ele>
        <time>2020-01-11T10:10:48.000Z</time>
      </trkpt>
      <trkpt lat="43.79997" lon="7.14426">
        <ele>948.79998779297</ele>
        <time>2020-01-11T10:10:50.000Z</time>
      </trkpt>
      <trkpt lat="43.79993" lon="7.14428">
        <ele>948.79998779297</ele>
        <time>2020-01-11T10:10:53.000Z</time>
      </trkpt>
      <trkpt lat="43.79988" lon="7.14428">
        <ele>948.79998779297</ele>
        <time>2020-01-11T10:10:56.000Z</time>
      </trkpt>
      <trkpt lat="43.79982" lon="7.14428">
        <ele>949.20001220703</ele>
        <time>2020-01-11T10:10:59.000Z</time>
      </trkpt>
      <trkpt lat="43.79979" lon="7.14429">
        <ele>949.20001220703</ele>
        <time>2020-01-11T10:11:01.000Z</time>
      </trkpt>
      <trkpt lat="43.79973" lon="7.14429">
        <ele>949.20001220703</ele>
        <time>2020-01-11T10:11:05.000Z</time>
      </trkpt>
      <trkpt lat="43.7997" lon="7.1443">
        <ele>949.20001220703</ele>
        <time>2020-01-11T10:11:07.000Z</time>
      </trkpt>
      <trkpt lat="43.79962" lon="7.14433">
        <ele>949.40002441406</ele>
        <time>2020-01-11T10:11:12.000Z</time>
      </trkpt>
      <trkpt lat="43.7996" lon="7.14433">
        <ele>949.79998779297</ele>
        <time>2020-01-11T10:11:14.000Z</time>
      </trkpt>
      <trkpt lat="43.79955" lon="7.14432">
        <ele>950</ele>
        <time>2020-01-11T10:11:17.000Z</time>
      </trkpt>
      <trkpt lat="43.79942" lon="7.14428">
        <ele>949.79998779297</ele>
        <time>2020-01-11T10:11:24.000Z</time>
      </trkpt>
      <trkpt lat="43.7993" lon="7.14423">
        <ele>949.79998779297</ele>
        <time>2020-01-11T10:11:31.000Z</time>
      </trkpt>
      <trkpt lat="43.79921" lon="7.14415">
        <ele>950</ele>
        <time>2020-01-11T10:11:37.000Z</time>
      </trkpt>
      <trkpt lat="43.7991" lon="7.14408">
        <ele>950</ele>
        <time>2020-01-11T10:11:43.000Z</time>
      </trkpt>
      <trkpt lat="43.79897" lon="7.14395">
        <ele>949.79998779297</ele>
        <time>2020-01-11T10:11:50.000Z</time>
      </trkpt>
      <trkpt lat="43.79883" lon="7.14381">
        <ele>949.40002441406</ele>
        <time>2020-01-11T10:11:57.000Z</time>
      </trkpt>
      <trkpt lat="43.79873" lon="7.14364">
        <ele>950.59997558594</ele>
        <time>2020-01-11T10:12:03.000Z</time>
      </trkpt>
      <trkpt lat="43.7986" lon="7.14344">
        <ele>951.59997558594</ele>
        <time>2020-01-11T10:12:11.000Z</time>
      </trkpt>
      <trkpt lat="43.79858" lon="7.14339">
        <ele>951.59997558594</ele>
        <time>2020-01-11T10:12:13.000Z</time>
      </trkpt>
      <trkpt lat="43.7985" lon="7.14328">
        <ele>951.79998779297</ele>
        <time>2020-01-11T10:12:19.000Z</time>
      </trkpt>
      <trkpt lat="43.79843" lon="7.14324">
        <ele>952.79998779297</ele>
        <time>2020-01-11T10:12:25.000Z</time>
      </trkpt>
      <trkpt lat="43.7984" lon="7.14321">
        <ele>953.79998779297</ele>
        <time>2020-01-11T10:12:28.000Z</time>
      </trkpt>
      <trkpt lat="43.7984" lon="7.14319">
        <ele>954</ele>
        <time>2020-01-11T10:12:29.000Z</time>
      </trkpt>
      <trkpt lat="43.79839" lon="7.14319">
        <ele>954.79998779297</ele>
        <time>2020-01-11T10:12:32.000Z</time>
      </trkpt>
      <trkpt lat="43.79839" lon="7.14318">
        <ele>955</ele>
        <time>2020-01-11T10:12:34.000Z</time>
      </trkpt>
      <trkpt lat="43.79839" lon="7.14317">
        <ele>955</ele>
        <time>2020-01-11T10:12:36.000Z</time>
      </trkpt>
      <trkpt lat="43.79835" lon="7.14315">
        <ele>955.40002441406</ele>
        <time>2020-01-11T10:12:40.000Z</time>
      </trkpt>
      <trkpt lat="43.79833" lon="7.14314">
        <ele>955.79998779297</ele>
        <time>2020-01-11T10:12:43.000Z</time>
      </trkpt>
      <trkpt lat="43.79832" lon="7.14314">
        <ele>956.40002441406</ele>
        <time>2020-01-11T10:12:46.000Z</time>
      </trkpt>
      <trkpt lat="43.79825" lon="7.14313">
        <ele>956.59997558594</ele>
        <time>2020-01-11T10:12:51.000Z</time>
      </trkpt>
      <trkpt lat="43.79822" lon="7.14311">
        <ele>956.79998779297</ele>
        <time>2020-01-11T10:12:53.000Z</time>
      </trkpt>
      <trkpt lat="43.79821" lon="7.1431">
        <ele>957</ele>
        <time>2020-01-11T10:12:54.000Z</time>
      </trkpt>
      <trkpt lat="43.79818" lon="7.14305">
        <ele>957</ele>
        <time>2020-01-11T10:12:57.000Z</time>
      </trkpt>
      <trkpt lat="43.79817" lon="7.14303">
        <ele>957</ele>
        <time>2020-01-11T10:12:59.000Z</time>
      </trkpt>
      <trkpt lat="43.79817" lon="7.14303">
        <ele>957.40002441406</ele>
        <time>2020-01-11T10:13:01.000Z</time>
      </trkpt>
      <trkpt lat="43.79816" lon="7.14303">
        <ele>958.20001220703</ele>
        <time>2020-01-11T10:13:04.000Z</time>
      </trkpt>
      <trkpt lat="43.79816" lon="7.14303">
        <ele>958.40002441406</ele>
        <time>2020-01-11T10:13:07.000Z</time>
      </trkpt>
      <trkpt lat="43.79814" lon="7.14297">
        <ele>958.40002441406</ele>
        <time>2020-01-11T10:13:12.000Z</time>
      </trkpt>
      <trkpt lat="43.79812" lon="7.14295">
        <ele>958.59997558594</ele>
        <time>2020-01-11T10:13:14.000Z</time>
      </trkpt>
      <trkpt lat="43.79809" lon="7.14293">
        <ele>958.79998779297</ele>
        <time>2020-01-11T10:13:16.000Z</time>
      </trkpt>
      <trkpt lat="43.79807" lon="7.14291">
        <ele>959</ele>
        <time>2020-01-11T10:13:18.000Z</time>
      </trkpt>
      <trkpt lat="43.79803" lon="7.1429">
        <ele>959.20001220703</ele>
        <time>2020-01-11T10:13:20.000Z</time>
      </trkpt>
      <trkpt lat="43.798" lon="7.14289">
        <ele>959.20001220703</ele>
        <time>2020-01-11T10:13:21.000Z</time>
      </trkpt>
      <trkpt lat="43.79795" lon="7.14283">
        <ele>959</ele>
        <time>2020-01-11T10:13:24.000Z</time>
      </trkpt>
      <trkpt lat="43.79788" lon="7.14276">
        <ele>958.59997558594</ele>
        <time>2020-01-11T10:13:28.000Z</time>
      </trkpt>
      <trkpt lat="43.79787" lon="7.14274">
        <ele>958.79998779297</ele>
        <time>2020-01-11T10:13:29.000Z</time>
      </trkpt>
      <trkpt lat="43.79784" lon="7.14271">
        <ele>959.79998779297</ele>
        <time>2020-01-11T10:13:33.000Z</time>
      </trkpt>
      <trkpt lat="43.79779" lon="7.14267">
        <ele>960.40002441406</ele>
        <time>2020-01-11T10:13:37.000Z</time>
      </trkpt>
      <trkpt lat="43.79779" lon="7.14267">
        <ele>960.20001220703</ele>
        <time>2020-01-11T10:13:39.000Z</time>
      </trkpt>
      <trkpt lat="43.79778" lon="7.14265">
        <ele>960.79998779297</ele>
        <time>2020-01-11T10:13:45.000Z</time>
      </trkpt>
      <trkpt lat="43.79777" lon="7.14263">
        <ele>961.40002441406</ele>
        <time>2020-01-11T10:13:49.000Z</time>
      </trkpt>
      <trkpt lat="43.79777" lon="7.14262">
        <ele>961.59997558594</ele>
        <time>2020-01-11T10:13:52.000Z</time>
      </trkpt>
      <trkpt lat="43.79775" lon="7.14261">
        <ele>961.79998779297</ele>
        <time>2020-01-11T10:13:58.000Z</time>
      </trkpt>
      <trkpt lat="43.79775" lon="7.1426">
        <ele>961.79998779297</ele>
        <time>2020-01-11T10:13:59.000Z</time>
      </trkpt>
      <trkpt lat="43.79773" lon="7.14257">
        <ele>962.20001220703</ele>
        <time>2020-01-11T10:14:05.000Z</time>
      </trkpt>
      <trkpt lat="43.79772" lon="7.14254">
        <ele>962</ele>
        <time>2020-01-11T10:14:12.000Z</time>
      </trkpt>
      <trkpt lat="43.7977" lon="7.14252">
        <ele>962.40002441406</ele>
        <time>2020-01-11T10:14:16.000Z</time>
      </trkpt>
      <trkpt lat="43.79769" lon="7.14252">
        <ele>962.40002441406</ele>
        <time>2020-01-11T10:14:17.000Z</time>
      </trkpt>
      <trkpt lat="43.79768" lon="7.1425">
        <ele>962.59997558594</ele>
        <time>2020-01-11T10:14:19.000Z</time>
      </trkpt>
      <trkpt lat="43.79767" lon="7.14245">
        <ele>962.79998779297</ele>
        <time>2020-01-11T10:14:22.000Z</time>
      </trkpt>
      <trkpt lat="43.79764" lon="7.14243">
        <ele>962.79998779297</ele>
        <time>2020-01-11T10:14:27.000Z</time>
      </trkpt>
      <trkpt lat="43.79759" lon="7.14237">
        <ele>963.20001220703</ele>
        <time>2020-01-11T10:14:32.000Z</time>
      </trkpt>
      <trkpt lat="43.79759" lon="7.14235">
        <ele>963.40002441406</ele>
        <time>2020-01-11T10:14:34.000Z</time>
      </trkpt>
      <trkpt lat="43.79759" lon="7.14233">
        <ele>964</ele>
        <time>2020-01-11T10:14:37.000Z</time>
      </trkpt>
      <trkpt lat="43.79756" lon="7.14224">
        <ele>964.40002441406</ele>
        <time>2020-01-11T10:14:42.000Z</time>
      </trkpt>
      <trkpt lat="43.79756" lon="7.14222">
        <ele>964.40002441406</ele>
        <time>2020-01-11T10:14:43.000Z</time>
      </trkpt>
      <trkpt lat="43.79756" lon="7.14222">
        <ele>964.40002441406</ele>
        <time>2020-01-11T10:14:44.000Z</time>
      </trkpt>
      <trkpt lat="43.79755" lon="7.14221">
        <ele>964.79998779297</ele>
        <time>2020-01-11T10:14:46.000Z</time>
      </trkpt>
      <trkpt lat="43.79756" lon="7.14218">
        <ele>965.20001220703</ele>
        <time>2020-01-11T10:14:52.000Z</time>
      </trkpt>
      <trkpt lat="43.79758" lon="7.14216">
        <ele>965.40002441406</ele>
        <time>2020-01-11T10:14:55.000Z</time>
      </trkpt>
      <trkpt lat="43.79758" lon="7.14215">
        <ele>965.59997558594</ele>
        <time>2020-01-11T10:14:56.000Z</time>
      </trkpt>
      <trkpt lat="43.79757" lon="7.14213">
        <ele>965.79998779297</ele>
        <time>2020-01-11T10:14:58.000Z</time>
      </trkpt>
      <trkpt lat="43.79757" lon="7.14213">
        <ele>966.40002441406</ele>
        <time>2020-01-11T10:15:05.000Z</time>
      </trkpt>
      <trkpt lat="43.79756" lon="7.14208">
        <ele>966.40002441406</ele>
        <time>2020-01-11T10:15:12.000Z</time>
      </trkpt>
      <trkpt lat="43.79757" lon="7.14207">
        <ele>966.59997558594</ele>
        <time>2020-01-11T10:15:14.000Z</time>
      </trkpt>
      <trkpt lat="43.79757" lon="7.14206">
        <ele>966.59997558594</ele>
        <time>2020-01-11T10:15:16.000Z</time>
      </trkpt>
      <trkpt lat="43.79759" lon="7.142">
        <ele>966.79998779297</ele>
        <time>2020-01-11T10:15:22.000Z</time>
      </trkpt>
      <trkpt lat="43.79761" lon="7.14194">
        <ele>967.20001220703</ele>
        <time>2020-01-11T10:15:26.000Z</time>
      </trkpt>
      <trkpt lat="43.79762" lon="7.14194">
        <ele>967.59997558594</ele>
        <time>2020-01-11T10:15:28.000Z</time>
      </trkpt>
      <trkpt lat="43.79763" lon="7.14191">
        <ele>968</ele>
        <time>2020-01-11T10:15:34.000Z</time>
      </trkpt>
      <trkpt lat="43.79766" lon="7.14183">
        <ele>968.59997558594</ele>
        <time>2020-01-11T10:15:39.000Z</time>
      </trkpt>
      <trkpt lat="43.79768" lon="7.14179">
        <ele>969.20001220703</ele>
        <time>2020-01-11T10:15:44.000Z</time>
      </trkpt>
      <trkpt lat="43.79769" lon="7.14175">
        <ele>969</ele>
        <time>2020-01-11T10:15:50.000Z</time>
      </trkpt>
      <trkpt lat="43.79771" lon="7.14172">
        <ele>969.79998779297</ele>
        <time>2020-01-11T10:15:54.000Z</time>
      </trkpt>
      <trkpt lat="43.79771" lon="7.1417">
        <ele>970.20001220703</ele>
        <time>2020-01-11T10:15:56.000Z</time>
      </trkpt>
      <trkpt lat="43.79775" lon="7.14162">
        <ele>970.79998779297</ele>
        <time>2020-01-11T10:16:03.000Z</time>
      </trkpt>
      <trkpt lat="43.79775" lon="7.14161">
        <ele>970.79998779297</ele>
        <time>2020-01-11T10:16:04.000Z</time>
      </trkpt>
      <trkpt lat="43.79778" lon="7.14158">
        <ele>971.40002441406</ele>
        <time>2020-01-11T10:16:09.000Z</time>
      </trkpt>
      <trkpt lat="43.7978" lon="7.14156">
        <ele>971.79998779297</ele>
        <time>2020-01-11T10:16:13.000Z</time>
      </trkpt>
      <trkpt lat="43.79781" lon="7.14156">
        <ele>972.20001220703</ele>
        <time>2020-01-11T10:16:15.000Z</time>
      </trkpt>
      <trkpt lat="43.79784" lon="7.14153">
        <ele>972.40002441406</ele>
        <time>2020-01-11T10:16:20.000Z</time>
      </trkpt>
      <trkpt lat="43.79786" lon="7.14149">
        <ele>972.79998779297</ele>
        <time>2020-01-11T10:16:25.000Z</time>
      </trkpt>
      <trkpt lat="43.79786" lon="7.14148">
        <ele>973</ele>
        <time>2020-01-11T10:16:26.000Z</time>
      </trkpt>
      <trkpt lat="43.79787" lon="7.14146">
        <ele>973.59997558594</ele>
        <time>2020-01-11T10:16:31.000Z</time>
      </trkpt>
      <trkpt lat="43.79788" lon="7.14143">
        <ele>973.79998779297</ele>
        <time>2020-01-11T10:16:41.000Z</time>
      </trkpt>
      <trkpt lat="43.79788" lon="7.14141">
        <ele>974</ele>
        <time>2020-01-11T10:16:45.000Z</time>
      </trkpt>
      <trkpt lat="43.79788" lon="7.1414">
        <ele>974.20001220703</ele>
        <time>2020-01-11T10:16:47.000Z</time>
      </trkpt>
      <trkpt lat="43.79788" lon="7.14139">
        <ele>974.40002441406</ele>
        <time>2020-01-11T10:16:53.000Z</time>
      </trkpt>
      <trkpt lat="43.79788" lon="7.14137">
        <ele>974.59997558594</ele>
        <time>2020-01-11T10:17:01.000Z</time>
      </trkpt>
      <trkpt lat="43.79787" lon="7.14133">
        <ele>975</ele>
        <time>2020-01-11T10:17:06.000Z</time>
      </trkpt>
      <trkpt lat="43.79787" lon="7.14132">
        <ele>975.20001220703</ele>
        <time>2020-01-11T10:17:07.000Z</time>
      </trkpt>
      <trkpt lat="43.79787" lon="7.14128">
        <ele>976</ele>
        <time>2020-01-11T10:17:14.000Z</time>
      </trkpt>
      <trkpt lat="43.79787" lon="7.14128">
        <ele>976</ele>
        <time>2020-01-11T10:17:15.000Z</time>
      </trkpt>
      <trkpt lat="43.79786" lon="7.14122">
        <ele>976</ele>
        <time>2020-01-11T10:17:18.000Z</time>
      </trkpt>
      <trkpt lat="43.79786" lon="7.1412">
        <ele>976</ele>
        <time>2020-01-11T10:17:19.000Z</time>
      </trkpt>
      <trkpt lat="43.79786" lon="7.14115">
        <ele>976.40002441406</ele>
        <time>2020-01-11T10:17:21.000Z</time>
      </trkpt>
      <trkpt lat="43.79786" lon="7.14106">
        <ele>977</ele>
        <time>2020-01-11T10:17:26.000Z</time>
      </trkpt>
      <trkpt lat="43.79785" lon="7.14104">
        <ele>977.20001220703</ele>
        <time>2020-01-11T10:17:27.000Z</time>
      </trkpt>
      <trkpt lat="43.79785" lon="7.14096">
        <ele>977.59997558594</ele>
        <time>2020-01-11T10:17:31.000Z</time>
      </trkpt>
      <trkpt lat="43.79785" lon="7.14094">
        <ele>978.40002441406</ele>
        <time>2020-01-11T10:17:35.000Z</time>
      </trkpt>
      <trkpt lat="43.79785" lon="7.14093">
        <ele>978.40002441406</ele>
        <time>2020-01-11T10:17:36.000Z</time>
      </trkpt>
      <trkpt lat="43.79786" lon="7.14091">
        <ele>979</ele>
        <time>2020-01-11T10:17:42.000Z</time>
      </trkpt>
      <trkpt lat="43.79787" lon="7.14088">
        <ele>979.20001220703</ele>
        <time>2020-01-11T10:17:46.000Z</time>
      </trkpt>
      <trkpt lat="43.79787" lon="7.14087">
        <ele>979.20001220703</ele>
        <time>2020-01-11T10:17:48.000Z</time>
      </trkpt>
      <trkpt lat="43.79787" lon="7.14084">
        <ele>979.40002441406</ele>
        <time>2020-01-11T10:17:51.000Z</time>
      </trkpt>
      <trkpt lat="43.79787" lon="7.14083">
        <ele>980.20001220703</ele>
        <time>2020-01-11T10:17:55.000Z</time>
      </trkpt>
      <trkpt lat="43.79787" lon="7.14077">
        <ele>980.20001220703</ele>
        <time>2020-01-11T10:18:00.000Z</time>
      </trkpt>
      <trkpt lat="43.79789" lon="7.1407">
        <ele>980.40002441406</ele>
        <time>2020-01-11T10:18:04.000Z</time>
      </trkpt>
      <trkpt lat="43.79789" lon="7.14064">
        <ele>981</ele>
        <time>2020-01-11T10:18:07.000Z</time>
      </trkpt>
      <trkpt lat="43.79789" lon="7.14056">
        <ele>981.79998779297</ele>
        <time>2020-01-11T10:18:11.000Z</time>
      </trkpt>
      <trkpt lat="43.79789" lon="7.14052">
        <ele>982</ele>
        <time>2020-01-11T10:18:13.000Z</time>
      </trkpt>
      <trkpt lat="43.79789" lon="7.1405">
        <ele>982.20001220703</ele>
        <time>2020-01-11T10:18:14.000Z</time>
      </trkpt>
      <trkpt lat="43.79789" lon="7.14047">
        <ele>982.79998779297</ele>
        <time>2020-01-11T10:18:16.000Z</time>
      </trkpt>
      <trkpt lat="43.7979" lon="7.14044">
        <ele>983.20001220703</ele>
        <time>2020-01-11T10:18:19.000Z</time>
      </trkpt>
      <trkpt lat="43.7979" lon="7.14044">
        <ele>983.79998779297</ele>
        <time>2020-01-11T10:18:24.000Z</time>
      </trkpt>
      <trkpt lat="43.7979" lon="7.14044">
        <ele>983.79998779297</ele>
        <time>2020-01-11T10:18:26.000Z</time>
      </trkpt>
      <trkpt lat="43.79791" lon="7.14042">
        <ele>983.79998779297</ele>
        <time>2020-01-11T10:18:38.000Z</time>
      </trkpt>
      <trkpt lat="43.79794" lon="7.14039">
        <ele>984.59997558594</ele>
        <time>2020-01-11T10:18:45.000Z</time>
      </trkpt>
      <trkpt lat="43.79795" lon="7.14039">
        <ele>984.79998779297</ele>
        <time>2020-01-11T10:18:46.000Z</time>
      </trkpt>
      <trkpt lat="43.79798" lon="7.14033">
        <ele>985.20001220703</ele>
        <time>2020-01-11T10:18:52.000Z</time>
      </trkpt>
      <trkpt lat="43.79801" lon="7.14028">
        <ele>985.59997558594</ele>
        <time>2020-01-11T10:19:00.000Z</time>
      </trkpt>
      <trkpt lat="43.79804" lon="7.14024">
        <ele>985.79998779297</ele>
        <time>2020-01-11T10:19:04.000Z</time>
      </trkpt>
      <trkpt lat="43.79806" lon="7.14021">
        <ele>986</ele>
        <time>2020-01-11T10:19:06.000Z</time>
      </trkpt>
      <trkpt lat="43.79809" lon="7.14013">
        <ele>987</ele>
        <time>2020-01-11T10:19:11.000Z</time>
      </trkpt>
      <trkpt lat="43.7981" lon="7.14011">
        <ele>987.20001220703</ele>
        <time>2020-01-11T10:19:12.000Z</time>
      </trkpt>
      <trkpt lat="43.79814" lon="7.14002">
        <ele>988.20001220703</ele>
        <time>2020-01-11T10:19:17.000Z</time>
      </trkpt>
      <trkpt lat="43.79814" lon="7.14">
        <ele>988.40002441406</ele>
        <time>2020-01-11T10:19:18.000Z</time>
      </trkpt>
      <trkpt lat="43.79816" lon="7.13993">
        <ele>989.40002441406</ele>
        <time>2020-01-11T10:19:22.000Z</time>
      </trkpt>
      <trkpt lat="43.79817" lon="7.1399">
        <ele>989.79998779297</ele>
        <time>2020-01-11T10:19:24.000Z</time>
      </trkpt>
      <trkpt lat="43.7982" lon="7.13985">
        <ele>990.40002441406</ele>
        <time>2020-01-11T10:19:28.000Z</time>
      </trkpt>
      <trkpt lat="43.79823" lon="7.13981">
        <ele>990.79998779297</ele>
        <time>2020-01-11T10:19:30.000Z</time>
      </trkpt>
      <trkpt lat="43.79829" lon="7.13968">
        <ele>990.79998779297</ele>
        <time>2020-01-11T10:19:36.000Z</time>
      </trkpt>
      <trkpt lat="43.79831" lon="7.13964">
        <ele>991.20001220703</ele>
        <time>2020-01-11T10:19:40.000Z</time>
      </trkpt>
      <trkpt lat="43.7983" lon="7.13964">
        <ele>991.59997558594</ele>
        <time>2020-01-11T10:19:42.000Z</time>
      </trkpt>
      <trkpt lat="43.7983" lon="7.1396">
        <ele>991.79998779297</ele>
        <time>2020-01-11T10:19:46.000Z</time>
      </trkpt>
      <trkpt lat="43.79833" lon="7.13953">
        <ele>992.20001220703</ele>
        <time>2020-01-11T10:19:50.000Z</time>
      </trkpt>
      <trkpt lat="43.79834" lon="7.13951">
        <ele>992.40002441406</ele>
        <time>2020-01-11T10:19:51.000Z</time>
      </trkpt>
      <trkpt lat="43.79834" lon="7.13952">
        <ele>992.59997558594</ele>
        <time>2020-01-11T10:19:52.000Z</time>
      </trkpt>
      <trkpt lat="43.79834" lon="7.13946">
        <ele>993.59997558594</ele>
        <time>2020-01-11T10:19:55.000Z</time>
      </trkpt>
      <trkpt lat="43.79834" lon="7.13944">
        <ele>993.79998779297</ele>
        <time>2020-01-11T10:19:56.000Z</time>
      </trkpt>
      <trkpt lat="43.79836" lon="7.13941">
        <ele>994.59997558594</ele>
        <time>2020-01-11T10:20:01.000Z</time>
      </trkpt>
      <trkpt lat="43.79836" lon="7.1394">
        <ele>995.20001220703</ele>
        <time>2020-01-11T10:20:04.000Z</time>
      </trkpt>
      <trkpt lat="43.79837" lon="7.13937">
        <ele>995</ele>
        <time>2020-01-11T10:20:08.000Z</time>
      </trkpt>
      <trkpt lat="43.79839" lon="7.13933">
        <ele>995.79998779297</ele>
        <time>2020-01-11T10:20:13.000Z</time>
      </trkpt>
      <trkpt lat="43.79839" lon="7.13932">
        <ele>996.40002441406</ele>
        <time>2020-01-11T10:20:15.000Z</time>
      </trkpt>
      <trkpt lat="43.79839" lon="7.13927">
        <ele>997.40002441406</ele>
        <time>2020-01-11T10:20:21.000Z</time>
      </trkpt>
      <trkpt lat="43.79839" lon="7.13926">
        <ele>997.59997558594</ele>
        <time>2020-01-11T10:20:22.000Z</time>
      </trkpt>
      <trkpt lat="43.79839" lon="7.13925">
        <ele>997.79998779297</ele>
        <time>2020-01-11T10:20:26.000Z</time>
      </trkpt>
      <trkpt lat="43.7984" lon="7.13915">
        <ele>997.79998779297</ele>
        <time>2020-01-11T10:20:32.000Z</time>
      </trkpt>
      <trkpt lat="43.79841" lon="7.13901">
        <ele>998.40002441406</ele>
        <time>2020-01-11T10:20:39.000Z</time>
      </trkpt>
      <trkpt lat="43.79841" lon="7.13898">
        <ele>998.59997558594</ele>
        <time>2020-01-11T10:20:40.000Z</time>
      </trkpt>
      <trkpt lat="43.79843" lon="7.13885">
        <ele>999.40002441406</ele>
        <time>2020-01-11T10:20:46.000Z</time>
      </trkpt>
      <trkpt lat="43.79846" lon="7.13875">
        <ele>999.59997558594</ele>
        <time>2020-01-11T10:20:51.000Z</time>
      </trkpt>
      <trkpt lat="43.79846" lon="7.13874">
        <ele>999.79998779297</ele>
        <time>2020-01-11T10:20:53.000Z</time>
      </trkpt>
      <trkpt lat="43.79846" lon="7.13872">
        <ele>1000</ele>
        <time>2020-01-11T10:20:59.000Z</time>
      </trkpt>
      <trkpt lat="43.79846" lon="7.13871">
        <ele>999.20001220703</ele>
        <time>2020-01-11T10:21:08.000Z</time>
      </trkpt>
      <trkpt lat="43.79847" lon="7.1387">
        <ele>999.40002441406</ele>
        <time>2020-01-11T10:21:15.000Z</time>
      </trkpt>
      <trkpt lat="43.79847" lon="7.13869">
        <ele>999.40002441406</ele>
        <time>2020-01-11T10:21:23.000Z</time>
      </trkpt>
      <trkpt lat="43.79848" lon="7.13866">
        <ele>1000</ele>
        <time>2020-01-11T10:21:28.000Z</time>
      </trkpt>
      <trkpt lat="43.79851" lon="7.1386">
        <ele>1000.5999755859</ele>
        <time>2020-01-11T10:21:33.000Z</time>
      </trkpt>
      <trkpt lat="43.79854" lon="7.13853">
        <ele>1002</ele>
        <time>2020-01-11T10:21:37.000Z</time>
      </trkpt>
      <trkpt lat="43.79855" lon="7.13849">
        <ele>1002.4000244141</ele>
        <time>2020-01-11T10:21:39.000Z</time>
      </trkpt>
      <trkpt lat="43.79857" lon="7.13846">
        <ele>1003</ele>
        <time>2020-01-11T10:21:41.000Z</time>
      </trkpt>
      <trkpt lat="43.79858" lon="7.13844">
        <ele>1003</ele>
        <time>2020-01-11T10:21:42.000Z</time>
      </trkpt>
      <trkpt lat="43.79859" lon="7.13841">
        <ele>1003.5999755859</ele>
        <time>2020-01-11T10:21:44.000Z</time>
      </trkpt>
      <trkpt lat="43.79861" lon="7.13836">
        <ele>1004</ele>
        <time>2020-01-11T10:21:47.000Z</time>
      </trkpt>
      <trkpt lat="43.79862" lon="7.13833">
        <ele>1005</ele>
        <time>2020-01-11T10:21:52.000Z</time>
      </trkpt>
      <trkpt lat="43.79863" lon="7.13831">
        <ele>1004.799987793</ele>
        <time>2020-01-11T10:21:56.000Z</time>
      </trkpt>
      <trkpt lat="43.79863" lon="7.13829">
        <ele>1005</ele>
        <time>2020-01-11T10:21:57.000Z</time>
      </trkpt>
      <trkpt lat="43.79865" lon="7.13823">
        <ele>1005.200012207</ele>
        <time>2020-01-11T10:22:00.000Z</time>
      </trkpt>
      <trkpt lat="43.79866" lon="7.13816">
        <ele>1005.4000244141</ele>
        <time>2020-01-11T10:22:03.000Z</time>
      </trkpt>
      <trkpt lat="43.79869" lon="7.13801">
        <ele>1005.799987793</ele>
        <time>2020-01-11T10:22:10.000Z</time>
      </trkpt>
      <trkpt lat="43.79866" lon="7.13784">
        <ele>1005.799987793</ele>
        <time>2020-01-11T10:22:16.000Z</time>
      </trkpt>
      <trkpt lat="43.79861" lon="7.13771">
        <ele>1005.799987793</ele>
        <time>2020-01-11T10:22:21.000Z</time>
      </trkpt>
      <trkpt lat="43.79858" lon="7.13759">
        <ele>1006.4000244141</ele>
        <time>2020-01-11T10:22:26.000Z</time>
      </trkpt>
      <trkpt lat="43.79857" lon="7.13758">
        <ele>1006.4000244141</ele>
        <time>2020-01-11T10:22:27.000Z</time>
      </trkpt>
      <trkpt lat="43.79856" lon="7.13756">
        <ele>1007.4000244141</ele>
        <time>2020-01-11T10:22:32.000Z</time>
      </trkpt>
      <trkpt lat="43.79855" lon="7.13754">
        <ele>1008</ele>
        <time>2020-01-11T10:22:35.000Z</time>
      </trkpt>
      <trkpt lat="43.79854" lon="7.13753">
        <ele>1008.200012207</ele>
        <time>2020-01-11T10:22:37.000Z</time>
      </trkpt>
      <trkpt lat="43.79853" lon="7.13752">
        <ele>1008.5999755859</ele>
        <time>2020-01-11T10:22:40.000Z</time>
      </trkpt>
      <trkpt lat="43.79853" lon="7.13751">
        <ele>1008.5999755859</ele>
        <time>2020-01-11T10:22:41.000Z</time>
      </trkpt>
      <trkpt lat="43.7985" lon="7.13746">
        <ele>1009.200012207</ele>
        <time>2020-01-11T10:22:46.000Z</time>
      </trkpt>
      <trkpt lat="43.79849" lon="7.13745">
        <ele>1009.4000244141</ele>
        <time>2020-01-11T10:22:47.000Z</time>
      </trkpt>
      <trkpt lat="43.79848" lon="7.13741">
        <ele>1009.5999755859</ele>
        <time>2020-01-11T10:22:52.000Z</time>
      </trkpt>
      <trkpt lat="43.79847" lon="7.13739">
        <ele>1010</ele>
        <time>2020-01-11T10:22:59.000Z</time>
      </trkpt>
      <trkpt lat="43.79845" lon="7.13737">
        <ele>1010.4000244141</ele>
        <time>2020-01-11T10:23:02.000Z</time>
      </trkpt>
      <trkpt lat="43.79845" lon="7.13736">
        <ele>1010.799987793</ele>
        <time>2020-01-11T10:23:05.000Z</time>
      </trkpt>
      <trkpt lat="43.79845" lon="7.13736">
        <ele>1011</ele>
        <time>2020-01-11T10:23:06.000Z</time>
      </trkpt>
      <trkpt lat="43.79844" lon="7.13734">
        <ele>1011</ele>
        <time>2020-01-11T10:23:13.000Z</time>
      </trkpt>
      <trkpt lat="43.79843" lon="7.13733">
        <ele>1011</ele>
        <time>2020-01-11T10:23:14.000Z</time>
      </trkpt>
      <trkpt lat="43.79843" lon="7.13731">
        <ele>1011</ele>
        <time>2020-01-11T10:23:18.000Z</time>
      </trkpt>
      <trkpt lat="43.79839" lon="7.13727">
        <ele>1012</ele>
        <time>2020-01-11T10:23:24.000Z</time>
      </trkpt>
      <trkpt lat="43.79839" lon="7.13726">
        <ele>1012.200012207</ele>
        <time>2020-01-11T10:23:25.000Z</time>
      </trkpt>
      <trkpt lat="43.79838" lon="7.13724">
        <ele>1013.200012207</ele>
        <time>2020-01-11T10:23:31.000Z</time>
      </trkpt>
      <trkpt lat="43.79837" lon="7.13723">
        <ele>1013.4000244141</ele>
        <time>2020-01-11T10:23:32.000Z</time>
      </trkpt>
      <trkpt lat="43.79836" lon="7.13721">
        <ele>1014</ele>
        <time>2020-01-11T10:23:37.000Z</time>
      </trkpt>
      <trkpt lat="43.79836" lon="7.1372">
        <ele>1014</ele>
        <time>2020-01-11T10:23:38.000Z</time>
      </trkpt>
      <trkpt lat="43.79835" lon="7.13719">
        <ele>1014</ele>
        <time>2020-01-11T10:23:39.000Z</time>
      </trkpt>
      <trkpt lat="43.79832" lon="7.13712">
        <ele>1014.200012207</ele>
        <time>2020-01-11T10:23:43.000Z</time>
      </trkpt>
      <trkpt lat="43.79831" lon="7.13706">
        <ele>1014.200012207</ele>
        <time>2020-01-11T10:23:46.000Z</time>
      </trkpt>
      <trkpt lat="43.7983" lon="7.13702">
        <ele>1014.200012207</ele>
        <time>2020-01-11T10:23:48.000Z</time>
      </trkpt>
      <trkpt lat="43.79826" lon="7.13696">
        <ele>1014.5999755859</ele>
        <time>2020-01-11T10:23:52.000Z</time>
      </trkpt>
      <trkpt lat="43.79826" lon="7.13695">
        <ele>1015.4000244141</ele>
        <time>2020-01-11T10:23:55.000Z</time>
      </trkpt>
      <trkpt lat="43.79826" lon="7.13693">
        <ele>1015.799987793</ele>
        <time>2020-01-11T10:23:57.000Z</time>
      </trkpt>
      <trkpt lat="43.79828" lon="7.13691">
        <ele>1016.200012207</ele>
        <time>2020-01-11T10:24:02.000Z</time>
      </trkpt>
      <trkpt lat="43.79829" lon="7.1368">
        <ele>1016.4000244141</ele>
        <time>2020-01-11T10:24:07.000Z</time>
      </trkpt>
      <trkpt lat="43.79829" lon="7.13678">
        <ele>1016.5999755859</ele>
        <time>2020-01-11T10:24:08.000Z</time>
      </trkpt>
      <trkpt lat="43.7983" lon="7.13664">
        <ele>1017.4000244141</ele>
        <time>2020-01-11T10:24:14.000Z</time>
      </trkpt>
      <trkpt lat="43.7983" lon="7.13654">
        <ele>1018.200012207</ele>
        <time>2020-01-11T10:24:18.000Z</time>
      </trkpt>
      <trkpt lat="43.7983" lon="7.13651">
        <ele>1018.4000244141</ele>
        <time>2020-01-11T10:24:19.000Z</time>
      </trkpt>
      <trkpt lat="43.79831" lon="7.13647">
        <ele>1018.5999755859</ele>
        <time>2020-01-11T10:24:21.000Z</time>
      </trkpt>
      <trkpt lat="43.79831" lon="7.1364">
        <ele>1018.5999755859</ele>
        <time>2020-01-11T10:24:24.000Z</time>
      </trkpt>
      <trkpt lat="43.7983" lon="7.13628">
        <ele>1018.5999755859</ele>
        <time>2020-01-11T10:24:29.000Z</time>
      </trkpt>
      <trkpt lat="43.7983" lon="7.13626">
        <ele>1018.799987793</ele>
        <time>2020-01-11T10:24:30.000Z</time>
      </trkpt>
      <trkpt lat="43.79831" lon="7.13616">
        <ele>1019</ele>
        <time>2020-01-11T10:24:34.000Z</time>
      </trkpt>
      <trkpt lat="43.7983" lon="7.13612">
        <ele>1019</ele>
        <time>2020-01-11T10:24:36.000Z</time>
      </trkpt>
      <trkpt lat="43.79825" lon="7.13606">
        <ele>1019.4000244141</ele>
        <time>2020-01-11T10:24:40.000Z</time>
      </trkpt>
      <trkpt lat="43.79822" lon="7.13602">
        <ele>1019.5999755859</ele>
        <time>2020-01-11T10:24:43.000Z</time>
      </trkpt>
      <trkpt lat="43.79821" lon="7.136">
        <ele>1019.5999755859</ele>
        <time>2020-01-11T10:24:44.000Z</time>
      </trkpt>
      <trkpt lat="43.7982" lon="7.13599">
        <ele>1019.799987793</ele>
        <time>2020-01-11T10:24:45.000Z</time>
      </trkpt>
      <trkpt lat="43.79818" lon="7.13598">
        <ele>1019.799987793</ele>
        <time>2020-01-11T10:24:46.000Z</time>
      </trkpt>
      <trkpt lat="43.79816" lon="7.13596">
        <ele>1020</ele>
        <time>2020-01-11T10:24:48.000Z</time>
      </trkpt>
      <trkpt lat="43.79815" lon="7.13591">
        <ele>1021</ele>
        <time>2020-01-11T10:24:51.000Z</time>
      </trkpt>
      <trkpt lat="43.79815" lon="7.1359">
        <ele>1021.799987793</ele>
        <time>2020-01-11T10:24:53.000Z</time>
      </trkpt>
      <trkpt lat="43.79811" lon="7.13588">
        <ele>1022.200012207</ele>
        <time>2020-01-11T10:24:57.000Z</time>
      </trkpt>
      <trkpt lat="43.7981" lon="7.13587">
        <ele>1022.4000244141</ele>
        <time>2020-01-11T10:24:58.000Z</time>
      </trkpt>
      <trkpt lat="43.79807" lon="7.13582">
        <ele>1023.4000244141</ele>
        <time>2020-01-11T10:25:01.000Z</time>
      </trkpt>
      <trkpt lat="43.79806" lon="7.13581">
        <ele>1023.5999755859</ele>
        <time>2020-01-11T10:25:02.000Z</time>
      </trkpt>
      <trkpt lat="43.79805" lon="7.1358">
        <ele>1024</ele>
        <time>2020-01-11T10:25:03.000Z</time>
      </trkpt>
      <trkpt lat="43.79803" lon="7.13579">
        <ele>1024.4000244141</ele>
        <time>2020-01-11T10:25:04.000Z</time>
      </trkpt>
      <trkpt lat="43.798" lon="7.13578">
        <ele>1025.5999755859</ele>
        <time>2020-01-11T10:25:07.000Z</time>
      </trkpt>
      <trkpt lat="43.79797" lon="7.13578">
        <ele>1026</ele>
        <time>2020-01-11T10:25:09.000Z</time>
      </trkpt>
      <trkpt lat="43.79792" lon="7.13574">
        <ele>1026.5999755859</ele>
        <time>2020-01-11T10:25:12.000Z</time>
      </trkpt>
      <trkpt lat="43.79791" lon="7.13571">
        <ele>1026.8000488281</ele>
        <time>2020-01-11T10:25:13.000Z</time>
      </trkpt>
      <trkpt lat="43.7979" lon="7.13569">
        <ele>1027.1999511719</ele>
        <time>2020-01-11T10:25:14.000Z</time>
      </trkpt>
      <trkpt lat="43.79787" lon="7.13565">
        <ele>1028</ele>
        <time>2020-01-11T10:25:17.000Z</time>
      </trkpt>
      <trkpt lat="43.79783" lon="7.13562">
        <ele>1028.1999511719</ele>
        <time>2020-01-11T10:25:19.000Z</time>
      </trkpt>
      <trkpt lat="43.79775" lon="7.13552">
        <ele>1028.4000244141</ele>
        <time>2020-01-11T10:25:24.000Z</time>
      </trkpt>
      <trkpt lat="43.79775" lon="7.13549">
        <ele>1028.4000244141</ele>
        <time>2020-01-11T10:25:25.000Z</time>
      </trkpt>
      <trkpt lat="43.79776" lon="7.13534">
        <ele>1029.1999511719</ele>
        <time>2020-01-11T10:25:30.000Z</time>
      </trkpt>
      <trkpt lat="43.79778" lon="7.13524">
        <ele>1030.1999511719</ele>
        <time>2020-01-11T10:25:34.000Z</time>
      </trkpt>
      <trkpt lat="43.79778" lon="7.1352">
        <ele>1031</ele>
        <time>2020-01-11T10:25:36.000Z</time>
      </trkpt>
      <trkpt lat="43.79778" lon="7.13517">
        <ele>1031.4000244141</ele>
        <time>2020-01-11T10:25:37.000Z</time>
      </trkpt>
      <trkpt lat="43.79778" lon="7.1351">
        <ele>1032.1999511719</ele>
        <time>2020-01-11T10:25:40.000Z</time>
      </trkpt>
      <trkpt lat="43.79777" lon="7.13508">
        <ele>1032.4000244141</ele>
        <time>2020-01-11T10:25:41.000Z</time>
      </trkpt>
      <trkpt lat="43.79772" lon="7.13504">
        <ele>1033</ele>
        <time>2020-01-11T10:25:45.000Z</time>
      </trkpt>
      <trkpt lat="43.79768" lon="7.13501">
        <ele>1033.4000244141</ele>
        <time>2020-01-11T10:25:48.000Z</time>
      </trkpt>
      <trkpt lat="43.79767" lon="7.13499">
        <ele>1033.8000488281</ele>
        <time>2020-01-11T10:25:49.000Z</time>
      </trkpt>
      <trkpt lat="43.79766" lon="7.13496">
        <ele>1033.8000488281</ele>
        <time>2020-01-11T10:25:50.000Z</time>
      </trkpt>
      <trkpt lat="43.79763" lon="7.13489">
        <ele>1034.5999755859</ele>
        <time>2020-01-11T10:25:54.000Z</time>
      </trkpt>
      <trkpt lat="43.79759" lon="7.13484">
        <ele>1035.1999511719</ele>
        <time>2020-01-11T10:25:57.000Z</time>
      </trkpt>
      <trkpt lat="43.79752" lon="7.1348">
        <ele>1035.8000488281</ele>
        <time>2020-01-11T10:26:01.000Z</time>
      </trkpt>
      <trkpt lat="43.79753" lon="7.1348">
        <ele>1035.8000488281</ele>
        <time>2020-01-11T10:26:02.000Z</time>
      </trkpt>
      <trkpt lat="43.79751" lon="7.13477">
        <ele>1035.8000488281</ele>
        <time>2020-01-11T10:26:05.000Z</time>
      </trkpt>
      <trkpt lat="43.7975" lon="7.13473">
        <ele>1036</ele>
        <time>2020-01-11T10:26:07.000Z</time>
      </trkpt>
      <trkpt lat="43.79754" lon="7.13467">
        <ele>1035.8000488281</ele>
        <time>2020-01-11T10:26:10.000Z</time>
      </trkpt>
      <trkpt lat="43.79754" lon="7.13465">
        <ele>1035.8000488281</ele>
        <time>2020-01-11T10:26:11.000Z</time>
      </trkpt>
      <trkpt lat="43.79757" lon="7.13457">
        <ele>1036</ele>
        <time>2020-01-11T10:26:15.000Z</time>
      </trkpt>
      <trkpt lat="43.79755" lon="7.13452">
        <ele>1035.8000488281</ele>
        <time>2020-01-11T10:26:17.000Z</time>
      </trkpt>
      <trkpt lat="43.79746" lon="7.1344">
        <ele>1035.5999755859</ele>
        <time>2020-01-11T10:26:22.000Z</time>
      </trkpt>
      <trkpt lat="43.79731" lon="7.13429">
        <ele>1035</ele>
        <time>2020-01-11T10:26:27.000Z</time>
      </trkpt>
      <trkpt lat="43.79728" lon="7.13424">
        <ele>1034.1999511719</ele>
        <time>2020-01-11T10:26:29.000Z</time>
      </trkpt>
      <trkpt lat="43.79726" lon="7.13418">
        <ele>1034</ele>
        <time>2020-01-11T10:26:31.000Z</time>
      </trkpt>
      <trkpt lat="43.79726" lon="7.13414">
        <ele>1034.1999511719</ele>
        <time>2020-01-11T10:26:35.000Z</time>
      </trkpt>
      <trkpt lat="43.79724" lon="7.1341">
        <ele>1034.8000488281</ele>
        <time>2020-01-11T10:26:38.000Z</time>
      </trkpt>
      <trkpt lat="43.79722" lon="7.13407">
        <ele>1035</ele>
        <time>2020-01-11T10:26:40.000Z</time>
      </trkpt>
      <trkpt lat="43.79722" lon="7.13403">
        <ele>1035.4000244141</ele>
        <time>2020-01-11T10:26:42.000Z</time>
      </trkpt>
      <trkpt lat="43.79721" lon="7.13402">
        <ele>1035.5999755859</ele>
        <time>2020-01-11T10:26:43.000Z</time>
      </trkpt>
      <trkpt lat="43.79719" lon="7.13401">
        <ele>1035.8000488281</ele>
        <time>2020-01-11T10:26:45.000Z</time>
      </trkpt>
      <trkpt lat="43.79712" lon="7.13398">
        <ele>1036.4000244141</ele>
        <time>2020-01-11T10:26:50.000Z</time>
      </trkpt>
      <trkpt lat="43.79711" lon="7.13396">
        <ele>1036.4000244141</ele>
        <time>2020-01-11T10:26:51.000Z</time>
      </trkpt>
      <trkpt lat="43.79709" lon="7.13391">
        <ele>1036.8000488281</ele>
        <time>2020-01-11T10:26:54.000Z</time>
      </trkpt>
      <trkpt lat="43.79708" lon="7.13389">
        <ele>1036.8000488281</ele>
        <time>2020-01-11T10:26:55.000Z</time>
      </trkpt>
      <trkpt lat="43.79699" lon="7.13379">
        <ele>1037.4000244141</ele>
        <time>2020-01-11T10:27:01.000Z</time>
      </trkpt>
      <trkpt lat="43.79694" lon="7.13372">
        <ele>1037.4000244141</ele>
        <time>2020-01-11T10:27:05.000Z</time>
      </trkpt>
      <trkpt lat="43.79689" lon="7.13363">
        <ele>1037.4000244141</ele>
        <time>2020-01-11T10:27:10.000Z</time>
      </trkpt>
      <trkpt lat="43.79683" lon="7.13352">
        <ele>1037</ele>
        <time>2020-01-11T10:27:16.000Z</time>
      </trkpt>
      <trkpt lat="43.79678" lon="7.13345">
        <ele>1036.1999511719</ele>
        <time>2020-01-11T10:27:20.000Z</time>
      </trkpt>
      <trkpt lat="43.79674" lon="7.13338">
        <ele>1035.4000244141</ele>
        <time>2020-01-11T10:27:24.000Z</time>
      </trkpt>
      <trkpt lat="43.79674" lon="7.13336">
        <ele>1035.1999511719</ele>
        <time>2020-01-11T10:27:25.000Z</time>
      </trkpt>
      <trkpt lat="43.79673" lon="7.13335">
        <ele>1035</ele>
        <time>2020-01-11T10:27:26.000Z</time>
      </trkpt>
      <trkpt lat="43.79674" lon="7.13332">
        <ele>1034.1999511719</ele>
        <time>2020-01-11T10:27:29.000Z</time>
      </trkpt>
      <trkpt lat="43.79674" lon="7.13331">
        <ele>1034</ele>
        <time>2020-01-11T10:27:30.000Z</time>
      </trkpt>
      <trkpt lat="43.79671" lon="7.13328">
        <ele>1033.5999755859</ele>
        <time>2020-01-11T10:27:32.000Z</time>
      </trkpt>
      <trkpt lat="43.7967" lon="7.13327">
        <ele>1033.5999755859</ele>
        <time>2020-01-11T10:27:33.000Z</time>
      </trkpt>
      <trkpt lat="43.79667" lon="7.13326">
        <ele>1032.8000488281</ele>
        <time>2020-01-11T10:27:35.000Z</time>
      </trkpt>
      <trkpt lat="43.79665" lon="7.13326">
        <ele>1032.4000244141</ele>
        <time>2020-01-11T10:27:37.000Z</time>
      </trkpt>
      <trkpt lat="43.79664" lon="7.13326">
        <ele>1032</ele>
        <time>2020-01-11T10:27:38.000Z</time>
      </trkpt>
      <trkpt lat="43.79662" lon="7.13326">
        <ele>1031.8000488281</ele>
        <time>2020-01-11T10:27:42.000Z</time>
      </trkpt>
      <trkpt lat="43.79662" lon="7.13326">
        <ele>1031.5999755859</ele>
        <time>2020-01-11T10:27:45.000Z</time>
      </trkpt>
      <trkpt lat="43.7966" lon="7.13324">
        <ele>1031.5999755859</ele>
        <time>2020-01-11T10:27:52.000Z</time>
      </trkpt>
      <trkpt lat="43.79657" lon="7.13321">
        <ele>1030.5999755859</ele>
        <time>2020-01-11T10:27:58.000Z</time>
      </trkpt>
      <trkpt lat="43.79656" lon="7.1332">
        <ele>1030.1999511719</ele>
        <time>2020-01-11T10:28:00.000Z</time>
      </trkpt>
      <trkpt lat="43.79655" lon="7.13318">
        <ele>1029.4000244141</ele>
        <time>2020-01-11T10:28:03.000Z</time>
      </trkpt>
      <trkpt lat="43.79653" lon="7.13315">
        <ele>1029</ele>
        <time>2020-01-11T10:28:05.000Z</time>
      </trkpt>
      <trkpt lat="43.79654" lon="7.13313">
        <ele>1028.8000488281</ele>
        <time>2020-01-11T10:28:06.000Z</time>
      </trkpt>
      <trkpt lat="43.79653" lon="7.13309">
        <ele>1028.4000244141</ele>
        <time>2020-01-11T10:28:08.000Z</time>
      </trkpt>
      <trkpt lat="43.79652" lon="7.13303">
        <ele>1028.1999511719</ele>
        <time>2020-01-11T10:28:10.000Z</time>
      </trkpt>
      <trkpt lat="43.79648" lon="7.13287">
        <ele>1029</ele>
        <time>2020-01-11T10:28:16.000Z</time>
      </trkpt>
      <trkpt lat="43.79647" lon="7.13282">
        <ele>1029.8000488281</ele>
        <time>2020-01-11T10:28:18.000Z</time>
      </trkpt>
      <trkpt lat="43.79644" lon="7.13276">
        <ele>1030.8000488281</ele>
        <time>2020-01-11T10:28:21.000Z</time>
      </trkpt>
      <trkpt lat="43.79635" lon="7.1327">
        <ele>1032.1999511719</ele>
        <time>2020-01-11T10:28:26.000Z</time>
      </trkpt>
      <trkpt lat="43.79631" lon="7.13264">
        <ele>1033.4000244141</ele>
        <time>2020-01-11T10:28:29.000Z</time>
      </trkpt>
      <trkpt lat="43.79629" lon="7.13262">
        <ele>1034.1999511719</ele>
        <time>2020-01-11T10:28:31.000Z</time>
      </trkpt>
      <trkpt lat="43.79628" lon="7.13261">
        <ele>1034.4000244141</ele>
        <time>2020-01-11T10:28:32.000Z</time>
      </trkpt>
      <trkpt lat="43.79627" lon="7.1326">
        <ele>1034.5999755859</ele>
        <time>2020-01-11T10:28:36.000Z</time>
      </trkpt>
      <trkpt lat="43.79628" lon="7.13258">
        <ele>1034.4000244141</ele>
        <time>2020-01-11T10:28:41.000Z</time>
      </trkpt>
      <trkpt lat="43.79628" lon="7.13257">
        <ele>1034.4000244141</ele>
        <time>2020-01-11T10:28:42.000Z</time>
      </trkpt>
      <trkpt lat="43.79628" lon="7.13255">
        <ele>1034.5999755859</ele>
        <time>2020-01-11T10:28:48.000Z</time>
      </trkpt>
      <trkpt lat="43.79628" lon="7.13254">
        <ele>1034.8000488281</ele>
        <time>2020-01-11T10:28:56.000Z</time>
      </trkpt>
      <trkpt lat="43.79627" lon="7.13253">
        <ele>1034.5999755859</ele>
        <time>2020-01-11T10:29:01.000Z</time>
      </trkpt>
      <trkpt lat="43.79627" lon="7.13253">
        <ele>1034.8000488281</ele>
        <time>2020-01-11T10:29:14.000Z</time>
      </trkpt>
      <trkpt lat="43.79627" lon="7.13252">
        <ele>1035.1999511719</ele>
        <time>2020-01-11T10:29:26.000Z</time>
      </trkpt>
      <trkpt lat="43.79627" lon="7.13252">
        <ele>1035.5999755859</ele>
        <time>2020-01-11T10:29:28.000Z</time>
      </trkpt>
      <trkpt lat="43.79627" lon="7.13252">
        <ele>1035.5999755859</ele>
        <time>2020-01-11T10:29:35.000Z</time>
      </trkpt>
      <trkpt lat="43.79626" lon="7.13251">
        <ele>1034.8000488281</ele>
        <time>2020-01-11T10:29:50.000Z</time>
      </trkpt>
      <trkpt lat="43.79626" lon="7.1325">
        <ele>1034.8000488281</ele>
        <time>2020-01-11T10:30:05.000Z</time>
      </trkpt>
      <trkpt lat="43.79626" lon="7.13251">
        <ele>1035.4000244141</ele>
        <time>2020-01-11T10:30:14.000Z</time>
      </trkpt>
      <trkpt lat="43.79625" lon="7.13252">
        <ele>1035.4000244141</ele>
        <time>2020-01-11T10:30:20.000Z</time>
      </trkpt>
      <trkpt lat="43.79625" lon="7.13252">
        <ele>1035.4000244141</ele>
        <time>2020-01-11T10:30:30.000Z</time>
      </trkpt>
      <trkpt lat="43.79625" lon="7.13253">
        <ele>1035</ele>
        <time>2020-01-11T10:30:37.000Z</time>
      </trkpt>
      <trkpt lat="43.79625" lon="7.13254">
        <ele>1034.5999755859</ele>
        <time>2020-01-11T10:30:39.000Z</time>
      </trkpt>
      <trkpt lat="43.79624" lon="7.13254">
        <ele>1035</ele>
        <time>2020-01-11T10:30:45.000Z</time>
      </trkpt>
      <trkpt lat="43.79624" lon="7.13254">
        <ele>1034.8000488281</ele>
        <time>2020-01-11T10:30:51.000Z</time>
      </trkpt>
      <trkpt lat="43.79624" lon="7.13253">
        <ele>1034.8000488281</ele>
        <time>2020-01-11T10:30:52.000Z</time>
      </trkpt>
      <trkpt lat="43.79624" lon="7.13253">
        <ele>1034.5999755859</ele>
        <time>2020-01-11T10:30:55.000Z</time>
      </trkpt>
      <trkpt lat="43.79625" lon="7.13253">
        <ele>1034.5999755859</ele>
        <time>2020-01-11T10:31:00.000Z</time>
      </trkpt>
      <trkpt lat="43.79625" lon="7.13253">
        <ele>1034.8000488281</ele>
        <time>2020-01-11T10:31:09.000Z</time>
      </trkpt>
      <trkpt lat="43.79623" lon="7.13251">
        <ele>1035</ele>
        <time>2020-01-11T10:31:15.000Z</time>
      </trkpt>
      <trkpt lat="43.79621" lon="7.13246">
        <ele>1035</ele>
        <time>2020-01-11T10:31:20.000Z</time>
      </trkpt>
      <trkpt lat="43.79621" lon="7.13244">
        <ele>1035</ele>
        <time>2020-01-11T10:31:22.000Z</time>
      </trkpt>
      <trkpt lat="43.7962" lon="7.13241">
        <ele>1034.8000488281</ele>
        <time>2020-01-11T10:31:24.000Z</time>
      </trkpt>
      <trkpt lat="43.79619" lon="7.1324">
        <ele>1034.8000488281</ele>
        <time>2020-01-11T10:31:25.000Z</time>
      </trkpt>
      <trkpt lat="43.79613" lon="7.13238">
        <ele>1034.8000488281</ele>
        <time>2020-01-11T10:31:30.000Z</time>
      </trkpt>
      <trkpt lat="43.7961" lon="7.13238">
        <ele>1034.8000488281</ele>
        <time>2020-01-11T10:31:32.000Z</time>
      </trkpt>
      <trkpt lat="43.79604" lon="7.13239">
        <ele>1035.1999511719</ele>
        <time>2020-01-11T10:31:36.000Z</time>
      </trkpt>
      <trkpt lat="43.79595" lon="7.13242">
        <ele>1035.4000244141</ele>
        <time>2020-01-11T10:31:41.000Z</time>
      </trkpt>
      <trkpt lat="43.79591" lon="7.13243">
        <ele>1035.5999755859</ele>
        <time>2020-01-11T10:31:43.000Z</time>
      </trkpt>
      <trkpt lat="43.79583" lon="7.13242">
        <ele>1036.1999511719</ele>
        <time>2020-01-11T10:31:47.000Z</time>
      </trkpt>
      <trkpt lat="43.79569" lon="7.13237">
        <ele>1036.4000244141</ele>
        <time>2020-01-11T10:31:54.000Z</time>
      </trkpt>
      <trkpt lat="43.79563" lon="7.13233">
        <ele>1036.8000488281</ele>
        <time>2020-01-11T10:31:57.000Z</time>
      </trkpt>
      <trkpt lat="43.79556" lon="7.13224">
        <ele>1037</ele>
        <time>2020-01-11T10:32:01.000Z</time>
      </trkpt>
      <trkpt lat="43.79548" lon="7.13214">
        <ele>1037.8000488281</ele>
        <time>2020-01-11T10:32:06.000Z</time>
      </trkpt>
      <trkpt lat="43.79544" lon="7.13209">
        <ele>1038.1999511719</ele>
        <time>2020-01-11T10:32:09.000Z</time>
      </trkpt>
      <trkpt lat="43.79542" lon="7.13194">
        <ele>1038.4000244141</ele>
        <time>2020-01-11T10:32:13.000Z</time>
      </trkpt>
      <trkpt lat="43.79544" lon="7.13188">
        <ele>1038.4000244141</ele>
        <time>2020-01-11T10:32:14.000Z</time>
      </trkpt>
      <trkpt lat="43.7955" lon="7.13179">
        <ele>1037.5999755859</ele>
        <time>2020-01-11T10:32:16.000Z</time>
      </trkpt>
      <trkpt lat="43.79553" lon="7.13174">
        <ele>1037.1999511719</ele>
        <time>2020-01-11T10:32:17.000Z</time>
      </trkpt>
      <trkpt lat="43.79556" lon="7.13169">
        <ele>1036.5999755859</ele>
        <time>2020-01-11T10:32:18.000Z</time>
      </trkpt>
      <trkpt lat="43.79561" lon="7.13158">
        <ele>1036</ele>
        <time>2020-01-11T10:32:20.000Z</time>
      </trkpt>
      <trkpt lat="43.79563" lon="7.13152">
        <ele>1035.5999755859</ele>
        <time>2020-01-11T10:32:21.000Z</time>
      </trkpt>
      <trkpt lat="43.79568" lon="7.13133">
        <ele>1035.5999755859</ele>
        <time>2020-01-11T10:32:26.000Z</time>
      </trkpt>
      <trkpt lat="43.79571" lon="7.1311">
        <ele>1036.1999511719</ele>
        <time>2020-01-11T10:32:32.000Z</time>
      </trkpt>
      <trkpt lat="43.79567" lon="7.13085">
        <ele>1036</ele>
        <time>2020-01-11T10:32:38.000Z</time>
      </trkpt>
      <trkpt lat="43.79562" lon="7.13073">
        <ele>1036.5999755859</ele>
        <time>2020-01-11T10:32:43.000Z</time>
      </trkpt>
      <trkpt lat="43.79561" lon="7.13069">
        <ele>1037.1999511719</ele>
        <time>2020-01-11T10:32:48.000Z</time>
      </trkpt>
      <trkpt lat="43.79561" lon="7.13069">
        <ele>1037.4000244141</ele>
        <time>2020-01-11T10:32:54.000Z</time>
      </trkpt>
      <trkpt lat="43.79561" lon="7.13068">
        <ele>1037.4000244141</ele>
        <time>2020-01-11T10:33:04.000Z</time>
      </trkpt>
      <trkpt lat="43.79561" lon="7.13067">
        <ele>1037.4000244141</ele>
        <time>2020-01-11T10:33:11.000Z</time>
      </trkpt>
      <trkpt lat="43.79561" lon="7.13067">
        <ele>1037.4000244141</ele>
        <time>2020-01-11T10:33:22.000Z</time>
      </trkpt>
      <trkpt lat="43.79561" lon="7.13067">
        <ele>1037.5999755859</ele>
        <time>2020-01-11T10:33:25.000Z</time>
      </trkpt>
      <trkpt lat="43.79561" lon="7.13067">
        <ele>1037.5999755859</ele>
        <time>2020-01-11T10:33:31.000Z</time>
      </trkpt>
      <trkpt lat="43.79561" lon="7.13065">
        <ele>1037.5999755859</ele>
        <time>2020-01-11T10:33:34.000Z</time>
      </trkpt>
      <trkpt lat="43.7956" lon="7.13062">
        <ele>1037.5999755859</ele>
        <time>2020-01-11T10:33:36.000Z</time>
      </trkpt>
      <trkpt lat="43.79557" lon="7.13058">
        <ele>1037.4000244141</ele>
        <time>2020-01-11T10:33:38.000Z</time>
      </trkpt>
      <trkpt lat="43.79554" lon="7.13051">
        <ele>1037.4000244141</ele>
        <time>2020-01-11T10:33:40.000Z</time>
      </trkpt>
      <trkpt lat="43.79541" lon="7.1303">
        <ele>1036.8000488281</ele>
        <time>2020-01-11T10:33:46.000Z</time>
      </trkpt>
      <trkpt lat="43.79534" lon="7.13026">
        <ele>1036.4000244141</ele>
        <time>2020-01-11T10:33:48.000Z</time>
      </trkpt>
      <trkpt lat="43.79525" lon="7.13017">
        <ele>1035.1999511719</ele>
        <time>2020-01-11T10:33:51.000Z</time>
      </trkpt>
      <trkpt lat="43.79524" lon="7.13014">
        <ele>1035</ele>
        <time>2020-01-11T10:33:52.000Z</time>
      </trkpt>
      <trkpt lat="43.79523" lon="7.13011">
        <ele>1034.5999755859</ele>
        <time>2020-01-11T10:33:54.000Z</time>
      </trkpt>
      <trkpt lat="43.79515" lon="7.13">
        <ele>1034.5999755859</ele>
        <time>2020-01-11T10:33:59.000Z</time>
      </trkpt>
      <trkpt lat="43.79507" lon="7.13001">
        <ele>1034.5999755859</ele>
        <time>2020-01-11T10:34:03.000Z</time>
      </trkpt>
      <trkpt lat="43.79503" lon="7.13007">
        <ele>1034.5999755859</ele>
        <time>2020-01-11T10:34:07.000Z</time>
      </trkpt>
      <trkpt lat="43.79494" lon="7.13008">
        <ele>1035</ele>
        <time>2020-01-11T10:34:12.000Z</time>
      </trkpt>
      <trkpt lat="43.79474" lon="7.13007">
        <ele>1035</ele>
        <time>2020-01-11T10:34:19.000Z</time>
      </trkpt>
      <trkpt lat="43.79464" lon="7.13003">
        <ele>1034.8000488281</ele>
        <time>2020-01-11T10:34:22.000Z</time>
      </trkpt>
      <trkpt lat="43.79462" lon="7.13">
        <ele>1034.5999755859</ele>
        <time>2020-01-11T10:34:23.000Z</time>
      </trkpt>
      <trkpt lat="43.79456" lon="7.12988">
        <ele>1034.1999511719</ele>
        <time>2020-01-11T10:34:26.000Z</time>
      </trkpt>
      <trkpt lat="43.79452" lon="7.12975">
        <ele>1033.5999755859</ele>
        <time>2020-01-11T10:34:29.000Z</time>
      </trkpt>
      <trkpt lat="43.79448" lon="7.12963">
        <ele>1033</ele>
        <time>2020-01-11T10:34:32.000Z</time>
      </trkpt>
      <trkpt lat="43.79444" lon="7.12952">
        <ele>1032.1999511719</ele>
        <time>2020-01-11T10:34:35.000Z</time>
      </trkpt>
      <trkpt lat="43.79432" lon="7.12936">
        <ele>1032.1999511719</ele>
        <time>2020-01-11T10:34:41.000Z</time>
      </trkpt>
      <trkpt lat="43.79427" lon="7.12919">
        <ele>1032.4000244141</ele>
        <time>2020-01-11T10:34:46.000Z</time>
      </trkpt>
      <trkpt lat="43.79417" lon="7.12893">
        <ele>1032.5999755859</ele>
        <time>2020-01-11T10:34:54.000Z</time>
      </trkpt>
      <trkpt lat="43.79407" lon="7.12879">
        <ele>1033</ele>
        <time>2020-01-11T10:35:00.000Z</time>
      </trkpt>
      <trkpt lat="43.79394" lon="7.12869">
        <ele>1033.1999511719</ele>
        <time>2020-01-11T10:35:06.000Z</time>
      </trkpt>
      <trkpt lat="43.79385" lon="7.12852">
        <ele>1032</ele>
        <time>2020-01-11T10:35:11.000Z</time>
      </trkpt>
      <trkpt lat="43.79385" lon="7.12847">
        <ele>1031.5999755859</ele>
        <time>2020-01-11T10:35:12.000Z</time>
      </trkpt>
      <trkpt lat="43.79383" lon="7.12829">
        <ele>1030.5999755859</ele>
        <time>2020-01-11T10:35:16.000Z</time>
      </trkpt>
      <trkpt lat="43.79376" lon="7.12813">
        <ele>1030.1999511719</ele>
        <time>2020-01-11T10:35:22.000Z</time>
      </trkpt>
      <trkpt lat="43.79367" lon="7.12792">
        <ele>1031.5999755859</ele>
        <time>2020-01-11T10:35:30.000Z</time>
      </trkpt>
      <trkpt lat="43.79366" lon="7.1279">
        <ele>1031.8000488281</ele>
        <time>2020-01-11T10:35:31.000Z</time>
      </trkpt>
      <trkpt lat="43.79364" lon="7.12773">
        <ele>1032.8000488281</ele>
        <time>2020-01-11T10:35:36.000Z</time>
      </trkpt>
      <trkpt lat="43.79364" lon="7.1277">
        <ele>1033</ele>
        <time>2020-01-11T10:35:37.000Z</time>
      </trkpt>
      <trkpt lat="43.7936" lon="7.12762">
        <ele>1033.1999511719</ele>
        <time>2020-01-11T10:35:40.000Z</time>
      </trkpt>
      <trkpt lat="43.79358" lon="7.12755">
        <ele>1033.5999755859</ele>
        <time>2020-01-11T10:35:44.000Z</time>
      </trkpt>
      <trkpt lat="43.79357" lon="7.12751">
        <ele>1034</ele>
        <time>2020-01-11T10:35:50.000Z</time>
      </trkpt>
      <trkpt lat="43.79355" lon="7.12742">
        <ele>1033.8000488281</ele>
        <time>2020-01-11T10:35:55.000Z</time>
      </trkpt>
      <trkpt lat="43.79357" lon="7.12734">
        <ele>1034</ele>
        <time>2020-01-11T10:35:59.000Z</time>
      </trkpt>
      <trkpt lat="43.79356" lon="7.12729">
        <ele>1034</ele>
        <time>2020-01-11T10:36:01.000Z</time>
      </trkpt>
      <trkpt lat="43.79352" lon="7.12723">
        <ele>1034.1999511719</ele>
        <time>2020-01-11T10:36:04.000Z</time>
      </trkpt>
      <trkpt lat="43.7935" lon="7.12718">
        <ele>1034.1999511719</ele>
        <time>2020-01-11T10:36:07.000Z</time>
      </trkpt>
      <trkpt lat="43.7935" lon="7.12718">
        <ele>1034.8000488281</ele>
        <time>2020-01-11T10:36:15.000Z</time>
      </trkpt>
      <trkpt lat="43.79349" lon="7.12717">
        <ele>1034.8000488281</ele>
        <time>2020-01-11T10:36:35.000Z</time>
      </trkpt>
      <trkpt lat="43.79346" lon="7.12716">
        <ele>1034.8000488281</ele>
        <time>2020-01-11T10:36:40.000Z</time>
      </trkpt>
      <trkpt lat="43.79335" lon="7.12719">
        <ele>1034.5999755859</ele>
        <time>2020-01-11T10:36:45.000Z</time>
      </trkpt>
      <trkpt lat="43.79326" lon="7.12722">
        <ele>1034.5999755859</ele>
        <time>2020-01-11T10:36:49.000Z</time>
      </trkpt>
      <trkpt lat="43.79324" lon="7.12724">
        <ele>1034.5999755859</ele>
        <time>2020-01-11T10:36:50.000Z</time>
      </trkpt>
      <trkpt lat="43.79306" lon="7.12741">
        <ele>1034</ele>
        <time>2020-01-11T10:36:57.000Z</time>
      </trkpt>
      <trkpt lat="43.79292" lon="7.1275">
        <ele>1033.1999511719</ele>
        <time>2020-01-11T10:37:02.000Z</time>
      </trkpt>
      <trkpt lat="43.79287" lon="7.1275">
        <ele>1033</ele>
        <time>2020-01-11T10:37:04.000Z</time>
      </trkpt>
      <trkpt lat="43.79283" lon="7.12749">
        <ele>1033</ele>
        <time>2020-01-11T10:37:06.000Z</time>
      </trkpt>
      <trkpt lat="43.79273" lon="7.12741">
        <ele>1033</ele>
        <time>2020-01-11T10:37:11.000Z</time>
      </trkpt>
      <trkpt lat="43.79264" lon="7.12727">
        <ele>1034</ele>
        <time>2020-01-11T10:37:17.000Z</time>
      </trkpt>
      <trkpt lat="43.79258" lon="7.12717">
        <ele>1035.4000244141</ele>
        <time>2020-01-11T10:37:22.000Z</time>
      </trkpt>
      <trkpt lat="43.79257" lon="7.12715">
        <ele>1035.8000488281</ele>
        <time>2020-01-11T10:37:23.000Z</time>
      </trkpt>
      <trkpt lat="43.79253" lon="7.12711">
        <ele>1036.5999755859</ele>
        <time>2020-01-11T10:37:26.000Z</time>
      </trkpt>
      <trkpt lat="43.7925" lon="7.12707">
        <ele>1037.1999511719</ele>
        <time>2020-01-11T10:37:29.000Z</time>
      </trkpt>
      <trkpt lat="43.7925" lon="7.12707">
        <ele>1037.4000244141</ele>
        <time>2020-01-11T10:37:31.000Z</time>
      </trkpt>
      <trkpt lat="43.7925" lon="7.12707">
        <ele>1037.5999755859</ele>
        <time>2020-01-11T10:37:32.000Z</time>
      </trkpt>
      <trkpt lat="43.7925" lon="7.12707">
        <ele>1038</ele>
        <time>2020-01-11T10:37:38.000Z</time>
      </trkpt>
      <trkpt lat="43.7925" lon="7.12707">
        <ele>1037.8000488281</ele>
        <time>2020-01-11T10:37:46.000Z</time>
      </trkpt>
      <trkpt lat="43.7925" lon="7.12708">
        <ele>1037.8000488281</ele>
        <time>2020-01-11T10:37:49.000Z</time>
      </trkpt>
      <trkpt lat="43.7925" lon="7.12707">
        <ele>1037.4000244141</ele>
        <time>2020-01-11T10:37:54.000Z</time>
      </trkpt>
      <trkpt lat="43.79249" lon="7.12708">
        <ele>1038</ele>
        <time>2020-01-11T10:38:01.000Z</time>
      </trkpt>
      <trkpt lat="43.79249" lon="7.12708">
        <ele>1037.8000488281</ele>
        <time>2020-01-11T10:38:08.000Z</time>
      </trkpt>
      <trkpt lat="43.7925" lon="7.12708">
        <ele>1037.8000488281</ele>
        <time>2020-01-11T10:38:13.000Z</time>
      </trkpt>
      <trkpt lat="43.7925" lon="7.12709">
        <ele>1037.8000488281</ele>
        <time>2020-01-11T10:38:14.000Z</time>
      </trkpt>
      <trkpt lat="43.79254" lon="7.12715">
        <ele>1037.5999755859</ele>
        <time>2020-01-11T10:38:17.000Z</time>
      </trkpt>
      <trkpt lat="43.79262" lon="7.12728">
        <ele>1037</ele>
        <time>2020-01-11T10:38:21.000Z</time>
      </trkpt>
      <trkpt lat="43.79265" lon="7.12732">
        <ele>1036.5999755859</ele>
        <time>2020-01-11T10:38:22.000Z</time>
      </trkpt>
      <trkpt lat="43.79271" lon="7.12741">
        <ele>1035.1999511719</ele>
        <time>2020-01-11T10:38:24.000Z</time>
      </trkpt>
      <trkpt lat="43.79277" lon="7.12748">
        <ele>1034.1999511719</ele>
        <time>2020-01-11T10:38:26.000Z</time>
      </trkpt>
      <trkpt lat="43.79288" lon="7.1275">
        <ele>1033.5999755859</ele>
        <time>2020-01-11T10:38:29.000Z</time>
      </trkpt>
      <trkpt lat="43.79293" lon="7.12752">
        <ele>1033.1999511719</ele>
        <time>2020-01-11T10:38:31.000Z</time>
      </trkpt>
      <trkpt lat="43.79296" lon="7.12758">
        <ele>1032.8000488281</ele>
        <time>2020-01-11T10:38:33.000Z</time>
      </trkpt>
      <trkpt lat="43.79295" lon="7.12767">
        <ele>1032.8000488281</ele>
        <time>2020-01-11T10:38:35.000Z</time>
      </trkpt>
      <trkpt lat="43.79294" lon="7.12775">
        <ele>1032.5999755859</ele>
        <time>2020-01-11T10:38:37.000Z</time>
      </trkpt>
      <trkpt lat="43.79293" lon="7.12784">
        <ele>1031.8000488281</ele>
        <time>2020-01-11T10:38:39.000Z</time>
      </trkpt>
      <trkpt lat="43.79292" lon="7.12796">
        <ele>1030.5999755859</ele>
        <time>2020-01-11T10:38:42.000Z</time>
      </trkpt>
      <trkpt lat="43.79292" lon="7.128">
        <ele>1030.4000244141</ele>
        <time>2020-01-11T10:38:43.000Z</time>
      </trkpt>
      <trkpt lat="43.7929" lon="7.12819">
        <ele>1029.4000244141</ele>
        <time>2020-01-11T10:38:47.000Z</time>
      </trkpt>
      <trkpt lat="43.7929" lon="7.12824">
        <ele>1029.1999511719</ele>
        <time>2020-01-11T10:38:48.000Z</time>
      </trkpt>
      <trkpt lat="43.79288" lon="7.12834">
        <ele>1028</ele>
        <time>2020-01-11T10:38:50.000Z</time>
      </trkpt>
      <trkpt lat="43.79287" lon="7.12844">
        <ele>1026.8000488281</ele>
        <time>2020-01-11T10:38:52.000Z</time>
      </trkpt>
      <trkpt lat="43.79284" lon="7.12859">
        <ele>1025.8000488281</ele>
        <time>2020-01-11T10:38:55.000Z</time>
      </trkpt>
      <trkpt lat="43.79283" lon="7.12871">
        <ele>1024</ele>
        <time>2020-01-11T10:38:57.000Z</time>
      </trkpt>
      <trkpt lat="43.79281" lon="7.12883">
        <ele>1022</ele>
        <time>2020-01-11T10:38:59.000Z</time>
      </trkpt>
      <trkpt lat="43.79277" lon="7.12892">
        <ele>1020.799987793</ele>
        <time>2020-01-11T10:39:01.000Z</time>
      </trkpt>
      <trkpt lat="43.79268" lon="7.12894">
        <ele>1019.799987793</ele>
        <time>2020-01-11T10:39:04.000Z</time>
      </trkpt>
      <trkpt lat="43.79265" lon="7.12891">
        <ele>1019.200012207</ele>
        <time>2020-01-11T10:39:05.000Z</time>
      </trkpt>
      <trkpt lat="43.79256" lon="7.12887">
        <ele>1018.200012207</ele>
        <time>2020-01-11T10:39:07.000Z</time>
      </trkpt>
      <trkpt lat="43.79252" lon="7.12887">
        <ele>1017.200012207</ele>
        <time>2020-01-11T10:39:08.000Z</time>
      </trkpt>
      <trkpt lat="43.79247" lon="7.12888">
        <ele>1016.4000244141</ele>
        <time>2020-01-11T10:39:09.000Z</time>
      </trkpt>
      <trkpt lat="43.79238" lon="7.1289">
        <ele>1014.5999755859</ele>
        <time>2020-01-11T10:39:11.000Z</time>
      </trkpt>
      <trkpt lat="43.79231" lon="7.12893">
        <ele>1013</ele>
        <time>2020-01-11T10:39:13.000Z</time>
      </trkpt>
      <trkpt lat="43.79229" lon="7.129">
        <ele>1011.200012207</ele>
        <time>2020-01-11T10:39:15.000Z</time>
      </trkpt>
      <trkpt lat="43.79231" lon="7.12904">
        <ele>1010.4000244141</ele>
        <time>2020-01-11T10:39:16.000Z</time>
      </trkpt>
      <trkpt lat="43.79234" lon="7.12906">
        <ele>1010.200012207</ele>
        <time>2020-01-11T10:39:17.000Z</time>
      </trkpt>
      <trkpt lat="43.79241" lon="7.12909">
        <ele>1008.799987793</ele>
        <time>2020-01-11T10:39:19.000Z</time>
      </trkpt>
      <trkpt lat="43.79248" lon="7.12922">
        <ele>1007.4000244141</ele>
        <time>2020-01-11T10:39:22.000Z</time>
      </trkpt>
      <trkpt lat="43.79243" lon="7.12935">
        <ele>1005.5999755859</ele>
        <time>2020-01-11T10:39:25.000Z</time>
      </trkpt>
      <trkpt lat="43.79238" lon="7.12937">
        <ele>1004</ele>
        <time>2020-01-11T10:39:27.000Z</time>
      </trkpt>
      <trkpt lat="43.79232" lon="7.1294">
        <ele>1002.799987793</ele>
        <time>2020-01-11T10:39:29.000Z</time>
      </trkpt>
      <trkpt lat="43.7923" lon="7.12944">
        <ele>1002.4000244141</ele>
        <time>2020-01-11T10:39:30.000Z</time>
      </trkpt>
      <trkpt lat="43.79229" lon="7.12948">
        <ele>1001.5999755859</ele>
        <time>2020-01-11T10:39:31.000Z</time>
      </trkpt>
      <trkpt lat="43.79229" lon="7.12958">
        <ele>999.79998779297</ele>
        <time>2020-01-11T10:39:33.000Z</time>
      </trkpt>
      <trkpt lat="43.79229" lon="7.12964">
        <ele>999</ele>
        <time>2020-01-11T10:39:34.000Z</time>
      </trkpt>
      <trkpt lat="43.7923" lon="7.1297">
        <ele>998</ele>
        <time>2020-01-11T10:39:35.000Z</time>
      </trkpt>
      <trkpt lat="43.79231" lon="7.12976">
        <ele>997.20001220703</ele>
        <time>2020-01-11T10:39:36.000Z</time>
      </trkpt>
      <trkpt lat="43.79232" lon="7.12983">
        <ele>996.59997558594</ele>
        <time>2020-01-11T10:39:37.000Z</time>
      </trkpt>
      <trkpt lat="43.79234" lon="7.12989">
        <ele>995.79998779297</ele>
        <time>2020-01-11T10:39:38.000Z</time>
      </trkpt>
      <trkpt lat="43.79236" lon="7.12996">
        <ele>995.40002441406</ele>
        <time>2020-01-11T10:39:39.000Z</time>
      </trkpt>
      <trkpt lat="43.79239" lon="7.13014">
        <ele>994</ele>
        <time>2020-01-11T10:39:42.000Z</time>
      </trkpt>
      <trkpt lat="43.7924" lon="7.1302">
        <ele>993.59997558594</ele>
        <time>2020-01-11T10:39:43.000Z</time>
      </trkpt>
      <trkpt lat="43.79241" lon="7.13027">
        <ele>992.59997558594</ele>
        <time>2020-01-11T10:39:44.000Z</time>
      </trkpt>
      <trkpt lat="43.79239" lon="7.13042">
        <ele>990.79998779297</ele>
        <time>2020-01-11T10:39:46.000Z</time>
      </trkpt>
      <trkpt lat="43.79232" lon="7.13053">
        <ele>989.20001220703</ele>
        <time>2020-01-11T10:39:48.000Z</time>
      </trkpt>
      <trkpt lat="43.79226" lon="7.13055">
        <ele>988.59997558594</ele>
        <time>2020-01-11T10:39:49.000Z</time>
      </trkpt>
      <trkpt lat="43.79221" lon="7.13055">
        <ele>988</ele>
        <time>2020-01-11T10:39:50.000Z</time>
      </trkpt>
      <trkpt lat="43.79216" lon="7.13056">
        <ele>986.79998779297</ele>
        <time>2020-01-11T10:39:51.000Z</time>
      </trkpt>
      <trkpt lat="43.79211" lon="7.13056">
        <ele>986.20001220703</ele>
        <time>2020-01-11T10:39:52.000Z</time>
      </trkpt>
      <trkpt lat="43.79207" lon="7.13057">
        <ele>985.79998779297</ele>
        <time>2020-01-11T10:39:53.000Z</time>
      </trkpt>
      <trkpt lat="43.79203" lon="7.13058">
        <ele>984.79998779297</ele>
        <time>2020-01-11T10:39:54.000Z</time>
      </trkpt>
      <trkpt lat="43.79196" lon="7.1306">
        <ele>983.40002441406</ele>
        <time>2020-01-11T10:39:56.000Z</time>
      </trkpt>
      <trkpt lat="43.79192" lon="7.1306">
        <ele>982.40002441406</ele>
        <time>2020-01-11T10:39:57.000Z</time>
      </trkpt>
      <trkpt lat="43.79185" lon="7.13064">
        <ele>981</ele>
        <time>2020-01-11T10:39:59.000Z</time>
      </trkpt>
      <trkpt lat="43.79182" lon="7.13067">
        <ele>980.59997558594</ele>
        <time>2020-01-11T10:40:00.000Z</time>
      </trkpt>
      <trkpt lat="43.79179" lon="7.13071">
        <ele>980</ele>
        <time>2020-01-11T10:40:01.000Z</time>
      </trkpt>
      <trkpt lat="43.79172" lon="7.13078">
        <ele>978.79998779297</ele>
        <time>2020-01-11T10:40:03.000Z</time>
      </trkpt>
      <trkpt lat="43.79167" lon="7.1308">
        <ele>978.20001220703</ele>
        <time>2020-01-11T10:40:04.000Z</time>
      </trkpt>
      <trkpt lat="43.79163" lon="7.13079">
        <ele>977.59997558594</ele>
        <time>2020-01-11T10:40:05.000Z</time>
      </trkpt>
      <trkpt lat="43.79159" lon="7.13078">
        <ele>976.20001220703</ele>
        <time>2020-01-11T10:40:06.000Z</time>
      </trkpt>
      <trkpt lat="43.79155" lon="7.13079">
        <ele>975</ele>
        <time>2020-01-11T10:40:07.000Z</time>
      </trkpt>
      <trkpt lat="43.79151" lon="7.13079">
        <ele>974.20001220703</ele>
        <time>2020-01-11T10:40:08.000Z</time>
      </trkpt>
      <trkpt lat="43.79148" lon="7.1308">
        <ele>972.79998779297</ele>
        <time>2020-01-11T10:40:09.000Z</time>
      </trkpt>
      <trkpt lat="43.79139" lon="7.13081">
        <ele>971.20001220703</ele>
        <time>2020-01-11T10:40:12.000Z</time>
      </trkpt>
      <trkpt lat="43.79137" lon="7.13082">
        <ele>971</ele>
        <time>2020-01-11T10:40:13.000Z</time>
      </trkpt>
      <trkpt lat="43.79136" lon="7.13081">
        <ele>970</ele>
        <time>2020-01-11T10:40:15.000Z</time>
      </trkpt>
      <trkpt lat="43.79136" lon="7.13081">
        <ele>969.59997558594</ele>
        <time>2020-01-11T10:40:16.000Z</time>
      </trkpt>
      <trkpt lat="43.79136" lon="7.13081">
        <ele>968.79998779297</ele>
        <time>2020-01-11T10:40:18.000Z</time>
      </trkpt>
      <trkpt lat="43.79137" lon="7.13081">
        <ele>968.79998779297</ele>
        <time>2020-01-11T10:40:37.000Z</time>
      </trkpt>
      <trkpt lat="43.79137" lon="7.13081">
        <ele>969</ele>
        <time>2020-01-11T10:40:53.000Z</time>
      </trkpt>
      <trkpt lat="43.79137" lon="7.13081">
        <ele>968.79998779297</ele>
        <time>2020-01-11T10:41:00.000Z</time>
      </trkpt>
      <trkpt lat="43.79137" lon="7.13081">
        <ele>968.40002441406</ele>
        <time>2020-01-11T10:41:12.000Z</time>
      </trkpt>
      <trkpt lat="43.79137" lon="7.13082">
        <ele>968.59997558594</ele>
        <time>2020-01-11T10:41:26.000Z</time>
      </trkpt>
      <trkpt lat="43.79138" lon="7.13082">
        <ele>969.20001220703</ele>
        <time>2020-01-11T10:41:36.000Z</time>
      </trkpt>
      <trkpt lat="43.79138" lon="7.13082">
        <ele>968.59997558594</ele>
        <time>2020-01-11T10:41:40.000Z</time>
      </trkpt>
      <trkpt lat="43.79138" lon="7.13083">
        <ele>969.40002441406</ele>
        <time>2020-01-11T10:41:50.000Z</time>
      </trkpt>
      <trkpt lat="43.79138" lon="7.13083">
        <ele>968.79998779297</ele>
        <time>2020-01-11T10:42:00.000Z</time>
      </trkpt>
      <trkpt lat="43.79138" lon="7.13083">
        <ele>968.20001220703</ele>
        <time>2020-01-11T10:42:12.000Z</time>
      </trkpt>
      <trkpt lat="43.79138" lon="7.13083">
        <ele>968.79998779297</ele>
        <time>2020-01-11T10:42:19.000Z</time>
      </trkpt>
      <trkpt lat="43.79137" lon="7.13083">
        <ele>968.79998779297</ele>
        <time>2020-01-11T10:42:30.000Z</time>
      </trkpt>
      <trkpt lat="43.79137" lon="7.13084">
        <ele>968.79998779297</ele>
        <time>2020-01-11T10:42:46.000Z</time>
      </trkpt>
      <trkpt lat="43.79138" lon="7.13084">
        <ele>968.59997558594</ele>
        <time>2020-01-11T10:42:55.000Z</time>
      </trkpt>
      <trkpt lat="43.79138" lon="7.13083">
        <ele>968.40002441406</ele>
        <time>2020-01-11T10:43:05.000Z</time>
      </trkpt>
      <trkpt lat="43.79138" lon="7.13083">
        <ele>968.59997558594</ele>
        <time>2020-01-11T10:43:15.000Z</time>
      </trkpt>
      <trkpt lat="43.79139" lon="7.13083">
        <ele>968.40002441406</ele>
        <time>2020-01-11T10:43:25.000Z</time>
      </trkpt>
      <trkpt lat="43.79139" lon="7.13084">
        <ele>968.79998779297</ele>
        <time>2020-01-11T10:43:34.000Z</time>
      </trkpt>
      <trkpt lat="43.7914" lon="7.13084">
        <ele>968.59997558594</ele>
        <time>2020-01-11T10:43:40.000Z</time>
      </trkpt>
      <trkpt lat="43.7914" lon="7.13084">
        <ele>968.59997558594</ele>
        <time>2020-01-11T10:43:51.000Z</time>
      </trkpt>
      <trkpt lat="43.79139" lon="7.13084">
        <ele>968.59997558594</ele>
        <time>2020-01-11T10:44:03.000Z</time>
      </trkpt>
      <trkpt lat="43.79139" lon="7.13084">
        <ele>968.59997558594</ele>
        <time>2020-01-11T10:44:14.000Z</time>
      </trkpt>
      <trkpt lat="43.79139" lon="7.13084">
        <ele>968.59997558594</ele>
        <time>2020-01-11T10:44:25.000Z</time>
      </trkpt>
      <trkpt lat="43.79139" lon="7.13084">
        <ele>968.59997558594</ele>
        <time>2020-01-11T10:44:38.000Z</time>
      </trkpt>
      <trkpt lat="43.79139" lon="7.13084">
        <ele>968.59997558594</ele>
        <time>2020-01-11T10:44:45.000Z</time>
      </trkpt>
      <trkpt lat="43.79139" lon="7.13084">
        <ele>969.20001220703</ele>
        <time>2020-01-11T10:44:56.000Z</time>
      </trkpt>
      <trkpt lat="43.79138" lon="7.13084">
        <ele>969</ele>
        <time>2020-01-11T10:45:03.000Z</time>
      </trkpt>
      <trkpt lat="43.79138" lon="7.13084">
        <ele>969.40002441406</ele>
        <time>2020-01-11T10:45:10.000Z</time>
      </trkpt>
      <trkpt lat="43.79138" lon="7.13084">
        <ele>968.79998779297</ele>
        <time>2020-01-11T10:45:17.000Z</time>
      </trkpt>
      <trkpt lat="43.79139" lon="7.13084">
        <ele>968.79998779297</ele>
        <time>2020-01-11T10:45:32.000Z</time>
      </trkpt>
      <trkpt lat="43.79139" lon="7.13084">
        <ele>969.20001220703</ele>
        <time>2020-01-11T10:45:46.000Z</time>
      </trkpt>
      <trkpt lat="43.7914" lon="7.13084">
        <ele>968.79998779297</ele>
        <time>2020-01-11T10:46:02.000Z</time>
      </trkpt>
      <trkpt lat="43.7914" lon="7.13084">
        <ele>970</ele>
        <time>2020-01-11T10:46:08.000Z</time>
      </trkpt>
      <trkpt lat="43.7914" lon="7.13084">
        <ele>970</ele>
        <time>2020-01-11T10:46:12.000Z</time>
      </trkpt>
      <trkpt lat="43.7914" lon="7.13084">
        <ele>969.79998779297</ele>
        <time>2020-01-11T10:46:16.000Z</time>
      </trkpt>
      <trkpt lat="43.7914" lon="7.13084">
        <ele>968.79998779297</ele>
        <time>2020-01-11T10:46:20.000Z</time>
      </trkpt>
      <trkpt lat="43.7914" lon="7.13085">
        <ele>968.59997558594</ele>
        <time>2020-01-11T10:46:28.000Z</time>
      </trkpt>
      <trkpt lat="43.7914" lon="7.13085">
        <ele>968.59997558594</ele>
        <time>2020-01-11T10:46:36.000Z</time>
      </trkpt>
      <trkpt lat="43.7914" lon="7.13085">
        <ele>969.20001220703</ele>
        <time>2020-01-11T10:46:53.000Z</time>
      </trkpt>
      <trkpt lat="43.79139" lon="7.13084">
        <ele>969.20001220703</ele>
        <time>2020-01-11T10:47:07.000Z</time>
      </trkpt>
      <trkpt lat="43.79139" lon="7.13085">
        <ele>969.40002441406</ele>
        <time>2020-01-11T10:47:16.000Z</time>
      </trkpt>
      <trkpt lat="43.79139" lon="7.13085">
        <ele>969</ele>
        <time>2020-01-11T10:47:22.000Z</time>
      </trkpt>
      <trkpt lat="43.79139" lon="7.13085">
        <ele>969.20001220703</ele>
        <time>2020-01-11T10:47:30.000Z</time>
      </trkpt>
      <trkpt lat="43.79139" lon="7.13085">
        <ele>969.59997558594</ele>
        <time>2020-01-11T10:47:36.000Z</time>
      </trkpt>
      <trkpt lat="43.79139" lon="7.13085">
        <ele>969.79998779297</ele>
        <time>2020-01-11T10:47:39.000Z</time>
      </trkpt>
      <trkpt lat="43.79139" lon="7.13085">
        <ele>969.79998779297</ele>
        <time>2020-01-11T10:47:41.000Z</time>
      </trkpt>
      <trkpt lat="43.79139" lon="7.13085">
        <ele>968.79998779297</ele>
        <time>2020-01-11T10:47:47.000Z</time>
      </trkpt>
      <trkpt lat="43.79139" lon="7.13085">
        <ele>968.59997558594</ele>
        <time>2020-01-11T10:47:51.000Z</time>
      </trkpt>
      <trkpt lat="43.79134" lon="7.13083">
        <ele>969</ele>
        <time>2020-01-11T10:47:57.000Z</time>
      </trkpt>
      <trkpt lat="43.79124" lon="7.13075">
        <ele>968.20001220703</ele>
        <time>2020-01-11T10:48:01.000Z</time>
      </trkpt>
      <trkpt lat="43.79124" lon="7.13075">
        <ele>967.40002441406</ele>
        <time>2020-01-11T10:48:03.000Z</time>
      </trkpt>
      <trkpt lat="43.79123" lon="7.13074">
        <ele>966.59997558594</ele>
        <time>2020-01-11T10:48:06.000Z</time>
      </trkpt>
      <trkpt lat="43.79121" lon="7.13073">
        <ele>966.40002441406</ele>
        <time>2020-01-11T10:48:07.000Z</time>
      </trkpt>
      <trkpt lat="43.79115" lon="7.1307">
        <ele>966.20001220703</ele>
        <time>2020-01-11T10:48:10.000Z</time>
      </trkpt>
      <trkpt lat="43.79104" lon="7.13063">
        <ele>965.79998779297</ele>
        <time>2020-01-11T10:48:14.000Z</time>
      </trkpt>
      <trkpt lat="43.79101" lon="7.13064">
        <ele>965</ele>
        <time>2020-01-11T10:48:15.000Z</time>
      </trkpt>
      <trkpt lat="43.79093" lon="7.13069">
        <ele>963.59997558594</ele>
        <time>2020-01-11T10:48:17.000Z</time>
      </trkpt>
      <trkpt lat="43.79086" lon="7.13071">
        <ele>961.59997558594</ele>
        <time>2020-01-11T10:48:19.000Z</time>
      </trkpt>
      <trkpt lat="43.79076" lon="7.13067">
        <ele>960.20001220703</ele>
        <time>2020-01-11T10:48:22.000Z</time>
      </trkpt>
      <trkpt lat="43.79073" lon="7.13069">
        <ele>959.59997558594</ele>
        <time>2020-01-11T10:48:23.000Z</time>
      </trkpt>
      <trkpt lat="43.7907" lon="7.13072">
        <ele>959.20001220703</ele>
        <time>2020-01-11T10:48:24.000Z</time>
      </trkpt>
      <trkpt lat="43.79066" lon="7.13074">
        <ele>959</ele>
        <time>2020-01-11T10:48:25.000Z</time>
      </trkpt>
      <trkpt lat="43.79052" lon="7.13083">
        <ele>957.59997558594</ele>
        <time>2020-01-11T10:48:29.000Z</time>
      </trkpt>
      <trkpt lat="43.79048" lon="7.13086">
        <ele>956.59997558594</ele>
        <time>2020-01-11T10:48:30.000Z</time>
      </trkpt>
      <trkpt lat="43.79041" lon="7.13091">
        <ele>954.79998779297</ele>
        <time>2020-01-11T10:48:32.000Z</time>
      </trkpt>
      <trkpt lat="43.79038" lon="7.13095">
        <ele>953.79998779297</ele>
        <time>2020-01-11T10:48:33.000Z</time>
      </trkpt>
      <trkpt lat="43.79036" lon="7.131">
        <ele>952.59997558594</ele>
        <time>2020-01-11T10:48:34.000Z</time>
      </trkpt>
      <trkpt lat="43.79033" lon="7.1311">
        <ele>951.40002441406</ele>
        <time>2020-01-11T10:48:36.000Z</time>
      </trkpt>
      <trkpt lat="43.7903" lon="7.13117">
        <ele>950.79998779297</ele>
        <time>2020-01-11T10:48:38.000Z</time>
      </trkpt>
      <trkpt lat="43.79027" lon="7.13121">
        <ele>950.79998779297</ele>
        <time>2020-01-11T10:48:39.000Z</time>
      </trkpt>
      <trkpt lat="43.79023" lon="7.13126">
        <ele>950.40002441406</ele>
        <time>2020-01-11T10:48:41.000Z</time>
      </trkpt>
      <trkpt lat="43.79015" lon="7.13132">
        <ele>950.20001220703</ele>
        <time>2020-01-11T10:48:44.000Z</time>
      </trkpt>
      <trkpt lat="43.78999" lon="7.13141">
        <ele>950.40002441406</ele>
        <time>2020-01-11T10:48:50.000Z</time>
      </trkpt>
      <trkpt lat="43.78982" lon="7.13159">
        <ele>951.20001220703</ele>
        <time>2020-01-11T10:48:57.000Z</time>
      </trkpt>
      <trkpt lat="43.7898" lon="7.13161">
        <ele>951.40002441406</ele>
        <time>2020-01-11T10:48:58.000Z</time>
      </trkpt>
      <trkpt lat="43.78964" lon="7.1318">
        <ele>952.59997558594</ele>
        <time>2020-01-11T10:49:04.000Z</time>
      </trkpt>
      <trkpt lat="43.78946" lon="7.13208">
        <ele>953.20001220703</ele>
        <time>2020-01-11T10:49:11.000Z</time>
      </trkpt>
      <trkpt lat="43.78941" lon="7.13217">
        <ele>953.20001220703</ele>
        <time>2020-01-11T10:49:13.000Z</time>
      </trkpt>
      <trkpt lat="43.78933" lon="7.13221">
        <ele>953</ele>
        <time>2020-01-11T10:49:15.000Z</time>
      </trkpt>
      <trkpt lat="43.78909" lon="7.1323">
        <ele>951.20001220703</ele>
        <time>2020-01-11T10:49:20.000Z</time>
      </trkpt>
      <trkpt lat="43.78904" lon="7.13231">
        <ele>951</ele>
        <time>2020-01-11T10:49:21.000Z</time>
      </trkpt>
      <trkpt lat="43.78899" lon="7.13231">
        <ele>950.59997558594</ele>
        <time>2020-01-11T10:49:22.000Z</time>
      </trkpt>
      <trkpt lat="43.78895" lon="7.13233">
        <ele>950.40002441406</ele>
        <time>2020-01-11T10:49:23.000Z</time>
      </trkpt>
      <trkpt lat="43.78886" lon="7.13239">
        <ele>950.20001220703</ele>
        <time>2020-01-11T10:49:25.000Z</time>
      </trkpt>
      <trkpt lat="43.78883" lon="7.13242">
        <ele>950.20001220703</ele>
        <time>2020-01-11T10:49:26.000Z</time>
      </trkpt>
      <trkpt lat="43.7887" lon="7.13251">
        <ele>950.20001220703</ele>
        <time>2020-01-11T10:49:29.000Z</time>
      </trkpt>
      <trkpt lat="43.78866" lon="7.13253">
        <ele>950</ele>
        <time>2020-01-11T10:49:30.000Z</time>
      </trkpt>
      <trkpt lat="43.78858" lon="7.13259">
        <ele>950</ele>
        <time>2020-01-11T10:49:32.000Z</time>
      </trkpt>
      <trkpt lat="43.78849" lon="7.13263">
        <ele>950</ele>
        <time>2020-01-11T10:49:35.000Z</time>
      </trkpt>
      <trkpt lat="43.7884" lon="7.13276">
        <ele>950.40002441406</ele>
        <time>2020-01-11T10:49:40.000Z</time>
      </trkpt>
      <trkpt lat="43.78837" lon="7.1329">
        <ele>950.79998779297</ele>
        <time>2020-01-11T10:49:45.000Z</time>
      </trkpt>
      <trkpt lat="43.78835" lon="7.13292">
        <ele>951.20001220703</ele>
        <time>2020-01-11T10:49:46.000Z</time>
      </trkpt>
      <trkpt lat="43.78834" lon="7.13294">
        <ele>951.40002441406</ele>
        <time>2020-01-11T10:49:47.000Z</time>
      </trkpt>
      <trkpt lat="43.78827" lon="7.13302">
        <ele>951.59997558594</ele>
        <time>2020-01-11T10:49:50.000Z</time>
      </trkpt>
      <trkpt lat="43.78806" lon="7.13315">
        <ele>951.20001220703</ele>
        <time>2020-01-11T10:49:56.000Z</time>
      </trkpt>
      <trkpt lat="43.78775" lon="7.13328">
        <ele>950.40002441406</ele>
        <time>2020-01-11T10:50:03.000Z</time>
      </trkpt>
      <trkpt lat="43.78759" lon="7.1333">
        <ele>950</ele>
        <time>2020-01-11T10:50:08.000Z</time>
      </trkpt>
      <trkpt lat="43.78748" lon="7.13327">
        <ele>949.20001220703</ele>
        <time>2020-01-11T10:50:11.000Z</time>
      </trkpt>
      <trkpt lat="43.78741" lon="7.13325">
        <ele>948.40002441406</ele>
        <time>2020-01-11T10:50:13.000Z</time>
      </trkpt>
      <trkpt lat="43.78738" lon="7.13323">
        <ele>947.79998779297</ele>
        <time>2020-01-11T10:50:14.000Z</time>
      </trkpt>
      <trkpt lat="43.78728" lon="7.13315">
        <ele>946.59997558594</ele>
        <time>2020-01-11T10:50:17.000Z</time>
      </trkpt>
      <trkpt lat="43.78726" lon="7.13315">
        <ele>946.20001220703</ele>
        <time>2020-01-11T10:50:18.000Z</time>
      </trkpt>
      <trkpt lat="43.78721" lon="7.13321">
        <ele>945.59997558594</ele>
        <time>2020-01-11T10:50:20.000Z</time>
      </trkpt>
      <trkpt lat="43.78719" lon="7.13324">
        <ele>945.59997558594</ele>
        <time>2020-01-11T10:50:21.000Z</time>
      </trkpt>
      <trkpt lat="43.7871" lon="7.13326">
        <ele>944.59997558594</ele>
        <time>2020-01-11T10:50:24.000Z</time>
      </trkpt>
      <trkpt lat="43.78708" lon="7.13324">
        <ele>944.40002441406</ele>
        <time>2020-01-11T10:50:25.000Z</time>
      </trkpt>
      <trkpt lat="43.78705" lon="7.13323">
        <ele>943.79998779297</ele>
        <time>2020-01-11T10:50:27.000Z</time>
      </trkpt>
      <trkpt lat="43.78703" lon="7.13322">
        <ele>943.79998779297</ele>
        <time>2020-01-11T10:50:28.000Z</time>
      </trkpt>
      <trkpt lat="43.7869" lon="7.13316">
        <ele>943.79998779297</ele>
        <time>2020-01-11T10:50:32.000Z</time>
      </trkpt>
      <trkpt lat="43.78687" lon="7.13317">
        <ele>943.59997558594</ele>
        <time>2020-01-11T10:50:33.000Z</time>
      </trkpt>
      <trkpt lat="43.78677" lon="7.13317">
        <ele>943.40002441406</ele>
        <time>2020-01-11T10:50:36.000Z</time>
      </trkpt>
      <trkpt lat="43.78655" lon="7.13315">
        <ele>944.40002441406</ele>
        <time>2020-01-11T10:50:42.000Z</time>
      </trkpt>
      <trkpt lat="43.78637" lon="7.13317">
        <ele>944.79998779297</ele>
        <time>2020-01-11T10:50:48.000Z</time>
      </trkpt>
      <trkpt lat="43.78634" lon="7.13316">
        <ele>944.79998779297</ele>
        <time>2020-01-11T10:50:52.000Z</time>
      </trkpt>
      <trkpt lat="43.78632" lon="7.13312">
        <ele>945</ele>
        <time>2020-01-11T10:50:56.000Z</time>
      </trkpt>
      <trkpt lat="43.78632" lon="7.13311">
        <ele>945</ele>
        <time>2020-01-11T10:50:57.000Z</time>
      </trkpt>
      <trkpt lat="43.78632" lon="7.13311">
        <ele>944.59997558594</ele>
        <time>2020-01-11T10:51:04.000Z</time>
      </trkpt>
      <trkpt lat="43.78631" lon="7.1331">
        <ele>944.40002441406</ele>
        <time>2020-01-11T10:51:20.000Z</time>
      </trkpt>
      <trkpt lat="43.78631" lon="7.13309">
        <ele>944.59997558594</ele>
        <time>2020-01-11T10:51:34.000Z</time>
      </trkpt>
      <trkpt lat="43.7863" lon="7.13309">
        <ele>944.40002441406</ele>
        <time>2020-01-11T10:51:47.000Z</time>
      </trkpt>
      <trkpt lat="43.7863" lon="7.13308">
        <ele>944.59997558594</ele>
        <time>2020-01-11T10:51:49.000Z</time>
      </trkpt>
      <trkpt lat="43.78626" lon="7.13303">
        <ele>944.59997558594</ele>
        <time>2020-01-11T10:51:52.000Z</time>
      </trkpt>
      <trkpt lat="43.78619" lon="7.13295">
        <ele>944</ele>
        <time>2020-01-11T10:51:58.000Z</time>
      </trkpt>
      <trkpt lat="43.78613" lon="7.1329">
        <ele>943.20001220703</ele>
        <time>2020-01-11T10:52:01.000Z</time>
      </trkpt>
      <trkpt lat="43.78607" lon="7.13287">
        <ele>942.59997558594</ele>
        <time>2020-01-11T10:52:03.000Z</time>
      </trkpt>
      <trkpt lat="43.78599" lon="7.13284">
        <ele>942</ele>
        <time>2020-01-11T10:52:05.000Z</time>
      </trkpt>
      <trkpt lat="43.7859" lon="7.1328">
        <ele>941.20001220703</ele>
        <time>2020-01-11T10:52:07.000Z</time>
      </trkpt>
      <trkpt lat="43.78586" lon="7.13276">
        <ele>940.59997558594</ele>
        <time>2020-01-11T10:52:08.000Z</time>
      </trkpt>
      <trkpt lat="43.78582" lon="7.13271">
        <ele>940.20001220703</ele>
        <time>2020-01-11T10:52:09.000Z</time>
      </trkpt>
      <trkpt lat="43.78577" lon="7.13259">
        <ele>939</ele>
        <time>2020-01-11T10:52:11.000Z</time>
      </trkpt>
      <trkpt lat="43.78567" lon="7.13246">
        <ele>937.40002441406</ele>
        <time>2020-01-11T10:52:14.000Z</time>
      </trkpt>
      <trkpt lat="43.78555" lon="7.13241">
        <ele>935.79998779297</ele>
        <time>2020-01-11T10:52:16.000Z</time>
      </trkpt>
      <trkpt lat="43.78546" lon="7.13232">
        <ele>933.79998779297</ele>
        <time>2020-01-11T10:52:18.000Z</time>
      </trkpt>
      <trkpt lat="43.78541" lon="7.13227">
        <ele>932.79998779297</ele>
        <time>2020-01-11T10:52:19.000Z</time>
      </trkpt>
      <trkpt lat="43.78526" lon="7.13212">
        <ele>931.20001220703</ele>
        <time>2020-01-11T10:52:22.000Z</time>
      </trkpt>
      <trkpt lat="43.78521" lon="7.13207">
        <ele>930.79998779297</ele>
        <time>2020-01-11T10:52:23.000Z</time>
      </trkpt>
      <trkpt lat="43.7851" lon="7.13196">
        <ele>930</ele>
        <time>2020-01-11T10:52:25.000Z</time>
      </trkpt>
      <trkpt lat="43.78502" lon="7.1319">
        <ele>928.40002441406</ele>
        <time>2020-01-11T10:52:27.000Z</time>
      </trkpt>
      <trkpt lat="43.78488" lon="7.13181">
        <ele>927.40002441406</ele>
        <time>2020-01-11T10:52:30.000Z</time>
      </trkpt>
      <trkpt lat="43.78485" lon="7.13178">
        <ele>927.20001220703</ele>
        <time>2020-01-11T10:52:31.000Z</time>
      </trkpt>
      <trkpt lat="43.78478" lon="7.13171">
        <ele>926</ele>
        <time>2020-01-11T10:52:33.000Z</time>
      </trkpt>
      <trkpt lat="43.78473" lon="7.13168">
        <ele>925.79998779297</ele>
        <time>2020-01-11T10:52:34.000Z</time>
      </trkpt>
      <trkpt lat="43.78468" lon="7.13166">
        <ele>925</ele>
        <time>2020-01-11T10:52:35.000Z</time>
      </trkpt>
      <trkpt lat="43.78452" lon="7.13159">
        <ele>923.79998779297</ele>
        <time>2020-01-11T10:52:38.000Z</time>
      </trkpt>
      <trkpt lat="43.78447" lon="7.13156">
        <ele>923</ele>
        <time>2020-01-11T10:52:39.000Z</time>
      </trkpt>
      <trkpt lat="43.78443" lon="7.13151">
        <ele>922.40002441406</ele>
        <time>2020-01-11T10:52:40.000Z</time>
      </trkpt>
      <trkpt lat="43.78435" lon="7.13142">
        <ele>921.20001220703</ele>
        <time>2020-01-11T10:52:42.000Z</time>
      </trkpt>
      <trkpt lat="43.78431" lon="7.13138">
        <ele>920.59997558594</ele>
        <time>2020-01-11T10:52:43.000Z</time>
      </trkpt>
      <trkpt lat="43.78426" lon="7.13133">
        <ele>920</ele>
        <time>2020-01-11T10:52:44.000Z</time>
      </trkpt>
      <trkpt lat="43.78417" lon="7.13123">
        <ele>918.59997558594</ele>
        <time>2020-01-11T10:52:46.000Z</time>
      </trkpt>
      <trkpt lat="43.78412" lon="7.13119">
        <ele>917.79998779297</ele>
        <time>2020-01-11T10:52:47.000Z</time>
      </trkpt>
      <trkpt lat="43.78408" lon="7.13116">
        <ele>917</ele>
        <time>2020-01-11T10:52:48.000Z</time>
      </trkpt>
      <trkpt lat="43.78398" lon="7.13114">
        <ele>915.40002441406</ele>
        <time>2020-01-11T10:52:50.000Z</time>
      </trkpt>
      <trkpt lat="43.78394" lon="7.13114">
        <ele>915</ele>
        <time>2020-01-11T10:52:51.000Z</time>
      </trkpt>
      <trkpt lat="43.78379" lon="7.13109">
        <ele>914.59997558594</ele>
        <time>2020-01-11T10:52:54.000Z</time>
      </trkpt>
      <trkpt lat="43.78374" lon="7.13106">
        <ele>914.40002441406</ele>
        <time>2020-01-11T10:52:55.000Z</time>
      </trkpt>
      <trkpt lat="43.78366" lon="7.13095">
        <ele>914</ele>
        <time>2020-01-11T10:52:57.000Z</time>
      </trkpt>
      <trkpt lat="43.78354" lon="7.13077">
        <ele>913.20001220703</ele>
        <time>2020-01-11T10:53:00.000Z</time>
      </trkpt>
      <trkpt lat="43.78351" lon="7.13073">
        <ele>912.40002441406</ele>
        <time>2020-01-11T10:53:01.000Z</time>
      </trkpt>
      <trkpt lat="43.7835" lon="7.13072">
        <ele>911.59997558594</ele>
        <time>2020-01-11T10:53:02.000Z</time>
      </trkpt>
      <trkpt lat="43.78349" lon="7.13068">
        <ele>909.79998779297</ele>
        <time>2020-01-11T10:53:04.000Z</time>
      </trkpt>
      <trkpt lat="43.78344" lon="7.13065">
        <ele>909</ele>
        <time>2020-01-11T10:53:06.000Z</time>
      </trkpt>
      <trkpt lat="43.78341" lon="7.13064">
        <ele>908.40002441406</ele>
        <time>2020-01-11T10:53:07.000Z</time>
      </trkpt>
      <trkpt lat="43.78332" lon="7.13058">
        <ele>907.59997558594</ele>
        <time>2020-01-11T10:53:10.000Z</time>
      </trkpt>
      <trkpt lat="43.78326" lon="7.13049">
        <ele>907.20001220703</ele>
        <time>2020-01-11T10:53:12.000Z</time>
      </trkpt>
      <trkpt lat="43.78321" lon="7.1304">
        <ele>906.79998779297</ele>
        <time>2020-01-11T10:53:14.000Z</time>
      </trkpt>
      <trkpt lat="43.78318" lon="7.1303">
        <ele>906.40002441406</ele>
        <time>2020-01-11T10:53:16.000Z</time>
      </trkpt>
      <trkpt lat="43.78317" lon="7.13028">
        <ele>906.20001220703</ele>
        <time>2020-01-11T10:53:17.000Z</time>
      </trkpt>
      <trkpt lat="43.78314" lon="7.13014">
        <ele>906.40002441406</ele>
        <time>2020-01-11T10:53:22.000Z</time>
      </trkpt>
      <trkpt lat="43.78312" lon="7.13006">
        <ele>906.20001220703</ele>
        <time>2020-01-11T10:53:25.000Z</time>
      </trkpt>
      <trkpt lat="43.7831" lon="7.13003">
        <ele>906</ele>
        <time>2020-01-11T10:53:26.000Z</time>
      </trkpt>
      <trkpt lat="43.78299" lon="7.12994">
        <ele>905.20001220703</ele>
        <time>2020-01-11T10:53:30.000Z</time>
      </trkpt>
      <trkpt lat="43.7829" lon="7.12987">
        <ele>904</ele>
        <time>2020-01-11T10:53:34.000Z</time>
      </trkpt>
      <trkpt lat="43.78283" lon="7.12983">
        <ele>904</ele>
        <time>2020-01-11T10:53:38.000Z</time>
      </trkpt>
      <trkpt lat="43.78282" lon="7.1298">
        <ele>904.20001220703</ele>
        <time>2020-01-11T10:53:42.000Z</time>
      </trkpt>
      <trkpt lat="43.78279" lon="7.12976">
        <ele>904.20001220703</ele>
        <time>2020-01-11T10:53:48.000Z</time>
      </trkpt>
      <trkpt lat="43.78277" lon="7.12973">
        <ele>904</ele>
        <time>2020-01-11T10:53:50.000Z</time>
      </trkpt>
      <trkpt lat="43.78273" lon="7.12968">
        <ele>903.59997558594</ele>
        <time>2020-01-11T10:53:53.000Z</time>
      </trkpt>
      <trkpt lat="43.78272" lon="7.12966">
        <ele>903.79998779297</ele>
        <time>2020-01-11T10:53:54.000Z</time>
      </trkpt>
      <trkpt lat="43.78268" lon="7.12963">
        <ele>903.79998779297</ele>
        <time>2020-01-11T10:53:56.000Z</time>
      </trkpt>
      <trkpt lat="43.78269" lon="7.12963">
        <ele>903.79998779297</ele>
        <time>2020-01-11T10:53:57.000Z</time>
      </trkpt>
      <trkpt lat="43.78266" lon="7.12958">
        <ele>904.59997558594</ele>
        <time>2020-01-11T10:54:04.000Z</time>
      </trkpt>
      <trkpt lat="43.78264" lon="7.12956">
        <ele>905</ele>
        <time>2020-01-11T10:54:07.000Z</time>
      </trkpt>
      <trkpt lat="43.78263" lon="7.12955">
        <ele>905.20001220703</ele>
        <time>2020-01-11T10:54:08.000Z</time>
      </trkpt>
      <trkpt lat="43.78262" lon="7.12955">
        <ele>905.20001220703</ele>
        <time>2020-01-11T10:54:09.000Z</time>
      </trkpt>
      <trkpt lat="43.78255" lon="7.12946">
        <ele>905</ele>
        <time>2020-01-11T10:54:13.000Z</time>
      </trkpt>
      <trkpt lat="43.78248" lon="7.12939">
        <ele>904.79998779297</ele>
        <time>2020-01-11T10:54:16.000Z</time>
      </trkpt>
      <trkpt lat="43.78246" lon="7.12938">
        <ele>904.59997558594</ele>
        <time>2020-01-11T10:54:17.000Z</time>
      </trkpt>
      <trkpt lat="43.78244" lon="7.12936">
        <ele>904.20001220703</ele>
        <time>2020-01-11T10:54:21.000Z</time>
      </trkpt>
      <trkpt lat="43.78244" lon="7.12933">
        <ele>904.59997558594</ele>
        <time>2020-01-11T10:54:27.000Z</time>
      </trkpt>
      <trkpt lat="43.78243" lon="7.1293">
        <ele>904.20001220703</ele>
        <time>2020-01-11T10:54:32.000Z</time>
      </trkpt>
      <trkpt lat="43.78241" lon="7.12927">
        <ele>904</ele>
        <time>2020-01-11T10:54:35.000Z</time>
      </trkpt>
      <trkpt lat="43.78241" lon="7.12925">
        <ele>903.59997558594</ele>
        <time>2020-01-11T10:54:38.000Z</time>
      </trkpt>
      <trkpt lat="43.78233" lon="7.12923">
        <ele>903</ele>
        <time>2020-01-11T10:54:42.000Z</time>
      </trkpt>
      <trkpt lat="43.78232" lon="7.12923">
        <ele>902.79998779297</ele>
        <time>2020-01-11T10:54:43.000Z</time>
      </trkpt>
      <trkpt lat="43.7823" lon="7.12921">
        <ele>902.40002441406</ele>
        <time>2020-01-11T10:54:44.000Z</time>
      </trkpt>
      <trkpt lat="43.78227" lon="7.12915">
        <ele>901.79998779297</ele>
        <time>2020-01-11T10:54:46.000Z</time>
      </trkpt>
      <trkpt lat="43.7822" lon="7.12908">
        <ele>901</ele>
        <time>2020-01-11T10:54:49.000Z</time>
      </trkpt>
      <trkpt lat="43.78217" lon="7.12904">
        <ele>900.40002441406</ele>
        <time>2020-01-11T10:54:51.000Z</time>
      </trkpt>
      <trkpt lat="43.78217" lon="7.12902">
        <ele>900.20001220703</ele>
        <time>2020-01-11T10:54:52.000Z</time>
      </trkpt>
      <trkpt lat="43.7821" lon="7.12897">
        <ele>899.40002441406</ele>
        <time>2020-01-11T10:54:57.000Z</time>
      </trkpt>
      <trkpt lat="43.78207" lon="7.12895">
        <ele>899.20001220703</ele>
        <time>2020-01-11T10:54:58.000Z</time>
      </trkpt>
      <trkpt lat="43.78202" lon="7.12888">
        <ele>898.59997558594</ele>
        <time>2020-01-11T10:55:00.000Z</time>
      </trkpt>
      <trkpt lat="43.78199" lon="7.12884">
        <ele>898.20001220703</ele>
        <time>2020-01-11T10:55:01.000Z</time>
      </trkpt>
      <trkpt lat="43.78196" lon="7.1288">
        <ele>898</ele>
        <time>2020-01-11T10:55:02.000Z</time>
      </trkpt>
      <trkpt lat="43.78188" lon="7.12872">
        <ele>897</ele>
        <time>2020-01-11T10:55:04.000Z</time>
      </trkpt>
      <trkpt lat="43.78184" lon="7.12868">
        <ele>896.20001220703</ele>
        <time>2020-01-11T10:55:05.000Z</time>
      </trkpt>
      <trkpt lat="43.78181" lon="7.12865">
        <ele>895.20001220703</ele>
        <time>2020-01-11T10:55:06.000Z</time>
      </trkpt>
      <trkpt lat="43.78179" lon="7.12861">
        <ele>894.79998779297</ele>
        <time>2020-01-11T10:55:07.000Z</time>
      </trkpt>
      <trkpt lat="43.78178" lon="7.12858">
        <ele>894.40002441406</ele>
        <time>2020-01-11T10:55:08.000Z</time>
      </trkpt>
      <trkpt lat="43.78175" lon="7.12854">
        <ele>894</ele>
        <time>2020-01-11T10:55:09.000Z</time>
      </trkpt>
      <trkpt lat="43.78166" lon="7.12847">
        <ele>893.59997558594</ele>
        <time>2020-01-11T10:55:11.000Z</time>
      </trkpt>
      <trkpt lat="43.78163" lon="7.12842">
        <ele>892.79998779297</ele>
        <time>2020-01-11T10:55:12.000Z</time>
      </trkpt>
      <trkpt lat="43.78155" lon="7.12834">
        <ele>891.20001220703</ele>
        <time>2020-01-11T10:55:14.000Z</time>
      </trkpt>
      <trkpt lat="43.78152" lon="7.12832">
        <ele>890.40002441406</ele>
        <time>2020-01-11T10:55:15.000Z</time>
      </trkpt>
      <trkpt lat="43.78148" lon="7.1283">
        <ele>889.79998779297</ele>
        <time>2020-01-11T10:55:16.000Z</time>
      </trkpt>
      <trkpt lat="43.78139" lon="7.12825">
        <ele>889</ele>
        <time>2020-01-11T10:55:19.000Z</time>
      </trkpt>
      <trkpt lat="43.7813" lon="7.12815">
        <ele>889</ele>
        <time>2020-01-11T10:55:22.000Z</time>
      </trkpt>
      <trkpt lat="43.78127" lon="7.12812">
        <ele>888.79998779297</ele>
        <time>2020-01-11T10:55:23.000Z</time>
      </trkpt>
      <trkpt lat="43.78125" lon="7.12809">
        <ele>888.40002441406</ele>
        <time>2020-01-11T10:55:24.000Z</time>
      </trkpt>
      <trkpt lat="43.78122" lon="7.12801">
        <ele>888</ele>
        <time>2020-01-11T10:55:26.000Z</time>
      </trkpt>
      <trkpt lat="43.78117" lon="7.12793">
        <ele>888</ele>
        <time>2020-01-11T10:55:28.000Z</time>
      </trkpt>
      <trkpt lat="43.78114" lon="7.12787">
        <ele>888.20001220703</ele>
        <time>2020-01-11T10:55:30.000Z</time>
      </trkpt>
      <trkpt lat="43.78103" lon="7.12773">
        <ele>888.40002441406</ele>
        <time>2020-01-11T10:55:34.000Z</time>
      </trkpt>
      <trkpt lat="43.78103" lon="7.1277">
        <ele>888.20001220703</ele>
        <time>2020-01-11T10:55:35.000Z</time>
      </trkpt>
      <trkpt lat="43.78104" lon="7.12763">
        <ele>888</ele>
        <time>2020-01-11T10:55:37.000Z</time>
      </trkpt>
      <trkpt lat="43.78103" lon="7.12758">
        <ele>887.59997558594</ele>
        <time>2020-01-11T10:55:38.000Z</time>
      </trkpt>
      <trkpt lat="43.78099" lon="7.12748">
        <ele>886.40002441406</ele>
        <time>2020-01-11T10:55:40.000Z</time>
      </trkpt>
      <trkpt lat="43.78097" lon="7.12743">
        <ele>886</ele>
        <time>2020-01-11T10:55:41.000Z</time>
      </trkpt>
      <trkpt lat="43.78096" lon="7.12737">
        <ele>885.40002441406</ele>
        <time>2020-01-11T10:55:42.000Z</time>
      </trkpt>
      <trkpt lat="43.78089" lon="7.12723">
        <ele>884.20001220703</ele>
        <time>2020-01-11T10:55:45.000Z</time>
      </trkpt>
      <trkpt lat="43.78086" lon="7.12715">
        <ele>882.79998779297</ele>
        <time>2020-01-11T10:55:47.000Z</time>
      </trkpt>
      <trkpt lat="43.78083" lon="7.12707">
        <ele>882.59997558594</ele>
        <time>2020-01-11T10:55:49.000Z</time>
      </trkpt>
      <trkpt lat="43.78085" lon="7.12696">
        <ele>882.40002441406</ele>
        <time>2020-01-11T10:55:52.000Z</time>
      </trkpt>
      <trkpt lat="43.78085" lon="7.12694">
        <ele>881.79998779297</ele>
        <time>2020-01-11T10:55:53.000Z</time>
      </trkpt>
      <trkpt lat="43.78083" lon="7.1269">
        <ele>881.20001220703</ele>
        <time>2020-01-11T10:55:57.000Z</time>
      </trkpt>
      <trkpt lat="43.7808" lon="7.12686">
        <ele>882.20001220703</ele>
        <time>2020-01-11T10:56:03.000Z</time>
      </trkpt>
      <trkpt lat="43.78071" lon="7.12679">
        <ele>882.20001220703</ele>
        <time>2020-01-11T10:56:08.000Z</time>
      </trkpt>
      <trkpt lat="43.78057" lon="7.12675">
        <ele>882.20001220703</ele>
        <time>2020-01-11T10:56:13.000Z</time>
      </trkpt>
      <trkpt lat="43.78054" lon="7.12675">
        <ele>882</ele>
        <time>2020-01-11T10:56:14.000Z</time>
      </trkpt>
      <trkpt lat="43.7804" lon="7.12667">
        <ele>882.79998779297</ele>
        <time>2020-01-11T10:56:19.000Z</time>
      </trkpt>
      <trkpt lat="43.78037" lon="7.12664">
        <ele>883</ele>
        <time>2020-01-11T10:56:20.000Z</time>
      </trkpt>
      <trkpt lat="43.78024" lon="7.12654">
        <ele>883</ele>
        <time>2020-01-11T10:56:24.000Z</time>
      </trkpt>
      <trkpt lat="43.78015" lon="7.12643">
        <ele>882</ele>
        <time>2020-01-11T10:56:28.000Z</time>
      </trkpt>
      <trkpt lat="43.78014" lon="7.1264">
        <ele>882</ele>
        <time>2020-01-11T10:56:31.000Z</time>
      </trkpt>
      <trkpt lat="43.78014" lon="7.1264">
        <ele>882.40002441406</ele>
        <time>2020-01-11T10:56:37.000Z</time>
      </trkpt>
      <trkpt lat="43.78013" lon="7.1264">
        <ele>882.40002441406</ele>
        <time>2020-01-11T10:56:47.000Z</time>
      </trkpt>
      <trkpt lat="43.78013" lon="7.12639">
        <ele>882.40002441406</ele>
        <time>2020-01-11T10:57:03.000Z</time>
      </trkpt>
      <trkpt lat="43.78012" lon="7.12639">
        <ele>882.40002441406</ele>
        <time>2020-01-11T10:57:15.000Z</time>
      </trkpt>
      <trkpt lat="43.78009" lon="7.12633">
        <ele>882.20001220703</ele>
        <time>2020-01-11T10:57:32.000Z</time>
      </trkpt>
      <trkpt lat="43.78009" lon="7.12631">
        <ele>882.20001220703</ele>
        <time>2020-01-11T10:57:33.000Z</time>
      </trkpt>
      <trkpt lat="43.78012" lon="7.1262">
        <ele>882</ele>
        <time>2020-01-11T10:57:36.000Z</time>
      </trkpt>
      <trkpt lat="43.78012" lon="7.12616">
        <ele>881.79998779297</ele>
        <time>2020-01-11T10:57:37.000Z</time>
      </trkpt>
      <trkpt lat="43.78014" lon="7.12603">
        <ele>881</ele>
        <time>2020-01-11T10:57:40.000Z</time>
      </trkpt>
      <trkpt lat="43.78013" lon="7.12596">
        <ele>880.79998779297</ele>
        <time>2020-01-11T10:57:41.000Z</time>
      </trkpt>
      <trkpt lat="43.78016" lon="7.12585">
        <ele>879.79998779297</ele>
        <time>2020-01-11T10:57:43.000Z</time>
      </trkpt>
      <trkpt lat="43.78018" lon="7.12579">
        <ele>879.20001220703</ele>
        <time>2020-01-11T10:57:44.000Z</time>
      </trkpt>
      <trkpt lat="43.78021" lon="7.12574">
        <ele>878.59997558594</ele>
        <time>2020-01-11T10:57:45.000Z</time>
      </trkpt>
      <trkpt lat="43.78025" lon="7.12563">
        <ele>877.40002441406</ele>
        <time>2020-01-11T10:57:47.000Z</time>
      </trkpt>
      <trkpt lat="43.78026" lon="7.12549">
        <ele>875.79998779297</ele>
        <time>2020-01-11T10:57:49.000Z</time>
      </trkpt>
      <trkpt lat="43.78028" lon="7.12542">
        <ele>875</ele>
        <time>2020-01-11T10:57:50.000Z</time>
      </trkpt>
      <trkpt lat="43.7803" lon="7.12536">
        <ele>874</ele>
        <time>2020-01-11T10:57:51.000Z</time>
      </trkpt>
      <trkpt lat="43.78031" lon="7.12523">
        <ele>873</ele>
        <time>2020-01-11T10:57:53.000Z</time>
      </trkpt>
      <trkpt lat="43.78033" lon="7.12508">
        <ele>871.79998779297</ele>
        <time>2020-01-11T10:57:55.000Z</time>
      </trkpt>
      <trkpt lat="43.78034" lon="7.12502">
        <ele>871</ele>
        <time>2020-01-11T10:57:56.000Z</time>
      </trkpt>
      <trkpt lat="43.78034" lon="7.12496">
        <ele>869.79998779297</ele>
        <time>2020-01-11T10:57:57.000Z</time>
      </trkpt>
      <trkpt lat="43.78034" lon="7.12484">
        <ele>868.20001220703</ele>
        <time>2020-01-11T10:57:59.000Z</time>
      </trkpt>
      <trkpt lat="43.78035" lon="7.12467">
        <ele>866.59997558594</ele>
        <time>2020-01-11T10:58:01.000Z</time>
      </trkpt>
      <trkpt lat="43.78036" lon="7.12453">
        <ele>865</ele>
        <time>2020-01-11T10:58:03.000Z</time>
      </trkpt>
      <trkpt lat="43.78037" lon="7.12445">
        <ele>864.20001220703</ele>
        <time>2020-01-11T10:58:04.000Z</time>
      </trkpt>
      <trkpt lat="43.78039" lon="7.12438">
        <ele>863.40002441406</ele>
        <time>2020-01-11T10:58:05.000Z</time>
      </trkpt>
      <trkpt lat="43.78042" lon="7.12422">
        <ele>862.20001220703</ele>
        <time>2020-01-11T10:58:07.000Z</time>
      </trkpt>
      <trkpt lat="43.78043" lon="7.12415">
        <ele>861.40002441406</ele>
        <time>2020-01-11T10:58:08.000Z</time>
      </trkpt>
      <trkpt lat="43.78044" lon="7.12411">
        <ele>860.40002441406</ele>
        <time>2020-01-11T10:58:09.000Z</time>
      </trkpt>
      <trkpt lat="43.78043" lon="7.12407">
        <ele>859.59997558594</ele>
        <time>2020-01-11T10:58:10.000Z</time>
      </trkpt>
      <trkpt lat="43.78042" lon="7.12403">
        <ele>858.79998779297</ele>
        <time>2020-01-11T10:58:11.000Z</time>
      </trkpt>
      <trkpt lat="43.78044" lon="7.12393">
        <ele>858</ele>
        <time>2020-01-11T10:58:13.000Z</time>
      </trkpt>
      <trkpt lat="43.78052" lon="7.12381">
        <ele>857.40002441406</ele>
        <time>2020-01-11T10:58:15.000Z</time>
      </trkpt>
      <trkpt lat="43.78059" lon="7.12372">
        <ele>856.20001220703</ele>
        <time>2020-01-11T10:58:17.000Z</time>
      </trkpt>
      <trkpt lat="43.78062" lon="7.12368">
        <ele>855.59997558594</ele>
        <time>2020-01-11T10:58:18.000Z</time>
      </trkpt>
      <trkpt lat="43.78065" lon="7.12363">
        <ele>854.40002441406</ele>
        <time>2020-01-11T10:58:19.000Z</time>
      </trkpt>
      <trkpt lat="43.78067" lon="7.12354">
        <ele>852.59997558594</ele>
        <time>2020-01-11T10:58:21.000Z</time>
      </trkpt>
      <trkpt lat="43.78068" lon="7.12349">
        <ele>851.20001220703</ele>
        <time>2020-01-11T10:58:22.000Z</time>
      </trkpt>
      <trkpt lat="43.78069" lon="7.12344">
        <ele>850.20001220703</ele>
        <time>2020-01-11T10:58:23.000Z</time>
      </trkpt>
      <trkpt lat="43.7807" lon="7.12337">
        <ele>849.40002441406</ele>
        <time>2020-01-11T10:58:24.000Z</time>
      </trkpt>
      <trkpt lat="43.78072" lon="7.1233">
        <ele>848.40002441406</ele>
        <time>2020-01-11T10:58:25.000Z</time>
      </trkpt>
      <trkpt lat="43.78073" lon="7.12323">
        <ele>847.59997558594</ele>
        <time>2020-01-11T10:58:26.000Z</time>
      </trkpt>
      <trkpt lat="43.78074" lon="7.12318">
        <ele>847.20001220703</ele>
        <time>2020-01-11T10:58:27.000Z</time>
      </trkpt>
      <trkpt lat="43.78076" lon="7.12313">
        <ele>846</ele>
        <time>2020-01-11T10:58:28.000Z</time>
      </trkpt>
      <trkpt lat="43.78078" lon="7.1231">
        <ele>845</ele>
        <time>2020-01-11T10:58:29.000Z</time>
      </trkpt>
      <trkpt lat="43.78082" lon="7.12307">
        <ele>843.59997558594</ele>
        <time>2020-01-11T10:58:31.000Z</time>
      </trkpt>
      <trkpt lat="43.78083" lon="7.12304">
        <ele>842.79998779297</ele>
        <time>2020-01-11T10:58:32.000Z</time>
      </trkpt>
      <trkpt lat="43.78084" lon="7.12301">
        <ele>842</ele>
        <time>2020-01-11T10:58:33.000Z</time>
      </trkpt>
      <trkpt lat="43.7809" lon="7.12292">
        <ele>840.79998779297</ele>
        <time>2020-01-11T10:58:35.000Z</time>
      </trkpt>
      <trkpt lat="43.78095" lon="7.12281">
        <ele>839.20001220703</ele>
        <time>2020-01-11T10:58:37.000Z</time>
      </trkpt>
      <trkpt lat="43.78097" lon="7.12275">
        <ele>838.40002441406</ele>
        <time>2020-01-11T10:58:38.000Z</time>
      </trkpt>
      <trkpt lat="43.78099" lon="7.12271">
        <ele>837.79998779297</ele>
        <time>2020-01-11T10:58:39.000Z</time>
      </trkpt>
      <trkpt lat="43.781" lon="7.12267">
        <ele>837</ele>
        <time>2020-01-11T10:58:40.000Z</time>
      </trkpt>
      <trkpt lat="43.78102" lon="7.12265">
        <ele>835.79998779297</ele>
        <time>2020-01-11T10:58:41.000Z</time>
      </trkpt>
      <trkpt lat="43.78105" lon="7.12262">
        <ele>834.59997558594</ele>
        <time>2020-01-11T10:58:43.000Z</time>
      </trkpt>
      <trkpt lat="43.78106" lon="7.12261">
        <ele>833.40002441406</ele>
        <time>2020-01-11T10:58:44.000Z</time>
      </trkpt>
      <trkpt lat="43.78106" lon="7.12255">
        <ele>832.20001220703</ele>
        <time>2020-01-11T10:58:47.000Z</time>
      </trkpt>
      <trkpt lat="43.78108" lon="7.12253">
        <ele>831.40002441406</ele>
        <time>2020-01-11T10:58:48.000Z</time>
      </trkpt>
      <trkpt lat="43.78111" lon="7.12252">
        <ele>830.79998779297</ele>
        <time>2020-01-11T10:58:49.000Z</time>
      </trkpt>
      <trkpt lat="43.78114" lon="7.12246">
        <ele>829</ele>
        <time>2020-01-11T10:58:51.000Z</time>
      </trkpt>
      <trkpt lat="43.78115" lon="7.12241">
        <ele>828.59997558594</ele>
        <time>2020-01-11T10:58:52.000Z</time>
      </trkpt>
      <trkpt lat="43.78115" lon="7.12234">
        <ele>827.40002441406</ele>
        <time>2020-01-11T10:58:54.000Z</time>
      </trkpt>
      <trkpt lat="43.78117" lon="7.12227">
        <ele>825.79998779297</ele>
        <time>2020-01-11T10:58:56.000Z</time>
      </trkpt>
      <trkpt lat="43.78118" lon="7.12215">
        <ele>824.20001220703</ele>
        <time>2020-01-11T10:58:59.000Z</time>
      </trkpt>
      <trkpt lat="43.78118" lon="7.1221">
        <ele>823.59997558594</ele>
        <time>2020-01-11T10:59:00.000Z</time>
      </trkpt>
      <trkpt lat="43.78117" lon="7.12205">
        <ele>822.40002441406</ele>
        <time>2020-01-11T10:59:02.000Z</time>
      </trkpt>
      <trkpt lat="43.78116" lon="7.12203">
        <ele>821.79998779297</ele>
        <time>2020-01-11T10:59:03.000Z</time>
      </trkpt>
      <trkpt lat="43.78115" lon="7.12196">
        <ele>821.20001220703</ele>
        <time>2020-01-11T10:59:04.000Z</time>
      </trkpt>
      <trkpt lat="43.78118" lon="7.12184">
        <ele>820.40002441406</ele>
        <time>2020-01-11T10:59:06.000Z</time>
      </trkpt>
      <trkpt lat="43.78119" lon="7.12178">
        <ele>820</ele>
        <time>2020-01-11T10:59:07.000Z</time>
      </trkpt>
      <trkpt lat="43.78121" lon="7.12172">
        <ele>819</ele>
        <time>2020-01-11T10:59:09.000Z</time>
      </trkpt>
      <trkpt lat="43.78122" lon="7.12164">
        <ele>817.79998779297</ele>
        <time>2020-01-11T10:59:12.000Z</time>
      </trkpt>
      <trkpt lat="43.78121" lon="7.1215">
        <ele>816.59997558594</ele>
        <time>2020-01-11T10:59:15.000Z</time>
      </trkpt>
      <trkpt lat="43.78127" lon="7.12142">
        <ele>815.59997558594</ele>
        <time>2020-01-11T10:59:17.000Z</time>
      </trkpt>
      <trkpt lat="43.78129" lon="7.1214">
        <ele>815</ele>
        <time>2020-01-11T10:59:18.000Z</time>
      </trkpt>
      <trkpt lat="43.78131" lon="7.1214">
        <ele>814.40002441406</ele>
        <time>2020-01-11T10:59:19.000Z</time>
      </trkpt>
      <trkpt lat="43.78133" lon="7.12137">
        <ele>813</ele>
        <time>2020-01-11T10:59:21.000Z</time>
      </trkpt>
      <trkpt lat="43.78137" lon="7.12131">
        <ele>811.40002441406</ele>
        <time>2020-01-11T10:59:23.000Z</time>
      </trkpt>
      <trkpt lat="43.78142" lon="7.12124">
        <ele>809.79998779297</ele>
        <time>2020-01-11T10:59:25.000Z</time>
      </trkpt>
      <trkpt lat="43.78146" lon="7.12113">
        <ele>808.40002441406</ele>
        <time>2020-01-11T10:59:27.000Z</time>
      </trkpt>
      <trkpt lat="43.78148" lon="7.12107">
        <ele>807.40002441406</ele>
        <time>2020-01-11T10:59:28.000Z</time>
      </trkpt>
      <trkpt lat="43.7815" lon="7.12098">
        <ele>805.79998779297</ele>
        <time>2020-01-11T10:59:30.000Z</time>
      </trkpt>
      <trkpt lat="43.78151" lon="7.12094">
        <ele>805</ele>
        <time>2020-01-11T10:59:31.000Z</time>
      </trkpt>
      <trkpt lat="43.78152" lon="7.1209">
        <ele>804.20001220703</ele>
        <time>2020-01-11T10:59:32.000Z</time>
      </trkpt>
      <trkpt lat="43.78153" lon="7.12086">
        <ele>803.79998779297</ele>
        <time>2020-01-11T10:59:33.000Z</time>
      </trkpt>
      <trkpt lat="43.78152" lon="7.12081">
        <ele>803</ele>
        <time>2020-01-11T10:59:34.000Z</time>
      </trkpt>
      <trkpt lat="43.78152" lon="7.12078">
        <ele>802.40002441406</ele>
        <time>2020-01-11T10:59:35.000Z</time>
      </trkpt>
      <trkpt lat="43.78152" lon="7.12075">
        <ele>801.79998779297</ele>
        <time>2020-01-11T10:59:36.000Z</time>
      </trkpt>
      <trkpt lat="43.78151" lon="7.12067">
        <ele>800.59997558594</ele>
        <time>2020-01-11T10:59:38.000Z</time>
      </trkpt>
      <trkpt lat="43.78147" lon="7.12052">
        <ele>799</ele>
        <time>2020-01-11T10:59:41.000Z</time>
      </trkpt>
      <trkpt lat="43.78146" lon="7.12049">
        <ele>798.59997558594</ele>
        <time>2020-01-11T10:59:42.000Z</time>
      </trkpt>
      <trkpt lat="43.78142" lon="7.12043">
        <ele>797.79998779297</ele>
        <time>2020-01-11T10:59:44.000Z</time>
      </trkpt>
      <trkpt lat="43.78139" lon="7.12037">
        <ele>797.40002441406</ele>
        <time>2020-01-11T10:59:46.000Z</time>
      </trkpt>
      <trkpt lat="43.7813" lon="7.12027">
        <ele>796.20001220703</ele>
        <time>2020-01-11T10:59:49.000Z</time>
      </trkpt>
      <trkpt lat="43.78127" lon="7.12024">
        <ele>795.79998779297</ele>
        <time>2020-01-11T10:59:50.000Z</time>
      </trkpt>
      <trkpt lat="43.78124" lon="7.12021">
        <ele>795.20001220703</ele>
        <time>2020-01-11T10:59:51.000Z</time>
      </trkpt>
      <trkpt lat="43.78121" lon="7.12019">
        <ele>794.59997558594</ele>
        <time>2020-01-11T10:59:52.000Z</time>
      </trkpt>
      <trkpt lat="43.78119" lon="7.12018">
        <ele>793.59997558594</ele>
        <time>2020-01-11T10:59:53.000Z</time>
      </trkpt>
      <trkpt lat="43.78117" lon="7.12017">
        <ele>793.40002441406</ele>
        <time>2020-01-11T10:59:54.000Z</time>
      </trkpt>
      <trkpt lat="43.78116" lon="7.12015">
        <ele>792.20001220703</ele>
        <time>2020-01-11T10:59:56.000Z</time>
      </trkpt>
      <trkpt lat="43.78115" lon="7.12011">
        <ele>791.59997558594</ele>
        <time>2020-01-11T10:59:58.000Z</time>
      </trkpt>
      <trkpt lat="43.78113" lon="7.12006">
        <ele>791.20001220703</ele>
        <time>2020-01-11T10:59:59.000Z</time>
      </trkpt>
      <trkpt lat="43.7811" lon="7.12003">
        <ele>790.79998779297</ele>
        <time>2020-01-11T11:00:00.000Z</time>
      </trkpt>
      <trkpt lat="43.78107" lon="7.12001">
        <ele>790.40002441406</ele>
        <time>2020-01-11T11:00:01.000Z</time>
      </trkpt>
      <trkpt lat="43.78104" lon="7.11998">
        <ele>789.59997558594</ele>
        <time>2020-01-11T11:00:02.000Z</time>
      </trkpt>
      <trkpt lat="43.78099" lon="7.11991">
        <ele>788.20001220703</ele>
        <time>2020-01-11T11:00:04.000Z</time>
      </trkpt>
      <trkpt lat="43.78097" lon="7.11986">
        <ele>787.59997558594</ele>
        <time>2020-01-11T11:00:05.000Z</time>
      </trkpt>
      <trkpt lat="43.78094" lon="7.11982">
        <ele>786.79998779297</ele>
        <time>2020-01-11T11:00:06.000Z</time>
      </trkpt>
      <trkpt lat="43.78092" lon="7.11974">
        <ele>785.40002441406</ele>
        <time>2020-01-11T11:00:08.000Z</time>
      </trkpt>
      <trkpt lat="43.7809" lon="7.1197">
        <ele>784.59997558594</ele>
        <time>2020-01-11T11:00:09.000Z</time>
      </trkpt>
      <trkpt lat="43.78087" lon="7.11966">
        <ele>783.59997558594</ele>
        <time>2020-01-11T11:00:10.000Z</time>
      </trkpt>
      <trkpt lat="43.78082" lon="7.11958">
        <ele>781.79998779297</ele>
        <time>2020-01-11T11:00:12.000Z</time>
      </trkpt>
      <trkpt lat="43.78078" lon="7.11957">
        <ele>780.79998779297</ele>
        <time>2020-01-11T11:00:13.000Z</time>
      </trkpt>
      <trkpt lat="43.78075" lon="7.11956">
        <ele>779.79998779297</ele>
        <time>2020-01-11T11:00:14.000Z</time>
      </trkpt>
      <trkpt lat="43.7807" lon="7.11952">
        <ele>778.59997558594</ele>
        <time>2020-01-11T11:00:16.000Z</time>
      </trkpt>
      <trkpt lat="43.78065" lon="7.11946">
        <ele>778</ele>
        <time>2020-01-11T11:00:18.000Z</time>
      </trkpt>
      <trkpt lat="43.78059" lon="7.11939">
        <ele>777</ele>
        <time>2020-01-11T11:00:20.000Z</time>
      </trkpt>
      <trkpt lat="43.78053" lon="7.11934">
        <ele>775.20001220703</ele>
        <time>2020-01-11T11:00:22.000Z</time>
      </trkpt>
      <trkpt lat="43.78048" lon="7.11932">
        <ele>773.40002441406</ele>
        <time>2020-01-11T11:00:24.000Z</time>
      </trkpt>
      <trkpt lat="43.78043" lon="7.1193">
        <ele>771.79998779297</ele>
        <time>2020-01-11T11:00:26.000Z</time>
      </trkpt>
      <trkpt lat="43.7804" lon="7.11929">
        <ele>771.40002441406</ele>
        <time>2020-01-11T11:00:27.000Z</time>
      </trkpt>
      <trkpt lat="43.78032" lon="7.11927">
        <ele>771</ele>
        <time>2020-01-11T11:00:29.000Z</time>
      </trkpt>
      <trkpt lat="43.7803" lon="7.11924">
        <ele>771</ele>
        <time>2020-01-11T11:00:30.000Z</time>
      </trkpt>
      <trkpt lat="43.78027" lon="7.11922">
        <ele>770.79998779297</ele>
        <time>2020-01-11T11:00:31.000Z</time>
      </trkpt>
      <trkpt lat="43.78021" lon="7.11919">
        <ele>770</ele>
        <time>2020-01-11T11:00:33.000Z</time>
      </trkpt>
      <trkpt lat="43.78018" lon="7.11918">
        <ele>769.59997558594</ele>
        <time>2020-01-11T11:00:34.000Z</time>
      </trkpt>
      <trkpt lat="43.78011" lon="7.11917">
        <ele>768.20001220703</ele>
        <time>2020-01-11T11:00:36.000Z</time>
      </trkpt>
      <trkpt lat="43.78008" lon="7.11918">
        <ele>767.59997558594</ele>
        <time>2020-01-11T11:00:37.000Z</time>
      </trkpt>
      <trkpt lat="43.78002" lon="7.11918">
        <ele>766.79998779297</ele>
        <time>2020-01-11T11:00:39.000Z</time>
      </trkpt>
      <trkpt lat="43.77995" lon="7.11916">
        <ele>767.20001220703</ele>
        <time>2020-01-11T11:00:42.000Z</time>
      </trkpt>
      <trkpt lat="43.77994" lon="7.11912">
        <ele>767.20001220703</ele>
        <time>2020-01-11T11:00:44.000Z</time>
      </trkpt>
      <trkpt lat="43.77994" lon="7.11909">
        <ele>767.20001220703</ele>
        <time>2020-01-11T11:00:46.000Z</time>
      </trkpt>
      <trkpt lat="43.77994" lon="7.11903">
        <ele>766.79998779297</ele>
        <time>2020-01-11T11:00:50.000Z</time>
      </trkpt>
      <trkpt lat="43.77993" lon="7.11902">
        <ele>766.59997558594</ele>
        <time>2020-01-11T11:00:51.000Z</time>
      </trkpt>
      <trkpt lat="43.77992" lon="7.11901">
        <ele>765.79998779297</ele>
        <time>2020-01-11T11:00:54.000Z</time>
      </trkpt>
      <trkpt lat="43.7799" lon="7.119">
        <ele>765.20001220703</ele>
        <time>2020-01-11T11:00:56.000Z</time>
      </trkpt>
      <trkpt lat="43.77985" lon="7.11895">
        <ele>764.79998779297</ele>
        <time>2020-01-11T11:01:02.000Z</time>
      </trkpt>
      <trkpt lat="43.77985" lon="7.11895">
        <ele>764.79998779297</ele>
        <time>2020-01-11T11:01:03.000Z</time>
      </trkpt>
      <trkpt lat="43.77985" lon="7.11895">
        <ele>764.59997558594</ele>
        <time>2020-01-11T11:01:06.000Z</time>
      </trkpt>
      <trkpt lat="43.7798" lon="7.11893">
        <ele>764.59997558594</ele>
        <time>2020-01-11T11:01:12.000Z</time>
      </trkpt>
      <trkpt lat="43.77976" lon="7.11892">
        <ele>764.40002441406</ele>
        <time>2020-01-11T11:01:18.000Z</time>
      </trkpt>
      <trkpt lat="43.77975" lon="7.11891">
        <ele>764.20001220703</ele>
        <time>2020-01-11T11:01:20.000Z</time>
      </trkpt>
      <trkpt lat="43.77973" lon="7.11889">
        <ele>764</ele>
        <time>2020-01-11T11:01:24.000Z</time>
      </trkpt>
      <trkpt lat="43.77971" lon="7.11887">
        <ele>764</ele>
        <time>2020-01-11T11:01:26.000Z</time>
      </trkpt>
      <trkpt lat="43.77966" lon="7.11885">
        <ele>763.59997558594</ele>
        <time>2020-01-11T11:01:29.000Z</time>
      </trkpt>
      <trkpt lat="43.7796" lon="7.11886">
        <ele>763.20001220703</ele>
        <time>2020-01-11T11:01:34.000Z</time>
      </trkpt>
      <trkpt lat="43.77954" lon="7.11884">
        <ele>763.40002441406</ele>
        <time>2020-01-11T11:01:40.000Z</time>
      </trkpt>
      <trkpt lat="43.77952" lon="7.11884">
        <ele>763.40002441406</ele>
        <time>2020-01-11T11:01:42.000Z</time>
      </trkpt>
      <trkpt lat="43.77952" lon="7.11883">
        <ele>763.20001220703</ele>
        <time>2020-01-11T11:01:45.000Z</time>
      </trkpt>
      <trkpt lat="43.77951" lon="7.11882">
        <ele>762.79998779297</ele>
        <time>2020-01-11T11:01:46.000Z</time>
      </trkpt>
      <trkpt lat="43.77951" lon="7.11881">
        <ele>762.59997558594</ele>
        <time>2020-01-11T11:01:47.000Z</time>
      </trkpt>
      <trkpt lat="43.77947" lon="7.11877">
        <ele>762.40002441406</ele>
        <time>2020-01-11T11:01:52.000Z</time>
      </trkpt>
      <trkpt lat="43.77943" lon="7.11873">
        <ele>762.59997558594</ele>
        <time>2020-01-11T11:01:58.000Z</time>
      </trkpt>
      <trkpt lat="43.7794" lon="7.11871">
        <ele>762.59997558594</ele>
        <time>2020-01-11T11:02:02.000Z</time>
      </trkpt>
      <trkpt lat="43.77938" lon="7.11869">
        <ele>762.59997558594</ele>
        <time>2020-01-11T11:02:05.000Z</time>
      </trkpt>
      <trkpt lat="43.77933" lon="7.11861">
        <ele>762.20001220703</ele>
        <time>2020-01-11T11:02:12.000Z</time>
      </trkpt>
      <trkpt lat="43.77927" lon="7.11851">
        <ele>761.79998779297</ele>
        <time>2020-01-11T11:02:16.000Z</time>
      </trkpt>
      <trkpt lat="43.77914" lon="7.11841">
        <ele>761.59997558594</ele>
        <time>2020-01-11T11:02:20.000Z</time>
      </trkpt>
      <trkpt lat="43.77911" lon="7.11839">
        <ele>761.59997558594</ele>
        <time>2020-01-11T11:02:21.000Z</time>
      </trkpt>
      <trkpt lat="43.779" lon="7.11826">
        <ele>762</ele>
        <time>2020-01-11T11:02:25.000Z</time>
      </trkpt>
      <trkpt lat="43.77888" lon="7.11805">
        <ele>761.40002441406</ele>
        <time>2020-01-11T11:02:29.000Z</time>
      </trkpt>
      <trkpt lat="43.7788" lon="7.11794">
        <ele>760.40002441406</ele>
        <time>2020-01-11T11:02:32.000Z</time>
      </trkpt>
      <trkpt lat="43.77877" lon="7.11792">
        <ele>760.20001220703</ele>
        <time>2020-01-11T11:02:33.000Z</time>
      </trkpt>
      <trkpt lat="43.77874" lon="7.11789">
        <ele>759.79998779297</ele>
        <time>2020-01-11T11:02:34.000Z</time>
      </trkpt>
      <trkpt lat="43.77868" lon="7.1178">
        <ele>759.20001220703</ele>
        <time>2020-01-11T11:02:36.000Z</time>
      </trkpt>
      <trkpt lat="43.77859" lon="7.11769">
        <ele>758</ele>
        <time>2020-01-11T11:02:39.000Z</time>
      </trkpt>
      <trkpt lat="43.77853" lon="7.11764">
        <ele>757</ele>
        <time>2020-01-11T11:02:41.000Z</time>
      </trkpt>
      <trkpt lat="43.77851" lon="7.11761">
        <ele>756.59997558594</ele>
        <time>2020-01-11T11:02:42.000Z</time>
      </trkpt>
      <trkpt lat="43.77847" lon="7.11757">
        <ele>756.20001220703</ele>
        <time>2020-01-11T11:02:43.000Z</time>
      </trkpt>
      <trkpt lat="43.77833" lon="7.11743">
        <ele>755.40002441406</ele>
        <time>2020-01-11T11:02:47.000Z</time>
      </trkpt>
      <trkpt lat="43.77832" lon="7.11733">
        <ele>755.20001220703</ele>
        <time>2020-01-11T11:02:50.000Z</time>
      </trkpt>
      <trkpt lat="43.77831" lon="7.1173">
        <ele>755.20001220703</ele>
        <time>2020-01-11T11:02:51.000Z</time>
      </trkpt>
      <trkpt lat="43.77828" lon="7.11718">
        <ele>755.20001220703</ele>
        <time>2020-01-11T11:02:54.000Z</time>
      </trkpt>
      <trkpt lat="43.77824" lon="7.11708">
        <ele>754.20001220703</ele>
        <time>2020-01-11T11:02:57.000Z</time>
      </trkpt>
      <trkpt lat="43.77825" lon="7.11707">
        <ele>754</ele>
        <time>2020-01-11T11:02:58.000Z</time>
      </trkpt>
      <trkpt lat="43.7783" lon="7.11708">
        <ele>753.20001220703</ele>
        <time>2020-01-11T11:03:01.000Z</time>
      </trkpt>
      <trkpt lat="43.7783" lon="7.11707">
        <ele>753</ele>
        <time>2020-01-11T11:03:02.000Z</time>
      </trkpt>
      <trkpt lat="43.77831" lon="7.11707">
        <ele>752.59997558594</ele>
        <time>2020-01-11T11:03:09.000Z</time>
      </trkpt>
      <trkpt lat="43.77828" lon="7.11708">
        <ele>752.59997558594</ele>
        <time>2020-01-11T11:03:13.000Z</time>
      </trkpt>
      <trkpt lat="43.77827" lon="7.11709">
        <ele>752.59997558594</ele>
        <time>2020-01-11T11:03:14.000Z</time>
      </trkpt>
      <trkpt lat="43.7783" lon="7.11706">
        <ele>752.40002441406</ele>
        <time>2020-01-11T11:03:19.000Z</time>
      </trkpt>
      <trkpt lat="43.7783" lon="7.11705">
        <ele>752.40002441406</ele>
        <time>2020-01-11T11:03:28.000Z</time>
      </trkpt>
      <trkpt lat="43.77831" lon="7.11704">
        <ele>752.40002441406</ele>
        <time>2020-01-11T11:03:37.000Z</time>
      </trkpt>
      <trkpt lat="43.7783" lon="7.11704">
        <ele>752.59997558594</ele>
        <time>2020-01-11T11:03:48.000Z</time>
      </trkpt>
      <trkpt lat="43.77829" lon="7.11704">
        <ele>752.79998779297</ele>
        <time>2020-01-11T11:03:56.000Z</time>
      </trkpt>
      <trkpt lat="43.77828" lon="7.11704">
        <ele>752.59997558594</ele>
        <time>2020-01-11T11:04:08.000Z</time>
      </trkpt>
      <trkpt lat="43.77828" lon="7.11703">
        <ele>752.59997558594</ele>
        <time>2020-01-11T11:04:14.000Z</time>
      </trkpt>
      <trkpt lat="43.77828" lon="7.11701">
        <ele>752.40002441406</ele>
        <time>2020-01-11T11:04:36.000Z</time>
      </trkpt>
      <trkpt lat="43.77831" lon="7.11702">
        <ele>752.40002441406</ele>
        <time>2020-01-11T11:04:47.000Z</time>
      </trkpt>
      <trkpt lat="43.77835" lon="7.11701">
        <ele>752.20001220703</ele>
        <time>2020-01-11T11:04:50.000Z</time>
      </trkpt>
      <trkpt lat="43.77838" lon="7.11699">
        <ele>752</ele>
        <time>2020-01-11T11:04:51.000Z</time>
      </trkpt>
      <trkpt lat="43.77841" lon="7.11698">
        <ele>751.59997558594</ele>
        <time>2020-01-11T11:04:52.000Z</time>
      </trkpt>
      <trkpt lat="43.77843" lon="7.11697">
        <ele>751.40002441406</ele>
        <time>2020-01-11T11:04:53.000Z</time>
      </trkpt>
      <trkpt lat="43.77847" lon="7.11697">
        <ele>750.79998779297</ele>
        <time>2020-01-11T11:04:54.000Z</time>
      </trkpt>
      <trkpt lat="43.7785" lon="7.11697">
        <ele>750.40002441406</ele>
        <time>2020-01-11T11:04:55.000Z</time>
      </trkpt>
      <trkpt lat="43.77857" lon="7.11695">
        <ele>749.40002441406</ele>
        <time>2020-01-11T11:04:57.000Z</time>
      </trkpt>
      <trkpt lat="43.77861" lon="7.11695">
        <ele>748.79998779297</ele>
        <time>2020-01-11T11:04:58.000Z</time>
      </trkpt>
      <trkpt lat="43.77865" lon="7.11694">
        <ele>748.20001220703</ele>
        <time>2020-01-11T11:04:59.000Z</time>
      </trkpt>
      <trkpt lat="43.77873" lon="7.11689">
        <ele>747.20001220703</ele>
        <time>2020-01-11T11:05:01.000Z</time>
      </trkpt>
      <trkpt lat="43.77876" lon="7.11687">
        <ele>746.79998779297</ele>
        <time>2020-01-11T11:05:02.000Z</time>
      </trkpt>
      <trkpt lat="43.77883" lon="7.11683">
        <ele>745.79998779297</ele>
        <time>2020-01-11T11:05:04.000Z</time>
      </trkpt>
      <trkpt lat="43.77891" lon="7.11681">
        <ele>744.40002441406</ele>
        <time>2020-01-11T11:05:06.000Z</time>
      </trkpt>
      <trkpt lat="43.77894" lon="7.11678">
        <ele>743.79998779297</ele>
        <time>2020-01-11T11:05:07.000Z</time>
      </trkpt>
      <trkpt lat="43.77897" lon="7.11675">
        <ele>743</ele>
        <time>2020-01-11T11:05:08.000Z</time>
      </trkpt>
      <trkpt lat="43.779" lon="7.11672">
        <ele>742.59997558594</ele>
        <time>2020-01-11T11:05:09.000Z</time>
      </trkpt>
      <trkpt lat="43.77903" lon="7.11669">
        <ele>742</ele>
        <time>2020-01-11T11:05:10.000Z</time>
      </trkpt>
      <trkpt lat="43.77907" lon="7.11666">
        <ele>741.59997558594</ele>
        <time>2020-01-11T11:05:11.000Z</time>
      </trkpt>
      <trkpt lat="43.7791" lon="7.11663">
        <ele>741</ele>
        <time>2020-01-11T11:05:12.000Z</time>
      </trkpt>
      <trkpt lat="43.77913" lon="7.1166">
        <ele>740.20001220703</ele>
        <time>2020-01-11T11:05:13.000Z</time>
      </trkpt>
      <trkpt lat="43.77916" lon="7.11657">
        <ele>739.20001220703</ele>
        <time>2020-01-11T11:05:14.000Z</time>
      </trkpt>
      <trkpt lat="43.77923" lon="7.1165">
        <ele>737</ele>
        <time>2020-01-11T11:05:16.000Z</time>
      </trkpt>
      <trkpt lat="43.77927" lon="7.11646">
        <ele>736</ele>
        <time>2020-01-11T11:05:17.000Z</time>
      </trkpt>
      <trkpt lat="43.7793" lon="7.11642">
        <ele>734.79998779297</ele>
        <time>2020-01-11T11:05:18.000Z</time>
      </trkpt>
      <trkpt lat="43.77937" lon="7.1164">
        <ele>733</ele>
        <time>2020-01-11T11:05:20.000Z</time>
      </trkpt>
      <trkpt lat="43.77944" lon="7.11638">
        <ele>731.59997558594</ele>
        <time>2020-01-11T11:05:22.000Z</time>
      </trkpt>
      <trkpt lat="43.77947" lon="7.11634">
        <ele>731</ele>
        <time>2020-01-11T11:05:23.000Z</time>
      </trkpt>
      <trkpt lat="43.7795" lon="7.1163">
        <ele>730.40002441406</ele>
        <time>2020-01-11T11:05:24.000Z</time>
      </trkpt>
      <trkpt lat="43.77955" lon="7.11628">
        <ele>729.59997558594</ele>
        <time>2020-01-11T11:05:26.000Z</time>
      </trkpt>
      <trkpt lat="43.77958" lon="7.11629">
        <ele>728.59997558594</ele>
        <time>2020-01-11T11:05:27.000Z</time>
      </trkpt>
      <trkpt lat="43.77962" lon="7.11629">
        <ele>727.59997558594</ele>
        <time>2020-01-11T11:05:29.000Z</time>
      </trkpt>
      <trkpt lat="43.77963" lon="7.11628">
        <ele>727</ele>
        <time>2020-01-11T11:05:30.000Z</time>
      </trkpt>
      <trkpt lat="43.77968" lon="7.11621">
        <ele>725.79998779297</ele>
        <time>2020-01-11T11:05:34.000Z</time>
      </trkpt>
      <trkpt lat="43.77968" lon="7.11621">
        <ele>724.59997558594</ele>
        <time>2020-01-11T11:05:37.000Z</time>
      </trkpt>
      <trkpt lat="43.77969" lon="7.11621">
        <ele>723.59997558594</ele>
        <time>2020-01-11T11:05:42.000Z</time>
      </trkpt>
      <trkpt lat="43.77972" lon="7.1162">
        <ele>723.40002441406</ele>
        <time>2020-01-11T11:05:45.000Z</time>
      </trkpt>
      <trkpt lat="43.77973" lon="7.11619">
        <ele>723.20001220703</ele>
        <time>2020-01-11T11:05:48.000Z</time>
      </trkpt>
      <trkpt lat="43.77975" lon="7.11617">
        <ele>723</ele>
        <time>2020-01-11T11:05:49.000Z</time>
      </trkpt>
      <trkpt lat="43.77977" lon="7.11617">
        <ele>722.59997558594</ele>
        <time>2020-01-11T11:05:51.000Z</time>
      </trkpt>
      <trkpt lat="43.77978" lon="7.11617">
        <ele>722.20001220703</ele>
        <time>2020-01-11T11:05:52.000Z</time>
      </trkpt>
      <trkpt lat="43.7798" lon="7.11618">
        <ele>721.59997558594</ele>
        <time>2020-01-11T11:05:55.000Z</time>
      </trkpt>
      <trkpt lat="43.77984" lon="7.11616">
        <ele>721</ele>
        <time>2020-01-11T11:05:57.000Z</time>
      </trkpt>
      <trkpt lat="43.77989" lon="7.11604">
        <ele>719.59997558594</ele>
        <time>2020-01-11T11:06:01.000Z</time>
      </trkpt>
      <trkpt lat="43.77993" lon="7.11599">
        <ele>718.40002441406</ele>
        <time>2020-01-11T11:06:03.000Z</time>
      </trkpt>
      <trkpt lat="43.77998" lon="7.11595">
        <ele>717.40002441406</ele>
        <time>2020-01-11T11:06:05.000Z</time>
      </trkpt>
      <trkpt lat="43.78" lon="7.11592">
        <ele>716</ele>
        <time>2020-01-11T11:06:07.000Z</time>
      </trkpt>
      <trkpt lat="43.78001" lon="7.11591">
        <ele>715.40002441406</ele>
        <time>2020-01-11T11:06:09.000Z</time>
      </trkpt>
      <trkpt lat="43.78002" lon="7.1159">
        <ele>715</ele>
        <time>2020-01-11T11:06:10.000Z</time>
      </trkpt>
      <trkpt lat="43.78003" lon="7.11584">
        <ele>714.20001220703</ele>
        <time>2020-01-11T11:06:14.000Z</time>
      </trkpt>
      <trkpt lat="43.78003" lon="7.11582">
        <ele>714</ele>
        <time>2020-01-11T11:06:15.000Z</time>
      </trkpt>
      <trkpt lat="43.78004" lon="7.11579">
        <ele>713.59997558594</ele>
        <time>2020-01-11T11:06:16.000Z</time>
      </trkpt>
      <trkpt lat="43.78007" lon="7.11579">
        <ele>712.79998779297</ele>
        <time>2020-01-11T11:06:18.000Z</time>
      </trkpt>
      <trkpt lat="43.78009" lon="7.11578">
        <ele>712.40002441406</ele>
        <time>2020-01-11T11:06:19.000Z</time>
      </trkpt>
      <trkpt lat="43.78013" lon="7.11575">
        <ele>711.20001220703</ele>
        <time>2020-01-11T11:06:21.000Z</time>
      </trkpt>
      <trkpt lat="43.78014" lon="7.11573">
        <ele>710.79998779297</ele>
        <time>2020-01-11T11:06:22.000Z</time>
      </trkpt>
      <trkpt lat="43.78015" lon="7.11571">
        <ele>710.20001220703</ele>
        <time>2020-01-11T11:06:23.000Z</time>
      </trkpt>
      <trkpt lat="43.78018" lon="7.11568">
        <ele>709</ele>
        <time>2020-01-11T11:06:25.000Z</time>
      </trkpt>
      <trkpt lat="43.78022" lon="7.11564">
        <ele>707.59997558594</ele>
        <time>2020-01-11T11:06:27.000Z</time>
      </trkpt>
      <trkpt lat="43.78026" lon="7.1156">
        <ele>706.59997558594</ele>
        <time>2020-01-11T11:06:29.000Z</time>
      </trkpt>
      <trkpt lat="43.78027" lon="7.11559">
        <ele>705.79998779297</ele>
        <time>2020-01-11T11:06:30.000Z</time>
      </trkpt>
      <trkpt lat="43.78032" lon="7.11558">
        <ele>704.20001220703</ele>
        <time>2020-01-11T11:06:32.000Z</time>
      </trkpt>
      <trkpt lat="43.78037" lon="7.11554">
        <ele>702.79998779297</ele>
        <time>2020-01-11T11:06:34.000Z</time>
      </trkpt>
      <trkpt lat="43.78044" lon="7.11551">
        <ele>701.59997558594</ele>
        <time>2020-01-11T11:06:36.000Z</time>
      </trkpt>
      <trkpt lat="43.7805" lon="7.11552">
        <ele>700.20001220703</ele>
        <time>2020-01-11T11:06:38.000Z</time>
      </trkpt>
      <trkpt lat="43.78053" lon="7.11551">
        <ele>698.79998779297</ele>
        <time>2020-01-11T11:06:40.000Z</time>
      </trkpt>
      <trkpt lat="43.78056" lon="7.11551">
        <ele>698.40002441406</ele>
        <time>2020-01-11T11:06:41.000Z</time>
      </trkpt>
      <trkpt lat="43.7806" lon="7.11551">
        <ele>698</ele>
        <time>2020-01-11T11:06:42.000Z</time>
      </trkpt>
      <trkpt lat="43.78064" lon="7.11551">
        <ele>697.59997558594</ele>
        <time>2020-01-11T11:06:43.000Z</time>
      </trkpt>
      <trkpt lat="43.78078" lon="7.11549">
        <ele>696.40002441406</ele>
        <time>2020-01-11T11:06:46.000Z</time>
      </trkpt>
      <trkpt lat="43.78084" lon="7.11549">
        <ele>695</ele>
        <time>2020-01-11T11:06:48.000Z</time>
      </trkpt>
      <trkpt lat="43.78088" lon="7.1155">
        <ele>693.79998779297</ele>
        <time>2020-01-11T11:06:50.000Z</time>
      </trkpt>
      <trkpt lat="43.78089" lon="7.11549">
        <ele>693.40002441406</ele>
        <time>2020-01-11T11:06:51.000Z</time>
      </trkpt>
      <trkpt lat="43.78092" lon="7.11545">
        <ele>692.40002441406</ele>
        <time>2020-01-11T11:06:53.000Z</time>
      </trkpt>
      <trkpt lat="43.78095" lon="7.11542">
        <ele>692.20001220703</ele>
        <time>2020-01-11T11:06:54.000Z</time>
      </trkpt>
      <trkpt lat="43.781" lon="7.11539">
        <ele>691.40002441406</ele>
        <time>2020-01-11T11:06:56.000Z</time>
      </trkpt>
      <trkpt lat="43.78103" lon="7.11538">
        <ele>691</ele>
        <time>2020-01-11T11:06:57.000Z</time>
      </trkpt>
      <trkpt lat="43.78102" lon="7.11538">
        <ele>690.20001220703</ele>
        <time>2020-01-11T11:06:58.000Z</time>
      </trkpt>
      <trkpt lat="43.78105" lon="7.11538">
        <ele>689.79998779297</ele>
        <time>2020-01-11T11:06:59.000Z</time>
      </trkpt>
      <trkpt lat="43.78106" lon="7.11538">
        <ele>689.20001220703</ele>
        <time>2020-01-11T11:07:00.000Z</time>
      </trkpt>
      <trkpt lat="43.78107" lon="7.11537">
        <ele>688.40002441406</ele>
        <time>2020-01-11T11:07:02.000Z</time>
      </trkpt>
      <trkpt lat="43.7811" lon="7.11535">
        <ele>688</ele>
        <time>2020-01-11T11:07:04.000Z</time>
      </trkpt>
      <trkpt lat="43.78111" lon="7.11535">
        <ele>687.79998779297</ele>
        <time>2020-01-11T11:07:05.000Z</time>
      </trkpt>
      <trkpt lat="43.78113" lon="7.11533">
        <ele>687</ele>
        <time>2020-01-11T11:07:08.000Z</time>
      </trkpt>
      <trkpt lat="43.78115" lon="7.11532">
        <ele>686.40002441406</ele>
        <time>2020-01-11T11:07:10.000Z</time>
      </trkpt>
      <trkpt lat="43.78117" lon="7.11531">
        <ele>685.79998779297</ele>
        <time>2020-01-11T11:07:13.000Z</time>
      </trkpt>
      <trkpt lat="43.78119" lon="7.11531">
        <ele>685.40002441406</ele>
        <time>2020-01-11T11:07:15.000Z</time>
      </trkpt>
      <trkpt lat="43.78121" lon="7.11529">
        <ele>684.59997558594</ele>
        <time>2020-01-11T11:07:18.000Z</time>
      </trkpt>
      <trkpt lat="43.78123" lon="7.11527">
        <ele>683.79998779297</ele>
        <time>2020-01-11T11:07:21.000Z</time>
      </trkpt>
      <trkpt lat="43.78124" lon="7.11526">
        <ele>683.20001220703</ele>
        <time>2020-01-11T11:07:23.000Z</time>
      </trkpt>
      <trkpt lat="43.78124" lon="7.11525">
        <ele>682.59997558594</ele>
        <time>2020-01-11T11:07:28.000Z</time>
      </trkpt>
      <trkpt lat="43.78124" lon="7.11525">
        <ele>682.20001220703</ele>
        <time>2020-01-11T11:07:30.000Z</time>
      </trkpt>
      <trkpt lat="43.78126" lon="7.11523">
        <ele>682.20001220703</ele>
        <time>2020-01-11T11:07:35.000Z</time>
      </trkpt>
      <trkpt lat="43.78129" lon="7.1152">
        <ele>681.59997558594</ele>
        <time>2020-01-11T11:07:40.000Z</time>
      </trkpt>
      <trkpt lat="43.7813" lon="7.1152">
        <ele>681.40002441406</ele>
        <time>2020-01-11T11:07:41.000Z</time>
      </trkpt>
      <trkpt lat="43.78131" lon="7.11519">
        <ele>681</ele>
        <time>2020-01-11T11:07:42.000Z</time>
      </trkpt>
      <trkpt lat="43.78132" lon="7.1152">
        <ele>680.40002441406</ele>
        <time>2020-01-11T11:07:44.000Z</time>
      </trkpt>
      <trkpt lat="43.78134" lon="7.11521">
        <ele>679.79998779297</ele>
        <time>2020-01-11T11:07:46.000Z</time>
      </trkpt>
      <trkpt lat="43.78142" lon="7.1153">
        <ele>679.59997558594</ele>
        <time>2020-01-11T11:07:51.000Z</time>
      </trkpt>
      <trkpt lat="43.78149" lon="7.11538">
        <ele>679</ele>
        <time>2020-01-11T11:07:55.000Z</time>
      </trkpt>
      <trkpt lat="43.7815" lon="7.1154">
        <ele>678.79998779297</ele>
        <time>2020-01-11T11:07:56.000Z</time>
      </trkpt>
      <trkpt lat="43.78156" lon="7.1155">
        <ele>678.40002441406</ele>
        <time>2020-01-11T11:08:01.000Z</time>
      </trkpt>
      <trkpt lat="43.78163" lon="7.11563">
        <ele>679.20001220703</ele>
        <time>2020-01-11T11:08:08.000Z</time>
      </trkpt>
      <trkpt lat="43.78171" lon="7.11572">
        <ele>679.59997558594</ele>
        <time>2020-01-11T11:08:12.000Z</time>
      </trkpt>
      <trkpt lat="43.78185" lon="7.11584">
        <ele>678.79998779297</ele>
        <time>2020-01-11T11:08:17.000Z</time>
      </trkpt>
      <trkpt lat="43.78194" lon="7.11588">
        <ele>678.40002441406</ele>
        <time>2020-01-11T11:08:21.000Z</time>
      </trkpt>
      <trkpt lat="43.78196" lon="7.11586">
        <ele>678</ele>
        <time>2020-01-11T11:08:22.000Z</time>
      </trkpt>
      <trkpt lat="43.78198" lon="7.11583">
        <ele>677.79998779297</ele>
        <time>2020-01-11T11:08:23.000Z</time>
      </trkpt>
      <trkpt lat="43.78199" lon="7.11578">
        <ele>677.20001220703</ele>
        <time>2020-01-11T11:08:25.000Z</time>
      </trkpt>
      <trkpt lat="43.78199" lon="7.11576">
        <ele>677.20001220703</ele>
        <time>2020-01-11T11:08:26.000Z</time>
      </trkpt>
      <trkpt lat="43.78201" lon="7.11571">
        <ele>677.59997558594</ele>
        <time>2020-01-11T11:08:28.000Z</time>
      </trkpt>
      <trkpt lat="43.78203" lon="7.11569">
        <ele>678</ele>
        <time>2020-01-11T11:08:29.000Z</time>
      </trkpt>
      <trkpt lat="43.78206" lon="7.11564">
        <ele>678.79998779297</ele>
        <time>2020-01-11T11:08:32.000Z</time>
      </trkpt>
      <trkpt lat="43.78206" lon="7.11562">
        <ele>679.20001220703</ele>
        <time>2020-01-11T11:08:33.000Z</time>
      </trkpt>
      <trkpt lat="43.78206" lon="7.11559">
        <ele>679.40002441406</ele>
        <time>2020-01-11T11:08:34.000Z</time>
      </trkpt>
      <trkpt lat="43.78207" lon="7.11554">
        <ele>679.79998779297</ele>
        <time>2020-01-11T11:08:36.000Z</time>
      </trkpt>
      <trkpt lat="43.7821" lon="7.11548">
        <ele>680</ele>
        <time>2020-01-11T11:08:39.000Z</time>
      </trkpt>
      <trkpt lat="43.78212" lon="7.11544">
        <ele>679.59997558594</ele>
        <time>2020-01-11T11:08:41.000Z</time>
      </trkpt>
      <trkpt lat="43.78212" lon="7.11541">
        <ele>679.20001220703</ele>
        <time>2020-01-11T11:08:43.000Z</time>
      </trkpt>
      <trkpt lat="43.78211" lon="7.11539">
        <ele>679</ele>
        <time>2020-01-11T11:08:48.000Z</time>
      </trkpt>
      <trkpt lat="43.78212" lon="7.11534">
        <ele>679.59997558594</ele>
        <time>2020-01-11T11:08:54.000Z</time>
      </trkpt>
      <trkpt lat="43.78211" lon="7.11532">
        <ele>680.40002441406</ele>
        <time>2020-01-11T11:09:00.000Z</time>
      </trkpt>
      <trkpt lat="43.7821" lon="7.11529">
        <ele>680.79998779297</ele>
        <time>2020-01-11T11:09:02.000Z</time>
      </trkpt>
      <trkpt lat="43.78209" lon="7.11525">
        <ele>680.79998779297</ele>
        <time>2020-01-11T11:09:04.000Z</time>
      </trkpt>
      <trkpt lat="43.78203" lon="7.11518">
        <ele>680.79998779297</ele>
        <time>2020-01-11T11:09:08.000Z</time>
      </trkpt>
      <trkpt lat="43.78199" lon="7.11501">
        <ele>679.59997558594</ele>
        <time>2020-01-11T11:09:12.000Z</time>
      </trkpt>
      <trkpt lat="43.78193" lon="7.11488">
        <ele>679.40002441406</ele>
        <time>2020-01-11T11:09:16.000Z</time>
      </trkpt>
      <trkpt lat="43.78189" lon="7.11473">
        <ele>678.59997558594</ele>
        <time>2020-01-11T11:09:20.000Z</time>
      </trkpt>
      <trkpt lat="43.78187" lon="7.11468">
        <ele>677.20001220703</ele>
        <time>2020-01-11T11:09:23.000Z</time>
      </trkpt>
      <trkpt lat="43.78186" lon="7.11466">
        <ele>677.20001220703</ele>
        <time>2020-01-11T11:09:24.000Z</time>
      </trkpt>
      <trkpt lat="43.78183" lon="7.11454">
        <ele>676.79998779297</ele>
        <time>2020-01-11T11:09:29.000Z</time>
      </trkpt>
      <trkpt lat="43.78183" lon="7.11449">
        <ele>676.20001220703</ele>
        <time>2020-01-11T11:09:31.000Z</time>
      </trkpt>
      <trkpt lat="43.78183" lon="7.11444">
        <ele>676.20001220703</ele>
        <time>2020-01-11T11:09:33.000Z</time>
      </trkpt>
      <trkpt lat="43.78183" lon="7.11442">
        <ele>676</ele>
        <time>2020-01-11T11:09:34.000Z</time>
      </trkpt>
      <trkpt lat="43.78181" lon="7.11435">
        <ele>676.40002441406</ele>
        <time>2020-01-11T11:09:38.000Z</time>
      </trkpt>
      <trkpt lat="43.78181" lon="7.11431">
        <ele>677</ele>
        <time>2020-01-11T11:09:43.000Z</time>
      </trkpt>
      <trkpt lat="43.78181" lon="7.11431">
        <ele>677.40002441406</ele>
        <time>2020-01-11T11:09:45.000Z</time>
      </trkpt>
      <trkpt lat="43.7818" lon="7.11427">
        <ele>676.79998779297</ele>
        <time>2020-01-11T11:09:50.000Z</time>
      </trkpt>
      <trkpt lat="43.78178" lon="7.11422">
        <ele>677</ele>
        <time>2020-01-11T11:09:55.000Z</time>
      </trkpt>
      <trkpt lat="43.78177" lon="7.11421">
        <ele>677.20001220703</ele>
        <time>2020-01-11T11:09:57.000Z</time>
      </trkpt>
      <trkpt lat="43.78176" lon="7.11413">
        <ele>677.20001220703</ele>
        <time>2020-01-11T11:10:00.000Z</time>
      </trkpt>
      <trkpt lat="43.78171" lon="7.11402">
        <ele>678</ele>
        <time>2020-01-11T11:10:05.000Z</time>
      </trkpt>
      <trkpt lat="43.78168" lon="7.11395">
        <ele>678</ele>
        <time>2020-01-11T11:10:09.000Z</time>
      </trkpt>
      <trkpt lat="43.78167" lon="7.11393">
        <ele>677.79998779297</ele>
        <time>2020-01-11T11:10:17.000Z</time>
      </trkpt>
      <trkpt lat="43.78165" lon="7.11391">
        <ele>677.59997558594</ele>
        <time>2020-01-11T11:10:21.000Z</time>
      </trkpt>
      <trkpt lat="43.78165" lon="7.1139">
        <ele>677.20001220703</ele>
        <time>2020-01-11T11:10:24.000Z</time>
      </trkpt>
      <trkpt lat="43.78165" lon="7.11386">
        <ele>677.20001220703</ele>
        <time>2020-01-11T11:10:27.000Z</time>
      </trkpt>
      <trkpt lat="43.78165" lon="7.11383">
        <ele>678.40002441406</ele>
        <time>2020-01-11T11:10:32.000Z</time>
      </trkpt>
      <trkpt lat="43.78165" lon="7.11381">
        <ele>678.79998779297</ele>
        <time>2020-01-11T11:10:34.000Z</time>
      </trkpt>
      <trkpt lat="43.78163" lon="7.11378">
        <ele>679.40002441406</ele>
        <time>2020-01-11T11:10:38.000Z</time>
      </trkpt>
      <trkpt lat="43.78162" lon="7.11375">
        <ele>679.59997558594</ele>
        <time>2020-01-11T11:10:40.000Z</time>
      </trkpt>
      <trkpt lat="43.78157" lon="7.11366">
        <ele>679.20001220703</ele>
        <time>2020-01-11T11:10:44.000Z</time>
      </trkpt>
      <trkpt lat="43.7815" lon="7.11352">
        <ele>678.79998779297</ele>
        <time>2020-01-11T11:10:50.000Z</time>
      </trkpt>
      <trkpt lat="43.78146" lon="7.1134">
        <ele>679.20001220703</ele>
        <time>2020-01-11T11:10:56.000Z</time>
      </trkpt>
      <trkpt lat="43.78145" lon="7.11336">
        <ele>679.79998779297</ele>
        <time>2020-01-11T11:11:00.000Z</time>
      </trkpt>
      <trkpt lat="43.7814" lon="7.11329">
        <ele>680</ele>
        <time>2020-01-11T11:11:04.000Z</time>
      </trkpt>
      <trkpt lat="43.7814" lon="7.11326">
        <ele>680</ele>
        <time>2020-01-11T11:11:05.000Z</time>
      </trkpt>
      <trkpt lat="43.78136" lon="7.11318">
        <ele>680</ele>
        <time>2020-01-11T11:11:11.000Z</time>
      </trkpt>
      <trkpt lat="43.78136" lon="7.11319">
        <ele>680.20001220703</ele>
        <time>2020-01-11T11:11:18.000Z</time>
      </trkpt>
      <trkpt lat="43.78136" lon="7.11319">
        <ele>680.20001220703</ele>
        <time>2020-01-11T11:11:29.000Z</time>
      </trkpt>
      <trkpt lat="43.78136" lon="7.11319">
        <ele>679.79998779297</ele>
        <time>2020-01-11T11:11:35.000Z</time>
      </trkpt>
      <trkpt lat="43.78134" lon="7.11318">
        <ele>680</ele>
        <time>2020-01-11T11:11:56.000Z</time>
      </trkpt>
      <trkpt lat="43.78135" lon="7.11318">
        <ele>680</ele>
        <time>2020-01-11T11:12:08.000Z</time>
      </trkpt>
      <trkpt lat="43.78135" lon="7.11318">
        <ele>680</ele>
        <time>2020-01-11T11:12:30.000Z</time>
      </trkpt>
      <trkpt lat="43.78135" lon="7.11318">
        <ele>680.20001220703</ele>
        <time>2020-01-11T11:12:52.000Z</time>
      </trkpt>
      <trkpt lat="43.78136" lon="7.11319">
        <ele>680.20001220703</ele>
        <time>2020-01-11T11:12:53.000Z</time>
      </trkpt>
      <trkpt lat="43.78136" lon="7.11319">
        <ele>680.20001220703</ele>
        <time>2020-01-11T11:12:55.000Z</time>
      </trkpt>
      <trkpt lat="43.78136" lon="7.11319">
        <ele>679.79998779297</ele>
        <time>2020-01-11T11:13:05.000Z</time>
      </trkpt>
      <trkpt lat="43.78136" lon="7.11319">
        <ele>680</ele>
        <time>2020-01-11T11:13:13.000Z</time>
      </trkpt>
      <trkpt lat="43.78136" lon="7.11318">
        <ele>679.79998779297</ele>
        <time>2020-01-11T11:13:18.000Z</time>
      </trkpt>
      <trkpt lat="43.78136" lon="7.11318">
        <ele>680</ele>
        <time>2020-01-11T11:13:27.000Z</time>
      </trkpt>
      <trkpt lat="43.78136" lon="7.11318">
        <ele>680</ele>
        <time>2020-01-11T11:13:37.000Z</time>
      </trkpt>
      <trkpt lat="43.78135" lon="7.11318">
        <ele>679.79998779297</ele>
        <time>2020-01-11T11:13:50.000Z</time>
      </trkpt>
      <trkpt lat="43.78135" lon="7.11318">
        <ele>679.79998779297</ele>
        <time>2020-01-11T11:13:57.000Z</time>
      </trkpt>
      <trkpt lat="43.78135" lon="7.11318">
        <ele>680</ele>
        <time>2020-01-11T11:14:05.000Z</time>
      </trkpt>
      <trkpt lat="43.78135" lon="7.11318">
        <ele>679.59997558594</ele>
        <time>2020-01-11T11:14:18.000Z</time>
      </trkpt>
      <trkpt lat="43.78136" lon="7.11319">
        <ele>679.79998779297</ele>
        <time>2020-01-11T11:14:32.000Z</time>
      </trkpt>
      <trkpt lat="43.78135" lon="7.11318">
        <ele>679.59997558594</ele>
        <time>2020-01-11T11:14:52.000Z</time>
      </trkpt>
      <trkpt lat="43.78133" lon="7.11315">
        <ele>679.40002441406</ele>
        <time>2020-01-11T11:15:01.000Z</time>
      </trkpt>
      <trkpt lat="43.78127" lon="7.113">
        <ele>679.20001220703</ele>
        <time>2020-01-11T11:15:06.000Z</time>
      </trkpt>
      <trkpt lat="43.78124" lon="7.11288">
        <ele>678.40002441406</ele>
        <time>2020-01-11T11:15:10.000Z</time>
      </trkpt>
      <trkpt lat="43.78121" lon="7.11284">
        <ele>678</ele>
        <time>2020-01-11T11:15:12.000Z</time>
      </trkpt>
      <trkpt lat="43.78118" lon="7.11276">
        <ele>677.20001220703</ele>
        <time>2020-01-11T11:15:15.000Z</time>
      </trkpt>
      <trkpt lat="43.78119" lon="7.1127">
        <ele>676.59997558594</ele>
        <time>2020-01-11T11:15:17.000Z</time>
      </trkpt>
      <trkpt lat="43.78119" lon="7.11268">
        <ele>676.40002441406</ele>
        <time>2020-01-11T11:15:18.000Z</time>
      </trkpt>
      <trkpt lat="43.7812" lon="7.11263">
        <ele>676.20001220703</ele>
        <time>2020-01-11T11:15:20.000Z</time>
      </trkpt>
      <trkpt lat="43.78119" lon="7.11256">
        <ele>676.40002441406</ele>
        <time>2020-01-11T11:15:22.000Z</time>
      </trkpt>
      <trkpt lat="43.78121" lon="7.11244">
        <ele>676.40002441406</ele>
        <time>2020-01-11T11:15:25.000Z</time>
      </trkpt>
      <trkpt lat="43.78122" lon="7.11238">
        <ele>676.40002441406</ele>
        <time>2020-01-11T11:15:28.000Z</time>
      </trkpt>
      <trkpt lat="43.78122" lon="7.11236">
        <ele>676.40002441406</ele>
        <time>2020-01-11T11:15:29.000Z</time>
      </trkpt>
      <trkpt lat="43.78127" lon="7.11214">
        <ele>676.59997558594</ele>
        <time>2020-01-11T11:15:34.000Z</time>
      </trkpt>
      <trkpt lat="43.78137" lon="7.11193">
        <ele>677.79998779297</ele>
        <time>2020-01-11T11:15:40.000Z</time>
      </trkpt>
      <trkpt lat="43.78139" lon="7.11192">
        <ele>678.59997558594</ele>
        <time>2020-01-11T11:15:42.000Z</time>
      </trkpt>
      <trkpt lat="43.7814" lon="7.11192">
        <ele>678.79998779297</ele>
        <time>2020-01-11T11:15:43.000Z</time>
      </trkpt>
      <trkpt lat="43.78141" lon="7.11191">
        <ele>679.20001220703</ele>
        <time>2020-01-11T11:15:45.000Z</time>
      </trkpt>
      <trkpt lat="43.78144" lon="7.11187">
        <ele>679.79998779297</ele>
        <time>2020-01-11T11:15:48.000Z</time>
      </trkpt>
      <trkpt lat="43.78146" lon="7.11185">
        <ele>679.79998779297</ele>
        <time>2020-01-11T11:15:49.000Z</time>
      </trkpt>
      <trkpt lat="43.78146" lon="7.11183">
        <ele>680</ele>
        <time>2020-01-11T11:15:50.000Z</time>
      </trkpt>
      <trkpt lat="43.78151" lon="7.11172">
        <ele>680.40002441406</ele>
        <time>2020-01-11T11:15:54.000Z</time>
      </trkpt>
      <trkpt lat="43.78155" lon="7.11165">
        <ele>680.79998779297</ele>
        <time>2020-01-11T11:15:57.000Z</time>
      </trkpt>
      <trkpt lat="43.78158" lon="7.11161">
        <ele>681</ele>
        <time>2020-01-11T11:15:59.000Z</time>
      </trkpt>
      <trkpt lat="43.78165" lon="7.11152">
        <ele>682</ele>
        <time>2020-01-11T11:16:04.000Z</time>
      </trkpt>
      <trkpt lat="43.78166" lon="7.11151">
        <ele>682.20001220703</ele>
        <time>2020-01-11T11:16:05.000Z</time>
      </trkpt>
      <trkpt lat="43.78172" lon="7.11144">
        <ele>683</ele>
        <time>2020-01-11T11:16:10.000Z</time>
      </trkpt>
      <trkpt lat="43.78173" lon="7.11144">
        <ele>684</ele>
        <time>2020-01-11T11:16:14.000Z</time>
      </trkpt>
      <trkpt lat="43.78174" lon="7.11144">
        <ele>684.40002441406</ele>
        <time>2020-01-11T11:16:19.000Z</time>
      </trkpt>
      <trkpt lat="43.78176" lon="7.11143">
        <ele>684.59997558594</ele>
        <time>2020-01-11T11:16:25.000Z</time>
      </trkpt>
      <trkpt lat="43.78176" lon="7.11142">
        <ele>684.79998779297</ele>
        <time>2020-01-11T11:16:29.000Z</time>
      </trkpt>
      <trkpt lat="43.78178" lon="7.11139">
        <ele>684.79998779297</ele>
        <time>2020-01-11T11:16:31.000Z</time>
      </trkpt>
      <trkpt lat="43.7818" lon="7.11135">
        <ele>685</ele>
        <time>2020-01-11T11:16:33.000Z</time>
      </trkpt>
      <trkpt lat="43.78182" lon="7.11131">
        <ele>685.20001220703</ele>
        <time>2020-01-11T11:16:35.000Z</time>
      </trkpt>
      <trkpt lat="43.78184" lon="7.11129">
        <ele>685.40002441406</ele>
        <time>2020-01-11T11:16:36.000Z</time>
      </trkpt>
      <trkpt lat="43.78192" lon="7.11125">
        <ele>686.40002441406</ele>
        <time>2020-01-11T11:16:40.000Z</time>
      </trkpt>
      <trkpt lat="43.78193" lon="7.11124">
        <ele>686.79998779297</ele>
        <time>2020-01-11T11:16:41.000Z</time>
      </trkpt>
      <trkpt lat="43.78198" lon="7.11121">
        <ele>687.79998779297</ele>
        <time>2020-01-11T11:16:44.000Z</time>
      </trkpt>
      <trkpt lat="43.78199" lon="7.11118">
        <ele>688.40002441406</ele>
        <time>2020-01-11T11:16:46.000Z</time>
      </trkpt>
      <trkpt lat="43.78201" lon="7.11116">
        <ele>688.79998779297</ele>
        <time>2020-01-11T11:16:47.000Z</time>
      </trkpt>
      <trkpt lat="43.78203" lon="7.11115">
        <ele>689.59997558594</ele>
        <time>2020-01-11T11:16:50.000Z</time>
      </trkpt>
      <trkpt lat="43.78203" lon="7.11114">
        <ele>690</ele>
        <time>2020-01-11T11:16:53.000Z</time>
      </trkpt>
      <trkpt lat="43.78204" lon="7.11112">
        <ele>690</ele>
        <time>2020-01-11T11:16:55.000Z</time>
      </trkpt>
      <trkpt lat="43.78206" lon="7.11109">
        <ele>690</ele>
        <time>2020-01-11T11:16:57.000Z</time>
      </trkpt>
      <trkpt lat="43.78209" lon="7.11103">
        <ele>690</ele>
        <time>2020-01-11T11:17:01.000Z</time>
      </trkpt>
      <trkpt lat="43.78211" lon="7.111">
        <ele>690.40002441406</ele>
        <time>2020-01-11T11:17:05.000Z</time>
      </trkpt>
      <trkpt lat="43.78216" lon="7.11093">
        <ele>690.59997558594</ele>
        <time>2020-01-11T11:17:09.000Z</time>
      </trkpt>
      <trkpt lat="43.78217" lon="7.11093">
        <ele>690.59997558594</ele>
        <time>2020-01-11T11:17:10.000Z</time>
      </trkpt>
      <trkpt lat="43.7822" lon="7.11093">
        <ele>690.59997558594</ele>
        <time>2020-01-11T11:17:14.000Z</time>
      </trkpt>
      <trkpt lat="43.7822" lon="7.11092">
        <ele>691</ele>
        <time>2020-01-11T11:17:16.000Z</time>
      </trkpt>
      <trkpt lat="43.78221" lon="7.11091">
        <ele>691</ele>
        <time>2020-01-11T11:17:19.000Z</time>
      </trkpt>
      <trkpt lat="43.78225" lon="7.11084">
        <ele>691.40002441406</ele>
        <time>2020-01-11T11:17:24.000Z</time>
      </trkpt>
      <trkpt lat="43.78225" lon="7.11083">
        <ele>691.20001220703</ele>
        <time>2020-01-11T11:17:28.000Z</time>
      </trkpt>
      <trkpt lat="43.78226" lon="7.11081">
        <ele>691</ele>
        <time>2020-01-11T11:17:29.000Z</time>
      </trkpt>
      <trkpt lat="43.78228" lon="7.11077">
        <ele>690.79998779297</ele>
        <time>2020-01-11T11:17:33.000Z</time>
      </trkpt>
      <trkpt lat="43.78229" lon="7.11068">
        <ele>690</ele>
        <time>2020-01-11T11:17:38.000Z</time>
      </trkpt>
      <trkpt lat="43.7823" lon="7.11062">
        <ele>688.59997558594</ele>
        <time>2020-01-11T11:17:41.000Z</time>
      </trkpt>
      <trkpt lat="43.78231" lon="7.11059">
        <ele>688</ele>
        <time>2020-01-11T11:17:42.000Z</time>
      </trkpt>
      <trkpt lat="43.78232" lon="7.11057">
        <ele>687.59997558594</ele>
        <time>2020-01-11T11:17:43.000Z</time>
      </trkpt>
      <trkpt lat="43.78234" lon="7.11055">
        <ele>687.20001220703</ele>
        <time>2020-01-11T11:17:44.000Z</time>
      </trkpt>
      <trkpt lat="43.78236" lon="7.11054">
        <ele>686.40002441406</ele>
        <time>2020-01-11T11:17:46.000Z</time>
      </trkpt>
      <trkpt lat="43.78236" lon="7.11054">
        <ele>686.20001220703</ele>
        <time>2020-01-11T11:17:47.000Z</time>
      </trkpt>
      <trkpt lat="43.78237" lon="7.11053">
        <ele>686</ele>
        <time>2020-01-11T11:17:49.000Z</time>
      </trkpt>
      <trkpt lat="43.78238" lon="7.1105">
        <ele>686.20001220703</ele>
        <time>2020-01-11T11:17:51.000Z</time>
      </trkpt>
      <trkpt lat="43.7824" lon="7.11037">
        <ele>685.59997558594</ele>
        <time>2020-01-11T11:17:55.000Z</time>
      </trkpt>
      <trkpt lat="43.7824" lon="7.11034">
        <ele>685</ele>
        <time>2020-01-11T11:17:56.000Z</time>
      </trkpt>
      <trkpt lat="43.7824" lon="7.11031">
        <ele>684.20001220703</ele>
        <time>2020-01-11T11:17:57.000Z</time>
      </trkpt>
      <trkpt lat="43.7824" lon="7.11027">
        <ele>683.40002441406</ele>
        <time>2020-01-11T11:17:58.000Z</time>
      </trkpt>
      <trkpt lat="43.78244" lon="7.1102">
        <ele>682.20001220703</ele>
        <time>2020-01-11T11:18:00.000Z</time>
      </trkpt>
      <trkpt lat="43.78248" lon="7.11013">
        <ele>681.20001220703</ele>
        <time>2020-01-11T11:18:03.000Z</time>
      </trkpt>
      <trkpt lat="43.78248" lon="7.11011">
        <ele>680.79998779297</ele>
        <time>2020-01-11T11:18:04.000Z</time>
      </trkpt>
      <trkpt lat="43.78252" lon="7.11004">
        <ele>680.40002441406</ele>
        <time>2020-01-11T11:18:07.000Z</time>
      </trkpt>
      <trkpt lat="43.78256" lon="7.11">
        <ele>680.20001220703</ele>
        <time>2020-01-11T11:18:11.000Z</time>
      </trkpt>
      <trkpt lat="43.78257" lon="7.10998">
        <ele>680.20001220703</ele>
        <time>2020-01-11T11:18:13.000Z</time>
      </trkpt>
      <trkpt lat="43.78258" lon="7.10996">
        <ele>680.20001220703</ele>
        <time>2020-01-11T11:18:14.000Z</time>
      </trkpt>
      <trkpt lat="43.78261" lon="7.10992">
        <ele>679.79998779297</ele>
        <time>2020-01-11T11:18:16.000Z</time>
      </trkpt>
      <trkpt lat="43.78266" lon="7.10982">
        <ele>679.59997558594</ele>
        <time>2020-01-11T11:18:20.000Z</time>
      </trkpt>
      <trkpt lat="43.78268" lon="7.10981">
        <ele>679.40002441406</ele>
        <time>2020-01-11T11:18:21.000Z</time>
      </trkpt>
      <trkpt lat="43.78271" lon="7.10978">
        <ele>679.59997558594</ele>
        <time>2020-01-11T11:18:26.000Z</time>
      </trkpt>
      <trkpt lat="43.78272" lon="7.10974">
        <ele>679.40002441406</ele>
        <time>2020-01-11T11:18:30.000Z</time>
      </trkpt>
      <trkpt lat="43.78273" lon="7.10973">
        <ele>679.40002441406</ele>
        <time>2020-01-11T11:18:31.000Z</time>
      </trkpt>
      <trkpt lat="43.78275" lon="7.10971">
        <ele>679</ele>
        <time>2020-01-11T11:18:34.000Z</time>
      </trkpt>
      <trkpt lat="43.78274" lon="7.10972">
        <ele>679</ele>
        <time>2020-01-11T11:18:35.000Z</time>
      </trkpt>
      <trkpt lat="43.78279" lon="7.10965">
        <ele>678.79998779297</ele>
        <time>2020-01-11T11:18:40.000Z</time>
      </trkpt>
      <trkpt lat="43.78281" lon="7.10961">
        <ele>679</ele>
        <time>2020-01-11T11:18:45.000Z</time>
      </trkpt>
      <trkpt lat="43.78282" lon="7.10957">
        <ele>679</ele>
        <time>2020-01-11T11:18:47.000Z</time>
      </trkpt>
      <trkpt lat="43.78286" lon="7.10953">
        <ele>678.59997558594</ele>
        <time>2020-01-11T11:18:49.000Z</time>
      </trkpt>
      <trkpt lat="43.78289" lon="7.10948">
        <ele>677.79998779297</ele>
        <time>2020-01-11T11:18:51.000Z</time>
      </trkpt>
      <trkpt lat="43.78294" lon="7.10942">
        <ele>676.79998779297</ele>
        <time>2020-01-11T11:18:54.000Z</time>
      </trkpt>
      <trkpt lat="43.78303" lon="7.10932">
        <ele>675.79998779297</ele>
        <time>2020-01-11T11:18:59.000Z</time>
      </trkpt>
      <trkpt lat="43.78304" lon="7.1093">
        <ele>675.20001220703</ele>
        <time>2020-01-11T11:19:00.000Z</time>
      </trkpt>
      <trkpt lat="43.78308" lon="7.10927">
        <ele>674.59997558594</ele>
        <time>2020-01-11T11:19:02.000Z</time>
      </trkpt>
      <trkpt lat="43.78313" lon="7.10925">
        <ele>674</ele>
        <time>2020-01-11T11:19:04.000Z</time>
      </trkpt>
      <trkpt lat="43.78315" lon="7.10924">
        <ele>674.40002441406</ele>
        <time>2020-01-11T11:19:08.000Z</time>
      </trkpt>
      <trkpt lat="43.78317" lon="7.10921">
        <ele>674.79998779297</ele>
        <time>2020-01-11T11:19:14.000Z</time>
      </trkpt>
      <trkpt lat="43.78322" lon="7.10917">
        <ele>674.79998779297</ele>
        <time>2020-01-11T11:19:20.000Z</time>
      </trkpt>
      <trkpt lat="43.78326" lon="7.10916">
        <ele>675</ele>
        <time>2020-01-11T11:19:23.000Z</time>
      </trkpt>
      <trkpt lat="43.78328" lon="7.10912">
        <ele>675</ele>
        <time>2020-01-11T11:19:25.000Z</time>
      </trkpt>
      <trkpt lat="43.78324" lon="7.10903">
        <ele>674.79998779297</ele>
        <time>2020-01-11T11:19:29.000Z</time>
      </trkpt>
      <trkpt lat="43.78324" lon="7.109">
        <ele>674.79998779297</ele>
        <time>2020-01-11T11:19:30.000Z</time>
      </trkpt>
      <trkpt lat="43.78324" lon="7.10894">
        <ele>675.40002441406</ele>
        <time>2020-01-11T11:19:33.000Z</time>
      </trkpt>
      <trkpt lat="43.78326" lon="7.10889">
        <ele>675.79998779297</ele>
        <time>2020-01-11T11:19:35.000Z</time>
      </trkpt>
      <trkpt lat="43.78327" lon="7.10888">
        <ele>676</ele>
        <time>2020-01-11T11:19:36.000Z</time>
      </trkpt>
      <trkpt lat="43.78327" lon="7.10886">
        <ele>676</ele>
        <time>2020-01-11T11:19:37.000Z</time>
      </trkpt>
      <trkpt lat="43.78331" lon="7.10879">
        <ele>676.20001220703</ele>
        <time>2020-01-11T11:19:40.000Z</time>
      </trkpt>
      <trkpt lat="43.78332" lon="7.10878">
        <ele>676.40002441406</ele>
        <time>2020-01-11T11:19:41.000Z</time>
      </trkpt>
      <trkpt lat="43.78333" lon="7.10876">
        <ele>676.79998779297</ele>
        <time>2020-01-11T11:19:43.000Z</time>
      </trkpt>
      <trkpt lat="43.78334" lon="7.10875">
        <ele>677.20001220703</ele>
        <time>2020-01-11T11:19:44.000Z</time>
      </trkpt>
      <trkpt lat="43.78336" lon="7.10871">
        <ele>677.59997558594</ele>
        <time>2020-01-11T11:19:49.000Z</time>
      </trkpt>
      <trkpt lat="43.78337" lon="7.10868">
        <ele>678</ele>
        <time>2020-01-11T11:19:53.000Z</time>
      </trkpt>
      <trkpt lat="43.78339" lon="7.10867">
        <ele>678</ele>
        <time>2020-01-11T11:19:54.000Z</time>
      </trkpt>
      <trkpt lat="43.78338" lon="7.10867">
        <ele>678.40002441406</ele>
        <time>2020-01-11T11:19:57.000Z</time>
      </trkpt>
      <trkpt lat="43.78339" lon="7.10865">
        <ele>678.40002441406</ele>
        <time>2020-01-11T11:20:03.000Z</time>
      </trkpt>
      <trkpt lat="43.7834" lon="7.10861">
        <ele>677.79998779297</ele>
        <time>2020-01-11T11:20:09.000Z</time>
      </trkpt>
      <trkpt lat="43.78344" lon="7.10852">
        <ele>678</ele>
        <time>2020-01-11T11:20:14.000Z</time>
      </trkpt>
      <trkpt lat="43.78347" lon="7.10846">
        <ele>678.59997558594</ele>
        <time>2020-01-11T11:20:19.000Z</time>
      </trkpt>
      <trkpt lat="43.78348" lon="7.10842">
        <ele>679</ele>
        <time>2020-01-11T11:20:22.000Z</time>
      </trkpt>
      <trkpt lat="43.7835" lon="7.10839">
        <ele>679</ele>
        <time>2020-01-11T11:20:24.000Z</time>
      </trkpt>
      <trkpt lat="43.78355" lon="7.10826">
        <ele>679.79998779297</ele>
        <time>2020-01-11T11:20:30.000Z</time>
      </trkpt>
      <trkpt lat="43.78357" lon="7.10822">
        <ele>680.20001220703</ele>
        <time>2020-01-11T11:20:32.000Z</time>
      </trkpt>
      <trkpt lat="43.78359" lon="7.10812">
        <ele>680.59997558594</ele>
        <time>2020-01-11T11:20:36.000Z</time>
      </trkpt>
      <trkpt lat="43.78364" lon="7.10787">
        <ele>680.20001220703</ele>
        <time>2020-01-11T11:20:42.000Z</time>
      </trkpt>
      <trkpt lat="43.78366" lon="7.10765">
        <ele>680</ele>
        <time>2020-01-11T11:20:48.000Z</time>
      </trkpt>
      <trkpt lat="43.78373" lon="7.10741">
        <ele>679.40002441406</ele>
        <time>2020-01-11T11:20:53.000Z</time>
      </trkpt>
      <trkpt lat="43.78376" lon="7.10732">
        <ele>679</ele>
        <time>2020-01-11T11:20:55.000Z</time>
      </trkpt>
      <trkpt lat="43.78384" lon="7.10719">
        <ele>679.20001220703</ele>
        <time>2020-01-11T11:20:59.000Z</time>
      </trkpt>
      <trkpt lat="43.78395" lon="7.10697">
        <ele>680</ele>
        <time>2020-01-11T11:21:05.000Z</time>
      </trkpt>
      <trkpt lat="43.78403" lon="7.10678">
        <ele>679.40002441406</ele>
        <time>2020-01-11T11:21:10.000Z</time>
      </trkpt>
      <trkpt lat="43.78406" lon="7.10663">
        <ele>680.40002441406</ele>
        <time>2020-01-11T11:21:14.000Z</time>
      </trkpt>
      <trkpt lat="43.78408" lon="7.10657">
        <ele>680.79998779297</ele>
        <time>2020-01-11T11:21:16.000Z</time>
      </trkpt>
      <trkpt lat="43.78409" lon="7.1065">
        <ele>681.40002441406</ele>
        <time>2020-01-11T11:21:19.000Z</time>
      </trkpt>
      <trkpt lat="43.78409" lon="7.10644">
        <ele>682.59997558594</ele>
        <time>2020-01-11T11:21:22.000Z</time>
      </trkpt>
      <trkpt lat="43.78411" lon="7.10635">
        <ele>683.79998779297</ele>
        <time>2020-01-11T11:21:26.000Z</time>
      </trkpt>
      <trkpt lat="43.78411" lon="7.10629">
        <ele>684.79998779297</ele>
        <time>2020-01-11T11:21:29.000Z</time>
      </trkpt>
      <trkpt lat="43.78411" lon="7.10627">
        <ele>685.20001220703</ele>
        <time>2020-01-11T11:21:30.000Z</time>
      </trkpt>
      <trkpt lat="43.78411" lon="7.10624">
        <ele>686.20001220703</ele>
        <time>2020-01-11T11:21:32.000Z</time>
      </trkpt>
      <trkpt lat="43.78411" lon="7.10623">
        <ele>687.20001220703</ele>
        <time>2020-01-11T11:21:34.000Z</time>
      </trkpt>
      <trkpt lat="43.78411" lon="7.10623">
        <ele>687.59997558594</ele>
        <time>2020-01-11T11:21:35.000Z</time>
      </trkpt>
      <trkpt lat="43.78411" lon="7.10623">
        <ele>688.40002441406</ele>
        <time>2020-01-11T11:21:38.000Z</time>
      </trkpt>
      <trkpt lat="43.78411" lon="7.10623">
        <ele>687.79998779297</ele>
        <time>2020-01-11T11:21:41.000Z</time>
      </trkpt>
      <trkpt lat="43.78412" lon="7.1062">
        <ele>688.59997558594</ele>
        <time>2020-01-11T11:21:49.000Z</time>
      </trkpt>
      <trkpt lat="43.78412" lon="7.10618">
        <ele>689.40002441406</ele>
        <time>2020-01-11T11:21:56.000Z</time>
      </trkpt>
      <trkpt lat="43.78412" lon="7.10617">
        <ele>689.59997558594</ele>
        <time>2020-01-11T11:21:57.000Z</time>
      </trkpt>
      <trkpt lat="43.78412" lon="7.10614">
        <ele>690.40002441406</ele>
        <time>2020-01-11T11:22:03.000Z</time>
      </trkpt>
      <trkpt lat="43.78412" lon="7.10614">
        <ele>690.59997558594</ele>
        <time>2020-01-11T11:22:04.000Z</time>
      </trkpt>
      <trkpt lat="43.78412" lon="7.10611">
        <ele>691.59997558594</ele>
        <time>2020-01-11T11:22:10.000Z</time>
      </trkpt>
      <trkpt lat="43.78411" lon="7.10608">
        <ele>692.59997558594</ele>
        <time>2020-01-11T11:22:16.000Z</time>
      </trkpt>
      <trkpt lat="43.78409" lon="7.10605">
        <ele>693.20001220703</ele>
        <time>2020-01-11T11:22:26.000Z</time>
      </trkpt>
      <trkpt lat="43.78403" lon="7.10594">
        <ele>693</ele>
        <time>2020-01-11T11:22:31.000Z</time>
      </trkpt>
      <trkpt lat="43.784" lon="7.10577">
        <ele>692.79998779297</ele>
        <time>2020-01-11T11:22:37.000Z</time>
      </trkpt>
      <trkpt lat="43.78399" lon="7.10561">
        <ele>693.59997558594</ele>
        <time>2020-01-11T11:22:42.000Z</time>
      </trkpt>
      <trkpt lat="43.78403" lon="7.1055">
        <ele>693.59997558594</ele>
        <time>2020-01-11T11:22:46.000Z</time>
      </trkpt>
      <trkpt lat="43.78404" lon="7.10548">
        <ele>694</ele>
        <time>2020-01-11T11:22:47.000Z</time>
      </trkpt>
      <trkpt lat="43.78411" lon="7.10539">
        <ele>694.79998779297</ele>
        <time>2020-01-11T11:22:52.000Z</time>
      </trkpt>
      <trkpt lat="43.78415" lon="7.10533">
        <ele>695.79998779297</ele>
        <time>2020-01-11T11:22:55.000Z</time>
      </trkpt>
      <trkpt lat="43.78419" lon="7.10525">
        <ele>696.59997558594</ele>
        <time>2020-01-11T11:22:58.000Z</time>
      </trkpt>
      <trkpt lat="43.78421" lon="7.10519">
        <ele>696.79998779297</ele>
        <time>2020-01-11T11:23:00.000Z</time>
      </trkpt>
      <trkpt lat="43.78423" lon="7.10505">
        <ele>697</ele>
        <time>2020-01-11T11:23:04.000Z</time>
      </trkpt>
      <trkpt lat="43.78426" lon="7.10495">
        <ele>696.79998779297</ele>
        <time>2020-01-11T11:23:09.000Z</time>
      </trkpt>
      <trkpt lat="43.78424" lon="7.10491">
        <ele>697.40002441406</ele>
        <time>2020-01-11T11:23:15.000Z</time>
      </trkpt>
      <trkpt lat="43.78423" lon="7.10477">
        <ele>697.59997558594</ele>
        <time>2020-01-11T11:23:20.000Z</time>
      </trkpt>
      <trkpt lat="43.78426" lon="7.10459">
        <ele>696.79998779297</ele>
        <time>2020-01-11T11:23:24.000Z</time>
      </trkpt>
      <trkpt lat="43.78428" lon="7.10452">
        <ele>696.59997558594</ele>
        <time>2020-01-11T11:23:28.000Z</time>
      </trkpt>
      <trkpt lat="43.7843" lon="7.10441">
        <ele>697.40002441406</ele>
        <time>2020-01-11T11:23:34.000Z</time>
      </trkpt>
      <trkpt lat="43.78434" lon="7.10427">
        <ele>698</ele>
        <time>2020-01-11T11:23:39.000Z</time>
      </trkpt>
      <trkpt lat="43.78436" lon="7.10425">
        <ele>698.20001220703</ele>
        <time>2020-01-11T11:23:40.000Z</time>
      </trkpt>
      <trkpt lat="43.78437" lon="7.10422">
        <ele>699.40002441406</ele>
        <time>2020-01-11T11:23:43.000Z</time>
      </trkpt>
      <trkpt lat="43.78437" lon="7.10421">
        <ele>699.79998779297</ele>
        <time>2020-01-11T11:23:44.000Z</time>
      </trkpt>
      <trkpt lat="43.78437" lon="7.10421">
        <ele>700.59997558594</ele>
        <time>2020-01-11T11:23:46.000Z</time>
      </trkpt>
      <trkpt lat="43.78437" lon="7.10418">
        <ele>701</ele>
        <time>2020-01-11T11:23:51.000Z</time>
      </trkpt>
      <trkpt lat="43.78437" lon="7.10417">
        <ele>701.59997558594</ele>
        <time>2020-01-11T11:23:55.000Z</time>
      </trkpt>
      <trkpt lat="43.78437" lon="7.10417">
        <ele>701.79998779297</ele>
        <time>2020-01-11T11:23:56.000Z</time>
      </trkpt>
      <trkpt lat="43.78437" lon="7.10415">
        <ele>702.20001220703</ele>
        <time>2020-01-11T11:24:01.000Z</time>
      </trkpt>
      <trkpt lat="43.78438" lon="7.10409">
        <ele>702.20001220703</ele>
        <time>2020-01-11T11:24:07.000Z</time>
      </trkpt>
      <trkpt lat="43.78439" lon="7.10402">
        <ele>702.79998779297</ele>
        <time>2020-01-11T11:24:10.000Z</time>
      </trkpt>
      <trkpt lat="43.7844" lon="7.10396">
        <ele>703.40002441406</ele>
        <time>2020-01-11T11:24:12.000Z</time>
      </trkpt>
      <trkpt lat="43.78441" lon="7.10394">
        <ele>703.79998779297</ele>
        <time>2020-01-11T11:24:13.000Z</time>
      </trkpt>
      <trkpt lat="43.78441" lon="7.10391">
        <ele>705</ele>
        <time>2020-01-11T11:24:15.000Z</time>
      </trkpt>
      <trkpt lat="43.78443" lon="7.10386">
        <ele>706</ele>
        <time>2020-01-11T11:24:17.000Z</time>
      </trkpt>
      <trkpt lat="43.78443" lon="7.10383">
        <ele>707</ele>
        <time>2020-01-11T11:24:19.000Z</time>
      </trkpt>
      <trkpt lat="43.78443" lon="7.10383">
        <ele>707.40002441406</ele>
        <time>2020-01-11T11:24:20.000Z</time>
      </trkpt>
      <trkpt lat="43.78443" lon="7.10382">
        <ele>707.59997558594</ele>
        <time>2020-01-11T11:24:21.000Z</time>
      </trkpt>
      <trkpt lat="43.78442" lon="7.10378">
        <ele>707.79998779297</ele>
        <time>2020-01-11T11:24:25.000Z</time>
      </trkpt>
      <trkpt lat="43.7844" lon="7.10376">
        <ele>707.79998779297</ele>
        <time>2020-01-11T11:24:26.000Z</time>
      </trkpt>
      <trkpt lat="43.7843" lon="7.10358">
        <ele>707.59997558594</ele>
        <time>2020-01-11T11:24:33.000Z</time>
      </trkpt>
      <trkpt lat="43.78428" lon="7.10354">
        <ele>708.40002441406</ele>
        <time>2020-01-11T11:24:35.000Z</time>
      </trkpt>
      <trkpt lat="43.78428" lon="7.10352">
        <ele>708.59997558594</ele>
        <time>2020-01-11T11:24:36.000Z</time>
      </trkpt>
      <trkpt lat="43.78428" lon="7.10351">
        <ele>709.20001220703</ele>
        <time>2020-01-11T11:24:38.000Z</time>
      </trkpt>
      <trkpt lat="43.78428" lon="7.10351">
        <ele>709.40002441406</ele>
        <time>2020-01-11T11:24:39.000Z</time>
      </trkpt>
      <trkpt lat="43.78427" lon="7.10349">
        <ele>710.20001220703</ele>
        <time>2020-01-11T11:24:44.000Z</time>
      </trkpt>
      <trkpt lat="43.78426" lon="7.10347">
        <ele>710.20001220703</ele>
        <time>2020-01-11T11:24:45.000Z</time>
      </trkpt>
      <trkpt lat="43.78426" lon="7.10343">
        <ele>710.59997558594</ele>
        <time>2020-01-11T11:24:47.000Z</time>
      </trkpt>
      <trkpt lat="43.78426" lon="7.10341">
        <ele>710.79998779297</ele>
        <time>2020-01-11T11:24:48.000Z</time>
      </trkpt>
      <trkpt lat="43.78426" lon="7.1034">
        <ele>711.59997558594</ele>
        <time>2020-01-11T11:24:52.000Z</time>
      </trkpt>
      <trkpt lat="43.78426" lon="7.10339">
        <ele>711.79998779297</ele>
        <time>2020-01-11T11:24:53.000Z</time>
      </trkpt>
      <trkpt lat="43.78424" lon="7.10335">
        <ele>712.40002441406</ele>
        <time>2020-01-11T11:24:58.000Z</time>
      </trkpt>
      <trkpt lat="43.78422" lon="7.10327">
        <ele>712.79998779297</ele>
        <time>2020-01-11T11:25:02.000Z</time>
      </trkpt>
      <trkpt lat="43.78422" lon="7.10325">
        <ele>713</ele>
        <time>2020-01-11T11:25:03.000Z</time>
      </trkpt>
      <trkpt lat="43.78422" lon="7.10318">
        <ele>713.79998779297</ele>
        <time>2020-01-11T11:25:06.000Z</time>
      </trkpt>
      <trkpt lat="43.78422" lon="7.10318">
        <ele>714.40002441406</ele>
        <time>2020-01-11T11:25:08.000Z</time>
      </trkpt>
      <trkpt lat="43.78422" lon="7.10317">
        <ele>715</ele>
        <time>2020-01-11T11:25:10.000Z</time>
      </trkpt>
      <trkpt lat="43.78422" lon="7.10315">
        <ele>715.40002441406</ele>
        <time>2020-01-11T11:25:14.000Z</time>
      </trkpt>
      <trkpt lat="43.7842" lon="7.10311">
        <ele>716</ele>
        <time>2020-01-11T11:25:20.000Z</time>
      </trkpt>
      <trkpt lat="43.78416" lon="7.10304">
        <ele>715.79998779297</ele>
        <time>2020-01-11T11:25:25.000Z</time>
      </trkpt>
      <trkpt lat="43.78413" lon="7.10298">
        <ele>716</ele>
        <time>2020-01-11T11:25:27.000Z</time>
      </trkpt>
      <trkpt lat="43.78411" lon="7.10293">
        <ele>716</ele>
        <time>2020-01-11T11:25:29.000Z</time>
      </trkpt>
      <trkpt lat="43.78405" lon="7.10279">
        <ele>716.79998779297</ele>
        <time>2020-01-11T11:25:35.000Z</time>
      </trkpt>
      <trkpt lat="43.78405" lon="7.10278">
        <ele>717</ele>
        <time>2020-01-11T11:25:36.000Z</time>
      </trkpt>
      <trkpt lat="43.78399" lon="7.10269">
        <ele>717.20001220703</ele>
        <time>2020-01-11T11:25:40.000Z</time>
      </trkpt>
      <trkpt lat="43.78397" lon="7.10255">
        <ele>716.79998779297</ele>
        <time>2020-01-11T11:25:44.000Z</time>
      </trkpt>
      <trkpt lat="43.7839" lon="7.10242">
        <ele>717.20001220703</ele>
        <time>2020-01-11T11:25:49.000Z</time>
      </trkpt>
      <trkpt lat="43.78383" lon="7.1022">
        <ele>717.20001220703</ele>
        <time>2020-01-11T11:25:55.000Z</time>
      </trkpt>
      <trkpt lat="43.78378" lon="7.10198">
        <ele>717.59997558594</ele>
        <time>2020-01-11T11:26:00.000Z</time>
      </trkpt>
      <trkpt lat="43.78374" lon="7.10183">
        <ele>718</ele>
        <time>2020-01-11T11:26:03.000Z</time>
      </trkpt>
      <trkpt lat="43.78371" lon="7.10173">
        <ele>718.20001220703</ele>
        <time>2020-01-11T11:26:05.000Z</time>
      </trkpt>
      <trkpt lat="43.78369" lon="7.1015">
        <ele>718.40002441406</ele>
        <time>2020-01-11T11:26:10.000Z</time>
      </trkpt>
      <trkpt lat="43.78368" lon="7.1014">
        <ele>719.40002441406</ele>
        <time>2020-01-11T11:26:14.000Z</time>
      </trkpt>
      <trkpt lat="43.78368" lon="7.10138">
        <ele>719.79998779297</ele>
        <time>2020-01-11T11:26:15.000Z</time>
      </trkpt>
      <trkpt lat="43.78368" lon="7.10133">
        <ele>720.59997558594</ele>
        <time>2020-01-11T11:26:17.000Z</time>
      </trkpt>
      <trkpt lat="43.78366" lon="7.10123">
        <ele>721.40002441406</ele>
        <time>2020-01-11T11:26:20.000Z</time>
      </trkpt>
      <trkpt lat="43.78365" lon="7.1012">
        <ele>721.79998779297</ele>
        <time>2020-01-11T11:26:21.000Z</time>
      </trkpt>
      <trkpt lat="43.78364" lon="7.10113">
        <ele>723</ele>
        <time>2020-01-11T11:26:24.000Z</time>
      </trkpt>
      <trkpt lat="43.78359" lon="7.10098">
        <ele>723.59997558594</ele>
        <time>2020-01-11T11:26:29.000Z</time>
      </trkpt>
      <trkpt lat="43.78353" lon="7.10085">
        <ele>723.59997558594</ele>
        <time>2020-01-11T11:26:32.000Z</time>
      </trkpt>
      <trkpt lat="43.78353" lon="7.1008">
        <ele>723.40002441406</ele>
        <time>2020-01-11T11:26:33.000Z</time>
      </trkpt>
      <trkpt lat="43.78352" lon="7.10063">
        <ele>722.40002441406</ele>
        <time>2020-01-11T11:26:37.000Z</time>
      </trkpt>
      <trkpt lat="43.78352" lon="7.10048">
        <ele>723.20001220703</ele>
        <time>2020-01-11T11:26:41.000Z</time>
      </trkpt>
      <trkpt lat="43.78356" lon="7.10041">
        <ele>723.59997558594</ele>
        <time>2020-01-11T11:26:44.000Z</time>
      </trkpt>
      <trkpt lat="43.78356" lon="7.1004">
        <ele>723.59997558594</ele>
        <time>2020-01-11T11:26:45.000Z</time>
      </trkpt>
      <trkpt lat="43.78356" lon="7.10038">
        <ele>723.79998779297</ele>
        <time>2020-01-11T11:26:46.000Z</time>
      </trkpt>
      <trkpt lat="43.78358" lon="7.10033">
        <ele>724.20001220703</ele>
        <time>2020-01-11T11:26:48.000Z</time>
      </trkpt>
      <trkpt lat="43.78358" lon="7.10029">
        <ele>724.40002441406</ele>
        <time>2020-01-11T11:26:49.000Z</time>
      </trkpt>
      <trkpt lat="43.78363" lon="7.10012">
        <ele>724.79998779297</ele>
        <time>2020-01-11T11:26:54.000Z</time>
      </trkpt>
      <trkpt lat="43.78365" lon="7.09999">
        <ele>724.20001220703</ele>
        <time>2020-01-11T11:26:58.000Z</time>
      </trkpt>
      <trkpt lat="43.78371" lon="7.09982">
        <ele>723.79998779297</ele>
        <time>2020-01-11T11:27:02.000Z</time>
      </trkpt>
      <trkpt lat="43.78377" lon="7.09963">
        <ele>723.20001220703</ele>
        <time>2020-01-11T11:27:06.000Z</time>
      </trkpt>
      <trkpt lat="43.78382" lon="7.09947">
        <ele>724.79998779297</ele>
        <time>2020-01-11T11:27:11.000Z</time>
      </trkpt>
      <trkpt lat="43.78383" lon="7.09944">
        <ele>725.40002441406</ele>
        <time>2020-01-11T11:27:12.000Z</time>
      </trkpt>
      <trkpt lat="43.78384" lon="7.09934">
        <ele>727</ele>
        <time>2020-01-11T11:27:15.000Z</time>
      </trkpt>
      <trkpt lat="43.78383" lon="7.09927">
        <ele>728</ele>
        <time>2020-01-11T11:27:17.000Z</time>
      </trkpt>
      <trkpt lat="43.78382" lon="7.09923">
        <ele>728.20001220703</ele>
        <time>2020-01-11T11:27:18.000Z</time>
      </trkpt>
      <trkpt lat="43.78382" lon="7.0991">
        <ele>729.40002441406</ele>
        <time>2020-01-11T11:27:21.000Z</time>
      </trkpt>
      <trkpt lat="43.78381" lon="7.09902">
        <ele>730.40002441406</ele>
        <time>2020-01-11T11:27:23.000Z</time>
      </trkpt>
      <trkpt lat="43.7838" lon="7.09894">
        <ele>731.40002441406</ele>
        <time>2020-01-11T11:27:25.000Z</time>
      </trkpt>
      <trkpt lat="43.78379" lon="7.0989">
        <ele>732</ele>
        <time>2020-01-11T11:27:26.000Z</time>
      </trkpt>
      <trkpt lat="43.78379" lon="7.09886">
        <ele>732.59997558594</ele>
        <time>2020-01-11T11:27:27.000Z</time>
      </trkpt>
      <trkpt lat="43.78378" lon="7.09877">
        <ele>733.59997558594</ele>
        <time>2020-01-11T11:27:29.000Z</time>
      </trkpt>
      <trkpt lat="43.78378" lon="7.0987">
        <ele>734.79998779297</ele>
        <time>2020-01-11T11:27:31.000Z</time>
      </trkpt>
      <trkpt lat="43.78378" lon="7.09864">
        <ele>735.79998779297</ele>
        <time>2020-01-11T11:27:33.000Z</time>
      </trkpt>
      <trkpt lat="43.78377" lon="7.09861">
        <ele>736.40002441406</ele>
        <time>2020-01-11T11:27:34.000Z</time>
      </trkpt>
      <trkpt lat="43.78376" lon="7.0985">
        <ele>737.79998779297</ele>
        <time>2020-01-11T11:27:37.000Z</time>
      </trkpt>
      <trkpt lat="43.78376" lon="7.09847">
        <ele>738.20001220703</ele>
        <time>2020-01-11T11:27:38.000Z</time>
      </trkpt>
      <trkpt lat="43.78376" lon="7.0984">
        <ele>738.79998779297</ele>
        <time>2020-01-11T11:27:40.000Z</time>
      </trkpt>
      <trkpt lat="43.78374" lon="7.09822">
        <ele>739.40002441406</ele>
        <time>2020-01-11T11:27:44.000Z</time>
      </trkpt>
      <trkpt lat="43.78375" lon="7.09794">
        <ele>739.59997558594</ele>
        <time>2020-01-11T11:27:50.000Z</time>
      </trkpt>
      <trkpt lat="43.78375" lon="7.0979">
        <ele>740</ele>
        <time>2020-01-11T11:27:51.000Z</time>
      </trkpt>
      <trkpt lat="43.78376" lon="7.09777">
        <ele>741.20001220703</ele>
        <time>2020-01-11T11:27:54.000Z</time>
      </trkpt>
      <trkpt lat="43.78378" lon="7.09771">
        <ele>742.20001220703</ele>
        <time>2020-01-11T11:27:56.000Z</time>
      </trkpt>
      <trkpt lat="43.78379" lon="7.09768">
        <ele>742.59997558594</ele>
        <time>2020-01-11T11:27:57.000Z</time>
      </trkpt>
      <trkpt lat="43.78382" lon="7.09752">
        <ele>743.79998779297</ele>
        <time>2020-01-11T11:28:01.000Z</time>
      </trkpt>
      <trkpt lat="43.78386" lon="7.09744">
        <ele>745</ele>
        <time>2020-01-11T11:28:04.000Z</time>
      </trkpt>
      <trkpt lat="43.78389" lon="7.09739">
        <ele>746.40002441406</ele>
        <time>2020-01-11T11:28:06.000Z</time>
      </trkpt>
      <trkpt lat="43.78393" lon="7.09732">
        <ele>747.59997558594</ele>
        <time>2020-01-11T11:28:09.000Z</time>
      </trkpt>
      <trkpt lat="43.78394" lon="7.09722">
        <ele>748</ele>
        <time>2020-01-11T11:28:12.000Z</time>
      </trkpt>
      <trkpt lat="43.78394" lon="7.09712">
        <ele>748.59997558594</ele>
        <time>2020-01-11T11:28:15.000Z</time>
      </trkpt>
      <trkpt lat="43.78394" lon="7.09702">
        <ele>749.40002441406</ele>
        <time>2020-01-11T11:28:18.000Z</time>
      </trkpt>
      <trkpt lat="43.78392" lon="7.09696">
        <ele>749.79998779297</ele>
        <time>2020-01-11T11:28:20.000Z</time>
      </trkpt>
      <trkpt lat="43.78389" lon="7.09684">
        <ele>750.79998779297</ele>
        <time>2020-01-11T11:28:24.000Z</time>
      </trkpt>
      <trkpt lat="43.78384" lon="7.09668">
        <ele>752</ele>
        <time>2020-01-11T11:28:30.000Z</time>
      </trkpt>
      <trkpt lat="43.78382" lon="7.09665">
        <ele>752.20001220703</ele>
        <time>2020-01-11T11:28:31.000Z</time>
      </trkpt>
      <trkpt lat="43.78378" lon="7.09653">
        <ele>753</ele>
        <time>2020-01-11T11:28:35.000Z</time>
      </trkpt>
      <trkpt lat="43.78375" lon="7.09646">
        <ele>753.59997558594</ele>
        <time>2020-01-11T11:28:38.000Z</time>
      </trkpt>
      <trkpt lat="43.78373" lon="7.09641">
        <ele>754.20001220703</ele>
        <time>2020-01-11T11:28:40.000Z</time>
      </trkpt>
      <trkpt lat="43.78368" lon="7.09627">
        <ele>755</ele>
        <time>2020-01-11T11:28:45.000Z</time>
      </trkpt>
      <trkpt lat="43.78367" lon="7.09623">
        <ele>755.40002441406</ele>
        <time>2020-01-11T11:28:46.000Z</time>
      </trkpt>
      <trkpt lat="43.78364" lon="7.09612">
        <ele>756.40002441406</ele>
        <time>2020-01-11T11:28:50.000Z</time>
      </trkpt>
      <trkpt lat="43.78362" lon="7.09607">
        <ele>757</ele>
        <time>2020-01-11T11:28:52.000Z</time>
      </trkpt>
      <trkpt lat="43.78361" lon="7.09601">
        <ele>757.79998779297</ele>
        <time>2020-01-11T11:28:54.000Z</time>
      </trkpt>
      <trkpt lat="43.78358" lon="7.0959">
        <ele>759</ele>
        <time>2020-01-11T11:28:58.000Z</time>
      </trkpt>
      <trkpt lat="43.78357" lon="7.09584">
        <ele>759.59997558594</ele>
        <time>2020-01-11T11:29:00.000Z</time>
      </trkpt>
      <trkpt lat="43.78355" lon="7.09579">
        <ele>760</ele>
        <time>2020-01-11T11:29:02.000Z</time>
      </trkpt>
      <trkpt lat="43.7835" lon="7.09565">
        <ele>761.20001220703</ele>
        <time>2020-01-11T11:29:07.000Z</time>
      </trkpt>
      <trkpt lat="43.78348" lon="7.0956">
        <ele>761.79998779297</ele>
        <time>2020-01-11T11:29:09.000Z</time>
      </trkpt>
      <trkpt lat="43.78346" lon="7.09551">
        <ele>762.20001220703</ele>
        <time>2020-01-11T11:29:12.000Z</time>
      </trkpt>
      <trkpt lat="43.7834" lon="7.09541">
        <ele>763.20001220703</ele>
        <time>2020-01-11T11:29:16.000Z</time>
      </trkpt>
      <trkpt lat="43.78339" lon="7.09538">
        <ele>763.40002441406</ele>
        <time>2020-01-11T11:29:17.000Z</time>
      </trkpt>
      <trkpt lat="43.7833" lon="7.09523">
        <ele>764.59997558594</ele>
        <time>2020-01-11T11:29:23.000Z</time>
      </trkpt>
      <trkpt lat="43.78328" lon="7.0952">
        <ele>764.79998779297</ele>
        <time>2020-01-11T11:29:24.000Z</time>
      </trkpt>
      <trkpt lat="43.7832" lon="7.09508">
        <ele>765.79998779297</ele>
        <time>2020-01-11T11:29:29.000Z</time>
      </trkpt>
      <trkpt lat="43.78317" lon="7.09503">
        <ele>766.20001220703</ele>
        <time>2020-01-11T11:29:31.000Z</time>
      </trkpt>
      <trkpt lat="43.78315" lon="7.09497">
        <ele>767</ele>
        <time>2020-01-11T11:29:33.000Z</time>
      </trkpt>
      <trkpt lat="43.78312" lon="7.09484">
        <ele>768.20001220703</ele>
        <time>2020-01-11T11:29:37.000Z</time>
      </trkpt>
      <trkpt lat="43.78311" lon="7.09471">
        <ele>769.40002441406</ele>
        <time>2020-01-11T11:29:41.000Z</time>
      </trkpt>
      <trkpt lat="43.78311" lon="7.09458">
        <ele>770</ele>
        <time>2020-01-11T11:29:45.000Z</time>
      </trkpt>
      <trkpt lat="43.78311" lon="7.09451">
        <ele>770.40002441406</ele>
        <time>2020-01-11T11:29:47.000Z</time>
      </trkpt>
      <trkpt lat="43.7831" lon="7.09438">
        <ele>771.40002441406</ele>
        <time>2020-01-11T11:29:51.000Z</time>
      </trkpt>
      <trkpt lat="43.7831" lon="7.09435">
        <ele>771.59997558594</ele>
        <time>2020-01-11T11:29:52.000Z</time>
      </trkpt>
      <trkpt lat="43.78308" lon="7.09422">
        <ele>772.79998779297</ele>
        <time>2020-01-11T11:29:56.000Z</time>
      </trkpt>
      <trkpt lat="43.78308" lon="7.09417">
        <ele>773.20001220703</ele>
        <time>2020-01-11T11:29:58.000Z</time>
      </trkpt>
      <trkpt lat="43.78308" lon="7.09414">
        <ele>773.79998779297</ele>
        <time>2020-01-11T11:30:02.000Z</time>
      </trkpt>
      <trkpt lat="43.78308" lon="7.09415">
        <ele>774.40002441406</ele>
        <time>2020-01-11T11:30:09.000Z</time>
      </trkpt>
      <trkpt lat="43.78307" lon="7.09415">
        <ele>774</ele>
        <time>2020-01-11T11:30:14.000Z</time>
      </trkpt>
      <trkpt lat="43.78307" lon="7.09414">
        <ele>774.20001220703</ele>
        <time>2020-01-11T11:30:21.000Z</time>
      </trkpt>
      <trkpt lat="43.78306" lon="7.09415">
        <ele>774</ele>
        <time>2020-01-11T11:30:28.000Z</time>
      </trkpt>
      <trkpt lat="43.78306" lon="7.09414">
        <ele>774.20001220703</ele>
        <time>2020-01-11T11:30:35.000Z</time>
      </trkpt>
      <trkpt lat="43.78306" lon="7.09415">
        <ele>773.59997558594</ele>
        <time>2020-01-11T11:30:41.000Z</time>
      </trkpt>
      <trkpt lat="43.78306" lon="7.09414">
        <ele>774.40002441406</ele>
        <time>2020-01-11T11:30:50.000Z</time>
      </trkpt>
      <trkpt lat="43.78306" lon="7.09414">
        <ele>774.79998779297</ele>
        <time>2020-01-11T11:31:00.000Z</time>
      </trkpt>
      <trkpt lat="43.78305" lon="7.09414">
        <ele>774.59997558594</ele>
        <time>2020-01-11T11:31:10.000Z</time>
      </trkpt>
      <trkpt lat="43.78306" lon="7.09414">
        <ele>774.40002441406</ele>
        <time>2020-01-11T11:31:19.000Z</time>
      </trkpt>
      <trkpt lat="43.78305" lon="7.09414">
        <ele>774.79998779297</ele>
        <time>2020-01-11T11:31:26.000Z</time>
      </trkpt>
      <trkpt lat="43.78305" lon="7.09414">
        <ele>774.79998779297</ele>
        <time>2020-01-11T11:31:38.000Z</time>
      </trkpt>
      <trkpt lat="43.78305" lon="7.09415">
        <ele>774.59997558594</ele>
        <time>2020-01-11T11:31:54.000Z</time>
      </trkpt>
      <trkpt lat="43.78305" lon="7.09415">
        <ele>774.79998779297</ele>
        <time>2020-01-11T11:31:57.000Z</time>
      </trkpt>
      <trkpt lat="43.78305" lon="7.09415">
        <ele>775</ele>
        <time>2020-01-11T11:32:02.000Z</time>
      </trkpt>
      <trkpt lat="43.78306" lon="7.09415">
        <ele>775</ele>
        <time>2020-01-11T11:32:11.000Z</time>
      </trkpt>
      <trkpt lat="43.78306" lon="7.09415">
        <ele>774.79998779297</ele>
        <time>2020-01-11T11:32:15.000Z</time>
      </trkpt>
      <trkpt lat="43.78305" lon="7.09412">
        <ele>775</ele>
        <time>2020-01-11T11:32:23.000Z</time>
      </trkpt>
      <trkpt lat="43.78305" lon="7.09403">
        <ele>775</ele>
        <time>2020-01-11T11:32:27.000Z</time>
      </trkpt>
      <trkpt lat="43.78306" lon="7.09388">
        <ele>775.79998779297</ele>
        <time>2020-01-11T11:32:33.000Z</time>
      </trkpt>
      <trkpt lat="43.78307" lon="7.09385">
        <ele>776</ele>
        <time>2020-01-11T11:32:34.000Z</time>
      </trkpt>
      <trkpt lat="43.78309" lon="7.09372">
        <ele>776.79998779297</ele>
        <time>2020-01-11T11:32:39.000Z</time>
      </trkpt>
      <trkpt lat="43.7831" lon="7.0937">
        <ele>777.20001220703</ele>
        <time>2020-01-11T11:32:40.000Z</time>
      </trkpt>
      <trkpt lat="43.78314" lon="7.09359">
        <ele>778.20001220703</ele>
        <time>2020-01-11T11:32:45.000Z</time>
      </trkpt>
      <trkpt lat="43.78315" lon="7.09356">
        <ele>778.20001220703</ele>
        <time>2020-01-11T11:32:46.000Z</time>
      </trkpt>
      <trkpt lat="43.78322" lon="7.09342">
        <ele>779</ele>
        <time>2020-01-11T11:32:52.000Z</time>
      </trkpt>
      <trkpt lat="43.78324" lon="7.0934">
        <ele>779.20001220703</ele>
        <time>2020-01-11T11:32:53.000Z</time>
      </trkpt>
      <trkpt lat="43.7833" lon="7.09323">
        <ele>780.59997558594</ele>
        <time>2020-01-11T11:32:59.000Z</time>
      </trkpt>
      <trkpt lat="43.78336" lon="7.09307">
        <ele>781.79998779297</ele>
        <time>2020-01-11T11:33:05.000Z</time>
      </trkpt>
      <trkpt lat="43.78337" lon="7.09302">
        <ele>782.20001220703</ele>
        <time>2020-01-11T11:33:07.000Z</time>
      </trkpt>
      <trkpt lat="43.78341" lon="7.09293">
        <ele>783</ele>
        <time>2020-01-11T11:33:11.000Z</time>
      </trkpt>
      <trkpt lat="43.78343" lon="7.09288">
        <ele>783.40002441406</ele>
        <time>2020-01-11T11:33:13.000Z</time>
      </trkpt>
      <trkpt lat="43.78345" lon="7.09281">
        <ele>784</ele>
        <time>2020-01-11T11:33:16.000Z</time>
      </trkpt>
      <trkpt lat="43.78349" lon="7.09271">
        <ele>784.79998779297</ele>
        <time>2020-01-11T11:33:20.000Z</time>
      </trkpt>
      <trkpt lat="43.7835" lon="7.09269">
        <ele>785</ele>
        <time>2020-01-11T11:33:21.000Z</time>
      </trkpt>
      <trkpt lat="43.78354" lon="7.09255">
        <ele>786.20001220703</ele>
        <time>2020-01-11T11:33:26.000Z</time>
      </trkpt>
      <trkpt lat="43.78355" lon="7.09252">
        <ele>786.40002441406</ele>
        <time>2020-01-11T11:33:27.000Z</time>
      </trkpt>
      <trkpt lat="43.7836" lon="7.09243">
        <ele>787.20001220703</ele>
        <time>2020-01-11T11:33:31.000Z</time>
      </trkpt>
      <trkpt lat="43.78362" lon="7.09239">
        <ele>788</ele>
        <time>2020-01-11T11:33:33.000Z</time>
      </trkpt>
      <trkpt lat="43.78365" lon="7.09234">
        <ele>788.40002441406</ele>
        <time>2020-01-11T11:33:35.000Z</time>
      </trkpt>
      <trkpt lat="43.78372" lon="7.09223">
        <ele>789.59997558594</ele>
        <time>2020-01-11T11:33:40.000Z</time>
      </trkpt>
      <trkpt lat="43.78374" lon="7.09222">
        <ele>789.79998779297</ele>
        <time>2020-01-11T11:33:41.000Z</time>
      </trkpt>
      <trkpt lat="43.78381" lon="7.09214">
        <ele>790.59997558594</ele>
        <time>2020-01-11T11:33:45.000Z</time>
      </trkpt>
      <trkpt lat="43.78384" lon="7.09211">
        <ele>791.20001220703</ele>
        <time>2020-01-11T11:33:47.000Z</time>
      </trkpt>
      <trkpt lat="43.78388" lon="7.09207">
        <ele>791.79998779297</ele>
        <time>2020-01-11T11:33:49.000Z</time>
      </trkpt>
      <trkpt lat="43.78397" lon="7.09196">
        <ele>793</ele>
        <time>2020-01-11T11:33:55.000Z</time>
      </trkpt>
      <trkpt lat="43.78399" lon="7.09194">
        <ele>793.20001220703</ele>
        <time>2020-01-11T11:33:56.000Z</time>
      </trkpt>
      <trkpt lat="43.78404" lon="7.09189">
        <ele>794</ele>
        <time>2020-01-11T11:33:59.000Z</time>
      </trkpt>
      <trkpt lat="43.78411" lon="7.09183">
        <ele>794.79998779297</ele>
        <time>2020-01-11T11:34:03.000Z</time>
      </trkpt>
      <trkpt lat="43.78415" lon="7.0918">
        <ele>795.20001220703</ele>
        <time>2020-01-11T11:34:05.000Z</time>
      </trkpt>
      <trkpt lat="43.78425" lon="7.09173">
        <ele>796.20001220703</ele>
        <time>2020-01-11T11:34:10.000Z</time>
      </trkpt>
      <trkpt lat="43.78436" lon="7.09165">
        <ele>796.79998779297</ele>
        <time>2020-01-11T11:34:16.000Z</time>
      </trkpt>
      <trkpt lat="43.7844" lon="7.09163">
        <ele>797.40002441406</ele>
        <time>2020-01-11T11:34:18.000Z</time>
      </trkpt>
      <trkpt lat="43.78447" lon="7.09156">
        <ele>798.20001220703</ele>
        <time>2020-01-11T11:34:22.000Z</time>
      </trkpt>
      <trkpt lat="43.78451" lon="7.09153">
        <ele>798.59997558594</ele>
        <time>2020-01-11T11:34:24.000Z</time>
      </trkpt>
      <trkpt lat="43.78461" lon="7.09145">
        <ele>799.79998779297</ele>
        <time>2020-01-11T11:34:30.000Z</time>
      </trkpt>
      <trkpt lat="43.78468" lon="7.0914">
        <ele>800.79998779297</ele>
        <time>2020-01-11T11:34:34.000Z</time>
      </trkpt>
      <trkpt lat="43.78472" lon="7.09138">
        <ele>801.40002441406</ele>
        <time>2020-01-11T11:34:36.000Z</time>
      </trkpt>
      <trkpt lat="43.78477" lon="7.09133">
        <ele>802</ele>
        <time>2020-01-11T11:34:39.000Z</time>
      </trkpt>
      <trkpt lat="43.78483" lon="7.09128">
        <ele>802.59997558594</ele>
        <time>2020-01-11T11:34:42.000Z</time>
      </trkpt>
      <trkpt lat="43.78487" lon="7.09124">
        <ele>803</ele>
        <time>2020-01-11T11:34:44.000Z</time>
      </trkpt>
      <trkpt lat="43.78496" lon="7.09116">
        <ele>804.20001220703</ele>
        <time>2020-01-11T11:34:49.000Z</time>
      </trkpt>
      <trkpt lat="43.78503" lon="7.09111">
        <ele>805.20001220703</ele>
        <time>2020-01-11T11:34:53.000Z</time>
      </trkpt>
      <trkpt lat="43.7851" lon="7.09103">
        <ele>806</ele>
        <time>2020-01-11T11:34:57.000Z</time>
      </trkpt>
      <trkpt lat="43.78511" lon="7.09101">
        <ele>806.20001220703</ele>
        <time>2020-01-11T11:34:58.000Z</time>
      </trkpt>
      <trkpt lat="43.78521" lon="7.09099">
        <ele>807</ele>
        <time>2020-01-11T11:35:03.000Z</time>
      </trkpt>
      <trkpt lat="43.78522" lon="7.09104">
        <ele>807.20001220703</ele>
        <time>2020-01-11T11:35:05.000Z</time>
      </trkpt>
      <trkpt lat="43.7852" lon="7.09109">
        <ele>807.79998779297</ele>
        <time>2020-01-11T11:35:07.000Z</time>
      </trkpt>
      <trkpt lat="43.78514" lon="7.09112">
        <ele>808</ele>
        <time>2020-01-11T11:35:10.000Z</time>
      </trkpt>
      <trkpt lat="43.78511" lon="7.09115">
        <ele>808.20001220703</ele>
        <time>2020-01-11T11:35:12.000Z</time>
      </trkpt>
      <trkpt lat="43.78498" lon="7.09132">
        <ele>809.40002441406</ele>
        <time>2020-01-11T11:35:20.000Z</time>
      </trkpt>
      <trkpt lat="43.78491" lon="7.09148">
        <ele>810.40002441406</ele>
        <time>2020-01-11T11:35:26.000Z</time>
      </trkpt>
      <trkpt lat="43.78483" lon="7.09161">
        <ele>811.59997558594</ele>
        <time>2020-01-11T11:35:32.000Z</time>
      </trkpt>
      <trkpt lat="43.78481" lon="7.09164">
        <ele>811.79998779297</ele>
        <time>2020-01-11T11:35:33.000Z</time>
      </trkpt>
      <trkpt lat="43.78472" lon="7.09177">
        <ele>812.79998779297</ele>
        <time>2020-01-11T11:35:39.000Z</time>
      </trkpt>
      <trkpt lat="43.78467" lon="7.09185">
        <ele>813</ele>
        <time>2020-01-11T11:35:42.000Z</time>
      </trkpt>
      <trkpt lat="43.78459" lon="7.09196">
        <ele>813.79998779297</ele>
        <time>2020-01-11T11:35:47.000Z</time>
      </trkpt>
      <trkpt lat="43.78453" lon="7.09203">
        <ele>814.59997558594</ele>
        <time>2020-01-11T11:35:51.000Z</time>
      </trkpt>
      <trkpt lat="43.78449" lon="7.09207">
        <ele>815</ele>
        <time>2020-01-11T11:35:53.000Z</time>
      </trkpt>
      <trkpt lat="43.7844" lon="7.09216">
        <ele>815.20001220703</ele>
        <time>2020-01-11T11:35:58.000Z</time>
      </trkpt>
      <trkpt lat="43.78432" lon="7.09226">
        <ele>815.59997558594</ele>
        <time>2020-01-11T11:36:03.000Z</time>
      </trkpt>
      <trkpt lat="43.78432" lon="7.09228">
        <ele>815.59997558594</ele>
        <time>2020-01-11T11:36:04.000Z</time>
      </trkpt>
      <trkpt lat="43.78433" lon="7.0923">
        <ele>816</ele>
        <time>2020-01-11T11:36:05.000Z</time>
      </trkpt>
      <trkpt lat="43.78437" lon="7.0923">
        <ele>816.40002441406</ele>
        <time>2020-01-11T11:36:07.000Z</time>
      </trkpt>
      <trkpt lat="43.78441" lon="7.09222">
        <ele>816.79998779297</ele>
        <time>2020-01-11T11:36:10.000Z</time>
      </trkpt>
      <trkpt lat="43.78443" lon="7.0922">
        <ele>816.79998779297</ele>
        <time>2020-01-11T11:36:11.000Z</time>
      </trkpt>
      <trkpt lat="43.78447" lon="7.09215">
        <ele>817</ele>
        <time>2020-01-11T11:36:13.000Z</time>
      </trkpt>
      <trkpt lat="43.78455" lon="7.09208">
        <ele>817.79998779297</ele>
        <time>2020-01-11T11:36:17.000Z</time>
      </trkpt>
      <trkpt lat="43.78462" lon="7.09202">
        <ele>818.20001220703</ele>
        <time>2020-01-11T11:36:21.000Z</time>
      </trkpt>
      <trkpt lat="43.78471" lon="7.09198">
        <ele>819</ele>
        <time>2020-01-11T11:36:25.000Z</time>
      </trkpt>
      <trkpt lat="43.78473" lon="7.09197">
        <ele>819.20001220703</ele>
        <time>2020-01-11T11:36:26.000Z</time>
      </trkpt>
      <trkpt lat="43.78483" lon="7.09191">
        <ele>820.40002441406</ele>
        <time>2020-01-11T11:36:31.000Z</time>
      </trkpt>
      <trkpt lat="43.78485" lon="7.09189">
        <ele>820.79998779297</ele>
        <time>2020-01-11T11:36:32.000Z</time>
      </trkpt>
      <trkpt lat="43.78495" lon="7.09183">
        <ele>821.40002441406</ele>
        <time>2020-01-11T11:36:37.000Z</time>
      </trkpt>
      <trkpt lat="43.785" lon="7.09179">
        <ele>822.40002441406</ele>
        <time>2020-01-11T11:36:40.000Z</time>
      </trkpt>
      <trkpt lat="43.78502" lon="7.09177">
        <ele>822.59997558594</ele>
        <time>2020-01-11T11:36:41.000Z</time>
      </trkpt>
      <trkpt lat="43.7851" lon="7.09173">
        <ele>823.59997558594</ele>
        <time>2020-01-11T11:36:45.000Z</time>
      </trkpt>
      <trkpt lat="43.78512" lon="7.09172">
        <ele>824</ele>
        <time>2020-01-11T11:36:46.000Z</time>
      </trkpt>
      <trkpt lat="43.78517" lon="7.09168">
        <ele>824.59997558594</ele>
        <time>2020-01-11T11:36:49.000Z</time>
      </trkpt>
      <trkpt lat="43.78523" lon="7.09165">
        <ele>825.20001220703</ele>
        <time>2020-01-11T11:36:52.000Z</time>
      </trkpt>
      <trkpt lat="43.78529" lon="7.09161">
        <ele>826</ele>
        <time>2020-01-11T11:36:55.000Z</time>
      </trkpt>
      <trkpt lat="43.78541" lon="7.09155">
        <ele>827</ele>
        <time>2020-01-11T11:37:01.000Z</time>
      </trkpt>
      <trkpt lat="43.78552" lon="7.09147">
        <ele>828.20001220703</ele>
        <time>2020-01-11T11:37:07.000Z</time>
      </trkpt>
      <trkpt lat="43.78554" lon="7.09145">
        <ele>828.40002441406</ele>
        <time>2020-01-11T11:37:08.000Z</time>
      </trkpt>
      <trkpt lat="43.78563" lon="7.09138">
        <ele>829.40002441406</ele>
        <time>2020-01-11T11:37:13.000Z</time>
      </trkpt>
      <trkpt lat="43.78565" lon="7.09136">
        <ele>829.59997558594</ele>
        <time>2020-01-11T11:37:14.000Z</time>
      </trkpt>
      <trkpt lat="43.78572" lon="7.09134">
        <ele>830.59997558594</ele>
        <time>2020-01-11T11:37:17.000Z</time>
      </trkpt>
      <trkpt lat="43.78584" lon="7.09126">
        <ele>831.59997558594</ele>
        <time>2020-01-11T11:37:23.000Z</time>
      </trkpt>
      <trkpt lat="43.78585" lon="7.09123">
        <ele>831.79998779297</ele>
        <time>2020-01-11T11:37:24.000Z</time>
      </trkpt>
      <trkpt lat="43.78586" lon="7.09112">
        <ele>832.79998779297</ele>
        <time>2020-01-11T11:37:28.000Z</time>
      </trkpt>
      <trkpt lat="43.78586" lon="7.09109">
        <ele>833.20001220703</ele>
        <time>2020-01-11T11:37:29.000Z</time>
      </trkpt>
      <trkpt lat="43.78583" lon="7.09099">
        <ele>834.20001220703</ele>
        <time>2020-01-11T11:37:33.000Z</time>
      </trkpt>
      <trkpt lat="43.78582" lon="7.09093">
        <ele>834.59997558594</ele>
        <time>2020-01-11T11:37:35.000Z</time>
      </trkpt>
      <trkpt lat="43.7858" lon="7.09082">
        <ele>835.20001220703</ele>
        <time>2020-01-11T11:37:39.000Z</time>
      </trkpt>
      <trkpt lat="43.78579" lon="7.09071">
        <ele>835.79998779297</ele>
        <time>2020-01-11T11:37:43.000Z</time>
      </trkpt>
      <trkpt lat="43.78579" lon="7.09066">
        <ele>836.20001220703</ele>
        <time>2020-01-11T11:37:45.000Z</time>
      </trkpt>
      <trkpt lat="43.78576" lon="7.09051">
        <ele>837.40002441406</ele>
        <time>2020-01-11T11:37:51.000Z</time>
      </trkpt>
      <trkpt lat="43.78572" lon="7.09037">
        <ele>838.59997558594</ele>
        <time>2020-01-11T11:37:57.000Z</time>
      </trkpt>
      <trkpt lat="43.78571" lon="7.09034">
        <ele>838.79998779297</ele>
        <time>2020-01-11T11:37:58.000Z</time>
      </trkpt>
      <trkpt lat="43.78567" lon="7.09024">
        <ele>839.79998779297</ele>
        <time>2020-01-11T11:38:02.000Z</time>
      </trkpt>
      <trkpt lat="43.78561" lon="7.09011">
        <ele>840.59997558594</ele>
        <time>2020-01-11T11:38:07.000Z</time>
      </trkpt>
      <trkpt lat="43.7856" lon="7.09009">
        <ele>840.79998779297</ele>
        <time>2020-01-11T11:38:08.000Z</time>
      </trkpt>
      <trkpt lat="43.78554" lon="7.08995">
        <ele>841.79998779297</ele>
        <time>2020-01-11T11:38:13.000Z</time>
      </trkpt>
      <trkpt lat="43.7855" lon="7.08987">
        <ele>842.59997558594</ele>
        <time>2020-01-11T11:38:16.000Z</time>
      </trkpt>
      <trkpt lat="43.78547" lon="7.08981">
        <ele>843</ele>
        <time>2020-01-11T11:38:18.000Z</time>
      </trkpt>
      <trkpt lat="43.78541" lon="7.08969">
        <ele>844</ele>
        <time>2020-01-11T11:38:23.000Z</time>
      </trkpt>
      <trkpt lat="43.78538" lon="7.08964">
        <ele>844.20001220703</ele>
        <time>2020-01-11T11:38:25.000Z</time>
      </trkpt>
      <trkpt lat="43.78532" lon="7.08954">
        <ele>845</ele>
        <time>2020-01-11T11:38:29.000Z</time>
      </trkpt>
      <trkpt lat="43.78528" lon="7.08947">
        <ele>845.59997558594</ele>
        <time>2020-01-11T11:38:32.000Z</time>
      </trkpt>
      <trkpt lat="43.7852" lon="7.08936">
        <ele>846.20001220703</ele>
        <time>2020-01-11T11:38:37.000Z</time>
      </trkpt>
      <trkpt lat="43.78519" lon="7.08928">
        <ele>846.59997558594</ele>
        <time>2020-01-11T11:38:40.000Z</time>
      </trkpt>
      <trkpt lat="43.78522" lon="7.08926">
        <ele>847.40002441406</ele>
        <time>2020-01-11T11:38:42.000Z</time>
      </trkpt>
      <trkpt lat="43.78524" lon="7.08927">
        <ele>847.59997558594</ele>
        <time>2020-01-11T11:38:43.000Z</time>
      </trkpt>
      <trkpt lat="43.78526" lon="7.08931">
        <ele>848.20001220703</ele>
        <time>2020-01-11T11:38:45.000Z</time>
      </trkpt>
      <trkpt lat="43.78528" lon="7.08933">
        <ele>848.40002441406</ele>
        <time>2020-01-11T11:38:46.000Z</time>
      </trkpt>
      <trkpt lat="43.7853" lon="7.08937">
        <ele>848.59997558594</ele>
        <time>2020-01-11T11:38:48.000Z</time>
      </trkpt>
      <trkpt lat="43.78539" lon="7.08948">
        <ele>849.59997558594</ele>
        <time>2020-01-11T11:38:54.000Z</time>
      </trkpt>
      <trkpt lat="43.78542" lon="7.08951">
        <ele>850</ele>
        <time>2020-01-11T11:38:56.000Z</time>
      </trkpt>
      <trkpt lat="43.78546" lon="7.08956">
        <ele>850.59997558594</ele>
        <time>2020-01-11T11:38:59.000Z</time>
      </trkpt>
      <trkpt lat="43.7855" lon="7.0896">
        <ele>851</ele>
        <time>2020-01-11T11:39:02.000Z</time>
      </trkpt>
      <trkpt lat="43.78554" lon="7.08964">
        <ele>851.79998779297</ele>
        <time>2020-01-11T11:39:05.000Z</time>
      </trkpt>
      <trkpt lat="43.78557" lon="7.0897">
        <ele>852.40002441406</ele>
        <time>2020-01-11T11:39:08.000Z</time>
      </trkpt>
      <trkpt lat="43.78561" lon="7.08975">
        <ele>852.79998779297</ele>
        <time>2020-01-11T11:39:11.000Z</time>
      </trkpt>
      <trkpt lat="43.78564" lon="7.08979">
        <ele>852.79998779297</ele>
        <time>2020-01-11T11:39:13.000Z</time>
      </trkpt>
      <trkpt lat="43.78565" lon="7.08981">
        <ele>852.79998779297</ele>
        <time>2020-01-11T11:39:14.000Z</time>
      </trkpt>
      <trkpt lat="43.78571" lon="7.08987">
        <ele>854</ele>
        <time>2020-01-11T11:39:18.000Z</time>
      </trkpt>
      <trkpt lat="43.78573" lon="7.08991">
        <ele>854.79998779297</ele>
        <time>2020-01-11T11:39:20.000Z</time>
      </trkpt>
      <trkpt lat="43.78577" lon="7.08995">
        <ele>855.20001220703</ele>
        <time>2020-01-11T11:39:23.000Z</time>
      </trkpt>
      <trkpt lat="43.78582" lon="7.09001">
        <ele>855.59997558594</ele>
        <time>2020-01-11T11:39:26.000Z</time>
      </trkpt>
      <trkpt lat="43.78587" lon="7.09007">
        <ele>856.20001220703</ele>
        <time>2020-01-11T11:39:29.000Z</time>
      </trkpt>
      <trkpt lat="43.78593" lon="7.09016">
        <ele>857</ele>
        <time>2020-01-11T11:39:34.000Z</time>
      </trkpt>
      <trkpt lat="43.78596" lon="7.0902">
        <ele>857.40002441406</ele>
        <time>2020-01-11T11:39:36.000Z</time>
      </trkpt>
      <trkpt lat="43.78604" lon="7.09029">
        <ele>858.40002441406</ele>
        <time>2020-01-11T11:39:41.000Z</time>
      </trkpt>
      <trkpt lat="43.78606" lon="7.09031">
        <ele>858.59997558594</ele>
        <time>2020-01-11T11:39:42.000Z</time>
      </trkpt>
      <trkpt lat="43.78615" lon="7.0904">
        <ele>859.79998779297</ele>
        <time>2020-01-11T11:39:47.000Z</time>
      </trkpt>
      <trkpt lat="43.78621" lon="7.09049">
        <ele>861</ele>
        <time>2020-01-11T11:39:51.000Z</time>
      </trkpt>
      <trkpt lat="43.78628" lon="7.09056">
        <ele>861.40002441406</ele>
        <time>2020-01-11T11:39:55.000Z</time>
      </trkpt>
      <trkpt lat="43.78634" lon="7.09064">
        <ele>862</ele>
        <time>2020-01-11T11:39:59.000Z</time>
      </trkpt>
      <trkpt lat="43.7864" lon="7.09071">
        <ele>863</ele>
        <time>2020-01-11T11:40:03.000Z</time>
      </trkpt>
      <trkpt lat="43.7865" lon="7.09082">
        <ele>864.20001220703</ele>
        <time>2020-01-11T11:40:09.000Z</time>
      </trkpt>
      <trkpt lat="43.78653" lon="7.09086">
        <ele>864.59997558594</ele>
        <time>2020-01-11T11:40:11.000Z</time>
      </trkpt>
      <trkpt lat="43.7866" lon="7.09093">
        <ele>865.40002441406</ele>
        <time>2020-01-11T11:40:15.000Z</time>
      </trkpt>
      <trkpt lat="43.7867" lon="7.09103">
        <ele>866.40002441406</ele>
        <time>2020-01-11T11:40:21.000Z</time>
      </trkpt>
      <trkpt lat="43.78681" lon="7.09116">
        <ele>867.59997558594</ele>
        <time>2020-01-11T11:40:28.000Z</time>
      </trkpt>
      <trkpt lat="43.78683" lon="7.09118">
        <ele>867.79998779297</ele>
        <time>2020-01-11T11:40:29.000Z</time>
      </trkpt>
      <trkpt lat="43.78688" lon="7.09122">
        <ele>868.59997558594</ele>
        <time>2020-01-11T11:40:32.000Z</time>
      </trkpt>
      <trkpt lat="43.78696" lon="7.09129">
        <ele>869.40002441406</ele>
        <time>2020-01-11T11:40:37.000Z</time>
      </trkpt>
      <trkpt lat="43.78698" lon="7.0913">
        <ele>869.59997558594</ele>
        <time>2020-01-11T11:40:38.000Z</time>
      </trkpt>
      <trkpt lat="43.78709" lon="7.09136">
        <ele>870.79998779297</ele>
        <time>2020-01-11T11:40:44.000Z</time>
      </trkpt>
      <trkpt lat="43.78711" lon="7.09137">
        <ele>871</ele>
        <time>2020-01-11T11:40:45.000Z</time>
      </trkpt>
      <trkpt lat="43.78719" lon="7.09142">
        <ele>871.79998779297</ele>
        <time>2020-01-11T11:40:49.000Z</time>
      </trkpt>
      <trkpt lat="43.78731" lon="7.09148">
        <ele>873</ele>
        <time>2020-01-11T11:40:55.000Z</time>
      </trkpt>
      <trkpt lat="43.78733" lon="7.0915">
        <ele>873</ele>
        <time>2020-01-11T11:40:56.000Z</time>
      </trkpt>
      <trkpt lat="43.78744" lon="7.09155">
        <ele>874.20001220703</ele>
        <time>2020-01-11T11:41:01.000Z</time>
      </trkpt>
      <trkpt lat="43.78747" lon="7.09158">
        <ele>874.59997558594</ele>
        <time>2020-01-11T11:41:03.000Z</time>
      </trkpt>
      <trkpt lat="43.78751" lon="7.09161">
        <ele>875.40002441406</ele>
        <time>2020-01-11T11:41:05.000Z</time>
      </trkpt>
      <trkpt lat="43.78759" lon="7.09165">
        <ele>876.40002441406</ele>
        <time>2020-01-11T11:41:09.000Z</time>
      </trkpt>
      <trkpt lat="43.7877" lon="7.09169">
        <ele>877.59997558594</ele>
        <time>2020-01-11T11:41:14.000Z</time>
      </trkpt>
      <trkpt lat="43.78776" lon="7.09171">
        <ele>878</ele>
        <time>2020-01-11T11:41:17.000Z</time>
      </trkpt>
      <trkpt lat="43.78781" lon="7.09172">
        <ele>878.59997558594</ele>
        <time>2020-01-11T11:41:19.000Z</time>
      </trkpt>
      <trkpt lat="43.78791" lon="7.09173">
        <ele>879.59997558594</ele>
        <time>2020-01-11T11:41:24.000Z</time>
      </trkpt>
      <trkpt lat="43.78795" lon="7.09173">
        <ele>880</ele>
        <time>2020-01-11T11:41:26.000Z</time>
      </trkpt>
      <trkpt lat="43.78801" lon="7.09174">
        <ele>880.59997558594</ele>
        <time>2020-01-11T11:41:29.000Z</time>
      </trkpt>
      <trkpt lat="43.78809" lon="7.09174">
        <ele>881.20001220703</ele>
        <time>2020-01-11T11:41:33.000Z</time>
      </trkpt>
      <trkpt lat="43.78815" lon="7.09175">
        <ele>881.79998779297</ele>
        <time>2020-01-11T11:41:36.000Z</time>
      </trkpt>
      <trkpt lat="43.78825" lon="7.09175">
        <ele>882.59997558594</ele>
        <time>2020-01-11T11:41:40.000Z</time>
      </trkpt>
      <trkpt lat="43.7883" lon="7.09175">
        <ele>883</ele>
        <time>2020-01-11T11:41:42.000Z</time>
      </trkpt>
      <trkpt lat="43.78838" lon="7.09174">
        <ele>884</ele>
        <time>2020-01-11T11:41:45.000Z</time>
      </trkpt>
      <trkpt lat="43.78845" lon="7.09173">
        <ele>885.20001220703</ele>
        <time>2020-01-11T11:41:48.000Z</time>
      </trkpt>
      <trkpt lat="43.78847" lon="7.09172">
        <ele>885.40002441406</ele>
        <time>2020-01-11T11:41:49.000Z</time>
      </trkpt>
      <trkpt lat="43.78855" lon="7.09169">
        <ele>886.20001220703</ele>
        <time>2020-01-11T11:41:52.000Z</time>
      </trkpt>
      <trkpt lat="43.78865" lon="7.09168">
        <ele>887.40002441406</ele>
        <time>2020-01-11T11:41:56.000Z</time>
      </trkpt>
      <trkpt lat="43.78868" lon="7.09167">
        <ele>887.79998779297</ele>
        <time>2020-01-11T11:41:57.000Z</time>
      </trkpt>
      <trkpt lat="43.78876" lon="7.09166">
        <ele>888.59997558594</ele>
        <time>2020-01-11T11:42:00.000Z</time>
      </trkpt>
      <trkpt lat="43.78886" lon="7.09163">
        <ele>889.79998779297</ele>
        <time>2020-01-11T11:42:04.000Z</time>
      </trkpt>
      <trkpt lat="43.78888" lon="7.09162">
        <ele>890.20001220703</ele>
        <time>2020-01-11T11:42:05.000Z</time>
      </trkpt>
      <trkpt lat="43.78894" lon="7.09161">
        <ele>891.20001220703</ele>
        <time>2020-01-11T11:42:08.000Z</time>
      </trkpt>
      <trkpt lat="43.78904" lon="7.09155">
        <ele>892.40002441406</ele>
        <time>2020-01-11T11:42:13.000Z</time>
      </trkpt>
      <trkpt lat="43.78915" lon="7.09147">
        <ele>893.40002441406</ele>
        <time>2020-01-11T11:42:19.000Z</time>
      </trkpt>
      <trkpt lat="43.78922" lon="7.09143">
        <ele>894.40002441406</ele>
        <time>2020-01-11T11:42:23.000Z</time>
      </trkpt>
      <trkpt lat="43.78924" lon="7.09142">
        <ele>894.59997558594</ele>
        <time>2020-01-11T11:42:24.000Z</time>
      </trkpt>
      <trkpt lat="43.78937" lon="7.09143">
        <ele>895.59997558594</ele>
        <time>2020-01-11T11:42:30.000Z</time>
      </trkpt>
      <trkpt lat="43.78938" lon="7.09143">
        <ele>895.79998779297</ele>
        <time>2020-01-11T11:42:31.000Z</time>
      </trkpt>
      <trkpt lat="43.78948" lon="7.09149">
        <ele>896.40002441406</ele>
        <time>2020-01-11T11:42:36.000Z</time>
      </trkpt>
      <trkpt lat="43.7895" lon="7.0915">
        <ele>896.79998779297</ele>
        <time>2020-01-11T11:42:37.000Z</time>
      </trkpt>
      <trkpt lat="43.7896" lon="7.09154">
        <ele>898</ele>
        <time>2020-01-11T11:42:42.000Z</time>
      </trkpt>
      <trkpt lat="43.78966" lon="7.09157">
        <ele>898.59997558594</ele>
        <time>2020-01-11T11:42:45.000Z</time>
      </trkpt>
      <trkpt lat="43.7897" lon="7.09159">
        <ele>899</ele>
        <time>2020-01-11T11:42:47.000Z</time>
      </trkpt>
      <trkpt lat="43.78978" lon="7.09164">
        <ele>899.79998779297</ele>
        <time>2020-01-11T11:42:51.000Z</time>
      </trkpt>
      <trkpt lat="43.7898" lon="7.09165">
        <ele>900.20001220703</ele>
        <time>2020-01-11T11:42:52.000Z</time>
      </trkpt>
      <trkpt lat="43.78989" lon="7.0917">
        <ele>901.40002441406</ele>
        <time>2020-01-11T11:42:57.000Z</time>
      </trkpt>
      <trkpt lat="43.78997" lon="7.09175">
        <ele>902.40002441406</ele>
        <time>2020-01-11T11:43:01.000Z</time>
      </trkpt>
      <trkpt lat="43.79006" lon="7.09177">
        <ele>903.40002441406</ele>
        <time>2020-01-11T11:43:05.000Z</time>
      </trkpt>
      <trkpt lat="43.79018" lon="7.09179">
        <ele>904.59997558594</ele>
        <time>2020-01-11T11:43:11.000Z</time>
      </trkpt>
      <trkpt lat="43.79027" lon="7.09181">
        <ele>905.59997558594</ele>
        <time>2020-01-11T11:43:15.000Z</time>
      </trkpt>
      <trkpt lat="43.79031" lon="7.09183">
        <ele>906.20001220703</ele>
        <time>2020-01-11T11:43:17.000Z</time>
      </trkpt>
      <trkpt lat="43.79037" lon="7.09186">
        <ele>906.79998779297</ele>
        <time>2020-01-11T11:43:20.000Z</time>
      </trkpt>
      <trkpt lat="43.79043" lon="7.09189">
        <ele>908.20001220703</ele>
        <time>2020-01-11T11:43:24.000Z</time>
      </trkpt>
      <trkpt lat="43.79045" lon="7.09189">
        <ele>908.40002441406</ele>
        <time>2020-01-11T11:43:25.000Z</time>
      </trkpt>
      <trkpt lat="43.79054" lon="7.09188">
        <ele>909.20001220703</ele>
        <time>2020-01-11T11:43:30.000Z</time>
      </trkpt>
      <trkpt lat="43.79058" lon="7.09188">
        <ele>909.79998779297</ele>
        <time>2020-01-11T11:43:32.000Z</time>
      </trkpt>
      <trkpt lat="43.79063" lon="7.09187">
        <ele>910.40002441406</ele>
        <time>2020-01-11T11:43:35.000Z</time>
      </trkpt>
      <trkpt lat="43.79072" lon="7.09184">
        <ele>911.40002441406</ele>
        <time>2020-01-11T11:43:40.000Z</time>
      </trkpt>
      <trkpt lat="43.79085" lon="7.09178">
        <ele>912.59997558594</ele>
        <time>2020-01-11T11:43:46.000Z</time>
      </trkpt>
      <trkpt lat="43.79091" lon="7.09173">
        <ele>913.59997558594</ele>
        <time>2020-01-11T11:43:49.000Z</time>
      </trkpt>
      <trkpt lat="43.79102" lon="7.09166">
        <ele>914.79998779297</ele>
        <time>2020-01-11T11:43:54.000Z</time>
      </trkpt>
      <trkpt lat="43.79109" lon="7.09162">
        <ele>915.79998779297</ele>
        <time>2020-01-11T11:43:58.000Z</time>
      </trkpt>
      <trkpt lat="43.79114" lon="7.0916">
        <ele>916.59997558594</ele>
        <time>2020-01-11T11:44:01.000Z</time>
      </trkpt>
      <trkpt lat="43.79116" lon="7.09159">
        <ele>917</ele>
        <time>2020-01-11T11:44:02.000Z</time>
      </trkpt>
      <trkpt lat="43.79123" lon="7.09156">
        <ele>918</ele>
        <time>2020-01-11T11:44:06.000Z</time>
      </trkpt>
      <trkpt lat="43.79126" lon="7.09155">
        <ele>918.40002441406</ele>
        <time>2020-01-11T11:44:07.000Z</time>
      </trkpt>
      <trkpt lat="43.79132" lon="7.09152">
        <ele>919.20001220703</ele>
        <time>2020-01-11T11:44:10.000Z</time>
      </trkpt>
      <trkpt lat="43.79141" lon="7.09148">
        <ele>920.20001220703</ele>
        <time>2020-01-11T11:44:14.000Z</time>
      </trkpt>
      <trkpt lat="43.79143" lon="7.09146">
        <ele>920.40002441406</ele>
        <time>2020-01-11T11:44:15.000Z</time>
      </trkpt>
      <trkpt lat="43.79148" lon="7.09141">
        <ele>921.40002441406</ele>
        <time>2020-01-11T11:44:18.000Z</time>
      </trkpt>
      <trkpt lat="43.79154" lon="7.09134">
        <ele>922.40002441406</ele>
        <time>2020-01-11T11:44:22.000Z</time>
      </trkpt>
      <trkpt lat="43.79161" lon="7.09125">
        <ele>923.40002441406</ele>
        <time>2020-01-11T11:44:27.000Z</time>
      </trkpt>
      <trkpt lat="43.79164" lon="7.0912">
        <ele>923.79998779297</ele>
        <time>2020-01-11T11:44:29.000Z</time>
      </trkpt>
      <trkpt lat="43.79166" lon="7.09112">
        <ele>924.59997558594</ele>
        <time>2020-01-11T11:44:32.000Z</time>
      </trkpt>
      <trkpt lat="43.79169" lon="7.09102">
        <ele>925.59997558594</ele>
        <time>2020-01-11T11:44:36.000Z</time>
      </trkpt>
      <trkpt lat="43.7917" lon="7.09099">
        <ele>925.79998779297</ele>
        <time>2020-01-11T11:44:37.000Z</time>
      </trkpt>
      <trkpt lat="43.79174" lon="7.09087">
        <ele>926.79998779297</ele>
        <time>2020-01-11T11:44:42.000Z</time>
      </trkpt>
      <trkpt lat="43.79177" lon="7.09077">
        <ele>928</ele>
        <time>2020-01-11T11:44:46.000Z</time>
      </trkpt>
      <trkpt lat="43.79181" lon="7.0907">
        <ele>928.59997558594</ele>
        <time>2020-01-11T11:44:49.000Z</time>
      </trkpt>
      <trkpt lat="43.79183" lon="7.09064">
        <ele>929.20001220703</ele>
        <time>2020-01-11T11:44:51.000Z</time>
      </trkpt>
      <trkpt lat="43.79189" lon="7.09055">
        <ele>930.20001220703</ele>
        <time>2020-01-11T11:44:55.000Z</time>
      </trkpt>
      <trkpt lat="43.79192" lon="7.0905">
        <ele>930.79998779297</ele>
        <time>2020-01-11T11:44:57.000Z</time>
      </trkpt>
      <trkpt lat="43.79194" lon="7.09044">
        <ele>931.40002441406</ele>
        <time>2020-01-11T11:44:59.000Z</time>
      </trkpt>
      <trkpt lat="43.79201" lon="7.09026">
        <ele>932.59997558594</ele>
        <time>2020-01-11T11:45:05.000Z</time>
      </trkpt>
      <trkpt lat="43.79205" lon="7.09012">
        <ele>933.59997558594</ele>
        <time>2020-01-11T11:45:09.000Z</time>
      </trkpt>
      <trkpt lat="43.79206" lon="7.09006">
        <ele>934</ele>
        <time>2020-01-11T11:45:11.000Z</time>
      </trkpt>
      <trkpt lat="43.79208" lon="7.08997">
        <ele>934.79998779297</ele>
        <time>2020-01-11T11:45:14.000Z</time>
      </trkpt>
      <trkpt lat="43.79213" lon="7.08988">
        <ele>935.20001220703</ele>
        <time>2020-01-11T11:45:17.000Z</time>
      </trkpt>
      <trkpt lat="43.79222" lon="7.08985">
        <ele>935</ele>
        <time>2020-01-11T11:45:21.000Z</time>
      </trkpt>
      <trkpt lat="43.79236" lon="7.08981">
        <ele>935.79998779297</ele>
        <time>2020-01-11T11:45:27.000Z</time>
      </trkpt>
      <trkpt lat="43.79238" lon="7.0898">
        <ele>936</ele>
        <time>2020-01-11T11:45:28.000Z</time>
      </trkpt>
      <trkpt lat="43.79239" lon="7.08977">
        <ele>936.40002441406</ele>
        <time>2020-01-11T11:45:29.000Z</time>
      </trkpt>
      <trkpt lat="43.79241" lon="7.08972">
        <ele>936.79998779297</ele>
        <time>2020-01-11T11:45:31.000Z</time>
      </trkpt>
      <trkpt lat="43.79242" lon="7.08968">
        <ele>937</ele>
        <time>2020-01-11T11:45:32.000Z</time>
      </trkpt>
      <trkpt lat="43.79246" lon="7.08959">
        <ele>938</ele>
        <time>2020-01-11T11:45:35.000Z</time>
      </trkpt>
      <trkpt lat="43.79249" lon="7.08951">
        <ele>939.40002441406</ele>
        <time>2020-01-11T11:45:38.000Z</time>
      </trkpt>
      <trkpt lat="43.79252" lon="7.08943">
        <ele>940.59997558594</ele>
        <time>2020-01-11T11:45:41.000Z</time>
      </trkpt>
      <trkpt lat="43.79257" lon="7.08932">
        <ele>941.79998779297</ele>
        <time>2020-01-11T11:45:45.000Z</time>
      </trkpt>
      <trkpt lat="43.79258" lon="7.0893">
        <ele>942</ele>
        <time>2020-01-11T11:45:46.000Z</time>
      </trkpt>
      <trkpt lat="43.7926" lon="7.08922">
        <ele>942.79998779297</ele>
        <time>2020-01-11T11:45:49.000Z</time>
      </trkpt>
      <trkpt lat="43.79263" lon="7.0891">
        <ele>944.20001220703</ele>
        <time>2020-01-11T11:45:54.000Z</time>
      </trkpt>
      <trkpt lat="43.79266" lon="7.08899">
        <ele>945.20001220703</ele>
        <time>2020-01-11T11:45:59.000Z</time>
      </trkpt>
      <trkpt lat="43.79267" lon="7.08895">
        <ele>945.40002441406</ele>
        <time>2020-01-11T11:46:01.000Z</time>
      </trkpt>
      <trkpt lat="43.79269" lon="7.08887">
        <ele>946.40002441406</ele>
        <time>2020-01-11T11:46:05.000Z</time>
      </trkpt>
      <trkpt lat="43.79272" lon="7.08881">
        <ele>947</ele>
        <time>2020-01-11T11:46:08.000Z</time>
      </trkpt>
      <trkpt lat="43.79274" lon="7.08875">
        <ele>947.40002441406</ele>
        <time>2020-01-11T11:46:11.000Z</time>
      </trkpt>
      <trkpt lat="43.79277" lon="7.08867">
        <ele>948.40002441406</ele>
        <time>2020-01-11T11:46:15.000Z</time>
      </trkpt>
      <trkpt lat="43.79278" lon="7.08865">
        <ele>948.59997558594</ele>
        <time>2020-01-11T11:46:16.000Z</time>
      </trkpt>
      <trkpt lat="43.79283" lon="7.08854">
        <ele>949.40002441406</ele>
        <time>2020-01-11T11:46:21.000Z</time>
      </trkpt>
      <trkpt lat="43.79288" lon="7.08844">
        <ele>949.79998779297</ele>
        <time>2020-01-11T11:46:25.000Z</time>
      </trkpt>
      <trkpt lat="43.79295" lon="7.08832">
        <ele>950.59997558594</ele>
        <time>2020-01-11T11:46:30.000Z</time>
      </trkpt>
      <trkpt lat="43.79297" lon="7.08829">
        <ele>950.79998779297</ele>
        <time>2020-01-11T11:46:31.000Z</time>
      </trkpt>
      <trkpt lat="43.79306" lon="7.08804">
        <ele>952.20001220703</ele>
        <time>2020-01-11T11:46:38.000Z</time>
      </trkpt>
      <trkpt lat="43.79312" lon="7.08787">
        <ele>953.20001220703</ele>
        <time>2020-01-11T11:46:43.000Z</time>
      </trkpt>
      <trkpt lat="43.79313" lon="7.08784">
        <ele>953.59997558594</ele>
        <time>2020-01-11T11:46:44.000Z</time>
      </trkpt>
      <trkpt lat="43.79316" lon="7.08774">
        <ele>954.40002441406</ele>
        <time>2020-01-11T11:46:47.000Z</time>
      </trkpt>
      <trkpt lat="43.79319" lon="7.08765">
        <ele>955</ele>
        <time>2020-01-11T11:46:50.000Z</time>
      </trkpt>
      <trkpt lat="43.79321" lon="7.08761">
        <ele>955.40002441406</ele>
        <time>2020-01-11T11:46:51.000Z</time>
      </trkpt>
      <trkpt lat="43.79327" lon="7.08743">
        <ele>955.79998779297</ele>
        <time>2020-01-11T11:46:55.000Z</time>
      </trkpt>
      <trkpt lat="43.79333" lon="7.08725">
        <ele>956.59997558594</ele>
        <time>2020-01-11T11:46:59.000Z</time>
      </trkpt>
      <trkpt lat="43.79341" lon="7.087">
        <ele>957.79998779297</ele>
        <time>2020-01-11T11:47:04.000Z</time>
      </trkpt>
      <trkpt lat="43.79343" lon="7.08694">
        <ele>958</ele>
        <time>2020-01-11T11:47:05.000Z</time>
      </trkpt>
      <trkpt lat="43.79346" lon="7.08679">
        <ele>959</ele>
        <time>2020-01-11T11:47:08.000Z</time>
      </trkpt>
      <trkpt lat="43.79351" lon="7.08663">
        <ele>959.79998779297</ele>
        <time>2020-01-11T11:47:11.000Z</time>
      </trkpt>
      <trkpt lat="43.79352" lon="7.08658">
        <ele>960</ele>
        <time>2020-01-11T11:47:12.000Z</time>
      </trkpt>
      <trkpt lat="43.7936" lon="7.08642">
        <ele>961.40002441406</ele>
        <time>2020-01-11T11:47:16.000Z</time>
      </trkpt>
      <trkpt lat="43.79362" lon="7.08638">
        <ele>961.59997558594</ele>
        <time>2020-01-11T11:47:17.000Z</time>
      </trkpt>
      <trkpt lat="43.79377" lon="7.08611">
        <ele>962.79998779297</ele>
        <time>2020-01-11T11:47:23.000Z</time>
      </trkpt>
      <trkpt lat="43.79394" lon="7.08584">
        <ele>964</ele>
        <time>2020-01-11T11:47:29.000Z</time>
      </trkpt>
      <trkpt lat="43.794" lon="7.08575">
        <ele>964.20001220703</ele>
        <time>2020-01-11T11:47:31.000Z</time>
      </trkpt>
      <trkpt lat="43.79415" lon="7.08554">
        <ele>965</ele>
        <time>2020-01-11T11:47:36.000Z</time>
      </trkpt>
      <trkpt lat="43.79422" lon="7.08546">
        <ele>965.59997558594</ele>
        <time>2020-01-11T11:47:38.000Z</time>
      </trkpt>
      <trkpt lat="43.79448" lon="7.08518">
        <ele>966.20001220703</ele>
        <time>2020-01-11T11:47:45.000Z</time>
      </trkpt>
      <trkpt lat="43.79455" lon="7.08511">
        <ele>966.40002441406</ele>
        <time>2020-01-11T11:47:47.000Z</time>
      </trkpt>
      <trkpt lat="43.79472" lon="7.08495">
        <ele>967.20001220703</ele>
        <time>2020-01-11T11:47:52.000Z</time>
      </trkpt>
      <trkpt lat="43.79486" lon="7.08481">
        <ele>967.79998779297</ele>
        <time>2020-01-11T11:47:56.000Z</time>
      </trkpt>
      <trkpt lat="43.79497" lon="7.08466">
        <ele>968.20001220703</ele>
        <time>2020-01-11T11:48:00.000Z</time>
      </trkpt>
      <trkpt lat="43.79507" lon="7.08452">
        <ele>968.79998779297</ele>
        <time>2020-01-11T11:48:04.000Z</time>
      </trkpt>
      <trkpt lat="43.79518" lon="7.0844">
        <ele>969.20001220703</ele>
        <time>2020-01-11T11:48:10.000Z</time>
      </trkpt>
      <trkpt lat="43.79518" lon="7.08439">
        <ele>969.59997558594</ele>
        <time>2020-01-11T11:48:14.000Z</time>
      </trkpt>
      <trkpt lat="43.79518" lon="7.08439">
        <ele>969.79998779297</ele>
        <time>2020-01-11T11:48:30.000Z</time>
      </trkpt>
      <trkpt lat="43.79518" lon="7.08439">
        <ele>970.20001220703</ele>
        <time>2020-01-11T11:48:45.000Z</time>
      </trkpt>
      <trkpt lat="43.79518" lon="7.08438">
        <ele>969.79998779297</ele>
        <time>2020-01-11T11:48:53.000Z</time>
      </trkpt>
      <trkpt lat="43.79518" lon="7.08435">
        <ele>969.20001220703</ele>
        <time>2020-01-11T11:49:03.000Z</time>
      </trkpt>
      <trkpt lat="43.79523" lon="7.08431">
        <ele>969.20001220703</ele>
        <time>2020-01-11T11:49:09.000Z</time>
      </trkpt>
      <trkpt lat="43.79528" lon="7.08426">
        <ele>969.79998779297</ele>
        <time>2020-01-11T11:49:18.000Z</time>
      </trkpt>
      <trkpt lat="43.79531" lon="7.08425">
        <ele>970</ele>
        <time>2020-01-11T11:49:23.000Z</time>
      </trkpt>
      <trkpt lat="43.79531" lon="7.08425">
        <ele>970</ele>
        <time>2020-01-11T11:49:27.000Z</time>
      </trkpt>
      <trkpt lat="43.79529" lon="7.08426">
        <ele>969.79998779297</ele>
        <time>2020-01-11T11:49:33.000Z</time>
      </trkpt>
      <trkpt lat="43.7953" lon="7.08425">
        <ele>970</ele>
        <time>2020-01-11T11:49:40.000Z</time>
      </trkpt>
      <trkpt lat="43.7953" lon="7.08426">
        <ele>970</ele>
        <time>2020-01-11T11:49:51.000Z</time>
      </trkpt>
      <trkpt lat="43.79529" lon="7.08426">
        <ele>970</ele>
        <time>2020-01-11T11:49:58.000Z</time>
      </trkpt>
      <trkpt lat="43.79527" lon="7.08426">
        <ele>970</ele>
        <time>2020-01-11T11:50:01.000Z</time>
      </trkpt>
      <trkpt lat="43.79527" lon="7.08426">
        <ele>970</ele>
        <time>2020-01-11T11:50:03.000Z</time>
      </trkpt>
      <trkpt lat="43.79527" lon="7.08426">
        <ele>969.59997558594</ele>
        <time>2020-01-11T11:50:15.000Z</time>
      </trkpt>
      <trkpt lat="43.79527" lon="7.08424">
        <ele>970</ele>
        <time>2020-01-11T11:50:21.000Z</time>
      </trkpt>
      <trkpt lat="43.79527" lon="7.08425">
        <ele>970.20001220703</ele>
        <time>2020-01-11T11:50:32.000Z</time>
      </trkpt>
      <trkpt lat="43.79527" lon="7.08423">
        <ele>970.20001220703</ele>
        <time>2020-01-11T11:50:40.000Z</time>
      </trkpt>
      <trkpt lat="43.79527" lon="7.08423">
        <ele>970.20001220703</ele>
        <time>2020-01-11T11:51:04.000Z</time>
      </trkpt>
      <trkpt lat="43.79527" lon="7.08423">
        <ele>970.20001220703</ele>
        <time>2020-01-11T11:51:15.000Z</time>
      </trkpt>
      <trkpt lat="43.79527" lon="7.08423">
        <ele>970.40002441406</ele>
        <time>2020-01-11T11:51:25.000Z</time>
      </trkpt>
      <trkpt lat="43.79526" lon="7.08424">
        <ele>970.40002441406</ele>
        <time>2020-01-11T11:51:49.000Z</time>
      </trkpt>
      <trkpt lat="43.79525" lon="7.08428">
        <ele>970.40002441406</ele>
        <time>2020-01-11T11:51:56.000Z</time>
      </trkpt>
      <trkpt lat="43.79523" lon="7.08433">
        <ele>969.79998779297</ele>
        <time>2020-01-11T11:52:03.000Z</time>
      </trkpt>
      <trkpt lat="43.79523" lon="7.08436">
        <ele>970.40002441406</ele>
        <time>2020-01-11T11:52:11.000Z</time>
      </trkpt>
      <trkpt lat="43.79523" lon="7.08437">
        <ele>971.40002441406</ele>
        <time>2020-01-11T11:52:18.000Z</time>
      </trkpt>
      <trkpt lat="43.79522" lon="7.08438">
        <ele>970.79998779297</ele>
        <time>2020-01-11T11:52:26.000Z</time>
      </trkpt>
      <trkpt lat="43.79522" lon="7.08438">
        <ele>971.59997558594</ele>
        <time>2020-01-11T11:52:33.000Z</time>
      </trkpt>
      <trkpt lat="43.79522" lon="7.08438">
        <ele>971.40002441406</ele>
        <time>2020-01-11T11:52:44.000Z</time>
      </trkpt>
      <trkpt lat="43.79522" lon="7.08437">
        <ele>971</ele>
        <time>2020-01-11T11:52:56.000Z</time>
      </trkpt>
      <trkpt lat="43.79522" lon="7.08437">
        <ele>971.20001220703</ele>
        <time>2020-01-11T11:53:07.000Z</time>
      </trkpt>
      <trkpt lat="43.79523" lon="7.08438">
        <ele>971.20001220703</ele>
        <time>2020-01-11T11:53:21.000Z</time>
      </trkpt>
      <trkpt lat="43.79523" lon="7.08438">
        <ele>971.59997558594</ele>
        <time>2020-01-11T11:53:31.000Z</time>
      </trkpt>
      <trkpt lat="43.79522" lon="7.08437">
        <ele>971.20001220703</ele>
        <time>2020-01-11T11:53:38.000Z</time>
      </trkpt>
      <trkpt lat="43.79523" lon="7.08437">
        <ele>971.59997558594</ele>
        <time>2020-01-11T11:53:44.000Z</time>
      </trkpt>
      <trkpt lat="43.79523" lon="7.08437">
        <ele>971.79998779297</ele>
        <time>2020-01-11T11:53:51.000Z</time>
      </trkpt>
      <trkpt lat="43.79523" lon="7.08437">
        <ele>971</ele>
        <time>2020-01-11T11:53:57.000Z</time>
      </trkpt>
      <trkpt lat="43.79524" lon="7.08438">
        <ele>970.79998779297</ele>
        <time>2020-01-11T11:54:06.000Z</time>
      </trkpt>
      <trkpt lat="43.79524" lon="7.08438">
        <ele>970.79998779297</ele>
        <time>2020-01-11T11:54:15.000Z</time>
      </trkpt>
      <trkpt lat="43.79524" lon="7.08438">
        <ele>971</ele>
        <time>2020-01-11T11:54:25.000Z</time>
      </trkpt>
      <trkpt lat="43.79524" lon="7.08437">
        <ele>971</ele>
        <time>2020-01-11T11:54:36.000Z</time>
      </trkpt>
      <trkpt lat="43.79523" lon="7.08437">
        <ele>971</ele>
        <time>2020-01-11T11:54:46.000Z</time>
      </trkpt>
      <trkpt lat="43.79523" lon="7.08437">
        <ele>970.79998779297</ele>
        <time>2020-01-11T11:54:56.000Z</time>
      </trkpt>
      <trkpt lat="43.79523" lon="7.08438">
        <ele>971</ele>
        <time>2020-01-11T11:55:05.000Z</time>
      </trkpt>
      <trkpt lat="43.79523" lon="7.08438">
        <ele>970.40002441406</ele>
        <time>2020-01-11T11:55:27.000Z</time>
      </trkpt>
      <trkpt lat="43.79522" lon="7.08438">
        <ele>970.40002441406</ele>
        <time>2020-01-11T11:55:42.000Z</time>
      </trkpt>
      <trkpt lat="43.79523" lon="7.08437">
        <ele>970.79998779297</ele>
        <time>2020-01-11T11:55:47.000Z</time>
      </trkpt>
      <trkpt lat="43.79522" lon="7.08437">
        <ele>971</ele>
        <time>2020-01-11T11:56:03.000Z</time>
      </trkpt>
      <trkpt lat="43.79522" lon="7.08436">
        <ele>971</ele>
        <time>2020-01-11T11:56:10.000Z</time>
      </trkpt>
      <trkpt lat="43.79522" lon="7.08437">
        <ele>971</ele>
        <time>2020-01-11T11:56:20.000Z</time>
      </trkpt>
      <trkpt lat="43.79522" lon="7.08437">
        <ele>971</ele>
        <time>2020-01-11T11:56:36.000Z</time>
      </trkpt>
      <trkpt lat="43.79522" lon="7.08436">
        <ele>970.79998779297</ele>
        <time>2020-01-11T11:56:47.000Z</time>
      </trkpt>
      <trkpt lat="43.79522" lon="7.08436">
        <ele>970.79998779297</ele>
        <time>2020-01-11T11:56:59.000Z</time>
      </trkpt>
      <trkpt lat="43.79522" lon="7.08436">
        <ele>970.40002441406</ele>
        <time>2020-01-11T11:57:10.000Z</time>
      </trkpt>
      <trkpt lat="43.79522" lon="7.08436">
        <ele>970.59997558594</ele>
        <time>2020-01-11T11:57:16.000Z</time>
      </trkpt>
      <trkpt lat="43.79521" lon="7.08437">
        <ele>970.59997558594</ele>
        <time>2020-01-11T11:57:32.000Z</time>
      </trkpt>
      <trkpt lat="43.79522" lon="7.08438">
        <ele>970.59997558594</ele>
        <time>2020-01-11T11:57:45.000Z</time>
      </trkpt>
      <trkpt lat="43.79522" lon="7.08438">
        <ele>970.40002441406</ele>
        <time>2020-01-11T11:57:54.000Z</time>
      </trkpt>
      <trkpt lat="43.79522" lon="7.08438">
        <ele>970.79998779297</ele>
        <time>2020-01-11T11:58:05.000Z</time>
      </trkpt>
      <trkpt lat="43.79522" lon="7.08439">
        <ele>970.79998779297</ele>
        <time>2020-01-11T11:58:13.000Z</time>
      </trkpt>
      <trkpt lat="43.79522" lon="7.08439">
        <ele>970.40002441406</ele>
        <time>2020-01-11T11:58:33.000Z</time>
      </trkpt>
      <trkpt lat="43.79522" lon="7.08438">
        <ele>970.40002441406</ele>
        <time>2020-01-11T11:58:58.000Z</time>
      </trkpt>
      <trkpt lat="43.79522" lon="7.08438">
        <ele>970.20001220703</ele>
        <time>2020-01-11T11:59:23.000Z</time>
      </trkpt>
      <trkpt lat="43.79523" lon="7.08438">
        <ele>970.59997558594</ele>
        <time>2020-01-11T11:59:39.000Z</time>
      </trkpt>
      <trkpt lat="43.79522" lon="7.08437">
        <ele>970</ele>
        <time>2020-01-11T11:59:59.000Z</time>
      </trkpt>
      <trkpt lat="43.79522" lon="7.08437">
        <ele>970.20001220703</ele>
        <time>2020-01-11T12:00:25.000Z</time>
      </trkpt>
      <trkpt lat="43.79522" lon="7.08437">
        <ele>970.20001220703</ele>
        <time>2020-01-11T12:00:45.000Z</time>
      </trkpt>
      <trkpt lat="43.79522" lon="7.08438">
        <ele>970.20001220703</ele>
        <time>2020-01-11T12:01:09.000Z</time>
      </trkpt>
      <trkpt lat="43.79523" lon="7.08438">
        <ele>970.59997558594</ele>
        <time>2020-01-11T12:01:23.000Z</time>
      </trkpt>
      <trkpt lat="43.79523" lon="7.08438">
        <ele>970.59997558594</ele>
        <time>2020-01-11T12:01:31.000Z</time>
      </trkpt>
      <trkpt lat="43.79523" lon="7.08438">
        <ele>970.59997558594</ele>
        <time>2020-01-11T12:01:47.000Z</time>
      </trkpt>
      <trkpt lat="43.79522" lon="7.08437">
        <ele>970.59997558594</ele>
        <time>2020-01-11T12:02:05.000Z</time>
      </trkpt>
      <trkpt lat="43.79523" lon="7.08439">
        <ele>970.59997558594</ele>
        <time>2020-01-11T12:02:15.000Z</time>
      </trkpt>
      <trkpt lat="43.79522" lon="7.08439">
        <ele>970.79998779297</ele>
        <time>2020-01-11T12:02:24.000Z</time>
      </trkpt>
      <trkpt lat="43.79522" lon="7.08439">
        <ele>970.79998779297</ele>
        <time>2020-01-11T12:02:32.000Z</time>
      </trkpt>
      <trkpt lat="43.79523" lon="7.08438">
        <ele>970.40002441406</ele>
        <time>2020-01-11T12:02:53.000Z</time>
      </trkpt>
      <trkpt lat="43.79524" lon="7.08438">
        <ele>970.40002441406</ele>
        <time>2020-01-11T12:03:18.000Z</time>
      </trkpt>
      <trkpt lat="43.79525" lon="7.08437">
        <ele>970.40002441406</ele>
        <time>2020-01-11T12:03:38.000Z</time>
      </trkpt>
      <trkpt lat="43.79525" lon="7.08437">
        <ele>970</ele>
        <time>2020-01-11T12:04:00.000Z</time>
      </trkpt>
      <trkpt lat="43.79525" lon="7.08437">
        <ele>970.20001220703</ele>
        <time>2020-01-11T12:04:20.000Z</time>
      </trkpt>
      <trkpt lat="43.79525" lon="7.08437">
        <ele>970</ele>
        <time>2020-01-11T12:04:41.000Z</time>
      </trkpt>
      <trkpt lat="43.79525" lon="7.08437">
        <ele>970</ele>
        <time>2020-01-11T12:05:03.000Z</time>
      </trkpt>
      <trkpt lat="43.79525" lon="7.08437">
        <ele>970</ele>
        <time>2020-01-11T12:05:23.000Z</time>
      </trkpt>
      <trkpt lat="43.79526" lon="7.08437">
        <ele>970</ele>
        <time>2020-01-11T12:05:48.000Z</time>
      </trkpt>
      <trkpt lat="43.79526" lon="7.08437">
        <ele>970.20001220703</ele>
        <time>2020-01-11T12:06:09.000Z</time>
      </trkpt>
      <trkpt lat="43.79526" lon="7.08436">
        <ele>970.20001220703</ele>
        <time>2020-01-11T12:06:34.000Z</time>
      </trkpt>
      <trkpt lat="43.79526" lon="7.08436">
        <ele>970</ele>
        <time>2020-01-11T12:06:57.000Z</time>
      </trkpt>
      <trkpt lat="43.79526" lon="7.08436">
        <ele>970</ele>
        <time>2020-01-11T12:07:18.000Z</time>
      </trkpt>
      <trkpt lat="43.79526" lon="7.08436">
        <ele>970.20001220703</ele>
        <time>2020-01-11T12:07:41.000Z</time>
      </trkpt>
      <trkpt lat="43.79526" lon="7.08437">
        <ele>970</ele>
        <time>2020-01-11T12:07:59.000Z</time>
      </trkpt>
      <trkpt lat="43.79526" lon="7.08436">
        <ele>970</ele>
        <time>2020-01-11T12:08:21.000Z</time>
      </trkpt>
      <trkpt lat="43.79525" lon="7.08436">
        <ele>970</ele>
        <time>2020-01-11T12:08:42.000Z</time>
      </trkpt>
      <trkpt lat="43.79525" lon="7.08436">
        <ele>970.59997558594</ele>
        <time>2020-01-11T12:08:56.000Z</time>
      </trkpt>
      <trkpt lat="43.79525" lon="7.08436">
        <ele>971</ele>
        <time>2020-01-11T12:09:03.000Z</time>
      </trkpt>
      <trkpt lat="43.79524" lon="7.08437">
        <ele>970.59997558594</ele>
        <time>2020-01-11T12:09:16.000Z</time>
      </trkpt>
      <trkpt lat="43.79524" lon="7.08437">
        <ele>970.59997558594</ele>
        <time>2020-01-11T12:09:25.000Z</time>
      </trkpt>
      <trkpt lat="43.79524" lon="7.08437">
        <ele>970.79998779297</ele>
        <time>2020-01-11T12:09:33.000Z</time>
      </trkpt>
      <trkpt lat="43.79524" lon="7.08437">
        <ele>970.79998779297</ele>
        <time>2020-01-11T12:09:46.000Z</time>
      </trkpt>
      <trkpt lat="43.79523" lon="7.08437">
        <ele>970.79998779297</ele>
        <time>2020-01-11T12:09:54.000Z</time>
      </trkpt>
      <trkpt lat="43.79523" lon="7.08436">
        <ele>970.79998779297</ele>
        <time>2020-01-11T12:09:59.000Z</time>
      </trkpt>
      <trkpt lat="43.79522" lon="7.08436">
        <ele>970.79998779297</ele>
        <time>2020-01-11T12:10:04.000Z</time>
      </trkpt>
      <trkpt lat="43.79523" lon="7.08437">
        <ele>970.79998779297</ele>
        <time>2020-01-11T12:10:13.000Z</time>
      </trkpt>
      <trkpt lat="43.79524" lon="7.08438">
        <ele>970.59997558594</ele>
        <time>2020-01-11T12:10:33.000Z</time>
      </trkpt>
      <trkpt lat="43.79524" lon="7.08438">
        <ele>970.40002441406</ele>
        <time>2020-01-11T12:10:53.000Z</time>
      </trkpt>
      <trkpt lat="43.79523" lon="7.08437">
        <ele>970.20001220703</ele>
        <time>2020-01-11T12:11:08.000Z</time>
      </trkpt>
      <trkpt lat="43.7952" lon="7.08434">
        <ele>970.40002441406</ele>
        <time>2020-01-11T12:11:35.000Z</time>
      </trkpt>
      <trkpt lat="43.79519" lon="7.08433">
        <ele>971</ele>
        <time>2020-01-11T12:11:50.000Z</time>
      </trkpt>
      <trkpt lat="43.7952" lon="7.08433">
        <ele>970.59997558594</ele>
        <time>2020-01-11T12:12:01.000Z</time>
      </trkpt>
      <trkpt lat="43.7952" lon="7.08433">
        <ele>970.59997558594</ele>
        <time>2020-01-11T12:12:15.000Z</time>
      </trkpt>
      <trkpt lat="43.7952" lon="7.08435">
        <ele>970.79998779297</ele>
        <time>2020-01-11T12:12:26.000Z</time>
      </trkpt>
      <trkpt lat="43.79521" lon="7.08436">
        <ele>970.59997558594</ele>
        <time>2020-01-11T12:12:33.000Z</time>
      </trkpt>
      <trkpt lat="43.79521" lon="7.08437">
        <ele>970.40002441406</ele>
        <time>2020-01-11T12:12:55.000Z</time>
      </trkpt>
      <trkpt lat="43.79521" lon="7.08437">
        <ele>970.40002441406</ele>
        <time>2020-01-11T12:13:17.000Z</time>
      </trkpt>
      <trkpt lat="43.79522" lon="7.08437">
        <ele>971</ele>
        <time>2020-01-11T12:13:45.000Z</time>
      </trkpt>
      <trkpt lat="43.79522" lon="7.08437">
        <ele>971</ele>
        <time>2020-01-11T12:14:06.000Z</time>
      </trkpt>
      <trkpt lat="43.79522" lon="7.08438">
        <ele>971.20001220703</ele>
        <time>2020-01-11T12:14:36.000Z</time>
      </trkpt>
      <trkpt lat="43.79522" lon="7.08438">
        <ele>971.20001220703</ele>
        <time>2020-01-11T12:15:03.000Z</time>
      </trkpt>
      <trkpt lat="43.79522" lon="7.08438">
        <ele>971.40002441406</ele>
        <time>2020-01-11T12:15:25.000Z</time>
      </trkpt>
      <trkpt lat="43.79522" lon="7.08438">
        <ele>971.20001220703</ele>
        <time>2020-01-11T12:15:28.000Z</time>
      </trkpt>
      <trkpt lat="43.79522" lon="7.08438">
        <ele>971.40002441406</ele>
        <time>2020-01-11T12:15:55.000Z</time>
      </trkpt>
      <trkpt lat="43.79522" lon="7.08438">
        <ele>971.59997558594</ele>
        <time>2020-01-11T12:16:21.000Z</time>
      </trkpt>
      <trkpt lat="43.79522" lon="7.08438">
        <ele>971.79998779297</ele>
        <time>2020-01-11T12:16:49.000Z</time>
      </trkpt>
      <trkpt lat="43.79522" lon="7.08439">
        <ele>971.79998779297</ele>
        <time>2020-01-11T12:17:19.000Z</time>
      </trkpt>
      <trkpt lat="43.79522" lon="7.08439">
        <ele>972</ele>
        <time>2020-01-11T12:17:50.000Z</time>
      </trkpt>
      <trkpt lat="43.79522" lon="7.0844">
        <ele>972.20001220703</ele>
        <time>2020-01-11T12:18:24.000Z</time>
      </trkpt>
      <trkpt lat="43.79522" lon="7.0844">
        <ele>972.40002441406</ele>
        <time>2020-01-11T12:18:53.000Z</time>
      </trkpt>
      <trkpt lat="43.79522" lon="7.0844">
        <ele>972.40002441406</ele>
        <time>2020-01-11T12:18:56.000Z</time>
      </trkpt>
      <trkpt lat="43.79522" lon="7.0844">
        <ele>972.59997558594</ele>
        <time>2020-01-11T12:19:28.000Z</time>
      </trkpt>
      <trkpt lat="43.79522" lon="7.0844">
        <ele>972.59997558594</ele>
        <time>2020-01-11T12:20:03.000Z</time>
      </trkpt>
      <trkpt lat="43.79522" lon="7.0844">
        <ele>972.79998779297</ele>
        <time>2020-01-11T12:20:31.000Z</time>
      </trkpt>
      <trkpt lat="43.79521" lon="7.0844">
        <ele>972.79998779297</ele>
        <time>2020-01-11T12:21:00.000Z</time>
      </trkpt>
      <trkpt lat="43.79521" lon="7.0844">
        <ele>972.79998779297</ele>
        <time>2020-01-11T12:21:26.000Z</time>
      </trkpt>
      <trkpt lat="43.79522" lon="7.0844">
        <ele>972.79998779297</ele>
        <time>2020-01-11T12:21:37.000Z</time>
      </trkpt>
      <trkpt lat="43.79522" lon="7.0844">
        <ele>972.79998779297</ele>
        <time>2020-01-11T12:21:47.000Z</time>
      </trkpt>
      <trkpt lat="43.79522" lon="7.0844">
        <ele>973</ele>
        <time>2020-01-11T12:21:59.000Z</time>
      </trkpt>
      <trkpt lat="43.79522" lon="7.0844">
        <ele>973</ele>
        <time>2020-01-11T12:22:07.000Z</time>
      </trkpt>
      <trkpt lat="43.79522" lon="7.08439">
        <ele>973</ele>
        <time>2020-01-11T12:22:19.000Z</time>
      </trkpt>
      <trkpt lat="43.79521" lon="7.08439">
        <ele>973</ele>
        <time>2020-01-11T12:22:32.000Z</time>
      </trkpt>
      <trkpt lat="43.79521" lon="7.08439">
        <ele>972.59997558594</ele>
        <time>2020-01-11T12:22:43.000Z</time>
      </trkpt>
      <trkpt lat="43.79521" lon="7.08438">
        <ele>973.40002441406</ele>
        <time>2020-01-11T12:22:48.000Z</time>
      </trkpt>
      <trkpt lat="43.79521" lon="7.08438">
        <ele>974</ele>
        <time>2020-01-11T12:23:03.000Z</time>
      </trkpt>
      <trkpt lat="43.79521" lon="7.08438">
        <ele>973.40002441406</ele>
        <time>2020-01-11T12:23:11.000Z</time>
      </trkpt>
      <trkpt lat="43.79521" lon="7.08438">
        <ele>973.59997558594</ele>
        <time>2020-01-11T12:23:23.000Z</time>
      </trkpt>
      <trkpt lat="43.79521" lon="7.08437">
        <ele>973.40002441406</ele>
        <time>2020-01-11T12:23:33.000Z</time>
      </trkpt>
      <trkpt lat="43.7952" lon="7.08437">
        <ele>973.59997558594</ele>
        <time>2020-01-11T12:23:35.000Z</time>
      </trkpt>
      <trkpt lat="43.79521" lon="7.08437">
        <ele>973.59997558594</ele>
        <time>2020-01-11T12:23:37.000Z</time>
      </trkpt>
      <trkpt lat="43.7952" lon="7.08437">
        <ele>973.40002441406</ele>
        <time>2020-01-11T12:23:47.000Z</time>
      </trkpt>
      <trkpt lat="43.79521" lon="7.08436">
        <ele>973.20001220703</ele>
        <time>2020-01-11T12:23:52.000Z</time>
      </trkpt>
      <trkpt lat="43.79521" lon="7.08432">
        <ele>973.40002441406</ele>
        <time>2020-01-11T12:23:59.000Z</time>
      </trkpt>
      <trkpt lat="43.79521" lon="7.08431">
        <ele>972.40002441406</ele>
        <time>2020-01-11T12:24:07.000Z</time>
      </trkpt>
      <trkpt lat="43.79522" lon="7.08431">
        <ele>972.40002441406</ele>
        <time>2020-01-11T12:24:09.000Z</time>
      </trkpt>
      <trkpt lat="43.79522" lon="7.08431">
        <ele>973</ele>
        <time>2020-01-11T12:24:17.000Z</time>
      </trkpt>
      <trkpt lat="43.79522" lon="7.08431">
        <ele>973.40002441406</ele>
        <time>2020-01-11T12:24:28.000Z</time>
      </trkpt>
      <trkpt lat="43.79522" lon="7.08431">
        <ele>973.40002441406</ele>
        <time>2020-01-11T12:24:29.000Z</time>
      </trkpt>
      <trkpt lat="43.79522" lon="7.08431">
        <ele>973.59997558594</ele>
        <time>2020-01-11T12:24:36.000Z</time>
      </trkpt>
      <trkpt lat="43.79523" lon="7.0843">
        <ele>972.79998779297</ele>
        <time>2020-01-11T12:24:45.000Z</time>
      </trkpt>
      <trkpt lat="43.79524" lon="7.08426">
        <ele>972.59997558594</ele>
        <time>2020-01-11T12:24:50.000Z</time>
      </trkpt>
      <trkpt lat="43.79526" lon="7.08424">
        <ele>972.40002441406</ele>
        <time>2020-01-11T12:24:52.000Z</time>
      </trkpt>
      <trkpt lat="43.79527" lon="7.08424">
        <ele>972.59997558594</ele>
        <time>2020-01-11T12:24:56.000Z</time>
      </trkpt>
      <trkpt lat="43.79526" lon="7.08425">
        <ele>973</ele>
        <time>2020-01-11T12:25:03.000Z</time>
      </trkpt>
      <trkpt lat="43.79525" lon="7.08425">
        <ele>973</ele>
        <time>2020-01-11T12:25:14.000Z</time>
      </trkpt>
      <trkpt lat="43.79527" lon="7.08424">
        <ele>972.59997558594</ele>
        <time>2020-01-11T12:25:22.000Z</time>
      </trkpt>
      <trkpt lat="43.79527" lon="7.08425">
        <ele>972.79998779297</ele>
        <time>2020-01-11T12:25:32.000Z</time>
      </trkpt>
      <trkpt lat="43.79527" lon="7.08424">
        <ele>973</ele>
        <time>2020-01-11T12:25:41.000Z</time>
      </trkpt>
      <trkpt lat="43.79527" lon="7.08424">
        <ele>973.20001220703</ele>
        <time>2020-01-11T12:25:49.000Z</time>
      </trkpt>
      <trkpt lat="43.79527" lon="7.08424">
        <ele>973</ele>
        <time>2020-01-11T12:25:58.000Z</time>
      </trkpt>
      <trkpt lat="43.79527" lon="7.08424">
        <ele>973</ele>
        <time>2020-01-11T12:26:10.000Z</time>
      </trkpt>
      <trkpt lat="43.79527" lon="7.08424">
        <ele>973</ele>
        <time>2020-01-11T12:26:19.000Z</time>
      </trkpt>
      <trkpt lat="43.79529" lon="7.08425">
        <ele>972.79998779297</ele>
        <time>2020-01-11T12:26:28.000Z</time>
      </trkpt>
      <trkpt lat="43.79529" lon="7.08422">
        <ele>973.40002441406</ele>
        <time>2020-01-11T12:26:37.000Z</time>
      </trkpt>
      <trkpt lat="43.79529" lon="7.08423">
        <ele>973.59997558594</ele>
        <time>2020-01-11T12:26:38.000Z</time>
      </trkpt>
      <trkpt lat="43.7953" lon="7.08421">
        <ele>973.59997558594</ele>
        <time>2020-01-11T12:26:44.000Z</time>
      </trkpt>
      <trkpt lat="43.7953" lon="7.08421">
        <ele>973.59997558594</ele>
        <time>2020-01-11T12:26:56.000Z</time>
      </trkpt>
      <trkpt lat="43.79529" lon="7.08421">
        <ele>973.59997558594</ele>
        <time>2020-01-11T12:27:14.000Z</time>
      </trkpt>
      <trkpt lat="43.7953" lon="7.08421">
        <ele>973.79998779297</ele>
        <time>2020-01-11T12:27:26.000Z</time>
      </trkpt>
      <trkpt lat="43.7953" lon="7.08421">
        <ele>973.59997558594</ele>
        <time>2020-01-11T12:27:42.000Z</time>
      </trkpt>
      <trkpt lat="43.79531" lon="7.0842">
        <ele>973.59997558594</ele>
        <time>2020-01-11T12:27:43.000Z</time>
      </trkpt>
      <trkpt lat="43.79535" lon="7.08417">
        <ele>973.79998779297</ele>
        <time>2020-01-11T12:27:48.000Z</time>
      </trkpt>
      <trkpt lat="43.79539" lon="7.08414">
        <ele>973.79998779297</ele>
        <time>2020-01-11T12:27:51.000Z</time>
      </trkpt>
      <trkpt lat="43.79543" lon="7.08412">
        <ele>974</ele>
        <time>2020-01-11T12:27:54.000Z</time>
      </trkpt>
      <trkpt lat="43.79551" lon="7.08407">
        <ele>974.40002441406</ele>
        <time>2020-01-11T12:27:59.000Z</time>
      </trkpt>
      <trkpt lat="43.79553" lon="7.08407">
        <ele>974.59997558594</ele>
        <time>2020-01-11T12:28:00.000Z</time>
      </trkpt>
      <trkpt lat="43.79578" lon="7.08398">
        <ele>975.59997558594</ele>
        <time>2020-01-11T12:28:11.000Z</time>
      </trkpt>
      <trkpt lat="43.79581" lon="7.08398">
        <ele>975.59997558594</ele>
        <time>2020-01-11T12:28:12.000Z</time>
      </trkpt>
      <trkpt lat="43.79599" lon="7.08392">
        <ele>976.20001220703</ele>
        <time>2020-01-11T12:28:19.000Z</time>
      </trkpt>
      <trkpt lat="43.7961" lon="7.08389">
        <ele>976.40002441406</ele>
        <time>2020-01-11T12:28:24.000Z</time>
      </trkpt>
      <trkpt lat="43.7962" lon="7.08387">
        <ele>976.79998779297</ele>
        <time>2020-01-11T12:28:28.000Z</time>
      </trkpt>
      <trkpt lat="43.7963" lon="7.08386">
        <ele>977</ele>
        <time>2020-01-11T12:28:32.000Z</time>
      </trkpt>
      <trkpt lat="43.79658" lon="7.08387">
        <ele>977.40002441406</ele>
        <time>2020-01-11T12:28:41.000Z</time>
      </trkpt>
      <trkpt lat="43.79685" lon="7.08385">
        <ele>977</ele>
        <time>2020-01-11T12:28:49.000Z</time>
      </trkpt>
      <trkpt lat="43.79704" lon="7.08387">
        <ele>977.40002441406</ele>
        <time>2020-01-11T12:28:55.000Z</time>
      </trkpt>
      <trkpt lat="43.79728" lon="7.08399">
        <ele>977.79998779297</ele>
        <time>2020-01-11T12:29:04.000Z</time>
      </trkpt>
      <trkpt lat="43.79729" lon="7.08404">
        <ele>977.79998779297</ele>
        <time>2020-01-11T12:29:06.000Z</time>
      </trkpt>
      <trkpt lat="43.7973" lon="7.08407">
        <ele>978.20001220703</ele>
        <time>2020-01-11T12:29:08.000Z</time>
      </trkpt>
      <trkpt lat="43.79736" lon="7.08406">
        <ele>978.59997558594</ele>
        <time>2020-01-11T12:29:11.000Z</time>
      </trkpt>
      <trkpt lat="43.7974" lon="7.08404">
        <ele>978.59997558594</ele>
        <time>2020-01-11T12:29:13.000Z</time>
      </trkpt>
      <trkpt lat="43.79751" lon="7.08399">
        <ele>978.79998779297</ele>
        <time>2020-01-11T12:29:18.000Z</time>
      </trkpt>
      <trkpt lat="43.79752" lon="7.08401">
        <ele>978.79998779297</ele>
        <time>2020-01-11T12:29:19.000Z</time>
      </trkpt>
      <trkpt lat="43.79755" lon="7.0841">
        <ele>978.59997558594</ele>
        <time>2020-01-11T12:29:23.000Z</time>
      </trkpt>
      <trkpt lat="43.79755" lon="7.08411">
        <ele>978.59997558594</ele>
        <time>2020-01-11T12:29:24.000Z</time>
      </trkpt>
      <trkpt lat="43.79761" lon="7.08422">
        <ele>978.20001220703</ele>
        <time>2020-01-11T12:29:30.000Z</time>
      </trkpt>
      <trkpt lat="43.79764" lon="7.08432">
        <ele>978</ele>
        <time>2020-01-11T12:29:36.000Z</time>
      </trkpt>
      <trkpt lat="43.79766" lon="7.0844">
        <ele>977.79998779297</ele>
        <time>2020-01-11T12:29:42.000Z</time>
      </trkpt>
      <trkpt lat="43.79767" lon="7.08441">
        <ele>977.59997558594</ele>
        <time>2020-01-11T12:29:43.000Z</time>
      </trkpt>
      <trkpt lat="43.79767" lon="7.08436">
        <ele>977.59997558594</ele>
        <time>2020-01-11T12:29:46.000Z</time>
      </trkpt>
      <trkpt lat="43.79765" lon="7.08431">
        <ele>977.40002441406</ele>
        <time>2020-01-11T12:29:48.000Z</time>
      </trkpt>
      <trkpt lat="43.79764" lon="7.08428">
        <ele>977.79998779297</ele>
        <time>2020-01-11T12:29:50.000Z</time>
      </trkpt>
      <trkpt lat="43.79763" lon="7.08424">
        <ele>978.40002441406</ele>
        <time>2020-01-11T12:29:52.000Z</time>
      </trkpt>
      <trkpt lat="43.7976" lon="7.08416">
        <ele>977.79998779297</ele>
        <time>2020-01-11T12:29:57.000Z</time>
      </trkpt>
      <trkpt lat="43.79758" lon="7.08416">
        <ele>977.79998779297</ele>
        <time>2020-01-11T12:29:59.000Z</time>
      </trkpt>
      <trkpt lat="43.79759" lon="7.08423">
        <ele>978.20001220703</ele>
        <time>2020-01-11T12:30:03.000Z</time>
      </trkpt>
      <trkpt lat="43.7976" lon="7.08423">
        <ele>978.20001220703</ele>
        <time>2020-01-11T12:30:05.000Z</time>
      </trkpt>
      <trkpt lat="43.79762" lon="7.08421">
        <ele>978</ele>
        <time>2020-01-11T12:30:07.000Z</time>
      </trkpt>
      <trkpt lat="43.79762" lon="7.0842">
        <ele>978</ele>
        <time>2020-01-11T12:30:08.000Z</time>
      </trkpt>
      <trkpt lat="43.79759" lon="7.08415">
        <ele>978</ele>
        <time>2020-01-11T12:30:11.000Z</time>
      </trkpt>
      <trkpt lat="43.79757" lon="7.08411">
        <ele>978</ele>
        <time>2020-01-11T12:30:13.000Z</time>
      </trkpt>
      <trkpt lat="43.79753" lon="7.08399">
        <ele>978.40002441406</ele>
        <time>2020-01-11T12:30:18.000Z</time>
      </trkpt>
      <trkpt lat="43.79754" lon="7.08396">
        <ele>978.79998779297</ele>
        <time>2020-01-11T12:30:23.000Z</time>
      </trkpt>
      <trkpt lat="43.79754" lon="7.08396">
        <ele>979</ele>
        <time>2020-01-11T12:30:26.000Z</time>
      </trkpt>
      <trkpt lat="43.79754" lon="7.08397">
        <ele>978.79998779297</ele>
        <time>2020-01-11T12:30:31.000Z</time>
      </trkpt>
      <trkpt lat="43.79754" lon="7.08397">
        <ele>978.40002441406</ele>
        <time>2020-01-11T12:30:42.000Z</time>
      </trkpt>
      <trkpt lat="43.79753" lon="7.08394">
        <ele>979</ele>
        <time>2020-01-11T12:30:49.000Z</time>
      </trkpt>
      <trkpt lat="43.79753" lon="7.08393">
        <ele>979</ele>
        <time>2020-01-11T12:30:50.000Z</time>
      </trkpt>
      <trkpt lat="43.7975" lon="7.084">
        <ele>978.79998779297</ele>
        <time>2020-01-11T12:30:54.000Z</time>
      </trkpt>
      <trkpt lat="43.79754" lon="7.08413">
        <ele>978.79998779297</ele>
        <time>2020-01-11T12:30:58.000Z</time>
      </trkpt>
      <trkpt lat="43.79755" lon="7.08416">
        <ele>978.79998779297</ele>
        <time>2020-01-11T12:30:59.000Z</time>
      </trkpt>
      <trkpt lat="43.79767" lon="7.08442">
        <ele>978.40002441406</ele>
        <time>2020-01-11T12:31:05.000Z</time>
      </trkpt>
      <trkpt lat="43.79773" lon="7.0845">
        <ele>978.20001220703</ele>
        <time>2020-01-11T12:31:07.000Z</time>
      </trkpt>
      <trkpt lat="43.79784" lon="7.08461">
        <ele>977.79998779297</ele>
        <time>2020-01-11T12:31:10.000Z</time>
      </trkpt>
      <trkpt lat="43.7982" lon="7.08489">
        <ele>976.59997558594</ele>
        <time>2020-01-11T12:31:17.000Z</time>
      </trkpt>
      <trkpt lat="43.79843" lon="7.08506">
        <ele>975.40002441406</ele>
        <time>2020-01-11T12:31:21.000Z</time>
      </trkpt>
      <trkpt lat="43.79861" lon="7.08518">
        <ele>974.40002441406</ele>
        <time>2020-01-11T12:31:24.000Z</time>
      </trkpt>
      <trkpt lat="43.79867" lon="7.08522">
        <ele>974.20001220703</ele>
        <time>2020-01-11T12:31:25.000Z</time>
      </trkpt>
      <trkpt lat="43.79874" lon="7.08524">
        <ele>974</ele>
        <time>2020-01-11T12:31:26.000Z</time>
      </trkpt>
      <trkpt lat="43.79894" lon="7.0853">
        <ele>973.20001220703</ele>
        <time>2020-01-11T12:31:29.000Z</time>
      </trkpt>
      <trkpt lat="43.79924" lon="7.08536">
        <ele>972</ele>
        <time>2020-01-11T12:31:33.000Z</time>
      </trkpt>
      <trkpt lat="43.79931" lon="7.08538">
        <ele>971.79998779297</ele>
        <time>2020-01-11T12:31:34.000Z</time>
      </trkpt>
      <trkpt lat="43.79945" lon="7.08548">
        <ele>971.40002441406</ele>
        <time>2020-01-11T12:31:36.000Z</time>
      </trkpt>
      <trkpt lat="43.79951" lon="7.08556">
        <ele>971</ele>
        <time>2020-01-11T12:31:37.000Z</time>
      </trkpt>
      <trkpt lat="43.79957" lon="7.08575">
        <ele>970.40002441406</ele>
        <time>2020-01-11T12:31:39.000Z</time>
      </trkpt>
      <trkpt lat="43.7996" lon="7.08585">
        <ele>970</ele>
        <time>2020-01-11T12:31:40.000Z</time>
      </trkpt>
      <trkpt lat="43.79974" lon="7.08609">
        <ele>969</ele>
        <time>2020-01-11T12:31:43.000Z</time>
      </trkpt>
      <trkpt lat="43.7998" lon="7.08615">
        <ele>968.79998779297</ele>
        <time>2020-01-11T12:31:44.000Z</time>
      </trkpt>
      <trkpt lat="43.79987" lon="7.08622">
        <ele>968.20001220703</ele>
        <time>2020-01-11T12:31:45.000Z</time>
      </trkpt>
      <trkpt lat="43.79993" lon="7.08628">
        <ele>967.59997558594</ele>
        <time>2020-01-11T12:31:46.000Z</time>
      </trkpt>
      <trkpt lat="43.8" lon="7.08636">
        <ele>967.20001220703</ele>
        <time>2020-01-11T12:31:47.000Z</time>
      </trkpt>
      <trkpt lat="43.80005" lon="7.08645">
        <ele>966.59997558594</ele>
        <time>2020-01-11T12:31:48.000Z</time>
      </trkpt>
      <trkpt lat="43.8001" lon="7.08667">
        <ele>965.40002441406</ele>
        <time>2020-01-11T12:31:50.000Z</time>
      </trkpt>
      <trkpt lat="43.80012" lon="7.08679">
        <ele>965.20001220703</ele>
        <time>2020-01-11T12:31:51.000Z</time>
      </trkpt>
      <trkpt lat="43.80014" lon="7.08701">
        <ele>964.40002441406</ele>
        <time>2020-01-11T12:31:53.000Z</time>
      </trkpt>
      <trkpt lat="43.80018" lon="7.08726">
        <ele>963.40002441406</ele>
        <time>2020-01-11T12:31:55.000Z</time>
      </trkpt>
      <trkpt lat="43.80022" lon="7.08735">
        <ele>962.79998779297</ele>
        <time>2020-01-11T12:31:56.000Z</time>
      </trkpt>
      <trkpt lat="43.80034" lon="7.0875">
        <ele>961.20001220703</ele>
        <time>2020-01-11T12:31:58.000Z</time>
      </trkpt>
      <trkpt lat="43.80041" lon="7.08757">
        <ele>960.59997558594</ele>
        <time>2020-01-11T12:31:59.000Z</time>
      </trkpt>
      <trkpt lat="43.80049" lon="7.08764">
        <ele>959.59997558594</ele>
        <time>2020-01-11T12:32:00.000Z</time>
      </trkpt>
      <trkpt lat="43.8006" lon="7.08786">
        <ele>958.40002441406</ele>
        <time>2020-01-11T12:32:02.000Z</time>
      </trkpt>
      <trkpt lat="43.8006" lon="7.08811">
        <ele>956.79998779297</ele>
        <time>2020-01-11T12:32:04.000Z</time>
      </trkpt>
      <trkpt lat="43.8006" lon="7.08824">
        <ele>956</ele>
        <time>2020-01-11T12:32:05.000Z</time>
      </trkpt>
      <trkpt lat="43.8006" lon="7.08837">
        <ele>955.40002441406</ele>
        <time>2020-01-11T12:32:06.000Z</time>
      </trkpt>
      <trkpt lat="43.8006" lon="7.0885">
        <ele>954.79998779297</ele>
        <time>2020-01-11T12:32:07.000Z</time>
      </trkpt>
      <trkpt lat="43.80061" lon="7.08863">
        <ele>954.40002441406</ele>
        <time>2020-01-11T12:32:08.000Z</time>
      </trkpt>
      <trkpt lat="43.80063" lon="7.08874">
        <ele>954</ele>
        <time>2020-01-11T12:32:09.000Z</time>
      </trkpt>
      <trkpt lat="43.80069" lon="7.08913">
        <ele>953.20001220703</ele>
        <time>2020-01-11T12:32:12.000Z</time>
      </trkpt>
      <trkpt lat="43.80076" lon="7.0895">
        <ele>951.59997558594</ele>
        <time>2020-01-11T12:32:15.000Z</time>
      </trkpt>
      <trkpt lat="43.80088" lon="7.08984">
        <ele>950</ele>
        <time>2020-01-11T12:32:18.000Z</time>
      </trkpt>
      <trkpt lat="43.80096" lon="7.09007">
        <ele>949.20001220703</ele>
        <time>2020-01-11T12:32:20.000Z</time>
      </trkpt>
      <trkpt lat="43.801" lon="7.09019">
        <ele>948.59997558594</ele>
        <time>2020-01-11T12:32:21.000Z</time>
      </trkpt>
      <trkpt lat="43.80116" lon="7.09051">
        <ele>947.20001220703</ele>
        <time>2020-01-11T12:32:24.000Z</time>
      </trkpt>
      <trkpt lat="43.80123" lon="7.09061">
        <ele>946.59997558594</ele>
        <time>2020-01-11T12:32:25.000Z</time>
      </trkpt>
      <trkpt lat="43.80131" lon="7.09069">
        <ele>946</ele>
        <time>2020-01-11T12:32:26.000Z</time>
      </trkpt>
      <trkpt lat="43.80148" lon="7.09081">
        <ele>944.79998779297</ele>
        <time>2020-01-11T12:32:28.000Z</time>
      </trkpt>
      <trkpt lat="43.80176" lon="7.09087">
        <ele>943.40002441406</ele>
        <time>2020-01-11T12:32:31.000Z</time>
      </trkpt>
      <trkpt lat="43.80193" lon="7.09085">
        <ele>942.40002441406</ele>
        <time>2020-01-11T12:32:33.000Z</time>
      </trkpt>
      <trkpt lat="43.80199" lon="7.09083">
        <ele>942.20001220703</ele>
        <time>2020-01-11T12:32:34.000Z</time>
      </trkpt>
      <trkpt lat="43.8021" lon="7.09076">
        <ele>941.20001220703</ele>
        <time>2020-01-11T12:32:36.000Z</time>
      </trkpt>
      <trkpt lat="43.80219" lon="7.09068">
        <ele>940.79998779297</ele>
        <time>2020-01-11T12:32:38.000Z</time>
      </trkpt>
      <trkpt lat="43.80223" lon="7.09066">
        <ele>940.59997558594</ele>
        <time>2020-01-11T12:32:39.000Z</time>
      </trkpt>
      <trkpt lat="43.80232" lon="7.0906">
        <ele>940.20001220703</ele>
        <time>2020-01-11T12:32:42.000Z</time>
      </trkpt>
      <trkpt lat="43.80235" lon="7.09058">
        <ele>940</ele>
        <time>2020-01-11T12:32:44.000Z</time>
      </trkpt>
      <trkpt lat="43.80237" lon="7.09055">
        <ele>940</ele>
        <time>2020-01-11T12:32:47.000Z</time>
      </trkpt>
      <trkpt lat="43.8024" lon="7.09053">
        <ele>940</ele>
        <time>2020-01-11T12:32:53.000Z</time>
      </trkpt>
      <trkpt lat="43.8024" lon="7.09053">
        <ele>940.59997558594</ele>
        <time>2020-01-11T12:32:59.000Z</time>
      </trkpt>
      <trkpt lat="43.8024" lon="7.09053">
        <ele>940.59997558594</ele>
        <time>2020-01-11T12:33:07.000Z</time>
      </trkpt>
      <trkpt lat="43.8024" lon="7.09053">
        <ele>940.79998779297</ele>
        <time>2020-01-11T12:33:16.000Z</time>
      </trkpt>
      <trkpt lat="43.80239" lon="7.09052">
        <ele>940.79998779297</ele>
        <time>2020-01-11T12:33:24.000Z</time>
      </trkpt>
      <trkpt lat="43.80239" lon="7.09052">
        <ele>940.79998779297</ele>
        <time>2020-01-11T12:33:34.000Z</time>
      </trkpt>
      <trkpt lat="43.80239" lon="7.09052">
        <ele>941.20001220703</ele>
        <time>2020-01-11T12:33:37.000Z</time>
      </trkpt>
      <trkpt lat="43.80238" lon="7.09052">
        <ele>941.20001220703</ele>
        <time>2020-01-11T12:33:39.000Z</time>
      </trkpt>
      <trkpt lat="43.80239" lon="7.09052">
        <ele>941.20001220703</ele>
        <time>2020-01-11T12:33:40.000Z</time>
      </trkpt>
      <trkpt lat="43.80239" lon="7.0905">
        <ele>941</ele>
        <time>2020-01-11T12:33:41.000Z</time>
      </trkpt>
      <trkpt lat="43.80239" lon="7.0905">
        <ele>940.59997558594</ele>
        <time>2020-01-11T12:33:43.000Z</time>
      </trkpt>
      <trkpt lat="43.8024" lon="7.0905">
        <ele>941</ele>
        <time>2020-01-11T12:33:48.000Z</time>
      </trkpt>
      <trkpt lat="43.8024" lon="7.0905">
        <ele>940.79998779297</ele>
        <time>2020-01-11T12:33:53.000Z</time>
      </trkpt>
      <trkpt lat="43.80239" lon="7.09049">
        <ele>940.79998779297</ele>
        <time>2020-01-11T12:33:58.000Z</time>
      </trkpt>
      <trkpt lat="43.8024" lon="7.09049">
        <ele>940.79998779297</ele>
        <time>2020-01-11T12:34:05.000Z</time>
      </trkpt>
      <trkpt lat="43.80241" lon="7.09046">
        <ele>941.20001220703</ele>
        <time>2020-01-11T12:34:07.000Z</time>
      </trkpt>
      <trkpt lat="43.80244" lon="7.09042">
        <ele>941</ele>
        <time>2020-01-11T12:34:09.000Z</time>
      </trkpt>
      <trkpt lat="43.80247" lon="7.09037">
        <ele>941</ele>
        <time>2020-01-11T12:34:11.000Z</time>
      </trkpt>
      <trkpt lat="43.80253" lon="7.09027">
        <ele>940.79998779297</ele>
        <time>2020-01-11T12:34:14.000Z</time>
      </trkpt>
      <trkpt lat="43.80271" lon="7.09006">
        <ele>940.79998779297</ele>
        <time>2020-01-11T12:34:20.000Z</time>
      </trkpt>
      <trkpt lat="43.80278" lon="7.09001">
        <ele>940.59997558594</ele>
        <time>2020-01-11T12:34:22.000Z</time>
      </trkpt>
      <trkpt lat="43.80299" lon="7.08992">
        <ele>940.79998779297</ele>
        <time>2020-01-11T12:34:27.000Z</time>
      </trkpt>
      <trkpt lat="43.80327" lon="7.08979">
        <ele>941.20001220703</ele>
        <time>2020-01-11T12:34:34.000Z</time>
      </trkpt>
      <trkpt lat="43.80332" lon="7.08975">
        <ele>941.20001220703</ele>
        <time>2020-01-11T12:34:35.000Z</time>
      </trkpt>
      <trkpt lat="43.80342" lon="7.08964">
        <ele>941.59997558594</ele>
        <time>2020-01-11T12:34:38.000Z</time>
      </trkpt>
      <trkpt lat="43.80352" lon="7.0895">
        <ele>941.79998779297</ele>
        <time>2020-01-11T12:34:41.000Z</time>
      </trkpt>
      <trkpt lat="43.80357" lon="7.0894">
        <ele>941.79998779297</ele>
        <time>2020-01-11T12:34:43.000Z</time>
      </trkpt>
      <trkpt lat="43.80367" lon="7.08918">
        <ele>942.20001220703</ele>
        <time>2020-01-11T12:34:47.000Z</time>
      </trkpt>
      <trkpt lat="43.80371" lon="7.08907">
        <ele>942.20001220703</ele>
        <time>2020-01-11T12:34:49.000Z</time>
      </trkpt>
      <trkpt lat="43.80376" lon="7.08896">
        <ele>942.20001220703</ele>
        <time>2020-01-11T12:34:51.000Z</time>
      </trkpt>
      <trkpt lat="43.80384" lon="7.08889">
        <ele>942.20001220703</ele>
        <time>2020-01-11T12:34:53.000Z</time>
      </trkpt>
      <trkpt lat="43.80399" lon="7.08891">
        <ele>942.20001220703</ele>
        <time>2020-01-11T12:34:56.000Z</time>
      </trkpt>
      <trkpt lat="43.80403" lon="7.08894">
        <ele>942.20001220703</ele>
        <time>2020-01-11T12:34:57.000Z</time>
      </trkpt>
      <trkpt lat="43.80435" lon="7.08915">
        <ele>942</ele>
        <time>2020-01-11T12:35:04.000Z</time>
      </trkpt>
      <trkpt lat="43.80476" lon="7.08931">
        <ele>942.20001220703</ele>
        <time>2020-01-11T12:35:12.000Z</time>
      </trkpt>
      <trkpt lat="43.80481" lon="7.08932">
        <ele>942</ele>
        <time>2020-01-11T12:35:13.000Z</time>
      </trkpt>
      <trkpt lat="43.80508" lon="7.08933">
        <ele>942.20001220703</ele>
        <time>2020-01-11T12:35:18.000Z</time>
      </trkpt>
      <trkpt lat="43.80544" lon="7.08935">
        <ele>942</ele>
        <time>2020-01-11T12:35:25.000Z</time>
      </trkpt>
      <trkpt lat="43.80578" lon="7.08922">
        <ele>942.20001220703</ele>
        <time>2020-01-11T12:35:32.000Z</time>
      </trkpt>
      <trkpt lat="43.80595" lon="7.0891">
        <ele>942</ele>
        <time>2020-01-11T12:35:36.000Z</time>
      </trkpt>
      <trkpt lat="43.80604" lon="7.08906">
        <ele>942</ele>
        <time>2020-01-11T12:35:38.000Z</time>
      </trkpt>
      <trkpt lat="43.80613" lon="7.08902">
        <ele>941.79998779297</ele>
        <time>2020-01-11T12:35:40.000Z</time>
      </trkpt>
      <trkpt lat="43.80626" lon="7.08901">
        <ele>941.59997558594</ele>
        <time>2020-01-11T12:35:43.000Z</time>
      </trkpt>
      <trkpt lat="43.8063" lon="7.08899">
        <ele>941.59997558594</ele>
        <time>2020-01-11T12:35:44.000Z</time>
      </trkpt>
      <trkpt lat="43.8065" lon="7.08893">
        <ele>941.59997558594</ele>
        <time>2020-01-11T12:35:49.000Z</time>
      </trkpt>
      <trkpt lat="43.80678" lon="7.08886">
        <ele>941.40002441406</ele>
        <time>2020-01-11T12:35:56.000Z</time>
      </trkpt>
      <trkpt lat="43.80704" lon="7.08885">
        <ele>941.40002441406</ele>
        <time>2020-01-11T12:36:02.000Z</time>
      </trkpt>
      <trkpt lat="43.80708" lon="7.08884">
        <ele>941.59997558594</ele>
        <time>2020-01-11T12:36:03.000Z</time>
      </trkpt>
      <trkpt lat="43.80735" lon="7.08875">
        <ele>941.20001220703</ele>
        <time>2020-01-11T12:36:09.000Z</time>
      </trkpt>
      <trkpt lat="43.80739" lon="7.08876">
        <ele>941.20001220703</ele>
        <time>2020-01-11T12:36:10.000Z</time>
      </trkpt>
      <trkpt lat="43.80752" lon="7.08881">
        <ele>941.20001220703</ele>
        <time>2020-01-11T12:36:13.000Z</time>
      </trkpt>
      <trkpt lat="43.8076" lon="7.08886">
        <ele>941.40002441406</ele>
        <time>2020-01-11T12:36:15.000Z</time>
      </trkpt>
      <trkpt lat="43.80775" lon="7.08907">
        <ele>941.20001220703</ele>
        <time>2020-01-11T12:36:20.000Z</time>
      </trkpt>
      <trkpt lat="43.80793" lon="7.08937">
        <ele>941</ele>
        <time>2020-01-11T12:36:27.000Z</time>
      </trkpt>
      <trkpt lat="43.80807" lon="7.0896">
        <ele>940.20001220703</ele>
        <time>2020-01-11T12:36:33.000Z</time>
      </trkpt>
      <trkpt lat="43.80818" lon="7.08975">
        <ele>940.20001220703</ele>
        <time>2020-01-11T12:36:37.000Z</time>
      </trkpt>
      <trkpt lat="43.80836" lon="7.09009">
        <ele>939.59997558594</ele>
        <time>2020-01-11T12:36:45.000Z</time>
      </trkpt>
      <trkpt lat="43.80841" lon="7.09025">
        <ele>939.59997558594</ele>
        <time>2020-01-11T12:36:48.000Z</time>
      </trkpt>
      <trkpt lat="43.80842" lon="7.09043">
        <ele>939.20001220703</ele>
        <time>2020-01-11T12:36:51.000Z</time>
      </trkpt>
      <trkpt lat="43.80842" lon="7.0905">
        <ele>939</ele>
        <time>2020-01-11T12:36:52.000Z</time>
      </trkpt>
      <trkpt lat="43.80842" lon="7.09057">
        <ele>938.79998779297</ele>
        <time>2020-01-11T12:36:53.000Z</time>
      </trkpt>
      <trkpt lat="43.8084" lon="7.0908">
        <ele>937.79998779297</ele>
        <time>2020-01-11T12:36:56.000Z</time>
      </trkpt>
      <trkpt lat="43.8084" lon="7.09093">
        <ele>937</ele>
        <time>2020-01-11T12:36:58.000Z</time>
      </trkpt>
      <trkpt lat="43.8084" lon="7.091">
        <ele>936.59997558594</ele>
        <time>2020-01-11T12:36:59.000Z</time>
      </trkpt>
      <trkpt lat="43.8084" lon="7.09116">
        <ele>936</ele>
        <time>2020-01-11T12:37:01.000Z</time>
      </trkpt>
      <trkpt lat="43.80842" lon="7.09165">
        <ele>935.20001220703</ele>
        <time>2020-01-11T12:37:07.000Z</time>
      </trkpt>
      <trkpt lat="43.80841" lon="7.09173">
        <ele>934.59997558594</ele>
        <time>2020-01-11T12:37:08.000Z</time>
      </trkpt>
      <trkpt lat="43.80841" lon="7.09182">
        <ele>934</ele>
        <time>2020-01-11T12:37:09.000Z</time>
      </trkpt>
      <trkpt lat="43.80841" lon="7.09201">
        <ele>933</ele>
        <time>2020-01-11T12:37:11.000Z</time>
      </trkpt>
      <trkpt lat="43.80842" lon="7.09219">
        <ele>932.20001220703</ele>
        <time>2020-01-11T12:37:13.000Z</time>
      </trkpt>
      <trkpt lat="43.80843" lon="7.09227">
        <ele>931.79998779297</ele>
        <time>2020-01-11T12:37:14.000Z</time>
      </trkpt>
      <trkpt lat="43.80846" lon="7.0926">
        <ele>930.79998779297</ele>
        <time>2020-01-11T12:37:18.000Z</time>
      </trkpt>
      <trkpt lat="43.80848" lon="7.09277">
        <ele>930.79998779297</ele>
        <time>2020-01-11T12:37:20.000Z</time>
      </trkpt>
      <trkpt lat="43.80848" lon="7.09301">
        <ele>930.40002441406</ele>
        <time>2020-01-11T12:37:23.000Z</time>
      </trkpt>
      <trkpt lat="43.80846" lon="7.09316">
        <ele>930.20001220703</ele>
        <time>2020-01-11T12:37:25.000Z</time>
      </trkpt>
      <trkpt lat="43.80834" lon="7.09372">
        <ele>930.20001220703</ele>
        <time>2020-01-11T12:37:33.000Z</time>
      </trkpt>
      <trkpt lat="43.80825" lon="7.09399">
        <ele>930</ele>
        <time>2020-01-11T12:37:37.000Z</time>
      </trkpt>
      <trkpt lat="43.80821" lon="7.09405">
        <ele>929.59997558594</ele>
        <time>2020-01-11T12:37:38.000Z</time>
      </trkpt>
      <trkpt lat="43.80811" lon="7.09427">
        <ele>928.59997558594</ele>
        <time>2020-01-11T12:37:41.000Z</time>
      </trkpt>
      <trkpt lat="43.80809" lon="7.09437">
        <ele>927.79998779297</ele>
        <time>2020-01-11T12:37:42.000Z</time>
      </trkpt>
      <trkpt lat="43.80808" lon="7.09447">
        <ele>927</ele>
        <time>2020-01-11T12:37:43.000Z</time>
      </trkpt>
      <trkpt lat="43.80807" lon="7.09468">
        <ele>925.40002441406</ele>
        <time>2020-01-11T12:37:45.000Z</time>
      </trkpt>
      <trkpt lat="43.80806" lon="7.09488">
        <ele>924</ele>
        <time>2020-01-11T12:37:47.000Z</time>
      </trkpt>
      <trkpt lat="43.80803" lon="7.0952">
        <ele>923</ele>
        <time>2020-01-11T12:37:50.000Z</time>
      </trkpt>
      <trkpt lat="43.80803" lon="7.0954">
        <ele>922</ele>
        <time>2020-01-11T12:37:52.000Z</time>
      </trkpt>
      <trkpt lat="43.80803" lon="7.09549">
        <ele>921.59997558594</ele>
        <time>2020-01-11T12:37:53.000Z</time>
      </trkpt>
      <trkpt lat="43.80805" lon="7.09564">
        <ele>920.79998779297</ele>
        <time>2020-01-11T12:37:55.000Z</time>
      </trkpt>
      <trkpt lat="43.80809" lon="7.09574">
        <ele>920.40002441406</ele>
        <time>2020-01-11T12:37:57.000Z</time>
      </trkpt>
      <trkpt lat="43.80818" lon="7.09587">
        <ele>920</ele>
        <time>2020-01-11T12:38:00.000Z</time>
      </trkpt>
      <trkpt lat="43.80821" lon="7.0959">
        <ele>919.59997558594</ele>
        <time>2020-01-11T12:38:01.000Z</time>
      </trkpt>
      <trkpt lat="43.80824" lon="7.09593">
        <ele>919.20001220703</ele>
        <time>2020-01-11T12:38:02.000Z</time>
      </trkpt>
      <trkpt lat="43.80832" lon="7.09595">
        <ele>918</ele>
        <time>2020-01-11T12:38:05.000Z</time>
      </trkpt>
      <trkpt lat="43.80843" lon="7.09603">
        <ele>917.20001220703</ele>
        <time>2020-01-11T12:38:10.000Z</time>
      </trkpt>
      <trkpt lat="43.80851" lon="7.09615">
        <ele>916.79998779297</ele>
        <time>2020-01-11T12:38:13.000Z</time>
      </trkpt>
      <trkpt lat="43.80857" lon="7.09622">
        <ele>915.79998779297</ele>
        <time>2020-01-11T12:38:15.000Z</time>
      </trkpt>
      <trkpt lat="43.80859" lon="7.09623">
        <ele>915.40002441406</ele>
        <time>2020-01-11T12:38:16.000Z</time>
      </trkpt>
      <trkpt lat="43.80861" lon="7.09624">
        <ele>915</ele>
        <time>2020-01-11T12:38:19.000Z</time>
      </trkpt>
      <trkpt lat="43.80861" lon="7.09623">
        <ele>915.79998779297</ele>
        <time>2020-01-11T12:38:35.000Z</time>
      </trkpt>
      <trkpt lat="43.80861" lon="7.09623">
        <ele>916.20001220703</ele>
        <time>2020-01-11T12:38:46.000Z</time>
      </trkpt>
      <trkpt lat="43.80861" lon="7.09623">
        <ele>916</ele>
        <time>2020-01-11T12:38:51.000Z</time>
      </trkpt>
      <trkpt lat="43.80861" lon="7.09623">
        <ele>916.20001220703</ele>
        <time>2020-01-11T12:38:57.000Z</time>
      </trkpt>
      <trkpt lat="43.80861" lon="7.09623">
        <ele>916</ele>
        <time>2020-01-11T12:39:03.000Z</time>
      </trkpt>
      <trkpt lat="43.80861" lon="7.09624">
        <ele>915.79998779297</ele>
        <time>2020-01-11T12:39:09.000Z</time>
      </trkpt>
      <trkpt lat="43.8086" lon="7.09625">
        <ele>916</ele>
        <time>2020-01-11T12:39:14.000Z</time>
      </trkpt>
      <trkpt lat="43.8086" lon="7.09625">
        <ele>916.20001220703</ele>
        <time>2020-01-11T12:39:19.000Z</time>
      </trkpt>
      <trkpt lat="43.80859" lon="7.09626">
        <ele>915.79998779297</ele>
        <time>2020-01-11T12:39:26.000Z</time>
      </trkpt>
      <trkpt lat="43.80857" lon="7.09627">
        <ele>915.59997558594</ele>
        <time>2020-01-11T12:39:31.000Z</time>
      </trkpt>
      <trkpt lat="43.80856" lon="7.09628">
        <ele>915.59997558594</ele>
        <time>2020-01-11T12:39:41.000Z</time>
      </trkpt>
      <trkpt lat="43.80856" lon="7.0963">
        <ele>915.59997558594</ele>
        <time>2020-01-11T12:39:43.000Z</time>
      </trkpt>
      <trkpt lat="43.80858" lon="7.0963">
        <ele>915.79998779297</ele>
        <time>2020-01-11T12:39:45.000Z</time>
      </trkpt>
      <trkpt lat="43.80859" lon="7.09628">
        <ele>915.79998779297</ele>
        <time>2020-01-11T12:39:47.000Z</time>
      </trkpt>
      <trkpt lat="43.80861" lon="7.09623">
        <ele>915.59997558594</ele>
        <time>2020-01-11T12:39:52.000Z</time>
      </trkpt>
      <trkpt lat="43.80861" lon="7.09624">
        <ele>916.20001220703</ele>
        <time>2020-01-11T12:39:56.000Z</time>
      </trkpt>
      <trkpt lat="43.8086" lon="7.09623">
        <ele>915.59997558594</ele>
        <time>2020-01-11T12:40:03.000Z</time>
      </trkpt>
      <trkpt lat="43.80859" lon="7.09623">
        <ele>916</ele>
        <time>2020-01-11T12:40:08.000Z</time>
      </trkpt>
      <trkpt lat="43.80857" lon="7.09622">
        <ele>916</ele>
        <time>2020-01-11T12:40:14.000Z</time>
      </trkpt>
      <trkpt lat="43.80848" lon="7.0961">
        <ele>915.59997558594</ele>
        <time>2020-01-11T12:40:19.000Z</time>
      </trkpt>
      <trkpt lat="43.80839" lon="7.09596">
        <ele>916</ele>
        <time>2020-01-11T12:40:24.000Z</time>
      </trkpt>
      <trkpt lat="43.80834" lon="7.09591">
        <ele>916.59997558594</ele>
        <time>2020-01-11T12:40:26.000Z</time>
      </trkpt>
      <trkpt lat="43.80827" lon="7.09586">
        <ele>917.40002441406</ele>
        <time>2020-01-11T12:40:29.000Z</time>
      </trkpt>
      <trkpt lat="43.8082" lon="7.0957">
        <ele>917</ele>
        <time>2020-01-11T12:40:33.000Z</time>
      </trkpt>
      <trkpt lat="43.80826" lon="7.09569">
        <ele>916.20001220703</ele>
        <time>2020-01-11T12:40:35.000Z</time>
      </trkpt>
      <trkpt lat="43.80833" lon="7.09576">
        <ele>915.59997558594</ele>
        <time>2020-01-11T12:40:37.000Z</time>
      </trkpt>
      <trkpt lat="43.80839" lon="7.09583">
        <ele>914.59997558594</ele>
        <time>2020-01-11T12:40:39.000Z</time>
      </trkpt>
      <trkpt lat="43.80843" lon="7.09586">
        <ele>914.20001220703</ele>
        <time>2020-01-11T12:40:40.000Z</time>
      </trkpt>
      <trkpt lat="43.8085" lon="7.09594">
        <ele>913</ele>
        <time>2020-01-11T12:40:42.000Z</time>
      </trkpt>
      <trkpt lat="43.80857" lon="7.09603">
        <ele>911.79998779297</ele>
        <time>2020-01-11T12:40:44.000Z</time>
      </trkpt>
      <trkpt lat="43.8086" lon="7.09608">
        <ele>911.20001220703</ele>
        <time>2020-01-11T12:40:45.000Z</time>
      </trkpt>
      <trkpt lat="43.80863" lon="7.09611">
        <ele>910.59997558594</ele>
        <time>2020-01-11T12:40:46.000Z</time>
      </trkpt>
      <trkpt lat="43.80868" lon="7.09619">
        <ele>909.59997558594</ele>
        <time>2020-01-11T12:40:48.000Z</time>
      </trkpt>
      <trkpt lat="43.80872" lon="7.09626">
        <ele>908.79998779297</ele>
        <time>2020-01-11T12:40:50.000Z</time>
      </trkpt>
      <trkpt lat="43.80875" lon="7.09627">
        <ele>908.40002441406</ele>
        <time>2020-01-11T12:40:51.000Z</time>
      </trkpt>
      <trkpt lat="43.80876" lon="7.09626">
        <ele>907.79998779297</ele>
        <time>2020-01-11T12:40:53.000Z</time>
      </trkpt>
      <trkpt lat="43.80876" lon="7.09627">
        <ele>907.40002441406</ele>
        <time>2020-01-11T12:40:54.000Z</time>
      </trkpt>
      <trkpt lat="43.80877" lon="7.09625">
        <ele>907</ele>
        <time>2020-01-11T12:40:59.000Z</time>
      </trkpt>
      <trkpt lat="43.80877" lon="7.09622">
        <ele>907</ele>
        <time>2020-01-11T12:41:13.000Z</time>
      </trkpt>
      <trkpt lat="43.80877" lon="7.09622">
        <ele>907</ele>
        <time>2020-01-11T12:41:31.000Z</time>
      </trkpt>
      <trkpt lat="43.80877" lon="7.09621">
        <ele>906.79998779297</ele>
        <time>2020-01-11T12:41:48.000Z</time>
      </trkpt>
      <trkpt lat="43.80877" lon="7.09624">
        <ele>906.59997558594</ele>
        <time>2020-01-11T12:41:55.000Z</time>
      </trkpt>
      <trkpt lat="43.80878" lon="7.09625">
        <ele>907</ele>
        <time>2020-01-11T12:42:03.000Z</time>
      </trkpt>
      <trkpt lat="43.80878" lon="7.09626">
        <ele>907</ele>
        <time>2020-01-11T12:42:12.000Z</time>
      </trkpt>
      <trkpt lat="43.80879" lon="7.09628">
        <ele>907.20001220703</ele>
        <time>2020-01-11T12:42:17.000Z</time>
      </trkpt>
      <trkpt lat="43.80882" lon="7.09641">
        <ele>907</ele>
        <time>2020-01-11T12:42:22.000Z</time>
      </trkpt>
      <trkpt lat="43.80884" lon="7.09651">
        <ele>906.79998779297</ele>
        <time>2020-01-11T12:42:26.000Z</time>
      </trkpt>
      <trkpt lat="43.80884" lon="7.09655">
        <ele>906.79998779297</ele>
        <time>2020-01-11T12:42:27.000Z</time>
      </trkpt>
      <trkpt lat="43.80881" lon="7.09671">
        <ele>907</ele>
        <time>2020-01-11T12:42:33.000Z</time>
      </trkpt>
      <trkpt lat="43.80882" lon="7.09675">
        <ele>907.40002441406</ele>
        <time>2020-01-11T12:42:38.000Z</time>
      </trkpt>
      <trkpt lat="43.80883" lon="7.09675">
        <ele>907.40002441406</ele>
        <time>2020-01-11T12:42:39.000Z</time>
      </trkpt>
      <trkpt lat="43.80889" lon="7.09671">
        <ele>907.20001220703</ele>
        <time>2020-01-11T12:42:41.000Z</time>
      </trkpt>
      <trkpt lat="43.80899" lon="7.09658">
        <ele>906.59997558594</ele>
        <time>2020-01-11T12:42:44.000Z</time>
      </trkpt>
      <trkpt lat="43.80901" lon="7.09654">
        <ele>906</ele>
        <time>2020-01-11T12:42:45.000Z</time>
      </trkpt>
      <trkpt lat="43.80901" lon="7.09651">
        <ele>905</ele>
        <time>2020-01-11T12:42:46.000Z</time>
      </trkpt>
      <trkpt lat="43.809" lon="7.09647">
        <ele>904.20001220703</ele>
        <time>2020-01-11T12:42:47.000Z</time>
      </trkpt>
      <trkpt lat="43.80899" lon="7.09645">
        <ele>903</ele>
        <time>2020-01-11T12:42:48.000Z</time>
      </trkpt>
      <trkpt lat="43.80898" lon="7.09639">
        <ele>901.59997558594</ele>
        <time>2020-01-11T12:42:50.000Z</time>
      </trkpt>
      <trkpt lat="43.809" lon="7.09635">
        <ele>901</ele>
        <time>2020-01-11T12:42:52.000Z</time>
      </trkpt>
      <trkpt lat="43.80901" lon="7.09632">
        <ele>900.59997558594</ele>
        <time>2020-01-11T12:42:53.000Z</time>
      </trkpt>
      <trkpt lat="43.80899" lon="7.09623">
        <ele>899.59997558594</ele>
        <time>2020-01-11T12:42:55.000Z</time>
      </trkpt>
      <trkpt lat="43.80897" lon="7.09617">
        <ele>898.79998779297</ele>
        <time>2020-01-11T12:42:56.000Z</time>
      </trkpt>
      <trkpt lat="43.80895" lon="7.0961">
        <ele>898.20001220703</ele>
        <time>2020-01-11T12:42:57.000Z</time>
      </trkpt>
      <trkpt lat="43.80894" lon="7.09603">
        <ele>897.40002441406</ele>
        <time>2020-01-11T12:42:58.000Z</time>
      </trkpt>
      <trkpt lat="43.80892" lon="7.09596">
        <ele>896.40002441406</ele>
        <time>2020-01-11T12:42:59.000Z</time>
      </trkpt>
      <trkpt lat="43.8089" lon="7.09588">
        <ele>895.40002441406</ele>
        <time>2020-01-11T12:43:00.000Z</time>
      </trkpt>
      <trkpt lat="43.80886" lon="7.09572">
        <ele>893.59997558594</ele>
        <time>2020-01-11T12:43:02.000Z</time>
      </trkpt>
      <trkpt lat="43.80885" lon="7.09566">
        <ele>892.40002441406</ele>
        <time>2020-01-11T12:43:03.000Z</time>
      </trkpt>
      <trkpt lat="43.80884" lon="7.09561">
        <ele>891.40002441406</ele>
        <time>2020-01-11T12:43:04.000Z</time>
      </trkpt>
      <trkpt lat="43.80882" lon="7.09554">
        <ele>890.40002441406</ele>
        <time>2020-01-11T12:43:05.000Z</time>
      </trkpt>
      <trkpt lat="43.80881" lon="7.0955">
        <ele>889.20001220703</ele>
        <time>2020-01-11T12:43:06.000Z</time>
      </trkpt>
      <trkpt lat="43.8088" lon="7.09547">
        <ele>888</ele>
        <time>2020-01-11T12:43:07.000Z</time>
      </trkpt>
      <trkpt lat="43.8088" lon="7.09545">
        <ele>887.79998779297</ele>
        <time>2020-01-11T12:43:08.000Z</time>
      </trkpt>
      <trkpt lat="43.8088" lon="7.09545">
        <ele>886.79998779297</ele>
        <time>2020-01-11T12:43:10.000Z</time>
      </trkpt>
      <trkpt lat="43.8088" lon="7.09544">
        <ele>886.20001220703</ele>
        <time>2020-01-11T12:43:13.000Z</time>
      </trkpt>
      <trkpt lat="43.80879" lon="7.09535">
        <ele>886.20001220703</ele>
        <time>2020-01-11T12:43:22.000Z</time>
      </trkpt>
      <trkpt lat="43.80879" lon="7.09517">
        <ele>885.59997558594</ele>
        <time>2020-01-11T12:43:26.000Z</time>
      </trkpt>
      <trkpt lat="43.80879" lon="7.0951">
        <ele>885.20001220703</ele>
        <time>2020-01-11T12:43:27.000Z</time>
      </trkpt>
      <trkpt lat="43.8088" lon="7.09495">
        <ele>884</ele>
        <time>2020-01-11T12:43:29.000Z</time>
      </trkpt>
      <trkpt lat="43.80886" lon="7.09481">
        <ele>882.59997558594</ele>
        <time>2020-01-11T12:43:31.000Z</time>
      </trkpt>
      <trkpt lat="43.80893" lon="7.09473">
        <ele>880.59997558594</ele>
        <time>2020-01-11T12:43:33.000Z</time>
      </trkpt>
      <trkpt lat="43.80897" lon="7.09471">
        <ele>879.59997558594</ele>
        <time>2020-01-11T12:43:34.000Z</time>
      </trkpt>
      <trkpt lat="43.80901" lon="7.09468">
        <ele>878.79998779297</ele>
        <time>2020-01-11T12:43:35.000Z</time>
      </trkpt>
      <trkpt lat="43.80918" lon="7.09458">
        <ele>877.79998779297</ele>
        <time>2020-01-11T12:43:38.000Z</time>
      </trkpt>
      <trkpt lat="43.80923" lon="7.09455">
        <ele>877.59997558594</ele>
        <time>2020-01-11T12:43:39.000Z</time>
      </trkpt>
      <trkpt lat="43.80938" lon="7.09438">
        <ele>875.79998779297</ele>
        <time>2020-01-11T12:43:42.000Z</time>
      </trkpt>
      <trkpt lat="43.80947" lon="7.09432">
        <ele>874.40002441406</ele>
        <time>2020-01-11T12:43:44.000Z</time>
      </trkpt>
      <trkpt lat="43.80951" lon="7.0943">
        <ele>874</ele>
        <time>2020-01-11T12:43:45.000Z</time>
      </trkpt>
      <trkpt lat="43.80955" lon="7.09429">
        <ele>874</ele>
        <time>2020-01-11T12:43:46.000Z</time>
      </trkpt>
      <trkpt lat="43.80965" lon="7.09422">
        <ele>875</ele>
        <time>2020-01-11T12:43:49.000Z</time>
      </trkpt>
      <trkpt lat="43.80972" lon="7.09402">
        <ele>875.40002441406</ele>
        <time>2020-01-11T12:43:53.000Z</time>
      </trkpt>
      <trkpt lat="43.80975" lon="7.0939">
        <ele>875.59997558594</ele>
        <time>2020-01-11T12:43:56.000Z</time>
      </trkpt>
      <trkpt lat="43.80976" lon="7.09384">
        <ele>876.20001220703</ele>
        <time>2020-01-11T12:43:58.000Z</time>
      </trkpt>
      <trkpt lat="43.80977" lon="7.09382">
        <ele>876.79998779297</ele>
        <time>2020-01-11T12:43:59.000Z</time>
      </trkpt>
      <trkpt lat="43.80977" lon="7.09373">
        <ele>878</ele>
        <time>2020-01-11T12:44:02.000Z</time>
      </trkpt>
      <trkpt lat="43.80979" lon="7.09366">
        <ele>878.59997558594</ele>
        <time>2020-01-11T12:44:04.000Z</time>
      </trkpt>
      <trkpt lat="43.80979" lon="7.09362">
        <ele>879</ele>
        <time>2020-01-11T12:44:05.000Z</time>
      </trkpt>
      <trkpt lat="43.80984" lon="7.0934">
        <ele>879.59997558594</ele>
        <time>2020-01-11T12:44:10.000Z</time>
      </trkpt>
      <trkpt lat="43.80985" lon="7.0933">
        <ele>880</ele>
        <time>2020-01-11T12:44:14.000Z</time>
      </trkpt>
      <trkpt lat="43.80985" lon="7.0933">
        <ele>879.79998779297</ele>
        <time>2020-01-11T12:44:23.000Z</time>
      </trkpt>
      <trkpt lat="43.80985" lon="7.09329">
        <ele>880.20001220703</ele>
        <time>2020-01-11T12:44:30.000Z</time>
      </trkpt>
      <trkpt lat="43.80985" lon="7.09329">
        <ele>880.20001220703</ele>
        <time>2020-01-11T12:44:52.000Z</time>
      </trkpt>
      <trkpt lat="43.80986" lon="7.09328">
        <ele>880</ele>
        <time>2020-01-11T12:45:08.000Z</time>
      </trkpt>
      <trkpt lat="43.80986" lon="7.09325">
        <ele>880</ele>
        <time>2020-01-11T12:45:09.000Z</time>
      </trkpt>
      <trkpt lat="43.80994" lon="7.09299">
        <ele>879.40002441406</ele>
        <time>2020-01-11T12:45:15.000Z</time>
      </trkpt>
      <trkpt lat="43.80995" lon="7.09292">
        <ele>878.79998779297</ele>
        <time>2020-01-11T12:45:16.000Z</time>
      </trkpt>
      <trkpt lat="43.80999" lon="7.09272">
        <ele>877.79998779297</ele>
        <time>2020-01-11T12:45:19.000Z</time>
      </trkpt>
      <trkpt lat="43.81001" lon="7.09266">
        <ele>877.59997558594</ele>
        <time>2020-01-11T12:45:20.000Z</time>
      </trkpt>
      <trkpt lat="43.81011" lon="7.09251">
        <ele>877.40002441406</ele>
        <time>2020-01-11T12:45:23.000Z</time>
      </trkpt>
      <trkpt lat="43.81014" lon="7.09246">
        <ele>877.20001220703</ele>
        <time>2020-01-11T12:45:24.000Z</time>
      </trkpt>
      <trkpt lat="43.81018" lon="7.09242">
        <ele>877</ele>
        <time>2020-01-11T12:45:25.000Z</time>
      </trkpt>
      <trkpt lat="43.8102" lon="7.09238">
        <ele>876.59997558594</ele>
        <time>2020-01-11T12:45:26.000Z</time>
      </trkpt>
      <trkpt lat="43.81021" lon="7.09234">
        <ele>876.20001220703</ele>
        <time>2020-01-11T12:45:27.000Z</time>
      </trkpt>
      <trkpt lat="43.81019" lon="7.09224">
        <ele>876</ele>
        <time>2020-01-11T12:45:30.000Z</time>
      </trkpt>
      <trkpt lat="43.81018" lon="7.09219">
        <ele>876</ele>
        <time>2020-01-11T12:45:31.000Z</time>
      </trkpt>
      <trkpt lat="43.81012" lon="7.09201">
        <ele>875.20001220703</ele>
        <time>2020-01-11T12:45:34.000Z</time>
      </trkpt>
      <trkpt lat="43.8101" lon="7.09193">
        <ele>874.59997558594</ele>
        <time>2020-01-11T12:45:35.000Z</time>
      </trkpt>
      <trkpt lat="43.81009" lon="7.09185">
        <ele>874.20001220703</ele>
        <time>2020-01-11T12:45:36.000Z</time>
      </trkpt>
      <trkpt lat="43.81014" lon="7.09175">
        <ele>872.59997558594</ele>
        <time>2020-01-11T12:45:38.000Z</time>
      </trkpt>
      <trkpt lat="43.81019" lon="7.09167">
        <ele>871.59997558594</ele>
        <time>2020-01-11T12:45:40.000Z</time>
      </trkpt>
      <trkpt lat="43.81026" lon="7.09157">
        <ele>870.79998779297</ele>
        <time>2020-01-11T12:45:42.000Z</time>
      </trkpt>
      <trkpt lat="43.81039" lon="7.09144">
        <ele>870.59997558594</ele>
        <time>2020-01-11T12:45:45.000Z</time>
      </trkpt>
      <trkpt lat="43.81043" lon="7.09141">
        <ele>870.59997558594</ele>
        <time>2020-01-11T12:45:46.000Z</time>
      </trkpt>
      <trkpt lat="43.81046" lon="7.09139">
        <ele>870.59997558594</ele>
        <time>2020-01-11T12:45:47.000Z</time>
      </trkpt>
      <trkpt lat="43.81051" lon="7.09138">
        <ele>870.79998779297</ele>
        <time>2020-01-11T12:45:50.000Z</time>
      </trkpt>
      <trkpt lat="43.81064" lon="7.09132">
        <ele>870.20001220703</ele>
        <time>2020-01-11T12:45:54.000Z</time>
      </trkpt>
      <trkpt lat="43.81067" lon="7.0913">
        <ele>869.40002441406</ele>
        <time>2020-01-11T12:45:55.000Z</time>
      </trkpt>
      <trkpt lat="43.81074" lon="7.09124">
        <ele>868</ele>
        <time>2020-01-11T12:45:57.000Z</time>
      </trkpt>
      <trkpt lat="43.81081" lon="7.09115">
        <ele>866.40002441406</ele>
        <time>2020-01-11T12:45:59.000Z</time>
      </trkpt>
      <trkpt lat="43.81088" lon="7.09108">
        <ele>864.59997558594</ele>
        <time>2020-01-11T12:46:01.000Z</time>
      </trkpt>
      <trkpt lat="43.8109" lon="7.09103">
        <ele>863.79998779297</ele>
        <time>2020-01-11T12:46:03.000Z</time>
      </trkpt>
      <trkpt lat="43.8109" lon="7.09101">
        <ele>863.79998779297</ele>
        <time>2020-01-11T12:46:07.000Z</time>
      </trkpt>
      <trkpt lat="43.8109" lon="7.09101">
        <ele>863.59997558594</ele>
        <time>2020-01-11T12:46:17.000Z</time>
      </trkpt>
      <trkpt lat="43.81089" lon="7.091">
        <ele>863.59997558594</ele>
        <time>2020-01-11T12:46:25.000Z</time>
      </trkpt>
      <trkpt lat="43.81089" lon="7.091">
        <ele>863.79998779297</ele>
        <time>2020-01-11T12:46:31.000Z</time>
      </trkpt>
      <trkpt lat="43.81088" lon="7.09092">
        <ele>863.59997558594</ele>
        <time>2020-01-11T12:46:36.000Z</time>
      </trkpt>
      <trkpt lat="43.81085" lon="7.09077">
        <ele>862.40002441406</ele>
        <time>2020-01-11T12:46:41.000Z</time>
      </trkpt>
      <trkpt lat="43.81083" lon="7.09071">
        <ele>861.79998779297</ele>
        <time>2020-01-11T12:46:43.000Z</time>
      </trkpt>
      <trkpt lat="43.81081" lon="7.09068">
        <ele>861.20001220703</ele>
        <time>2020-01-11T12:46:44.000Z</time>
      </trkpt>
      <trkpt lat="43.81078" lon="7.09054">
        <ele>860</ele>
        <time>2020-01-11T12:46:47.000Z</time>
      </trkpt>
      <trkpt lat="43.81072" lon="7.09039">
        <ele>859.79998779297</ele>
        <time>2020-01-11T12:46:51.000Z</time>
      </trkpt>
      <trkpt lat="43.81071" lon="7.09035">
        <ele>859.79998779297</ele>
        <time>2020-01-11T12:46:52.000Z</time>
      </trkpt>
      <trkpt lat="43.8107" lon="7.09025">
        <ele>859.79998779297</ele>
        <time>2020-01-11T12:46:54.000Z</time>
      </trkpt>
      <trkpt lat="43.81072" lon="7.09017">
        <ele>859.20001220703</ele>
        <time>2020-01-11T12:46:56.000Z</time>
      </trkpt>
      <trkpt lat="43.81073" lon="7.09014">
        <ele>858.79998779297</ele>
        <time>2020-01-11T12:46:57.000Z</time>
      </trkpt>
      <trkpt lat="43.81075" lon="7.09">
        <ele>857.20001220703</ele>
        <time>2020-01-11T12:47:00.000Z</time>
      </trkpt>
      <trkpt lat="43.81075" lon="7.08994">
        <ele>856.40002441406</ele>
        <time>2020-01-11T12:47:01.000Z</time>
      </trkpt>
      <trkpt lat="43.81074" lon="7.08987">
        <ele>855.40002441406</ele>
        <time>2020-01-11T12:47:02.000Z</time>
      </trkpt>
      <trkpt lat="43.81072" lon="7.08978">
        <ele>854.20001220703</ele>
        <time>2020-01-11T12:47:03.000Z</time>
      </trkpt>
      <trkpt lat="43.8107" lon="7.08969">
        <ele>852.79998779297</ele>
        <time>2020-01-11T12:47:04.000Z</time>
      </trkpt>
      <trkpt lat="43.81069" lon="7.08958">
        <ele>851.40002441406</ele>
        <time>2020-01-11T12:47:05.000Z</time>
      </trkpt>
      <trkpt lat="43.81067" lon="7.08948">
        <ele>850.20001220703</ele>
        <time>2020-01-11T12:47:06.000Z</time>
      </trkpt>
      <trkpt lat="43.81065" lon="7.08939">
        <ele>848.79998779297</ele>
        <time>2020-01-11T12:47:07.000Z</time>
      </trkpt>
      <trkpt lat="43.81063" lon="7.08931">
        <ele>847.20001220703</ele>
        <time>2020-01-11T12:47:08.000Z</time>
      </trkpt>
      <trkpt lat="43.81061" lon="7.08925">
        <ele>845.79998779297</ele>
        <time>2020-01-11T12:47:09.000Z</time>
      </trkpt>
      <trkpt lat="43.81059" lon="7.08917">
        <ele>844.59997558594</ele>
        <time>2020-01-11T12:47:10.000Z</time>
      </trkpt>
      <trkpt lat="43.81055" lon="7.08902">
        <ele>842.79998779297</ele>
        <time>2020-01-11T12:47:12.000Z</time>
      </trkpt>
      <trkpt lat="43.81053" lon="7.08895">
        <ele>842.40002441406</ele>
        <time>2020-01-11T12:47:13.000Z</time>
      </trkpt>
      <trkpt lat="43.81051" lon="7.08891">
        <ele>841.79998779297</ele>
        <time>2020-01-11T12:47:14.000Z</time>
      </trkpt>
      <trkpt lat="43.81049" lon="7.08887">
        <ele>840.59997558594</ele>
        <time>2020-01-11T12:47:16.000Z</time>
      </trkpt>
      <trkpt lat="43.81049" lon="7.08885">
        <ele>839.79998779297</ele>
        <time>2020-01-11T12:47:17.000Z</time>
      </trkpt>
      <trkpt lat="43.81049" lon="7.08885">
        <ele>839.40002441406</ele>
        <time>2020-01-11T12:47:18.000Z</time>
      </trkpt>
      <trkpt lat="43.8105" lon="7.08884">
        <ele>839.20001220703</ele>
        <time>2020-01-11T12:47:23.000Z</time>
      </trkpt>
      <trkpt lat="43.81052" lon="7.0888">
        <ele>839</ele>
        <time>2020-01-11T12:47:28.000Z</time>
      </trkpt>
      <trkpt lat="43.81054" lon="7.08876">
        <ele>838.40002441406</ele>
        <time>2020-01-11T12:47:32.000Z</time>
      </trkpt>
      <trkpt lat="43.81055" lon="7.08871">
        <ele>838.20001220703</ele>
        <time>2020-01-11T12:47:33.000Z</time>
      </trkpt>
      <trkpt lat="43.81056" lon="7.08865">
        <ele>838.20001220703</ele>
        <time>2020-01-11T12:47:34.000Z</time>
      </trkpt>
      <trkpt lat="43.81057" lon="7.08849">
        <ele>837.40002441406</ele>
        <time>2020-01-11T12:47:36.000Z</time>
      </trkpt>
      <trkpt lat="43.81059" lon="7.08841">
        <ele>836.20001220703</ele>
        <time>2020-01-11T12:47:37.000Z</time>
      </trkpt>
      <trkpt lat="43.8106" lon="7.08833">
        <ele>835</ele>
        <time>2020-01-11T12:47:38.000Z</time>
      </trkpt>
      <trkpt lat="43.81063" lon="7.08824">
        <ele>833.59997558594</ele>
        <time>2020-01-11T12:47:39.000Z</time>
      </trkpt>
      <trkpt lat="43.81065" lon="7.08815">
        <ele>832</ele>
        <time>2020-01-11T12:47:40.000Z</time>
      </trkpt>
      <trkpt lat="43.81068" lon="7.08807">
        <ele>831</ele>
        <time>2020-01-11T12:47:41.000Z</time>
      </trkpt>
      <trkpt lat="43.81071" lon="7.08801">
        <ele>830</ele>
        <time>2020-01-11T12:47:42.000Z</time>
      </trkpt>
      <trkpt lat="43.81072" lon="7.08797">
        <ele>828.79998779297</ele>
        <time>2020-01-11T12:47:43.000Z</time>
      </trkpt>
      <trkpt lat="43.81073" lon="7.08794">
        <ele>827.59997558594</ele>
        <time>2020-01-11T12:47:44.000Z</time>
      </trkpt>
      <trkpt lat="43.81076" lon="7.08793">
        <ele>825.79998779297</ele>
        <time>2020-01-11T12:47:46.000Z</time>
      </trkpt>
      <trkpt lat="43.81078" lon="7.08798">
        <ele>824.20001220703</ele>
        <time>2020-01-11T12:47:48.000Z</time>
      </trkpt>
      <trkpt lat="43.8108" lon="7.08803">
        <ele>823.40002441406</ele>
        <time>2020-01-11T12:47:50.000Z</time>
      </trkpt>
      <trkpt lat="43.81081" lon="7.08803">
        <ele>822.79998779297</ele>
        <time>2020-01-11T12:47:51.000Z</time>
      </trkpt>
      <trkpt lat="43.81083" lon="7.08799">
        <ele>821.79998779297</ele>
        <time>2020-01-11T12:47:53.000Z</time>
      </trkpt>
      <trkpt lat="43.81084" lon="7.08796">
        <ele>821.20001220703</ele>
        <time>2020-01-11T12:47:54.000Z</time>
      </trkpt>
      <trkpt lat="43.81084" lon="7.08786">
        <ele>820</ele>
        <time>2020-01-11T12:47:56.000Z</time>
      </trkpt>
      <trkpt lat="43.81084" lon="7.0878">
        <ele>819.59997558594</ele>
        <time>2020-01-11T12:47:57.000Z</time>
      </trkpt>
      <trkpt lat="43.81083" lon="7.08775">
        <ele>818.59997558594</ele>
        <time>2020-01-11T12:47:58.000Z</time>
      </trkpt>
      <trkpt lat="43.8108" lon="7.08766">
        <ele>816.79998779297</ele>
        <time>2020-01-11T12:48:00.000Z</time>
      </trkpt>
      <trkpt lat="43.81079" lon="7.08764">
        <ele>816.20001220703</ele>
        <time>2020-01-11T12:48:01.000Z</time>
      </trkpt>
      <trkpt lat="43.8108" lon="7.08761">
        <ele>815.59997558594</ele>
        <time>2020-01-11T12:48:02.000Z</time>
      </trkpt>
      <trkpt lat="43.81085" lon="7.08755">
        <ele>814.79998779297</ele>
        <time>2020-01-11T12:48:05.000Z</time>
      </trkpt>
      <trkpt lat="43.81085" lon="7.08755">
        <ele>814.20001220703</ele>
        <time>2020-01-11T12:48:06.000Z</time>
      </trkpt>
      <trkpt lat="43.81086" lon="7.08755">
        <ele>814</ele>
        <time>2020-01-11T12:48:08.000Z</time>
      </trkpt>
      <trkpt lat="43.8109" lon="7.08754">
        <ele>815</ele>
        <time>2020-01-11T12:48:14.000Z</time>
      </trkpt>
      <trkpt lat="43.81091" lon="7.08754">
        <ele>815.40002441406</ele>
        <time>2020-01-11T12:48:15.000Z</time>
      </trkpt>
      <trkpt lat="43.81093" lon="7.08752">
        <ele>816.40002441406</ele>
        <time>2020-01-11T12:48:19.000Z</time>
      </trkpt>
      <trkpt lat="43.81094" lon="7.08752">
        <ele>816.59997558594</ele>
        <time>2020-01-11T12:48:20.000Z</time>
      </trkpt>
      <trkpt lat="43.81095" lon="7.0875">
        <ele>816.79998779297</ele>
        <time>2020-01-11T12:48:21.000Z</time>
      </trkpt>
      <trkpt lat="43.81101" lon="7.08747">
        <ele>817</ele>
        <time>2020-01-11T12:48:24.000Z</time>
      </trkpt>
      <trkpt lat="43.81106" lon="7.08744">
        <ele>817</ele>
        <time>2020-01-11T12:48:26.000Z</time>
      </trkpt>
      <trkpt lat="43.81121" lon="7.08725">
        <ele>817</ele>
        <time>2020-01-11T12:48:32.000Z</time>
      </trkpt>
      <trkpt lat="43.81133" lon="7.08694">
        <ele>816.20001220703</ele>
        <time>2020-01-11T12:48:38.000Z</time>
      </trkpt>
      <trkpt lat="43.81137" lon="7.08684">
        <ele>815.40002441406</ele>
        <time>2020-01-11T12:48:41.000Z</time>
      </trkpt>
      <trkpt lat="43.81139" lon="7.08674">
        <ele>814.59997558594</ele>
        <time>2020-01-11T12:48:43.000Z</time>
      </trkpt>
      <trkpt lat="43.81139" lon="7.08668">
        <ele>813.79998779297</ele>
        <time>2020-01-11T12:48:44.000Z</time>
      </trkpt>
      <trkpt lat="43.81137" lon="7.08656">
        <ele>812.20001220703</ele>
        <time>2020-01-11T12:48:46.000Z</time>
      </trkpt>
      <trkpt lat="43.81136" lon="7.08651">
        <ele>811.40002441406</ele>
        <time>2020-01-11T12:48:47.000Z</time>
      </trkpt>
      <trkpt lat="43.81135" lon="7.08647">
        <ele>810.79998779297</ele>
        <time>2020-01-11T12:48:48.000Z</time>
      </trkpt>
      <trkpt lat="43.81132" lon="7.08638">
        <ele>809.59997558594</ele>
        <time>2020-01-11T12:48:50.000Z</time>
      </trkpt>
      <trkpt lat="43.8113" lon="7.08628">
        <ele>808.59997558594</ele>
        <time>2020-01-11T12:48:52.000Z</time>
      </trkpt>
      <trkpt lat="43.81132" lon="7.08623">
        <ele>808.40002441406</ele>
        <time>2020-01-11T12:48:53.000Z</time>
      </trkpt>
      <trkpt lat="43.81135" lon="7.08618">
        <ele>808</ele>
        <time>2020-01-11T12:48:55.000Z</time>
      </trkpt>
      <trkpt lat="43.81145" lon="7.08606">
        <ele>807.59997558594</ele>
        <time>2020-01-11T12:49:00.000Z</time>
      </trkpt>
      <trkpt lat="43.81145" lon="7.08598">
        <ele>808</ele>
        <time>2020-01-11T12:49:02.000Z</time>
      </trkpt>
      <trkpt lat="43.81146" lon="7.08595">
        <ele>808.40002441406</ele>
        <time>2020-01-11T12:49:03.000Z</time>
      </trkpt>
      <trkpt lat="43.8115" lon="7.08585">
        <ele>809.59997558594</ele>
        <time>2020-01-11T12:49:06.000Z</time>
      </trkpt>
      <trkpt lat="43.81155" lon="7.0858">
        <ele>809.79998779297</ele>
        <time>2020-01-11T12:49:08.000Z</time>
      </trkpt>
      <trkpt lat="43.81161" lon="7.08568">
        <ele>810</ele>
        <time>2020-01-11T12:49:12.000Z</time>
      </trkpt>
      <trkpt lat="43.81159" lon="7.08551">
        <ele>810.40002441406</ele>
        <time>2020-01-11T12:49:16.000Z</time>
      </trkpt>
      <trkpt lat="43.81158" lon="7.08547">
        <ele>810.59997558594</ele>
        <time>2020-01-11T12:49:17.000Z</time>
      </trkpt>
      <trkpt lat="43.8116" lon="7.08544">
        <ele>810.79998779297</ele>
        <time>2020-01-11T12:49:18.000Z</time>
      </trkpt>
      <trkpt lat="43.81163" lon="7.08539">
        <ele>810.79998779297</ele>
        <time>2020-01-11T12:49:20.000Z</time>
      </trkpt>
      <trkpt lat="43.81168" lon="7.08529">
        <ele>811</ele>
        <time>2020-01-11T12:49:24.000Z</time>
      </trkpt>
      <trkpt lat="43.81168" lon="7.08528">
        <ele>811.20001220703</ele>
        <time>2020-01-11T12:49:28.000Z</time>
      </trkpt>
      <trkpt lat="43.8117" lon="7.08531">
        <ele>811</ele>
        <time>2020-01-11T12:49:33.000Z</time>
      </trkpt>
      <trkpt lat="43.81168" lon="7.08529">
        <ele>811.40002441406</ele>
        <time>2020-01-11T12:49:40.000Z</time>
      </trkpt>
      <trkpt lat="43.81166" lon="7.08525">
        <ele>811.40002441406</ele>
        <time>2020-01-11T12:49:52.000Z</time>
      </trkpt>
      <trkpt lat="43.81165" lon="7.08523">
        <ele>811.20001220703</ele>
        <time>2020-01-11T12:49:59.000Z</time>
      </trkpt>
      <trkpt lat="43.81162" lon="7.08521">
        <ele>810.59997558594</ele>
        <time>2020-01-11T12:50:04.000Z</time>
      </trkpt>
      <trkpt lat="43.81162" lon="7.08519">
        <ele>810.79998779297</ele>
        <time>2020-01-11T12:50:09.000Z</time>
      </trkpt>
      <trkpt lat="43.8117" lon="7.08522">
        <ele>811.20001220703</ele>
        <time>2020-01-11T12:50:14.000Z</time>
      </trkpt>
      <trkpt lat="43.81171" lon="7.08523">
        <ele>811</ele>
        <time>2020-01-11T12:50:17.000Z</time>
      </trkpt>
      <trkpt lat="43.81171" lon="7.08526">
        <ele>811</ele>
        <time>2020-01-11T12:50:23.000Z</time>
      </trkpt>
      <trkpt lat="43.81174" lon="7.08532">
        <ele>811</ele>
        <time>2020-01-11T12:50:27.000Z</time>
      </trkpt>
      <trkpt lat="43.81174" lon="7.08533">
        <ele>811.20001220703</ele>
        <time>2020-01-11T12:50:28.000Z</time>
      </trkpt>
      <trkpt lat="43.81178" lon="7.08546">
        <ele>811.59997558594</ele>
        <time>2020-01-11T12:50:34.000Z</time>
      </trkpt>
      <trkpt lat="43.81177" lon="7.08548">
        <ele>811.79998779297</ele>
        <time>2020-01-11T12:50:35.000Z</time>
      </trkpt>
      <trkpt lat="43.81177" lon="7.08563">
        <ele>812</ele>
        <time>2020-01-11T12:50:39.000Z</time>
      </trkpt>
      <trkpt lat="43.81174" lon="7.08597">
        <ele>810.59997558594</ele>
        <time>2020-01-11T12:50:46.000Z</time>
      </trkpt>
      <trkpt lat="43.81174" lon="7.08613">
        <ele>809.40002441406</ele>
        <time>2020-01-11T12:50:48.000Z</time>
      </trkpt>
      <trkpt lat="43.81174" lon="7.08621">
        <ele>808.59997558594</ele>
        <time>2020-01-11T12:50:49.000Z</time>
      </trkpt>
      <trkpt lat="43.81175" lon="7.08629">
        <ele>807.79998779297</ele>
        <time>2020-01-11T12:50:50.000Z</time>
      </trkpt>
      <trkpt lat="43.81176" lon="7.08637">
        <ele>807</ele>
        <time>2020-01-11T12:50:51.000Z</time>
      </trkpt>
      <trkpt lat="43.81176" lon="7.08644">
        <ele>806.59997558594</ele>
        <time>2020-01-11T12:50:52.000Z</time>
      </trkpt>
      <trkpt lat="43.81177" lon="7.08657">
        <ele>806</ele>
        <time>2020-01-11T12:50:54.000Z</time>
      </trkpt>
      <trkpt lat="43.81179" lon="7.08671">
        <ele>805.79998779297</ele>
        <time>2020-01-11T12:50:56.000Z</time>
      </trkpt>
      <trkpt lat="43.81179" lon="7.08677">
        <ele>805.79998779297</ele>
        <time>2020-01-11T12:50:57.000Z</time>
      </trkpt>
      <trkpt lat="43.81177" lon="7.08704">
        <ele>805.59997558594</ele>
        <time>2020-01-11T12:51:01.000Z</time>
      </trkpt>
      <trkpt lat="43.81176" lon="7.08719">
        <ele>805.40002441406</ele>
        <time>2020-01-11T12:51:03.000Z</time>
      </trkpt>
      <trkpt lat="43.81179" lon="7.08737">
        <ele>804.59997558594</ele>
        <time>2020-01-11T12:51:05.000Z</time>
      </trkpt>
      <trkpt lat="43.81181" lon="7.08747">
        <ele>804</ele>
        <time>2020-01-11T12:51:06.000Z</time>
      </trkpt>
      <trkpt lat="43.81184" lon="7.08766">
        <ele>802</ele>
        <time>2020-01-11T12:51:08.000Z</time>
      </trkpt>
      <trkpt lat="43.81185" lon="7.08784">
        <ele>800.20001220703</ele>
        <time>2020-01-11T12:51:10.000Z</time>
      </trkpt>
      <trkpt lat="43.81187" lon="7.08794">
        <ele>799.79998779297</ele>
        <time>2020-01-11T12:51:11.000Z</time>
      </trkpt>
      <trkpt lat="43.81187" lon="7.08812">
        <ele>798.79998779297</ele>
        <time>2020-01-11T12:51:13.000Z</time>
      </trkpt>
      <trkpt lat="43.81187" lon="7.08821">
        <ele>798.40002441406</ele>
        <time>2020-01-11T12:51:14.000Z</time>
      </trkpt>
      <trkpt lat="43.81188" lon="7.08839">
        <ele>797.59997558594</ele>
        <time>2020-01-11T12:51:16.000Z</time>
      </trkpt>
      <trkpt lat="43.81187" lon="7.08848">
        <ele>796.79998779297</ele>
        <time>2020-01-11T12:51:17.000Z</time>
      </trkpt>
      <trkpt lat="43.81184" lon="7.08865">
        <ele>796.20001220703</ele>
        <time>2020-01-11T12:51:19.000Z</time>
      </trkpt>
      <trkpt lat="43.81182" lon="7.08873">
        <ele>796</ele>
        <time>2020-01-11T12:51:20.000Z</time>
      </trkpt>
      <trkpt lat="43.8118" lon="7.08881">
        <ele>795.79998779297</ele>
        <time>2020-01-11T12:51:21.000Z</time>
      </trkpt>
      <trkpt lat="43.81178" lon="7.08898">
        <ele>795.79998779297</ele>
        <time>2020-01-11T12:51:23.000Z</time>
      </trkpt>
      <trkpt lat="43.81179" lon="7.08915">
        <ele>795.40002441406</ele>
        <time>2020-01-11T12:51:25.000Z</time>
      </trkpt>
      <trkpt lat="43.81179" lon="7.08923">
        <ele>795</ele>
        <time>2020-01-11T12:51:26.000Z</time>
      </trkpt>
      <trkpt lat="43.8118" lon="7.0894">
        <ele>794.20001220703</ele>
        <time>2020-01-11T12:51:28.000Z</time>
      </trkpt>
      <trkpt lat="43.8118" lon="7.08947">
        <ele>794</ele>
        <time>2020-01-11T12:51:29.000Z</time>
      </trkpt>
      <trkpt lat="43.81178" lon="7.08955">
        <ele>793.79998779297</ele>
        <time>2020-01-11T12:51:30.000Z</time>
      </trkpt>
      <trkpt lat="43.8118" lon="7.08984">
        <ele>793.40002441406</ele>
        <time>2020-01-11T12:51:34.000Z</time>
      </trkpt>
      <trkpt lat="43.81182" lon="7.08993">
        <ele>793</ele>
        <time>2020-01-11T12:51:35.000Z</time>
      </trkpt>
      <trkpt lat="43.81184" lon="7.09001">
        <ele>792.79998779297</ele>
        <time>2020-01-11T12:51:36.000Z</time>
      </trkpt>
      <trkpt lat="43.81188" lon="7.09016">
        <ele>792.40002441406</ele>
        <time>2020-01-11T12:51:38.000Z</time>
      </trkpt>
      <trkpt lat="43.81191" lon="7.09021">
        <ele>792</ele>
        <time>2020-01-11T12:51:39.000Z</time>
      </trkpt>
      <trkpt lat="43.81196" lon="7.09028">
        <ele>791.79998779297</ele>
        <time>2020-01-11T12:51:40.000Z</time>
      </trkpt>
      <trkpt lat="43.81213" lon="7.09056">
        <ele>790.40002441406</ele>
        <time>2020-01-11T12:51:44.000Z</time>
      </trkpt>
      <trkpt lat="43.81215" lon="7.09075">
        <ele>789.40002441406</ele>
        <time>2020-01-11T12:51:46.000Z</time>
      </trkpt>
      <trkpt lat="43.81215" lon="7.09086">
        <ele>789</ele>
        <time>2020-01-11T12:51:47.000Z</time>
      </trkpt>
      <trkpt lat="43.81221" lon="7.09103">
        <ele>787.59997558594</ele>
        <time>2020-01-11T12:51:49.000Z</time>
      </trkpt>
      <trkpt lat="43.81224" lon="7.09111">
        <ele>787</ele>
        <time>2020-01-11T12:51:50.000Z</time>
      </trkpt>
      <trkpt lat="43.81231" lon="7.09127">
        <ele>786</ele>
        <time>2020-01-11T12:51:52.000Z</time>
      </trkpt>
      <trkpt lat="43.81237" lon="7.09151">
        <ele>785.59997558594</ele>
        <time>2020-01-11T12:51:55.000Z</time>
      </trkpt>
      <trkpt lat="43.81241" lon="7.09174">
        <ele>785.40002441406</ele>
        <time>2020-01-11T12:51:58.000Z</time>
      </trkpt>
      <trkpt lat="43.81239" lon="7.09189">
        <ele>785.40002441406</ele>
        <time>2020-01-11T12:52:00.000Z</time>
      </trkpt>
      <trkpt lat="43.81231" lon="7.09227">
        <ele>785</ele>
        <time>2020-01-11T12:52:05.000Z</time>
      </trkpt>
      <trkpt lat="43.81229" lon="7.09233">
        <ele>784.59997558594</ele>
        <time>2020-01-11T12:52:06.000Z</time>
      </trkpt>
      <trkpt lat="43.81217" lon="7.09248">
        <ele>784.20001220703</ele>
        <time>2020-01-11T12:52:09.000Z</time>
      </trkpt>
      <trkpt lat="43.81212" lon="7.09252">
        <ele>783.79998779297</ele>
        <time>2020-01-11T12:52:10.000Z</time>
      </trkpt>
      <trkpt lat="43.81207" lon="7.09263">
        <ele>783.20001220703</ele>
        <time>2020-01-11T12:52:12.000Z</time>
      </trkpt>
      <trkpt lat="43.81205" lon="7.09272">
        <ele>783</ele>
        <time>2020-01-11T12:52:15.000Z</time>
      </trkpt>
      <trkpt lat="43.81206" lon="7.09277">
        <ele>783.40002441406</ele>
        <time>2020-01-11T12:52:20.000Z</time>
      </trkpt>
      <trkpt lat="43.81206" lon="7.0928">
        <ele>784</ele>
        <time>2020-01-11T12:52:26.000Z</time>
      </trkpt>
      <trkpt lat="43.81206" lon="7.09281">
        <ele>783.59997558594</ele>
        <time>2020-01-11T12:52:31.000Z</time>
      </trkpt>
      <trkpt lat="43.81206" lon="7.09286">
        <ele>783.79998779297</ele>
        <time>2020-01-11T12:52:37.000Z</time>
      </trkpt>
      <trkpt lat="43.81205" lon="7.09286">
        <ele>784.20001220703</ele>
        <time>2020-01-11T12:52:42.000Z</time>
      </trkpt>
      <trkpt lat="43.81206" lon="7.09286">
        <ele>784</ele>
        <time>2020-01-11T12:52:47.000Z</time>
      </trkpt>
      <trkpt lat="43.81207" lon="7.09287">
        <ele>783.79998779297</ele>
        <time>2020-01-11T12:52:57.000Z</time>
      </trkpt>
      <trkpt lat="43.81204" lon="7.09292">
        <ele>783.79998779297</ele>
        <time>2020-01-11T12:53:13.000Z</time>
      </trkpt>
      <trkpt lat="43.81203" lon="7.09295">
        <ele>784.20001220703</ele>
        <time>2020-01-11T12:53:25.000Z</time>
      </trkpt>
      <trkpt lat="43.81202" lon="7.09296">
        <ele>784.40002441406</ele>
        <time>2020-01-11T12:53:37.000Z</time>
      </trkpt>
      <trkpt lat="43.81203" lon="7.09295">
        <ele>784.20001220703</ele>
        <time>2020-01-11T12:53:44.000Z</time>
      </trkpt>
      <trkpt lat="43.81202" lon="7.09295">
        <ele>784.20001220703</ele>
        <time>2020-01-11T12:53:49.000Z</time>
      </trkpt>
      <trkpt lat="43.81202" lon="7.09295">
        <ele>784.59997558594</ele>
        <time>2020-01-11T12:53:58.000Z</time>
      </trkpt>
      <trkpt lat="43.81202" lon="7.09295">
        <ele>784.20001220703</ele>
        <time>2020-01-11T12:54:08.000Z</time>
      </trkpt>
      <trkpt lat="43.81203" lon="7.09298">
        <ele>784.40002441406</ele>
        <time>2020-01-11T12:54:10.000Z</time>
      </trkpt>
      <trkpt lat="43.81204" lon="7.09303">
        <ele>784.40002441406</ele>
        <time>2020-01-11T12:54:12.000Z</time>
      </trkpt>
      <trkpt lat="43.81206" lon="7.09311">
        <ele>784.79998779297</ele>
        <time>2020-01-11T12:54:16.000Z</time>
      </trkpt>
      <trkpt lat="43.81206" lon="7.09314">
        <ele>785</ele>
        <time>2020-01-11T12:54:17.000Z</time>
      </trkpt>
      <trkpt lat="43.81205" lon="7.09319">
        <ele>786</ele>
        <time>2020-01-11T12:54:20.000Z</time>
      </trkpt>
      <trkpt lat="43.81205" lon="7.09318">
        <ele>786.40002441406</ele>
        <time>2020-01-11T12:54:21.000Z</time>
      </trkpt>
      <trkpt lat="43.81205" lon="7.09319">
        <ele>787.20001220703</ele>
        <time>2020-01-11T12:54:23.000Z</time>
      </trkpt>
      <trkpt lat="43.81206" lon="7.09324">
        <ele>787.79998779297</ele>
        <time>2020-01-11T12:54:27.000Z</time>
      </trkpt>
      <trkpt lat="43.81205" lon="7.0933">
        <ele>788.40002441406</ele>
        <time>2020-01-11T12:54:30.000Z</time>
      </trkpt>
      <trkpt lat="43.81204" lon="7.09336">
        <ele>789.59997558594</ele>
        <time>2020-01-11T12:54:33.000Z</time>
      </trkpt>
      <trkpt lat="43.81205" lon="7.09343">
        <ele>790.79998779297</ele>
        <time>2020-01-11T12:54:36.000Z</time>
      </trkpt>
      <trkpt lat="43.81205" lon="7.09354">
        <ele>792</ele>
        <time>2020-01-11T12:54:40.000Z</time>
      </trkpt>
      <trkpt lat="43.81205" lon="7.09362">
        <ele>793.40002441406</ele>
        <time>2020-01-11T12:54:43.000Z</time>
      </trkpt>
      <trkpt lat="43.81205" lon="7.0937">
        <ele>795</ele>
        <time>2020-01-11T12:54:46.000Z</time>
      </trkpt>
      <trkpt lat="43.81205" lon="7.09378">
        <ele>796.59997558594</ele>
        <time>2020-01-11T12:54:49.000Z</time>
      </trkpt>
      <trkpt lat="43.81205" lon="7.09383">
        <ele>797.79998779297</ele>
        <time>2020-01-11T12:54:51.000Z</time>
      </trkpt>
      <trkpt lat="43.81206" lon="7.09388">
        <ele>798.79998779297</ele>
        <time>2020-01-11T12:54:53.000Z</time>
      </trkpt>
      <trkpt lat="43.81207" lon="7.09393">
        <ele>799.79998779297</ele>
        <time>2020-01-11T12:54:55.000Z</time>
      </trkpt>
      <trkpt lat="43.81208" lon="7.09397">
        <ele>800.79998779297</ele>
        <time>2020-01-11T12:54:57.000Z</time>
      </trkpt>
      <trkpt lat="43.81209" lon="7.09401">
        <ele>802</ele>
        <time>2020-01-11T12:54:59.000Z</time>
      </trkpt>
      <trkpt lat="43.8121" lon="7.09405">
        <ele>803.20001220703</ele>
        <time>2020-01-11T12:55:01.000Z</time>
      </trkpt>
      <trkpt lat="43.8121" lon="7.09408">
        <ele>803.59997558594</ele>
        <time>2020-01-11T12:55:02.000Z</time>
      </trkpt>
      <trkpt lat="43.81211" lon="7.09413">
        <ele>804.20001220703</ele>
        <time>2020-01-11T12:55:04.000Z</time>
      </trkpt>
      <trkpt lat="43.81212" lon="7.09419">
        <ele>805.59997558594</ele>
        <time>2020-01-11T12:55:07.000Z</time>
      </trkpt>
      <trkpt lat="43.81214" lon="7.09423">
        <ele>807</ele>
        <time>2020-01-11T12:55:09.000Z</time>
      </trkpt>
      <trkpt lat="43.81215" lon="7.09428">
        <ele>808.20001220703</ele>
        <time>2020-01-11T12:55:11.000Z</time>
      </trkpt>
      <trkpt lat="43.81216" lon="7.09433">
        <ele>809.20001220703</ele>
        <time>2020-01-11T12:55:13.000Z</time>
      </trkpt>
      <trkpt lat="43.81217" lon="7.09437">
        <ele>810.40002441406</ele>
        <time>2020-01-11T12:55:15.000Z</time>
      </trkpt>
      <trkpt lat="43.81218" lon="7.09443">
        <ele>811.79998779297</ele>
        <time>2020-01-11T12:55:18.000Z</time>
      </trkpt>
      <trkpt lat="43.81219" lon="7.09444">
        <ele>812</ele>
        <time>2020-01-11T12:55:19.000Z</time>
      </trkpt>
      <trkpt lat="43.8122" lon="7.09448">
        <ele>813</ele>
        <time>2020-01-11T12:55:21.000Z</time>
      </trkpt>
      <trkpt lat="43.81222" lon="7.09454">
        <ele>814.20001220703</ele>
        <time>2020-01-11T12:55:24.000Z</time>
      </trkpt>
      <trkpt lat="43.81223" lon="7.09456">
        <ele>814.59997558594</ele>
        <time>2020-01-11T12:55:25.000Z</time>
      </trkpt>
      <trkpt lat="43.81224" lon="7.0946">
        <ele>815.20001220703</ele>
        <time>2020-01-11T12:55:27.000Z</time>
      </trkpt>
      <trkpt lat="43.81226" lon="7.09465">
        <ele>816.20001220703</ele>
        <time>2020-01-11T12:55:30.000Z</time>
      </trkpt>
      <trkpt lat="43.81227" lon="7.09467">
        <ele>816.59997558594</ele>
        <time>2020-01-11T12:55:31.000Z</time>
      </trkpt>
      <trkpt lat="43.81229" lon="7.09472">
        <ele>817.40002441406</ele>
        <time>2020-01-11T12:55:33.000Z</time>
      </trkpt>
      <trkpt lat="43.81232" lon="7.09478">
        <ele>818.40002441406</ele>
        <time>2020-01-11T12:55:36.000Z</time>
      </trkpt>
      <trkpt lat="43.81234" lon="7.09482">
        <ele>819.40002441406</ele>
        <time>2020-01-11T12:55:38.000Z</time>
      </trkpt>
      <trkpt lat="43.81235" lon="7.09484">
        <ele>819.79998779297</ele>
        <time>2020-01-11T12:55:39.000Z</time>
      </trkpt>
      <trkpt lat="43.81235" lon="7.09488">
        <ele>820.79998779297</ele>
        <time>2020-01-11T12:55:41.000Z</time>
      </trkpt>
      <trkpt lat="43.81236" lon="7.0949">
        <ele>821.20001220703</ele>
        <time>2020-01-11T12:55:42.000Z</time>
      </trkpt>
      <trkpt lat="43.81238" lon="7.09494">
        <ele>822</ele>
        <time>2020-01-11T12:55:44.000Z</time>
      </trkpt>
      <trkpt lat="43.8124" lon="7.09504">
        <ele>823</ele>
        <time>2020-01-11T12:55:48.000Z</time>
      </trkpt>
      <trkpt lat="43.8124" lon="7.09509">
        <ele>823.79998779297</ele>
        <time>2020-01-11T12:55:50.000Z</time>
      </trkpt>
      <trkpt lat="43.81241" lon="7.09515">
        <ele>824.40002441406</ele>
        <time>2020-01-11T12:55:53.000Z</time>
      </trkpt>
      <trkpt lat="43.81244" lon="7.09522">
        <ele>825.40002441406</ele>
        <time>2020-01-11T12:55:56.000Z</time>
      </trkpt>
      <trkpt lat="43.81251" lon="7.09529">
        <ele>827</ele>
        <time>2020-01-11T12:56:00.000Z</time>
      </trkpt>
      <trkpt lat="43.81252" lon="7.09532">
        <ele>827.40002441406</ele>
        <time>2020-01-11T12:56:01.000Z</time>
      </trkpt>
      <trkpt lat="43.81253" lon="7.09534">
        <ele>828</ele>
        <time>2020-01-11T12:56:02.000Z</time>
      </trkpt>
      <trkpt lat="43.81254" lon="7.09539">
        <ele>829.20001220703</ele>
        <time>2020-01-11T12:56:04.000Z</time>
      </trkpt>
      <trkpt lat="43.81255" lon="7.09545">
        <ele>830.40002441406</ele>
        <time>2020-01-11T12:56:06.000Z</time>
      </trkpt>
      <trkpt lat="43.81257" lon="7.09554">
        <ele>831.79998779297</ele>
        <time>2020-01-11T12:56:09.000Z</time>
      </trkpt>
      <trkpt lat="43.81258" lon="7.09563">
        <ele>833</ele>
        <time>2020-01-11T12:56:12.000Z</time>
      </trkpt>
      <trkpt lat="43.81258" lon="7.09565">
        <ele>833.59997558594</ele>
        <time>2020-01-11T12:56:13.000Z</time>
      </trkpt>
      <trkpt lat="43.81259" lon="7.09571">
        <ele>834.20001220703</ele>
        <time>2020-01-11T12:56:15.000Z</time>
      </trkpt>
      <trkpt lat="43.81261" lon="7.09583">
        <ele>835.40002441406</ele>
        <time>2020-01-11T12:56:19.000Z</time>
      </trkpt>
      <trkpt lat="43.81263" lon="7.09593">
        <ele>836.59997558594</ele>
        <time>2020-01-11T12:56:22.000Z</time>
      </trkpt>
      <trkpt lat="43.81264" lon="7.09603">
        <ele>837.79998779297</ele>
        <time>2020-01-11T12:56:25.000Z</time>
      </trkpt>
      <trkpt lat="43.81266" lon="7.09614">
        <ele>838.79998779297</ele>
        <time>2020-01-11T12:56:28.000Z</time>
      </trkpt>
      <trkpt lat="43.81266" lon="7.09621">
        <ele>839.40002441406</ele>
        <time>2020-01-11T12:56:30.000Z</time>
      </trkpt>
      <trkpt lat="43.81267" lon="7.09627">
        <ele>840.20001220703</ele>
        <time>2020-01-11T12:56:32.000Z</time>
      </trkpt>
      <trkpt lat="43.81268" lon="7.09638">
        <ele>841.20001220703</ele>
        <time>2020-01-11T12:56:35.000Z</time>
      </trkpt>
      <trkpt lat="43.81268" lon="7.09646">
        <ele>841.59997558594</ele>
        <time>2020-01-11T12:56:38.000Z</time>
      </trkpt>
      <trkpt lat="43.81271" lon="7.09653">
        <ele>842.20001220703</ele>
        <time>2020-01-11T12:56:42.000Z</time>
      </trkpt>
      <trkpt lat="43.81273" lon="7.09653">
        <ele>842.20001220703</ele>
        <time>2020-01-11T12:56:43.000Z</time>
      </trkpt>
      <trkpt lat="43.81283" lon="7.09662">
        <ele>843</ele>
        <time>2020-01-11T12:56:48.000Z</time>
      </trkpt>
      <trkpt lat="43.81285" lon="7.09672">
        <ele>843.40002441406</ele>
        <time>2020-01-11T12:56:51.000Z</time>
      </trkpt>
      <trkpt lat="43.81287" lon="7.09683">
        <ele>844</ele>
        <time>2020-01-11T12:56:54.000Z</time>
      </trkpt>
      <trkpt lat="43.81287" lon="7.09689">
        <ele>845</ele>
        <time>2020-01-11T12:56:56.000Z</time>
      </trkpt>
      <trkpt lat="43.81288" lon="7.09694">
        <ele>846.20001220703</ele>
        <time>2020-01-11T12:56:58.000Z</time>
      </trkpt>
      <trkpt lat="43.81289" lon="7.097">
        <ele>847.20001220703</ele>
        <time>2020-01-11T12:57:00.000Z</time>
      </trkpt>
      <trkpt lat="43.8129" lon="7.09703">
        <ele>847.59997558594</ele>
        <time>2020-01-11T12:57:01.000Z</time>
      </trkpt>
      <trkpt lat="43.81294" lon="7.09714">
        <ele>848.59997558594</ele>
        <time>2020-01-11T12:57:05.000Z</time>
      </trkpt>
      <trkpt lat="43.81291" lon="7.09725">
        <ele>849.59997558594</ele>
        <time>2020-01-11T12:57:09.000Z</time>
      </trkpt>
      <trkpt lat="43.81291" lon="7.09728">
        <ele>849.79998779297</ele>
        <time>2020-01-11T12:57:10.000Z</time>
      </trkpt>
      <trkpt lat="43.81291" lon="7.09742">
        <ele>850.79998779297</ele>
        <time>2020-01-11T12:57:15.000Z</time>
      </trkpt>
      <trkpt lat="43.81294" lon="7.09754">
        <ele>852</ele>
        <time>2020-01-11T12:57:19.000Z</time>
      </trkpt>
      <trkpt lat="43.81295" lon="7.09757">
        <ele>852.20001220703</ele>
        <time>2020-01-11T12:57:20.000Z</time>
      </trkpt>
      <trkpt lat="43.81298" lon="7.09766">
        <ele>853</ele>
        <time>2020-01-11T12:57:23.000Z</time>
      </trkpt>
      <trkpt lat="43.81303" lon="7.09774">
        <ele>854</ele>
        <time>2020-01-11T12:57:26.000Z</time>
      </trkpt>
      <trkpt lat="43.81304" lon="7.09777">
        <ele>854.20001220703</ele>
        <time>2020-01-11T12:57:27.000Z</time>
      </trkpt>
      <trkpt lat="43.81307" lon="7.09788">
        <ele>855.20001220703</ele>
        <time>2020-01-11T12:57:31.000Z</time>
      </trkpt>
      <trkpt lat="43.81308" lon="7.09792">
        <ele>855.59997558594</ele>
        <time>2020-01-11T12:57:32.000Z</time>
      </trkpt>
      <trkpt lat="43.81311" lon="7.09807">
        <ele>856.40002441406</ele>
        <time>2020-01-11T12:57:37.000Z</time>
      </trkpt>
      <trkpt lat="43.81313" lon="7.09812">
        <ele>856.79998779297</ele>
        <time>2020-01-11T12:57:39.000Z</time>
      </trkpt>
      <trkpt lat="43.81315" lon="7.09825">
        <ele>857.40002441406</ele>
        <time>2020-01-11T12:57:43.000Z</time>
      </trkpt>
      <trkpt lat="43.81318" lon="7.09837">
        <ele>857.59997558594</ele>
        <time>2020-01-11T12:57:47.000Z</time>
      </trkpt>
      <trkpt lat="43.81321" lon="7.09856">
        <ele>858.59997558594</ele>
        <time>2020-01-11T12:57:52.000Z</time>
      </trkpt>
      <trkpt lat="43.81322" lon="7.0986">
        <ele>858.79998779297</ele>
        <time>2020-01-11T12:57:53.000Z</time>
      </trkpt>
      <trkpt lat="43.81323" lon="7.09871">
        <ele>859.79998779297</ele>
        <time>2020-01-11T12:57:56.000Z</time>
      </trkpt>
      <trkpt lat="43.81322" lon="7.09881">
        <ele>860.79998779297</ele>
        <time>2020-01-11T12:57:59.000Z</time>
      </trkpt>
      <trkpt lat="43.81322" lon="7.09885">
        <ele>861</ele>
        <time>2020-01-11T12:58:00.000Z</time>
      </trkpt>
      <trkpt lat="43.81316" lon="7.09913">
        <ele>861</ele>
        <time>2020-01-11T12:58:06.000Z</time>
      </trkpt>
      <trkpt lat="43.81316" lon="7.09944">
        <ele>861.59997558594</ele>
        <time>2020-01-11T12:58:13.000Z</time>
      </trkpt>
      <trkpt lat="43.81317" lon="7.09951">
        <ele>862.40002441406</ele>
        <time>2020-01-11T12:58:15.000Z</time>
      </trkpt>
      <trkpt lat="43.81319" lon="7.09961">
        <ele>863.79998779297</ele>
        <time>2020-01-11T12:58:18.000Z</time>
      </trkpt>
      <trkpt lat="43.81319" lon="7.09964">
        <ele>864.20001220703</ele>
        <time>2020-01-11T12:58:19.000Z</time>
      </trkpt>
      <trkpt lat="43.8132" lon="7.09969">
        <ele>865</ele>
        <time>2020-01-11T12:58:21.000Z</time>
      </trkpt>
      <trkpt lat="43.81321" lon="7.09974">
        <ele>866.20001220703</ele>
        <time>2020-01-11T12:58:24.000Z</time>
      </trkpt>
      <trkpt lat="43.81321" lon="7.09975">
        <ele>866.59997558594</ele>
        <time>2020-01-11T12:58:25.000Z</time>
      </trkpt>
      <trkpt lat="43.81322" lon="7.09976">
        <ele>867.20001220703</ele>
        <time>2020-01-11T12:58:29.000Z</time>
      </trkpt>
      <trkpt lat="43.81322" lon="7.09976">
        <ele>867.40002441406</ele>
        <time>2020-01-11T12:58:32.000Z</time>
      </trkpt>
      <trkpt lat="43.81324" lon="7.09976">
        <ele>867.40002441406</ele>
        <time>2020-01-11T12:58:43.000Z</time>
      </trkpt>
      <trkpt lat="43.81325" lon="7.09978">
        <ele>867.79998779297</ele>
        <time>2020-01-11T12:59:02.000Z</time>
      </trkpt>
      <trkpt lat="43.81325" lon="7.09978">
        <ele>867.79998779297</ele>
        <time>2020-01-11T12:59:12.000Z</time>
      </trkpt>
      <trkpt lat="43.81325" lon="7.09979">
        <ele>867.79998779297</ele>
        <time>2020-01-11T12:59:21.000Z</time>
      </trkpt>
      <trkpt lat="43.81326" lon="7.09979">
        <ele>867.59997558594</ele>
        <time>2020-01-11T12:59:30.000Z</time>
      </trkpt>
      <trkpt lat="43.81326" lon="7.0998">
        <ele>868</ele>
        <time>2020-01-11T12:59:39.000Z</time>
      </trkpt>
      <trkpt lat="43.81327" lon="7.0998">
        <ele>868</ele>
        <time>2020-01-11T12:59:52.000Z</time>
      </trkpt>
      <trkpt lat="43.81327" lon="7.09979">
        <ele>867.79998779297</ele>
        <time>2020-01-11T13:00:12.000Z</time>
      </trkpt>
      <trkpt lat="43.81327" lon="7.0998">
        <ele>867.79998779297</ele>
        <time>2020-01-11T13:00:28.000Z</time>
      </trkpt>
      <trkpt lat="43.81327" lon="7.09982">
        <ele>867.79998779297</ele>
        <time>2020-01-11T13:00:49.000Z</time>
      </trkpt>
      <trkpt lat="43.81327" lon="7.09983">
        <ele>867</ele>
        <time>2020-01-11T13:00:54.000Z</time>
      </trkpt>
      <trkpt lat="43.81327" lon="7.09983">
        <ele>867.40002441406</ele>
        <time>2020-01-11T13:01:03.000Z</time>
      </trkpt>
      <trkpt lat="43.81328" lon="7.09983">
        <ele>867.40002441406</ele>
        <time>2020-01-11T13:01:16.000Z</time>
      </trkpt>
      <trkpt lat="43.81328" lon="7.09984">
        <ele>867.79998779297</ele>
        <time>2020-01-11T13:01:29.000Z</time>
      </trkpt>
      <trkpt lat="43.81329" lon="7.09986">
        <ele>867.40002441406</ele>
        <time>2020-01-11T13:01:40.000Z</time>
      </trkpt>
      <trkpt lat="43.8133" lon="7.0999">
        <ele>868.20001220703</ele>
        <time>2020-01-11T13:01:45.000Z</time>
      </trkpt>
      <trkpt lat="43.81332" lon="7.09992">
        <ele>868.59997558594</ele>
        <time>2020-01-11T13:01:51.000Z</time>
      </trkpt>
      <trkpt lat="43.81332" lon="7.09991">
        <ele>868.40002441406</ele>
        <time>2020-01-11T13:01:55.000Z</time>
      </trkpt>
      <trkpt lat="43.81332" lon="7.09991">
        <ele>868.59997558594</ele>
        <time>2020-01-11T13:02:05.000Z</time>
      </trkpt>
      <trkpt lat="43.81333" lon="7.09991">
        <ele>868.59997558594</ele>
        <time>2020-01-11T13:02:11.000Z</time>
      </trkpt>
      <trkpt lat="43.81332" lon="7.09991">
        <ele>868.59997558594</ele>
        <time>2020-01-11T13:02:19.000Z</time>
      </trkpt>
      <trkpt lat="43.81332" lon="7.0999">
        <ele>868.40002441406</ele>
        <time>2020-01-11T13:02:31.000Z</time>
      </trkpt>
      <trkpt lat="43.81332" lon="7.0999">
        <ele>868.40002441406</ele>
        <time>2020-01-11T13:02:40.000Z</time>
      </trkpt>
      <trkpt lat="43.81332" lon="7.09989">
        <ele>868.20001220703</ele>
        <time>2020-01-11T13:02:50.000Z</time>
      </trkpt>
      <trkpt lat="43.81332" lon="7.09989">
        <ele>868.40002441406</ele>
        <time>2020-01-11T13:03:02.000Z</time>
      </trkpt>
      <trkpt lat="43.81333" lon="7.09989">
        <ele>868.20001220703</ele>
        <time>2020-01-11T13:03:12.000Z</time>
      </trkpt>
      <trkpt lat="43.81333" lon="7.09989">
        <ele>868.40002441406</ele>
        <time>2020-01-11T13:03:21.000Z</time>
      </trkpt>
      <trkpt lat="43.81333" lon="7.09989">
        <ele>868.40002441406</ele>
        <time>2020-01-11T13:03:28.000Z</time>
      </trkpt>
      <trkpt lat="43.81333" lon="7.09989">
        <ele>868.20001220703</ele>
        <time>2020-01-11T13:03:40.000Z</time>
      </trkpt>
      <trkpt lat="43.81333" lon="7.09989">
        <ele>868.40002441406</ele>
        <time>2020-01-11T13:03:52.000Z</time>
      </trkpt>
      <trkpt lat="43.81332" lon="7.09988">
        <ele>868.20001220703</ele>
        <time>2020-01-11T13:04:02.000Z</time>
      </trkpt>
      <trkpt lat="43.81333" lon="7.09988">
        <ele>868.20001220703</ele>
        <time>2020-01-11T13:04:18.000Z</time>
      </trkpt>
      <trkpt lat="43.81332" lon="7.09988">
        <ele>868.20001220703</ele>
        <time>2020-01-11T13:04:27.000Z</time>
      </trkpt>
      <trkpt lat="43.81332" lon="7.09988">
        <ele>868.40002441406</ele>
        <time>2020-01-11T13:04:38.000Z</time>
      </trkpt>
      <trkpt lat="43.81332" lon="7.09988">
        <ele>868.40002441406</ele>
        <time>2020-01-11T13:04:45.000Z</time>
      </trkpt>
      <trkpt lat="43.81332" lon="7.09988">
        <ele>868.40002441406</ele>
        <time>2020-01-11T13:04:54.000Z</time>
      </trkpt>
      <trkpt lat="43.81331" lon="7.09989">
        <ele>868.20001220703</ele>
        <time>2020-01-11T13:05:11.000Z</time>
      </trkpt>
      <trkpt lat="43.81331" lon="7.09989">
        <ele>868.40002441406</ele>
        <time>2020-01-11T13:05:29.000Z</time>
      </trkpt>
      <trkpt lat="43.81331" lon="7.0999">
        <ele>868.40002441406</ele>
        <time>2020-01-11T13:05:36.000Z</time>
      </trkpt>
      <trkpt lat="43.81332" lon="7.09989">
        <ele>868.40002441406</ele>
        <time>2020-01-11T13:05:42.000Z</time>
      </trkpt>
      <trkpt lat="43.81332" lon="7.09989">
        <ele>868.20001220703</ele>
        <time>2020-01-11T13:05:51.000Z</time>
      </trkpt>
      <trkpt lat="43.81333" lon="7.09989">
        <ele>868</ele>
        <time>2020-01-11T13:06:16.000Z</time>
      </trkpt>
      <trkpt lat="43.81333" lon="7.0999">
        <ele>868</ele>
        <time>2020-01-11T13:06:38.000Z</time>
      </trkpt>
      <trkpt lat="43.81333" lon="7.09988">
        <ele>868.40002441406</ele>
        <time>2020-01-11T13:06:52.000Z</time>
      </trkpt>
      <trkpt lat="43.81333" lon="7.09988">
        <ele>867.79998779297</ele>
        <time>2020-01-11T13:07:03.000Z</time>
      </trkpt>
      <trkpt lat="43.81333" lon="7.09988">
        <ele>867.59997558594</ele>
        <time>2020-01-11T13:07:20.000Z</time>
      </trkpt>
      <trkpt lat="43.81333" lon="7.09987">
        <ele>868</ele>
        <time>2020-01-11T13:07:40.000Z</time>
      </trkpt>
      <trkpt lat="43.81332" lon="7.09986">
        <ele>868.20001220703</ele>
        <time>2020-01-11T13:07:59.000Z</time>
      </trkpt>
      <trkpt lat="43.81331" lon="7.09984">
        <ele>868</ele>
        <time>2020-01-11T13:08:12.000Z</time>
      </trkpt>
      <trkpt lat="43.81332" lon="7.09982">
        <ele>868.20001220703</ele>
        <time>2020-01-11T13:08:14.000Z</time>
      </trkpt>
      <trkpt lat="43.81332" lon="7.09982">
        <ele>868</ele>
        <time>2020-01-11T13:08:24.000Z</time>
      </trkpt>
      <trkpt lat="43.81333" lon="7.09986">
        <ele>867.79998779297</ele>
        <time>2020-01-11T13:08:49.000Z</time>
      </trkpt>
      <trkpt lat="43.81333" lon="7.09987">
        <ele>868</ele>
        <time>2020-01-11T13:09:06.000Z</time>
      </trkpt>
      <trkpt lat="43.81333" lon="7.09987">
        <ele>868.40002441406</ele>
        <time>2020-01-11T13:09:15.000Z</time>
      </trkpt>
      <trkpt lat="43.81334" lon="7.09988">
        <ele>868.20001220703</ele>
        <time>2020-01-11T13:09:22.000Z</time>
      </trkpt>
      <trkpt lat="43.81333" lon="7.09987">
        <ele>868</ele>
        <time>2020-01-11T13:09:39.000Z</time>
      </trkpt>
      <trkpt lat="43.81333" lon="7.09987">
        <ele>868.20001220703</ele>
        <time>2020-01-11T13:09:51.000Z</time>
      </trkpt>
      <trkpt lat="43.81333" lon="7.09987">
        <ele>868</ele>
        <time>2020-01-11T13:10:05.000Z</time>
      </trkpt>
      <trkpt lat="43.81333" lon="7.09987">
        <ele>868.20001220703</ele>
        <time>2020-01-11T13:10:13.000Z</time>
      </trkpt>
      <trkpt lat="43.81333" lon="7.09988">
        <ele>867.79998779297</ele>
        <time>2020-01-11T13:10:22.000Z</time>
      </trkpt>
      <trkpt lat="43.81332" lon="7.09987">
        <ele>868</ele>
        <time>2020-01-11T13:10:32.000Z</time>
      </trkpt>
      <trkpt lat="43.81332" lon="7.09987">
        <ele>868.20001220703</ele>
        <time>2020-01-11T13:10:41.000Z</time>
      </trkpt>
      <trkpt lat="43.81332" lon="7.09987">
        <ele>868.20001220703</ele>
        <time>2020-01-11T13:10:55.000Z</time>
      </trkpt>
      <trkpt lat="43.81332" lon="7.09988">
        <ele>868</ele>
        <time>2020-01-11T13:11:09.000Z</time>
      </trkpt>
      <trkpt lat="43.81331" lon="7.09988">
        <ele>867.79998779297</ele>
        <time>2020-01-11T13:11:27.000Z</time>
      </trkpt>
      <trkpt lat="43.81331" lon="7.09988">
        <ele>868</ele>
        <time>2020-01-11T13:11:37.000Z</time>
      </trkpt>
      <trkpt lat="43.8133" lon="7.09988">
        <ele>868</ele>
        <time>2020-01-11T13:11:55.000Z</time>
      </trkpt>
      <trkpt lat="43.81327" lon="7.09992">
        <ele>868</ele>
        <time>2020-01-11T13:12:19.000Z</time>
      </trkpt>
      <trkpt lat="43.81327" lon="7.09994">
        <ele>868</ele>
        <time>2020-01-11T13:12:44.000Z</time>
      </trkpt>
      <trkpt lat="43.81327" lon="7.09994">
        <ele>868.40002441406</ele>
        <time>2020-01-11T13:12:57.000Z</time>
      </trkpt>
      <trkpt lat="43.81329" lon="7.09993">
        <ele>868.40002441406</ele>
        <time>2020-01-11T13:13:20.000Z</time>
      </trkpt>
      <trkpt lat="43.8133" lon="7.09993">
        <ele>868.40002441406</ele>
        <time>2020-01-11T13:13:32.000Z</time>
      </trkpt>
      <trkpt lat="43.8133" lon="7.09992">
        <ele>868.40002441406</ele>
        <time>2020-01-11T13:13:36.000Z</time>
      </trkpt>
      <trkpt lat="43.8133" lon="7.09991">
        <ele>868.20001220703</ele>
        <time>2020-01-11T13:13:50.000Z</time>
      </trkpt>
      <trkpt lat="43.81331" lon="7.0999">
        <ele>868</ele>
        <time>2020-01-11T13:14:05.000Z</time>
      </trkpt>
      <trkpt lat="43.81331" lon="7.09989">
        <ele>868.20001220703</ele>
        <time>2020-01-11T13:14:15.000Z</time>
      </trkpt>
      <trkpt lat="43.81332" lon="7.09989">
        <ele>868</ele>
        <time>2020-01-11T13:14:43.000Z</time>
      </trkpt>
      <trkpt lat="43.81332" lon="7.09989">
        <ele>868</ele>
        <time>2020-01-11T13:15:03.000Z</time>
      </trkpt>
      <trkpt lat="43.81331" lon="7.0999">
        <ele>868.40002441406</ele>
        <time>2020-01-11T13:15:13.000Z</time>
      </trkpt>
      <trkpt lat="43.81331" lon="7.09991">
        <ele>868.20001220703</ele>
        <time>2020-01-11T13:15:21.000Z</time>
      </trkpt>
      <trkpt lat="43.81331" lon="7.09991">
        <ele>868</ele>
        <time>2020-01-11T13:15:38.000Z</time>
      </trkpt>
      <trkpt lat="43.81331" lon="7.09991">
        <ele>868</ele>
        <time>2020-01-11T13:16:00.000Z</time>
      </trkpt>
      <trkpt lat="43.81332" lon="7.09989">
        <ele>868</ele>
        <time>2020-01-11T13:16:18.000Z</time>
      </trkpt>
      <trkpt lat="43.81332" lon="7.09989">
        <ele>868.40002441406</ele>
        <time>2020-01-11T13:16:28.000Z</time>
      </trkpt>
      <trkpt lat="43.81332" lon="7.09989">
        <ele>868.59997558594</ele>
        <time>2020-01-11T13:16:42.000Z</time>
      </trkpt>
      <trkpt lat="43.81332" lon="7.09988">
        <ele>868.40002441406</ele>
        <time>2020-01-11T13:16:51.000Z</time>
      </trkpt>
      <trkpt lat="43.81332" lon="7.09987">
        <ele>868.40002441406</ele>
        <time>2020-01-11T13:17:12.000Z</time>
      </trkpt>
      <trkpt lat="43.81332" lon="7.09988">
        <ele>868.40002441406</ele>
        <time>2020-01-11T13:17:32.000Z</time>
      </trkpt>
      <trkpt lat="43.81332" lon="7.09989">
        <ele>867.79998779297</ele>
        <time>2020-01-11T13:17:42.000Z</time>
      </trkpt>
      <trkpt lat="43.81331" lon="7.09991">
        <ele>867.79998779297</ele>
        <time>2020-01-11T13:18:03.000Z</time>
      </trkpt>
      <trkpt lat="43.81332" lon="7.09991">
        <ele>868</ele>
        <time>2020-01-11T13:18:30.000Z</time>
      </trkpt>
      <trkpt lat="43.81332" lon="7.0999">
        <ele>868</ele>
        <time>2020-01-11T13:18:55.000Z</time>
      </trkpt>
      <trkpt lat="43.81332" lon="7.09989">
        <ele>868</ele>
        <time>2020-01-11T13:19:17.000Z</time>
      </trkpt>
      <trkpt lat="43.81332" lon="7.09988">
        <ele>868.20001220703</ele>
        <time>2020-01-11T13:19:26.000Z</time>
      </trkpt>
      <trkpt lat="43.81332" lon="7.09987">
        <ele>868</ele>
        <time>2020-01-11T13:19:38.000Z</time>
      </trkpt>
      <trkpt lat="43.81332" lon="7.09987">
        <ele>868</ele>
        <time>2020-01-11T13:20:05.000Z</time>
      </trkpt>
      <trkpt lat="43.8133" lon="7.09986">
        <ele>868.40002441406</ele>
        <time>2020-01-11T13:20:32.000Z</time>
      </trkpt>
      <trkpt lat="43.81329" lon="7.09985">
        <ele>868</ele>
        <time>2020-01-11T13:20:48.000Z</time>
      </trkpt>
      <trkpt lat="43.81328" lon="7.09985">
        <ele>867.79998779297</ele>
        <time>2020-01-11T13:21:06.000Z</time>
      </trkpt>
      <trkpt lat="43.81328" lon="7.09985">
        <ele>868</ele>
        <time>2020-01-11T13:21:27.000Z</time>
      </trkpt>
      <trkpt lat="43.81328" lon="7.09985">
        <ele>867.79998779297</ele>
        <time>2020-01-11T13:21:37.000Z</time>
      </trkpt>
      <trkpt lat="43.81328" lon="7.09986">
        <ele>868.59997558594</ele>
        <time>2020-01-11T13:21:45.000Z</time>
      </trkpt>
      <trkpt lat="43.81329" lon="7.09986">
        <ele>868.40002441406</ele>
        <time>2020-01-11T13:21:58.000Z</time>
      </trkpt>
      <trkpt lat="43.8133" lon="7.09987">
        <ele>868.40002441406</ele>
        <time>2020-01-11T13:22:08.000Z</time>
      </trkpt>
      <trkpt lat="43.8133" lon="7.09987">
        <ele>868.40002441406</ele>
        <time>2020-01-11T13:22:17.000Z</time>
      </trkpt>
      <trkpt lat="43.8133" lon="7.09987">
        <ele>868</ele>
        <time>2020-01-11T13:22:28.000Z</time>
      </trkpt>
      <trkpt lat="43.81331" lon="7.09986">
        <ele>868.20001220703</ele>
        <time>2020-01-11T13:22:34.000Z</time>
      </trkpt>
      <trkpt lat="43.8133" lon="7.09986">
        <ele>868</ele>
        <time>2020-01-11T13:22:45.000Z</time>
      </trkpt>
      <trkpt lat="43.81331" lon="7.09986">
        <ele>868</ele>
        <time>2020-01-11T13:22:55.000Z</time>
      </trkpt>
      <trkpt lat="43.81331" lon="7.09987">
        <ele>868.40002441406</ele>
        <time>2020-01-11T13:23:07.000Z</time>
      </trkpt>
      <trkpt lat="43.81331" lon="7.09987">
        <ele>868.40002441406</ele>
        <time>2020-01-11T13:23:20.000Z</time>
      </trkpt>
      <trkpt lat="43.81332" lon="7.09987">
        <ele>868.40002441406</ele>
        <time>2020-01-11T13:23:33.000Z</time>
      </trkpt>
      <trkpt lat="43.81332" lon="7.09987">
        <ele>868.59997558594</ele>
        <time>2020-01-11T13:23:43.000Z</time>
      </trkpt>
      <trkpt lat="43.81332" lon="7.09987">
        <ele>868.40002441406</ele>
        <time>2020-01-11T13:23:56.000Z</time>
      </trkpt>
      <trkpt lat="43.81332" lon="7.09988">
        <ele>868.40002441406</ele>
        <time>2020-01-11T13:24:06.000Z</time>
      </trkpt>
      <trkpt lat="43.81332" lon="7.09988">
        <ele>868.20001220703</ele>
        <time>2020-01-11T13:24:24.000Z</time>
      </trkpt>
      <trkpt lat="43.81332" lon="7.09988">
        <ele>868.40002441406</ele>
        <time>2020-01-11T13:24:38.000Z</time>
      </trkpt>
      <trkpt lat="43.81332" lon="7.09988">
        <ele>868</ele>
        <time>2020-01-11T13:24:53.000Z</time>
      </trkpt>
      <trkpt lat="43.81332" lon="7.09988">
        <ele>867.79998779297</ele>
        <time>2020-01-11T13:25:10.000Z</time>
      </trkpt>
      <trkpt lat="43.81333" lon="7.09987">
        <ele>868.59997558594</ele>
        <time>2020-01-11T13:25:29.000Z</time>
      </trkpt>
      <trkpt lat="43.81333" lon="7.09987">
        <ele>868</ele>
        <time>2020-01-11T13:25:45.000Z</time>
      </trkpt>
      <trkpt lat="43.81333" lon="7.09987">
        <ele>868.40002441406</ele>
        <time>2020-01-11T13:26:01.000Z</time>
      </trkpt>
      <trkpt lat="43.81332" lon="7.09986">
        <ele>868.20001220703</ele>
        <time>2020-01-11T13:26:29.000Z</time>
      </trkpt>
      <trkpt lat="43.81331" lon="7.09986">
        <ele>868.20001220703</ele>
        <time>2020-01-11T13:26:55.000Z</time>
      </trkpt>
      <trkpt lat="43.8133" lon="7.09986">
        <ele>868.40002441406</ele>
        <time>2020-01-11T13:27:25.000Z</time>
      </trkpt>
      <trkpt lat="43.8133" lon="7.09986">
        <ele>868.40002441406</ele>
        <time>2020-01-11T13:27:40.000Z</time>
      </trkpt>
      <trkpt lat="43.81331" lon="7.09987">
        <ele>868.20001220703</ele>
        <time>2020-01-11T13:28:10.000Z</time>
      </trkpt>
      <trkpt lat="43.81331" lon="7.09987">
        <ele>868</ele>
        <time>2020-01-11T13:28:40.000Z</time>
      </trkpt>
      <trkpt lat="43.81332" lon="7.09988">
        <ele>868.40002441406</ele>
        <time>2020-01-11T13:28:52.000Z</time>
      </trkpt>
      <trkpt lat="43.81332" lon="7.09988">
        <ele>868.20001220703</ele>
        <time>2020-01-11T13:29:03.000Z</time>
      </trkpt>
      <trkpt lat="43.81332" lon="7.09988">
        <ele>868</ele>
        <time>2020-01-11T13:29:11.000Z</time>
      </trkpt>
      <trkpt lat="43.81332" lon="7.09988">
        <ele>868.20001220703</ele>
        <time>2020-01-11T13:29:33.000Z</time>
      </trkpt>
      <trkpt lat="43.81332" lon="7.09988">
        <ele>868.40002441406</ele>
        <time>2020-01-11T13:29:43.000Z</time>
      </trkpt>
      <trkpt lat="43.8133" lon="7.09987">
        <ele>867.79998779297</ele>
        <time>2020-01-11T13:30:09.000Z</time>
      </trkpt>
      <trkpt lat="43.8133" lon="7.0999">
        <ele>868.40002441406</ele>
        <time>2020-01-11T13:30:15.000Z</time>
      </trkpt>
      <trkpt lat="43.8133" lon="7.0999">
        <ele>868.40002441406</ele>
        <time>2020-01-11T13:30:29.000Z</time>
      </trkpt>
      <trkpt lat="43.81331" lon="7.09989">
        <ele>868.59997558594</ele>
        <time>2020-01-11T13:30:40.000Z</time>
      </trkpt>
      <trkpt lat="43.81331" lon="7.09992">
        <ele>868.40002441406</ele>
        <time>2020-01-11T13:30:46.000Z</time>
      </trkpt>
      <trkpt lat="43.81328" lon="7.09992">
        <ele>868.40002441406</ele>
        <time>2020-01-11T13:30:51.000Z</time>
      </trkpt>
      <trkpt lat="43.81329" lon="7.09992">
        <ele>868.40002441406</ele>
        <time>2020-01-11T13:30:52.000Z</time>
      </trkpt>
      <trkpt lat="43.81328" lon="7.09991">
        <ele>868.40002441406</ele>
        <time>2020-01-11T13:30:58.000Z</time>
      </trkpt>
      <trkpt lat="43.81328" lon="7.09989">
        <ele>868.40002441406</ele>
        <time>2020-01-11T13:31:03.000Z</time>
      </trkpt>
      <trkpt lat="43.81329" lon="7.09989">
        <ele>868.59997558594</ele>
        <time>2020-01-11T13:31:09.000Z</time>
      </trkpt>
      <trkpt lat="43.8133" lon="7.09988">
        <ele>868.40002441406</ele>
        <time>2020-01-11T13:31:15.000Z</time>
      </trkpt>
      <trkpt lat="43.81331" lon="7.09987">
        <ele>868.59997558594</ele>
        <time>2020-01-11T13:31:19.000Z</time>
      </trkpt>
      <trkpt lat="43.81331" lon="7.09983">
        <ele>868.40002441406</ele>
        <time>2020-01-11T13:31:25.000Z</time>
      </trkpt>
      <trkpt lat="43.81333" lon="7.09986">
        <ele>868.59997558594</ele>
        <time>2020-01-11T13:31:39.000Z</time>
      </trkpt>
      <trkpt lat="43.81333" lon="7.09987">
        <ele>868.79998779297</ele>
        <time>2020-01-11T13:31:53.000Z</time>
      </trkpt>
      <trkpt lat="43.81332" lon="7.09988">
        <ele>868.79998779297</ele>
        <time>2020-01-11T13:32:18.000Z</time>
      </trkpt>
      <trkpt lat="43.81333" lon="7.09985">
        <ele>869</ele>
        <time>2020-01-11T13:32:31.000Z</time>
      </trkpt>
      <trkpt lat="43.81333" lon="7.09984">
        <ele>869</ele>
        <time>2020-01-11T13:32:33.000Z</time>
      </trkpt>
      <trkpt lat="43.81331" lon="7.09981">
        <ele>869</ele>
        <time>2020-01-11T13:32:40.000Z</time>
      </trkpt>
      <trkpt lat="43.81332" lon="7.09981">
        <ele>868.79998779297</ele>
        <time>2020-01-11T13:32:45.000Z</time>
      </trkpt>
      <trkpt lat="43.81331" lon="7.09986">
        <ele>868.79998779297</ele>
        <time>2020-01-11T13:32:52.000Z</time>
      </trkpt>
      <trkpt lat="43.8133" lon="7.09988">
        <ele>868.40002441406</ele>
        <time>2020-01-11T13:33:04.000Z</time>
      </trkpt>
      <trkpt lat="43.8133" lon="7.09988">
        <ele>868.79998779297</ele>
        <time>2020-01-11T13:33:10.000Z</time>
      </trkpt>
      <trkpt lat="43.81332" lon="7.09989">
        <ele>868.79998779297</ele>
        <time>2020-01-11T13:33:32.000Z</time>
      </trkpt>
      <trkpt lat="43.81332" lon="7.09988">
        <ele>868.59997558594</ele>
        <time>2020-01-11T13:33:58.000Z</time>
      </trkpt>
      <trkpt lat="43.81332" lon="7.09987">
        <ele>868.59997558594</ele>
        <time>2020-01-11T13:34:24.000Z</time>
      </trkpt>
      <trkpt lat="43.81332" lon="7.09987">
        <ele>868.79998779297</ele>
        <time>2020-01-11T13:34:43.000Z</time>
      </trkpt>
      <trkpt lat="43.81332" lon="7.09988">
        <ele>869</ele>
        <time>2020-01-11T13:34:56.000Z</time>
      </trkpt>
      <trkpt lat="43.81331" lon="7.09987">
        <ele>868.59997558594</ele>
        <time>2020-01-11T13:35:03.000Z</time>
      </trkpt>
      <trkpt lat="43.8133" lon="7.09986">
        <ele>868.59997558594</ele>
        <time>2020-01-11T13:35:20.000Z</time>
      </trkpt>
      <trkpt lat="43.8133" lon="7.09986">
        <ele>868.79998779297</ele>
        <time>2020-01-11T13:35:34.000Z</time>
      </trkpt>
      <trkpt lat="43.8133" lon="7.09985">
        <ele>868.79998779297</ele>
        <time>2020-01-11T13:35:54.000Z</time>
      </trkpt>
      <trkpt lat="43.8133" lon="7.09985">
        <ele>868.79998779297</ele>
        <time>2020-01-11T13:36:05.000Z</time>
      </trkpt>
      <trkpt lat="43.8133" lon="7.09985">
        <ele>868.40002441406</ele>
        <time>2020-01-11T13:36:17.000Z</time>
      </trkpt>
      <trkpt lat="43.81329" lon="7.09984">
        <ele>868.59997558594</ele>
        <time>2020-01-11T13:36:41.000Z</time>
      </trkpt>
      <trkpt lat="43.81329" lon="7.09985">
        <ele>869</ele>
        <time>2020-01-11T13:36:54.000Z</time>
      </trkpt>
      <trkpt lat="43.8133" lon="7.09985">
        <ele>868.79998779297</ele>
        <time>2020-01-11T13:37:14.000Z</time>
      </trkpt>
      <trkpt lat="43.81331" lon="7.09985">
        <ele>869</ele>
        <time>2020-01-11T13:37:35.000Z</time>
      </trkpt>
      <trkpt lat="43.81331" lon="7.09984">
        <ele>869</ele>
        <time>2020-01-11T13:37:48.000Z</time>
      </trkpt>
      <trkpt lat="43.81331" lon="7.09983">
        <ele>868.79998779297</ele>
        <time>2020-01-11T13:37:55.000Z</time>
      </trkpt>
      <trkpt lat="43.8133" lon="7.09982">
        <ele>868.79998779297</ele>
        <time>2020-01-11T13:38:00.000Z</time>
      </trkpt>
      <trkpt lat="43.8133" lon="7.09981">
        <ele>868.79998779297</ele>
        <time>2020-01-11T13:38:10.000Z</time>
      </trkpt>
      <trkpt lat="43.8133" lon="7.09981">
        <ele>868.79998779297</ele>
        <time>2020-01-11T13:38:18.000Z</time>
      </trkpt>
      <trkpt lat="43.81331" lon="7.09982">
        <ele>868.79998779297</ele>
        <time>2020-01-11T13:38:28.000Z</time>
      </trkpt>
      <trkpt lat="43.81331" lon="7.09983">
        <ele>868.79998779297</ele>
        <time>2020-01-11T13:38:36.000Z</time>
      </trkpt>
      <trkpt lat="43.8133" lon="7.09983">
        <ele>868.79998779297</ele>
        <time>2020-01-11T13:38:43.000Z</time>
      </trkpt>
      <trkpt lat="43.81331" lon="7.09984">
        <ele>868.79998779297</ele>
        <time>2020-01-11T13:38:52.000Z</time>
      </trkpt>
      <trkpt lat="43.81331" lon="7.09985">
        <ele>869</ele>
        <time>2020-01-11T13:38:59.000Z</time>
      </trkpt>
      <trkpt lat="43.81332" lon="7.09985">
        <ele>868.79998779297</ele>
        <time>2020-01-11T13:39:09.000Z</time>
      </trkpt>
      <trkpt lat="43.81333" lon="7.09986">
        <ele>868.79998779297</ele>
        <time>2020-01-11T13:39:20.000Z</time>
      </trkpt>
      <trkpt lat="43.81333" lon="7.09986">
        <ele>868.79998779297</ele>
        <time>2020-01-11T13:39:32.000Z</time>
      </trkpt>
      <trkpt lat="43.81333" lon="7.09986">
        <ele>868.79998779297</ele>
        <time>2020-01-11T13:39:46.000Z</time>
      </trkpt>
      <trkpt lat="43.81333" lon="7.09986">
        <ele>868.79998779297</ele>
        <time>2020-01-11T13:39:55.000Z</time>
      </trkpt>
      <trkpt lat="43.81333" lon="7.09986">
        <ele>868.59997558594</ele>
        <time>2020-01-11T13:40:03.000Z</time>
      </trkpt>
      <trkpt lat="43.81333" lon="7.09986">
        <ele>868.79998779297</ele>
        <time>2020-01-11T13:40:12.000Z</time>
      </trkpt>
      <trkpt lat="43.81333" lon="7.09986">
        <ele>868.59997558594</ele>
        <time>2020-01-11T13:40:22.000Z</time>
      </trkpt>
      <trkpt lat="43.81334" lon="7.09986">
        <ele>868.40002441406</ele>
        <time>2020-01-11T13:40:35.000Z</time>
      </trkpt>
      <trkpt lat="43.81334" lon="7.09986">
        <ele>868.59997558594</ele>
        <time>2020-01-11T13:40:49.000Z</time>
      </trkpt>
      <trkpt lat="43.81334" lon="7.09986">
        <ele>868.79998779297</ele>
        <time>2020-01-11T13:41:07.000Z</time>
      </trkpt>
      <trkpt lat="43.81334" lon="7.09986">
        <ele>868.59997558594</ele>
        <time>2020-01-11T13:41:18.000Z</time>
      </trkpt>
      <trkpt lat="43.81334" lon="7.09987">
        <ele>868.79998779297</ele>
        <time>2020-01-11T13:41:38.000Z</time>
      </trkpt>
      <trkpt lat="43.81334" lon="7.09987">
        <ele>869</ele>
        <time>2020-01-11T13:41:43.000Z</time>
      </trkpt>
      <trkpt lat="43.81335" lon="7.09988">
        <ele>869</ele>
        <time>2020-01-11T13:41:55.000Z</time>
      </trkpt>
      <trkpt lat="43.81334" lon="7.09987">
        <ele>868.79998779297</ele>
        <time>2020-01-11T13:42:04.000Z</time>
      </trkpt>
      <trkpt lat="43.81334" lon="7.09987">
        <ele>869</ele>
        <time>2020-01-11T13:42:18.000Z</time>
      </trkpt>
      <trkpt lat="43.81334" lon="7.09987">
        <ele>869.20001220703</ele>
        <time>2020-01-11T13:42:26.000Z</time>
      </trkpt>
      <trkpt lat="43.81334" lon="7.09986">
        <ele>869.20001220703</ele>
        <time>2020-01-11T13:42:28.000Z</time>
      </trkpt>
      <trkpt lat="43.81334" lon="7.09986">
        <ele>869.59997558594</ele>
        <time>2020-01-11T13:42:33.000Z</time>
      </trkpt>
      <trkpt lat="43.81334" lon="7.09985">
        <ele>869.59997558594</ele>
        <time>2020-01-11T13:42:41.000Z</time>
      </trkpt>
      <trkpt lat="43.81334" lon="7.09985">
        <ele>869.59997558594</ele>
        <time>2020-01-11T13:42:47.000Z</time>
      </trkpt>
      <trkpt lat="43.81334" lon="7.09985">
        <ele>870</ele>
        <time>2020-01-11T13:42:54.000Z</time>
      </trkpt>
      <trkpt lat="43.81334" lon="7.09982">
        <ele>869.79998779297</ele>
        <time>2020-01-11T13:43:00.000Z</time>
      </trkpt>
      <trkpt lat="43.81334" lon="7.09983">
        <ele>869.79998779297</ele>
        <time>2020-01-11T13:43:09.000Z</time>
      </trkpt>
      <trkpt lat="43.81334" lon="7.09987">
        <ele>870.20001220703</ele>
        <time>2020-01-11T13:43:20.000Z</time>
      </trkpt>
      <trkpt lat="43.81334" lon="7.09986">
        <ele>869.59997558594</ele>
        <time>2020-01-11T13:43:25.000Z</time>
      </trkpt>
      <trkpt lat="43.81333" lon="7.09986">
        <ele>870.20001220703</ele>
        <time>2020-01-11T13:43:31.000Z</time>
      </trkpt>
      <trkpt lat="43.81334" lon="7.09987">
        <ele>869.79998779297</ele>
        <time>2020-01-11T13:43:39.000Z</time>
      </trkpt>
      <trkpt lat="43.81333" lon="7.09987">
        <ele>869.40002441406</ele>
        <time>2020-01-11T13:43:45.000Z</time>
      </trkpt>
      <trkpt lat="43.81333" lon="7.09987">
        <ele>869.79998779297</ele>
        <time>2020-01-11T13:43:52.000Z</time>
      </trkpt>
      <trkpt lat="43.81333" lon="7.09987">
        <ele>869.59997558594</ele>
        <time>2020-01-11T13:44:01.000Z</time>
      </trkpt>
      <trkpt lat="43.81333" lon="7.09986">
        <ele>869.59997558594</ele>
        <time>2020-01-11T13:44:07.000Z</time>
      </trkpt>
      <trkpt lat="43.81334" lon="7.09987">
        <ele>869.40002441406</ele>
        <time>2020-01-11T13:44:17.000Z</time>
      </trkpt>
      <trkpt lat="43.81335" lon="7.09987">
        <ele>869.40002441406</ele>
        <time>2020-01-11T13:44:24.000Z</time>
      </trkpt>
      <trkpt lat="43.81335" lon="7.09985">
        <ele>869.59997558594</ele>
        <time>2020-01-11T13:44:34.000Z</time>
      </trkpt>
      <trkpt lat="43.81334" lon="7.09985">
        <ele>869.79998779297</ele>
        <time>2020-01-11T13:44:40.000Z</time>
      </trkpt>
      <trkpt lat="43.81333" lon="7.09983">
        <ele>869.20001220703</ele>
        <time>2020-01-11T13:44:46.000Z</time>
      </trkpt>
      <trkpt lat="43.81332" lon="7.09981">
        <ele>869.20001220703</ele>
        <time>2020-01-11T13:44:52.000Z</time>
      </trkpt>
      <trkpt lat="43.81331" lon="7.09979">
        <ele>869.59997558594</ele>
        <time>2020-01-11T13:45:05.000Z</time>
      </trkpt>
      <trkpt lat="43.81329" lon="7.09976">
        <ele>868.59997558594</ele>
        <time>2020-01-11T13:45:13.000Z</time>
      </trkpt>
      <trkpt lat="43.81329" lon="7.09976">
        <ele>868.20001220703</ele>
        <time>2020-01-11T13:45:15.000Z</time>
      </trkpt>
      <trkpt lat="43.81329" lon="7.09976">
        <ele>868.59997558594</ele>
        <time>2020-01-11T13:45:24.000Z</time>
      </trkpt>
      <trkpt lat="43.81329" lon="7.09976">
        <ele>868.40002441406</ele>
        <time>2020-01-11T13:45:34.000Z</time>
      </trkpt>
      <trkpt lat="43.81329" lon="7.09978">
        <ele>868.59997558594</ele>
        <time>2020-01-11T13:45:40.000Z</time>
      </trkpt>
      <trkpt lat="43.81328" lon="7.09981">
        <ele>868.59997558594</ele>
        <time>2020-01-11T13:45:47.000Z</time>
      </trkpt>
      <trkpt lat="43.81328" lon="7.09984">
        <ele>868.59997558594</ele>
        <time>2020-01-11T13:45:48.000Z</time>
      </trkpt>
      <trkpt lat="43.81329" lon="7.09997">
        <ele>868.20001220703</ele>
        <time>2020-01-11T13:45:52.000Z</time>
      </trkpt>
      <trkpt lat="43.81337" lon="7.10013">
        <ele>868</ele>
        <time>2020-01-11T13:45:57.000Z</time>
      </trkpt>
      <trkpt lat="43.81343" lon="7.10026">
        <ele>869.40002441406</ele>
        <time>2020-01-11T13:46:02.000Z</time>
      </trkpt>
      <trkpt lat="43.81345" lon="7.10031">
        <ele>869.79998779297</ele>
        <time>2020-01-11T13:46:04.000Z</time>
      </trkpt>
      <trkpt lat="43.81347" lon="7.1004">
        <ele>870.59997558594</ele>
        <time>2020-01-11T13:46:07.000Z</time>
      </trkpt>
      <trkpt lat="43.81349" lon="7.10049">
        <ele>871.20001220703</ele>
        <time>2020-01-11T13:46:10.000Z</time>
      </trkpt>
      <trkpt lat="43.81356" lon="7.1007">
        <ele>871</ele>
        <time>2020-01-11T13:46:16.000Z</time>
      </trkpt>
      <trkpt lat="43.8136" lon="7.10081">
        <ele>870.59997558594</ele>
        <time>2020-01-11T13:46:18.000Z</time>
      </trkpt>
      <trkpt lat="43.81368" lon="7.10096">
        <ele>869.79998779297</ele>
        <time>2020-01-11T13:46:21.000Z</time>
      </trkpt>
      <trkpt lat="43.8137" lon="7.10101">
        <ele>869.40002441406</ele>
        <time>2020-01-11T13:46:22.000Z</time>
      </trkpt>
      <trkpt lat="43.81377" lon="7.10117">
        <ele>869.40002441406</ele>
        <time>2020-01-11T13:46:26.000Z</time>
      </trkpt>
      <trkpt lat="43.81389" lon="7.10147">
        <ele>869</ele>
        <time>2020-01-11T13:46:33.000Z</time>
      </trkpt>
      <trkpt lat="43.81395" lon="7.10157">
        <ele>868.40002441406</ele>
        <time>2020-01-11T13:46:36.000Z</time>
      </trkpt>
      <trkpt lat="43.81401" lon="7.10166">
        <ele>868.40002441406</ele>
        <time>2020-01-11T13:46:39.000Z</time>
      </trkpt>
      <trkpt lat="43.81416" lon="7.10182">
        <ele>869.59997558594</ele>
        <time>2020-01-11T13:46:45.000Z</time>
      </trkpt>
      <trkpt lat="43.81419" lon="7.10184">
        <ele>869.59997558594</ele>
        <time>2020-01-11T13:46:46.000Z</time>
      </trkpt>
      <trkpt lat="43.81441" lon="7.10206">
        <ele>869.20001220703</ele>
        <time>2020-01-11T13:46:54.000Z</time>
      </trkpt>
      <trkpt lat="43.81458" lon="7.10223">
        <ele>869.40002441406</ele>
        <time>2020-01-11T13:47:01.000Z</time>
      </trkpt>
      <trkpt lat="43.81472" lon="7.10246">
        <ele>869.79998779297</ele>
        <time>2020-01-11T13:47:09.000Z</time>
      </trkpt>
      <trkpt lat="43.8148" lon="7.10259">
        <ele>869.20001220703</ele>
        <time>2020-01-11T13:47:12.000Z</time>
      </trkpt>
      <trkpt lat="43.81486" lon="7.1027">
        <ele>868.40002441406</ele>
        <time>2020-01-11T13:47:14.000Z</time>
      </trkpt>
      <trkpt lat="43.8149" lon="7.10286">
        <ele>867</ele>
        <time>2020-01-11T13:47:16.000Z</time>
      </trkpt>
      <trkpt lat="43.81495" lon="7.10299">
        <ele>865.40002441406</ele>
        <time>2020-01-11T13:47:18.000Z</time>
      </trkpt>
      <trkpt lat="43.81497" lon="7.10305">
        <ele>864.20001220703</ele>
        <time>2020-01-11T13:47:19.000Z</time>
      </trkpt>
      <trkpt lat="43.81501" lon="7.10313">
        <ele>862.79998779297</ele>
        <time>2020-01-11T13:47:21.000Z</time>
      </trkpt>
      <trkpt lat="43.81504" lon="7.10316">
        <ele>862</ele>
        <time>2020-01-11T13:47:22.000Z</time>
      </trkpt>
      <trkpt lat="43.8151" lon="7.10317">
        <ele>861</ele>
        <time>2020-01-11T13:47:24.000Z</time>
      </trkpt>
      <trkpt lat="43.81514" lon="7.10316">
        <ele>860.59997558594</ele>
        <time>2020-01-11T13:47:25.000Z</time>
      </trkpt>
      <trkpt lat="43.81519" lon="7.10315">
        <ele>860</ele>
        <time>2020-01-11T13:47:26.000Z</time>
      </trkpt>
      <trkpt lat="43.81523" lon="7.10315">
        <ele>859.79998779297</ele>
        <time>2020-01-11T13:47:27.000Z</time>
      </trkpt>
      <trkpt lat="43.81532" lon="7.10324">
        <ele>859.40002441406</ele>
        <time>2020-01-11T13:47:30.000Z</time>
      </trkpt>
      <trkpt lat="43.81534" lon="7.10338">
        <ele>859</ele>
        <time>2020-01-11T13:47:33.000Z</time>
      </trkpt>
      <trkpt lat="43.81535" lon="7.10343">
        <ele>859</ele>
        <time>2020-01-11T13:47:34.000Z</time>
      </trkpt>
      <trkpt lat="43.81538" lon="7.10348">
        <ele>859</ele>
        <time>2020-01-11T13:47:35.000Z</time>
      </trkpt>
      <trkpt lat="43.81545" lon="7.10355">
        <ele>858.59997558594</ele>
        <time>2020-01-11T13:47:37.000Z</time>
      </trkpt>
      <trkpt lat="43.81552" lon="7.10363">
        <ele>857.59997558594</ele>
        <time>2020-01-11T13:47:39.000Z</time>
      </trkpt>
      <trkpt lat="43.81554" lon="7.10377">
        <ele>856.59997558594</ele>
        <time>2020-01-11T13:47:41.000Z</time>
      </trkpt>
      <trkpt lat="43.81554" lon="7.10383">
        <ele>856.20001220703</ele>
        <time>2020-01-11T13:47:42.000Z</time>
      </trkpt>
      <trkpt lat="43.81553" lon="7.10403">
        <ele>855.40002441406</ele>
        <time>2020-01-11T13:47:45.000Z</time>
      </trkpt>
      <trkpt lat="43.81554" lon="7.10408">
        <ele>855.40002441406</ele>
        <time>2020-01-11T13:47:46.000Z</time>
      </trkpt>
      <trkpt lat="43.81557" lon="7.10413">
        <ele>855</ele>
        <time>2020-01-11T13:47:47.000Z</time>
      </trkpt>
      <trkpt lat="43.81563" lon="7.10424">
        <ele>854.40002441406</ele>
        <time>2020-01-11T13:47:49.000Z</time>
      </trkpt>
      <trkpt lat="43.81567" lon="7.10434">
        <ele>853.20001220703</ele>
        <time>2020-01-11T13:47:51.000Z</time>
      </trkpt>
      <trkpt lat="43.81573" lon="7.10445">
        <ele>852.40002441406</ele>
        <time>2020-01-11T13:47:53.000Z</time>
      </trkpt>
      <trkpt lat="43.81577" lon="7.10451">
        <ele>851.40002441406</ele>
        <time>2020-01-11T13:47:54.000Z</time>
      </trkpt>
      <trkpt lat="43.8158" lon="7.10458">
        <ele>850.20001220703</ele>
        <time>2020-01-11T13:47:55.000Z</time>
      </trkpt>
      <trkpt lat="43.8159" lon="7.10472">
        <ele>848</ele>
        <time>2020-01-11T13:47:57.000Z</time>
      </trkpt>
      <trkpt lat="43.81593" lon="7.10477">
        <ele>846.79998779297</ele>
        <time>2020-01-11T13:47:58.000Z</time>
      </trkpt>
      <trkpt lat="43.81599" lon="7.10484">
        <ele>845.79998779297</ele>
        <time>2020-01-11T13:48:00.000Z</time>
      </trkpt>
      <trkpt lat="43.81601" lon="7.10485">
        <ele>845</ele>
        <time>2020-01-11T13:48:01.000Z</time>
      </trkpt>
      <trkpt lat="43.81603" lon="7.10486">
        <ele>844.40002441406</ele>
        <time>2020-01-11T13:48:02.000Z</time>
      </trkpt>
      <trkpt lat="43.81603" lon="7.10488">
        <ele>844</ele>
        <time>2020-01-11T13:48:03.000Z</time>
      </trkpt>
      <trkpt lat="43.81605" lon="7.1049">
        <ele>843.20001220703</ele>
        <time>2020-01-11T13:48:05.000Z</time>
      </trkpt>
      <trkpt lat="43.81604" lon="7.10489">
        <ele>843.20001220703</ele>
        <time>2020-01-11T13:48:06.000Z</time>
      </trkpt>
      <trkpt lat="43.81605" lon="7.10491">
        <ele>842.79998779297</ele>
        <time>2020-01-11T13:48:11.000Z</time>
      </trkpt>
      <trkpt lat="43.81608" lon="7.10494">
        <ele>843</ele>
        <time>2020-01-11T13:48:17.000Z</time>
      </trkpt>
      <trkpt lat="43.81609" lon="7.10495">
        <ele>842.59997558594</ele>
        <time>2020-01-11T13:48:25.000Z</time>
      </trkpt>
      <trkpt lat="43.8161" lon="7.10498">
        <ele>842.20001220703</ele>
        <time>2020-01-11T13:48:32.000Z</time>
      </trkpt>
      <trkpt lat="43.81611" lon="7.10499">
        <ele>842</ele>
        <time>2020-01-11T13:48:33.000Z</time>
      </trkpt>
      <trkpt lat="43.81614" lon="7.10501">
        <ele>841</ele>
        <time>2020-01-11T13:48:37.000Z</time>
      </trkpt>
      <trkpt lat="43.81614" lon="7.10502">
        <ele>841</ele>
        <time>2020-01-11T13:48:38.000Z</time>
      </trkpt>
      <trkpt lat="43.81618" lon="7.10507">
        <ele>840.20001220703</ele>
        <time>2020-01-11T13:48:44.000Z</time>
      </trkpt>
      <trkpt lat="43.81618" lon="7.10507">
        <ele>840</ele>
        <time>2020-01-11T13:48:45.000Z</time>
      </trkpt>
      <trkpt lat="43.81622" lon="7.10509">
        <ele>839</ele>
        <time>2020-01-11T13:48:49.000Z</time>
      </trkpt>
      <trkpt lat="43.81623" lon="7.10509">
        <ele>838.79998779297</ele>
        <time>2020-01-11T13:48:50.000Z</time>
      </trkpt>
      <trkpt lat="43.81624" lon="7.10509">
        <ele>838.59997558594</ele>
        <time>2020-01-11T13:48:51.000Z</time>
      </trkpt>
      <trkpt lat="43.81627" lon="7.10511">
        <ele>837.79998779297</ele>
        <time>2020-01-11T13:48:54.000Z</time>
      </trkpt>
      <trkpt lat="43.81627" lon="7.10512">
        <ele>837.59997558594</ele>
        <time>2020-01-11T13:48:55.000Z</time>
      </trkpt>
      <trkpt lat="43.81629" lon="7.10515">
        <ele>836.79998779297</ele>
        <time>2020-01-11T13:49:00.000Z</time>
      </trkpt>
      <trkpt lat="43.81631" lon="7.10517">
        <ele>836</ele>
        <time>2020-01-11T13:49:03.000Z</time>
      </trkpt>
      <trkpt lat="43.81632" lon="7.10518">
        <ele>835.59997558594</ele>
        <time>2020-01-11T13:49:05.000Z</time>
      </trkpt>
      <trkpt lat="43.81634" lon="7.1052">
        <ele>834.40002441406</ele>
        <time>2020-01-11T13:49:08.000Z</time>
      </trkpt>
      <trkpt lat="43.81635" lon="7.10522">
        <ele>833.79998779297</ele>
        <time>2020-01-11T13:49:10.000Z</time>
      </trkpt>
      <trkpt lat="43.81637" lon="7.10522">
        <ele>833.40002441406</ele>
        <time>2020-01-11T13:49:12.000Z</time>
      </trkpt>
      <trkpt lat="43.81639" lon="7.10522">
        <ele>832.59997558594</ele>
        <time>2020-01-11T13:49:15.000Z</time>
      </trkpt>
      <trkpt lat="43.8164" lon="7.10522">
        <ele>832.40002441406</ele>
        <time>2020-01-11T13:49:16.000Z</time>
      </trkpt>
      <trkpt lat="43.81643" lon="7.10527">
        <ele>831.59997558594</ele>
        <time>2020-01-11T13:49:22.000Z</time>
      </trkpt>
      <trkpt lat="43.81644" lon="7.10528">
        <ele>831.40002441406</ele>
        <time>2020-01-11T13:49:23.000Z</time>
      </trkpt>
      <trkpt lat="43.81648" lon="7.10528">
        <ele>830.20001220703</ele>
        <time>2020-01-11T13:49:28.000Z</time>
      </trkpt>
      <trkpt lat="43.81649" lon="7.10529">
        <ele>830.20001220703</ele>
        <time>2020-01-11T13:49:29.000Z</time>
      </trkpt>
      <trkpt lat="43.81654" lon="7.10528">
        <ele>830.59997558594</ele>
        <time>2020-01-11T13:49:36.000Z</time>
      </trkpt>
      <trkpt lat="43.81657" lon="7.10528">
        <ele>831.40002441406</ele>
        <time>2020-01-11T13:49:40.000Z</time>
      </trkpt>
      <trkpt lat="43.81659" lon="7.10528">
        <ele>831.20001220703</ele>
        <time>2020-01-11T13:49:44.000Z</time>
      </trkpt>
      <trkpt lat="43.81664" lon="7.10528">
        <ele>831.59997558594</ele>
        <time>2020-01-11T13:49:52.000Z</time>
      </trkpt>
      <trkpt lat="43.81667" lon="7.10527">
        <ele>832.40002441406</ele>
        <time>2020-01-11T13:49:56.000Z</time>
      </trkpt>
      <trkpt lat="43.81671" lon="7.10528">
        <ele>832.79998779297</ele>
        <time>2020-01-11T13:50:00.000Z</time>
      </trkpt>
      <trkpt lat="43.81673" lon="7.10528">
        <ele>833.40002441406</ele>
        <time>2020-01-11T13:50:05.000Z</time>
      </trkpt>
      <trkpt lat="43.81675" lon="7.10527">
        <ele>833.79998779297</ele>
        <time>2020-01-11T13:50:07.000Z</time>
      </trkpt>
      <trkpt lat="43.81676" lon="7.10524">
        <ele>834.59997558594</ele>
        <time>2020-01-11T13:50:11.000Z</time>
      </trkpt>
      <trkpt lat="43.81677" lon="7.10521">
        <ele>835.20001220703</ele>
        <time>2020-01-11T13:50:15.000Z</time>
      </trkpt>
      <trkpt lat="43.81678" lon="7.1052">
        <ele>835.59997558594</ele>
        <time>2020-01-11T13:50:17.000Z</time>
      </trkpt>
      <trkpt lat="43.8168" lon="7.10523">
        <ele>836.79998779297</ele>
        <time>2020-01-11T13:50:22.000Z</time>
      </trkpt>
      <trkpt lat="43.81682" lon="7.10528">
        <ele>838</ele>
        <time>2020-01-11T13:50:27.000Z</time>
      </trkpt>
      <trkpt lat="43.81684" lon="7.10532">
        <ele>838.79998779297</ele>
        <time>2020-01-11T13:50:33.000Z</time>
      </trkpt>
      <trkpt lat="43.81685" lon="7.10533">
        <ele>839</ele>
        <time>2020-01-11T13:50:34.000Z</time>
      </trkpt>
      <trkpt lat="43.81687" lon="7.1054">
        <ele>839</ele>
        <time>2020-01-11T13:50:38.000Z</time>
      </trkpt>
      <trkpt lat="43.81692" lon="7.10562">
        <ele>839.20001220703</ele>
        <time>2020-01-11T13:50:44.000Z</time>
      </trkpt>
      <trkpt lat="43.817" lon="7.10594">
        <ele>839.20001220703</ele>
        <time>2020-01-11T13:50:52.000Z</time>
      </trkpt>
      <trkpt lat="43.81704" lon="7.10617">
        <ele>839</ele>
        <time>2020-01-11T13:50:57.000Z</time>
      </trkpt>
      <trkpt lat="43.81711" lon="7.10648">
        <ele>839.20001220703</ele>
        <time>2020-01-11T13:51:04.000Z</time>
      </trkpt>
      <trkpt lat="43.81714" lon="7.10659">
        <ele>839.20001220703</ele>
        <time>2020-01-11T13:51:08.000Z</time>
      </trkpt>
      <trkpt lat="43.81715" lon="7.10659">
        <ele>839</ele>
        <time>2020-01-11T13:51:09.000Z</time>
      </trkpt>
      <trkpt lat="43.81715" lon="7.10667">
        <ele>838</ele>
        <time>2020-01-11T13:51:12.000Z</time>
      </trkpt>
      <trkpt lat="43.81712" lon="7.10668">
        <ele>837.40002441406</ele>
        <time>2020-01-11T13:51:13.000Z</time>
      </trkpt>
      <trkpt lat="43.81709" lon="7.10674">
        <ele>836.40002441406</ele>
        <time>2020-01-11T13:51:15.000Z</time>
      </trkpt>
      <trkpt lat="43.81709" lon="7.10677">
        <ele>835.59997558594</ele>
        <time>2020-01-11T13:51:16.000Z</time>
      </trkpt>
      <trkpt lat="43.8171" lon="7.10681">
        <ele>835.20001220703</ele>
        <time>2020-01-11T13:51:17.000Z</time>
      </trkpt>
      <trkpt lat="43.8171" lon="7.10691">
        <ele>834.40002441406</ele>
        <time>2020-01-11T13:51:19.000Z</time>
      </trkpt>
      <trkpt lat="43.81711" lon="7.10697">
        <ele>834</ele>
        <time>2020-01-11T13:51:20.000Z</time>
      </trkpt>
      <trkpt lat="43.81709" lon="7.10728">
        <ele>834.40002441406</ele>
        <time>2020-01-11T13:51:26.000Z</time>
      </trkpt>
      <trkpt lat="43.8171" lon="7.10748">
        <ele>834.79998779297</ele>
        <time>2020-01-11T13:51:31.000Z</time>
      </trkpt>
      <trkpt lat="43.81713" lon="7.10756">
        <ele>835</ele>
        <time>2020-01-11T13:51:33.000Z</time>
      </trkpt>
      <trkpt lat="43.81719" lon="7.10767">
        <ele>835.40002441406</ele>
        <time>2020-01-11T13:51:36.000Z</time>
      </trkpt>
      <trkpt lat="43.81732" lon="7.10794">
        <ele>836.20001220703</ele>
        <time>2020-01-11T13:51:43.000Z</time>
      </trkpt>
      <trkpt lat="43.81733" lon="7.10798">
        <ele>836.40002441406</ele>
        <time>2020-01-11T13:51:44.000Z</time>
      </trkpt>
      <trkpt lat="43.81736" lon="7.10807">
        <ele>837.40002441406</ele>
        <time>2020-01-11T13:51:47.000Z</time>
      </trkpt>
      <trkpt lat="43.81738" lon="7.10814">
        <ele>838.59997558594</ele>
        <time>2020-01-11T13:51:50.000Z</time>
      </trkpt>
      <trkpt lat="43.8174" lon="7.10818">
        <ele>839</ele>
        <time>2020-01-11T13:51:51.000Z</time>
      </trkpt>
      <trkpt lat="43.81743" lon="7.10827">
        <ele>839.79998779297</ele>
        <time>2020-01-11T13:51:54.000Z</time>
      </trkpt>
      <trkpt lat="43.81747" lon="7.1084">
        <ele>840.59997558594</ele>
        <time>2020-01-11T13:51:58.000Z</time>
      </trkpt>
      <trkpt lat="43.81749" lon="7.10843">
        <ele>840.79998779297</ele>
        <time>2020-01-11T13:51:59.000Z</time>
      </trkpt>
      <trkpt lat="43.81754" lon="7.10862">
        <ele>841.79998779297</ele>
        <time>2020-01-11T13:52:05.000Z</time>
      </trkpt>
      <trkpt lat="43.81756" lon="7.10865">
        <ele>841.79998779297</ele>
        <time>2020-01-11T13:52:06.000Z</time>
      </trkpt>
      <trkpt lat="43.81768" lon="7.10881">
        <ele>841.59997558594</ele>
        <time>2020-01-11T13:52:12.000Z</time>
      </trkpt>
      <trkpt lat="43.81775" lon="7.10893">
        <ele>840.79998779297</ele>
        <time>2020-01-11T13:52:15.000Z</time>
      </trkpt>
      <trkpt lat="43.81779" lon="7.10897">
        <ele>840.20001220703</ele>
        <time>2020-01-11T13:52:16.000Z</time>
      </trkpt>
      <trkpt lat="43.81781" lon="7.10902">
        <ele>839.79998779297</ele>
        <time>2020-01-11T13:52:17.000Z</time>
      </trkpt>
      <trkpt lat="43.81783" lon="7.10907">
        <ele>839.20001220703</ele>
        <time>2020-01-11T13:52:18.000Z</time>
      </trkpt>
      <trkpt lat="43.81793" lon="7.10925">
        <ele>838</ele>
        <time>2020-01-11T13:52:21.000Z</time>
      </trkpt>
      <trkpt lat="43.818" lon="7.10941">
        <ele>837.40002441406</ele>
        <time>2020-01-11T13:52:23.000Z</time>
      </trkpt>
      <trkpt lat="43.81803" lon="7.1095">
        <ele>836.79998779297</ele>
        <time>2020-01-11T13:52:24.000Z</time>
      </trkpt>
      <trkpt lat="43.81807" lon="7.10961">
        <ele>836</ele>
        <time>2020-01-11T13:52:25.000Z</time>
      </trkpt>
      <trkpt lat="43.8181" lon="7.10971">
        <ele>834.79998779297</ele>
        <time>2020-01-11T13:52:26.000Z</time>
      </trkpt>
      <trkpt lat="43.81814" lon="7.10982">
        <ele>833.40002441406</ele>
        <time>2020-01-11T13:52:27.000Z</time>
      </trkpt>
      <trkpt lat="43.81816" lon="7.10992">
        <ele>832</ele>
        <time>2020-01-11T13:52:28.000Z</time>
      </trkpt>
      <trkpt lat="43.81818" lon="7.11003">
        <ele>831</ele>
        <time>2020-01-11T13:52:29.000Z</time>
      </trkpt>
      <trkpt lat="43.81818" lon="7.11014">
        <ele>829.79998779297</ele>
        <time>2020-01-11T13:52:30.000Z</time>
      </trkpt>
      <trkpt lat="43.81818" lon="7.1103">
        <ele>828</ele>
        <time>2020-01-11T13:52:32.000Z</time>
      </trkpt>
      <trkpt lat="43.81818" lon="7.11038">
        <ele>827.20001220703</ele>
        <time>2020-01-11T13:52:33.000Z</time>
      </trkpt>
      <trkpt lat="43.81818" lon="7.11045">
        <ele>826.59997558594</ele>
        <time>2020-01-11T13:52:34.000Z</time>
      </trkpt>
      <trkpt lat="43.81817" lon="7.11067">
        <ele>825.40002441406</ele>
        <time>2020-01-11T13:52:37.000Z</time>
      </trkpt>
      <trkpt lat="43.81818" lon="7.11073">
        <ele>825.20001220703</ele>
        <time>2020-01-11T13:52:38.000Z</time>
      </trkpt>
      <trkpt lat="43.81823" lon="7.11094">
        <ele>824.79998779297</ele>
        <time>2020-01-11T13:52:42.000Z</time>
      </trkpt>
      <trkpt lat="43.81825" lon="7.11108">
        <ele>824.20001220703</ele>
        <time>2020-01-11T13:52:44.000Z</time>
      </trkpt>
      <trkpt lat="43.81826" lon="7.11117">
        <ele>824</ele>
        <time>2020-01-11T13:52:45.000Z</time>
      </trkpt>
      <trkpt lat="43.81826" lon="7.11125">
        <ele>822.79998779297</ele>
        <time>2020-01-11T13:52:46.000Z</time>
      </trkpt>
      <trkpt lat="43.81826" lon="7.11135">
        <ele>821.59997558594</ele>
        <time>2020-01-11T13:52:47.000Z</time>
      </trkpt>
      <trkpt lat="43.81826" lon="7.11144">
        <ele>820.40002441406</ele>
        <time>2020-01-11T13:52:48.000Z</time>
      </trkpt>
      <trkpt lat="43.81827" lon="7.11162">
        <ele>818.59997558594</ele>
        <time>2020-01-11T13:52:50.000Z</time>
      </trkpt>
      <trkpt lat="43.81827" lon="7.11171">
        <ele>817.79998779297</ele>
        <time>2020-01-11T13:52:51.000Z</time>
      </trkpt>
      <trkpt lat="43.81827" lon="7.11179">
        <ele>817.40002441406</ele>
        <time>2020-01-11T13:52:52.000Z</time>
      </trkpt>
      <trkpt lat="43.8183" lon="7.11196">
        <ele>816</ele>
        <time>2020-01-11T13:52:55.000Z</time>
      </trkpt>
      <trkpt lat="43.81833" lon="7.112">
        <ele>815</ele>
        <time>2020-01-11T13:52:57.000Z</time>
      </trkpt>
      <trkpt lat="43.81834" lon="7.11201">
        <ele>814</ele>
        <time>2020-01-11T13:52:58.000Z</time>
      </trkpt>
      <trkpt lat="43.81833" lon="7.112">
        <ele>813.79998779297</ele>
        <time>2020-01-11T13:52:59.000Z</time>
      </trkpt>
      <trkpt lat="43.81834" lon="7.11201">
        <ele>813</ele>
        <time>2020-01-11T13:53:05.000Z</time>
      </trkpt>
      <trkpt lat="43.81835" lon="7.11202">
        <ele>813</ele>
        <time>2020-01-11T13:53:08.000Z</time>
      </trkpt>
      <trkpt lat="43.81838" lon="7.11204">
        <ele>813</ele>
        <time>2020-01-11T13:53:10.000Z</time>
      </trkpt>
      <trkpt lat="43.81853" lon="7.11211">
        <ele>812.79998779297</ele>
        <time>2020-01-11T13:53:16.000Z</time>
      </trkpt>
      <trkpt lat="43.81854" lon="7.11214">
        <ele>812.79998779297</ele>
        <time>2020-01-11T13:53:17.000Z</time>
      </trkpt>
      <trkpt lat="43.81853" lon="7.11214">
        <ele>811.79998779297</ele>
        <time>2020-01-11T13:53:19.000Z</time>
      </trkpt>
      <trkpt lat="43.81854" lon="7.11214">
        <ele>810.40002441406</ele>
        <time>2020-01-11T13:53:22.000Z</time>
      </trkpt>
      <trkpt lat="43.81854" lon="7.11217">
        <ele>810.20001220703</ele>
        <time>2020-01-11T13:53:24.000Z</time>
      </trkpt>
      <trkpt lat="43.81853" lon="7.11218">
        <ele>810.20001220703</ele>
        <time>2020-01-11T13:53:26.000Z</time>
      </trkpt>
      <trkpt lat="43.81853" lon="7.11218">
        <ele>809.79998779297</ele>
        <time>2020-01-11T13:53:33.000Z</time>
      </trkpt>
      <trkpt lat="43.81852" lon="7.11218">
        <ele>809.59997558594</ele>
        <time>2020-01-11T13:53:34.000Z</time>
      </trkpt>
      <trkpt lat="43.81852" lon="7.11217">
        <ele>809.59997558594</ele>
        <time>2020-01-11T13:53:39.000Z</time>
      </trkpt>
      <trkpt lat="43.81852" lon="7.11217">
        <ele>809.59997558594</ele>
        <time>2020-01-11T13:53:53.000Z</time>
      </trkpt>
      <trkpt lat="43.81852" lon="7.11217">
        <ele>809.40002441406</ele>
        <time>2020-01-11T13:53:58.000Z</time>
      </trkpt>
      <trkpt lat="43.81852" lon="7.11216">
        <ele>809.79998779297</ele>
        <time>2020-01-11T13:54:13.000Z</time>
      </trkpt>
      <trkpt lat="43.81853" lon="7.11217">
        <ele>809.59997558594</ele>
        <time>2020-01-11T13:54:22.000Z</time>
      </trkpt>
      <trkpt lat="43.81853" lon="7.11217">
        <ele>810</ele>
        <time>2020-01-11T13:54:34.000Z</time>
      </trkpt>
      <trkpt lat="43.81854" lon="7.11218">
        <ele>809.59997558594</ele>
        <time>2020-01-11T13:54:45.000Z</time>
      </trkpt>
      <trkpt lat="43.81853" lon="7.11216">
        <ele>809.40002441406</ele>
        <time>2020-01-11T13:54:51.000Z</time>
      </trkpt>
      <trkpt lat="43.81854" lon="7.11216">
        <ele>809.40002441406</ele>
        <time>2020-01-11T13:54:55.000Z</time>
      </trkpt>
      <trkpt lat="43.81854" lon="7.11217">
        <ele>809.79998779297</ele>
        <time>2020-01-11T13:55:01.000Z</time>
      </trkpt>
      <trkpt lat="43.81853" lon="7.11219">
        <ele>809.79998779297</ele>
        <time>2020-01-11T13:55:15.000Z</time>
      </trkpt>
      <trkpt lat="43.81849" lon="7.11222">
        <ele>809.79998779297</ele>
        <time>2020-01-11T13:55:17.000Z</time>
      </trkpt>
      <trkpt lat="43.81841" lon="7.11228">
        <ele>809.59997558594</ele>
        <time>2020-01-11T13:55:20.000Z</time>
      </trkpt>
      <trkpt lat="43.81837" lon="7.1123">
        <ele>809.40002441406</ele>
        <time>2020-01-11T13:55:21.000Z</time>
      </trkpt>
      <trkpt lat="43.81833" lon="7.1123">
        <ele>809.20001220703</ele>
        <time>2020-01-11T13:55:22.000Z</time>
      </trkpt>
      <trkpt lat="43.81826" lon="7.11224">
        <ele>808</ele>
        <time>2020-01-11T13:55:24.000Z</time>
      </trkpt>
      <trkpt lat="43.81822" lon="7.11219">
        <ele>807.40002441406</ele>
        <time>2020-01-11T13:55:25.000Z</time>
      </trkpt>
      <trkpt lat="43.81819" lon="7.11215">
        <ele>806.79998779297</ele>
        <time>2020-01-11T13:55:26.000Z</time>
      </trkpt>
      <trkpt lat="43.81817" lon="7.1121">
        <ele>805.79998779297</ele>
        <time>2020-01-11T13:55:28.000Z</time>
      </trkpt>
      <trkpt lat="43.81816" lon="7.11211">
        <ele>805.40002441406</ele>
        <time>2020-01-11T13:55:29.000Z</time>
      </trkpt>
      <trkpt lat="43.81816" lon="7.11218">
        <ele>804.59997558594</ele>
        <time>2020-01-11T13:55:31.000Z</time>
      </trkpt>
      <trkpt lat="43.81817" lon="7.11222">
        <ele>804.20001220703</ele>
        <time>2020-01-11T13:55:32.000Z</time>
      </trkpt>
      <trkpt lat="43.81821" lon="7.1124">
        <ele>803.40002441406</ele>
        <time>2020-01-11T13:55:36.000Z</time>
      </trkpt>
      <trkpt lat="43.81821" lon="7.11246">
        <ele>802.79998779297</ele>
        <time>2020-01-11T13:55:37.000Z</time>
      </trkpt>
      <trkpt lat="43.81822" lon="7.11255">
        <ele>802</ele>
        <time>2020-01-11T13:55:39.000Z</time>
      </trkpt>
      <trkpt lat="43.81824" lon="7.11264">
        <ele>800.40002441406</ele>
        <time>2020-01-11T13:55:41.000Z</time>
      </trkpt>
      <trkpt lat="43.81824" lon="7.11271">
        <ele>799.40002441406</ele>
        <time>2020-01-11T13:55:42.000Z</time>
      </trkpt>
      <trkpt lat="43.81824" lon="7.11277">
        <ele>798.79998779297</ele>
        <time>2020-01-11T13:55:43.000Z</time>
      </trkpt>
      <trkpt lat="43.81825" lon="7.11282">
        <ele>797.79998779297</ele>
        <time>2020-01-11T13:55:44.000Z</time>
      </trkpt>
      <trkpt lat="43.81826" lon="7.11289">
        <ele>796.59997558594</ele>
        <time>2020-01-11T13:55:45.000Z</time>
      </trkpt>
      <trkpt lat="43.81827" lon="7.11302">
        <ele>795</ele>
        <time>2020-01-11T13:55:47.000Z</time>
      </trkpt>
      <trkpt lat="43.81829" lon="7.11309">
        <ele>793.79998779297</ele>
        <time>2020-01-11T13:55:48.000Z</time>
      </trkpt>
      <trkpt lat="43.8183" lon="7.11321">
        <ele>791.79998779297</ele>
        <time>2020-01-11T13:55:50.000Z</time>
      </trkpt>
      <trkpt lat="43.81834" lon="7.11323">
        <ele>789.79998779297</ele>
        <time>2020-01-11T13:55:52.000Z</time>
      </trkpt>
      <trkpt lat="43.81836" lon="7.11321">
        <ele>789.40002441406</ele>
        <time>2020-01-11T13:55:53.000Z</time>
      </trkpt>
      <trkpt lat="43.81848" lon="7.11312">
        <ele>788.59997558594</ele>
        <time>2020-01-11T13:55:56.000Z</time>
      </trkpt>
      <trkpt lat="43.81857" lon="7.11313">
        <ele>787.40002441406</ele>
        <time>2020-01-11T13:55:58.000Z</time>
      </trkpt>
      <trkpt lat="43.81865" lon="7.1132">
        <ele>785.59997558594</ele>
        <time>2020-01-11T13:56:00.000Z</time>
      </trkpt>
      <trkpt lat="43.81868" lon="7.11324">
        <ele>784.59997558594</ele>
        <time>2020-01-11T13:56:01.000Z</time>
      </trkpt>
      <trkpt lat="43.81871" lon="7.11327">
        <ele>783.40002441406</ele>
        <time>2020-01-11T13:56:02.000Z</time>
      </trkpt>
      <trkpt lat="43.81874" lon="7.11331">
        <ele>782.40002441406</ele>
        <time>2020-01-11T13:56:03.000Z</time>
      </trkpt>
      <trkpt lat="43.81874" lon="7.11341">
        <ele>780.59997558594</ele>
        <time>2020-01-11T13:56:05.000Z</time>
      </trkpt>
      <trkpt lat="43.81876" lon="7.11345">
        <ele>779.59997558594</ele>
        <time>2020-01-11T13:56:06.000Z</time>
      </trkpt>
      <trkpt lat="43.81875" lon="7.11354">
        <ele>777.59997558594</ele>
        <time>2020-01-11T13:56:08.000Z</time>
      </trkpt>
      <trkpt lat="43.81876" lon="7.11359">
        <ele>776.40002441406</ele>
        <time>2020-01-11T13:56:09.000Z</time>
      </trkpt>
      <trkpt lat="43.81877" lon="7.11363">
        <ele>775.20001220703</ele>
        <time>2020-01-11T13:56:10.000Z</time>
      </trkpt>
      <trkpt lat="43.81878" lon="7.11369">
        <ele>773.79998779297</ele>
        <time>2020-01-11T13:56:11.000Z</time>
      </trkpt>
      <trkpt lat="43.8188" lon="7.11374">
        <ele>773</ele>
        <time>2020-01-11T13:56:12.000Z</time>
      </trkpt>
      <trkpt lat="43.81883" lon="7.1138">
        <ele>772</ele>
        <time>2020-01-11T13:56:13.000Z</time>
      </trkpt>
      <trkpt lat="43.81887" lon="7.11385">
        <ele>771.40002441406</ele>
        <time>2020-01-11T13:56:14.000Z</time>
      </trkpt>
      <trkpt lat="43.81891" lon="7.1139">
        <ele>771</ele>
        <time>2020-01-11T13:56:15.000Z</time>
      </trkpt>
      <trkpt lat="43.81895" lon="7.11394">
        <ele>769.59997558594</ele>
        <time>2020-01-11T13:56:16.000Z</time>
      </trkpt>
      <trkpt lat="43.81903" lon="7.11402">
        <ele>767.40002441406</ele>
        <time>2020-01-11T13:56:18.000Z</time>
      </trkpt>
      <trkpt lat="43.81904" lon="7.11409">
        <ele>766.40002441406</ele>
        <time>2020-01-11T13:56:19.000Z</time>
      </trkpt>
      <trkpt lat="43.81905" lon="7.11418">
        <ele>765.59997558594</ele>
        <time>2020-01-11T13:56:20.000Z</time>
      </trkpt>
      <trkpt lat="43.81905" lon="7.11427">
        <ele>764.40002441406</ele>
        <time>2020-01-11T13:56:21.000Z</time>
      </trkpt>
      <trkpt lat="43.81905" lon="7.11434">
        <ele>763.40002441406</ele>
        <time>2020-01-11T13:56:22.000Z</time>
      </trkpt>
      <trkpt lat="43.81904" lon="7.11441">
        <ele>762</ele>
        <time>2020-01-11T13:56:23.000Z</time>
      </trkpt>
      <trkpt lat="43.81904" lon="7.11446">
        <ele>761.20001220703</ele>
        <time>2020-01-11T13:56:24.000Z</time>
      </trkpt>
      <trkpt lat="43.81904" lon="7.11452">
        <ele>760.20001220703</ele>
        <time>2020-01-11T13:56:25.000Z</time>
      </trkpt>
      <trkpt lat="43.81905" lon="7.11457">
        <ele>759.59997558594</ele>
        <time>2020-01-11T13:56:26.000Z</time>
      </trkpt>
      <trkpt lat="43.81906" lon="7.11463">
        <ele>758.59997558594</ele>
        <time>2020-01-11T13:56:27.000Z</time>
      </trkpt>
      <trkpt lat="43.8191" lon="7.11472">
        <ele>757.20001220703</ele>
        <time>2020-01-11T13:56:29.000Z</time>
      </trkpt>
      <trkpt lat="43.81912" lon="7.11475">
        <ele>756.40002441406</ele>
        <time>2020-01-11T13:56:30.000Z</time>
      </trkpt>
      <trkpt lat="43.81914" lon="7.11477">
        <ele>755.59997558594</ele>
        <time>2020-01-11T13:56:31.000Z</time>
      </trkpt>
      <trkpt lat="43.81918" lon="7.11481">
        <ele>754</ele>
        <time>2020-01-11T13:56:33.000Z</time>
      </trkpt>
      <trkpt lat="43.81918" lon="7.11484">
        <ele>753.20001220703</ele>
        <time>2020-01-11T13:56:34.000Z</time>
      </trkpt>
      <trkpt lat="43.81918" lon="7.11489">
        <ele>752.40002441406</ele>
        <time>2020-01-11T13:56:35.000Z</time>
      </trkpt>
      <trkpt lat="43.81915" lon="7.11497">
        <ele>750.79998779297</ele>
        <time>2020-01-11T13:56:37.000Z</time>
      </trkpt>
      <trkpt lat="43.81914" lon="7.11502">
        <ele>750.20001220703</ele>
        <time>2020-01-11T13:56:38.000Z</time>
      </trkpt>
      <trkpt lat="43.81913" lon="7.11506">
        <ele>749.40002441406</ele>
        <time>2020-01-11T13:56:39.000Z</time>
      </trkpt>
      <trkpt lat="43.81913" lon="7.11515">
        <ele>748</ele>
        <time>2020-01-11T13:56:41.000Z</time>
      </trkpt>
      <trkpt lat="43.81915" lon="7.11524">
        <ele>746.79998779297</ele>
        <time>2020-01-11T13:56:43.000Z</time>
      </trkpt>
      <trkpt lat="43.81921" lon="7.11533">
        <ele>745.59997558594</ele>
        <time>2020-01-11T13:56:45.000Z</time>
      </trkpt>
      <trkpt lat="43.81928" lon="7.1154">
        <ele>744.40002441406</ele>
        <time>2020-01-11T13:56:47.000Z</time>
      </trkpt>
      <trkpt lat="43.81937" lon="7.11548">
        <ele>743.20001220703</ele>
        <time>2020-01-11T13:56:49.000Z</time>
      </trkpt>
      <trkpt lat="43.81946" lon="7.11558">
        <ele>742</ele>
        <time>2020-01-11T13:56:51.000Z</time>
      </trkpt>
      <trkpt lat="43.81949" lon="7.11564">
        <ele>741</ele>
        <time>2020-01-11T13:56:52.000Z</time>
      </trkpt>
      <trkpt lat="43.81952" lon="7.11568">
        <ele>740.20001220703</ele>
        <time>2020-01-11T13:56:53.000Z</time>
      </trkpt>
      <trkpt lat="43.81954" lon="7.11573">
        <ele>738.59997558594</ele>
        <time>2020-01-11T13:56:55.000Z</time>
      </trkpt>
      <trkpt lat="43.81955" lon="7.11575">
        <ele>737.20001220703</ele>
        <time>2020-01-11T13:56:57.000Z</time>
      </trkpt>
      <trkpt lat="43.81955" lon="7.11575">
        <ele>736.40002441406</ele>
        <time>2020-01-11T13:56:59.000Z</time>
      </trkpt>
      <trkpt lat="43.81955" lon="7.11575">
        <ele>736</ele>
        <time>2020-01-11T13:57:00.000Z</time>
      </trkpt>
      <trkpt lat="43.8196" lon="7.11578">
        <ele>735.40002441406</ele>
        <time>2020-01-11T13:57:10.000Z</time>
      </trkpt>
      <trkpt lat="43.8197" lon="7.11581">
        <ele>734.79998779297</ele>
        <time>2020-01-11T13:57:15.000Z</time>
      </trkpt>
      <trkpt lat="43.81981" lon="7.11592">
        <ele>734.20001220703</ele>
        <time>2020-01-11T13:57:18.000Z</time>
      </trkpt>
      <trkpt lat="43.81984" lon="7.11597">
        <ele>733.79998779297</ele>
        <time>2020-01-11T13:57:19.000Z</time>
      </trkpt>
      <trkpt lat="43.81993" lon="7.1161">
        <ele>732.40002441406</ele>
        <time>2020-01-11T13:57:21.000Z</time>
      </trkpt>
      <trkpt lat="43.81999" lon="7.11624">
        <ele>731.20001220703</ele>
        <time>2020-01-11T13:57:23.000Z</time>
      </trkpt>
      <trkpt lat="43.82002" lon="7.11632">
        <ele>731</ele>
        <time>2020-01-11T13:57:24.000Z</time>
      </trkpt>
      <trkpt lat="43.82014" lon="7.11651">
        <ele>730</ele>
        <time>2020-01-11T13:57:27.000Z</time>
      </trkpt>
      <trkpt lat="43.82017" lon="7.11657">
        <ele>729.59997558594</ele>
        <time>2020-01-11T13:57:28.000Z</time>
      </trkpt>
      <trkpt lat="43.8202" lon="7.11661">
        <ele>728.79998779297</ele>
        <time>2020-01-11T13:57:29.000Z</time>
      </trkpt>
      <trkpt lat="43.82022" lon="7.11666">
        <ele>727.79998779297</ele>
        <time>2020-01-11T13:57:30.000Z</time>
      </trkpt>
      <trkpt lat="43.82023" lon="7.11672">
        <ele>727.20001220703</ele>
        <time>2020-01-11T13:57:31.000Z</time>
      </trkpt>
      <trkpt lat="43.82025" lon="7.11674">
        <ele>726.40002441406</ele>
        <time>2020-01-11T13:57:32.000Z</time>
      </trkpt>
      <trkpt lat="43.82029" lon="7.11675">
        <ele>725.20001220703</ele>
        <time>2020-01-11T13:57:33.000Z</time>
      </trkpt>
      <trkpt lat="43.82032" lon="7.11677">
        <ele>724.40002441406</ele>
        <time>2020-01-11T13:57:34.000Z</time>
      </trkpt>
      <trkpt lat="43.82037" lon="7.11679">
        <ele>723.79998779297</ele>
        <time>2020-01-11T13:57:35.000Z</time>
      </trkpt>
      <trkpt lat="43.82042" lon="7.11681">
        <ele>722.40002441406</ele>
        <time>2020-01-11T13:57:37.000Z</time>
      </trkpt>
      <trkpt lat="43.82044" lon="7.11682">
        <ele>721.79998779297</ele>
        <time>2020-01-11T13:57:38.000Z</time>
      </trkpt>
      <trkpt lat="43.82048" lon="7.11686">
        <ele>721</ele>
        <time>2020-01-11T13:57:40.000Z</time>
      </trkpt>
      <trkpt lat="43.82057" lon="7.11692">
        <ele>720.20001220703</ele>
        <time>2020-01-11T13:57:43.000Z</time>
      </trkpt>
      <trkpt lat="43.82062" lon="7.11695">
        <ele>719.79998779297</ele>
        <time>2020-01-11T13:57:45.000Z</time>
      </trkpt>
      <trkpt lat="43.82064" lon="7.117">
        <ele>719.20001220703</ele>
        <time>2020-01-11T13:57:47.000Z</time>
      </trkpt>
      <trkpt lat="43.82066" lon="7.11704">
        <ele>718.59997558594</ele>
        <time>2020-01-11T13:57:49.000Z</time>
      </trkpt>
      <trkpt lat="43.82072" lon="7.1171">
        <ele>717.40002441406</ele>
        <time>2020-01-11T13:57:52.000Z</time>
      </trkpt>
      <trkpt lat="43.82078" lon="7.11716">
        <ele>716.40002441406</ele>
        <time>2020-01-11T13:57:55.000Z</time>
      </trkpt>
      <trkpt lat="43.82084" lon="7.1172">
        <ele>715.40002441406</ele>
        <time>2020-01-11T13:57:58.000Z</time>
      </trkpt>
      <trkpt lat="43.82085" lon="7.11721">
        <ele>715.20001220703</ele>
        <time>2020-01-11T13:57:59.000Z</time>
      </trkpt>
      <trkpt lat="43.82093" lon="7.11726">
        <ele>714.20001220703</ele>
        <time>2020-01-11T13:58:03.000Z</time>
      </trkpt>
      <trkpt lat="43.82095" lon="7.11726">
        <ele>713.79998779297</ele>
        <time>2020-01-11T13:58:04.000Z</time>
      </trkpt>
      <trkpt lat="43.821" lon="7.11728">
        <ele>713.20001220703</ele>
        <time>2020-01-11T13:58:07.000Z</time>
      </trkpt>
      <trkpt lat="43.82104" lon="7.11727">
        <ele>713.40002441406</ele>
        <time>2020-01-11T13:58:10.000Z</time>
      </trkpt>
      <trkpt lat="43.82105" lon="7.11729">
        <ele>713.59997558594</ele>
        <time>2020-01-11T13:58:11.000Z</time>
      </trkpt>
      <trkpt lat="43.82108" lon="7.1173">
        <ele>714.40002441406</ele>
        <time>2020-01-11T13:58:13.000Z</time>
      </trkpt>
      <trkpt lat="43.82113" lon="7.11733">
        <ele>714.79998779297</ele>
        <time>2020-01-11T13:58:15.000Z</time>
      </trkpt>
      <trkpt lat="43.82118" lon="7.11739">
        <ele>715.20001220703</ele>
        <time>2020-01-11T13:58:17.000Z</time>
      </trkpt>
      <trkpt lat="43.82122" lon="7.11747">
        <ele>715.20001220703</ele>
        <time>2020-01-11T13:58:19.000Z</time>
      </trkpt>
      <trkpt lat="43.82129" lon="7.11763">
        <ele>714.59997558594</ele>
        <time>2020-01-11T13:58:22.000Z</time>
      </trkpt>
      <trkpt lat="43.82133" lon="7.11776">
        <ele>714.40002441406</ele>
        <time>2020-01-11T13:58:24.000Z</time>
      </trkpt>
      <trkpt lat="43.8214" lon="7.1179">
        <ele>713.40002441406</ele>
        <time>2020-01-11T13:58:26.000Z</time>
      </trkpt>
      <trkpt lat="43.82143" lon="7.11797">
        <ele>713</ele>
        <time>2020-01-11T13:58:27.000Z</time>
      </trkpt>
      <trkpt lat="43.8215" lon="7.11812">
        <ele>711.79998779297</ele>
        <time>2020-01-11T13:58:29.000Z</time>
      </trkpt>
      <trkpt lat="43.82164" lon="7.11827">
        <ele>710.79998779297</ele>
        <time>2020-01-11T13:58:32.000Z</time>
      </trkpt>
      <trkpt lat="43.82168" lon="7.11831">
        <ele>710.40002441406</ele>
        <time>2020-01-11T13:58:33.000Z</time>
      </trkpt>
      <trkpt lat="43.82175" lon="7.11839">
        <ele>709.79998779297</ele>
        <time>2020-01-11T13:58:35.000Z</time>
      </trkpt>
      <trkpt lat="43.82183" lon="7.11854">
        <ele>709.40002441406</ele>
        <time>2020-01-11T13:58:38.000Z</time>
      </trkpt>
      <trkpt lat="43.82186" lon="7.11858">
        <ele>709</ele>
        <time>2020-01-11T13:58:39.000Z</time>
      </trkpt>
      <trkpt lat="43.82194" lon="7.11871">
        <ele>709.20001220703</ele>
        <time>2020-01-11T13:58:42.000Z</time>
      </trkpt>
      <trkpt lat="43.82205" lon="7.1188">
        <ele>709</ele>
        <time>2020-01-11T13:58:45.000Z</time>
      </trkpt>
      <trkpt lat="43.82219" lon="7.11877">
        <ele>708.79998779297</ele>
        <time>2020-01-11T13:58:48.000Z</time>
      </trkpt>
      <trkpt lat="43.8223" lon="7.11876">
        <ele>708.59997558594</ele>
        <time>2020-01-11T13:58:50.000Z</time>
      </trkpt>
      <trkpt lat="43.82239" lon="7.11878">
        <ele>708.20001220703</ele>
        <time>2020-01-11T13:58:52.000Z</time>
      </trkpt>
      <trkpt lat="43.82244" lon="7.11881">
        <ele>708</ele>
        <time>2020-01-11T13:58:53.000Z</time>
      </trkpt>
      <trkpt lat="43.82255" lon="7.11896">
        <ele>707.59997558594</ele>
        <time>2020-01-11T13:58:56.000Z</time>
      </trkpt>
      <trkpt lat="43.82258" lon="7.11901">
        <ele>707.40002441406</ele>
        <time>2020-01-11T13:58:57.000Z</time>
      </trkpt>
      <trkpt lat="43.82279" lon="7.11945">
        <ele>706.79998779297</ele>
        <time>2020-01-11T13:59:05.000Z</time>
      </trkpt>
      <trkpt lat="43.82301" lon="7.11997">
        <ele>706.79998779297</ele>
        <time>2020-01-11T13:59:14.000Z</time>
      </trkpt>
      <trkpt lat="43.82305" lon="7.12002">
        <ele>706.79998779297</ele>
        <time>2020-01-11T13:59:15.000Z</time>
      </trkpt>
      <trkpt lat="43.82318" lon="7.12014">
        <ele>706.79998779297</ele>
        <time>2020-01-11T13:59:18.000Z</time>
      </trkpt>
      <trkpt lat="43.82323" lon="7.12017">
        <ele>706.59997558594</ele>
        <time>2020-01-11T13:59:19.000Z</time>
      </trkpt>
      <trkpt lat="43.82333" lon="7.12024">
        <ele>706.40002441406</ele>
        <time>2020-01-11T13:59:21.000Z</time>
      </trkpt>
      <trkpt lat="43.82347" lon="7.12031">
        <ele>706</ele>
        <time>2020-01-11T13:59:24.000Z</time>
      </trkpt>
      <trkpt lat="43.8236" lon="7.12038">
        <ele>705.20001220703</ele>
        <time>2020-01-11T13:59:28.000Z</time>
      </trkpt>
      <trkpt lat="43.82369" lon="7.1204">
        <ele>705</ele>
        <time>2020-01-11T13:59:30.000Z</time>
      </trkpt>
      <trkpt lat="43.82378" lon="7.12046">
        <ele>704.59997558594</ele>
        <time>2020-01-11T13:59:32.000Z</time>
      </trkpt>
      <trkpt lat="43.82383" lon="7.12048">
        <ele>704.20001220703</ele>
        <time>2020-01-11T13:59:33.000Z</time>
      </trkpt>
      <trkpt lat="43.82398" lon="7.12056">
        <ele>703</ele>
        <time>2020-01-11T13:59:36.000Z</time>
      </trkpt>
      <trkpt lat="43.82404" lon="7.12058">
        <ele>702.59997558594</ele>
        <time>2020-01-11T13:59:37.000Z</time>
      </trkpt>
      <trkpt lat="43.82414" lon="7.12064">
        <ele>702</ele>
        <time>2020-01-11T13:59:40.000Z</time>
      </trkpt>
      <trkpt lat="43.82416" lon="7.12064">
        <ele>701.79998779297</ele>
        <time>2020-01-11T13:59:41.000Z</time>
      </trkpt>
      <trkpt lat="43.82417" lon="7.12066">
        <ele>701.59997558594</ele>
        <time>2020-01-11T13:59:42.000Z</time>
      </trkpt>
      <trkpt lat="43.82415" lon="7.12067">
        <ele>701.40002441406</ele>
        <time>2020-01-11T13:59:44.000Z</time>
      </trkpt>
      <trkpt lat="43.82407" lon="7.1206">
        <ele>701.20001220703</ele>
        <time>2020-01-11T13:59:49.000Z</time>
      </trkpt>
      <trkpt lat="43.82389" lon="7.1205">
        <ele>701.59997558594</ele>
        <time>2020-01-11T13:59:54.000Z</time>
      </trkpt>
      <trkpt lat="43.82364" lon="7.12035">
        <ele>702.59997558594</ele>
        <time>2020-01-11T14:00:00.000Z</time>
      </trkpt>
      <trkpt lat="43.82357" lon="7.12031">
        <ele>703.20001220703</ele>
        <time>2020-01-11T14:00:02.000Z</time>
      </trkpt>
      <trkpt lat="43.82348" lon="7.12027">
        <ele>704</ele>
        <time>2020-01-11T14:00:05.000Z</time>
      </trkpt>
      <trkpt lat="43.82345" lon="7.12026">
        <ele>704.20001220703</ele>
        <time>2020-01-11T14:00:06.000Z</time>
      </trkpt>
      <trkpt lat="43.82335" lon="7.12021">
        <ele>705.20001220703</ele>
        <time>2020-01-11T14:00:11.000Z</time>
      </trkpt>
      <trkpt lat="43.82339" lon="7.12025">
        <ele>705.40002441406</ele>
        <time>2020-01-11T14:00:14.000Z</time>
      </trkpt>
      <trkpt lat="43.82342" lon="7.12027">
        <ele>705.40002441406</ele>
        <time>2020-01-11T14:00:15.000Z</time>
      </trkpt>
      <trkpt lat="43.82355" lon="7.12031">
        <ele>705.20001220703</ele>
        <time>2020-01-11T14:00:20.000Z</time>
      </trkpt>
      <trkpt lat="43.82354" lon="7.12031">
        <ele>704.59997558594</ele>
        <time>2020-01-11T14:00:24.000Z</time>
      </trkpt>
      <trkpt lat="43.82354" lon="7.12033">
        <ele>704.59997558594</ele>
        <time>2020-01-11T14:00:28.000Z</time>
      </trkpt>
      <trkpt lat="43.82354" lon="7.12033">
        <ele>704.40002441406</ele>
        <time>2020-01-11T14:00:32.000Z</time>
      </trkpt>
      <trkpt lat="43.82355" lon="7.12033">
        <ele>704.40002441406</ele>
        <time>2020-01-11T14:00:33.000Z</time>
      </trkpt>
      <trkpt lat="43.82362" lon="7.12035">
        <ele>704.40002441406</ele>
        <time>2020-01-11T14:00:36.000Z</time>
      </trkpt>
      <trkpt lat="43.82366" lon="7.12036">
        <ele>704.40002441406</ele>
        <time>2020-01-11T14:00:37.000Z</time>
      </trkpt>
      <trkpt lat="43.82381" lon="7.12045">
        <ele>704</ele>
        <time>2020-01-11T14:00:40.000Z</time>
      </trkpt>
      <trkpt lat="43.82403" lon="7.12056">
        <ele>702.79998779297</ele>
        <time>2020-01-11T14:00:44.000Z</time>
      </trkpt>
      <trkpt lat="43.8242" lon="7.12065">
        <ele>701.79998779297</ele>
        <time>2020-01-11T14:00:47.000Z</time>
      </trkpt>
      <trkpt lat="43.82426" lon="7.12068">
        <ele>701.59997558594</ele>
        <time>2020-01-11T14:00:48.000Z</time>
      </trkpt>
      <trkpt lat="43.82451" lon="7.12082">
        <ele>701</ele>
        <time>2020-01-11T14:00:53.000Z</time>
      </trkpt>
      <trkpt lat="43.82469" lon="7.12093">
        <ele>700.59997558594</ele>
        <time>2020-01-11T14:00:57.000Z</time>
      </trkpt>
      <trkpt lat="43.8247" lon="7.12094">
        <ele>700.59997558594</ele>
        <time>2020-01-11T14:00:58.000Z</time>
      </trkpt>
      <trkpt lat="43.82476" lon="7.12101">
        <ele>700.40002441406</ele>
        <time>2020-01-11T14:00:59.000Z</time>
      </trkpt>
      <trkpt lat="43.8249" lon="7.12117">
        <ele>700</ele>
        <time>2020-01-11T14:01:02.000Z</time>
      </trkpt>
      <trkpt lat="43.82496" lon="7.12119">
        <ele>699.40002441406</ele>
        <time>2020-01-11T14:01:03.000Z</time>
      </trkpt>
      <trkpt lat="43.82506" lon="7.12123">
        <ele>698</ele>
        <time>2020-01-11T14:01:05.000Z</time>
      </trkpt>
      <trkpt lat="43.82509" lon="7.12126">
        <ele>697.20001220703</ele>
        <time>2020-01-11T14:01:06.000Z</time>
      </trkpt>
      <trkpt lat="43.82511" lon="7.1213">
        <ele>696.40002441406</ele>
        <time>2020-01-11T14:01:07.000Z</time>
      </trkpt>
      <trkpt lat="43.82507" lon="7.12139">
        <ele>695.40002441406</ele>
        <time>2020-01-11T14:01:09.000Z</time>
      </trkpt>
      <trkpt lat="43.82503" lon="7.12141">
        <ele>695</ele>
        <time>2020-01-11T14:01:10.000Z</time>
      </trkpt>
      <trkpt lat="43.82495" lon="7.12145">
        <ele>694.20001220703</ele>
        <time>2020-01-11T14:01:12.000Z</time>
      </trkpt>
      <trkpt lat="43.82491" lon="7.12146">
        <ele>693.79998779297</ele>
        <time>2020-01-11T14:01:13.000Z</time>
      </trkpt>
      <trkpt lat="43.82486" lon="7.12148">
        <ele>692.40002441406</ele>
        <time>2020-01-11T14:01:16.000Z</time>
      </trkpt>
      <trkpt lat="43.82485" lon="7.1215">
        <ele>691.40002441406</ele>
        <time>2020-01-11T14:01:19.000Z</time>
      </trkpt>
      <trkpt lat="43.82485" lon="7.12149">
        <ele>691.20001220703</ele>
        <time>2020-01-11T14:01:20.000Z</time>
      </trkpt>
      <trkpt lat="43.82486" lon="7.1215">
        <ele>690.79998779297</ele>
        <time>2020-01-11T14:01:26.000Z</time>
      </trkpt>
      <trkpt lat="43.82489" lon="7.12151">
        <ele>691.20001220703</ele>
        <time>2020-01-11T14:01:32.000Z</time>
      </trkpt>
      <trkpt lat="43.82489" lon="7.12151">
        <ele>691</ele>
        <time>2020-01-11T14:01:37.000Z</time>
      </trkpt>
      <trkpt lat="43.82489" lon="7.12157">
        <ele>691.20001220703</ele>
        <time>2020-01-11T14:01:43.000Z</time>
      </trkpt>
      <trkpt lat="43.82489" lon="7.12166">
        <ele>690</ele>
        <time>2020-01-11T14:01:47.000Z</time>
      </trkpt>
      <trkpt lat="43.82489" lon="7.1217">
        <ele>688.59997558594</ele>
        <time>2020-01-11T14:01:49.000Z</time>
      </trkpt>
      <trkpt lat="43.82489" lon="7.12172">
        <ele>688</ele>
        <time>2020-01-11T14:01:50.000Z</time>
      </trkpt>
      <trkpt lat="43.82491" lon="7.1218">
        <ele>687.20001220703</ele>
        <time>2020-01-11T14:01:52.000Z</time>
      </trkpt>
      <trkpt lat="43.82492" lon="7.12194">
        <ele>685.59997558594</ele>
        <time>2020-01-11T14:01:56.000Z</time>
      </trkpt>
      <trkpt lat="43.82492" lon="7.12205">
        <ele>684.20001220703</ele>
        <time>2020-01-11T14:01:59.000Z</time>
      </trkpt>
      <trkpt lat="43.82493" lon="7.12209">
        <ele>683.59997558594</ele>
        <time>2020-01-11T14:02:00.000Z</time>
      </trkpt>
      <trkpt lat="43.82494" lon="7.12213">
        <ele>683.20001220703</ele>
        <time>2020-01-11T14:02:01.000Z</time>
      </trkpt>
      <trkpt lat="43.82497" lon="7.12222">
        <ele>681.79998779297</ele>
        <time>2020-01-11T14:02:03.000Z</time>
      </trkpt>
      <trkpt lat="43.82499" lon="7.12225">
        <ele>681.59997558594</ele>
        <time>2020-01-11T14:02:05.000Z</time>
      </trkpt>
      <trkpt lat="43.825" lon="7.12235">
        <ele>680.20001220703</ele>
        <time>2020-01-11T14:02:07.000Z</time>
      </trkpt>
      <trkpt lat="43.82501" lon="7.12241">
        <ele>679.40002441406</ele>
        <time>2020-01-11T14:02:08.000Z</time>
      </trkpt>
      <trkpt lat="43.82503" lon="7.12247">
        <ele>678.79998779297</ele>
        <time>2020-01-11T14:02:09.000Z</time>
      </trkpt>
      <trkpt lat="43.82509" lon="7.12262">
        <ele>677.40002441406</ele>
        <time>2020-01-11T14:02:11.000Z</time>
      </trkpt>
      <trkpt lat="43.82513" lon="7.12274">
        <ele>676</ele>
        <time>2020-01-11T14:02:13.000Z</time>
      </trkpt>
      <trkpt lat="43.82517" lon="7.1228">
        <ele>674.79998779297</ele>
        <time>2020-01-11T14:02:15.000Z</time>
      </trkpt>
      <trkpt lat="43.82518" lon="7.12282">
        <ele>674.40002441406</ele>
        <time>2020-01-11T14:02:16.000Z</time>
      </trkpt>
      <trkpt lat="43.82518" lon="7.12282">
        <ele>673.79998779297</ele>
        <time>2020-01-11T14:02:17.000Z</time>
      </trkpt>
      <trkpt lat="43.82518" lon="7.12282">
        <ele>673</ele>
        <time>2020-01-11T14:02:20.000Z</time>
      </trkpt>
      <trkpt lat="43.82519" lon="7.12284">
        <ele>673</ele>
        <time>2020-01-11T14:02:36.000Z</time>
      </trkpt>
      <trkpt lat="43.8252" lon="7.12284">
        <ele>673</ele>
        <time>2020-01-11T14:02:47.000Z</time>
      </trkpt>
      <trkpt lat="43.82523" lon="7.12287">
        <ele>673</ele>
        <time>2020-01-11T14:02:58.000Z</time>
      </trkpt>
      <trkpt lat="43.82527" lon="7.12295">
        <ele>672.79998779297</ele>
        <time>2020-01-11T14:03:04.000Z</time>
      </trkpt>
      <trkpt lat="43.82529" lon="7.12298">
        <ele>672.79998779297</ele>
        <time>2020-01-11T14:03:05.000Z</time>
      </trkpt>
      <trkpt lat="43.82538" lon="7.12309">
        <ele>672.20001220703</ele>
        <time>2020-01-11T14:03:08.000Z</time>
      </trkpt>
      <trkpt lat="43.82546" lon="7.12319">
        <ele>671.79998779297</ele>
        <time>2020-01-11T14:03:10.000Z</time>
      </trkpt>
      <trkpt lat="43.82557" lon="7.12331">
        <ele>671.20001220703</ele>
        <time>2020-01-11T14:03:12.000Z</time>
      </trkpt>
      <trkpt lat="43.8257" lon="7.12343">
        <ele>670.20001220703</ele>
        <time>2020-01-11T14:03:14.000Z</time>
      </trkpt>
      <trkpt lat="43.82585" lon="7.12359">
        <ele>668.79998779297</ele>
        <time>2020-01-11T14:03:16.000Z</time>
      </trkpt>
      <trkpt lat="43.82599" lon="7.12375">
        <ele>667.20001220703</ele>
        <time>2020-01-11T14:03:18.000Z</time>
      </trkpt>
      <trkpt lat="43.82612" lon="7.12391">
        <ele>666</ele>
        <time>2020-01-11T14:03:20.000Z</time>
      </trkpt>
      <trkpt lat="43.82623" lon="7.12406">
        <ele>664.79998779297</ele>
        <time>2020-01-11T14:03:22.000Z</time>
      </trkpt>
      <trkpt lat="43.82628" lon="7.12413">
        <ele>664.20001220703</ele>
        <time>2020-01-11T14:03:23.000Z</time>
      </trkpt>
      <trkpt lat="43.82638" lon="7.12428">
        <ele>663.59997558594</ele>
        <time>2020-01-11T14:03:25.000Z</time>
      </trkpt>
      <trkpt lat="43.82648" lon="7.12441">
        <ele>663.59997558594</ele>
        <time>2020-01-11T14:03:27.000Z</time>
      </trkpt>
      <trkpt lat="43.82657" lon="7.12452">
        <ele>663.40002441406</ele>
        <time>2020-01-11T14:03:29.000Z</time>
      </trkpt>
      <trkpt lat="43.82683" lon="7.12485">
        <ele>662.79998779297</ele>
        <time>2020-01-11T14:03:35.000Z</time>
      </trkpt>
      <trkpt lat="43.82692" lon="7.12498">
        <ele>662.59997558594</ele>
        <time>2020-01-11T14:03:38.000Z</time>
      </trkpt>
      <trkpt lat="43.82699" lon="7.12505">
        <ele>662.40002441406</ele>
        <time>2020-01-11T14:03:40.000Z</time>
      </trkpt>
      <trkpt lat="43.82702" lon="7.1251">
        <ele>662.40002441406</ele>
        <time>2020-01-11T14:03:41.000Z</time>
      </trkpt>
      <trkpt lat="43.82715" lon="7.12528">
        <ele>662</ele>
        <time>2020-01-11T14:03:46.000Z</time>
      </trkpt>
      <trkpt lat="43.8273" lon="7.12549">
        <ele>661.59997558594</ele>
        <time>2020-01-11T14:03:53.000Z</time>
      </trkpt>
      <trkpt lat="43.82736" lon="7.12552">
        <ele>661.59997558594</ele>
        <time>2020-01-11T14:03:57.000Z</time>
      </trkpt>
      <trkpt lat="43.82739" lon="7.12554">
        <ele>661.59997558594</ele>
        <time>2020-01-11T14:03:59.000Z</time>
      </trkpt>
      <trkpt lat="43.82746" lon="7.12557">
        <ele>660.40002441406</ele>
        <time>2020-01-11T14:04:03.000Z</time>
      </trkpt>
      <trkpt lat="43.82748" lon="7.12559">
        <ele>659.79998779297</ele>
        <time>2020-01-11T14:04:04.000Z</time>
      </trkpt>
      <trkpt lat="43.82751" lon="7.12561">
        <ele>659.40002441406</ele>
        <time>2020-01-11T14:04:05.000Z</time>
      </trkpt>
      <trkpt lat="43.82753" lon="7.12564">
        <ele>658.59997558594</ele>
        <time>2020-01-11T14:04:08.000Z</time>
      </trkpt>
      <trkpt lat="43.82753" lon="7.12565">
        <ele>658.20001220703</ele>
        <time>2020-01-11T14:04:10.000Z</time>
      </trkpt>
      <trkpt lat="43.82754" lon="7.12565">
        <ele>657.59997558594</ele>
        <time>2020-01-11T14:04:14.000Z</time>
      </trkpt>
      <trkpt lat="43.82757" lon="7.12567">
        <ele>657.59997558594</ele>
        <time>2020-01-11T14:04:16.000Z</time>
      </trkpt>
      <trkpt lat="43.82763" lon="7.12572">
        <ele>657.40002441406</ele>
        <time>2020-01-11T14:04:20.000Z</time>
      </trkpt>
      <trkpt lat="43.82767" lon="7.12573">
        <ele>657</ele>
        <time>2020-01-11T14:04:22.000Z</time>
      </trkpt>
      <trkpt lat="43.82773" lon="7.12578">
        <ele>656.40002441406</ele>
        <time>2020-01-11T14:04:24.000Z</time>
      </trkpt>
      <trkpt lat="43.82776" lon="7.12579">
        <ele>656</ele>
        <time>2020-01-11T14:04:25.000Z</time>
      </trkpt>
      <trkpt lat="43.82785" lon="7.12582">
        <ele>655.20001220703</ele>
        <time>2020-01-11T14:04:28.000Z</time>
      </trkpt>
      <trkpt lat="43.82789" lon="7.12583">
        <ele>655</ele>
        <time>2020-01-11T14:04:29.000Z</time>
      </trkpt>
      <trkpt lat="43.82791" lon="7.12584">
        <ele>654.79998779297</ele>
        <time>2020-01-11T14:04:30.000Z</time>
      </trkpt>
      <trkpt lat="43.82798" lon="7.12589">
        <ele>653.79998779297</ele>
        <time>2020-01-11T14:04:33.000Z</time>
      </trkpt>
      <trkpt lat="43.82804" lon="7.12594">
        <ele>652.59997558594</ele>
        <time>2020-01-11T14:04:36.000Z</time>
      </trkpt>
      <trkpt lat="43.82806" lon="7.12594">
        <ele>652.20001220703</ele>
        <time>2020-01-11T14:04:37.000Z</time>
      </trkpt>
      <trkpt lat="43.82808" lon="7.12592">
        <ele>651.79998779297</ele>
        <time>2020-01-11T14:04:38.000Z</time>
      </trkpt>
      <trkpt lat="43.82808" lon="7.12591">
        <ele>651.20001220703</ele>
        <time>2020-01-11T14:04:39.000Z</time>
      </trkpt>
      <trkpt lat="43.82808" lon="7.12591">
        <ele>650.59997558594</ele>
        <time>2020-01-11T14:04:41.000Z</time>
      </trkpt>
      <trkpt lat="43.82811" lon="7.12587">
        <ele>650.20001220703</ele>
        <time>2020-01-11T14:04:48.000Z</time>
      </trkpt>
      <trkpt lat="43.82813" lon="7.12586">
        <ele>650.20001220703</ele>
        <time>2020-01-11T14:04:49.000Z</time>
      </trkpt>
      <trkpt lat="43.82814" lon="7.12586">
        <ele>650</ele>
        <time>2020-01-11T14:04:50.000Z</time>
      </trkpt>
      <trkpt lat="43.82816" lon="7.12591">
        <ele>650</ele>
        <time>2020-01-11T14:04:52.000Z</time>
      </trkpt>
      <trkpt lat="43.82817" lon="7.12598">
        <ele>649.40002441406</ele>
        <time>2020-01-11T14:04:54.000Z</time>
      </trkpt>
      <trkpt lat="43.82821" lon="7.12602">
        <ele>648.79998779297</ele>
        <time>2020-01-11T14:04:56.000Z</time>
      </trkpt>
      <trkpt lat="43.82826" lon="7.12596">
        <ele>647.40002441406</ele>
        <time>2020-01-11T14:04:59.000Z</time>
      </trkpt>
      <trkpt lat="43.82828" lon="7.12589">
        <ele>646.79998779297</ele>
        <time>2020-01-11T14:05:00.000Z</time>
      </trkpt>
      <trkpt lat="43.8283" lon="7.12583">
        <ele>646.40002441406</ele>
        <time>2020-01-11T14:05:01.000Z</time>
      </trkpt>
      <trkpt lat="43.82829" lon="7.12577">
        <ele>645.40002441406</ele>
        <time>2020-01-11T14:05:02.000Z</time>
      </trkpt>
      <trkpt lat="43.82829" lon="7.12572">
        <ele>644.79998779297</ele>
        <time>2020-01-11T14:05:03.000Z</time>
      </trkpt>
      <trkpt lat="43.82831" lon="7.12565">
        <ele>643.20001220703</ele>
        <time>2020-01-11T14:05:05.000Z</time>
      </trkpt>
      <trkpt lat="43.82833" lon="7.12559">
        <ele>642</ele>
        <time>2020-01-11T14:05:07.000Z</time>
      </trkpt>
      <trkpt lat="43.82835" lon="7.12553">
        <ele>640.40002441406</ele>
        <time>2020-01-11T14:05:10.000Z</time>
      </trkpt>
      <trkpt lat="43.82838" lon="7.12552">
        <ele>639.40002441406</ele>
        <time>2020-01-11T14:05:13.000Z</time>
      </trkpt>
      <trkpt lat="43.82839" lon="7.12554">
        <ele>639</ele>
        <time>2020-01-11T14:05:14.000Z</time>
      </trkpt>
      <trkpt lat="43.82841" lon="7.12564">
        <ele>638.40002441406</ele>
        <time>2020-01-11T14:05:17.000Z</time>
      </trkpt>
      <trkpt lat="43.82843" lon="7.12568">
        <ele>638.20001220703</ele>
        <time>2020-01-11T14:05:18.000Z</time>
      </trkpt>
      <trkpt lat="43.82845" lon="7.12576">
        <ele>637</ele>
        <time>2020-01-11T14:05:20.000Z</time>
      </trkpt>
      <trkpt lat="43.82849" lon="7.12588">
        <ele>635.59997558594</ele>
        <time>2020-01-11T14:05:23.000Z</time>
      </trkpt>
      <trkpt lat="43.8285" lon="7.12591">
        <ele>635.40002441406</ele>
        <time>2020-01-11T14:05:24.000Z</time>
      </trkpt>
      <trkpt lat="43.82855" lon="7.12605">
        <ele>634.40002441406</ele>
        <time>2020-01-11T14:05:27.000Z</time>
      </trkpt>
      <trkpt lat="43.82858" lon="7.1261">
        <ele>634</ele>
        <time>2020-01-11T14:05:28.000Z</time>
      </trkpt>
      <trkpt lat="43.82863" lon="7.1262">
        <ele>633.20001220703</ele>
        <time>2020-01-11T14:05:30.000Z</time>
      </trkpt>
      <trkpt lat="43.82868" lon="7.12628">
        <ele>631.40002441406</ele>
        <time>2020-01-11T14:05:32.000Z</time>
      </trkpt>
      <trkpt lat="43.8287" lon="7.12632">
        <ele>630.59997558594</ele>
        <time>2020-01-11T14:05:33.000Z</time>
      </trkpt>
      <trkpt lat="43.82872" lon="7.12636">
        <ele>629.79998779297</ele>
        <time>2020-01-11T14:05:34.000Z</time>
      </trkpt>
      <trkpt lat="43.82879" lon="7.12649">
        <ele>628.59997558594</ele>
        <time>2020-01-11T14:05:37.000Z</time>
      </trkpt>
      <trkpt lat="43.82884" lon="7.12659">
        <ele>628.20001220703</ele>
        <time>2020-01-11T14:05:39.000Z</time>
      </trkpt>
      <trkpt lat="43.82891" lon="7.12671">
        <ele>627.40002441406</ele>
        <time>2020-01-11T14:05:41.000Z</time>
      </trkpt>
      <trkpt lat="43.82894" lon="7.12676">
        <ele>626.40002441406</ele>
        <time>2020-01-11T14:05:42.000Z</time>
      </trkpt>
      <trkpt lat="43.82897" lon="7.1268">
        <ele>625.40002441406</ele>
        <time>2020-01-11T14:05:43.000Z</time>
      </trkpt>
      <trkpt lat="43.829" lon="7.12684">
        <ele>625</ele>
        <time>2020-01-11T14:05:44.000Z</time>
      </trkpt>
      <trkpt lat="43.82905" lon="7.12693">
        <ele>623</ele>
        <time>2020-01-11T14:05:46.000Z</time>
      </trkpt>
      <trkpt lat="43.82911" lon="7.12705">
        <ele>621.59997558594</ele>
        <time>2020-01-11T14:05:49.000Z</time>
      </trkpt>
      <trkpt lat="43.82918" lon="7.12716">
        <ele>620.40002441406</ele>
        <time>2020-01-11T14:05:52.000Z</time>
      </trkpt>
      <trkpt lat="43.82924" lon="7.12728">
        <ele>618.40002441406</ele>
        <time>2020-01-11T14:05:55.000Z</time>
      </trkpt>
      <trkpt lat="43.82927" lon="7.12732">
        <ele>618.40002441406</ele>
        <time>2020-01-11T14:05:56.000Z</time>
      </trkpt>
      <trkpt lat="43.82931" lon="7.12743">
        <ele>617.40002441406</ele>
        <time>2020-01-11T14:05:58.000Z</time>
      </trkpt>
      <trkpt lat="43.82939" lon="7.12756">
        <ele>616.20001220703</ele>
        <time>2020-01-11T14:06:01.000Z</time>
      </trkpt>
      <trkpt lat="43.82944" lon="7.12765">
        <ele>614.59997558594</ele>
        <time>2020-01-11T14:06:03.000Z</time>
      </trkpt>
      <trkpt lat="43.82947" lon="7.12768">
        <ele>613.59997558594</ele>
        <time>2020-01-11T14:06:04.000Z</time>
      </trkpt>
      <trkpt lat="43.82949" lon="7.12774">
        <ele>612.40002441406</ele>
        <time>2020-01-11T14:06:05.000Z</time>
      </trkpt>
      <trkpt lat="43.82951" lon="7.12778">
        <ele>611.20001220703</ele>
        <time>2020-01-11T14:06:06.000Z</time>
      </trkpt>
      <trkpt lat="43.82954" lon="7.12782">
        <ele>609.59997558594</ele>
        <time>2020-01-11T14:06:07.000Z</time>
      </trkpt>
      <trkpt lat="43.82958" lon="7.12792">
        <ele>608.20001220703</ele>
        <time>2020-01-11T14:06:09.000Z</time>
      </trkpt>
      <trkpt lat="43.82964" lon="7.12803">
        <ele>606.20001220703</ele>
        <time>2020-01-11T14:06:11.000Z</time>
      </trkpt>
      <trkpt lat="43.82974" lon="7.12816">
        <ele>604.79998779297</ele>
        <time>2020-01-11T14:06:14.000Z</time>
      </trkpt>
      <trkpt lat="43.82977" lon="7.1282">
        <ele>604.79998779297</ele>
        <time>2020-01-11T14:06:15.000Z</time>
      </trkpt>
      <trkpt lat="43.82982" lon="7.12828">
        <ele>603.79998779297</ele>
        <time>2020-01-11T14:06:17.000Z</time>
      </trkpt>
      <trkpt lat="43.82986" lon="7.12836">
        <ele>602.59997558594</ele>
        <time>2020-01-11T14:06:19.000Z</time>
      </trkpt>
      <trkpt lat="43.82988" lon="7.12841">
        <ele>601.79998779297</ele>
        <time>2020-01-11T14:06:20.000Z</time>
      </trkpt>
      <trkpt lat="43.8299" lon="7.12845">
        <ele>600.59997558594</ele>
        <time>2020-01-11T14:06:21.000Z</time>
      </trkpt>
      <trkpt lat="43.82992" lon="7.12848">
        <ele>599.40002441406</ele>
        <time>2020-01-11T14:06:22.000Z</time>
      </trkpt>
      <trkpt lat="43.82994" lon="7.12855">
        <ele>598</ele>
        <time>2020-01-11T14:06:24.000Z</time>
      </trkpt>
      <trkpt lat="43.82995" lon="7.12857">
        <ele>597.79998779297</ele>
        <time>2020-01-11T14:06:25.000Z</time>
      </trkpt>
      <trkpt lat="43.82996" lon="7.12858">
        <ele>597.59997558594</ele>
        <time>2020-01-11T14:06:26.000Z</time>
      </trkpt>
      <trkpt lat="43.83004" lon="7.12863">
        <ele>596.79998779297</ele>
        <time>2020-01-11T14:06:29.000Z</time>
      </trkpt>
      <trkpt lat="43.83009" lon="7.12872">
        <ele>595.59997558594</ele>
        <time>2020-01-11T14:06:31.000Z</time>
      </trkpt>
      <trkpt lat="43.83014" lon="7.12885">
        <ele>594</ele>
        <time>2020-01-11T14:06:33.000Z</time>
      </trkpt>
      <trkpt lat="43.83019" lon="7.12898">
        <ele>592.20001220703</ele>
        <time>2020-01-11T14:06:35.000Z</time>
      </trkpt>
      <trkpt lat="43.83024" lon="7.12909">
        <ele>591</ele>
        <time>2020-01-11T14:06:38.000Z</time>
      </trkpt>
      <trkpt lat="43.83024" lon="7.12909">
        <ele>589.59997558594</ele>
        <time>2020-01-11T14:06:40.000Z</time>
      </trkpt>
      <trkpt lat="43.83024" lon="7.12909">
        <ele>589.20001220703</ele>
        <time>2020-01-11T14:06:41.000Z</time>
      </trkpt>
      <trkpt lat="43.83024" lon="7.12909">
        <ele>588.59997558594</ele>
        <time>2020-01-11T14:06:43.000Z</time>
      </trkpt>
      <trkpt lat="43.83027" lon="7.12908">
        <ele>588.40002441406</ele>
        <time>2020-01-11T14:06:50.000Z</time>
      </trkpt>
      <trkpt lat="43.83028" lon="7.12905">
        <ele>588.40002441406</ele>
        <time>2020-01-11T14:06:51.000Z</time>
      </trkpt>
      <trkpt lat="43.83026" lon="7.12894">
        <ele>588.20001220703</ele>
        <time>2020-01-11T14:06:54.000Z</time>
      </trkpt>
      <trkpt lat="43.83025" lon="7.12888">
        <ele>588</ele>
        <time>2020-01-11T14:06:55.000Z</time>
      </trkpt>
      <trkpt lat="43.83024" lon="7.1288">
        <ele>587.59997558594</ele>
        <time>2020-01-11T14:06:57.000Z</time>
      </trkpt>
      <trkpt lat="43.83022" lon="7.12873">
        <ele>586.20001220703</ele>
        <time>2020-01-11T14:06:59.000Z</time>
      </trkpt>
      <trkpt lat="43.83024" lon="7.1287">
        <ele>585.40002441406</ele>
        <time>2020-01-11T14:07:00.000Z</time>
      </trkpt>
      <trkpt lat="43.83026" lon="7.12871">
        <ele>584.59997558594</ele>
        <time>2020-01-11T14:07:01.000Z</time>
      </trkpt>
      <trkpt lat="43.83027" lon="7.12874">
        <ele>583.59997558594</ele>
        <time>2020-01-11T14:07:02.000Z</time>
      </trkpt>
      <trkpt lat="43.8303" lon="7.1288">
        <ele>583</ele>
        <time>2020-01-11T14:07:04.000Z</time>
      </trkpt>
      <trkpt lat="43.83032" lon="7.12884">
        <ele>582.40002441406</ele>
        <time>2020-01-11T14:07:05.000Z</time>
      </trkpt>
      <trkpt lat="43.83036" lon="7.12889">
        <ele>581.40002441406</ele>
        <time>2020-01-11T14:07:07.000Z</time>
      </trkpt>
      <trkpt lat="43.83038" lon="7.12887">
        <ele>579.59997558594</ele>
        <time>2020-01-11T14:07:09.000Z</time>
      </trkpt>
      <trkpt lat="43.83038" lon="7.12886">
        <ele>578.79998779297</ele>
        <time>2020-01-11T14:07:10.000Z</time>
      </trkpt>
      <trkpt lat="43.83037" lon="7.12882">
        <ele>578.40002441406</ele>
        <time>2020-01-11T14:07:11.000Z</time>
      </trkpt>
      <trkpt lat="43.83036" lon="7.12878">
        <ele>578.20001220703</ele>
        <time>2020-01-11T14:07:12.000Z</time>
      </trkpt>
      <trkpt lat="43.83035" lon="7.12875">
        <ele>578</ele>
        <time>2020-01-11T14:07:13.000Z</time>
      </trkpt>
      <trkpt lat="43.83036" lon="7.12872">
        <ele>577.59997558594</ele>
        <time>2020-01-11T14:07:14.000Z</time>
      </trkpt>
      <trkpt lat="43.83039" lon="7.12873">
        <ele>577</ele>
        <time>2020-01-11T14:07:16.000Z</time>
      </trkpt>
      <trkpt lat="43.83042" lon="7.12878">
        <ele>576</ele>
        <time>2020-01-11T14:07:19.000Z</time>
      </trkpt>
      <trkpt lat="43.83045" lon="7.12879">
        <ele>575.40002441406</ele>
        <time>2020-01-11T14:07:20.000Z</time>
      </trkpt>
      <trkpt lat="43.83051" lon="7.12878">
        <ele>574.40002441406</ele>
        <time>2020-01-11T14:07:23.000Z</time>
      </trkpt>
      <trkpt lat="43.83054" lon="7.12878">
        <ele>574</ele>
        <time>2020-01-11T14:07:24.000Z</time>
      </trkpt>
      <trkpt lat="43.83057" lon="7.12878">
        <ele>573.59997558594</ele>
        <time>2020-01-11T14:07:25.000Z</time>
      </trkpt>
      <trkpt lat="43.8306" lon="7.12878">
        <ele>573</ele>
        <time>2020-01-11T14:07:26.000Z</time>
      </trkpt>
      <trkpt lat="43.83063" lon="7.1288">
        <ele>572.40002441406</ele>
        <time>2020-01-11T14:07:27.000Z</time>
      </trkpt>
      <trkpt lat="43.83064" lon="7.12882">
        <ele>572</ele>
        <time>2020-01-11T14:07:28.000Z</time>
      </trkpt>
      <trkpt lat="43.83065" lon="7.12881">
        <ele>571.40002441406</ele>
        <time>2020-01-11T14:07:29.000Z</time>
      </trkpt>
      <trkpt lat="43.83066" lon="7.1288">
        <ele>570.79998779297</ele>
        <time>2020-01-11T14:07:30.000Z</time>
      </trkpt>
      <trkpt lat="43.83067" lon="7.12878">
        <ele>569.59997558594</ele>
        <time>2020-01-11T14:07:32.000Z</time>
      </trkpt>
      <trkpt lat="43.83066" lon="7.12875">
        <ele>569.40002441406</ele>
        <time>2020-01-11T14:07:33.000Z</time>
      </trkpt>
      <trkpt lat="43.8306" lon="7.12872">
        <ele>568.40002441406</ele>
        <time>2020-01-11T14:07:36.000Z</time>
      </trkpt>
      <trkpt lat="43.83058" lon="7.12871">
        <ele>568</ele>
        <time>2020-01-11T14:07:37.000Z</time>
      </trkpt>
      <trkpt lat="43.83059" lon="7.12867">
        <ele>567</ele>
        <time>2020-01-11T14:07:39.000Z</time>
      </trkpt>
      <trkpt lat="43.83059" lon="7.12866">
        <ele>566.79998779297</ele>
        <time>2020-01-11T14:07:40.000Z</time>
      </trkpt>
      <trkpt lat="43.83059" lon="7.12865">
        <ele>565.79998779297</ele>
        <time>2020-01-11T14:07:43.000Z</time>
      </trkpt>
      <trkpt lat="43.83055" lon="7.12865">
        <ele>565.40002441406</ele>
        <time>2020-01-11T14:07:45.000Z</time>
      </trkpt>
      <trkpt lat="43.83053" lon="7.12862">
        <ele>565</ele>
        <time>2020-01-11T14:07:46.000Z</time>
      </trkpt>
      <trkpt lat="43.83053" lon="7.12856">
        <ele>564.79998779297</ele>
        <time>2020-01-11T14:07:48.000Z</time>
      </trkpt>
      <trkpt lat="43.83051" lon="7.12842">
        <ele>563.59997558594</ele>
        <time>2020-01-11T14:07:51.000Z</time>
      </trkpt>
      <trkpt lat="43.83052" lon="7.1284">
        <ele>563</ele>
        <time>2020-01-11T14:07:52.000Z</time>
      </trkpt>
      <trkpt lat="43.83054" lon="7.12839">
        <ele>562.20001220703</ele>
        <time>2020-01-11T14:07:53.000Z</time>
      </trkpt>
      <trkpt lat="43.83056" lon="7.12839">
        <ele>561.20001220703</ele>
        <time>2020-01-11T14:07:55.000Z</time>
      </trkpt>
      <trkpt lat="43.83058" lon="7.1284">
        <ele>560.59997558594</ele>
        <time>2020-01-11T14:07:56.000Z</time>
      </trkpt>
      <trkpt lat="43.83065" lon="7.12845">
        <ele>560.59997558594</ele>
        <time>2020-01-11T14:07:59.000Z</time>
      </trkpt>
      <trkpt lat="43.83069" lon="7.12847">
        <ele>560.59997558594</ele>
        <time>2020-01-11T14:08:00.000Z</time>
      </trkpt>
      <trkpt lat="43.83078" lon="7.12859">
        <ele>560.40002441406</ele>
        <time>2020-01-11T14:08:03.000Z</time>
      </trkpt>
      <trkpt lat="43.83085" lon="7.12863">
        <ele>560</ele>
        <time>2020-01-11T14:08:05.000Z</time>
      </trkpt>
      <trkpt lat="43.83088" lon="7.12866">
        <ele>559.40002441406</ele>
        <time>2020-01-11T14:08:06.000Z</time>
      </trkpt>
      <trkpt lat="43.83091" lon="7.12871">
        <ele>558.79998779297</ele>
        <time>2020-01-11T14:08:07.000Z</time>
      </trkpt>
      <trkpt lat="43.83095" lon="7.12878">
        <ele>558.20001220703</ele>
        <time>2020-01-11T14:08:09.000Z</time>
      </trkpt>
      <trkpt lat="43.83104" lon="7.12885">
        <ele>558</ele>
        <time>2020-01-11T14:08:12.000Z</time>
      </trkpt>
      <trkpt lat="43.83107" lon="7.12888">
        <ele>557.79998779297</ele>
        <time>2020-01-11T14:08:13.000Z</time>
      </trkpt>
      <trkpt lat="43.83117" lon="7.12896">
        <ele>556.59997558594</ele>
        <time>2020-01-11T14:08:16.000Z</time>
      </trkpt>
      <trkpt lat="43.83122" lon="7.12898">
        <ele>556.40002441406</ele>
        <time>2020-01-11T14:08:17.000Z</time>
      </trkpt>
      <trkpt lat="43.83125" lon="7.12902">
        <ele>556</ele>
        <time>2020-01-11T14:08:18.000Z</time>
      </trkpt>
      <trkpt lat="43.83131" lon="7.12904">
        <ele>555.59997558594</ele>
        <time>2020-01-11T14:08:20.000Z</time>
      </trkpt>
      <trkpt lat="43.83136" lon="7.12904">
        <ele>555.59997558594</ele>
        <time>2020-01-11T14:08:21.000Z</time>
      </trkpt>
      <trkpt lat="43.83146" lon="7.12904">
        <ele>555.20001220703</ele>
        <time>2020-01-11T14:08:23.000Z</time>
      </trkpt>
      <trkpt lat="43.83151" lon="7.12903">
        <ele>554.79998779297</ele>
        <time>2020-01-11T14:08:24.000Z</time>
      </trkpt>
      <trkpt lat="43.83157" lon="7.12902">
        <ele>554</ele>
        <time>2020-01-11T14:08:25.000Z</time>
      </trkpt>
      <trkpt lat="43.83168" lon="7.12901">
        <ele>551.79998779297</ele>
        <time>2020-01-11T14:08:27.000Z</time>
      </trkpt>
      <trkpt lat="43.83174" lon="7.129">
        <ele>550.59997558594</ele>
        <time>2020-01-11T14:08:28.000Z</time>
      </trkpt>
      <trkpt lat="43.8318" lon="7.12898">
        <ele>549.79998779297</ele>
        <time>2020-01-11T14:08:29.000Z</time>
      </trkpt>
      <trkpt lat="43.83192" lon="7.12896">
        <ele>549.20001220703</ele>
        <time>2020-01-11T14:08:31.000Z</time>
      </trkpt>
      <trkpt lat="43.83198" lon="7.12898">
        <ele>548.79998779297</ele>
        <time>2020-01-11T14:08:32.000Z</time>
      </trkpt>
      <trkpt lat="43.83202" lon="7.129">
        <ele>548.40002441406</ele>
        <time>2020-01-11T14:08:33.000Z</time>
      </trkpt>
      <trkpt lat="43.83206" lon="7.12902">
        <ele>547.79998779297</ele>
        <time>2020-01-11T14:08:34.000Z</time>
      </trkpt>
      <trkpt lat="43.83212" lon="7.12906">
        <ele>546.20001220703</ele>
        <time>2020-01-11T14:08:36.000Z</time>
      </trkpt>
      <trkpt lat="43.83213" lon="7.12909">
        <ele>545.40002441406</ele>
        <time>2020-01-11T14:08:37.000Z</time>
      </trkpt>
      <trkpt lat="43.83215" lon="7.12911">
        <ele>544.59997558594</ele>
        <time>2020-01-11T14:08:38.000Z</time>
      </trkpt>
      <trkpt lat="43.83221" lon="7.12917">
        <ele>543</ele>
        <time>2020-01-11T14:08:40.000Z</time>
      </trkpt>
      <trkpt lat="43.83225" lon="7.12925">
        <ele>541.79998779297</ele>
        <time>2020-01-11T14:08:42.000Z</time>
      </trkpt>
      <trkpt lat="43.8323" lon="7.12932">
        <ele>540.79998779297</ele>
        <time>2020-01-11T14:08:44.000Z</time>
      </trkpt>
      <trkpt lat="43.83236" lon="7.12942">
        <ele>539.40002441406</ele>
        <time>2020-01-11T14:08:46.000Z</time>
      </trkpt>
      <trkpt lat="43.8324" lon="7.12945">
        <ele>539.20001220703</ele>
        <time>2020-01-11T14:08:47.000Z</time>
      </trkpt>
      <trkpt lat="43.83246" lon="7.12949">
        <ele>538.20001220703</ele>
        <time>2020-01-11T14:08:49.000Z</time>
      </trkpt>
      <trkpt lat="43.83249" lon="7.12951">
        <ele>537.59997558594</ele>
        <time>2020-01-11T14:08:50.000Z</time>
      </trkpt>
      <trkpt lat="43.83252" lon="7.12952">
        <ele>536.59997558594</ele>
        <time>2020-01-11T14:08:51.000Z</time>
      </trkpt>
      <trkpt lat="43.83259" lon="7.12954">
        <ele>535.40002441406</ele>
        <time>2020-01-11T14:08:53.000Z</time>
      </trkpt>
      <trkpt lat="43.83262" lon="7.12956">
        <ele>534.59997558594</ele>
        <time>2020-01-11T14:08:54.000Z</time>
      </trkpt>
      <trkpt lat="43.83264" lon="7.12961">
        <ele>534</ele>
        <time>2020-01-11T14:08:55.000Z</time>
      </trkpt>
      <trkpt lat="43.83269" lon="7.12966">
        <ele>533.79998779297</ele>
        <time>2020-01-11T14:08:57.000Z</time>
      </trkpt>
      <trkpt lat="43.83274" lon="7.12973">
        <ele>533</ele>
        <time>2020-01-11T14:08:59.000Z</time>
      </trkpt>
      <trkpt lat="43.8328" lon="7.1298">
        <ele>532.20001220703</ele>
        <time>2020-01-11T14:09:01.000Z</time>
      </trkpt>
      <trkpt lat="43.83284" lon="7.12983">
        <ele>531.59997558594</ele>
        <time>2020-01-11T14:09:02.000Z</time>
      </trkpt>
      <trkpt lat="43.83288" lon="7.12985">
        <ele>531</ele>
        <time>2020-01-11T14:09:03.000Z</time>
      </trkpt>
      <trkpt lat="43.83292" lon="7.12987">
        <ele>530.20001220703</ele>
        <time>2020-01-11T14:09:04.000Z</time>
      </trkpt>
      <trkpt lat="43.83297" lon="7.12989">
        <ele>529.59997558594</ele>
        <time>2020-01-11T14:09:05.000Z</time>
      </trkpt>
      <trkpt lat="43.83301" lon="7.12991">
        <ele>529</ele>
        <time>2020-01-11T14:09:06.000Z</time>
      </trkpt>
      <trkpt lat="43.83306" lon="7.12993">
        <ele>529</ele>
        <time>2020-01-11T14:09:07.000Z</time>
      </trkpt>
      <trkpt lat="43.8331" lon="7.12995">
        <ele>527.79998779297</ele>
        <time>2020-01-11T14:09:08.000Z</time>
      </trkpt>
      <trkpt lat="43.83318" lon="7.13">
        <ele>526.79998779297</ele>
        <time>2020-01-11T14:09:10.000Z</time>
      </trkpt>
      <trkpt lat="43.83322" lon="7.13003">
        <ele>526.59997558594</ele>
        <time>2020-01-11T14:09:11.000Z</time>
      </trkpt>
      <trkpt lat="43.83325" lon="7.13005">
        <ele>525.79998779297</ele>
        <time>2020-01-11T14:09:12.000Z</time>
      </trkpt>
      <trkpt lat="43.83333" lon="7.13008">
        <ele>525.40002441406</ele>
        <time>2020-01-11T14:09:14.000Z</time>
      </trkpt>
      <trkpt lat="43.83342" lon="7.13012">
        <ele>524.40002441406</ele>
        <time>2020-01-11T14:09:16.000Z</time>
      </trkpt>
      <trkpt lat="43.83346" lon="7.13015">
        <ele>523.59997558594</ele>
        <time>2020-01-11T14:09:17.000Z</time>
      </trkpt>
      <trkpt lat="43.83351" lon="7.13016">
        <ele>523</ele>
        <time>2020-01-11T14:09:18.000Z</time>
      </trkpt>
      <trkpt lat="43.83361" lon="7.13017">
        <ele>521.59997558594</ele>
        <time>2020-01-11T14:09:20.000Z</time>
      </trkpt>
      <trkpt lat="43.83367" lon="7.13017">
        <ele>521</ele>
        <time>2020-01-11T14:09:21.000Z</time>
      </trkpt>
      <trkpt lat="43.83372" lon="7.13017">
        <ele>520.40002441406</ele>
        <time>2020-01-11T14:09:22.000Z</time>
      </trkpt>
      <trkpt lat="43.83377" lon="7.13018">
        <ele>519.59997558594</ele>
        <time>2020-01-11T14:09:23.000Z</time>
      </trkpt>
      <trkpt lat="43.83382" lon="7.1302">
        <ele>519.20001220703</ele>
        <time>2020-01-11T14:09:24.000Z</time>
      </trkpt>
      <trkpt lat="43.83388" lon="7.13021">
        <ele>519</ele>
        <time>2020-01-11T14:09:25.000Z</time>
      </trkpt>
      <trkpt lat="43.83394" lon="7.13023">
        <ele>518.20001220703</ele>
        <time>2020-01-11T14:09:26.000Z</time>
      </trkpt>
      <trkpt lat="43.83409" lon="7.1303">
        <ele>517.20001220703</ele>
        <time>2020-01-11T14:09:29.000Z</time>
      </trkpt>
      <trkpt lat="43.83415" lon="7.13034">
        <ele>516.79998779297</ele>
        <time>2020-01-11T14:09:30.000Z</time>
      </trkpt>
      <trkpt lat="43.83427" lon="7.1304">
        <ele>515.59997558594</ele>
        <time>2020-01-11T14:09:32.000Z</time>
      </trkpt>
      <trkpt lat="43.83432" lon="7.13042">
        <ele>514</ele>
        <time>2020-01-11T14:09:33.000Z</time>
      </trkpt>
      <trkpt lat="43.83437" lon="7.13045">
        <ele>513</ele>
        <time>2020-01-11T14:09:34.000Z</time>
      </trkpt>
      <trkpt lat="43.83443" lon="7.13048">
        <ele>512</ele>
        <time>2020-01-11T14:09:35.000Z</time>
      </trkpt>
      <trkpt lat="43.83449" lon="7.1305">
        <ele>510</ele>
        <time>2020-01-11T14:09:36.000Z</time>
      </trkpt>
      <trkpt lat="43.83454" lon="7.13054">
        <ele>509.39999389648</ele>
        <time>2020-01-11T14:09:37.000Z</time>
      </trkpt>
      <trkpt lat="43.83463" lon="7.13059">
        <ele>508.60000610352</ele>
        <time>2020-01-11T14:09:39.000Z</time>
      </trkpt>
      <trkpt lat="43.83468" lon="7.13061">
        <ele>507.39999389648</ele>
        <time>2020-01-11T14:09:40.000Z</time>
      </trkpt>
      <trkpt lat="43.83476" lon="7.13068">
        <ele>504.79998779297</ele>
        <time>2020-01-11T14:09:42.000Z</time>
      </trkpt>
      <trkpt lat="43.83481" lon="7.13072">
        <ele>503.60000610352</ele>
        <time>2020-01-11T14:09:43.000Z</time>
      </trkpt>
      <trkpt lat="43.83485" lon="7.13075">
        <ele>502.39999389648</ele>
        <time>2020-01-11T14:09:44.000Z</time>
      </trkpt>
      <trkpt lat="43.8349" lon="7.13078">
        <ele>501.39999389648</ele>
        <time>2020-01-11T14:09:45.000Z</time>
      </trkpt>
      <trkpt lat="43.83495" lon="7.1308">
        <ele>500.20001220703</ele>
        <time>2020-01-11T14:09:46.000Z</time>
      </trkpt>
      <trkpt lat="43.83504" lon="7.13081">
        <ele>498.60000610352</ele>
        <time>2020-01-11T14:09:48.000Z</time>
      </trkpt>
      <trkpt lat="43.83509" lon="7.13081">
        <ele>497.60000610352</ele>
        <time>2020-01-11T14:09:49.000Z</time>
      </trkpt>
      <trkpt lat="43.83515" lon="7.13083">
        <ele>497</ele>
        <time>2020-01-11T14:09:50.000Z</time>
      </trkpt>
      <trkpt lat="43.8352" lon="7.13086">
        <ele>496.39999389648</ele>
        <time>2020-01-11T14:09:51.000Z</time>
      </trkpt>
      <trkpt lat="43.83529" lon="7.13089">
        <ele>495.20001220703</ele>
        <time>2020-01-11T14:09:53.000Z</time>
      </trkpt>
      <trkpt lat="43.83539" lon="7.13093">
        <ele>493.39999389648</ele>
        <time>2020-01-11T14:09:55.000Z</time>
      </trkpt>
      <trkpt lat="43.83544" lon="7.13096">
        <ele>492.79998779297</ele>
        <time>2020-01-11T14:09:56.000Z</time>
      </trkpt>
      <trkpt lat="43.83548" lon="7.13099">
        <ele>491.79998779297</ele>
        <time>2020-01-11T14:09:57.000Z</time>
      </trkpt>
      <trkpt lat="43.83552" lon="7.13101">
        <ele>490.39999389648</ele>
        <time>2020-01-11T14:09:58.000Z</time>
      </trkpt>
      <trkpt lat="43.83561" lon="7.13107">
        <ele>489</ele>
        <time>2020-01-11T14:10:00.000Z</time>
      </trkpt>
      <trkpt lat="43.83571" lon="7.13112">
        <ele>488</ele>
        <time>2020-01-11T14:10:02.000Z</time>
      </trkpt>
      <trkpt lat="43.83577" lon="7.13115">
        <ele>487.60000610352</ele>
        <time>2020-01-11T14:10:03.000Z</time>
      </trkpt>
      <trkpt lat="43.83587" lon="7.1312">
        <ele>486.60000610352</ele>
        <time>2020-01-11T14:10:05.000Z</time>
      </trkpt>
      <trkpt lat="43.83593" lon="7.13123">
        <ele>485.60000610352</ele>
        <time>2020-01-11T14:10:06.000Z</time>
      </trkpt>
      <trkpt lat="43.83598" lon="7.13124">
        <ele>484.39999389648</ele>
        <time>2020-01-11T14:10:07.000Z</time>
      </trkpt>
      <trkpt lat="43.83603" lon="7.13125">
        <ele>483.39999389648</ele>
        <time>2020-01-11T14:10:08.000Z</time>
      </trkpt>
      <trkpt lat="43.83608" lon="7.13126">
        <ele>483</ele>
        <time>2020-01-11T14:10:09.000Z</time>
      </trkpt>
      <trkpt lat="43.83613" lon="7.13126">
        <ele>481.60000610352</ele>
        <time>2020-01-11T14:10:10.000Z</time>
      </trkpt>
      <trkpt lat="43.83619" lon="7.13128">
        <ele>480.60000610352</ele>
        <time>2020-01-11T14:10:11.000Z</time>
      </trkpt>
      <trkpt lat="43.83627" lon="7.1313">
        <ele>480.60000610352</ele>
        <time>2020-01-11T14:10:13.000Z</time>
      </trkpt>
      <trkpt lat="43.83631" lon="7.1313">
        <ele>479.79998779297</ele>
        <time>2020-01-11T14:10:14.000Z</time>
      </trkpt>
      <trkpt lat="43.83636" lon="7.13131">
        <ele>479</ele>
        <time>2020-01-11T14:10:15.000Z</time>
      </trkpt>
      <trkpt lat="43.83639" lon="7.13131">
        <ele>477.79998779297</ele>
        <time>2020-01-11T14:10:16.000Z</time>
      </trkpt>
      <trkpt lat="43.83647" lon="7.13133">
        <ele>476.20001220703</ele>
        <time>2020-01-11T14:10:18.000Z</time>
      </trkpt>
      <trkpt lat="43.8365" lon="7.13133">
        <ele>475.20001220703</ele>
        <time>2020-01-11T14:10:19.000Z</time>
      </trkpt>
      <trkpt lat="43.83655" lon="7.13133">
        <ele>474</ele>
        <time>2020-01-11T14:10:20.000Z</time>
      </trkpt>
      <trkpt lat="43.83664" lon="7.13134">
        <ele>472.20001220703</ele>
        <time>2020-01-11T14:10:22.000Z</time>
      </trkpt>
      <trkpt lat="43.83667" lon="7.13137">
        <ele>471</ele>
        <time>2020-01-11T14:10:23.000Z</time>
      </trkpt>
      <trkpt lat="43.83671" lon="7.13137">
        <ele>469.79998779297</ele>
        <time>2020-01-11T14:10:24.000Z</time>
      </trkpt>
      <trkpt lat="43.83678" lon="7.13137">
        <ele>468</ele>
        <time>2020-01-11T14:10:26.000Z</time>
      </trkpt>
      <trkpt lat="43.8368" lon="7.13144">
        <ele>466</ele>
        <time>2020-01-11T14:10:29.000Z</time>
      </trkpt>
      <trkpt lat="43.83683" lon="7.13145">
        <ele>463.60000610352</ele>
        <time>2020-01-11T14:10:31.000Z</time>
      </trkpt>
      <trkpt lat="43.83687" lon="7.13146">
        <ele>462.60000610352</ele>
        <time>2020-01-11T14:10:32.000Z</time>
      </trkpt>
      <trkpt lat="43.83689" lon="7.13149">
        <ele>462</ele>
        <time>2020-01-11T14:10:33.000Z</time>
      </trkpt>
      <trkpt lat="43.83693" lon="7.13155">
        <ele>460.20001220703</ele>
        <time>2020-01-11T14:10:35.000Z</time>
      </trkpt>
      <trkpt lat="43.83695" lon="7.13158">
        <ele>458.79998779297</ele>
        <time>2020-01-11T14:10:37.000Z</time>
      </trkpt>
      <trkpt lat="43.83695" lon="7.13158">
        <ele>457</ele>
        <time>2020-01-11T14:10:39.000Z</time>
      </trkpt>
      <trkpt lat="43.83695" lon="7.13158">
        <ele>456</ele>
        <time>2020-01-11T14:10:41.000Z</time>
      </trkpt>
      <trkpt lat="43.83696" lon="7.13157">
        <ele>455</ele>
        <time>2020-01-11T14:10:50.000Z</time>
      </trkpt>
      <trkpt lat="43.83696" lon="7.13157">
        <ele>456</ele>
        <time>2020-01-11T14:11:08.000Z</time>
      </trkpt>
      <trkpt lat="43.83697" lon="7.13157">
        <ele>456.20001220703</ele>
        <time>2020-01-11T14:11:09.000Z</time>
      </trkpt>
      <trkpt lat="43.83697" lon="7.13157">
        <ele>457.20001220703</ele>
        <time>2020-01-11T14:11:15.000Z</time>
      </trkpt>
      <trkpt lat="43.83697" lon="7.13157">
        <ele>458</ele>
        <time>2020-01-11T14:11:28.000Z</time>
      </trkpt>
      <trkpt lat="43.83697" lon="7.13157">
        <ele>458</ele>
        <time>2020-01-11T14:11:46.000Z</time>
      </trkpt>
      <trkpt lat="43.83698" lon="7.13157">
        <ele>458.20001220703</ele>
        <time>2020-01-11T14:11:53.000Z</time>
      </trkpt>
      <trkpt lat="43.83698" lon="7.13157">
        <ele>458</ele>
        <time>2020-01-11T14:11:57.000Z</time>
      </trkpt>
      <trkpt lat="43.837" lon="7.1316">
        <ele>457.79998779297</ele>
        <time>2020-01-11T14:12:07.000Z</time>
      </trkpt>
      <trkpt lat="43.83705" lon="7.13167">
        <ele>457.20001220703</ele>
        <time>2020-01-11T14:12:10.000Z</time>
      </trkpt>
      <trkpt lat="43.83712" lon="7.13173">
        <ele>456.60000610352</ele>
        <time>2020-01-11T14:12:12.000Z</time>
      </trkpt>
      <trkpt lat="43.83715" lon="7.13177">
        <ele>456.20001220703</ele>
        <time>2020-01-11T14:12:13.000Z</time>
      </trkpt>
      <trkpt lat="43.83718" lon="7.1318">
        <ele>455.79998779297</ele>
        <time>2020-01-11T14:12:14.000Z</time>
      </trkpt>
      <trkpt lat="43.83722" lon="7.13184">
        <ele>455.79998779297</ele>
        <time>2020-01-11T14:12:15.000Z</time>
      </trkpt>
      <trkpt lat="43.83729" lon="7.13189">
        <ele>454.39999389648</ele>
        <time>2020-01-11T14:12:17.000Z</time>
      </trkpt>
      <trkpt lat="43.83736" lon="7.13189">
        <ele>452.79998779297</ele>
        <time>2020-01-11T14:12:19.000Z</time>
      </trkpt>
      <trkpt lat="43.83739" lon="7.13186">
        <ele>452.20001220703</ele>
        <time>2020-01-11T14:12:20.000Z</time>
      </trkpt>
      <trkpt lat="43.83743" lon="7.13186">
        <ele>451.39999389648</ele>
        <time>2020-01-11T14:12:21.000Z</time>
      </trkpt>
      <trkpt lat="43.83748" lon="7.13186">
        <ele>449.79998779297</ele>
        <time>2020-01-11T14:12:23.000Z</time>
      </trkpt>
      <trkpt lat="43.83752" lon="7.13185">
        <ele>448.39999389648</ele>
        <time>2020-01-11T14:12:25.000Z</time>
      </trkpt>
      <trkpt lat="43.83754" lon="7.13183">
        <ele>447.79998779297</ele>
        <time>2020-01-11T14:12:26.000Z</time>
      </trkpt>
      <trkpt lat="43.83755" lon="7.13184">
        <ele>447</ele>
        <time>2020-01-11T14:12:27.000Z</time>
      </trkpt>
      <trkpt lat="43.83754" lon="7.13193">
        <ele>445.79998779297</ele>
        <time>2020-01-11T14:12:30.000Z</time>
      </trkpt>
      <trkpt lat="43.83755" lon="7.13196">
        <ele>445.20001220703</ele>
        <time>2020-01-11T14:12:31.000Z</time>
      </trkpt>
      <trkpt lat="43.83755" lon="7.132">
        <ele>444.79998779297</ele>
        <time>2020-01-11T14:12:32.000Z</time>
      </trkpt>
      <trkpt lat="43.83759" lon="7.13204">
        <ele>443.60000610352</ele>
        <time>2020-01-11T14:12:34.000Z</time>
      </trkpt>
      <trkpt lat="43.83767" lon="7.13203">
        <ele>441.39999389648</ele>
        <time>2020-01-11T14:12:36.000Z</time>
      </trkpt>
      <trkpt lat="43.8377" lon="7.13201">
        <ele>441</ele>
        <time>2020-01-11T14:12:37.000Z</time>
      </trkpt>
      <trkpt lat="43.83774" lon="7.13201">
        <ele>440</ele>
        <time>2020-01-11T14:12:38.000Z</time>
      </trkpt>
      <trkpt lat="43.8378" lon="7.13202">
        <ele>438.60000610352</ele>
        <time>2020-01-11T14:12:40.000Z</time>
      </trkpt>
      <trkpt lat="43.83783" lon="7.13197">
        <ele>436.60000610352</ele>
        <time>2020-01-11T14:12:42.000Z</time>
      </trkpt>
      <trkpt lat="43.83785" lon="7.13193">
        <ele>436.60000610352</ele>
        <time>2020-01-11T14:12:43.000Z</time>
      </trkpt>
      <trkpt lat="43.8379" lon="7.13186">
        <ele>435.39999389648</ele>
        <time>2020-01-11T14:12:45.000Z</time>
      </trkpt>
      <trkpt lat="43.83798" lon="7.13182">
        <ele>434</ele>
        <time>2020-01-11T14:12:48.000Z</time>
      </trkpt>
      <trkpt lat="43.83797" lon="7.13189">
        <ele>432.79998779297</ele>
        <time>2020-01-11T14:12:50.000Z</time>
      </trkpt>
      <trkpt lat="43.83798" lon="7.13193">
        <ele>432</ele>
        <time>2020-01-11T14:12:51.000Z</time>
      </trkpt>
      <trkpt lat="43.83798" lon="7.13197">
        <ele>431.39999389648</ele>
        <time>2020-01-11T14:12:52.000Z</time>
      </trkpt>
      <trkpt lat="43.83799" lon="7.132">
        <ele>430.39999389648</ele>
        <time>2020-01-11T14:12:53.000Z</time>
      </trkpt>
      <trkpt lat="43.83802" lon="7.13195">
        <ele>429.39999389648</ele>
        <time>2020-01-11T14:12:55.000Z</time>
      </trkpt>
      <trkpt lat="43.83803" lon="7.13191">
        <ele>428.79998779297</ele>
        <time>2020-01-11T14:12:56.000Z</time>
      </trkpt>
      <trkpt lat="43.83808" lon="7.13186">
        <ele>427.60000610352</ele>
        <time>2020-01-11T14:12:58.000Z</time>
      </trkpt>
      <trkpt lat="43.83811" lon="7.13181">
        <ele>427</ele>
        <time>2020-01-11T14:12:59.000Z</time>
      </trkpt>
      <trkpt lat="43.83813" lon="7.13177">
        <ele>426.20001220703</ele>
        <time>2020-01-11T14:13:00.000Z</time>
      </trkpt>
      <trkpt lat="43.83815" lon="7.13171">
        <ele>425.60000610352</ele>
        <time>2020-01-11T14:13:01.000Z</time>
      </trkpt>
      <trkpt lat="43.83818" lon="7.13166">
        <ele>425</ele>
        <time>2020-01-11T14:13:02.000Z</time>
      </trkpt>
      <trkpt lat="43.83821" lon="7.13161">
        <ele>424.60000610352</ele>
        <time>2020-01-11T14:13:03.000Z</time>
      </trkpt>
      <trkpt lat="43.83828" lon="7.13162">
        <ele>423.39999389648</ele>
        <time>2020-01-11T14:13:05.000Z</time>
      </trkpt>
      <trkpt lat="43.83843" lon="7.13167">
        <ele>423.20001220703</ele>
        <time>2020-01-11T14:13:08.000Z</time>
      </trkpt>
      <trkpt lat="43.83846" lon="7.13167">
        <ele>423</ele>
        <time>2020-01-11T14:13:09.000Z</time>
      </trkpt>
      <trkpt lat="43.83855" lon="7.13168">
        <ele>423.20001220703</ele>
        <time>2020-01-11T14:13:11.000Z</time>
      </trkpt>
      <trkpt lat="43.83866" lon="7.13175">
        <ele>423.60000610352</ele>
        <time>2020-01-11T14:13:14.000Z</time>
      </trkpt>
      <trkpt lat="43.83882" lon="7.13172">
        <ele>423</ele>
        <time>2020-01-11T14:13:18.000Z</time>
      </trkpt>
      <trkpt lat="43.83892" lon="7.13172">
        <ele>422.60000610352</ele>
        <time>2020-01-11T14:13:20.000Z</time>
      </trkpt>
      <trkpt lat="43.83897" lon="7.13171">
        <ele>422</ele>
        <time>2020-01-11T14:13:21.000Z</time>
      </trkpt>
      <trkpt lat="43.83902" lon="7.1317">
        <ele>421.79998779297</ele>
        <time>2020-01-11T14:13:22.000Z</time>
      </trkpt>
      <trkpt lat="43.83922" lon="7.13169">
        <ele>420.60000610352</ele>
        <time>2020-01-11T14:13:26.000Z</time>
      </trkpt>
      <trkpt lat="43.83928" lon="7.1317">
        <ele>419.79998779297</ele>
        <time>2020-01-11T14:13:27.000Z</time>
      </trkpt>
      <trkpt lat="43.83934" lon="7.13169">
        <ele>418.79998779297</ele>
        <time>2020-01-11T14:13:28.000Z</time>
      </trkpt>
      <trkpt lat="43.83947" lon="7.13167">
        <ele>416.60000610352</ele>
        <time>2020-01-11T14:13:30.000Z</time>
      </trkpt>
      <trkpt lat="43.83952" lon="7.13165">
        <ele>415.60000610352</ele>
        <time>2020-01-11T14:13:31.000Z</time>
      </trkpt>
      <trkpt lat="43.83957" lon="7.13167">
        <ele>415</ele>
        <time>2020-01-11T14:13:32.000Z</time>
      </trkpt>
      <trkpt lat="43.83964" lon="7.1317">
        <ele>413.60000610352</ele>
        <time>2020-01-11T14:13:34.000Z</time>
      </trkpt>
      <trkpt lat="43.83971" lon="7.13163">
        <ele>412.60000610352</ele>
        <time>2020-01-11T14:13:36.000Z</time>
      </trkpt>
      <trkpt lat="43.83975" lon="7.13158">
        <ele>412.39999389648</ele>
        <time>2020-01-11T14:13:37.000Z</time>
      </trkpt>
      <trkpt lat="43.83981" lon="7.13148">
        <ele>411.20001220703</ele>
        <time>2020-01-11T14:13:39.000Z</time>
      </trkpt>
      <trkpt lat="43.83993" lon="7.13129">
        <ele>409.60000610352</ele>
        <time>2020-01-11T14:13:42.000Z</time>
      </trkpt>
      <trkpt lat="43.84004" lon="7.13117">
        <ele>408.20001220703</ele>
        <time>2020-01-11T14:13:45.000Z</time>
      </trkpt>
      <trkpt lat="43.84008" lon="7.13117">
        <ele>407.39999389648</ele>
        <time>2020-01-11T14:13:46.000Z</time>
      </trkpt>
      <trkpt lat="43.8401" lon="7.13119">
        <ele>406.79998779297</ele>
        <time>2020-01-11T14:13:47.000Z</time>
      </trkpt>
      <trkpt lat="43.84014" lon="7.13119">
        <ele>406</ele>
        <time>2020-01-11T14:13:49.000Z</time>
      </trkpt>
      <trkpt lat="43.84016" lon="7.13119">
        <ele>405.60000610352</ele>
        <time>2020-01-11T14:13:50.000Z</time>
      </trkpt>
      <trkpt lat="43.84029" lon="7.13116">
        <ele>405.60000610352</ele>
        <time>2020-01-11T14:13:53.000Z</time>
      </trkpt>
      <trkpt lat="43.8404" lon="7.13113">
        <ele>404.79998779297</ele>
        <time>2020-01-11T14:13:55.000Z</time>
      </trkpt>
      <trkpt lat="43.84044" lon="7.13111">
        <ele>404.20001220703</ele>
        <time>2020-01-11T14:13:56.000Z</time>
      </trkpt>
      <trkpt lat="43.84053" lon="7.13106">
        <ele>403.20001220703</ele>
        <time>2020-01-11T14:13:58.000Z</time>
      </trkpt>
      <trkpt lat="43.84061" lon="7.13104">
        <ele>402.20001220703</ele>
        <time>2020-01-11T14:14:01.000Z</time>
      </trkpt>
      <trkpt lat="43.84063" lon="7.13101">
        <ele>402.20001220703</ele>
        <time>2020-01-11T14:14:02.000Z</time>
      </trkpt>
      <trkpt lat="43.84066" lon="7.13097">
        <ele>401.79998779297</ele>
        <time>2020-01-11T14:14:04.000Z</time>
      </trkpt>
      <trkpt lat="43.8407" lon="7.13096">
        <ele>400.79998779297</ele>
        <time>2020-01-11T14:14:05.000Z</time>
      </trkpt>
      <trkpt lat="43.84078" lon="7.13097">
        <ele>399.20001220703</ele>
        <time>2020-01-11T14:14:07.000Z</time>
      </trkpt>
      <trkpt lat="43.84083" lon="7.13098">
        <ele>398</ele>
        <time>2020-01-11T14:14:08.000Z</time>
      </trkpt>
      <trkpt lat="43.84088" lon="7.13099">
        <ele>396.79998779297</ele>
        <time>2020-01-11T14:14:09.000Z</time>
      </trkpt>
      <trkpt lat="43.84093" lon="7.131">
        <ele>396.20001220703</ele>
        <time>2020-01-11T14:14:10.000Z</time>
      </trkpt>
      <trkpt lat="43.84098" lon="7.13101">
        <ele>394.79998779297</ele>
        <time>2020-01-11T14:14:11.000Z</time>
      </trkpt>
      <trkpt lat="43.84104" lon="7.13104">
        <ele>394</ele>
        <time>2020-01-11T14:14:12.000Z</time>
      </trkpt>
      <trkpt lat="43.84107" lon="7.13107">
        <ele>393.39999389648</ele>
        <time>2020-01-11T14:14:13.000Z</time>
      </trkpt>
      <trkpt lat="43.84112" lon="7.13104">
        <ele>391.79998779297</ele>
        <time>2020-01-11T14:14:15.000Z</time>
      </trkpt>
      <trkpt lat="43.84115" lon="7.13102">
        <ele>391.20001220703</ele>
        <time>2020-01-11T14:14:16.000Z</time>
      </trkpt>
      <trkpt lat="43.84117" lon="7.13098">
        <ele>390.20001220703</ele>
        <time>2020-01-11T14:14:17.000Z</time>
      </trkpt>
      <trkpt lat="43.84119" lon="7.13097">
        <ele>389</ele>
        <time>2020-01-11T14:14:18.000Z</time>
      </trkpt>
      <trkpt lat="43.84122" lon="7.13098">
        <ele>388.39999389648</ele>
        <time>2020-01-11T14:14:19.000Z</time>
      </trkpt>
      <trkpt lat="43.84125" lon="7.131">
        <ele>387.60000610352</ele>
        <time>2020-01-11T14:14:20.000Z</time>
      </trkpt>
      <trkpt lat="43.84136" lon="7.13105">
        <ele>386</ele>
        <time>2020-01-11T14:14:22.000Z</time>
      </trkpt>
      <trkpt lat="43.84142" lon="7.13108">
        <ele>385.39999389648</ele>
        <time>2020-01-11T14:14:23.000Z</time>
      </trkpt>
      <trkpt lat="43.84147" lon="7.1311">
        <ele>384.20001220703</ele>
        <time>2020-01-11T14:14:24.000Z</time>
      </trkpt>
      <trkpt lat="43.84153" lon="7.1311">
        <ele>383</ele>
        <time>2020-01-11T14:14:25.000Z</time>
      </trkpt>
      <trkpt lat="43.84159" lon="7.13111">
        <ele>381.79998779297</ele>
        <time>2020-01-11T14:14:26.000Z</time>
      </trkpt>
      <trkpt lat="43.84163" lon="7.13113">
        <ele>380.60000610352</ele>
        <time>2020-01-11T14:14:27.000Z</time>
      </trkpt>
      <trkpt lat="43.84165" lon="7.13118">
        <ele>379.39999389648</ele>
        <time>2020-01-11T14:14:28.000Z</time>
      </trkpt>
      <trkpt lat="43.84168" lon="7.13118">
        <ele>378.39999389648</ele>
        <time>2020-01-11T14:14:29.000Z</time>
      </trkpt>
      <trkpt lat="43.84169" lon="7.13115">
        <ele>377.60000610352</ele>
        <time>2020-01-11T14:14:30.000Z</time>
      </trkpt>
      <trkpt lat="43.84171" lon="7.13111">
        <ele>376.60000610352</ele>
        <time>2020-01-11T14:14:31.000Z</time>
      </trkpt>
      <trkpt lat="43.84175" lon="7.13112">
        <ele>375.60000610352</ele>
        <time>2020-01-11T14:14:32.000Z</time>
      </trkpt>
      <trkpt lat="43.84178" lon="7.13116">
        <ele>374.39999389648</ele>
        <time>2020-01-11T14:14:33.000Z</time>
      </trkpt>
      <trkpt lat="43.84181" lon="7.1312">
        <ele>373.20001220703</ele>
        <time>2020-01-11T14:14:34.000Z</time>
      </trkpt>
      <trkpt lat="43.84184" lon="7.13122">
        <ele>372.79998779297</ele>
        <time>2020-01-11T14:14:35.000Z</time>
      </trkpt>
      <trkpt lat="43.84188" lon="7.13124">
        <ele>372</ele>
        <time>2020-01-11T14:14:37.000Z</time>
      </trkpt>
      <trkpt lat="43.8419" lon="7.13124">
        <ele>371</ele>
        <time>2020-01-11T14:14:38.000Z</time>
      </trkpt>
      <trkpt lat="43.84193" lon="7.13125">
        <ele>370</ele>
        <time>2020-01-11T14:14:39.000Z</time>
      </trkpt>
      <trkpt lat="43.84195" lon="7.13128">
        <ele>369.20001220703</ele>
        <time>2020-01-11T14:14:40.000Z</time>
      </trkpt>
      <trkpt lat="43.84197" lon="7.13132">
        <ele>368</ele>
        <time>2020-01-11T14:14:41.000Z</time>
      </trkpt>
      <trkpt lat="43.84196" lon="7.13136">
        <ele>366.39999389648</ele>
        <time>2020-01-11T14:14:42.000Z</time>
      </trkpt>
      <trkpt lat="43.84197" lon="7.13143">
        <ele>364.60000610352</ele>
        <time>2020-01-11T14:14:44.000Z</time>
      </trkpt>
      <trkpt lat="43.84199" lon="7.13144">
        <ele>363.39999389648</ele>
        <time>2020-01-11T14:14:45.000Z</time>
      </trkpt>
      <trkpt lat="43.842" lon="7.13142">
        <ele>362.39999389648</ele>
        <time>2020-01-11T14:14:46.000Z</time>
      </trkpt>
      <trkpt lat="43.84204" lon="7.13135">
        <ele>361</ele>
        <time>2020-01-11T14:14:48.000Z</time>
      </trkpt>
      <trkpt lat="43.84208" lon="7.13139">
        <ele>359.79998779297</ele>
        <time>2020-01-11T14:14:50.000Z</time>
      </trkpt>
      <trkpt lat="43.84212" lon="7.13139">
        <ele>358</ele>
        <time>2020-01-11T14:14:53.000Z</time>
      </trkpt>
      <trkpt lat="43.84215" lon="7.13144">
        <ele>356.79998779297</ele>
        <time>2020-01-11T14:14:56.000Z</time>
      </trkpt>
      <trkpt lat="43.84217" lon="7.13146">
        <ele>355.39999389648</ele>
        <time>2020-01-11T14:14:58.000Z</time>
      </trkpt>
      <trkpt lat="43.84218" lon="7.13147">
        <ele>354.60000610352</ele>
        <time>2020-01-11T14:14:59.000Z</time>
      </trkpt>
      <trkpt lat="43.8422" lon="7.13149">
        <ele>353.79998779297</ele>
        <time>2020-01-11T14:15:00.000Z</time>
      </trkpt>
      <trkpt lat="43.84221" lon="7.13149">
        <ele>352.20001220703</ele>
        <time>2020-01-11T14:15:02.000Z</time>
      </trkpt>
      <trkpt lat="43.84222" lon="7.13146">
        <ele>351.20001220703</ele>
        <time>2020-01-11T14:15:04.000Z</time>
      </trkpt>
      <trkpt lat="43.84224" lon="7.13145">
        <ele>350.39999389648</ele>
        <time>2020-01-11T14:15:05.000Z</time>
      </trkpt>
      <trkpt lat="43.84225" lon="7.13145">
        <ele>349.79998779297</ele>
        <time>2020-01-11T14:15:06.000Z</time>
      </trkpt>
      <trkpt lat="43.84228" lon="7.13147">
        <ele>348.79998779297</ele>
        <time>2020-01-11T14:15:08.000Z</time>
      </trkpt>
      <trkpt lat="43.8423" lon="7.13148">
        <ele>348.39999389648</ele>
        <time>2020-01-11T14:15:09.000Z</time>
      </trkpt>
      <trkpt lat="43.84233" lon="7.13151">
        <ele>348.20001220703</ele>
        <time>2020-01-11T14:15:10.000Z</time>
      </trkpt>
      <trkpt lat="43.84235" lon="7.13154">
        <ele>347.79998779297</ele>
        <time>2020-01-11T14:15:11.000Z</time>
      </trkpt>
      <trkpt lat="43.84239" lon="7.13157">
        <ele>347</ele>
        <time>2020-01-11T14:15:13.000Z</time>
      </trkpt>
      <trkpt lat="43.8424" lon="7.13157">
        <ele>346</ele>
        <time>2020-01-11T14:15:14.000Z</time>
      </trkpt>
      <trkpt lat="43.84243" lon="7.13159">
        <ele>344.20001220703</ele>
        <time>2020-01-11T14:15:16.000Z</time>
      </trkpt>
      <trkpt lat="43.84246" lon="7.13165">
        <ele>342.20001220703</ele>
        <time>2020-01-11T14:15:18.000Z</time>
      </trkpt>
      <trkpt lat="43.84251" lon="7.13167">
        <ele>340.60000610352</ele>
        <time>2020-01-11T14:15:20.000Z</time>
      </trkpt>
      <trkpt lat="43.84254" lon="7.13169">
        <ele>339.79998779297</ele>
        <time>2020-01-11T14:15:21.000Z</time>
      </trkpt>
      <trkpt lat="43.84256" lon="7.13171">
        <ele>338.79998779297</ele>
        <time>2020-01-11T14:15:22.000Z</time>
      </trkpt>
      <trkpt lat="43.84258" lon="7.13178">
        <ele>338</ele>
        <time>2020-01-11T14:15:24.000Z</time>
      </trkpt>
      <trkpt lat="43.84259" lon="7.1318">
        <ele>337.60000610352</ele>
        <time>2020-01-11T14:15:25.000Z</time>
      </trkpt>
      <trkpt lat="43.84261" lon="7.13183">
        <ele>336.39999389648</ele>
        <time>2020-01-11T14:15:26.000Z</time>
      </trkpt>
      <trkpt lat="43.84268" lon="7.13189">
        <ele>334.60000610352</ele>
        <time>2020-01-11T14:15:28.000Z</time>
      </trkpt>
      <trkpt lat="43.84274" lon="7.13196">
        <ele>333</ele>
        <time>2020-01-11T14:15:30.000Z</time>
      </trkpt>
      <trkpt lat="43.84277" lon="7.13199">
        <ele>332.20001220703</ele>
        <time>2020-01-11T14:15:32.000Z</time>
      </trkpt>
      <trkpt lat="43.8428" lon="7.13199">
        <ele>331.39999389648</ele>
        <time>2020-01-11T14:15:33.000Z</time>
      </trkpt>
      <trkpt lat="43.84282" lon="7.13199">
        <ele>330.39999389648</ele>
        <time>2020-01-11T14:15:34.000Z</time>
      </trkpt>
      <trkpt lat="43.84285" lon="7.13203">
        <ele>328.60000610352</ele>
        <time>2020-01-11T14:15:36.000Z</time>
      </trkpt>
      <trkpt lat="43.84287" lon="7.13202">
        <ele>327</ele>
        <time>2020-01-11T14:15:37.000Z</time>
      </trkpt>
      <trkpt lat="43.84291" lon="7.13197">
        <ele>325.39999389648</ele>
        <time>2020-01-11T14:15:39.000Z</time>
      </trkpt>
      <trkpt lat="43.84294" lon="7.13193">
        <ele>324.79998779297</ele>
        <time>2020-01-11T14:15:40.000Z</time>
      </trkpt>
      <trkpt lat="43.84298" lon="7.13188">
        <ele>324.39999389648</ele>
        <time>2020-01-11T14:15:41.000Z</time>
      </trkpt>
      <trkpt lat="43.84303" lon="7.13181">
        <ele>323</ele>
        <time>2020-01-11T14:15:43.000Z</time>
      </trkpt>
      <trkpt lat="43.84304" lon="7.13177">
        <ele>321.79998779297</ele>
        <time>2020-01-11T14:15:45.000Z</time>
      </trkpt>
      <trkpt lat="43.84303" lon="7.13174">
        <ele>321</ele>
        <time>2020-01-11T14:15:46.000Z</time>
      </trkpt>
      <trkpt lat="43.84301" lon="7.13171">
        <ele>320.39999389648</ele>
        <time>2020-01-11T14:15:47.000Z</time>
      </trkpt>
      <trkpt lat="43.84303" lon="7.13169">
        <ele>319.79998779297</ele>
        <time>2020-01-11T14:15:49.000Z</time>
      </trkpt>
      <trkpt lat="43.84305" lon="7.1317">
        <ele>319.20001220703</ele>
        <time>2020-01-11T14:15:50.000Z</time>
      </trkpt>
      <trkpt lat="43.84311" lon="7.13176">
        <ele>317.79998779297</ele>
        <time>2020-01-11T14:15:52.000Z</time>
      </trkpt>
      <trkpt lat="43.84314" lon="7.1318">
        <ele>317.20001220703</ele>
        <time>2020-01-11T14:15:53.000Z</time>
      </trkpt>
      <trkpt lat="43.84318" lon="7.13184">
        <ele>316.39999389648</ele>
        <time>2020-01-11T14:15:54.000Z</time>
      </trkpt>
      <trkpt lat="43.84322" lon="7.13188">
        <ele>315.39999389648</ele>
        <time>2020-01-11T14:15:55.000Z</time>
      </trkpt>
      <trkpt lat="43.84326" lon="7.13193">
        <ele>314.39999389648</ele>
        <time>2020-01-11T14:15:56.000Z</time>
      </trkpt>
      <trkpt lat="43.84329" lon="7.13197">
        <ele>314</ele>
        <time>2020-01-11T14:15:57.000Z</time>
      </trkpt>
      <trkpt lat="43.84334" lon="7.132">
        <ele>313.39999389648</ele>
        <time>2020-01-11T14:15:58.000Z</time>
      </trkpt>
      <trkpt lat="43.84341" lon="7.13206">
        <ele>311.60000610352</ele>
        <time>2020-01-11T14:16:00.000Z</time>
      </trkpt>
      <trkpt lat="43.84348" lon="7.1321">
        <ele>311.39999389648</ele>
        <time>2020-01-11T14:16:02.000Z</time>
      </trkpt>
      <trkpt lat="43.84353" lon="7.13214">
        <ele>310.60000610352</ele>
        <time>2020-01-11T14:16:04.000Z</time>
      </trkpt>
      <trkpt lat="43.84353" lon="7.13216">
        <ele>310</ele>
        <time>2020-01-11T14:16:05.000Z</time>
      </trkpt>
      <trkpt lat="43.84353" lon="7.13217">
        <ele>308.79998779297</ele>
        <time>2020-01-11T14:16:06.000Z</time>
      </trkpt>
      <trkpt lat="43.84353" lon="7.13217">
        <ele>307.60000610352</ele>
        <time>2020-01-11T14:16:08.000Z</time>
      </trkpt>
      <trkpt lat="43.84353" lon="7.13217">
        <ele>307.20001220703</ele>
        <time>2020-01-11T14:16:10.000Z</time>
      </trkpt>
      <trkpt lat="43.84353" lon="7.13217">
        <ele>306.60000610352</ele>
        <time>2020-01-11T14:16:17.000Z</time>
      </trkpt>
      <trkpt lat="43.84352" lon="7.13217">
        <ele>305.79998779297</ele>
        <time>2020-01-11T14:16:31.000Z</time>
      </trkpt>
      <trkpt lat="43.84352" lon="7.13219">
        <ele>306</ele>
        <time>2020-01-11T14:16:39.000Z</time>
      </trkpt>
      <trkpt lat="43.84352" lon="7.13219">
        <ele>305.79998779297</ele>
        <time>2020-01-11T14:16:49.000Z</time>
      </trkpt>
      <trkpt lat="43.84352" lon="7.13218">
        <ele>305.39999389648</ele>
        <time>2020-01-11T14:16:52.000Z</time>
      </trkpt>
      <trkpt lat="43.84351" lon="7.13218">
        <ele>305.20001220703</ele>
        <time>2020-01-11T14:16:56.000Z</time>
      </trkpt>
      <trkpt lat="43.8435" lon="7.13218">
        <ele>305.20001220703</ele>
        <time>2020-01-11T14:17:03.000Z</time>
      </trkpt>
      <trkpt lat="43.8435" lon="7.13217">
        <ele>305.60000610352</ele>
        <time>2020-01-11T14:17:13.000Z</time>
      </trkpt>
      <trkpt lat="43.84349" lon="7.13216">
        <ele>305.20001220703</ele>
        <time>2020-01-11T14:17:18.000Z</time>
      </trkpt>
      <trkpt lat="43.84349" lon="7.13215">
        <ele>305.39999389648</ele>
        <time>2020-01-11T14:17:25.000Z</time>
      </trkpt>
      <trkpt lat="43.84349" lon="7.13215">
        <ele>305</ele>
        <time>2020-01-11T14:17:32.000Z</time>
      </trkpt>
      <trkpt lat="43.84349" lon="7.13215">
        <ele>304.79998779297</ele>
        <time>2020-01-11T14:17:37.000Z</time>
      </trkpt>
      <trkpt lat="43.84349" lon="7.13216">
        <ele>304.60000610352</ele>
        <time>2020-01-11T14:17:43.000Z</time>
      </trkpt>
      <trkpt lat="43.84349" lon="7.13217">
        <ele>305</ele>
        <time>2020-01-11T14:17:48.000Z</time>
      </trkpt>
      <trkpt lat="43.84346" lon="7.1322">
        <ele>305.20001220703</ele>
        <time>2020-01-11T14:17:56.000Z</time>
      </trkpt>
      <trkpt lat="43.84337" lon="7.13232">
        <ele>305</ele>
        <time>2020-01-11T14:18:01.000Z</time>
      </trkpt>
      <trkpt lat="43.84331" lon="7.13243">
        <ele>305.20001220703</ele>
        <time>2020-01-11T14:18:06.000Z</time>
      </trkpt>
      <trkpt lat="43.84318" lon="7.13256">
        <ele>305.20001220703</ele>
        <time>2020-01-11T14:18:13.000Z</time>
      </trkpt>
      <trkpt lat="43.84313" lon="7.13263">
        <ele>304.60000610352</ele>
        <time>2020-01-11T14:18:16.000Z</time>
      </trkpt>
      <trkpt lat="43.84311" lon="7.13269">
        <ele>304.60000610352</ele>
        <time>2020-01-11T14:18:17.000Z</time>
      </trkpt>
      <trkpt lat="43.8431" lon="7.13274">
        <ele>304.20001220703</ele>
        <time>2020-01-11T14:18:18.000Z</time>
      </trkpt>
      <trkpt lat="43.84312" lon="7.13279">
        <ele>303</ele>
        <time>2020-01-11T14:18:20.000Z</time>
      </trkpt>
      <trkpt lat="43.84313" lon="7.13286">
        <ele>301.39999389648</ele>
        <time>2020-01-11T14:18:22.000Z</time>
      </trkpt>
      <trkpt lat="43.8431" lon="7.13289">
        <ele>300.20001220703</ele>
        <time>2020-01-11T14:18:23.000Z</time>
      </trkpt>
      <trkpt lat="43.84304" lon="7.13294">
        <ele>299.39999389648</ele>
        <time>2020-01-11T14:18:25.000Z</time>
      </trkpt>
      <trkpt lat="43.84301" lon="7.13297">
        <ele>298.60000610352</ele>
        <time>2020-01-11T14:18:26.000Z</time>
      </trkpt>
      <trkpt lat="43.84294" lon="7.13302">
        <ele>298.39999389648</ele>
        <time>2020-01-11T14:18:28.000Z</time>
      </trkpt>
      <trkpt lat="43.84284" lon="7.13315">
        <ele>298.79998779297</ele>
        <time>2020-01-11T14:18:32.000Z</time>
      </trkpt>
      <trkpt lat="43.84275" lon="7.13331">
        <ele>299.79998779297</ele>
        <time>2020-01-11T14:18:36.000Z</time>
      </trkpt>
      <trkpt lat="43.8427" lon="7.13336">
        <ele>299.79998779297</ele>
        <time>2020-01-11T14:18:38.000Z</time>
      </trkpt>
      <trkpt lat="43.84267" lon="7.13336">
        <ele>299.79998779297</ele>
        <time>2020-01-11T14:18:41.000Z</time>
      </trkpt>
      <trkpt lat="43.84264" lon="7.13337">
        <ele>300.79998779297</ele>
        <time>2020-01-11T14:18:45.000Z</time>
      </trkpt>
      <trkpt lat="43.84262" lon="7.13337">
        <ele>301.20001220703</ele>
        <time>2020-01-11T14:18:47.000Z</time>
      </trkpt>
      <trkpt lat="43.84258" lon="7.13339">
        <ele>302</ele>
        <time>2020-01-11T14:18:53.000Z</time>
      </trkpt>
      <trkpt lat="43.84256" lon="7.13341">
        <ele>302.39999389648</ele>
        <time>2020-01-11T14:18:55.000Z</time>
      </trkpt>
      <trkpt lat="43.84255" lon="7.13341">
        <ele>302.60000610352</ele>
        <time>2020-01-11T14:18:56.000Z</time>
      </trkpt>
      <trkpt lat="43.84253" lon="7.13342">
        <ele>303</ele>
        <time>2020-01-11T14:19:00.000Z</time>
      </trkpt>
      <trkpt lat="43.84252" lon="7.13343">
        <ele>303.20001220703</ele>
        <time>2020-01-11T14:19:01.000Z</time>
      </trkpt>
      <trkpt lat="43.8425" lon="7.13345">
        <ele>303.60000610352</ele>
        <time>2020-01-11T14:19:04.000Z</time>
      </trkpt>
      <trkpt lat="43.84247" lon="7.13349">
        <ele>303.79998779297</ele>
        <time>2020-01-11T14:19:06.000Z</time>
      </trkpt>
      <trkpt lat="43.84238" lon="7.13358">
        <ele>304</ele>
        <time>2020-01-11T14:19:10.000Z</time>
      </trkpt>
      <trkpt lat="43.84236" lon="7.1336">
        <ele>304.20001220703</ele>
        <time>2020-01-11T14:19:11.000Z</time>
      </trkpt>
      <trkpt lat="43.84225" lon="7.13373">
        <ele>305</ele>
        <time>2020-01-11T14:19:17.000Z</time>
      </trkpt>
      <trkpt lat="43.84223" lon="7.13375">
        <ele>305.20001220703</ele>
        <time>2020-01-11T14:19:18.000Z</time>
      </trkpt>
      <trkpt lat="43.84214" lon="7.13385">
        <ele>306</ele>
        <time>2020-01-11T14:19:23.000Z</time>
      </trkpt>
      <trkpt lat="43.84212" lon="7.13386">
        <ele>306.39999389648</ele>
        <time>2020-01-11T14:19:24.000Z</time>
      </trkpt>
      <trkpt lat="43.84209" lon="7.13389">
        <ele>307.39999389648</ele>
        <time>2020-01-11T14:19:26.000Z</time>
      </trkpt>
      <trkpt lat="43.84206" lon="7.13391">
        <ele>308.39999389648</ele>
        <time>2020-01-11T14:19:28.000Z</time>
      </trkpt>
      <trkpt lat="43.84204" lon="7.13392">
        <ele>308.79998779297</ele>
        <time>2020-01-11T14:19:29.000Z</time>
      </trkpt>
      <trkpt lat="43.84195" lon="7.13396">
        <ele>309.79998779297</ele>
        <time>2020-01-11T14:19:33.000Z</time>
      </trkpt>
      <trkpt lat="43.84187" lon="7.13401">
        <ele>311</ele>
        <time>2020-01-11T14:19:38.000Z</time>
      </trkpt>
      <trkpt lat="43.84182" lon="7.13404">
        <ele>312.39999389648</ele>
        <time>2020-01-11T14:19:42.000Z</time>
      </trkpt>
      <trkpt lat="43.84177" lon="7.13407">
        <ele>313.60000610352</ele>
        <time>2020-01-11T14:19:45.000Z</time>
      </trkpt>
      <trkpt lat="43.84175" lon="7.1341">
        <ele>314.39999389648</ele>
        <time>2020-01-11T14:19:47.000Z</time>
      </trkpt>
      <trkpt lat="43.84175" lon="7.13412">
        <ele>314.79998779297</ele>
        <time>2020-01-11T14:19:48.000Z</time>
      </trkpt>
      <trkpt lat="43.84174" lon="7.13417">
        <ele>315.60000610352</ele>
        <time>2020-01-11T14:19:50.000Z</time>
      </trkpt>
      <trkpt lat="43.84173" lon="7.13422">
        <ele>316</ele>
        <time>2020-01-11T14:19:52.000Z</time>
      </trkpt>
      <trkpt lat="43.84169" lon="7.1343">
        <ele>316.79998779297</ele>
        <time>2020-01-11T14:19:56.000Z</time>
      </trkpt>
      <trkpt lat="43.84168" lon="7.13432">
        <ele>317.20001220703</ele>
        <time>2020-01-11T14:19:57.000Z</time>
      </trkpt>
      <trkpt lat="43.84166" lon="7.13433">
        <ele>317.60000610352</ele>
        <time>2020-01-11T14:19:58.000Z</time>
      </trkpt>
      <trkpt lat="43.8416" lon="7.13436">
        <ele>318</ele>
        <time>2020-01-11T14:20:01.000Z</time>
      </trkpt>
      <trkpt lat="43.84145" lon="7.1344">
        <ele>317.79998779297</ele>
        <time>2020-01-11T14:20:06.000Z</time>
      </trkpt>
      <trkpt lat="43.84132" lon="7.13445">
        <ele>317.20001220703</ele>
        <time>2020-01-11T14:20:11.000Z</time>
      </trkpt>
      <trkpt lat="43.84131" lon="7.13444">
        <ele>317.20001220703</ele>
        <time>2020-01-11T14:20:12.000Z</time>
      </trkpt>
      <trkpt lat="43.84128" lon="7.13438">
        <ele>317.20001220703</ele>
        <time>2020-01-11T14:20:15.000Z</time>
      </trkpt>
      <trkpt lat="43.84125" lon="7.13436">
        <ele>318</ele>
        <time>2020-01-11T14:20:18.000Z</time>
      </trkpt>
      <trkpt lat="43.84122" lon="7.13437">
        <ele>318.60000610352</ele>
        <time>2020-01-11T14:20:20.000Z</time>
      </trkpt>
      <trkpt lat="43.84116" lon="7.13441">
        <ele>319.79998779297</ele>
        <time>2020-01-11T14:20:24.000Z</time>
      </trkpt>
      <trkpt lat="43.84114" lon="7.13441">
        <ele>320</ele>
        <time>2020-01-11T14:20:25.000Z</time>
      </trkpt>
      <trkpt lat="43.84112" lon="7.13442">
        <ele>320.20001220703</ele>
        <time>2020-01-11T14:20:26.000Z</time>
      </trkpt>
      <trkpt lat="43.84107" lon="7.13445">
        <ele>320.79998779297</ele>
        <time>2020-01-11T14:20:29.000Z</time>
      </trkpt>
      <trkpt lat="43.84103" lon="7.1345">
        <ele>321.39999389648</ele>
        <time>2020-01-11T14:20:32.000Z</time>
      </trkpt>
      <trkpt lat="43.841" lon="7.13454">
        <ele>322</ele>
        <time>2020-01-11T14:20:34.000Z</time>
      </trkpt>
      <trkpt lat="43.84095" lon="7.13461">
        <ele>322.79998779297</ele>
        <time>2020-01-11T14:20:37.000Z</time>
      </trkpt>
      <trkpt lat="43.84093" lon="7.13462">
        <ele>323.20001220703</ele>
        <time>2020-01-11T14:20:38.000Z</time>
      </trkpt>
      <trkpt lat="43.84082" lon="7.13473">
        <ele>323.39999389648</ele>
        <time>2020-01-11T14:20:43.000Z</time>
      </trkpt>
      <trkpt lat="43.84065" lon="7.13488">
        <ele>323.60000610352</ele>
        <time>2020-01-11T14:20:50.000Z</time>
      </trkpt>
      <trkpt lat="43.84047" lon="7.13503">
        <ele>324</ele>
        <time>2020-01-11T14:20:57.000Z</time>
      </trkpt>
      <trkpt lat="43.84035" lon="7.13515">
        <ele>324.20001220703</ele>
        <time>2020-01-11T14:21:01.000Z</time>
      </trkpt>
      <trkpt lat="43.84031" lon="7.13517">
        <ele>323.79998779297</ele>
        <time>2020-01-11T14:21:02.000Z</time>
      </trkpt>
      <trkpt lat="43.84017" lon="7.13523">
        <ele>322.79998779297</ele>
        <time>2020-01-11T14:21:06.000Z</time>
      </trkpt>
      <trkpt lat="43.8401" lon="7.1353">
        <ele>322.20001220703</ele>
        <time>2020-01-11T14:21:08.000Z</time>
      </trkpt>
      <trkpt lat="43.84006" lon="7.13534">
        <ele>322.20001220703</ele>
        <time>2020-01-11T14:21:09.000Z</time>
      </trkpt>
      <trkpt lat="43.84002" lon="7.13538">
        <ele>321.60000610352</ele>
        <time>2020-01-11T14:21:10.000Z</time>
      </trkpt>
      <trkpt lat="43.83998" lon="7.13541">
        <ele>320.79998779297</ele>
        <time>2020-01-11T14:21:11.000Z</time>
      </trkpt>
      <trkpt lat="43.83994" lon="7.13543">
        <ele>319.79998779297</ele>
        <time>2020-01-11T14:21:12.000Z</time>
      </trkpt>
      <trkpt lat="43.8399" lon="7.13544">
        <ele>319.20001220703</ele>
        <time>2020-01-11T14:21:13.000Z</time>
      </trkpt>
      <trkpt lat="43.83985" lon="7.13545">
        <ele>318.20001220703</ele>
        <time>2020-01-11T14:21:14.000Z</time>
      </trkpt>
      <trkpt lat="43.8398" lon="7.13546">
        <ele>317</ele>
        <time>2020-01-11T14:21:15.000Z</time>
      </trkpt>
      <trkpt lat="43.83975" lon="7.13547">
        <ele>316.39999389648</ele>
        <time>2020-01-11T14:21:16.000Z</time>
      </trkpt>
      <trkpt lat="43.83969" lon="7.13546">
        <ele>315.39999389648</ele>
        <time>2020-01-11T14:21:17.000Z</time>
      </trkpt>
      <trkpt lat="43.83964" lon="7.13543">
        <ele>313.79998779297</ele>
        <time>2020-01-11T14:21:18.000Z</time>
      </trkpt>
      <trkpt lat="43.83956" lon="7.13537">
        <ele>312.39999389648</ele>
        <time>2020-01-11T14:21:20.000Z</time>
      </trkpt>
      <trkpt lat="43.83952" lon="7.13538">
        <ele>311.79998779297</ele>
        <time>2020-01-11T14:21:21.000Z</time>
      </trkpt>
      <trkpt lat="43.83931" lon="7.13544">
        <ele>311.39999389648</ele>
        <time>2020-01-11T14:21:25.000Z</time>
      </trkpt>
      <trkpt lat="43.83927" lon="7.13548">
        <ele>311.20001220703</ele>
        <time>2020-01-11T14:21:26.000Z</time>
      </trkpt>
      <trkpt lat="43.83926" lon="7.1356">
        <ele>309.79998779297</ele>
        <time>2020-01-11T14:21:28.000Z</time>
      </trkpt>
      <trkpt lat="43.83931" lon="7.13567">
        <ele>308.60000610352</ele>
        <time>2020-01-11T14:21:30.000Z</time>
      </trkpt>
      <trkpt lat="43.83933" lon="7.13568">
        <ele>308</ele>
        <time>2020-01-11T14:21:31.000Z</time>
      </trkpt>
      <trkpt lat="43.83934" lon="7.1357">
        <ele>307.60000610352</ele>
        <time>2020-01-11T14:21:32.000Z</time>
      </trkpt>
      <trkpt lat="43.83934" lon="7.13576">
        <ele>308.20001220703</ele>
        <time>2020-01-11T14:21:35.000Z</time>
      </trkpt>
      <trkpt lat="43.83933" lon="7.13577">
        <ele>308.60000610352</ele>
        <time>2020-01-11T14:21:36.000Z</time>
      </trkpt>
      <trkpt lat="43.83932" lon="7.13577">
        <ele>309.39999389648</ele>
        <time>2020-01-11T14:21:37.000Z</time>
      </trkpt>
      <trkpt lat="43.8393" lon="7.13577">
        <ele>309.60000610352</ele>
        <time>2020-01-11T14:21:39.000Z</time>
      </trkpt>
      <trkpt lat="43.83928" lon="7.13577">
        <ele>309.79998779297</ele>
        <time>2020-01-11T14:21:40.000Z</time>
      </trkpt>
      <trkpt lat="43.83928" lon="7.13577">
        <ele>310.79998779297</ele>
        <time>2020-01-11T14:21:44.000Z</time>
      </trkpt>
      <trkpt lat="43.83928" lon="7.13577">
        <ele>311</ele>
        <time>2020-01-11T14:21:45.000Z</time>
      </trkpt>
      <trkpt lat="43.83924" lon="7.13579">
        <ele>311.20001220703</ele>
        <time>2020-01-11T14:21:52.000Z</time>
      </trkpt>
      <trkpt lat="43.83922" lon="7.13582">
        <ele>311.79998779297</ele>
        <time>2020-01-11T14:21:58.000Z</time>
      </trkpt>
      <trkpt lat="43.83925" lon="7.13584">
        <ele>312.20001220703</ele>
        <time>2020-01-11T14:22:03.000Z</time>
      </trkpt>
      <trkpt lat="43.83926" lon="7.13584">
        <ele>312.79998779297</ele>
        <time>2020-01-11T14:22:05.000Z</time>
      </trkpt>
      <trkpt lat="43.83927" lon="7.13584">
        <ele>313.39999389648</ele>
        <time>2020-01-11T14:22:08.000Z</time>
      </trkpt>
      <trkpt lat="43.83928" lon="7.13584">
        <ele>314</ele>
        <time>2020-01-11T14:22:12.000Z</time>
      </trkpt>
      <trkpt lat="43.83927" lon="7.13584">
        <ele>314.20001220703</ele>
        <time>2020-01-11T14:22:13.000Z</time>
      </trkpt>
      <trkpt lat="43.83928" lon="7.13583">
        <ele>314.39999389648</ele>
        <time>2020-01-11T14:22:14.000Z</time>
      </trkpt>
      <trkpt lat="43.83929" lon="7.13584">
        <ele>314.60000610352</ele>
        <time>2020-01-11T14:22:15.000Z</time>
      </trkpt>
      <trkpt lat="43.83928" lon="7.13585">
        <ele>315.20001220703</ele>
        <time>2020-01-11T14:22:22.000Z</time>
      </trkpt>
      <trkpt lat="43.83927" lon="7.13585">
        <ele>315.20001220703</ele>
        <time>2020-01-11T14:22:30.000Z</time>
      </trkpt>
      <trkpt lat="43.83927" lon="7.13586">
        <ele>315.39999389648</ele>
        <time>2020-01-11T14:22:33.000Z</time>
      </trkpt>
      <trkpt lat="43.83926" lon="7.13592">
        <ele>315.39999389648</ele>
        <time>2020-01-11T14:22:40.000Z</time>
      </trkpt>
      <trkpt lat="43.83923" lon="7.13595">
        <ele>316.60000610352</ele>
        <time>2020-01-11T14:22:45.000Z</time>
      </trkpt>
      <trkpt lat="43.83922" lon="7.13597">
        <ele>317</ele>
        <time>2020-01-11T14:22:52.000Z</time>
      </trkpt>
      <trkpt lat="43.8392" lon="7.136">
        <ele>317.79998779297</ele>
        <time>2020-01-11T14:22:58.000Z</time>
      </trkpt>
      <trkpt lat="43.83918" lon="7.13603">
        <ele>318</ele>
        <time>2020-01-11T14:23:00.000Z</time>
      </trkpt>
      <trkpt lat="43.83915" lon="7.1361">
        <ele>319</ele>
        <time>2020-01-11T14:23:04.000Z</time>
      </trkpt>
      <trkpt lat="43.83914" lon="7.13614">
        <ele>320</ele>
        <time>2020-01-11T14:23:07.000Z</time>
      </trkpt>
      <trkpt lat="43.83914" lon="7.13616">
        <ele>320.39999389648</ele>
        <time>2020-01-11T14:23:08.000Z</time>
      </trkpt>
      <trkpt lat="43.83913" lon="7.13623">
        <ele>321</ele>
        <time>2020-01-11T14:23:11.000Z</time>
      </trkpt>
      <trkpt lat="43.83912" lon="7.13625">
        <ele>321.60000610352</ele>
        <time>2020-01-11T14:23:13.000Z</time>
      </trkpt>
      <trkpt lat="43.83911" lon="7.13628">
        <ele>322.60000610352</ele>
        <time>2020-01-11T14:23:16.000Z</time>
      </trkpt>
      <trkpt lat="43.83911" lon="7.1363">
        <ele>323</ele>
        <time>2020-01-11T14:23:17.000Z</time>
      </trkpt>
      <trkpt lat="43.8391" lon="7.13632">
        <ele>323.79998779297</ele>
        <time>2020-01-11T14:23:20.000Z</time>
      </trkpt>
      <trkpt lat="43.8391" lon="7.13632">
        <ele>324.20001220703</ele>
        <time>2020-01-11T14:23:22.000Z</time>
      </trkpt>
      <trkpt lat="43.83907" lon="7.13641">
        <ele>324.39999389648</ele>
        <time>2020-01-11T14:23:27.000Z</time>
      </trkpt>
      <trkpt lat="43.83904" lon="7.13648">
        <ele>324.79998779297</ele>
        <time>2020-01-11T14:23:30.000Z</time>
      </trkpt>
      <trkpt lat="43.83902" lon="7.13653">
        <ele>325.39999389648</ele>
        <time>2020-01-11T14:23:32.000Z</time>
      </trkpt>
      <trkpt lat="43.839" lon="7.13657">
        <ele>326</ele>
        <time>2020-01-11T14:23:34.000Z</time>
      </trkpt>
      <trkpt lat="43.83896" lon="7.13665">
        <ele>327</ele>
        <time>2020-01-11T14:23:37.000Z</time>
      </trkpt>
      <trkpt lat="43.83891" lon="7.1368">
        <ele>328</ele>
        <time>2020-01-11T14:23:43.000Z</time>
      </trkpt>
      <trkpt lat="43.83889" lon="7.13698">
        <ele>329.20001220703</ele>
        <time>2020-01-11T14:23:49.000Z</time>
      </trkpt>
      <trkpt lat="43.8389" lon="7.13702">
        <ele>329.39999389648</ele>
        <time>2020-01-11T14:23:50.000Z</time>
      </trkpt>
      <trkpt lat="43.83894" lon="7.13723">
        <ele>330.20001220703</ele>
        <time>2020-01-11T14:23:56.000Z</time>
      </trkpt>
      <trkpt lat="43.83895" lon="7.13727">
        <ele>330.39999389648</ele>
        <time>2020-01-11T14:23:57.000Z</time>
      </trkpt>
      <trkpt lat="43.83903" lon="7.13757">
        <ele>331</ele>
        <time>2020-01-11T14:24:05.000Z</time>
      </trkpt>
      <trkpt lat="43.83903" lon="7.1377">
        <ele>331.39999389648</ele>
        <time>2020-01-11T14:24:08.000Z</time>
      </trkpt>
      <trkpt lat="43.83901" lon="7.13779">
        <ele>331.60000610352</ele>
        <time>2020-01-11T14:24:10.000Z</time>
      </trkpt>
      <trkpt lat="43.83897" lon="7.13799">
        <ele>332</ele>
        <time>2020-01-11T14:24:15.000Z</time>
      </trkpt>
      <trkpt lat="43.83892" lon="7.13823">
        <ele>332.39999389648</ele>
        <time>2020-01-11T14:24:21.000Z</time>
      </trkpt>
      <trkpt lat="43.83891" lon="7.13827">
        <ele>332.39999389648</ele>
        <time>2020-01-11T14:24:22.000Z</time>
      </trkpt>
      <trkpt lat="43.83888" lon="7.13845">
        <ele>333.39999389648</ele>
        <time>2020-01-11T14:24:27.000Z</time>
      </trkpt>
      <trkpt lat="43.83885" lon="7.13859">
        <ele>334.60000610352</ele>
        <time>2020-01-11T14:24:31.000Z</time>
      </trkpt>
      <trkpt lat="43.83884" lon="7.13862">
        <ele>334.60000610352</ele>
        <time>2020-01-11T14:24:32.000Z</time>
      </trkpt>
      <trkpt lat="43.83884" lon="7.13865">
        <ele>335.20001220703</ele>
        <time>2020-01-11T14:24:33.000Z</time>
      </trkpt>
      <trkpt lat="43.83886" lon="7.13871">
        <ele>335.79998779297</ele>
        <time>2020-01-11T14:24:35.000Z</time>
      </trkpt>
      <trkpt lat="43.83886" lon="7.13874">
        <ele>336</ele>
        <time>2020-01-11T14:24:36.000Z</time>
      </trkpt>
      <trkpt lat="43.83888" lon="7.13886">
        <ele>336.79998779297</ele>
        <time>2020-01-11T14:24:40.000Z</time>
      </trkpt>
      <trkpt lat="43.83889" lon="7.13888">
        <ele>336.79998779297</ele>
        <time>2020-01-11T14:24:41.000Z</time>
      </trkpt>
      <trkpt lat="43.83892" lon="7.13908">
        <ele>337.60000610352</ele>
        <time>2020-01-11T14:24:46.000Z</time>
      </trkpt>
      <trkpt lat="43.83892" lon="7.13913">
        <ele>338</ele>
        <time>2020-01-11T14:24:47.000Z</time>
      </trkpt>
      <trkpt lat="43.83892" lon="7.13933">
        <ele>339</ele>
        <time>2020-01-11T14:24:52.000Z</time>
      </trkpt>
      <trkpt lat="43.83892" lon="7.13938">
        <ele>339.20001220703</ele>
        <time>2020-01-11T14:24:53.000Z</time>
      </trkpt>
      <trkpt lat="43.83888" lon="7.13961">
        <ele>340.20001220703</ele>
        <time>2020-01-11T14:24:59.000Z</time>
      </trkpt>
      <trkpt lat="43.83882" lon="7.13965">
        <ele>340.79998779297</ele>
        <time>2020-01-11T14:25:01.000Z</time>
      </trkpt>
      <trkpt lat="43.83877" lon="7.13964">
        <ele>341.39999389648</ele>
        <time>2020-01-11T14:25:03.000Z</time>
      </trkpt>
      <trkpt lat="43.83871" lon="7.13961">
        <ele>342.39999389648</ele>
        <time>2020-01-11T14:25:08.000Z</time>
      </trkpt>
      <trkpt lat="43.83871" lon="7.13961">
        <ele>342.39999389648</ele>
        <time>2020-01-11T14:25:19.000Z</time>
      </trkpt>
      <trkpt lat="43.83871" lon="7.13962">
        <ele>342.60000610352</ele>
        <time>2020-01-11T14:25:27.000Z</time>
      </trkpt>
      <trkpt lat="43.83871" lon="7.13962">
        <ele>342.60000610352</ele>
        <time>2020-01-11T14:25:34.000Z</time>
      </trkpt>
      <trkpt lat="43.83871" lon="7.13963">
        <ele>342.39999389648</ele>
        <time>2020-01-11T14:25:42.000Z</time>
      </trkpt>
      <trkpt lat="43.8387" lon="7.13964">
        <ele>342.39999389648</ele>
        <time>2020-01-11T14:25:53.000Z</time>
      </trkpt>
      <trkpt lat="43.83871" lon="7.13964">
        <ele>342.39999389648</ele>
        <time>2020-01-11T14:26:03.000Z</time>
      </trkpt>
      <trkpt lat="43.8387" lon="7.13965">
        <ele>342.20001220703</ele>
        <time>2020-01-11T14:26:18.000Z</time>
      </trkpt>
      <trkpt lat="43.8387" lon="7.13965">
        <ele>342.39999389648</ele>
        <time>2020-01-11T14:26:28.000Z</time>
      </trkpt>
      <trkpt lat="43.8387" lon="7.13965">
        <ele>342.20001220703</ele>
        <time>2020-01-11T14:26:40.000Z</time>
      </trkpt>
      <trkpt lat="43.83869" lon="7.13964">
        <ele>342</ele>
        <time>2020-01-11T14:26:48.000Z</time>
      </trkpt>
      <trkpt lat="43.83865" lon="7.13962">
        <ele>342</ele>
        <time>2020-01-11T14:26:50.000Z</time>
      </trkpt>
      <trkpt lat="43.83857" lon="7.13955">
        <ele>341.60000610352</ele>
        <time>2020-01-11T14:26:54.000Z</time>
      </trkpt>
      <trkpt lat="43.83855" lon="7.13954">
        <ele>341.39999389648</ele>
        <time>2020-01-11T14:26:55.000Z</time>
      </trkpt>
      <trkpt lat="43.83845" lon="7.13955">
        <ele>340</ele>
        <time>2020-01-11T14:26:59.000Z</time>
      </trkpt>
      <trkpt lat="43.83836" lon="7.13961">
        <ele>338.39999389648</ele>
        <time>2020-01-11T14:27:02.000Z</time>
      </trkpt>
      <trkpt lat="43.83833" lon="7.13961">
        <ele>337.79998779297</ele>
        <time>2020-01-11T14:27:03.000Z</time>
      </trkpt>
      <trkpt lat="43.83829" lon="7.13962">
        <ele>337.39999389648</ele>
        <time>2020-01-11T14:27:04.000Z</time>
      </trkpt>
      <trkpt lat="43.83821" lon="7.13966">
        <ele>335.79998779297</ele>
        <time>2020-01-11T14:27:07.000Z</time>
      </trkpt>
      <trkpt lat="43.83812" lon="7.13965">
        <ele>334.79998779297</ele>
        <time>2020-01-11T14:27:09.000Z</time>
      </trkpt>
      <trkpt lat="43.83808" lon="7.13964">
        <ele>334.20001220703</ele>
        <time>2020-01-11T14:27:10.000Z</time>
      </trkpt>
      <trkpt lat="43.83802" lon="7.13963">
        <ele>333.20001220703</ele>
        <time>2020-01-11T14:27:12.000Z</time>
      </trkpt>
      <trkpt lat="43.83799" lon="7.13962">
        <ele>332.39999389648</ele>
        <time>2020-01-11T14:27:13.000Z</time>
      </trkpt>
      <trkpt lat="43.83795" lon="7.13961">
        <ele>332.20001220703</ele>
        <time>2020-01-11T14:27:14.000Z</time>
      </trkpt>
      <trkpt lat="43.8379" lon="7.13959">
        <ele>331.79998779297</ele>
        <time>2020-01-11T14:27:15.000Z</time>
      </trkpt>
      <trkpt lat="43.8378" lon="7.13955">
        <ele>331</ele>
        <time>2020-01-11T14:27:17.000Z</time>
      </trkpt>
      <trkpt lat="43.83776" lon="7.1395">
        <ele>330.79998779297</ele>
        <time>2020-01-11T14:27:18.000Z</time>
      </trkpt>
      <trkpt lat="43.83772" lon="7.13946">
        <ele>330</ele>
        <time>2020-01-11T14:27:19.000Z</time>
      </trkpt>
      <trkpt lat="43.83762" lon="7.13945">
        <ele>328.39999389648</ele>
        <time>2020-01-11T14:27:21.000Z</time>
      </trkpt>
      <trkpt lat="43.83751" lon="7.13951">
        <ele>327.20001220703</ele>
        <time>2020-01-11T14:27:23.000Z</time>
      </trkpt>
      <trkpt lat="43.83746" lon="7.13956">
        <ele>326.79998779297</ele>
        <time>2020-01-11T14:27:24.000Z</time>
      </trkpt>
      <trkpt lat="43.83741" lon="7.13963">
        <ele>326</ele>
        <time>2020-01-11T14:27:25.000Z</time>
      </trkpt>
      <trkpt lat="43.83734" lon="7.13972">
        <ele>324.39999389648</ele>
        <time>2020-01-11T14:27:27.000Z</time>
      </trkpt>
      <trkpt lat="43.83732" lon="7.13973">
        <ele>323.20001220703</ele>
        <time>2020-01-11T14:27:28.000Z</time>
      </trkpt>
      <trkpt lat="43.83731" lon="7.13973">
        <ele>321.60000610352</ele>
        <time>2020-01-11T14:27:30.000Z</time>
      </trkpt>
      <trkpt lat="43.8373" lon="7.13975">
        <ele>321.39999389648</ele>
        <time>2020-01-11T14:27:31.000Z</time>
      </trkpt>
      <trkpt lat="43.8373" lon="7.13976">
        <ele>320.79998779297</ele>
        <time>2020-01-11T14:27:32.000Z</time>
      </trkpt>
      <trkpt lat="43.83729" lon="7.13978">
        <ele>320.39999389648</ele>
        <time>2020-01-11T14:27:34.000Z</time>
      </trkpt>
      <trkpt lat="43.83725" lon="7.13982">
        <ele>320.20001220703</ele>
        <time>2020-01-11T14:27:37.000Z</time>
      </trkpt>
      <trkpt lat="43.83718" lon="7.13993">
        <ele>320</ele>
        <time>2020-01-11T14:27:40.000Z</time>
      </trkpt>
      <trkpt lat="43.83715" lon="7.13996">
        <ele>319.79998779297</ele>
        <time>2020-01-11T14:27:41.000Z</time>
      </trkpt>
      <trkpt lat="43.83703" lon="7.1401">
        <ele>319.39999389648</ele>
        <time>2020-01-11T14:27:45.000Z</time>
      </trkpt>
      <trkpt lat="43.83698" lon="7.14017">
        <ele>319.39999389648</ele>
        <time>2020-01-11T14:27:47.000Z</time>
      </trkpt>
      <trkpt lat="43.83684" lon="7.14039">
        <ele>319.79998779297</ele>
        <time>2020-01-11T14:27:53.000Z</time>
      </trkpt>
      <trkpt lat="43.8368" lon="7.14055">
        <ele>319.20001220703</ele>
        <time>2020-01-11T14:27:56.000Z</time>
      </trkpt>
      <trkpt lat="43.83678" lon="7.14058">
        <ele>318.79998779297</ele>
        <time>2020-01-11T14:27:57.000Z</time>
      </trkpt>
      <trkpt lat="43.83678" lon="7.1406">
        <ele>318.20001220703</ele>
        <time>2020-01-11T14:27:58.000Z</time>
      </trkpt>
      <trkpt lat="43.83677" lon="7.14065">
        <ele>316.60000610352</ele>
        <time>2020-01-11T14:28:00.000Z</time>
      </trkpt>
      <trkpt lat="43.83676" lon="7.14068">
        <ele>315.79998779297</ele>
        <time>2020-01-11T14:28:01.000Z</time>
      </trkpt>
      <trkpt lat="43.83675" lon="7.14071">
        <ele>314.20001220703</ele>
        <time>2020-01-11T14:28:02.000Z</time>
      </trkpt>
      <trkpt lat="43.83672" lon="7.14074">
        <ele>313</ele>
        <time>2020-01-11T14:28:03.000Z</time>
      </trkpt>
      <trkpt lat="43.83668" lon="7.14078">
        <ele>311.20001220703</ele>
        <time>2020-01-11T14:28:05.000Z</time>
      </trkpt>
      <trkpt lat="43.83668" lon="7.14082">
        <ele>309.60000610352</ele>
        <time>2020-01-11T14:28:07.000Z</time>
      </trkpt>
      <trkpt lat="43.83669" lon="7.14085">
        <ele>309</ele>
        <time>2020-01-11T14:28:08.000Z</time>
      </trkpt>
      <trkpt lat="43.83665" lon="7.14089">
        <ele>308</ele>
        <time>2020-01-11T14:28:10.000Z</time>
      </trkpt>
      <trkpt lat="43.83663" lon="7.14092">
        <ele>307.39999389648</ele>
        <time>2020-01-11T14:28:11.000Z</time>
      </trkpt>
      <trkpt lat="43.83662" lon="7.14096">
        <ele>306.79998779297</ele>
        <time>2020-01-11T14:28:12.000Z</time>
      </trkpt>
      <trkpt lat="43.83661" lon="7.14105">
        <ele>305.20001220703</ele>
        <time>2020-01-11T14:28:14.000Z</time>
      </trkpt>
      <trkpt lat="43.83661" lon="7.14109">
        <ele>305.79998779297</ele>
        <time>2020-01-11T14:28:15.000Z</time>
      </trkpt>
      <trkpt lat="43.83661" lon="7.14124">
        <ele>304.60000610352</ele>
        <time>2020-01-11T14:28:19.000Z</time>
      </trkpt>
      <trkpt lat="43.83662" lon="7.14127">
        <ele>304.20001220703</ele>
        <time>2020-01-11T14:28:20.000Z</time>
      </trkpt>
      <trkpt lat="43.83664" lon="7.14138">
        <ele>303.79998779297</ele>
        <time>2020-01-11T14:28:22.000Z</time>
      </trkpt>
      <trkpt lat="43.83663" lon="7.14142">
        <ele>303.20001220703</ele>
        <time>2020-01-11T14:28:23.000Z</time>
      </trkpt>
      <trkpt lat="43.83663" lon="7.14153">
        <ele>301.60000610352</ele>
        <time>2020-01-11T14:28:25.000Z</time>
      </trkpt>
      <trkpt lat="43.83663" lon="7.14159">
        <ele>300.79998779297</ele>
        <time>2020-01-11T14:28:26.000Z</time>
      </trkpt>
      <trkpt lat="43.83662" lon="7.14165">
        <ele>300.20001220703</ele>
        <time>2020-01-11T14:28:27.000Z</time>
      </trkpt>
      <trkpt lat="43.83662" lon="7.14175">
        <ele>298.60000610352</ele>
        <time>2020-01-11T14:28:29.000Z</time>
      </trkpt>
      <trkpt lat="43.83662" lon="7.14181">
        <ele>296.60000610352</ele>
        <time>2020-01-11T14:28:30.000Z</time>
      </trkpt>
      <trkpt lat="43.83662" lon="7.14188">
        <ele>295.60000610352</ele>
        <time>2020-01-11T14:28:31.000Z</time>
      </trkpt>
      <trkpt lat="43.83663" lon="7.14194">
        <ele>294.60000610352</ele>
        <time>2020-01-11T14:28:32.000Z</time>
      </trkpt>
      <trkpt lat="43.83664" lon="7.14199">
        <ele>293.20001220703</ele>
        <time>2020-01-11T14:28:33.000Z</time>
      </trkpt>
      <trkpt lat="43.83668" lon="7.142">
        <ele>291.79998779297</ele>
        <time>2020-01-11T14:28:35.000Z</time>
      </trkpt>
      <trkpt lat="43.8367" lon="7.14198">
        <ele>290.39999389648</ele>
        <time>2020-01-11T14:28:36.000Z</time>
      </trkpt>
      <trkpt lat="43.83672" lon="7.14198">
        <ele>289.39999389648</ele>
        <time>2020-01-11T14:28:37.000Z</time>
      </trkpt>
      <trkpt lat="43.83673" lon="7.14201">
        <ele>287.20001220703</ele>
        <time>2020-01-11T14:28:38.000Z</time>
      </trkpt>
      <trkpt lat="43.83673" lon="7.14204">
        <ele>286.79998779297</ele>
        <time>2020-01-11T14:28:39.000Z</time>
      </trkpt>
      <trkpt lat="43.83673" lon="7.14206">
        <ele>286.20001220703</ele>
        <time>2020-01-11T14:28:40.000Z</time>
      </trkpt>
      <trkpt lat="43.83679" lon="7.14209">
        <ele>285</ele>
        <time>2020-01-11T14:28:42.000Z</time>
      </trkpt>
      <trkpt lat="43.83686" lon="7.14215">
        <ele>283.39999389648</ele>
        <time>2020-01-11T14:28:44.000Z</time>
      </trkpt>
      <trkpt lat="43.83691" lon="7.14224">
        <ele>281.60000610352</ele>
        <time>2020-01-11T14:28:46.000Z</time>
      </trkpt>
      <trkpt lat="43.83695" lon="7.14234">
        <ele>279.60000610352</ele>
        <time>2020-01-11T14:28:48.000Z</time>
      </trkpt>
      <trkpt lat="43.83702" lon="7.14247">
        <ele>278.20001220703</ele>
        <time>2020-01-11T14:28:51.000Z</time>
      </trkpt>
      <trkpt lat="43.83703" lon="7.14256">
        <ele>276.20001220703</ele>
        <time>2020-01-11T14:28:53.000Z</time>
      </trkpt>
      <trkpt lat="43.83704" lon="7.1426">
        <ele>274.60000610352</ele>
        <time>2020-01-11T14:28:54.000Z</time>
      </trkpt>
      <trkpt lat="43.83705" lon="7.14262">
        <ele>273.20001220703</ele>
        <time>2020-01-11T14:28:55.000Z</time>
      </trkpt>
      <trkpt lat="43.83707" lon="7.14262">
        <ele>272.79998779297</ele>
        <time>2020-01-11T14:28:56.000Z</time>
      </trkpt>
      <trkpt lat="43.83709" lon="7.14265">
        <ele>271.79998779297</ele>
        <time>2020-01-11T14:28:58.000Z</time>
      </trkpt>
      <trkpt lat="43.83705" lon="7.14268">
        <ele>270.39999389648</ele>
        <time>2020-01-11T14:29:00.000Z</time>
      </trkpt>
      <trkpt lat="43.83703" lon="7.1427">
        <ele>269.60000610352</ele>
        <time>2020-01-11T14:29:01.000Z</time>
      </trkpt>
      <trkpt lat="43.83701" lon="7.14271">
        <ele>269</ele>
        <time>2020-01-11T14:29:02.000Z</time>
      </trkpt>
      <trkpt lat="43.83695" lon="7.14275">
        <ele>267.60000610352</ele>
        <time>2020-01-11T14:29:06.000Z</time>
      </trkpt>
      <trkpt lat="43.83694" lon="7.14275">
        <ele>266.39999389648</ele>
        <time>2020-01-11T14:29:08.000Z</time>
      </trkpt>
      <trkpt lat="43.83693" lon="7.14275">
        <ele>265.39999389648</ele>
        <time>2020-01-11T14:29:10.000Z</time>
      </trkpt>
      <trkpt lat="43.83693" lon="7.14275">
        <ele>264.20001220703</ele>
        <time>2020-01-11T14:29:12.000Z</time>
      </trkpt>
      <trkpt lat="43.83692" lon="7.14277">
        <ele>263.39999389648</ele>
        <time>2020-01-11T14:29:17.000Z</time>
      </trkpt>
      <trkpt lat="43.83691" lon="7.14278">
        <ele>263</ele>
        <time>2020-01-11T14:29:18.000Z</time>
      </trkpt>
      <trkpt lat="43.83686" lon="7.14283">
        <ele>262</ele>
        <time>2020-01-11T14:29:21.000Z</time>
      </trkpt>
      <trkpt lat="43.83684" lon="7.14285">
        <ele>261.79998779297</ele>
        <time>2020-01-11T14:29:22.000Z</time>
      </trkpt>
      <trkpt lat="43.83679" lon="7.14292">
        <ele>260.39999389648</ele>
        <time>2020-01-11T14:29:25.000Z</time>
      </trkpt>
      <trkpt lat="43.83677" lon="7.14296">
        <ele>259</ele>
        <time>2020-01-11T14:29:27.000Z</time>
      </trkpt>
      <trkpt lat="43.83675" lon="7.14299">
        <ele>258</ele>
        <time>2020-01-11T14:29:28.000Z</time>
      </trkpt>
      <trkpt lat="43.83673" lon="7.14303">
        <ele>257.39999389648</ele>
        <time>2020-01-11T14:29:29.000Z</time>
      </trkpt>
      <trkpt lat="43.83667" lon="7.14316">
        <ele>255.80000305176</ele>
        <time>2020-01-11T14:29:32.000Z</time>
      </trkpt>
      <trkpt lat="43.83663" lon="7.14323">
        <ele>254.39999389648</ele>
        <time>2020-01-11T14:29:34.000Z</time>
      </trkpt>
      <trkpt lat="43.83659" lon="7.14331">
        <ele>252.60000610352</ele>
        <time>2020-01-11T14:29:36.000Z</time>
      </trkpt>
      <trkpt lat="43.83657" lon="7.14336">
        <ele>252</ele>
        <time>2020-01-11T14:29:37.000Z</time>
      </trkpt>
      <trkpt lat="43.83654" lon="7.1434">
        <ele>251</ele>
        <time>2020-01-11T14:29:38.000Z</time>
      </trkpt>
      <trkpt lat="43.83651" lon="7.14343">
        <ele>250.39999389648</ele>
        <time>2020-01-11T14:29:39.000Z</time>
      </trkpt>
      <trkpt lat="43.8365" lon="7.14345">
        <ele>249.80000305176</ele>
        <time>2020-01-11T14:29:40.000Z</time>
      </trkpt>
      <trkpt lat="43.83649" lon="7.14348">
        <ele>248.80000305176</ele>
        <time>2020-01-11T14:29:41.000Z</time>
      </trkpt>
      <trkpt lat="43.83646" lon="7.14351">
        <ele>248</ele>
        <time>2020-01-11T14:29:42.000Z</time>
      </trkpt>
      <trkpt lat="43.83644" lon="7.14352">
        <ele>247.39999389648</ele>
        <time>2020-01-11T14:29:43.000Z</time>
      </trkpt>
      <trkpt lat="43.83641" lon="7.14356">
        <ele>246.19999694824</ele>
        <time>2020-01-11T14:29:45.000Z</time>
      </trkpt>
      <trkpt lat="43.83637" lon="7.14361">
        <ele>245</ele>
        <time>2020-01-11T14:29:47.000Z</time>
      </trkpt>
      <trkpt lat="43.83634" lon="7.14366">
        <ele>243.80000305176</ele>
        <time>2020-01-11T14:29:49.000Z</time>
      </trkpt>
      <trkpt lat="43.83628" lon="7.14376">
        <ele>242.60000610352</ele>
        <time>2020-01-11T14:29:52.000Z</time>
      </trkpt>
      <trkpt lat="43.83624" lon="7.14384">
        <ele>241.39999389648</ele>
        <time>2020-01-11T14:29:54.000Z</time>
      </trkpt>
      <trkpt lat="43.83619" lon="7.14392">
        <ele>240.19999694824</ele>
        <time>2020-01-11T14:29:56.000Z</time>
      </trkpt>
      <trkpt lat="43.83616" lon="7.14395">
        <ele>239</ele>
        <time>2020-01-11T14:29:57.000Z</time>
      </trkpt>
      <trkpt lat="43.83606" lon="7.14404">
        <ele>237.80000305176</ele>
        <time>2020-01-11T14:30:00.000Z</time>
      </trkpt>
      <trkpt lat="43.836" lon="7.14411">
        <ele>236.80000305176</ele>
        <time>2020-01-11T14:30:02.000Z</time>
      </trkpt>
      <trkpt lat="43.83598" lon="7.14414">
        <ele>236.39999389648</ele>
        <time>2020-01-11T14:30:03.000Z</time>
      </trkpt>
      <trkpt lat="43.83592" lon="7.1442">
        <ele>235.60000610352</ele>
        <time>2020-01-11T14:30:05.000Z</time>
      </trkpt>
      <trkpt lat="43.83585" lon="7.14429">
        <ele>234.80000305176</ele>
        <time>2020-01-11T14:30:08.000Z</time>
      </trkpt>
      <trkpt lat="43.83585" lon="7.14433">
        <ele>234.19999694824</ele>
        <time>2020-01-11T14:30:09.000Z</time>
      </trkpt>
      <trkpt lat="43.83581" lon="7.14444">
        <ele>233.19999694824</ele>
        <time>2020-01-11T14:30:11.000Z</time>
      </trkpt>
      <trkpt lat="43.83573" lon="7.14449">
        <ele>232.19999694824</ele>
        <time>2020-01-11T14:30:13.000Z</time>
      </trkpt>
      <trkpt lat="43.83569" lon="7.14451">
        <ele>231.60000610352</ele>
        <time>2020-01-11T14:30:14.000Z</time>
      </trkpt>
      <trkpt lat="43.83558" lon="7.14458">
        <ele>230.80000305176</ele>
        <time>2020-01-11T14:30:16.000Z</time>
      </trkpt>
      <trkpt lat="43.83551" lon="7.1446">
        <ele>230.19999694824</ele>
        <time>2020-01-11T14:30:17.000Z</time>
      </trkpt>
      <trkpt lat="43.83545" lon="7.14462">
        <ele>229.39999389648</ele>
        <time>2020-01-11T14:30:18.000Z</time>
      </trkpt>
      <trkpt lat="43.83531" lon="7.1446">
        <ele>227.80000305176</ele>
        <time>2020-01-11T14:30:21.000Z</time>
      </trkpt>
      <trkpt lat="43.83528" lon="7.1446">
        <ele>226.60000610352</ele>
        <time>2020-01-11T14:30:22.000Z</time>
      </trkpt>
      <trkpt lat="43.83523" lon="7.14465">
        <ele>225</ele>
        <time>2020-01-11T14:30:24.000Z</time>
      </trkpt>
      <trkpt lat="43.83519" lon="7.14474">
        <ele>223.60000610352</ele>
        <time>2020-01-11T14:30:26.000Z</time>
      </trkpt>
      <trkpt lat="43.83516" lon="7.14486">
        <ele>222.39999389648</ele>
        <time>2020-01-11T14:30:29.000Z</time>
      </trkpt>
      <trkpt lat="43.83512" lon="7.14514">
        <ele>222</ele>
        <time>2020-01-11T14:30:36.000Z</time>
      </trkpt>
      <trkpt lat="43.83514" lon="7.14522">
        <ele>221.39999389648</ele>
        <time>2020-01-11T14:30:40.000Z</time>
      </trkpt>
      <trkpt lat="43.83514" lon="7.14523">
        <ele>221.39999389648</ele>
        <time>2020-01-11T14:30:50.000Z</time>
      </trkpt>
      <trkpt lat="43.83514" lon="7.14523">
        <ele>221.39999389648</ele>
        <time>2020-01-11T14:31:01.000Z</time>
      </trkpt>
      <trkpt lat="43.83514" lon="7.14523">
        <ele>221.39999389648</ele>
        <time>2020-01-11T14:31:17.000Z</time>
      </trkpt>
      <trkpt lat="43.83517" lon="7.14525">
        <ele>221.39999389648</ele>
        <time>2020-01-11T14:31:45.000Z</time>
      </trkpt>
      <trkpt lat="43.83519" lon="7.14525">
        <ele>221.39999389648</ele>
        <time>2020-01-11T14:31:46.000Z</time>
      </trkpt>
      <trkpt lat="43.83529" lon="7.14525">
        <ele>221.19999694824</ele>
        <time>2020-01-11T14:31:48.000Z</time>
      </trkpt>
      <trkpt lat="43.83539" lon="7.14527">
        <ele>220.60000610352</ele>
        <time>2020-01-11T14:31:50.000Z</time>
      </trkpt>
      <trkpt lat="43.83544" lon="7.14528">
        <ele>220</ele>
        <time>2020-01-11T14:31:51.000Z</time>
      </trkpt>
      <trkpt lat="43.83553" lon="7.1453">
        <ele>219</ele>
        <time>2020-01-11T14:31:53.000Z</time>
      </trkpt>
      <trkpt lat="43.83557" lon="7.1453">
        <ele>218.60000610352</ele>
        <time>2020-01-11T14:31:54.000Z</time>
      </trkpt>
      <trkpt lat="43.83561" lon="7.1453">
        <ele>218.39999389648</ele>
        <time>2020-01-11T14:31:55.000Z</time>
      </trkpt>
      <trkpt lat="43.83576" lon="7.14532">
        <ele>217.80000305176</ele>
        <time>2020-01-11T14:31:58.000Z</time>
      </trkpt>
      <trkpt lat="43.83587" lon="7.14527">
        <ele>217.39999389648</ele>
        <time>2020-01-11T14:32:01.000Z</time>
      </trkpt>
      <trkpt lat="43.83597" lon="7.14523">
        <ele>216.39999389648</ele>
        <time>2020-01-11T14:32:04.000Z</time>
      </trkpt>
      <trkpt lat="43.83603" lon="7.14521">
        <ele>216.39999389648</ele>
        <time>2020-01-11T14:32:05.000Z</time>
      </trkpt>
      <trkpt lat="43.83612" lon="7.14514">
        <ele>216</ele>
        <time>2020-01-11T14:32:07.000Z</time>
      </trkpt>
      <trkpt lat="43.83616" lon="7.14512">
        <ele>215.80000305176</ele>
        <time>2020-01-11T14:32:08.000Z</time>
      </trkpt>
      <trkpt lat="43.8362" lon="7.1451">
        <ele>215.19999694824</ele>
        <time>2020-01-11T14:32:10.000Z</time>
      </trkpt>
      <trkpt lat="43.83623" lon="7.1451">
        <ele>214.80000305176</ele>
        <time>2020-01-11T14:32:11.000Z</time>
      </trkpt>
      <trkpt lat="43.83628" lon="7.14512">
        <ele>214.60000610352</ele>
        <time>2020-01-11T14:32:12.000Z</time>
      </trkpt>
      <trkpt lat="43.83632" lon="7.14511">
        <ele>214.19999694824</ele>
        <time>2020-01-11T14:32:13.000Z</time>
      </trkpt>
      <trkpt lat="43.83636" lon="7.14509">
        <ele>213.80000305176</ele>
        <time>2020-01-11T14:32:14.000Z</time>
      </trkpt>
      <trkpt lat="43.83649" lon="7.14511">
        <ele>213</ele>
        <time>2020-01-11T14:32:18.000Z</time>
      </trkpt>
      <trkpt lat="43.83664" lon="7.14514">
        <ele>212</ele>
        <time>2020-01-11T14:32:23.000Z</time>
      </trkpt>
      <trkpt lat="43.83667" lon="7.14507">
        <ele>212</ele>
        <time>2020-01-11T14:32:25.000Z</time>
      </trkpt>
      <trkpt lat="43.83669" lon="7.14504">
        <ele>211.80000305176</ele>
        <time>2020-01-11T14:32:26.000Z</time>
      </trkpt>
      <trkpt lat="43.83674" lon="7.14508">
        <ele>211.39999389648</ele>
        <time>2020-01-11T14:32:29.000Z</time>
      </trkpt>
      <trkpt lat="43.83675" lon="7.14507">
        <ele>211.39999389648</ele>
        <time>2020-01-11T14:32:30.000Z</time>
      </trkpt>
      <trkpt lat="43.8368" lon="7.14508">
        <ele>211.19999694824</ele>
        <time>2020-01-11T14:32:32.000Z</time>
      </trkpt>
      <trkpt lat="43.83682" lon="7.14514">
        <ele>211</ele>
        <time>2020-01-11T14:32:35.000Z</time>
      </trkpt>
      <trkpt lat="43.83684" lon="7.14514">
        <ele>211.19999694824</ele>
        <time>2020-01-11T14:32:37.000Z</time>
      </trkpt>
      <trkpt lat="43.83688" lon="7.14514">
        <ele>211.19999694824</ele>
        <time>2020-01-11T14:32:39.000Z</time>
      </trkpt>
      <trkpt lat="43.83702" lon="7.14514">
        <ele>211.39999389648</ele>
        <time>2020-01-11T14:32:43.000Z</time>
      </trkpt>
      <trkpt lat="43.83719" lon="7.14516">
        <ele>211.19999694824</ele>
        <time>2020-01-11T14:32:48.000Z</time>
      </trkpt>
      <trkpt lat="43.83723" lon="7.14517">
        <ele>210.80000305176</ele>
        <time>2020-01-11T14:32:50.000Z</time>
      </trkpt>
      <trkpt lat="43.83727" lon="7.14516">
        <ele>210.39999389648</ele>
        <time>2020-01-11T14:32:53.000Z</time>
      </trkpt>
      <trkpt lat="43.83731" lon="7.14513">
        <ele>210</ele>
        <time>2020-01-11T14:33:00.000Z</time>
      </trkpt>
      <trkpt lat="43.83732" lon="7.14513">
        <ele>209.80000305176</ele>
        <time>2020-01-11T14:33:01.000Z</time>
      </trkpt>
      <trkpt lat="43.83733" lon="7.14512">
        <ele>208.60000610352</ele>
        <time>2020-01-11T14:33:05.000Z</time>
      </trkpt>
      <trkpt lat="43.83735" lon="7.14512">
        <ele>208.60000610352</ele>
        <time>2020-01-11T14:33:11.000Z</time>
      </trkpt>
      <trkpt lat="43.83738" lon="7.1451">
        <ele>208.19999694824</ele>
        <time>2020-01-11T14:33:18.000Z</time>
      </trkpt>
      <trkpt lat="43.83741" lon="7.1451">
        <ele>208.39999389648</ele>
        <time>2020-01-11T14:33:24.000Z</time>
      </trkpt>
      <trkpt lat="43.83741" lon="7.1451">
        <ele>208.39999389648</ele>
        <time>2020-01-11T14:33:25.000Z</time>
      </trkpt>
      <trkpt lat="43.83744" lon="7.1451">
        <ele>209.19999694824</ele>
        <time>2020-01-11T14:33:32.000Z</time>
      </trkpt>
      <trkpt lat="43.83748" lon="7.1451">
        <ele>209</ele>
        <time>2020-01-11T14:33:44.000Z</time>
      </trkpt>
      <trkpt lat="43.83753" lon="7.14511">
        <ele>209</ele>
        <time>2020-01-11T14:33:48.000Z</time>
      </trkpt>
      <trkpt lat="43.83754" lon="7.14511">
        <ele>209.80000305176</ele>
        <time>2020-01-11T14:33:50.000Z</time>
      </trkpt>
      <trkpt lat="43.83756" lon="7.14512">
        <ele>211</ele>
        <time>2020-01-11T14:33:53.000Z</time>
      </trkpt>
      <trkpt lat="43.83756" lon="7.14512">
        <ele>211.19999694824</ele>
        <time>2020-01-11T14:33:55.000Z</time>
      </trkpt>
      <trkpt lat="43.83758" lon="7.14512">
        <ele>212</ele>
        <time>2020-01-11T14:33:59.000Z</time>
      </trkpt>
      <trkpt lat="43.83759" lon="7.14512">
        <ele>212.39999389648</ele>
        <time>2020-01-11T14:34:03.000Z</time>
      </trkpt>
      <trkpt lat="43.83761" lon="7.14512">
        <ele>213.19999694824</ele>
        <time>2020-01-11T14:34:08.000Z</time>
      </trkpt>
      <trkpt lat="43.83763" lon="7.14512">
        <ele>213.80000305176</ele>
        <time>2020-01-11T14:34:11.000Z</time>
      </trkpt>
      <trkpt lat="43.83764" lon="7.14513">
        <ele>214.19999694824</ele>
        <time>2020-01-11T14:34:14.000Z</time>
      </trkpt>
      <trkpt lat="43.83765" lon="7.14513">
        <ele>214.80000305176</ele>
        <time>2020-01-11T14:34:17.000Z</time>
      </trkpt>
      <trkpt lat="43.83765" lon="7.14511">
        <ele>215.19999694824</ele>
        <time>2020-01-11T14:34:23.000Z</time>
      </trkpt>
      <trkpt lat="43.83765" lon="7.14512">
        <ele>215.39999389648</ele>
        <time>2020-01-11T14:34:24.000Z</time>
      </trkpt>
      <trkpt lat="43.83767" lon="7.14508">
        <ele>215.60000610352</ele>
        <time>2020-01-11T14:34:30.000Z</time>
      </trkpt>
      <trkpt lat="43.83769" lon="7.14505">
        <ele>216.39999389648</ele>
        <time>2020-01-11T14:34:35.000Z</time>
      </trkpt>
      <trkpt lat="43.8377" lon="7.14504">
        <ele>216.60000610352</ele>
        <time>2020-01-11T14:34:36.000Z</time>
      </trkpt>
      <trkpt lat="43.8377" lon="7.14503">
        <ele>217.60000610352</ele>
        <time>2020-01-11T14:34:40.000Z</time>
      </trkpt>
      <trkpt lat="43.83772" lon="7.14502">
        <ele>217.80000305176</ele>
        <time>2020-01-11T14:34:43.000Z</time>
      </trkpt>
      <trkpt lat="43.83772" lon="7.14501">
        <ele>218.39999389648</ele>
        <time>2020-01-11T14:34:49.000Z</time>
      </trkpt>
      <trkpt lat="43.83772" lon="7.14501">
        <ele>218.60000610352</ele>
        <time>2020-01-11T14:34:50.000Z</time>
      </trkpt>
      <trkpt lat="43.83771" lon="7.14498">
        <ele>219.19999694824</ele>
        <time>2020-01-11T14:34:57.000Z</time>
      </trkpt>
      <trkpt lat="43.83772" lon="7.14495">
        <ele>219.19999694824</ele>
        <time>2020-01-11T14:35:06.000Z</time>
      </trkpt>
      <trkpt lat="43.83772" lon="7.14495">
        <ele>219.19999694824</ele>
        <time>2020-01-11T14:35:13.000Z</time>
      </trkpt>
      <trkpt lat="43.83773" lon="7.14493">
        <ele>219.19999694824</ele>
        <time>2020-01-11T14:35:18.000Z</time>
      </trkpt>
      <trkpt lat="43.83773" lon="7.14493">
        <ele>219.19999694824</ele>
        <time>2020-01-11T14:35:23.000Z</time>
      </trkpt>
      <trkpt lat="43.83774" lon="7.14491">
        <ele>219.39999389648</ele>
        <time>2020-01-11T14:35:30.000Z</time>
      </trkpt>
      <trkpt lat="43.83774" lon="7.14489">
        <ele>219.60000610352</ele>
        <time>2020-01-11T14:35:32.000Z</time>
      </trkpt>
      <trkpt lat="43.83775" lon="7.14489">
        <ele>219.60000610352</ele>
        <time>2020-01-11T14:35:35.000Z</time>
      </trkpt>
      <trkpt lat="43.83776" lon="7.14485">
        <ele>220.39999389648</ele>
        <time>2020-01-11T14:35:41.000Z</time>
      </trkpt>
      <trkpt lat="43.83777" lon="7.14483">
        <ele>220.80000305176</ele>
        <time>2020-01-11T14:35:44.000Z</time>
      </trkpt>
      <trkpt lat="43.83781" lon="7.1448">
        <ele>221.39999389648</ele>
        <time>2020-01-11T14:35:48.000Z</time>
      </trkpt>
      <trkpt lat="43.83781" lon="7.1448">
        <ele>221.80000305176</ele>
        <time>2020-01-11T14:35:50.000Z</time>
      </trkpt>
      <trkpt lat="43.83781" lon="7.1448">
        <ele>222</ele>
        <time>2020-01-11T14:35:51.000Z</time>
      </trkpt>
      <trkpt lat="43.83783" lon="7.14478">
        <ele>222.39999389648</ele>
        <time>2020-01-11T14:36:00.000Z</time>
      </trkpt>
      <trkpt lat="43.83785" lon="7.14475">
        <ele>223</ele>
        <time>2020-01-11T14:36:03.000Z</time>
      </trkpt>
      <trkpt lat="43.83788" lon="7.14472">
        <ele>224</ele>
        <time>2020-01-11T14:36:09.000Z</time>
      </trkpt>
      <trkpt lat="43.83792" lon="7.14467">
        <ele>225.19999694824</ele>
        <time>2020-01-11T14:36:16.000Z</time>
      </trkpt>
      <trkpt lat="43.83793" lon="7.14467">
        <ele>225.39999389648</ele>
        <time>2020-01-11T14:36:17.000Z</time>
      </trkpt>
      <trkpt lat="43.83795" lon="7.14464">
        <ele>226.39999389648</ele>
        <time>2020-01-11T14:36:22.000Z</time>
      </trkpt>
      <trkpt lat="43.83796" lon="7.14462">
        <ele>226.19999694824</ele>
        <time>2020-01-11T14:36:24.000Z</time>
      </trkpt>
      <trkpt lat="43.83798" lon="7.14461">
        <ele>226.80000305176</ele>
        <time>2020-01-11T14:36:31.000Z</time>
      </trkpt>
      <trkpt lat="43.838" lon="7.1446">
        <ele>226.60000610352</ele>
        <time>2020-01-11T14:36:40.000Z</time>
      </trkpt>
      <trkpt lat="43.83801" lon="7.1446">
        <ele>226.60000610352</ele>
        <time>2020-01-11T14:36:51.000Z</time>
      </trkpt>
      <trkpt lat="43.83802" lon="7.14459">
        <ele>226.60000610352</ele>
        <time>2020-01-11T14:37:08.000Z</time>
      </trkpt>
      <trkpt lat="43.83803" lon="7.14457">
        <ele>226.60000610352</ele>
        <time>2020-01-11T14:37:18.000Z</time>
      </trkpt>
      <trkpt lat="43.83806" lon="7.14453">
        <ele>226.60000610352</ele>
        <time>2020-01-11T14:37:20.000Z</time>
      </trkpt>
      <trkpt lat="43.83814" lon="7.14439">
        <ele>226</ele>
        <time>2020-01-11T14:37:25.000Z</time>
      </trkpt>
      <trkpt lat="43.83821" lon="7.14419">
        <ele>225.80000305176</ele>
        <time>2020-01-11T14:37:30.000Z</time>
      </trkpt>
      <trkpt lat="43.83823" lon="7.14414">
        <ele>225.80000305176</ele>
        <time>2020-01-11T14:37:31.000Z</time>
      </trkpt>
      <trkpt lat="43.83829" lon="7.14409">
        <ele>225.19999694824</ele>
        <time>2020-01-11T14:37:33.000Z</time>
      </trkpt>
      <trkpt lat="43.83832" lon="7.14409">
        <ele>225</ele>
        <time>2020-01-11T14:37:34.000Z</time>
      </trkpt>
      <trkpt lat="43.83842" lon="7.14412">
        <ele>224.60000610352</ele>
        <time>2020-01-11T14:37:36.000Z</time>
      </trkpt>
      <trkpt lat="43.83848" lon="7.14413">
        <ele>224.39999389648</ele>
        <time>2020-01-11T14:37:37.000Z</time>
      </trkpt>
      <trkpt lat="43.83854" lon="7.14413">
        <ele>223.80000305176</ele>
        <time>2020-01-11T14:37:38.000Z</time>
      </trkpt>
      <trkpt lat="43.83859" lon="7.14413">
        <ele>223.39999389648</ele>
        <time>2020-01-11T14:37:39.000Z</time>
      </trkpt>
      <trkpt lat="43.83877" lon="7.14409">
        <ele>222.60000610352</ele>
        <time>2020-01-11T14:37:42.000Z</time>
      </trkpt>
      <trkpt lat="43.83888" lon="7.14407">
        <ele>222.39999389648</ele>
        <time>2020-01-11T14:37:44.000Z</time>
      </trkpt>
      <trkpt lat="43.83907" lon="7.144">
        <ele>221.60000610352</ele>
        <time>2020-01-11T14:37:47.000Z</time>
      </trkpt>
      <trkpt lat="43.83912" lon="7.14396">
        <ele>221</ele>
        <time>2020-01-11T14:37:48.000Z</time>
      </trkpt>
      <trkpt lat="43.83917" lon="7.14392">
        <ele>220.60000610352</ele>
        <time>2020-01-11T14:37:49.000Z</time>
      </trkpt>
      <trkpt lat="43.83924" lon="7.14389">
        <ele>219.39999389648</ele>
        <time>2020-01-11T14:37:51.000Z</time>
      </trkpt>
      <trkpt lat="43.83934" lon="7.14381">
        <ele>219</ele>
        <time>2020-01-11T14:37:54.000Z</time>
      </trkpt>
      <trkpt lat="43.83944" lon="7.14368">
        <ele>219.39999389648</ele>
        <time>2020-01-11T14:37:57.000Z</time>
      </trkpt>
      <trkpt lat="43.83949" lon="7.14361">
        <ele>219.60000610352</ele>
        <time>2020-01-11T14:37:59.000Z</time>
      </trkpt>
      <trkpt lat="43.83956" lon="7.14351">
        <ele>220.39999389648</ele>
        <time>2020-01-11T14:38:02.000Z</time>
      </trkpt>
      <trkpt lat="43.8396" lon="7.14345">
        <ele>221.19999694824</ele>
        <time>2020-01-11T14:38:04.000Z</time>
      </trkpt>
      <trkpt lat="43.83964" lon="7.14342">
        <ele>221.60000610352</ele>
        <time>2020-01-11T14:38:05.000Z</time>
      </trkpt>
      <trkpt lat="43.83971" lon="7.1434">
        <ele>221.60000610352</ele>
        <time>2020-01-11T14:38:07.000Z</time>
      </trkpt>
      <trkpt lat="43.83991" lon="7.14335">
        <ele>221.80000305176</ele>
        <time>2020-01-11T14:38:12.000Z</time>
      </trkpt>
      <trkpt lat="43.83995" lon="7.14336">
        <ele>222</ele>
        <time>2020-01-11T14:38:13.000Z</time>
      </trkpt>
      <trkpt lat="43.84007" lon="7.14339">
        <ele>222.60000610352</ele>
        <time>2020-01-11T14:38:17.000Z</time>
      </trkpt>
      <trkpt lat="43.84011" lon="7.1434">
        <ele>223</ele>
        <time>2020-01-11T14:38:18.000Z</time>
      </trkpt>
      <trkpt lat="43.84026" lon="7.14339">
        <ele>223.19999694824</ele>
        <time>2020-01-11T14:38:22.000Z</time>
      </trkpt>
      <trkpt lat="43.84032" lon="7.14337">
        <ele>223.19999694824</ele>
        <time>2020-01-11T14:38:23.000Z</time>
      </trkpt>
      <trkpt lat="43.84051" lon="7.14331">
        <ele>222.80000305176</ele>
        <time>2020-01-11T14:38:27.000Z</time>
      </trkpt>
      <trkpt lat="43.84057" lon="7.1433">
        <ele>222.60000610352</ele>
        <time>2020-01-11T14:38:29.000Z</time>
      </trkpt>
      <trkpt lat="43.8407" lon="7.14326">
        <ele>224</ele>
        <time>2020-01-11T14:38:33.000Z</time>
      </trkpt>
      <trkpt lat="43.84076" lon="7.14322">
        <ele>224.39999389648</ele>
        <time>2020-01-11T14:38:35.000Z</time>
      </trkpt>
      <trkpt lat="43.84082" lon="7.14318">
        <ele>225.19999694824</ele>
        <time>2020-01-11T14:38:38.000Z</time>
      </trkpt>
      <trkpt lat="43.84088" lon="7.14314">
        <ele>225.80000305176</ele>
        <time>2020-01-11T14:38:41.000Z</time>
      </trkpt>
      <trkpt lat="43.84092" lon="7.14309">
        <ele>226.39999389648</ele>
        <time>2020-01-11T14:38:44.000Z</time>
      </trkpt>
      <trkpt lat="43.84093" lon="7.14307">
        <ele>227</ele>
        <time>2020-01-11T14:38:46.000Z</time>
      </trkpt>
      <trkpt lat="43.84098" lon="7.14303">
        <ele>227.39999389648</ele>
        <time>2020-01-11T14:38:51.000Z</time>
      </trkpt>
      <trkpt lat="43.84099" lon="7.14302">
        <ele>227.60000610352</ele>
        <time>2020-01-11T14:38:52.000Z</time>
      </trkpt>
      <trkpt lat="43.84102" lon="7.14294">
        <ele>228.80000305176</ele>
        <time>2020-01-11T14:38:57.000Z</time>
      </trkpt>
      <trkpt lat="43.84105" lon="7.14291">
        <ele>229.80000305176</ele>
        <time>2020-01-11T14:39:02.000Z</time>
      </trkpt>
      <trkpt lat="43.84106" lon="7.14291">
        <ele>230</ele>
        <time>2020-01-11T14:39:03.000Z</time>
      </trkpt>
      <trkpt lat="43.84112" lon="7.14288">
        <ele>230.60000610352</ele>
        <time>2020-01-11T14:39:09.000Z</time>
      </trkpt>
      <trkpt lat="43.84114" lon="7.14287">
        <ele>230.60000610352</ele>
        <time>2020-01-11T14:39:12.000Z</time>
      </trkpt>
      <trkpt lat="43.84117" lon="7.14287">
        <ele>230.80000305176</ele>
        <time>2020-01-11T14:39:14.000Z</time>
      </trkpt>
      <trkpt lat="43.84122" lon="7.14287">
        <ele>230.80000305176</ele>
        <time>2020-01-11T14:39:17.000Z</time>
      </trkpt>
      <trkpt lat="43.84135" lon="7.14292">
        <ele>231.60000610352</ele>
        <time>2020-01-11T14:39:23.000Z</time>
      </trkpt>
      <trkpt lat="43.84151" lon="7.14295">
        <ele>231.80000305176</ele>
        <time>2020-01-11T14:39:29.000Z</time>
      </trkpt>
      <trkpt lat="43.84156" lon="7.14294">
        <ele>231.39999389648</ele>
        <time>2020-01-11T14:39:30.000Z</time>
      </trkpt>
      <trkpt lat="43.84172" lon="7.14295">
        <ele>230.19999694824</ele>
        <time>2020-01-11T14:39:33.000Z</time>
      </trkpt>
      <trkpt lat="43.84182" lon="7.14302">
        <ele>229.39999389648</ele>
        <time>2020-01-11T14:39:35.000Z</time>
      </trkpt>
      <trkpt lat="43.84187" lon="7.1431">
        <ele>229.39999389648</ele>
        <time>2020-01-11T14:39:37.000Z</time>
      </trkpt>
      <trkpt lat="43.84195" lon="7.14315">
        <ele>229.39999389648</ele>
        <time>2020-01-11T14:39:39.000Z</time>
      </trkpt>
      <trkpt lat="43.84205" lon="7.14322">
        <ele>229.39999389648</ele>
        <time>2020-01-11T14:39:41.000Z</time>
      </trkpt>
      <trkpt lat="43.84221" lon="7.14334">
        <ele>228.39999389648</ele>
        <time>2020-01-11T14:39:44.000Z</time>
      </trkpt>
      <trkpt lat="43.84233" lon="7.14343">
        <ele>227.19999694824</ele>
        <time>2020-01-11T14:39:46.000Z</time>
      </trkpt>
      <trkpt lat="43.84255" lon="7.1436">
        <ele>225.80000305176</ele>
        <time>2020-01-11T14:39:50.000Z</time>
      </trkpt>
      <trkpt lat="43.84263" lon="7.14367">
        <ele>225.39999389648</ele>
        <time>2020-01-11T14:39:52.000Z</time>
      </trkpt>
      <trkpt lat="43.84267" lon="7.14373">
        <ele>224.39999389648</ele>
        <time>2020-01-11T14:39:53.000Z</time>
      </trkpt>
      <trkpt lat="43.84273" lon="7.14385">
        <ele>223.80000305176</ele>
        <time>2020-01-11T14:39:55.000Z</time>
      </trkpt>
      <trkpt lat="43.84278" lon="7.14398">
        <ele>223</ele>
        <time>2020-01-11T14:39:57.000Z</time>
      </trkpt>
      <trkpt lat="43.8428" lon="7.14403">
        <ele>223</ele>
        <time>2020-01-11T14:39:58.000Z</time>
      </trkpt>
      <trkpt lat="43.84285" lon="7.14412">
        <ele>222.19999694824</ele>
        <time>2020-01-11T14:40:00.000Z</time>
      </trkpt>
      <trkpt lat="43.84287" lon="7.14417">
        <ele>222</ele>
        <time>2020-01-11T14:40:01.000Z</time>
      </trkpt>
      <trkpt lat="43.84291" lon="7.14421">
        <ele>221.80000305176</ele>
        <time>2020-01-11T14:40:02.000Z</time>
      </trkpt>
      <trkpt lat="43.84299" lon="7.14428">
        <ele>221.39999389648</ele>
        <time>2020-01-11T14:40:04.000Z</time>
      </trkpt>
      <trkpt lat="43.84305" lon="7.14432">
        <ele>221</ele>
        <time>2020-01-11T14:40:05.000Z</time>
      </trkpt>
      <trkpt lat="43.84311" lon="7.14434">
        <ele>220.19999694824</ele>
        <time>2020-01-11T14:40:06.000Z</time>
      </trkpt>
      <trkpt lat="43.8432" lon="7.14438">
        <ele>218.80000305176</ele>
        <time>2020-01-11T14:40:08.000Z</time>
      </trkpt>
      <trkpt lat="43.84324" lon="7.14439">
        <ele>218.39999389648</ele>
        <time>2020-01-11T14:40:09.000Z</time>
      </trkpt>
      <trkpt lat="43.84329" lon="7.1444">
        <ele>218</ele>
        <time>2020-01-11T14:40:10.000Z</time>
      </trkpt>
      <trkpt lat="43.84336" lon="7.14446">
        <ele>218.19999694824</ele>
        <time>2020-01-11T14:40:12.000Z</time>
      </trkpt>
      <trkpt lat="43.84339" lon="7.14451">
        <ele>218.19999694824</ele>
        <time>2020-01-11T14:40:13.000Z</time>
      </trkpt>
      <trkpt lat="43.84342" lon="7.14457">
        <ele>218.19999694824</ele>
        <time>2020-01-11T14:40:14.000Z</time>
      </trkpt>
      <trkpt lat="43.84349" lon="7.14475">
        <ele>218</ele>
        <time>2020-01-11T14:40:17.000Z</time>
      </trkpt>
      <trkpt lat="43.84353" lon="7.14486">
        <ele>217.60000610352</ele>
        <time>2020-01-11T14:40:19.000Z</time>
      </trkpt>
      <trkpt lat="43.8436" lon="7.14496">
        <ele>217.80000305176</ele>
        <time>2020-01-11T14:40:22.000Z</time>
      </trkpt>
      <trkpt lat="43.84377" lon="7.14502">
        <ele>217.19999694824</ele>
        <time>2020-01-11T14:40:27.000Z</time>
      </trkpt>
      <trkpt lat="43.84384" lon="7.14509">
        <ele>216.80000305176</ele>
        <time>2020-01-11T14:40:29.000Z</time>
      </trkpt>
      <trkpt lat="43.84387" lon="7.14513">
        <ele>216.39999389648</ele>
        <time>2020-01-11T14:40:30.000Z</time>
      </trkpt>
      <trkpt lat="43.8439" lon="7.14519">
        <ele>216</ele>
        <time>2020-01-11T14:40:31.000Z</time>
      </trkpt>
      <trkpt lat="43.84393" lon="7.14524">
        <ele>215.80000305176</ele>
        <time>2020-01-11T14:40:32.000Z</time>
      </trkpt>
      <trkpt lat="43.84395" lon="7.14533">
        <ele>215.19999694824</ele>
        <time>2020-01-11T14:40:34.000Z</time>
      </trkpt>
      <trkpt lat="43.84397" lon="7.14538">
        <ele>214.80000305176</ele>
        <time>2020-01-11T14:40:35.000Z</time>
      </trkpt>
      <trkpt lat="43.84401" lon="7.1455">
        <ele>214</ele>
        <time>2020-01-11T14:40:38.000Z</time>
      </trkpt>
      <trkpt lat="43.84402" lon="7.14555">
        <ele>213.39999389648</ele>
        <time>2020-01-11T14:40:40.000Z</time>
      </trkpt>
      <trkpt lat="43.84404" lon="7.14556">
        <ele>213</ele>
        <time>2020-01-11T14:40:41.000Z</time>
      </trkpt>
      <trkpt lat="43.84408" lon="7.14556">
        <ele>211.19999694824</ele>
        <time>2020-01-11T14:40:43.000Z</time>
      </trkpt>
      <trkpt lat="43.84416" lon="7.14557">
        <ele>210</ele>
        <time>2020-01-11T14:40:46.000Z</time>
      </trkpt>
      <trkpt lat="43.84417" lon="7.14557">
        <ele>209.19999694824</ele>
        <time>2020-01-11T14:40:47.000Z</time>
      </trkpt>
      <trkpt lat="43.84423" lon="7.14562">
        <ele>208</ele>
        <time>2020-01-11T14:40:49.000Z</time>
      </trkpt>
      <trkpt lat="43.84426" lon="7.14566">
        <ele>206.39999389648</ele>
        <time>2020-01-11T14:40:51.000Z</time>
      </trkpt>
      <trkpt lat="43.84428" lon="7.14566">
        <ele>205.19999694824</ele>
        <time>2020-01-11T14:40:53.000Z</time>
      </trkpt>
      <trkpt lat="43.84429" lon="7.14566">
        <ele>204.80000305176</ele>
        <time>2020-01-11T14:40:54.000Z</time>
      </trkpt>
      <trkpt lat="43.8443" lon="7.14565">
        <ele>204.19999694824</ele>
        <time>2020-01-11T14:40:55.000Z</time>
      </trkpt>
      <trkpt lat="43.84434" lon="7.14565">
        <ele>203.19999694824</ele>
        <time>2020-01-11T14:40:57.000Z</time>
      </trkpt>
      <trkpt lat="43.84437" lon="7.14565">
        <ele>202.60000610352</ele>
        <time>2020-01-11T14:40:58.000Z</time>
      </trkpt>
      <trkpt lat="43.84439" lon="7.14565">
        <ele>202</ele>
        <time>2020-01-11T14:40:59.000Z</time>
      </trkpt>
      <trkpt lat="43.84439" lon="7.14565">
        <ele>201.60000610352</ele>
        <time>2020-01-11T14:41:00.000Z</time>
      </trkpt>
      <trkpt lat="43.84442" lon="7.14565">
        <ele>199.80000305176</ele>
        <time>2020-01-11T14:41:02.000Z</time>
      </trkpt>
      <trkpt lat="43.84443" lon="7.14566">
        <ele>198.80000305176</ele>
        <time>2020-01-11T14:41:03.000Z</time>
      </trkpt>
      <trkpt lat="43.84448" lon="7.14569">
        <ele>197.80000305176</ele>
        <time>2020-01-11T14:41:07.000Z</time>
      </trkpt>
      <trkpt lat="43.84451" lon="7.14571">
        <ele>197.60000610352</ele>
        <time>2020-01-11T14:41:08.000Z</time>
      </trkpt>
      <trkpt lat="43.84453" lon="7.14572">
        <ele>196.39999389648</ele>
        <time>2020-01-11T14:41:10.000Z</time>
      </trkpt>
      <trkpt lat="43.84454" lon="7.14573">
        <ele>195</ele>
        <time>2020-01-11T14:41:12.000Z</time>
      </trkpt>
      <trkpt lat="43.84458" lon="7.14577">
        <ele>194</ele>
        <time>2020-01-11T14:41:15.000Z</time>
      </trkpt>
      <trkpt lat="43.8446" lon="7.14581">
        <ele>193.39999389648</ele>
        <time>2020-01-11T14:41:17.000Z</time>
      </trkpt>
      <trkpt lat="43.84465" lon="7.14586">
        <ele>192.80000305176</ele>
        <time>2020-01-11T14:41:19.000Z</time>
      </trkpt>
      <trkpt lat="43.8447" lon="7.14591">
        <ele>191.80000305176</ele>
        <time>2020-01-11T14:41:21.000Z</time>
      </trkpt>
      <trkpt lat="43.84474" lon="7.14595">
        <ele>190.39999389648</ele>
        <time>2020-01-11T14:41:23.000Z</time>
      </trkpt>
      <trkpt lat="43.84477" lon="7.14598">
        <ele>188.60000610352</ele>
        <time>2020-01-11T14:41:25.000Z</time>
      </trkpt>
      <trkpt lat="43.84478" lon="7.146">
        <ele>188</ele>
        <time>2020-01-11T14:41:26.000Z</time>
      </trkpt>
      <trkpt lat="43.84478" lon="7.146">
        <ele>187.19999694824</ele>
        <time>2020-01-11T14:41:27.000Z</time>
      </trkpt>
      <trkpt lat="43.84479" lon="7.146">
        <ele>186</ele>
        <time>2020-01-11T14:41:30.000Z</time>
      </trkpt>
      <trkpt lat="43.84479" lon="7.146">
        <ele>185.60000610352</ele>
        <time>2020-01-11T14:41:31.000Z</time>
      </trkpt>
      <trkpt lat="43.8448" lon="7.14601">
        <ele>185.39999389648</ele>
        <time>2020-01-11T14:41:36.000Z</time>
      </trkpt>
      <trkpt lat="43.84486" lon="7.14604">
        <ele>184.80000305176</ele>
        <time>2020-01-11T14:41:41.000Z</time>
      </trkpt>
      <trkpt lat="43.84487" lon="7.14605">
        <ele>184.60000610352</ele>
        <time>2020-01-11T14:41:42.000Z</time>
      </trkpt>
      <trkpt lat="43.84492" lon="7.1461">
        <ele>184.19999694824</ele>
        <time>2020-01-11T14:41:45.000Z</time>
      </trkpt>
      <trkpt lat="43.84497" lon="7.14615">
        <ele>183.80000305176</ele>
        <time>2020-01-11T14:41:47.000Z</time>
      </trkpt>
      <trkpt lat="43.84503" lon="7.1462">
        <ele>182.39999389648</ele>
        <time>2020-01-11T14:41:50.000Z</time>
      </trkpt>
      <trkpt lat="43.84504" lon="7.1462">
        <ele>181.39999389648</ele>
        <time>2020-01-11T14:41:52.000Z</time>
      </trkpt>
      <trkpt lat="43.84505" lon="7.1462">
        <ele>180.60000610352</ele>
        <time>2020-01-11T14:41:54.000Z</time>
      </trkpt>
      <trkpt lat="43.84507" lon="7.1462">
        <ele>180.19999694824</ele>
        <time>2020-01-11T14:41:56.000Z</time>
      </trkpt>
      <trkpt lat="43.84509" lon="7.14619">
        <ele>179.39999389648</ele>
        <time>2020-01-11T14:42:00.000Z</time>
      </trkpt>
      <trkpt lat="43.84511" lon="7.14618">
        <ele>179.19999694824</ele>
        <time>2020-01-11T14:42:01.000Z</time>
      </trkpt>
      <trkpt lat="43.84512" lon="7.14618">
        <ele>178.80000305176</ele>
        <time>2020-01-11T14:42:02.000Z</time>
      </trkpt>
      <trkpt lat="43.84513" lon="7.14618">
        <ele>178.60000610352</ele>
        <time>2020-01-11T14:42:03.000Z</time>
      </trkpt>
      <trkpt lat="43.84515" lon="7.14618">
        <ele>177.80000305176</ele>
        <time>2020-01-11T14:42:06.000Z</time>
      </trkpt>
      <trkpt lat="43.84517" lon="7.14618">
        <ele>177.60000610352</ele>
        <time>2020-01-11T14:42:07.000Z</time>
      </trkpt>
      <trkpt lat="43.8452" lon="7.14617">
        <ele>177.39999389648</ele>
        <time>2020-01-11T14:42:09.000Z</time>
      </trkpt>
      <trkpt lat="43.84527" lon="7.1461">
        <ele>177</ele>
        <time>2020-01-11T14:42:12.000Z</time>
      </trkpt>
      <trkpt lat="43.8453" lon="7.14609">
        <ele>176.60000610352</ele>
        <time>2020-01-11T14:42:13.000Z</time>
      </trkpt>
      <trkpt lat="43.84533" lon="7.14609">
        <ele>176.60000610352</ele>
        <time>2020-01-11T14:42:14.000Z</time>
      </trkpt>
      <trkpt lat="43.84538" lon="7.14606">
        <ele>176</ele>
        <time>2020-01-11T14:42:16.000Z</time>
      </trkpt>
      <trkpt lat="43.84547" lon="7.14602">
        <ele>175.39999389648</ele>
        <time>2020-01-11T14:42:19.000Z</time>
      </trkpt>
      <trkpt lat="43.84553" lon="7.14598">
        <ele>175</ele>
        <time>2020-01-11T14:42:21.000Z</time>
      </trkpt>
      <trkpt lat="43.8456" lon="7.14593">
        <ele>174.39999389648</ele>
        <time>2020-01-11T14:42:24.000Z</time>
      </trkpt>
      <trkpt lat="43.84561" lon="7.14593">
        <ele>174.19999694824</ele>
        <time>2020-01-11T14:42:25.000Z</time>
      </trkpt>
      <trkpt lat="43.84564" lon="7.1459">
        <ele>173.80000305176</ele>
        <time>2020-01-11T14:42:30.000Z</time>
      </trkpt>
      <trkpt lat="43.84564" lon="7.14589">
        <ele>173.60000610352</ele>
        <time>2020-01-11T14:42:31.000Z</time>
      </trkpt>
      <trkpt lat="43.84575" lon="7.14582">
        <ele>173.60000610352</ele>
        <time>2020-01-11T14:42:35.000Z</time>
      </trkpt>
      <trkpt lat="43.84584" lon="7.14578">
        <ele>173.19999694824</ele>
        <time>2020-01-11T14:42:37.000Z</time>
      </trkpt>
      <trkpt lat="43.84596" lon="7.14567">
        <ele>172</ele>
        <time>2020-01-11T14:42:40.000Z</time>
      </trkpt>
      <trkpt lat="43.84602" lon="7.1456">
        <ele>170.60000610352</ele>
        <time>2020-01-11T14:42:43.000Z</time>
      </trkpt>
      <trkpt lat="43.84604" lon="7.14564">
        <ele>169.60000610352</ele>
        <time>2020-01-11T14:42:47.000Z</time>
      </trkpt>
      <trkpt lat="43.84605" lon="7.14566">
        <ele>169.60000610352</ele>
        <time>2020-01-11T14:42:48.000Z</time>
      </trkpt>
      <trkpt lat="43.84609" lon="7.14573">
        <ele>169.39999389648</ele>
        <time>2020-01-11T14:42:51.000Z</time>
      </trkpt>
      <trkpt lat="43.8461" lon="7.14576">
        <ele>169.39999389648</ele>
        <time>2020-01-11T14:42:52.000Z</time>
      </trkpt>
      <trkpt lat="43.84613" lon="7.1458">
        <ele>169.19999694824</ele>
        <time>2020-01-11T14:42:56.000Z</time>
      </trkpt>
      <trkpt lat="43.84616" lon="7.14582">
        <ele>168.80000305176</ele>
        <time>2020-01-11T14:43:03.000Z</time>
      </trkpt>
      <trkpt lat="43.84616" lon="7.14583">
        <ele>168.60000610352</ele>
        <time>2020-01-11T14:43:04.000Z</time>
      </trkpt>
      <trkpt lat="43.8462" lon="7.14588">
        <ele>168.39999389648</ele>
        <time>2020-01-11T14:43:09.000Z</time>
      </trkpt>
      <trkpt lat="43.84622" lon="7.14591">
        <ele>168.19999694824</ele>
        <time>2020-01-11T14:43:16.000Z</time>
      </trkpt>
      <trkpt lat="43.84624" lon="7.14593">
        <ele>168.39999389648</ele>
        <time>2020-01-11T14:43:22.000Z</time>
      </trkpt>
      <trkpt lat="43.84626" lon="7.14599">
        <ele>169.39999389648</ele>
        <time>2020-01-11T14:43:30.000Z</time>
      </trkpt>
      <trkpt lat="43.84626" lon="7.14599">
        <ele>169.60000610352</ele>
        <time>2020-01-11T14:43:32.000Z</time>
      </trkpt>
      <trkpt lat="43.84627" lon="7.14601">
        <ele>169.60000610352</ele>
        <time>2020-01-11T14:43:37.000Z</time>
      </trkpt>
      <trkpt lat="43.8463" lon="7.14601">
        <ele>169</ele>
        <time>2020-01-11T14:43:43.000Z</time>
      </trkpt>
      <trkpt lat="43.84629" lon="7.14607">
        <ele>169.39999389648</ele>
        <time>2020-01-11T14:43:49.000Z</time>
      </trkpt>
      <trkpt lat="43.8463" lon="7.14615">
        <ele>170.19999694824</ele>
        <time>2020-01-11T14:43:56.000Z</time>
      </trkpt>
      <trkpt lat="43.8463" lon="7.1462">
        <ele>170.80000305176</ele>
        <time>2020-01-11T14:44:00.000Z</time>
      </trkpt>
      <trkpt lat="43.84631" lon="7.14622">
        <ele>170.80000305176</ele>
        <time>2020-01-11T14:44:01.000Z</time>
      </trkpt>
      <trkpt lat="43.84638" lon="7.14636">
        <ele>170.80000305176</ele>
        <time>2020-01-11T14:44:07.000Z</time>
      </trkpt>
      <trkpt lat="43.84652" lon="7.14653">
        <ele>170.19999694824</ele>
        <time>2020-01-11T14:44:13.000Z</time>
      </trkpt>
      <trkpt lat="43.84661" lon="7.14664">
        <ele>170</ele>
        <time>2020-01-11T14:44:18.000Z</time>
      </trkpt>
      <trkpt lat="43.84664" lon="7.14671">
        <ele>171.39999389648</ele>
        <time>2020-01-11T14:44:24.000Z</time>
      </trkpt>
      <trkpt lat="43.84671" lon="7.14676">
        <ele>171.60000610352</ele>
        <time>2020-01-11T14:44:29.000Z</time>
      </trkpt>
      <trkpt lat="43.84682" lon="7.14682">
        <ele>170.80000305176</ele>
        <time>2020-01-11T14:44:33.000Z</time>
      </trkpt>
      <trkpt lat="43.84686" lon="7.14691">
        <ele>169.39999389648</ele>
        <time>2020-01-11T14:44:36.000Z</time>
      </trkpt>
      <trkpt lat="43.84689" lon="7.14699">
        <ele>169</ele>
        <time>2020-01-11T14:44:38.000Z</time>
      </trkpt>
      <trkpt lat="43.84692" lon="7.14728">
        <ele>168.80000305176</ele>
        <time>2020-01-11T14:44:44.000Z</time>
      </trkpt>
      <trkpt lat="43.84692" lon="7.14769">
        <ele>168.60000610352</ele>
        <time>2020-01-11T14:44:51.000Z</time>
      </trkpt>
      <trkpt lat="43.84691" lon="7.14787">
        <ele>168.39999389648</ele>
        <time>2020-01-11T14:44:54.000Z</time>
      </trkpt>
      <trkpt lat="43.84686" lon="7.1483">
        <ele>167.80000305176</ele>
        <time>2020-01-11T14:45:01.000Z</time>
      </trkpt>
      <trkpt lat="43.84692" lon="7.14843">
        <ele>167.39999389648</ele>
        <time>2020-01-11T14:45:05.000Z</time>
      </trkpt>
      <trkpt lat="43.84697" lon="7.14846">
        <ele>167</ele>
        <time>2020-01-11T14:45:09.000Z</time>
      </trkpt>
      <trkpt lat="43.84698" lon="7.14847">
        <ele>167</ele>
        <time>2020-01-11T14:45:14.000Z</time>
      </trkpt>
      <trkpt lat="43.84698" lon="7.14849">
        <ele>167</ele>
        <time>2020-01-11T14:45:39.000Z</time>
      </trkpt>
      <trkpt lat="43.84698" lon="7.1485">
        <ele>167</ele>
        <time>2020-01-11T14:45:46.000Z</time>
      </trkpt>
      <trkpt lat="43.84693" lon="7.14856">
        <ele>167</ele>
        <time>2020-01-11T14:45:52.000Z</time>
      </trkpt>
      <trkpt lat="43.84681" lon="7.14866">
        <ele>166.80000305176</ele>
        <time>2020-01-11T14:45:57.000Z</time>
      </trkpt>
      <trkpt lat="43.8468" lon="7.14874">
        <ele>167</ele>
        <time>2020-01-11T14:45:59.000Z</time>
      </trkpt>
      <trkpt lat="43.84676" lon="7.14888">
        <ele>166.80000305176</ele>
        <time>2020-01-11T14:46:03.000Z</time>
      </trkpt>
      <trkpt lat="43.8467" lon="7.14917">
        <ele>167</ele>
        <time>2020-01-11T14:46:10.000Z</time>
      </trkpt>
      <trkpt lat="43.84656" lon="7.14939">
        <ele>166.60000610352</ele>
        <time>2020-01-11T14:46:15.000Z</time>
      </trkpt>
      <trkpt lat="43.84652" lon="7.14943">
        <ele>166.39999389648</ele>
        <time>2020-01-11T14:46:16.000Z</time>
      </trkpt>
      <trkpt lat="43.84648" lon="7.14947">
        <ele>166</ele>
        <time>2020-01-11T14:46:17.000Z</time>
      </trkpt>
      <trkpt lat="43.84637" lon="7.14959">
        <ele>165.39999389648</ele>
        <time>2020-01-11T14:46:20.000Z</time>
      </trkpt>
      <trkpt lat="43.84634" lon="7.14963">
        <ele>165.19999694824</ele>
        <time>2020-01-11T14:46:21.000Z</time>
      </trkpt>
      <trkpt lat="43.84616" lon="7.14985">
        <ele>165.19999694824</ele>
        <time>2020-01-11T14:46:27.000Z</time>
      </trkpt>
      <trkpt lat="43.84596" lon="7.15013">
        <ele>164.80000305176</ele>
        <time>2020-01-11T14:46:34.000Z</time>
      </trkpt>
      <trkpt lat="43.84579" lon="7.15036">
        <ele>164.60000610352</ele>
        <time>2020-01-11T14:46:41.000Z</time>
      </trkpt>
      <trkpt lat="43.84573" lon="7.15054">
        <ele>164.80000305176</ele>
        <time>2020-01-11T14:46:47.000Z</time>
      </trkpt>
      <trkpt lat="43.84573" lon="7.15054">
        <ele>164.60000610352</ele>
        <time>2020-01-11T14:46:50.000Z</time>
      </trkpt>
      <trkpt lat="43.84575" lon="7.15053">
        <ele>164.60000610352</ele>
        <time>2020-01-11T14:46:59.000Z</time>
      </trkpt>
      <trkpt lat="43.84576" lon="7.15054">
        <ele>164.39999389648</ele>
        <time>2020-01-11T14:47:00.000Z</time>
      </trkpt>
      <trkpt lat="43.84576" lon="7.15056">
        <ele>164.19999694824</ele>
        <time>2020-01-11T14:47:02.000Z</time>
      </trkpt>
      <trkpt lat="43.84575" lon="7.15058">
        <ele>164.19999694824</ele>
        <time>2020-01-11T14:47:07.000Z</time>
      </trkpt>
      <trkpt lat="43.84572" lon="7.15068">
        <ele>164.19999694824</ele>
        <time>2020-01-11T14:47:11.000Z</time>
      </trkpt>
      <trkpt lat="43.84571" lon="7.15072">
        <ele>164.39999389648</ele>
        <time>2020-01-11T14:47:12.000Z</time>
      </trkpt>
      <trkpt lat="43.84563" lon="7.15098">
        <ele>164.19999694824</ele>
        <time>2020-01-11T14:47:18.000Z</time>
      </trkpt>
      <trkpt lat="43.84549" lon="7.1513">
        <ele>165</ele>
        <time>2020-01-11T14:47:26.000Z</time>
      </trkpt>
      <trkpt lat="43.84546" lon="7.15136">
        <ele>165.39999389648</ele>
        <time>2020-01-11T14:47:28.000Z</time>
      </trkpt>
      <trkpt lat="43.8454" lon="7.15151">
        <ele>166.39999389648</ele>
        <time>2020-01-11T14:47:32.000Z</time>
      </trkpt>
      <trkpt lat="43.84539" lon="7.15155">
        <ele>166.60000610352</ele>
        <time>2020-01-11T14:47:33.000Z</time>
      </trkpt>
      <trkpt lat="43.84537" lon="7.15183">
        <ele>167.19999694824</ele>
        <time>2020-01-11T14:47:39.000Z</time>
      </trkpt>
      <trkpt lat="43.84538" lon="7.15218">
        <ele>167.19999694824</ele>
        <time>2020-01-11T14:47:46.000Z</time>
      </trkpt>
      <trkpt lat="43.84537" lon="7.15244">
        <ele>167.19999694824</ele>
        <time>2020-01-11T14:47:51.000Z</time>
      </trkpt>
      <trkpt lat="43.84535" lon="7.15248">
        <ele>167.19999694824</ele>
        <time>2020-01-11T14:47:52.000Z</time>
      </trkpt>
      <trkpt lat="43.84529" lon="7.15254">
        <ele>167.19999694824</ele>
        <time>2020-01-11T14:47:54.000Z</time>
      </trkpt>
      <trkpt lat="43.84511" lon="7.15276">
        <ele>167</ele>
        <time>2020-01-11T14:48:00.000Z</time>
      </trkpt>
      <trkpt lat="43.84495" lon="7.15304">
        <ele>167</ele>
        <time>2020-01-11T14:48:07.000Z</time>
      </trkpt>
      <trkpt lat="43.84493" lon="7.15331">
        <ele>166.80000305176</ele>
        <time>2020-01-11T14:48:12.000Z</time>
      </trkpt>
      <trkpt lat="43.84497" lon="7.15336">
        <ele>166.60000610352</ele>
        <time>2020-01-11T14:48:14.000Z</time>
      </trkpt>
      <trkpt lat="43.845" lon="7.15336">
        <ele>166.60000610352</ele>
        <time>2020-01-11T14:48:15.000Z</time>
      </trkpt>
      <trkpt lat="43.84516" lon="7.1535">
        <ele>166.60000610352</ele>
        <time>2020-01-11T14:48:20.000Z</time>
      </trkpt>
      <trkpt lat="43.84524" lon="7.15375">
        <ele>166.39999389648</ele>
        <time>2020-01-11T14:48:24.000Z</time>
      </trkpt>
      <trkpt lat="43.84525" lon="7.15388">
        <ele>166.19999694824</ele>
        <time>2020-01-11T14:48:26.000Z</time>
      </trkpt>
      <trkpt lat="43.84526" lon="7.15395">
        <ele>166</ele>
        <time>2020-01-11T14:48:27.000Z</time>
      </trkpt>
      <trkpt lat="43.84533" lon="7.15412">
        <ele>166</ele>
        <time>2020-01-11T14:48:30.000Z</time>
      </trkpt>
      <trkpt lat="43.84536" lon="7.15418">
        <ele>166</ele>
        <time>2020-01-11T14:48:31.000Z</time>
      </trkpt>
      <trkpt lat="43.84547" lon="7.15436">
        <ele>165.80000305176</ele>
        <time>2020-01-11T14:48:35.000Z</time>
      </trkpt>
      <trkpt lat="43.84551" lon="7.1544">
        <ele>165.80000305176</ele>
        <time>2020-01-11T14:48:36.000Z</time>
      </trkpt>
      <trkpt lat="43.84568" lon="7.1546">
        <ele>165.80000305176</ele>
        <time>2020-01-11T14:48:41.000Z</time>
      </trkpt>
      <trkpt lat="43.84571" lon="7.15466">
        <ele>165.80000305176</ele>
        <time>2020-01-11T14:48:42.000Z</time>
      </trkpt>
      <trkpt lat="43.8458" lon="7.15484">
        <ele>165.80000305176</ele>
        <time>2020-01-11T14:48:46.000Z</time>
      </trkpt>
      <trkpt lat="43.84583" lon="7.1549">
        <ele>165.80000305176</ele>
        <time>2020-01-11T14:48:47.000Z</time>
      </trkpt>
      <trkpt lat="43.84593" lon="7.15503">
        <ele>165.60000610352</ele>
        <time>2020-01-11T14:48:50.000Z</time>
      </trkpt>
      <trkpt lat="43.84599" lon="7.15512">
        <ele>165.60000610352</ele>
        <time>2020-01-11T14:48:52.000Z</time>
      </trkpt>
      <trkpt lat="43.84601" lon="7.15517">
        <ele>165.60000610352</ele>
        <time>2020-01-11T14:48:53.000Z</time>
      </trkpt>
      <trkpt lat="43.84605" lon="7.15536">
        <ele>165.60000610352</ele>
        <time>2020-01-11T14:48:56.000Z</time>
      </trkpt>
      <trkpt lat="43.84605" lon="7.15549">
        <ele>165.60000610352</ele>
        <time>2020-01-11T14:48:58.000Z</time>
      </trkpt>
      <trkpt lat="43.84604" lon="7.15555">
        <ele>165.60000610352</ele>
        <time>2020-01-11T14:48:59.000Z</time>
      </trkpt>
      <trkpt lat="43.84605" lon="7.15562">
        <ele>165.60000610352</ele>
        <time>2020-01-11T14:49:00.000Z</time>
      </trkpt>
      <trkpt lat="43.8461" lon="7.15584">
        <ele>165.39999389648</ele>
        <time>2020-01-11T14:49:04.000Z</time>
      </trkpt>
      <trkpt lat="43.84612" lon="7.15597">
        <ele>165.39999389648</ele>
        <time>2020-01-11T14:49:06.000Z</time>
      </trkpt>
      <trkpt lat="43.84613" lon="7.15603">
        <ele>165.39999389648</ele>
        <time>2020-01-11T14:49:07.000Z</time>
      </trkpt>
      <trkpt lat="43.84615" lon="7.15615">
        <ele>165.39999389648</ele>
        <time>2020-01-11T14:49:09.000Z</time>
      </trkpt>
      <trkpt lat="43.84615" lon="7.15627">
        <ele>165.39999389648</ele>
        <time>2020-01-11T14:49:11.000Z</time>
      </trkpt>
      <trkpt lat="43.84616" lon="7.1564">
        <ele>165.39999389648</ele>
        <time>2020-01-11T14:49:13.000Z</time>
      </trkpt>
      <trkpt lat="43.84615" lon="7.15647">
        <ele>165.39999389648</ele>
        <time>2020-01-11T14:49:14.000Z</time>
      </trkpt>
      <trkpt lat="43.84609" lon="7.15658">
        <ele>165.60000610352</ele>
        <time>2020-01-11T14:49:16.000Z</time>
      </trkpt>
      <trkpt lat="43.84597" lon="7.1567">
        <ele>165.39999389648</ele>
        <time>2020-01-11T14:49:19.000Z</time>
      </trkpt>
      <trkpt lat="43.84592" lon="7.15674">
        <ele>165.19999694824</ele>
        <time>2020-01-11T14:49:20.000Z</time>
      </trkpt>
      <trkpt lat="43.84588" lon="7.15679">
        <ele>165</ele>
        <time>2020-01-11T14:49:21.000Z</time>
      </trkpt>
      <trkpt lat="43.84581" lon="7.15697">
        <ele>164.60000610352</ele>
        <time>2020-01-11T14:49:24.000Z</time>
      </trkpt>
      <trkpt lat="43.84579" lon="7.15704">
        <ele>164.39999389648</ele>
        <time>2020-01-11T14:49:25.000Z</time>
      </trkpt>
      <trkpt lat="43.84578" lon="7.15711">
        <ele>164.39999389648</ele>
        <time>2020-01-11T14:49:26.000Z</time>
      </trkpt>
      <trkpt lat="43.84574" lon="7.15732">
        <ele>164.39999389648</ele>
        <time>2020-01-11T14:49:29.000Z</time>
      </trkpt>
      <trkpt lat="43.84573" lon="7.1574">
        <ele>164.39999389648</ele>
        <time>2020-01-11T14:49:30.000Z</time>
      </trkpt>
      <trkpt lat="43.84571" lon="7.15746">
        <ele>164.39999389648</ele>
        <time>2020-01-11T14:49:31.000Z</time>
      </trkpt>
      <trkpt lat="43.8456" lon="7.15762">
        <ele>164.19999694824</ele>
        <time>2020-01-11T14:49:34.000Z</time>
      </trkpt>
      <trkpt lat="43.84556" lon="7.15768">
        <ele>164</ele>
        <time>2020-01-11T14:49:35.000Z</time>
      </trkpt>
      <trkpt lat="43.8453" lon="7.15793">
        <ele>163.19999694824</ele>
        <time>2020-01-11T14:49:41.000Z</time>
      </trkpt>
      <trkpt lat="43.84497" lon="7.15815">
        <ele>162.80000305176</ele>
        <time>2020-01-11T14:49:48.000Z</time>
      </trkpt>
      <trkpt lat="43.8447" lon="7.15831">
        <ele>162.60000610352</ele>
        <time>2020-01-11T14:49:54.000Z</time>
      </trkpt>
      <trkpt lat="43.84455" lon="7.15841">
        <ele>162.19999694824</ele>
        <time>2020-01-11T14:49:57.000Z</time>
      </trkpt>
      <trkpt lat="43.84451" lon="7.15845">
        <ele>162</ele>
        <time>2020-01-11T14:49:58.000Z</time>
      </trkpt>
      <trkpt lat="43.84432" lon="7.15872">
        <ele>162.19999694824</ele>
        <time>2020-01-11T14:50:03.000Z</time>
      </trkpt>
      <trkpt lat="43.84417" lon="7.15903">
        <ele>162</ele>
        <time>2020-01-11T14:50:08.000Z</time>
      </trkpt>
      <trkpt lat="43.84414" lon="7.15908">
        <ele>162</ele>
        <time>2020-01-11T14:50:09.000Z</time>
      </trkpt>
      <trkpt lat="43.84404" lon="7.15936">
        <ele>161.80000305176</ele>
        <time>2020-01-11T14:50:13.000Z</time>
      </trkpt>
      <trkpt lat="43.84387" lon="7.15958">
        <ele>161.39999389648</ele>
        <time>2020-01-11T14:50:17.000Z</time>
      </trkpt>
      <trkpt lat="43.84372" lon="7.15972">
        <ele>161</ele>
        <time>2020-01-11T14:50:20.000Z</time>
      </trkpt>
      <trkpt lat="43.84368" lon="7.15977">
        <ele>160.80000305176</ele>
        <time>2020-01-11T14:50:21.000Z</time>
      </trkpt>
      <trkpt lat="43.84362" lon="7.15991">
        <ele>160.39999389648</ele>
        <time>2020-01-11T14:50:23.000Z</time>
      </trkpt>
      <trkpt lat="43.84355" lon="7.16002">
        <ele>160.60000610352</ele>
        <time>2020-01-11T14:50:25.000Z</time>
      </trkpt>
      <trkpt lat="43.84345" lon="7.1601">
        <ele>160.39999389648</ele>
        <time>2020-01-11T14:50:27.000Z</time>
      </trkpt>
      <trkpt lat="43.84324" lon="7.16032">
        <ele>160.19999694824</ele>
        <time>2020-01-11T14:50:32.000Z</time>
      </trkpt>
      <trkpt lat="43.84317" lon="7.16053">
        <ele>160</ele>
        <time>2020-01-11T14:50:35.000Z</time>
      </trkpt>
      <trkpt lat="43.84317" lon="7.16061">
        <ele>160</ele>
        <time>2020-01-11T14:50:36.000Z</time>
      </trkpt>
      <trkpt lat="43.84317" lon="7.16077">
        <ele>159.80000305176</ele>
        <time>2020-01-11T14:50:38.000Z</time>
      </trkpt>
      <trkpt lat="43.84316" lon="7.16091">
        <ele>160</ele>
        <time>2020-01-11T14:50:40.000Z</time>
      </trkpt>
      <trkpt lat="43.84313" lon="7.16099">
        <ele>159.80000305176</ele>
        <time>2020-01-11T14:50:41.000Z</time>
      </trkpt>
      <trkpt lat="43.84311" lon="7.16112">
        <ele>159.80000305176</ele>
        <time>2020-01-11T14:50:43.000Z</time>
      </trkpt>
      <trkpt lat="43.84312" lon="7.16128">
        <ele>159.80000305176</ele>
        <time>2020-01-11T14:50:45.000Z</time>
      </trkpt>
      <trkpt lat="43.84321" lon="7.16191">
        <ele>159</ele>
        <time>2020-01-11T14:50:53.000Z</time>
      </trkpt>
      <trkpt lat="43.84322" lon="7.16214">
        <ele>158.80000305176</ele>
        <time>2020-01-11T14:50:56.000Z</time>
      </trkpt>
      <trkpt lat="43.8432" lon="7.16228">
        <ele>158.80000305176</ele>
        <time>2020-01-11T14:50:58.000Z</time>
      </trkpt>
      <trkpt lat="43.84317" lon="7.16249">
        <ele>158.80000305176</ele>
        <time>2020-01-11T14:51:01.000Z</time>
      </trkpt>
      <trkpt lat="43.84318" lon="7.16269">
        <ele>158.80000305176</ele>
        <time>2020-01-11T14:51:04.000Z</time>
      </trkpt>
      <trkpt lat="43.84313" lon="7.16297">
        <ele>158.80000305176</ele>
        <time>2020-01-11T14:51:08.000Z</time>
      </trkpt>
      <trkpt lat="43.84312" lon="7.16319">
        <ele>158.80000305176</ele>
        <time>2020-01-11T14:51:11.000Z</time>
      </trkpt>
      <trkpt lat="43.843" lon="7.16341">
        <ele>158.60000610352</ele>
        <time>2020-01-11T14:51:15.000Z</time>
      </trkpt>
      <trkpt lat="43.84288" lon="7.16352">
        <ele>158.39999389648</ele>
        <time>2020-01-11T14:51:18.000Z</time>
      </trkpt>
      <trkpt lat="43.84285" lon="7.16355">
        <ele>158.60000610352</ele>
        <time>2020-01-11T14:51:19.000Z</time>
      </trkpt>
      <trkpt lat="43.8428" lon="7.16357">
        <ele>158.60000610352</ele>
        <time>2020-01-11T14:51:20.000Z</time>
      </trkpt>
      <trkpt lat="43.84265" lon="7.16366">
        <ele>158.39999389648</ele>
        <time>2020-01-11T14:51:23.000Z</time>
      </trkpt>
      <trkpt lat="43.84255" lon="7.16371">
        <ele>158.39999389648</ele>
        <time>2020-01-11T14:51:25.000Z</time>
      </trkpt>
      <trkpt lat="43.84239" lon="7.16371">
        <ele>158.39999389648</ele>
        <time>2020-01-11T14:51:28.000Z</time>
      </trkpt>
      <trkpt lat="43.84226" lon="7.16371">
        <ele>158.19999694824</ele>
        <time>2020-01-11T14:51:31.000Z</time>
      </trkpt>
      <trkpt lat="43.84214" lon="7.16373">
        <ele>158</ele>
        <time>2020-01-11T14:51:33.000Z</time>
      </trkpt>
      <trkpt lat="43.8418" lon="7.16385">
        <ele>157.80000305176</ele>
        <time>2020-01-11T14:51:40.000Z</time>
      </trkpt>
      <trkpt lat="43.84175" lon="7.16389">
        <ele>157.80000305176</ele>
        <time>2020-01-11T14:51:41.000Z</time>
      </trkpt>
      <trkpt lat="43.8417" lon="7.16392">
        <ele>157.80000305176</ele>
        <time>2020-01-11T14:51:42.000Z</time>
      </trkpt>
      <trkpt lat="43.84166" lon="7.16396">
        <ele>157.80000305176</ele>
        <time>2020-01-11T14:51:43.000Z</time>
      </trkpt>
      <trkpt lat="43.84156" lon="7.16402">
        <ele>158</ele>
        <time>2020-01-11T14:51:45.000Z</time>
      </trkpt>
      <trkpt lat="43.84152" lon="7.16404">
        <ele>158</ele>
        <time>2020-01-11T14:51:46.000Z</time>
      </trkpt>
      <trkpt lat="43.84127" lon="7.16419">
        <ele>158</ele>
        <time>2020-01-11T14:51:51.000Z</time>
      </trkpt>
      <trkpt lat="43.84118" lon="7.16428">
        <ele>158</ele>
        <time>2020-01-11T14:51:53.000Z</time>
      </trkpt>
      <trkpt lat="43.84106" lon="7.16444">
        <ele>157.80000305176</ele>
        <time>2020-01-11T14:51:56.000Z</time>
      </trkpt>
      <trkpt lat="43.841" lon="7.16455">
        <ele>157.60000610352</ele>
        <time>2020-01-11T14:51:58.000Z</time>
      </trkpt>
      <trkpt lat="43.84094" lon="7.16468">
        <ele>157.60000610352</ele>
        <time>2020-01-11T14:52:00.000Z</time>
      </trkpt>
      <trkpt lat="43.8409" lon="7.16481">
        <ele>157.60000610352</ele>
        <time>2020-01-11T14:52:02.000Z</time>
      </trkpt>
      <trkpt lat="43.84086" lon="7.1651">
        <ele>157.60000610352</ele>
        <time>2020-01-11T14:52:06.000Z</time>
      </trkpt>
      <trkpt lat="43.84081" lon="7.16553">
        <ele>157.60000610352</ele>
        <time>2020-01-11T14:52:12.000Z</time>
      </trkpt>
      <trkpt lat="43.8408" lon="7.16559">
        <ele>157.60000610352</ele>
        <time>2020-01-11T14:52:13.000Z</time>
      </trkpt>
      <trkpt lat="43.8407" lon="7.16606">
        <ele>157</ele>
        <time>2020-01-11T14:52:20.000Z</time>
      </trkpt>
      <trkpt lat="43.84066" lon="7.16638">
        <ele>157.19999694824</ele>
        <time>2020-01-11T14:52:26.000Z</time>
      </trkpt>
      <trkpt lat="43.84069" lon="7.16669">
        <ele>156.80000305176</ele>
        <time>2020-01-11T14:52:31.000Z</time>
      </trkpt>
      <trkpt lat="43.8407" lon="7.1671">
        <ele>156</ele>
        <time>2020-01-11T14:52:37.000Z</time>
      </trkpt>
      <trkpt lat="43.84068" lon="7.16729">
        <ele>155.60000610352</ele>
        <time>2020-01-11T14:52:40.000Z</time>
      </trkpt>
      <trkpt lat="43.84066" lon="7.16736">
        <ele>155.60000610352</ele>
        <time>2020-01-11T14:52:41.000Z</time>
      </trkpt>
      <trkpt lat="43.84061" lon="7.16749">
        <ele>155.19999694824</ele>
        <time>2020-01-11T14:52:43.000Z</time>
      </trkpt>
      <trkpt lat="43.84049" lon="7.16774">
        <ele>154.60000610352</ele>
        <time>2020-01-11T14:52:47.000Z</time>
      </trkpt>
      <trkpt lat="43.84042" lon="7.16784">
        <ele>154.39999389648</ele>
        <time>2020-01-11T14:52:49.000Z</time>
      </trkpt>
      <trkpt lat="43.84028" lon="7.16808">
        <ele>153.60000610352</ele>
        <time>2020-01-11T14:52:53.000Z</time>
      </trkpt>
      <trkpt lat="43.84018" lon="7.16832">
        <ele>153.39999389648</ele>
        <time>2020-01-11T14:52:57.000Z</time>
      </trkpt>
      <trkpt lat="43.84012" lon="7.16869">
        <ele>153.19999694824</ele>
        <time>2020-01-11T14:53:02.000Z</time>
      </trkpt>
      <trkpt lat="43.84009" lon="7.16883">
        <ele>153</ele>
        <time>2020-01-11T14:53:04.000Z</time>
      </trkpt>
      <trkpt lat="43.84001" lon="7.16891">
        <ele>152.80000305176</ele>
        <time>2020-01-11T14:53:06.000Z</time>
      </trkpt>
      <trkpt lat="43.83993" lon="7.16896">
        <ele>152.39999389648</ele>
        <time>2020-01-11T14:53:08.000Z</time>
      </trkpt>
      <trkpt lat="43.83985" lon="7.169">
        <ele>152.19999694824</ele>
        <time>2020-01-11T14:53:10.000Z</time>
      </trkpt>
      <trkpt lat="43.83977" lon="7.16904">
        <ele>152</ele>
        <time>2020-01-11T14:53:12.000Z</time>
      </trkpt>
      <trkpt lat="43.83962" lon="7.16912">
        <ele>151.80000305176</ele>
        <time>2020-01-11T14:53:16.000Z</time>
      </trkpt>
      <trkpt lat="43.83947" lon="7.16921">
        <ele>151.60000610352</ele>
        <time>2020-01-11T14:53:20.000Z</time>
      </trkpt>
      <trkpt lat="43.83943" lon="7.16925">
        <ele>151.39999389648</ele>
        <time>2020-01-11T14:53:21.000Z</time>
      </trkpt>
      <trkpt lat="43.83934" lon="7.16931">
        <ele>151.39999389648</ele>
        <time>2020-01-11T14:53:23.000Z</time>
      </trkpt>
      <trkpt lat="43.83931" lon="7.16935">
        <ele>151.39999389648</ele>
        <time>2020-01-11T14:53:24.000Z</time>
      </trkpt>
      <trkpt lat="43.83908" lon="7.16958">
        <ele>151</ele>
        <time>2020-01-11T14:53:30.000Z</time>
      </trkpt>
      <trkpt lat="43.83904" lon="7.16963">
        <ele>151</ele>
        <time>2020-01-11T14:53:31.000Z</time>
      </trkpt>
      <trkpt lat="43.83896" lon="7.1698">
        <ele>151</ele>
        <time>2020-01-11T14:53:34.000Z</time>
      </trkpt>
      <trkpt lat="43.83879" lon="7.17016">
        <ele>150.80000305176</ele>
        <time>2020-01-11T14:53:40.000Z</time>
      </trkpt>
      <trkpt lat="43.83876" lon="7.17028">
        <ele>150.80000305176</ele>
        <time>2020-01-11T14:53:42.000Z</time>
      </trkpt>
      <trkpt lat="43.83874" lon="7.17041">
        <ele>150.80000305176</ele>
        <time>2020-01-11T14:53:44.000Z</time>
      </trkpt>
      <trkpt lat="43.8387" lon="7.17059">
        <ele>150.80000305176</ele>
        <time>2020-01-11T14:53:47.000Z</time>
      </trkpt>
      <trkpt lat="43.83867" lon="7.17064">
        <ele>151</ele>
        <time>2020-01-11T14:53:48.000Z</time>
      </trkpt>
      <trkpt lat="43.83849" lon="7.17082">
        <ele>151.19999694824</ele>
        <time>2020-01-11T14:53:53.000Z</time>
      </trkpt>
      <trkpt lat="43.83839" lon="7.17094">
        <ele>151.19999694824</ele>
        <time>2020-01-11T14:53:56.000Z</time>
      </trkpt>
      <trkpt lat="43.83835" lon="7.17106">
        <ele>151</ele>
        <time>2020-01-11T14:53:58.000Z</time>
      </trkpt>
      <trkpt lat="43.83834" lon="7.17117">
        <ele>151</ele>
        <time>2020-01-11T14:54:00.000Z</time>
      </trkpt>
      <trkpt lat="43.83836" lon="7.17129">
        <ele>151</ele>
        <time>2020-01-11T14:54:02.000Z</time>
      </trkpt>
      <trkpt lat="43.83836" lon="7.17135">
        <ele>151</ele>
        <time>2020-01-11T14:54:03.000Z</time>
      </trkpt>
      <trkpt lat="43.8383" lon="7.17149">
        <ele>151</ele>
        <time>2020-01-11T14:54:06.000Z</time>
      </trkpt>
      <trkpt lat="43.83818" lon="7.17153">
        <ele>151</ele>
        <time>2020-01-11T14:54:09.000Z</time>
      </trkpt>
      <trkpt lat="43.8381" lon="7.1716">
        <ele>151</ele>
        <time>2020-01-11T14:54:11.000Z</time>
      </trkpt>
      <trkpt lat="43.83803" lon="7.17165">
        <ele>150.80000305176</ele>
        <time>2020-01-11T14:54:13.000Z</time>
      </trkpt>
      <trkpt lat="43.83789" lon="7.17172">
        <ele>150.80000305176</ele>
        <time>2020-01-11T14:54:16.000Z</time>
      </trkpt>
      <trkpt lat="43.83774" lon="7.17178">
        <ele>151</ele>
        <time>2020-01-11T14:54:19.000Z</time>
      </trkpt>
      <trkpt lat="43.8376" lon="7.17183">
        <ele>150.80000305176</ele>
        <time>2020-01-11T14:54:22.000Z</time>
      </trkpt>
      <trkpt lat="43.83751" lon="7.17181">
        <ele>150.80000305176</ele>
        <time>2020-01-11T14:54:24.000Z</time>
      </trkpt>
      <trkpt lat="43.83735" lon="7.17166">
        <ele>151</ele>
        <time>2020-01-11T14:54:28.000Z</time>
      </trkpt>
      <trkpt lat="43.83726" lon="7.17162">
        <ele>151</ele>
        <time>2020-01-11T14:54:30.000Z</time>
      </trkpt>
      <trkpt lat="43.83722" lon="7.17161">
        <ele>151</ele>
        <time>2020-01-11T14:54:31.000Z</time>
      </trkpt>
      <trkpt lat="43.83717" lon="7.1716">
        <ele>151.19999694824</ele>
        <time>2020-01-11T14:54:32.000Z</time>
      </trkpt>
      <trkpt lat="43.83712" lon="7.1716">
        <ele>151</ele>
        <time>2020-01-11T14:54:33.000Z</time>
      </trkpt>
      <trkpt lat="43.83698" lon="7.17164">
        <ele>151.19999694824</ele>
        <time>2020-01-11T14:54:36.000Z</time>
      </trkpt>
      <trkpt lat="43.83688" lon="7.17168">
        <ele>151</ele>
        <time>2020-01-11T14:54:38.000Z</time>
      </trkpt>
      <trkpt lat="43.83673" lon="7.17174">
        <ele>151</ele>
        <time>2020-01-11T14:54:41.000Z</time>
      </trkpt>
      <trkpt lat="43.83668" lon="7.17174">
        <ele>150.80000305176</ele>
        <time>2020-01-11T14:54:42.000Z</time>
      </trkpt>
      <trkpt lat="43.83649" lon="7.1718">
        <ele>150.80000305176</ele>
        <time>2020-01-11T14:54:46.000Z</time>
      </trkpt>
      <trkpt lat="43.83637" lon="7.17189">
        <ele>151</ele>
        <time>2020-01-11T14:54:49.000Z</time>
      </trkpt>
      <trkpt lat="43.83633" lon="7.17198">
        <ele>150.80000305176</ele>
        <time>2020-01-11T14:54:51.000Z</time>
      </trkpt>
      <trkpt lat="43.83633" lon="7.1722">
        <ele>150.60000610352</ele>
        <time>2020-01-11T14:54:55.000Z</time>
      </trkpt>
    </trkseg>
  </trk>
</gpx>